<?xml version="1.0" encoding="UTF-8" standalone="no" ?>
<gpx xmlns="http://www.topografix.com/GPX/1/1" xmlns:xsi="http://www.w3.org/2001/XMLSchema-instance" xsi:schemaLocation="http://www.topografix.com/GPX/1/1 http://www.topografix.com/GPX/1/1/gpx.xsd" version="1.1" creator="VisuGPX - https://www.visugpx.com">
  <metadata>
    <name>LANGOGNE-LE PUY Route</name>
    <desc><![CDATA[Road trip de Langogne (48)à Ganges (34)en 4 jours]]></desc>
  </metadata>
  <trk>
    <name><![CDATA[2025 J3 Road trip chateauneuf-Hom]]></name>
    <extensions>
      <line xmlns="http://www.topografix.com/GPX/gpx_style/0/2">
        <color>FFFF00</color>
        <width>4</width>
      </line>
    </extensions>
    <trkseg>
      <trkpt lat="44.63323" lon="3.67616">
        <ele>1176.36</ele>
        <time>2024-11-05T09:46:39.000Z</time>
      </trkpt>
      <trkpt lat="44.63333" lon="3.67614">
        <ele>1176.22</ele>
        <time>2024-11-05T09:46:39.002Z</time>
      </trkpt>
      <trkpt lat="44.63331" lon="3.67591">
        <ele>1176.04</ele>
        <time>2024-11-05T09:46:39.006Z</time>
      </trkpt>
      <trkpt lat="44.63329" lon="3.67569">
        <ele>1175.85</ele>
        <time>2024-11-05T09:46:39.013Z</time>
      </trkpt>
      <trkpt lat="44.6333" lon="3.67558">
        <ele>1175.66</ele>
        <time>2024-11-05T09:46:39.021Z</time>
      </trkpt>
      <trkpt lat="44.63336" lon="3.67549">
        <ele>1175.45</ele>
        <time>2024-11-05T09:46:39.031Z</time>
      </trkpt>
      <trkpt lat="44.6335" lon="3.67537">
        <ele>1175.24</ele>
        <time>2024-11-05T09:46:39.043Z</time>
      </trkpt>
      <trkpt lat="44.63363" lon="3.67525">
        <ele>1175.04</ele>
        <time>2024-11-05T09:46:39.058Z</time>
      </trkpt>
      <trkpt lat="44.63368" lon="3.67507">
        <ele>1174.81</ele>
        <time>2024-11-05T09:46:39.075Z</time>
      </trkpt>
      <trkpt lat="44.63366" lon="3.67474">
        <ele>1174.59</ele>
        <time>2024-11-05T09:46:39.096Z</time>
      </trkpt>
      <trkpt lat="44.63365" lon="3.67449">
        <ele>1174.35</ele>
        <time>2024-11-05T09:46:39.120Z</time>
      </trkpt>
      <trkpt lat="44.63364" lon="3.67423">
        <ele>1174.14</ele>
        <time>2024-11-05T09:46:39.147Z</time>
      </trkpt>
      <trkpt lat="44.63359" lon="3.67414">
        <ele>1173.96</ele>
        <time>2024-11-05T09:46:39.175Z</time>
      </trkpt>
      <trkpt lat="44.63359" lon="3.67411">
        <ele>1173.8</ele>
        <time>2024-11-05T09:46:39.203Z</time>
      </trkpt>
      <trkpt lat="44.63359" lon="3.67399">
        <ele>1173.65</ele>
        <time>2024-11-05T09:46:39.233Z</time>
      </trkpt>
      <trkpt lat="44.6336" lon="3.67362">
        <ele>1173.59</ele>
        <time>2024-11-05T09:46:39.267Z</time>
      </trkpt>
      <trkpt lat="44.63334" lon="3.67362">
        <ele>1173.51</ele>
        <time>2024-11-05T09:46:39.305Z</time>
      </trkpt>
      <trkpt lat="44.6331" lon="3.67357">
        <ele>1173.43</ele>
        <time>2024-11-05T09:46:39.347Z</time>
      </trkpt>
      <trkpt lat="44.63285" lon="3.67353">
        <ele>1173.38</ele>
        <time>2024-11-05T09:46:39.393Z</time>
      </trkpt>
      <trkpt lat="44.6326" lon="3.67348">
        <ele>1173.39</ele>
        <time>2024-11-05T09:46:39.443Z</time>
      </trkpt>
      <trkpt lat="44.63239" lon="3.67348">
        <ele>1173.38</ele>
        <time>2024-11-05T09:46:39.496Z</time>
      </trkpt>
      <trkpt lat="44.63217" lon="3.67348">
        <ele>1173.37</ele>
        <time>2024-11-05T09:46:39.553Z</time>
      </trkpt>
      <trkpt lat="44.63191" lon="3.67337">
        <ele>1173.36</ele>
        <time>2024-11-05T09:46:39.614Z</time>
      </trkpt>
      <trkpt lat="44.63164" lon="3.67325">
        <ele>1173.41</ele>
        <time>2024-11-05T09:46:39.680Z</time>
      </trkpt>
      <trkpt lat="44.63136" lon="3.67317">
        <ele>1173.48</ele>
        <time>2024-11-05T09:46:39.750Z</time>
      </trkpt>
      <trkpt lat="44.63108" lon="3.67309">
        <ele>1173.5</ele>
        <time>2024-11-05T09:46:39.825Z</time>
      </trkpt>
      <trkpt lat="44.63088" lon="3.67302">
        <ele>1173.56</ele>
        <time>2024-11-05T09:46:39.903Z</time>
      </trkpt>
      <trkpt lat="44.63068" lon="3.67294">
        <ele>1173.66</ele>
        <time>2024-11-05T09:46:39.984Z</time>
      </trkpt>
      <trkpt lat="44.63049" lon="3.67285">
        <ele>1173.76</ele>
        <time>2024-11-05T09:46:40.069Z</time>
      </trkpt>
      <trkpt lat="44.63031" lon="3.67276">
        <ele>1173.86</ele>
        <time>2024-11-05T09:46:40.157Z</time>
      </trkpt>
      <trkpt lat="44.63007" lon="3.67261">
        <ele>1173.87</ele>
        <time>2024-11-05T09:46:40.249Z</time>
      </trkpt>
      <trkpt lat="44.6298" lon="3.67247">
        <ele>1173.88</ele>
        <time>2024-11-05T09:46:40.346Z</time>
      </trkpt>
      <trkpt lat="44.62963" lon="3.67243">
        <ele>1173.89</ele>
        <time>2024-11-05T09:46:40.445Z</time>
      </trkpt>
      <trkpt lat="44.62944" lon="3.6724">
        <ele>1173.94</ele>
        <time>2024-11-05T09:46:40.547Z</time>
      </trkpt>
      <trkpt lat="44.62925" lon="3.67236">
        <ele>1174.04</ele>
        <time>2024-11-05T09:46:40.652Z</time>
      </trkpt>
      <trkpt lat="44.62903" lon="3.67234">
        <ele>1174.09</ele>
        <time>2024-11-05T09:46:40.761Z</time>
      </trkpt>
      <trkpt lat="44.62881" lon="3.67232">
        <ele>1174.11</ele>
        <time>2024-11-05T09:46:40.873Z</time>
      </trkpt>
      <trkpt lat="44.62859" lon="3.6723">
        <ele>1174.13</ele>
        <time>2024-11-05T09:46:40.989Z</time>
      </trkpt>
      <trkpt lat="44.62832" lon="3.67225">
        <ele>1174.18</ele>
        <time>2024-11-05T09:46:41.109Z</time>
      </trkpt>
      <trkpt lat="44.62812" lon="3.67213">
        <ele>1174.28</ele>
        <time>2024-11-05T09:46:41.233Z</time>
      </trkpt>
      <trkpt lat="44.62797" lon="3.672">
        <ele>1174.36</ele>
        <time>2024-11-05T09:46:41.360Z</time>
      </trkpt>
      <trkpt lat="44.6278" lon="3.67179">
        <ele>1174.37</ele>
        <time>2024-11-05T09:46:41.490Z</time>
      </trkpt>
      <trkpt lat="44.62768" lon="3.67158">
        <ele>1174.37</ele>
        <time>2024-11-05T09:46:41.623Z</time>
      </trkpt>
      <trkpt lat="44.62763" lon="3.67143">
        <ele>1174.38</ele>
        <time>2024-11-05T09:46:41.758Z</time>
      </trkpt>
      <trkpt lat="44.62763" lon="3.67124">
        <ele>1174.44</ele>
        <time>2024-11-05T09:46:41.895Z</time>
      </trkpt>
      <trkpt lat="44.62769" lon="3.67101">
        <ele>1174.56</ele>
        <time>2024-11-05T09:46:42.035Z</time>
      </trkpt>
      <trkpt lat="44.62777" lon="3.67072">
        <ele>1174.64</ele>
        <time>2024-11-05T09:46:42.179Z</time>
      </trkpt>
      <trkpt lat="44.62786" lon="3.67042">
        <ele>1174.73</ele>
        <time>2024-11-05T09:46:42.326Z</time>
      </trkpt>
      <trkpt lat="44.62795" lon="3.67013">
        <ele>1174.77</ele>
        <time>2024-11-05T09:46:42.477Z</time>
      </trkpt>
      <trkpt lat="44.62802" lon="3.66983">
        <ele>1174.84</ele>
        <time>2024-11-05T09:46:42.632Z</time>
      </trkpt>
      <trkpt lat="44.62809" lon="3.66952">
        <ele>1174.96</ele>
        <time>2024-11-05T09:46:42.790Z</time>
      </trkpt>
      <trkpt lat="44.62816" lon="3.66922">
        <ele>1175.13</ele>
        <time>2024-11-05T09:46:42.952Z</time>
      </trkpt>
      <trkpt lat="44.6282" lon="3.669">
        <ele>1175.33</ele>
        <time>2024-11-05T09:46:43.117Z</time>
      </trkpt>
      <trkpt lat="44.62825" lon="3.66878">
        <ele>1175.56</ele>
        <time>2024-11-05T09:46:43.284Z</time>
      </trkpt>
      <trkpt lat="44.62827" lon="3.66841">
        <ele>1175.78</ele>
        <time>2024-11-05T09:46:43.455Z</time>
      </trkpt>
      <trkpt lat="44.6283" lon="3.66804">
        <ele>1176.02</ele>
        <time>2024-11-05T09:46:43.631Z</time>
      </trkpt>
      <trkpt lat="44.62833" lon="3.66767">
        <ele>1176.25</ele>
        <time>2024-11-05T09:46:43.811Z</time>
      </trkpt>
      <trkpt lat="44.62835" lon="3.66731">
        <ele>1176.5</ele>
        <time>2024-11-05T09:46:43.995Z</time>
      </trkpt>
      <trkpt lat="44.62835" lon="3.66688">
        <ele>1176.83</ele>
        <time>2024-11-05T09:46:44.184Z</time>
      </trkpt>
      <trkpt lat="44.62833" lon="3.66654">
        <ele>1177.18</ele>
        <time>2024-11-05T09:46:44.377Z</time>
      </trkpt>
      <trkpt lat="44.6283" lon="3.6662">
        <ele>1177.52</ele>
        <time>2024-11-05T09:46:44.574Z</time>
      </trkpt>
      <trkpt lat="44.62827" lon="3.66586">
        <ele>1177.84</ele>
        <time>2024-11-05T09:46:44.775Z</time>
      </trkpt>
      <trkpt lat="44.62825" lon="3.66552">
        <ele>1178.18</ele>
        <time>2024-11-05T09:46:44.980Z</time>
      </trkpt>
      <trkpt lat="44.62825" lon="3.66515">
        <ele>1178.51</ele>
        <time>2024-11-05T09:46:45.189Z</time>
      </trkpt>
      <trkpt lat="44.6283" lon="3.66476">
        <ele>1178.86</ele>
        <time>2024-11-05T09:46:45.402Z</time>
      </trkpt>
      <trkpt lat="44.62834" lon="3.66454">
        <ele>1179.27</ele>
        <time>2024-11-05T09:46:45.618Z</time>
      </trkpt>
      <trkpt lat="44.62838" lon="3.66432">
        <ele>1179.69</ele>
        <time>2024-11-05T09:46:45.837Z</time>
      </trkpt>
      <trkpt lat="44.62844" lon="3.66405">
        <ele>1180.14</ele>
        <time>2024-11-05T09:46:46.059Z</time>
      </trkpt>
      <trkpt lat="44.62851" lon="3.66379">
        <ele>1180.57</ele>
        <time>2024-11-05T09:46:46.284Z</time>
      </trkpt>
      <trkpt lat="44.62865" lon="3.66348">
        <ele>1181.01</ele>
        <time>2024-11-05T09:46:46.513Z</time>
      </trkpt>
      <trkpt lat="44.62866" lon="3.66334">
        <ele>1181.48</ele>
        <time>2024-11-05T09:46:46.744Z</time>
      </trkpt>
      <trkpt lat="44.62864" lon="3.6632">
        <ele>1181.97</ele>
        <time>2024-11-05T09:46:46.976Z</time>
      </trkpt>
      <trkpt lat="44.62858" lon="3.66302">
        <ele>1182.51</ele>
        <time>2024-11-05T09:46:47.211Z</time>
      </trkpt>
      <trkpt lat="44.62836" lon="3.66271">
        <ele>1183.07</ele>
        <time>2024-11-05T09:46:47.451Z</time>
      </trkpt>
      <trkpt lat="44.62815" lon="3.6624">
        <ele>1183.7</ele>
        <time>2024-11-05T09:46:47.696Z</time>
      </trkpt>
      <trkpt lat="44.62794" lon="3.66208">
        <ele>1184.41</ele>
        <time>2024-11-05T09:46:47.946Z</time>
      </trkpt>
      <trkpt lat="44.62774" lon="3.66178">
        <ele>1185.2</ele>
        <time>2024-11-05T09:46:48.200Z</time>
      </trkpt>
      <trkpt lat="44.62766" lon="3.6616">
        <ele>1186.04</ele>
        <time>2024-11-05T09:46:48.457Z</time>
      </trkpt>
      <trkpt lat="44.62759" lon="3.66139">
        <ele>1186.97</ele>
        <time>2024-11-05T09:46:48.716Z</time>
      </trkpt>
      <trkpt lat="44.62757" lon="3.66119">
        <ele>1187.94</ele>
        <time>2024-11-05T09:46:48.978Z</time>
      </trkpt>
      <trkpt lat="44.62761" lon="3.66103">
        <ele>1188.98</ele>
        <time>2024-11-05T09:46:49.242Z</time>
      </trkpt>
      <trkpt lat="44.62775" lon="3.66091">
        <ele>1190.07</ele>
        <time>2024-11-05T09:46:49.508Z</time>
      </trkpt>
      <trkpt lat="44.62789" lon="3.66079">
        <ele>1191.22</ele>
        <time>2024-11-05T09:46:49.777Z</time>
      </trkpt>
      <trkpt lat="44.62801" lon="3.6606">
        <ele>1192.44</ele>
        <time>2024-11-05T09:46:50.049Z</time>
      </trkpt>
      <trkpt lat="44.6281" lon="3.66037">
        <ele>1193.73</ele>
        <time>2024-11-05T09:46:50.324Z</time>
      </trkpt>
      <trkpt lat="44.62815" lon="3.66004">
        <ele>1195.15</ele>
        <time>2024-11-05T09:46:50.603Z</time>
      </trkpt>
      <trkpt lat="44.6282" lon="3.65972">
        <ele>1196.6</ele>
        <time>2024-11-05T09:46:50.885Z</time>
      </trkpt>
      <trkpt lat="44.62826" lon="3.65939">
        <ele>1198.13</ele>
        <time>2024-11-05T09:46:51.171Z</time>
      </trkpt>
      <trkpt lat="44.62831" lon="3.65907">
        <ele>1199.67</ele>
        <time>2024-11-05T09:46:51.461Z</time>
      </trkpt>
      <trkpt lat="44.62841" lon="3.65873">
        <ele>1201.21</ele>
        <time>2024-11-05T09:46:51.755Z</time>
      </trkpt>
      <trkpt lat="44.62853" lon="3.65833">
        <ele>1202.84</ele>
        <time>2024-11-05T09:46:52.054Z</time>
      </trkpt>
      <trkpt lat="44.62866" lon="3.65794">
        <ele>1204.57</ele>
        <time>2024-11-05T09:46:52.358Z</time>
      </trkpt>
      <trkpt lat="44.62879" lon="3.65755">
        <ele>1206.3</ele>
        <time>2024-11-05T09:46:52.667Z</time>
      </trkpt>
      <trkpt lat="44.62891" lon="3.65715">
        <ele>1208.09</ele>
        <time>2024-11-05T09:46:52.981Z</time>
      </trkpt>
      <trkpt lat="44.62904" lon="3.65676">
        <ele>1209.87</ele>
        <time>2024-11-05T09:46:53.300Z</time>
      </trkpt>
      <trkpt lat="44.62909" lon="3.65645">
        <ele>1211.68</ele>
        <time>2024-11-05T09:46:53.622Z</time>
      </trkpt>
      <trkpt lat="44.62914" lon="3.65613">
        <ele>1213.46</ele>
        <time>2024-11-05T09:46:53.948Z</time>
      </trkpt>
      <trkpt lat="44.62918" lon="3.65583">
        <ele>1215.29</ele>
        <time>2024-11-05T09:46:54.278Z</time>
      </trkpt>
      <trkpt lat="44.62922" lon="3.65553">
        <ele>1217.11</ele>
        <time>2024-11-05T09:46:54.611Z</time>
      </trkpt>
      <trkpt lat="44.62924" lon="3.65524">
        <ele>1218.95</ele>
        <time>2024-11-05T09:46:54.947Z</time>
      </trkpt>
      <trkpt lat="44.62924" lon="3.65494">
        <ele>1220.79</ele>
        <time>2024-11-05T09:46:55.287Z</time>
      </trkpt>
      <trkpt lat="44.62922" lon="3.65455">
        <ele>1222.61</ele>
        <time>2024-11-05T09:46:55.631Z</time>
      </trkpt>
      <trkpt lat="44.62917" lon="3.65431">
        <ele>1224.36</ele>
        <time>2024-11-05T09:46:55.978Z</time>
      </trkpt>
      <trkpt lat="44.62913" lon="3.65407">
        <ele>1226.09</ele>
        <time>2024-11-05T09:46:56.328Z</time>
      </trkpt>
      <trkpt lat="44.62903" lon="3.65379">
        <ele>1227.78</ele>
        <time>2024-11-05T09:46:56.682Z</time>
      </trkpt>
      <trkpt lat="44.62893" lon="3.65358">
        <ele>1229.41</ele>
        <time>2024-11-05T09:46:57.039Z</time>
      </trkpt>
      <trkpt lat="44.6288" lon="3.65336">
        <ele>1231</ele>
        <time>2024-11-05T09:46:57.399Z</time>
      </trkpt>
      <trkpt lat="44.62863" lon="3.65316">
        <ele>1232.55</ele>
        <time>2024-11-05T09:46:57.762Z</time>
      </trkpt>
      <trkpt lat="44.62863" lon="3.65316">
        <ele>1234.09</ele>
        <time>2024-11-05T09:46:58.125Z</time>
      </trkpt>
      <trkpt lat="44.62839" lon="3.65293">
        <ele>1235.74</ele>
        <time>2024-11-05T09:46:58.493Z</time>
      </trkpt>
      <trkpt lat="44.62815" lon="3.6527">
        <ele>1237.39</ele>
        <time>2024-11-05T09:46:58.866Z</time>
      </trkpt>
      <trkpt lat="44.62803" lon="3.65256">
        <ele>1238.95</ele>
        <time>2024-11-05T09:46:59.241Z</time>
      </trkpt>
      <trkpt lat="44.62792" lon="3.65239">
        <ele>1240.48</ele>
        <time>2024-11-05T09:46:59.619Z</time>
      </trkpt>
      <trkpt lat="44.62783" lon="3.65218">
        <ele>1242</ele>
        <time>2024-11-05T09:47:00.000Z</time>
      </trkpt>
      <trkpt lat="44.6277" lon="3.65186">
        <ele>1243.57</ele>
        <time>2024-11-05T09:47:00.385Z</time>
      </trkpt>
      <trkpt lat="44.62757" lon="3.65154">
        <ele>1245.2</ele>
        <time>2024-11-05T09:47:00.774Z</time>
      </trkpt>
      <trkpt lat="44.62744" lon="3.65127">
        <ele>1246.82</ele>
        <time>2024-11-05T09:47:01.167Z</time>
      </trkpt>
      <trkpt lat="44.62726" lon="3.65102">
        <ele>1248.4</ele>
        <time>2024-11-05T09:47:01.564Z</time>
      </trkpt>
      <trkpt lat="44.62708" lon="3.65078">
        <ele>1249.9</ele>
        <time>2024-11-05T09:47:01.965Z</time>
      </trkpt>
      <trkpt lat="44.62696" lon="3.65052">
        <ele>1251.38</ele>
        <time>2024-11-05T09:47:02.369Z</time>
      </trkpt>
      <trkpt lat="44.62685" lon="3.65025">
        <ele>1252.83</ele>
        <time>2024-11-05T09:47:02.777Z</time>
      </trkpt>
      <trkpt lat="44.62675" lon="3.64997">
        <ele>1254.27</ele>
        <time>2024-11-05T09:47:03.188Z</time>
      </trkpt>
      <trkpt lat="44.62665" lon="3.6497">
        <ele>1255.67</ele>
        <time>2024-11-05T09:47:03.603Z</time>
      </trkpt>
      <trkpt lat="44.62655" lon="3.64939">
        <ele>1257.01</ele>
        <time>2024-11-05T09:47:04.022Z</time>
      </trkpt>
      <trkpt lat="44.62646" lon="3.64908">
        <ele>1258.35</ele>
        <time>2024-11-05T09:47:04.445Z</time>
      </trkpt>
      <trkpt lat="44.62637" lon="3.64877">
        <ele>1259.71</ele>
        <time>2024-11-05T09:47:04.871Z</time>
      </trkpt>
      <trkpt lat="44.62627" lon="3.64846">
        <ele>1261.08</ele>
        <time>2024-11-05T09:47:05.301Z</time>
      </trkpt>
      <trkpt lat="44.62623" lon="3.6483">
        <ele>1262.43</ele>
        <time>2024-11-05T09:47:05.733Z</time>
      </trkpt>
      <trkpt lat="44.62612" lon="3.64791">
        <ele>1263.87</ele>
        <time>2024-11-05T09:47:06.170Z</time>
      </trkpt>
      <trkpt lat="44.62602" lon="3.64753">
        <ele>1265.39</ele>
        <time>2024-11-05T09:47:06.612Z</time>
      </trkpt>
      <trkpt lat="44.62592" lon="3.64714">
        <ele>1266.94</ele>
        <time>2024-11-05T09:47:07.058Z</time>
      </trkpt>
      <trkpt lat="44.62581" lon="3.64676">
        <ele>1268.45</ele>
        <time>2024-11-05T09:47:07.509Z</time>
      </trkpt>
      <trkpt lat="44.62571" lon="3.64637">
        <ele>1269.93</ele>
        <time>2024-11-05T09:47:07.965Z</time>
      </trkpt>
      <trkpt lat="44.6256" lon="3.64599">
        <ele>1271.36</ele>
        <time>2024-11-05T09:47:08.426Z</time>
      </trkpt>
      <trkpt lat="44.6255" lon="3.64561">
        <ele>1272.81</ele>
        <time>2024-11-05T09:47:08.891Z</time>
      </trkpt>
      <trkpt lat="44.62541" lon="3.64524">
        <ele>1274.34</ele>
        <time>2024-11-05T09:47:09.361Z</time>
      </trkpt>
      <trkpt lat="44.62533" lon="3.64488">
        <ele>1275.83</ele>
        <time>2024-11-05T09:47:09.835Z</time>
      </trkpt>
      <trkpt lat="44.62525" lon="3.6445">
        <ele>1277.28</ele>
        <time>2024-11-05T09:47:10.313Z</time>
      </trkpt>
      <trkpt lat="44.62518" lon="3.64412">
        <ele>1278.74</ele>
        <time>2024-11-05T09:47:10.796Z</time>
      </trkpt>
      <trkpt lat="44.6251" lon="3.64374">
        <ele>1280.24</ele>
        <time>2024-11-05T09:47:11.283Z</time>
      </trkpt>
      <trkpt lat="44.62503" lon="3.64336">
        <ele>1281.76</ele>
        <time>2024-11-05T09:47:11.775Z</time>
      </trkpt>
      <trkpt lat="44.62495" lon="3.64299">
        <ele>1283.28</ele>
        <time>2024-11-05T09:47:12.271Z</time>
      </trkpt>
      <trkpt lat="44.62493" lon="3.64271">
        <ele>1284.8</ele>
        <time>2024-11-05T09:47:12.771Z</time>
      </trkpt>
      <trkpt lat="44.62491" lon="3.64243">
        <ele>1286.38</ele>
        <time>2024-11-05T09:47:13.274Z</time>
      </trkpt>
      <trkpt lat="44.62489" lon="3.64218">
        <ele>1287.96</ele>
        <time>2024-11-05T09:47:13.780Z</time>
      </trkpt>
      <trkpt lat="44.62477" lon="3.64185">
        <ele>1289.58</ele>
        <time>2024-11-05T09:47:14.290Z</time>
      </trkpt>
      <trkpt lat="44.62456" lon="3.64155">
        <ele>1291.21</ele>
        <time>2024-11-05T09:47:14.805Z</time>
      </trkpt>
      <trkpt lat="44.62435" lon="3.64124">
        <ele>1292.84</ele>
        <time>2024-11-05T09:47:15.325Z</time>
      </trkpt>
      <trkpt lat="44.62414" lon="3.64094">
        <ele>1294.46</ele>
        <time>2024-11-05T09:47:15.849Z</time>
      </trkpt>
      <trkpt lat="44.62393" lon="3.64063">
        <ele>1296.09</ele>
        <time>2024-11-05T09:47:16.378Z</time>
      </trkpt>
      <trkpt lat="44.62371" lon="3.64033">
        <ele>1297.76</ele>
        <time>2024-11-05T09:47:16.912Z</time>
      </trkpt>
      <trkpt lat="44.6235" lon="3.64003">
        <ele>1299.44</ele>
        <time>2024-11-05T09:47:17.451Z</time>
      </trkpt>
      <trkpt lat="44.6233" lon="3.63982">
        <ele>1301.09</ele>
        <time>2024-11-05T09:47:17.994Z</time>
      </trkpt>
      <trkpt lat="44.62312" lon="3.63975">
        <ele>1302.75</ele>
        <time>2024-11-05T09:47:18.540Z</time>
      </trkpt>
      <trkpt lat="44.62296" lon="3.63975">
        <ele>1304.45</ele>
        <time>2024-11-05T09:47:19.089Z</time>
      </trkpt>
      <trkpt lat="44.62284" lon="3.6398">
        <ele>1306.14</ele>
        <time>2024-11-05T09:47:19.640Z</time>
      </trkpt>
      <trkpt lat="44.62272" lon="3.63995">
        <ele>1307.84</ele>
        <time>2024-11-05T09:47:20.193Z</time>
      </trkpt>
      <trkpt lat="44.62259" lon="3.6401">
        <ele>1309.55</ele>
        <time>2024-11-05T09:47:20.749Z</time>
      </trkpt>
      <trkpt lat="44.62248" lon="3.6402">
        <ele>1311.29</ele>
        <time>2024-11-05T09:47:21.307Z</time>
      </trkpt>
      <trkpt lat="44.62235" lon="3.64027">
        <ele>1313.05</ele>
        <time>2024-11-05T09:47:21.867Z</time>
      </trkpt>
      <trkpt lat="44.62216" lon="3.64028">
        <ele>1314.83</ele>
        <time>2024-11-05T09:47:22.430Z</time>
      </trkpt>
      <trkpt lat="44.62197" lon="3.64024">
        <ele>1316.59</ele>
        <time>2024-11-05T09:47:22.996Z</time>
      </trkpt>
      <trkpt lat="44.62182" lon="3.64014">
        <ele>1318.32</ele>
        <time>2024-11-05T09:47:23.565Z</time>
      </trkpt>
      <trkpt lat="44.62168" lon="3.64">
        <ele>1320.07</ele>
        <time>2024-11-05T09:47:24.137Z</time>
      </trkpt>
      <trkpt lat="44.62148" lon="3.63973">
        <ele>1321.88</ele>
        <time>2024-11-05T09:47:24.713Z</time>
      </trkpt>
      <trkpt lat="44.62127" lon="3.63945">
        <ele>1323.73</ele>
        <time>2024-11-05T09:47:25.294Z</time>
      </trkpt>
      <trkpt lat="44.62106" lon="3.63915">
        <ele>1325.58</ele>
        <time>2024-11-05T09:47:25.880Z</time>
      </trkpt>
      <trkpt lat="44.62085" lon="3.63885">
        <ele>1327.38</ele>
        <time>2024-11-05T09:47:26.470Z</time>
      </trkpt>
      <trkpt lat="44.6207" lon="3.63852">
        <ele>1329.21</ele>
        <time>2024-11-05T09:47:27.065Z</time>
      </trkpt>
      <trkpt lat="44.62054" lon="3.6382">
        <ele>1331.01</ele>
        <time>2024-11-05T09:47:27.664Z</time>
      </trkpt>
      <trkpt lat="44.62038" lon="3.63788">
        <ele>1332.8</ele>
        <time>2024-11-05T09:47:28.268Z</time>
      </trkpt>
      <trkpt lat="44.62023" lon="3.63756">
        <ele>1334.57</ele>
        <time>2024-11-05T09:47:28.876Z</time>
      </trkpt>
      <trkpt lat="44.62007" lon="3.63723">
        <ele>1336.4</ele>
        <time>2024-11-05T09:47:29.489Z</time>
      </trkpt>
      <trkpt lat="44.61991" lon="3.63691">
        <ele>1338.29</ele>
        <time>2024-11-05T09:47:30.106Z</time>
      </trkpt>
      <trkpt lat="44.61975" lon="3.63659">
        <ele>1340.22</ele>
        <time>2024-11-05T09:47:30.728Z</time>
      </trkpt>
      <trkpt lat="44.6196" lon="3.63627">
        <ele>1342.14</ele>
        <time>2024-11-05T09:47:31.354Z</time>
      </trkpt>
      <trkpt lat="44.61942" lon="3.63593">
        <ele>1344.02</ele>
        <time>2024-11-05T09:47:31.985Z</time>
      </trkpt>
      <trkpt lat="44.61925" lon="3.63571">
        <ele>1345.89</ele>
        <time>2024-11-05T09:47:32.620Z</time>
      </trkpt>
      <trkpt lat="44.61908" lon="3.63549">
        <ele>1347.76</ele>
        <time>2024-11-05T09:47:33.258Z</time>
      </trkpt>
      <trkpt lat="44.61891" lon="3.63527">
        <ele>1349.66</ele>
        <time>2024-11-05T09:47:33.900Z</time>
      </trkpt>
      <trkpt lat="44.61873" lon="3.63505">
        <ele>1351.54</ele>
        <time>2024-11-05T09:47:34.546Z</time>
      </trkpt>
      <trkpt lat="44.61856" lon="3.63483">
        <ele>1353.44</ele>
        <time>2024-11-05T09:47:35.195Z</time>
      </trkpt>
      <trkpt lat="44.61856" lon="3.63483">
        <ele>1355.28</ele>
        <time>2024-11-05T09:47:35.844Z</time>
      </trkpt>
      <trkpt lat="44.61842" lon="3.63463">
        <ele>1357.19</ele>
        <time>2024-11-05T09:47:36.497Z</time>
      </trkpt>
      <trkpt lat="44.61828" lon="3.63443">
        <ele>1359.12</ele>
        <time>2024-11-05T09:47:37.153Z</time>
      </trkpt>
      <trkpt lat="44.61821" lon="3.63424">
        <ele>1361.02</ele>
        <time>2024-11-05T09:47:37.811Z</time>
      </trkpt>
      <trkpt lat="44.61817" lon="3.63402">
        <ele>1362.93</ele>
        <time>2024-11-05T09:47:38.472Z</time>
      </trkpt>
      <trkpt lat="44.61812" lon="3.6338">
        <ele>1364.8</ele>
        <time>2024-11-05T09:47:39.135Z</time>
      </trkpt>
      <trkpt lat="44.61812" lon="3.6338">
        <ele>1366.66</ele>
        <time>2024-11-05T09:47:39.798Z</time>
      </trkpt>
      <trkpt lat="44.61809" lon="3.63367">
        <ele>1368.5</ele>
        <time>2024-11-05T09:47:40.463Z</time>
      </trkpt>
      <trkpt lat="44.61806" lon="3.63339">
        <ele>1370.35</ele>
        <time>2024-11-05T09:47:41.131Z</time>
      </trkpt>
      <trkpt lat="44.61803" lon="3.63311">
        <ele>1372.27</ele>
        <time>2024-11-05T09:47:41.803Z</time>
      </trkpt>
      <trkpt lat="44.61801" lon="3.63272">
        <ele>1374.28</ele>
        <time>2024-11-05T09:47:42.479Z</time>
      </trkpt>
      <trkpt lat="44.61798" lon="3.63234">
        <ele>1376.29</ele>
        <time>2024-11-05T09:47:43.159Z</time>
      </trkpt>
      <trkpt lat="44.61796" lon="3.63195">
        <ele>1378.31</ele>
        <time>2024-11-05T09:47:43.844Z</time>
      </trkpt>
      <trkpt lat="44.61793" lon="3.63156">
        <ele>1380.33</ele>
        <time>2024-11-05T09:47:44.533Z</time>
      </trkpt>
      <trkpt lat="44.61791" lon="3.63118">
        <ele>1382.33</ele>
        <time>2024-11-05T09:47:45.227Z</time>
      </trkpt>
      <trkpt lat="44.61788" lon="3.6308">
        <ele>1384.31</ele>
        <time>2024-11-05T09:47:45.925Z</time>
      </trkpt>
      <trkpt lat="44.61786" lon="3.63046">
        <ele>1386.26</ele>
        <time>2024-11-05T09:47:46.627Z</time>
      </trkpt>
      <trkpt lat="44.61785" lon="3.63011">
        <ele>1388.14</ele>
        <time>2024-11-05T09:47:47.333Z</time>
      </trkpt>
      <trkpt lat="44.61783" lon="3.62977">
        <ele>1390.02</ele>
        <time>2024-11-05T09:47:48.043Z</time>
      </trkpt>
      <trkpt lat="44.61783" lon="3.62936">
        <ele>1391.92</ele>
        <time>2024-11-05T09:47:48.758Z</time>
      </trkpt>
      <trkpt lat="44.61783" lon="3.62895">
        <ele>1393.81</ele>
        <time>2024-11-05T09:47:49.477Z</time>
      </trkpt>
      <trkpt lat="44.61782" lon="3.62873">
        <ele>1395.63</ele>
        <time>2024-11-05T09:47:50.199Z</time>
      </trkpt>
      <trkpt lat="44.61782" lon="3.6285">
        <ele>1397.4</ele>
        <time>2024-11-05T09:47:50.923Z</time>
      </trkpt>
      <trkpt lat="44.61779" lon="3.62828">
        <ele>1399.14</ele>
        <time>2024-11-05T09:47:51.650Z</time>
      </trkpt>
      <trkpt lat="44.61775" lon="3.62806">
        <ele>1400.83</ele>
        <time>2024-11-05T09:47:52.379Z</time>
      </trkpt>
      <trkpt lat="44.61768" lon="3.62768">
        <ele>1402.53</ele>
        <time>2024-11-05T09:47:53.113Z</time>
      </trkpt>
      <trkpt lat="44.61758" lon="3.62728">
        <ele>1404.25</ele>
        <time>2024-11-05T09:47:53.852Z</time>
      </trkpt>
      <trkpt lat="44.61747" lon="3.62688">
        <ele>1405.91</ele>
        <time>2024-11-05T09:47:54.596Z</time>
      </trkpt>
      <trkpt lat="44.61736" lon="3.6265">
        <ele>1407.54</ele>
        <time>2024-11-05T09:47:55.344Z</time>
      </trkpt>
      <trkpt lat="44.61724" lon="3.62626">
        <ele>1409.11</ele>
        <time>2024-11-05T09:47:56.096Z</time>
      </trkpt>
      <trkpt lat="44.61701" lon="3.62597">
        <ele>1410.63</ele>
        <time>2024-11-05T09:47:56.853Z</time>
      </trkpt>
      <trkpt lat="44.61678" lon="3.62568">
        <ele>1412.17</ele>
        <time>2024-11-05T09:47:57.615Z</time>
      </trkpt>
      <trkpt lat="44.61655" lon="3.62539">
        <ele>1413.71</ele>
        <time>2024-11-05T09:47:58.382Z</time>
      </trkpt>
      <trkpt lat="44.61655" lon="3.62539">
        <ele>1415.15</ele>
        <time>2024-11-05T09:47:59.149Z</time>
      </trkpt>
      <trkpt lat="44.61634" lon="3.62513">
        <ele>1416.62</ele>
        <time>2024-11-05T09:47:59.920Z</time>
      </trkpt>
      <trkpt lat="44.61612" lon="3.62488">
        <ele>1418.06</ele>
        <time>2024-11-05T09:48:00.696Z</time>
      </trkpt>
      <trkpt lat="44.61591" lon="3.62462">
        <ele>1419.45</ele>
        <time>2024-11-05T09:48:01.476Z</time>
      </trkpt>
      <trkpt lat="44.61569" lon="3.62436">
        <ele>1420.8</ele>
        <time>2024-11-05T09:48:02.261Z</time>
      </trkpt>
      <trkpt lat="44.61548" lon="3.62409">
        <ele>1422.13</ele>
        <time>2024-11-05T09:48:03.050Z</time>
      </trkpt>
      <trkpt lat="44.61527" lon="3.62381">
        <ele>1423.41</ele>
        <time>2024-11-05T09:48:03.844Z</time>
      </trkpt>
      <trkpt lat="44.61506" lon="3.62354">
        <ele>1424.68</ele>
        <time>2024-11-05T09:48:04.643Z</time>
      </trkpt>
      <trkpt lat="44.6149" lon="3.62331">
        <ele>1425.85</ele>
        <time>2024-11-05T09:48:05.445Z</time>
      </trkpt>
      <trkpt lat="44.61474" lon="3.62308">
        <ele>1426.96</ele>
        <time>2024-11-05T09:48:06.251Z</time>
      </trkpt>
      <trkpt lat="44.61458" lon="3.62285">
        <ele>1428.06</ele>
        <time>2024-11-05T09:48:07.061Z</time>
      </trkpt>
      <trkpt lat="44.61438" lon="3.62255">
        <ele>1429.15</ele>
        <time>2024-11-05T09:48:07.875Z</time>
      </trkpt>
      <trkpt lat="44.61418" lon="3.62225">
        <ele>1430.14</ele>
        <time>2024-11-05T09:48:08.694Z</time>
      </trkpt>
      <trkpt lat="44.61398" lon="3.62195">
        <ele>1431.08</ele>
        <time>2024-11-05T09:48:09.518Z</time>
      </trkpt>
      <trkpt lat="44.61378" lon="3.62165">
        <ele>1432.01</ele>
        <time>2024-11-05T09:48:10.346Z</time>
      </trkpt>
      <trkpt lat="44.61358" lon="3.62135">
        <ele>1432.87</ele>
        <time>2024-11-05T09:48:11.179Z</time>
      </trkpt>
      <trkpt lat="44.61338" lon="3.62106">
        <ele>1433.65</ele>
        <time>2024-11-05T09:48:12.017Z</time>
      </trkpt>
      <trkpt lat="44.6133" lon="3.62089">
        <ele>1434.36</ele>
        <time>2024-11-05T09:48:12.857Z</time>
      </trkpt>
      <trkpt lat="44.61324" lon="3.62069">
        <ele>1435</ele>
        <time>2024-11-05T09:48:13.699Z</time>
      </trkpt>
      <trkpt lat="44.61322" lon="3.62033">
        <ele>1435.6</ele>
        <time>2024-11-05T09:48:14.546Z</time>
      </trkpt>
      <trkpt lat="44.6132" lon="3.61997">
        <ele>1436.12</ele>
        <time>2024-11-05T09:48:15.397Z</time>
      </trkpt>
      <trkpt lat="44.61319" lon="3.61961">
        <ele>1436.59</ele>
        <time>2024-11-05T09:48:16.252Z</time>
      </trkpt>
      <trkpt lat="44.61317" lon="3.61926">
        <ele>1436.95</ele>
        <time>2024-11-05T09:48:17.111Z</time>
      </trkpt>
      <trkpt lat="44.61318" lon="3.61902">
        <ele>1437.26</ele>
        <time>2024-11-05T09:48:17.972Z</time>
      </trkpt>
      <trkpt lat="44.61318" lon="3.61879">
        <ele>1437.45</ele>
        <time>2024-11-05T09:48:18.836Z</time>
      </trkpt>
      <trkpt lat="44.61323" lon="3.61849">
        <ele>1437.58</ele>
        <time>2024-11-05T09:48:19.704Z</time>
      </trkpt>
      <trkpt lat="44.61333" lon="3.61813">
        <ele>1437.6</ele>
        <time>2024-11-05T09:48:20.576Z</time>
      </trkpt>
      <trkpt lat="44.61343" lon="3.61776">
        <ele>1437.55</ele>
        <time>2024-11-05T09:48:21.453Z</time>
      </trkpt>
      <trkpt lat="44.61347" lon="3.6175">
        <ele>1437.43</ele>
        <time>2024-11-05T09:48:22.333Z</time>
      </trkpt>
      <trkpt lat="44.6135" lon="3.61724">
        <ele>1437.24</ele>
        <time>2024-11-05T09:48:23.216Z</time>
      </trkpt>
      <trkpt lat="44.61355" lon="3.6169">
        <ele>1436.94</ele>
        <time>2024-11-05T09:48:24.103Z</time>
      </trkpt>
      <trkpt lat="44.61359" lon="3.61656">
        <ele>1436.61</ele>
        <time>2024-11-05T09:48:24.994Z</time>
      </trkpt>
      <trkpt lat="44.61363" lon="3.61621">
        <ele>1436.25</ele>
        <time>2024-11-05T09:48:25.889Z</time>
      </trkpt>
      <trkpt lat="44.61367" lon="3.61588">
        <ele>1435.78</ele>
        <time>2024-11-05T09:48:26.787Z</time>
      </trkpt>
      <trkpt lat="44.61369" lon="3.61568">
        <ele>1435.28</ele>
        <time>2024-11-05T09:48:27.688Z</time>
      </trkpt>
      <trkpt lat="44.61371" lon="3.61526">
        <ele>1434.71</ele>
        <time>2024-11-05T09:48:28.594Z</time>
      </trkpt>
      <trkpt lat="44.61373" lon="3.61484">
        <ele>1434.09</ele>
        <time>2024-11-05T09:48:29.504Z</time>
      </trkpt>
      <trkpt lat="44.61375" lon="3.61442">
        <ele>1433.38</ele>
        <time>2024-11-05T09:48:30.419Z</time>
      </trkpt>
      <trkpt lat="44.61379" lon="3.61403">
        <ele>1432.62</ele>
        <time>2024-11-05T09:48:31.339Z</time>
      </trkpt>
      <trkpt lat="44.61382" lon="3.61364">
        <ele>1431.82</ele>
        <time>2024-11-05T09:48:32.263Z</time>
      </trkpt>
      <trkpt lat="44.61386" lon="3.61325">
        <ele>1430.98</ele>
        <time>2024-11-05T09:48:33.192Z</time>
      </trkpt>
      <trkpt lat="44.61389" lon="3.61286">
        <ele>1430.08</ele>
        <time>2024-11-05T09:48:34.125Z</time>
      </trkpt>
      <trkpt lat="44.61398" lon="3.6125">
        <ele>1429.14</ele>
        <time>2024-11-05T09:48:35.062Z</time>
      </trkpt>
      <trkpt lat="44.61407" lon="3.61215">
        <ele>1428.14</ele>
        <time>2024-11-05T09:48:36.004Z</time>
      </trkpt>
      <trkpt lat="44.61416" lon="3.61179">
        <ele>1427.09</ele>
        <time>2024-11-05T09:48:36.950Z</time>
      </trkpt>
      <trkpt lat="44.61425" lon="3.61143">
        <ele>1426.02</ele>
        <time>2024-11-05T09:48:37.900Z</time>
      </trkpt>
      <trkpt lat="44.6143" lon="3.61117">
        <ele>1424.89</ele>
        <time>2024-11-05T09:48:38.854Z</time>
      </trkpt>
      <trkpt lat="44.61436" lon="3.6109">
        <ele>1423.72</ele>
        <time>2024-11-05T09:48:39.811Z</time>
      </trkpt>
      <trkpt lat="44.61443" lon="3.61048">
        <ele>1422.49</ele>
        <time>2024-11-05T09:48:40.773Z</time>
      </trkpt>
      <trkpt lat="44.61443" lon="3.6102">
        <ele>1421.25</ele>
        <time>2024-11-05T09:48:41.738Z</time>
      </trkpt>
      <trkpt lat="44.61444" lon="3.60993">
        <ele>1419.99</ele>
        <time>2024-11-05T09:48:42.706Z</time>
      </trkpt>
      <trkpt lat="44.61442" lon="3.60961">
        <ele>1418.69</ele>
        <time>2024-11-05T09:48:43.678Z</time>
      </trkpt>
      <trkpt lat="44.6144" lon="3.60928">
        <ele>1417.33</ele>
        <time>2024-11-05T09:48:44.653Z</time>
      </trkpt>
      <trkpt lat="44.61437" lon="3.60896">
        <ele>1415.96</ele>
        <time>2024-11-05T09:48:45.632Z</time>
      </trkpt>
      <trkpt lat="44.61431" lon="3.60862">
        <ele>1414.58</ele>
        <time>2024-11-05T09:48:46.615Z</time>
      </trkpt>
      <trkpt lat="44.61425" lon="3.60829">
        <ele>1413.18</ele>
        <time>2024-11-05T09:48:47.602Z</time>
      </trkpt>
      <trkpt lat="44.61412" lon="3.60791">
        <ele>1411.77</ele>
        <time>2024-11-05T09:48:48.594Z</time>
      </trkpt>
      <trkpt lat="44.61401" lon="3.60779">
        <ele>1410.35</ele>
        <time>2024-11-05T09:48:49.588Z</time>
      </trkpt>
      <trkpt lat="44.6139" lon="3.6077">
        <ele>1408.92</ele>
        <time>2024-11-05T09:48:50.584Z</time>
      </trkpt>
      <trkpt lat="44.61362" lon="3.60755">
        <ele>1407.42</ele>
        <time>2024-11-05T09:48:51.585Z</time>
      </trkpt>
      <trkpt lat="44.61333" lon="3.6074">
        <ele>1405.91</ele>
        <time>2024-11-05T09:48:52.591Z</time>
      </trkpt>
      <trkpt lat="44.61304" lon="3.60725">
        <ele>1404.39</ele>
        <time>2024-11-05T09:48:53.602Z</time>
      </trkpt>
      <trkpt lat="44.61279" lon="3.60712">
        <ele>1402.84</ele>
        <time>2024-11-05T09:48:54.617Z</time>
      </trkpt>
      <trkpt lat="44.61254" lon="3.607">
        <ele>1401.38</ele>
        <time>2024-11-05T09:48:55.636Z</time>
      </trkpt>
      <trkpt lat="44.61229" lon="3.60687">
        <ele>1399.95</ele>
        <time>2024-11-05T09:48:56.660Z</time>
      </trkpt>
      <trkpt lat="44.61204" lon="3.60675">
        <ele>1398.51</ele>
        <time>2024-11-05T09:48:57.688Z</time>
      </trkpt>
      <trkpt lat="44.61175" lon="3.60659">
        <ele>1397.04</ele>
        <time>2024-11-05T09:48:58.721Z</time>
      </trkpt>
      <trkpt lat="44.61146" lon="3.60644">
        <ele>1395.64</ele>
        <time>2024-11-05T09:48:59.759Z</time>
      </trkpt>
      <trkpt lat="44.61118" lon="3.60628">
        <ele>1394.3</ele>
        <time>2024-11-05T09:49:00.802Z</time>
      </trkpt>
      <trkpt lat="44.61092" lon="3.60615">
        <ele>1393</ele>
        <time>2024-11-05T09:49:01.849Z</time>
      </trkpt>
      <trkpt lat="44.61065" lon="3.60602">
        <ele>1391.73</ele>
        <time>2024-11-05T09:49:02.900Z</time>
      </trkpt>
      <trkpt lat="44.61039" lon="3.60589">
        <ele>1390.48</ele>
        <time>2024-11-05T09:49:03.956Z</time>
      </trkpt>
      <trkpt lat="44.6102" lon="3.60574">
        <ele>1389.27</ele>
        <time>2024-11-05T09:49:05.015Z</time>
      </trkpt>
      <trkpt lat="44.61" lon="3.6056">
        <ele>1388.11</ele>
        <time>2024-11-05T09:49:06.078Z</time>
      </trkpt>
      <trkpt lat="44.60982" lon="3.60542">
        <ele>1387.05</ele>
        <time>2024-11-05T09:49:07.145Z</time>
      </trkpt>
      <trkpt lat="44.60964" lon="3.60525">
        <ele>1386.03</ele>
        <time>2024-11-05T09:49:08.215Z</time>
      </trkpt>
      <trkpt lat="44.60946" lon="3.60507">
        <ele>1385.06</ele>
        <time>2024-11-05T09:49:09.289Z</time>
      </trkpt>
      <trkpt lat="44.6094" lon="3.60502">
        <ele>1384.14</ele>
        <time>2024-11-05T09:49:10.364Z</time>
      </trkpt>
      <trkpt lat="44.60919" lon="3.60472">
        <ele>1383.22</ele>
        <time>2024-11-05T09:49:11.444Z</time>
      </trkpt>
      <trkpt lat="44.60898" lon="3.60442">
        <ele>1382.39</ele>
        <time>2024-11-05T09:49:12.528Z</time>
      </trkpt>
      <trkpt lat="44.60878" lon="3.60412">
        <ele>1381.63</ele>
        <time>2024-11-05T09:49:13.617Z</time>
      </trkpt>
      <trkpt lat="44.60859" lon="3.60382">
        <ele>1380.98</ele>
        <time>2024-11-05T09:49:14.711Z</time>
      </trkpt>
      <trkpt lat="44.60851" lon="3.60363">
        <ele>1380.38</ele>
        <time>2024-11-05T09:49:15.807Z</time>
      </trkpt>
      <trkpt lat="44.60843" lon="3.60342">
        <ele>1379.83</ele>
        <time>2024-11-05T09:49:16.906Z</time>
      </trkpt>
      <trkpt lat="44.60835" lon="3.60311">
        <ele>1379.36</ele>
        <time>2024-11-05T09:49:18.009Z</time>
      </trkpt>
      <trkpt lat="44.60828" lon="3.60281">
        <ele>1378.99</ele>
        <time>2024-11-05T09:49:19.115Z</time>
      </trkpt>
      <trkpt lat="44.60823" lon="3.60245">
        <ele>1378.71</ele>
        <time>2024-11-05T09:49:20.225Z</time>
      </trkpt>
      <trkpt lat="44.60819" lon="3.60208">
        <ele>1378.45</ele>
        <time>2024-11-05T09:49:21.340Z</time>
      </trkpt>
      <trkpt lat="44.60814" lon="3.60172">
        <ele>1378.19</ele>
        <time>2024-11-05T09:49:22.459Z</time>
      </trkpt>
      <trkpt lat="44.60809" lon="3.60144">
        <ele>1377.95</ele>
        <time>2024-11-05T09:49:23.581Z</time>
      </trkpt>
      <trkpt lat="44.60804" lon="3.60116">
        <ele>1377.81</ele>
        <time>2024-11-05T09:49:24.706Z</time>
      </trkpt>
      <trkpt lat="44.60795" lon="3.60084">
        <ele>1377.73</ele>
        <time>2024-11-05T09:49:25.835Z</time>
      </trkpt>
      <trkpt lat="44.60782" lon="3.60057">
        <ele>1377.69</ele>
        <time>2024-11-05T09:49:26.968Z</time>
      </trkpt>
      <trkpt lat="44.60762" lon="3.60028">
        <ele>1377.64</ele>
        <time>2024-11-05T09:49:28.106Z</time>
      </trkpt>
      <trkpt lat="44.60742" lon="3.6">
        <ele>1377.6</ele>
        <time>2024-11-05T09:49:29.248Z</time>
      </trkpt>
      <trkpt lat="44.60721" lon="3.59971">
        <ele>1377.64</ele>
        <time>2024-11-05T09:49:30.395Z</time>
      </trkpt>
      <trkpt lat="44.60701" lon="3.59943">
        <ele>1377.75</ele>
        <time>2024-11-05T09:49:31.546Z</time>
      </trkpt>
      <trkpt lat="44.60681" lon="3.59914">
        <ele>1377.88</ele>
        <time>2024-11-05T09:49:32.702Z</time>
      </trkpt>
      <trkpt lat="44.60661" lon="3.59885">
        <ele>1378.04</ele>
        <time>2024-11-05T09:49:33.863Z</time>
      </trkpt>
      <trkpt lat="44.60641" lon="3.59857">
        <ele>1378.27</ele>
        <time>2024-11-05T09:49:35.028Z</time>
      </trkpt>
      <trkpt lat="44.60621" lon="3.59828">
        <ele>1378.58</ele>
        <time>2024-11-05T09:49:36.198Z</time>
      </trkpt>
      <trkpt lat="44.60601" lon="3.598">
        <ele>1378.91</ele>
        <time>2024-11-05T09:49:37.372Z</time>
      </trkpt>
      <trkpt lat="44.60581" lon="3.59768">
        <ele>1379.31</ele>
        <time>2024-11-05T09:49:38.551Z</time>
      </trkpt>
      <trkpt lat="44.60561" lon="3.59737">
        <ele>1379.77</ele>
        <time>2024-11-05T09:49:39.735Z</time>
      </trkpt>
      <trkpt lat="44.60547" lon="3.59707">
        <ele>1380.24</ele>
        <time>2024-11-05T09:49:40.923Z</time>
      </trkpt>
      <trkpt lat="44.60533" lon="3.59677">
        <ele>1380.75</ele>
        <time>2024-11-05T09:49:42.115Z</time>
      </trkpt>
      <trkpt lat="44.60523" lon="3.5965">
        <ele>1381.26</ele>
        <time>2024-11-05T09:49:43.311Z</time>
      </trkpt>
      <trkpt lat="44.60514" lon="3.59624">
        <ele>1381.79</ele>
        <time>2024-11-05T09:49:44.510Z</time>
      </trkpt>
      <trkpt lat="44.6051" lon="3.5961">
        <ele>1382.31</ele>
        <time>2024-11-05T09:49:45.711Z</time>
      </trkpt>
      <trkpt lat="44.60513" lon="3.59598">
        <ele>1382.85</ele>
        <time>2024-11-05T09:49:46.913Z</time>
      </trkpt>
      <trkpt lat="44.60524" lon="3.59582">
        <ele>1383.39</ele>
        <time>2024-11-05T09:49:48.118Z</time>
      </trkpt>
      <trkpt lat="44.60535" lon="3.59565">
        <ele>1383.97</ele>
        <time>2024-11-05T09:49:49.325Z</time>
      </trkpt>
      <trkpt lat="44.60561" lon="3.59541">
        <ele>1384.53</ele>
        <time>2024-11-05T09:49:50.537Z</time>
      </trkpt>
      <trkpt lat="44.60587" lon="3.59517">
        <ele>1385.11</ele>
        <time>2024-11-05T09:49:51.754Z</time>
      </trkpt>
      <trkpt lat="44.60612" lon="3.59492">
        <ele>1385.65</ele>
        <time>2024-11-05T09:49:52.976Z</time>
      </trkpt>
      <trkpt lat="44.6063" lon="3.59473">
        <ele>1386.17</ele>
        <time>2024-11-05T09:49:54.202Z</time>
      </trkpt>
      <trkpt lat="44.6064" lon="3.59454">
        <ele>1386.7</ele>
        <time>2024-11-05T09:49:55.430Z</time>
      </trkpt>
      <trkpt lat="44.60651" lon="3.59424">
        <ele>1387.24</ele>
        <time>2024-11-05T09:49:56.662Z</time>
      </trkpt>
      <trkpt lat="44.60654" lon="3.59416">
        <ele>1387.72</ele>
        <time>2024-11-05T09:49:57.895Z</time>
      </trkpt>
      <trkpt lat="44.60654" lon="3.59416">
        <ele>1388.18</ele>
        <time>2024-11-05T09:49:59.128Z</time>
      </trkpt>
      <trkpt lat="44.60664" lon="3.59382">
        <ele>1388.65</ele>
        <time>2024-11-05T09:50:00.366Z</time>
      </trkpt>
      <trkpt lat="44.60674" lon="3.59348">
        <ele>1389.09</ele>
        <time>2024-11-05T09:50:01.608Z</time>
      </trkpt>
      <trkpt lat="44.60684" lon="3.59313">
        <ele>1389.54</ele>
        <time>2024-11-05T09:50:02.854Z</time>
      </trkpt>
      <trkpt lat="44.60695" lon="3.59279">
        <ele>1389.92</ele>
        <time>2024-11-05T09:50:04.104Z</time>
      </trkpt>
      <trkpt lat="44.60705" lon="3.59245">
        <ele>1390.24</ele>
        <time>2024-11-05T09:50:05.358Z</time>
      </trkpt>
      <trkpt lat="44.60713" lon="3.59215">
        <ele>1390.55</ele>
        <time>2024-11-05T09:50:06.616Z</time>
      </trkpt>
      <trkpt lat="44.60721" lon="3.59184">
        <ele>1390.8</ele>
        <time>2024-11-05T09:50:07.878Z</time>
      </trkpt>
      <trkpt lat="44.60729" lon="3.59153">
        <ele>1391.02</ele>
        <time>2024-11-05T09:50:09.144Z</time>
      </trkpt>
      <trkpt lat="44.60734" lon="3.59131">
        <ele>1391.22</ele>
        <time>2024-11-05T09:50:10.412Z</time>
      </trkpt>
      <trkpt lat="44.60734" lon="3.59102">
        <ele>1391.38</ele>
        <time>2024-11-05T09:50:11.684Z</time>
      </trkpt>
      <trkpt lat="44.60727" lon="3.59059">
        <ele>1391.49</ele>
        <time>2024-11-05T09:50:12.961Z</time>
      </trkpt>
      <trkpt lat="44.60719" lon="3.59017">
        <ele>1391.56</ele>
        <time>2024-11-05T09:50:14.243Z</time>
      </trkpt>
      <trkpt lat="44.60711" lon="3.58975">
        <ele>1391.64</ele>
        <time>2024-11-05T09:50:15.530Z</time>
      </trkpt>
      <trkpt lat="44.60707" lon="3.58937">
        <ele>1391.63</ele>
        <time>2024-11-05T09:50:16.821Z</time>
      </trkpt>
      <trkpt lat="44.60704" lon="3.589">
        <ele>1391.59</ele>
        <time>2024-11-05T09:50:18.116Z</time>
      </trkpt>
      <trkpt lat="44.607" lon="3.58862">
        <ele>1391.56</ele>
        <time>2024-11-05T09:50:19.416Z</time>
      </trkpt>
      <trkpt lat="44.60697" lon="3.58837">
        <ele>1391.49</ele>
        <time>2024-11-05T09:50:20.719Z</time>
      </trkpt>
      <trkpt lat="44.60689" lon="3.5881">
        <ele>1391.37</ele>
        <time>2024-11-05T09:50:22.025Z</time>
      </trkpt>
      <trkpt lat="44.60678" lon="3.58787">
        <ele>1391.2</ele>
        <time>2024-11-05T09:50:23.334Z</time>
      </trkpt>
      <trkpt lat="44.60661" lon="3.58763">
        <ele>1391.01</ele>
        <time>2024-11-05T09:50:24.647Z</time>
      </trkpt>
      <trkpt lat="44.60644" lon="3.58738">
        <ele>1390.79</ele>
        <time>2024-11-05T09:50:25.964Z</time>
      </trkpt>
      <trkpt lat="44.60627" lon="3.58713">
        <ele>1390.59</ele>
        <time>2024-11-05T09:50:27.285Z</time>
      </trkpt>
      <trkpt lat="44.60608" lon="3.58681">
        <ele>1390.4</ele>
        <time>2024-11-05T09:50:28.611Z</time>
      </trkpt>
      <trkpt lat="44.60596" lon="3.58659">
        <ele>1390.2</ele>
        <time>2024-11-05T09:50:29.940Z</time>
      </trkpt>
      <trkpt lat="44.60592" lon="3.58639">
        <ele>1389.97</ele>
        <time>2024-11-05T09:50:31.271Z</time>
      </trkpt>
      <trkpt lat="44.60594" lon="3.58622">
        <ele>1389.76</ele>
        <time>2024-11-05T09:50:32.604Z</time>
      </trkpt>
      <trkpt lat="44.60602" lon="3.58605">
        <ele>1389.5</ele>
        <time>2024-11-05T09:50:33.939Z</time>
      </trkpt>
      <trkpt lat="44.60624" lon="3.58587">
        <ele>1389.19</ele>
        <time>2024-11-05T09:50:35.278Z</time>
      </trkpt>
      <trkpt lat="44.60646" lon="3.58568">
        <ele>1388.84</ele>
        <time>2024-11-05T09:50:36.622Z</time>
      </trkpt>
      <trkpt lat="44.60669" lon="3.58544">
        <ele>1388.51</ele>
        <time>2024-11-05T09:50:37.970Z</time>
      </trkpt>
      <trkpt lat="44.60686" lon="3.58518">
        <ele>1388.23</ele>
        <time>2024-11-05T09:50:39.322Z</time>
      </trkpt>
      <trkpt lat="44.60696" lon="3.58493">
        <ele>1387.97</ele>
        <time>2024-11-05T09:50:40.677Z</time>
      </trkpt>
      <trkpt lat="44.60702" lon="3.58462">
        <ele>1387.72</ele>
        <time>2024-11-05T09:50:42.036Z</time>
      </trkpt>
      <trkpt lat="44.60704" lon="3.58432">
        <ele>1387.46</ele>
        <time>2024-11-05T09:50:43.399Z</time>
      </trkpt>
      <trkpt lat="44.607" lon="3.58398">
        <ele>1387.21</ele>
        <time>2024-11-05T09:50:44.766Z</time>
      </trkpt>
      <trkpt lat="44.60694" lon="3.58355">
        <ele>1387.02</ele>
        <time>2024-11-05T09:50:46.138Z</time>
      </trkpt>
      <trkpt lat="44.60683" lon="3.58315">
        <ele>1386.81</ele>
        <time>2024-11-05T09:50:47.514Z</time>
      </trkpt>
      <trkpt lat="44.60674" lon="3.58287">
        <ele>1386.63</ele>
        <time>2024-11-05T09:50:48.894Z</time>
      </trkpt>
      <trkpt lat="44.60665" lon="3.58259">
        <ele>1386.51</ele>
        <time>2024-11-05T09:50:50.278Z</time>
      </trkpt>
      <trkpt lat="44.60656" lon="3.58231">
        <ele>1386.43</ele>
        <time>2024-11-05T09:50:51.665Z</time>
      </trkpt>
      <trkpt lat="44.60652" lon="3.58197">
        <ele>1386.33</ele>
        <time>2024-11-05T09:50:53.056Z</time>
      </trkpt>
      <trkpt lat="44.60653" lon="3.58167">
        <ele>1386.24</ele>
        <time>2024-11-05T09:50:54.450Z</time>
      </trkpt>
      <trkpt lat="44.60653" lon="3.58167">
        <ele>1386.23</ele>
        <time>2024-11-05T09:50:55.844Z</time>
      </trkpt>
      <trkpt lat="44.60658" lon="3.58124">
        <ele>1386.22</ele>
        <time>2024-11-05T09:50:57.243Z</time>
      </trkpt>
      <trkpt lat="44.60668" lon="3.58101">
        <ele>1386.24</ele>
        <time>2024-11-05T09:50:58.645Z</time>
      </trkpt>
      <trkpt lat="44.60686" lon="3.58079">
        <ele>1386.27</ele>
        <time>2024-11-05T09:51:00.051Z</time>
      </trkpt>
      <trkpt lat="44.60692" lon="3.58074">
        <ele>1386.38</ele>
        <time>2024-11-05T09:51:01.458Z</time>
      </trkpt>
      <trkpt lat="44.60717" lon="3.58048">
        <ele>1386.57</ele>
        <time>2024-11-05T09:51:02.870Z</time>
      </trkpt>
      <trkpt lat="44.60743" lon="3.58023">
        <ele>1386.83</ele>
        <time>2024-11-05T09:51:04.287Z</time>
      </trkpt>
      <trkpt lat="44.60768" lon="3.57997">
        <ele>1387.13</ele>
        <time>2024-11-05T09:51:05.709Z</time>
      </trkpt>
      <trkpt lat="44.60794" lon="3.57972">
        <ele>1387.47</ele>
        <time>2024-11-05T09:51:07.136Z</time>
      </trkpt>
      <trkpt lat="44.60819" lon="3.57947">
        <ele>1387.82</ele>
        <time>2024-11-05T09:51:08.568Z</time>
      </trkpt>
      <trkpt lat="44.60845" lon="3.57921">
        <ele>1388.21</ele>
        <time>2024-11-05T09:51:10.005Z</time>
      </trkpt>
      <trkpt lat="44.6087" lon="3.57896">
        <ele>1388.63</ele>
        <time>2024-11-05T09:51:11.447Z</time>
      </trkpt>
      <trkpt lat="44.60895" lon="3.5787">
        <ele>1389.04</ele>
        <time>2024-11-05T09:51:12.894Z</time>
      </trkpt>
      <trkpt lat="44.60921" lon="3.57845">
        <ele>1389.52</ele>
        <time>2024-11-05T09:51:14.346Z</time>
      </trkpt>
      <trkpt lat="44.60946" lon="3.57819">
        <ele>1390.08</ele>
        <time>2024-11-05T09:51:15.803Z</time>
      </trkpt>
      <trkpt lat="44.60972" lon="3.57794">
        <ele>1390.68</ele>
        <time>2024-11-05T09:51:17.265Z</time>
      </trkpt>
      <trkpt lat="44.60984" lon="3.57776">
        <ele>1391.25</ele>
        <time>2024-11-05T09:51:18.730Z</time>
      </trkpt>
      <trkpt lat="44.60996" lon="3.57758">
        <ele>1391.87</ele>
        <time>2024-11-05T09:51:20.198Z</time>
      </trkpt>
      <trkpt lat="44.61009" lon="3.57737">
        <ele>1392.53</ele>
        <time>2024-11-05T09:51:21.669Z</time>
      </trkpt>
      <trkpt lat="44.61021" lon="3.57716">
        <ele>1393.19</ele>
        <time>2024-11-05T09:51:23.143Z</time>
      </trkpt>
      <trkpt lat="44.61033" lon="3.57691">
        <ele>1393.89</ele>
        <time>2024-11-05T09:51:24.621Z</time>
      </trkpt>
      <trkpt lat="44.61045" lon="3.57667">
        <ele>1394.57</ele>
        <time>2024-11-05T09:51:26.102Z</time>
      </trkpt>
      <trkpt lat="44.61053" lon="3.57646">
        <ele>1395.28</ele>
        <time>2024-11-05T09:51:27.586Z</time>
      </trkpt>
      <trkpt lat="44.61062" lon="3.57625">
        <ele>1395.98</ele>
        <time>2024-11-05T09:51:29.073Z</time>
      </trkpt>
      <trkpt lat="44.6107" lon="3.57599">
        <ele>1396.69</ele>
        <time>2024-11-05T09:51:30.563Z</time>
      </trkpt>
      <trkpt lat="44.61079" lon="3.57572">
        <ele>1397.41</ele>
        <time>2024-11-05T09:51:32.056Z</time>
      </trkpt>
      <trkpt lat="44.61089" lon="3.57531">
        <ele>1398.16</ele>
        <time>2024-11-05T09:51:33.554Z</time>
      </trkpt>
      <trkpt lat="44.61097" lon="3.5749">
        <ele>1398.86</ele>
        <time>2024-11-05T09:51:35.057Z</time>
      </trkpt>
      <trkpt lat="44.61102" lon="3.57456">
        <ele>1399.6</ele>
        <time>2024-11-05T09:51:36.564Z</time>
      </trkpt>
      <trkpt lat="44.61103" lon="3.57413">
        <ele>1400.41</ele>
        <time>2024-11-05T09:51:38.076Z</time>
      </trkpt>
      <trkpt lat="44.61105" lon="3.57371">
        <ele>1401.21</ele>
        <time>2024-11-05T09:51:39.593Z</time>
      </trkpt>
      <trkpt lat="44.6111" lon="3.5734">
        <ele>1401.95</ele>
        <time>2024-11-05T09:51:41.113Z</time>
      </trkpt>
      <trkpt lat="44.61122" lon="3.57308">
        <ele>1402.64</ele>
        <time>2024-11-05T09:51:42.637Z</time>
      </trkpt>
      <trkpt lat="44.61131" lon="3.57275">
        <ele>1403.34</ele>
        <time>2024-11-05T09:51:44.166Z</time>
      </trkpt>
      <trkpt lat="44.61137" lon="3.57236">
        <ele>1404.03</ele>
        <time>2024-11-05T09:51:45.699Z</time>
      </trkpt>
      <trkpt lat="44.61144" lon="3.57196">
        <ele>1404.7</ele>
        <time>2024-11-05T09:51:47.237Z</time>
      </trkpt>
      <trkpt lat="44.61151" lon="3.57158">
        <ele>1405.31</ele>
        <time>2024-11-05T09:51:48.779Z</time>
      </trkpt>
      <trkpt lat="44.61154" lon="3.57123">
        <ele>1405.92</ele>
        <time>2024-11-05T09:51:50.325Z</time>
      </trkpt>
      <trkpt lat="44.61157" lon="3.57088">
        <ele>1406.5</ele>
        <time>2024-11-05T09:51:51.875Z</time>
      </trkpt>
      <trkpt lat="44.61158" lon="3.57052">
        <ele>1407.04</ele>
        <time>2024-11-05T09:51:53.429Z</time>
      </trkpt>
      <trkpt lat="44.6116" lon="3.57016">
        <ele>1407.57</ele>
        <time>2024-11-05T09:51:54.988Z</time>
      </trkpt>
      <trkpt lat="44.61158" lon="3.56979">
        <ele>1408.04</ele>
        <time>2024-11-05T09:51:56.551Z</time>
      </trkpt>
      <trkpt lat="44.61157" lon="3.56942">
        <ele>1408.48</ele>
        <time>2024-11-05T09:51:58.118Z</time>
      </trkpt>
      <trkpt lat="44.61156" lon="3.56906">
        <ele>1408.85</ele>
        <time>2024-11-05T09:51:59.689Z</time>
      </trkpt>
      <trkpt lat="44.61155" lon="3.56869">
        <ele>1409.22</ele>
        <time>2024-11-05T09:52:01.264Z</time>
      </trkpt>
      <trkpt lat="44.61154" lon="3.56833">
        <ele>1409.55</ele>
        <time>2024-11-05T09:52:02.844Z</time>
      </trkpt>
      <trkpt lat="44.61155" lon="3.5679">
        <ele>1409.85</ele>
        <time>2024-11-05T09:52:04.428Z</time>
      </trkpt>
      <trkpt lat="44.61156" lon="3.56748">
        <ele>1410.11</ele>
        <time>2024-11-05T09:52:06.017Z</time>
      </trkpt>
      <trkpt lat="44.61158" lon="3.56725">
        <ele>1410.33</ele>
        <time>2024-11-05T09:52:07.609Z</time>
      </trkpt>
      <trkpt lat="44.61161" lon="3.56702">
        <ele>1410.54</ele>
        <time>2024-11-05T09:52:09.204Z</time>
      </trkpt>
      <trkpt lat="44.61168" lon="3.56659">
        <ele>1410.71</ele>
        <time>2024-11-05T09:52:10.804Z</time>
      </trkpt>
      <trkpt lat="44.61175" lon="3.56616">
        <ele>1410.86</ele>
        <time>2024-11-05T09:52:12.409Z</time>
      </trkpt>
      <trkpt lat="44.61179" lon="3.56585">
        <ele>1410.93</ele>
        <time>2024-11-05T09:52:14.017Z</time>
      </trkpt>
      <trkpt lat="44.61183" lon="3.56555">
        <ele>1410.94</ele>
        <time>2024-11-05T09:52:15.629Z</time>
      </trkpt>
      <trkpt lat="44.61185" lon="3.56514">
        <ele>1410.88</ele>
        <time>2024-11-05T09:52:17.245Z</time>
      </trkpt>
      <trkpt lat="44.61183" lon="3.56481">
        <ele>1410.81</ele>
        <time>2024-11-05T09:52:18.865Z</time>
      </trkpt>
      <trkpt lat="44.6118" lon="3.56449">
        <ele>1410.73</ele>
        <time>2024-11-05T09:52:20.489Z</time>
      </trkpt>
      <trkpt lat="44.61178" lon="3.56416">
        <ele>1410.63</ele>
        <time>2024-11-05T09:52:22.117Z</time>
      </trkpt>
      <trkpt lat="44.6118" lon="3.56379">
        <ele>1410.46</ele>
        <time>2024-11-05T09:52:23.749Z</time>
      </trkpt>
      <trkpt lat="44.61187" lon="3.56338">
        <ele>1410.25</ele>
        <time>2024-11-05T09:52:25.386Z</time>
      </trkpt>
      <trkpt lat="44.61195" lon="3.56297">
        <ele>1409.99</ele>
        <time>2024-11-05T09:52:27.028Z</time>
      </trkpt>
      <trkpt lat="44.61194" lon="3.56268">
        <ele>1409.67</ele>
        <time>2024-11-05T09:52:28.673Z</time>
      </trkpt>
      <trkpt lat="44.61185" lon="3.56241">
        <ele>1409.35</ele>
        <time>2024-11-05T09:52:30.321Z</time>
      </trkpt>
      <trkpt lat="44.61177" lon="3.5622">
        <ele>1409.02</ele>
        <time>2024-11-05T09:52:31.972Z</time>
      </trkpt>
      <trkpt lat="44.61168" lon="3.56198">
        <ele>1408.71</ele>
        <time>2024-11-05T09:52:33.626Z</time>
      </trkpt>
      <trkpt lat="44.61163" lon="3.56164">
        <ele>1408.37</ele>
        <time>2024-11-05T09:52:35.284Z</time>
      </trkpt>
      <trkpt lat="44.61165" lon="3.56136">
        <ele>1407.92</ele>
        <time>2024-11-05T09:52:36.945Z</time>
      </trkpt>
      <trkpt lat="44.61171" lon="3.56097">
        <ele>1407.45</ele>
        <time>2024-11-05T09:52:38.611Z</time>
      </trkpt>
      <trkpt lat="44.61179" lon="3.56063">
        <ele>1406.95</ele>
        <time>2024-11-05T09:52:40.281Z</time>
      </trkpt>
      <trkpt lat="44.61186" lon="3.5603">
        <ele>1406.43</ele>
        <time>2024-11-05T09:52:41.955Z</time>
      </trkpt>
      <trkpt lat="44.61191" lon="3.56004">
        <ele>1405.89</ele>
        <time>2024-11-05T09:52:43.632Z</time>
      </trkpt>
      <trkpt lat="44.61191" lon="3.56004">
        <ele>1405.36</ele>
        <time>2024-11-05T09:52:45.309Z</time>
      </trkpt>
      <trkpt lat="44.61191" lon="3.56004">
        <ele>1404.82</ele>
        <time>2024-11-05T09:52:46.986Z</time>
      </trkpt>
      <trkpt lat="44.61191" lon="3.56004">
        <ele>1404.25</ele>
        <time>2024-11-05T09:52:48.663Z</time>
      </trkpt>
      <trkpt lat="44.61191" lon="3.56004">
        <ele>1403.66</ele>
        <time>2024-11-05T09:52:50.340Z</time>
      </trkpt>
      <trkpt lat="44.61191" lon="3.56004">
        <ele>1403.05</ele>
        <time>2024-11-05T09:52:52.017Z</time>
      </trkpt>
      <trkpt lat="44.61192" lon="3.55998">
        <ele>1402.41</ele>
        <time>2024-11-05T09:52:53.695Z</time>
      </trkpt>
      <trkpt lat="44.61191" lon="3.55976">
        <ele>1401.76</ele>
        <time>2024-11-05T09:52:55.375Z</time>
      </trkpt>
      <trkpt lat="44.6118" lon="3.55953">
        <ele>1401.1</ele>
        <time>2024-11-05T09:52:57.058Z</time>
      </trkpt>
      <trkpt lat="44.61165" lon="3.55927">
        <ele>1400.4</ele>
        <time>2024-11-05T09:52:58.745Z</time>
      </trkpt>
      <trkpt lat="44.61152" lon="3.55899">
        <ele>1399.72</ele>
        <time>2024-11-05T09:53:00.436Z</time>
      </trkpt>
      <trkpt lat="44.61147" lon="3.5588">
        <ele>1399.01</ele>
        <time>2024-11-05T09:53:02.129Z</time>
      </trkpt>
      <trkpt lat="44.61143" lon="3.55854">
        <ele>1398.27</ele>
        <time>2024-11-05T09:53:03.825Z</time>
      </trkpt>
      <trkpt lat="44.61142" lon="3.55817">
        <ele>1397.48</ele>
        <time>2024-11-05T09:53:05.525Z</time>
      </trkpt>
      <trkpt lat="44.61143" lon="3.55778">
        <ele>1396.62</ele>
        <time>2024-11-05T09:53:07.230Z</time>
      </trkpt>
      <trkpt lat="44.61147" lon="3.55747">
        <ele>1395.77</ele>
        <time>2024-11-05T09:53:08.938Z</time>
      </trkpt>
      <trkpt lat="44.61152" lon="3.55725">
        <ele>1394.96</ele>
        <time>2024-11-05T09:53:10.649Z</time>
      </trkpt>
      <trkpt lat="44.61157" lon="3.55703">
        <ele>1394.13</ele>
        <time>2024-11-05T09:53:12.363Z</time>
      </trkpt>
      <trkpt lat="44.61166" lon="3.55684">
        <ele>1393.3</ele>
        <time>2024-11-05T09:53:14.079Z</time>
      </trkpt>
      <trkpt lat="44.61175" lon="3.55665">
        <ele>1392.48</ele>
        <time>2024-11-05T09:53:15.798Z</time>
      </trkpt>
      <trkpt lat="44.6119" lon="3.55646">
        <ele>1391.62</ele>
        <time>2024-11-05T09:53:17.520Z</time>
      </trkpt>
      <trkpt lat="44.61199" lon="3.55638">
        <ele>1390.76</ele>
        <time>2024-11-05T09:53:19.244Z</time>
      </trkpt>
      <trkpt lat="44.61204" lon="3.55634">
        <ele>1389.91</ele>
        <time>2024-11-05T09:53:20.969Z</time>
      </trkpt>
      <trkpt lat="44.6123" lon="3.5562">
        <ele>1388.99</ele>
        <time>2024-11-05T09:53:22.698Z</time>
      </trkpt>
      <trkpt lat="44.61257" lon="3.55607">
        <ele>1388.05</ele>
        <time>2024-11-05T09:53:24.432Z</time>
      </trkpt>
      <trkpt lat="44.61284" lon="3.55593">
        <ele>1387.13</ele>
        <time>2024-11-05T09:53:26.170Z</time>
      </trkpt>
      <trkpt lat="44.61311" lon="3.55579">
        <ele>1386.21</ele>
        <time>2024-11-05T09:53:27.913Z</time>
      </trkpt>
      <trkpt lat="44.61335" lon="3.55568">
        <ele>1385.28</ele>
        <time>2024-11-05T09:53:29.660Z</time>
      </trkpt>
      <trkpt lat="44.61359" lon="3.55557">
        <ele>1384.35</ele>
        <time>2024-11-05T09:53:31.411Z</time>
      </trkpt>
      <trkpt lat="44.61384" lon="3.55545">
        <ele>1383.38</ele>
        <time>2024-11-05T09:53:33.166Z</time>
      </trkpt>
      <trkpt lat="44.61411" lon="3.55554">
        <ele>1382.47</ele>
        <time>2024-11-05T09:53:34.926Z</time>
      </trkpt>
      <trkpt lat="44.61431" lon="3.55554">
        <ele>1381.54</ele>
        <time>2024-11-05T09:53:36.689Z</time>
      </trkpt>
      <trkpt lat="44.61451" lon="3.55554">
        <ele>1380.59</ele>
        <time>2024-11-05T09:53:38.455Z</time>
      </trkpt>
      <trkpt lat="44.6148" lon="3.55557">
        <ele>1379.6</ele>
        <time>2024-11-05T09:53:40.226Z</time>
      </trkpt>
      <trkpt lat="44.61509" lon="3.5556">
        <ele>1378.64</ele>
        <time>2024-11-05T09:53:42.001Z</time>
      </trkpt>
      <trkpt lat="44.61538" lon="3.55563">
        <ele>1377.66</ele>
        <time>2024-11-05T09:53:43.781Z</time>
      </trkpt>
      <trkpt lat="44.61567" lon="3.55566">
        <ele>1376.71</ele>
        <time>2024-11-05T09:53:45.566Z</time>
      </trkpt>
      <trkpt lat="44.61595" lon="3.55569">
        <ele>1375.68</ele>
        <time>2024-11-05T09:53:47.355Z</time>
      </trkpt>
      <trkpt lat="44.61624" lon="3.55572">
        <ele>1374.61</ele>
        <time>2024-11-05T09:53:49.149Z</time>
      </trkpt>
      <trkpt lat="44.61653" lon="3.55575">
        <ele>1373.58</ele>
        <time>2024-11-05T09:53:50.948Z</time>
      </trkpt>
      <trkpt lat="44.61683" lon="3.55584">
        <ele>1372.55</ele>
        <time>2024-11-05T09:53:52.752Z</time>
      </trkpt>
      <trkpt lat="44.61694" lon="3.55597">
        <ele>1371.47</ele>
        <time>2024-11-05T09:53:54.558Z</time>
      </trkpt>
      <trkpt lat="44.61702" lon="3.55616">
        <ele>1370.37</ele>
        <time>2024-11-05T09:53:56.366Z</time>
      </trkpt>
      <trkpt lat="44.61709" lon="3.5565">
        <ele>1369.2</ele>
        <time>2024-11-05T09:53:58.178Z</time>
      </trkpt>
      <trkpt lat="44.61715" lon="3.55683">
        <ele>1368</ele>
        <time>2024-11-05T09:53:59.994Z</time>
      </trkpt>
      <trkpt lat="44.61722" lon="3.55717">
        <ele>1366.84</ele>
        <time>2024-11-05T09:54:01.814Z</time>
      </trkpt>
      <trkpt lat="44.6173" lon="3.55753">
        <ele>1365.67</ele>
        <time>2024-11-05T09:54:03.639Z</time>
      </trkpt>
      <trkpt lat="44.61739" lon="3.5579">
        <ele>1364.45</ele>
        <time>2024-11-05T09:54:05.468Z</time>
      </trkpt>
      <trkpt lat="44.61749" lon="3.55823">
        <ele>1363.22</ele>
        <time>2024-11-05T09:54:07.301Z</time>
      </trkpt>
      <trkpt lat="44.61758" lon="3.55856">
        <ele>1361.96</ele>
        <time>2024-11-05T09:54:09.138Z</time>
      </trkpt>
      <trkpt lat="44.61768" lon="3.55893">
        <ele>1360.7</ele>
        <time>2024-11-05T09:54:10.980Z</time>
      </trkpt>
      <trkpt lat="44.61778" lon="3.5593">
        <ele>1359.44</ele>
        <time>2024-11-05T09:54:12.826Z</time>
      </trkpt>
      <trkpt lat="44.61789" lon="3.55967">
        <ele>1358.15</ele>
        <time>2024-11-05T09:54:14.677Z</time>
      </trkpt>
      <trkpt lat="44.61799" lon="3.56004">
        <ele>1356.84</ele>
        <time>2024-11-05T09:54:16.532Z</time>
      </trkpt>
      <trkpt lat="44.61809" lon="3.56041">
        <ele>1355.57</ele>
        <time>2024-11-05T09:54:18.392Z</time>
      </trkpt>
      <trkpt lat="44.61814" lon="3.56055">
        <ele>1354.32</ele>
        <time>2024-11-05T09:54:20.254Z</time>
      </trkpt>
      <trkpt lat="44.61825" lon="3.5607">
        <ele>1353.06</ele>
        <time>2024-11-05T09:54:22.118Z</time>
      </trkpt>
      <trkpt lat="44.61846" lon="3.56087">
        <ele>1351.78</ele>
        <time>2024-11-05T09:54:23.986Z</time>
      </trkpt>
      <trkpt lat="44.61867" lon="3.56105">
        <ele>1350.48</ele>
        <time>2024-11-05T09:54:25.858Z</time>
      </trkpt>
      <trkpt lat="44.61888" lon="3.56115">
        <ele>1349.23</ele>
        <time>2024-11-05T09:54:27.734Z</time>
      </trkpt>
      <trkpt lat="44.61913" lon="3.56122">
        <ele>1347.98</ele>
        <time>2024-11-05T09:54:29.614Z</time>
      </trkpt>
      <trkpt lat="44.61933" lon="3.56122">
        <ele>1346.77</ele>
        <time>2024-11-05T09:54:31.497Z</time>
      </trkpt>
      <trkpt lat="44.61959" lon="3.56115">
        <ele>1345.55</ele>
        <time>2024-11-05T09:54:33.384Z</time>
      </trkpt>
      <trkpt lat="44.61981" lon="3.56105">
        <ele>1344.32</ele>
        <time>2024-11-05T09:54:35.275Z</time>
      </trkpt>
      <trkpt lat="44.61981" lon="3.56105">
        <ele>1343.18</ele>
        <time>2024-11-05T09:54:37.166Z</time>
      </trkpt>
      <trkpt lat="44.62007" lon="3.56096">
        <ele>1341.97</ele>
        <time>2024-11-05T09:54:39.061Z</time>
      </trkpt>
      <trkpt lat="44.62033" lon="3.56086">
        <ele>1340.82</ele>
        <time>2024-11-05T09:54:40.960Z</time>
      </trkpt>
      <trkpt lat="44.62059" lon="3.56077">
        <ele>1339.77</ele>
        <time>2024-11-05T09:54:42.864Z</time>
      </trkpt>
      <trkpt lat="44.62085" lon="3.56068">
        <ele>1338.76</ele>
        <time>2024-11-05T09:54:44.772Z</time>
      </trkpt>
      <trkpt lat="44.62108" lon="3.5606">
        <ele>1337.77</ele>
        <time>2024-11-05T09:54:46.684Z</time>
      </trkpt>
      <trkpt lat="44.6213" lon="3.56053">
        <ele>1336.83</ele>
        <time>2024-11-05T09:54:48.599Z</time>
      </trkpt>
      <trkpt lat="44.62153" lon="3.56045">
        <ele>1335.92</ele>
        <time>2024-11-05T09:54:50.518Z</time>
      </trkpt>
      <trkpt lat="44.62164" lon="3.56036">
        <ele>1335.04</ele>
        <time>2024-11-05T09:54:52.439Z</time>
      </trkpt>
      <trkpt lat="44.62184" lon="3.56053">
        <ele>1334.24</ele>
        <time>2024-11-05T09:54:54.364Z</time>
      </trkpt>
      <trkpt lat="44.62196" lon="3.56051">
        <ele>1333.44</ele>
        <time>2024-11-05T09:54:56.291Z</time>
      </trkpt>
      <trkpt lat="44.62214" lon="3.56041">
        <ele>1332.67</ele>
        <time>2024-11-05T09:54:58.221Z</time>
      </trkpt>
      <trkpt lat="44.62229" lon="3.56027">
        <ele>1332</ele>
        <time>2024-11-05T09:55:00.154Z</time>
      </trkpt>
      <trkpt lat="44.62237" lon="3.56018">
        <ele>1331.36</ele>
        <time>2024-11-05T09:55:02.088Z</time>
      </trkpt>
      <trkpt lat="44.62242" lon="3.56017">
        <ele>1330.8</ele>
        <time>2024-11-05T09:55:04.023Z</time>
      </trkpt>
      <trkpt lat="44.6227" lon="3.56031">
        <ele>1330.28</ele>
        <time>2024-11-05T09:55:05.963Z</time>
      </trkpt>
      <trkpt lat="44.62299" lon="3.56044">
        <ele>1329.79</ele>
        <time>2024-11-05T09:55:07.908Z</time>
      </trkpt>
      <trkpt lat="44.62317" lon="3.56055">
        <ele>1329.36</ele>
        <time>2024-11-05T09:55:09.856Z</time>
      </trkpt>
      <trkpt lat="44.62335" lon="3.56065">
        <ele>1328.97</ele>
        <time>2024-11-05T09:55:11.807Z</time>
      </trkpt>
      <trkpt lat="44.62364" lon="3.56078">
        <ele>1328.66</ele>
        <time>2024-11-05T09:55:13.763Z</time>
      </trkpt>
      <trkpt lat="44.62372" lon="3.56101">
        <ele>1328.47</ele>
        <time>2024-11-05T09:55:15.722Z</time>
      </trkpt>
      <trkpt lat="44.62372" lon="3.5612">
        <ele>1328.38</ele>
        <time>2024-11-05T09:55:17.683Z</time>
      </trkpt>
      <trkpt lat="44.62372" lon="3.5612">
        <ele>1328.37</ele>
        <time>2024-11-05T09:55:19.644Z</time>
      </trkpt>
      <trkpt lat="44.62372" lon="3.5612">
        <ele>1328.44</ele>
        <time>2024-11-05T09:55:21.605Z</time>
      </trkpt>
      <trkpt lat="44.62372" lon="3.5612">
        <ele>1328.58</ele>
        <time>2024-11-05T09:55:23.566Z</time>
      </trkpt>
      <trkpt lat="44.62372" lon="3.5612">
        <ele>1328.8</ele>
        <time>2024-11-05T09:55:25.527Z</time>
      </trkpt>
      <trkpt lat="44.62372" lon="3.56101">
        <ele>1328.47</ele>
        <time>2024-11-05T09:55:27.490Z</time>
      </trkpt>
      <trkpt lat="44.62364" lon="3.56078">
        <ele>1329.5</ele>
        <time>2024-11-05T09:55:29.456Z</time>
      </trkpt>
      <trkpt lat="44.62335" lon="3.56065">
        <ele>1328.97</ele>
        <time>2024-11-05T09:55:31.427Z</time>
      </trkpt>
      <trkpt lat="44.62317" lon="3.56055">
        <ele>1330.63</ele>
        <time>2024-11-05T09:55:33.401Z</time>
      </trkpt>
      <trkpt lat="44.62299" lon="3.56044">
        <ele>1329.79</ele>
        <time>2024-11-05T09:55:35.378Z</time>
      </trkpt>
      <trkpt lat="44.6227" lon="3.56031">
        <ele>1331.99</ele>
        <time>2024-11-05T09:55:37.360Z</time>
      </trkpt>
      <trkpt lat="44.62242" lon="3.56017">
        <ele>1330.8</ele>
        <time>2024-11-05T09:55:39.347Z</time>
      </trkpt>
      <trkpt lat="44.62237" lon="3.56018">
        <ele>1331.36</ele>
        <time>2024-11-05T09:55:41.335Z</time>
      </trkpt>
      <trkpt lat="44.62229" lon="3.56027">
        <ele>1332</ele>
        <time>2024-11-05T09:55:43.324Z</time>
      </trkpt>
      <trkpt lat="44.62214" lon="3.56041">
        <ele>1332.67</ele>
        <time>2024-11-05T09:55:45.316Z</time>
      </trkpt>
      <trkpt lat="44.62196" lon="3.56051">
        <ele>1333.44</ele>
        <time>2024-11-05T09:55:47.311Z</time>
      </trkpt>
      <trkpt lat="44.62184" lon="3.56053">
        <ele>1334.24</ele>
        <time>2024-11-05T09:55:49.308Z</time>
      </trkpt>
      <trkpt lat="44.62164" lon="3.56036">
        <ele>1335.04</ele>
        <time>2024-11-05T09:55:51.309Z</time>
      </trkpt>
      <trkpt lat="44.62153" lon="3.56045">
        <ele>1335.92</ele>
        <time>2024-11-05T09:55:53.312Z</time>
      </trkpt>
      <trkpt lat="44.6213" lon="3.56053">
        <ele>1340.5</ele>
        <time>2024-11-05T09:55:55.319Z</time>
      </trkpt>
      <trkpt lat="44.62108" lon="3.5606">
        <ele>1341.65</ele>
        <time>2024-11-05T09:55:57.329Z</time>
      </trkpt>
      <trkpt lat="44.62085" lon="3.56068">
        <ele>1338.76</ele>
        <time>2024-11-05T09:55:59.343Z</time>
      </trkpt>
      <trkpt lat="44.62059" lon="3.56077">
        <ele>1344.07</ele>
        <time>2024-11-05T09:56:01.361Z</time>
      </trkpt>
      <trkpt lat="44.62033" lon="3.56086">
        <ele>1345.32</ele>
        <time>2024-11-05T09:56:03.384Z</time>
      </trkpt>
      <trkpt lat="44.62007" lon="3.56096">
        <ele>1346.66</ele>
        <time>2024-11-05T09:56:05.411Z</time>
      </trkpt>
      <trkpt lat="44.61981" lon="3.56105">
        <ele>1343.18</ele>
        <time>2024-11-05T09:56:07.442Z</time>
      </trkpt>
      <trkpt lat="44.61981" lon="3.56105">
        <ele>1344.32</ele>
        <time>2024-11-05T09:56:09.473Z</time>
      </trkpt>
      <trkpt lat="44.61959" lon="3.56115">
        <ele>1345.55</ele>
        <time>2024-11-05T09:56:11.508Z</time>
      </trkpt>
      <trkpt lat="44.61933" lon="3.56122">
        <ele>1346.77</ele>
        <time>2024-11-05T09:56:13.547Z</time>
      </trkpt>
      <trkpt lat="44.61913" lon="3.56122">
        <ele>1347.98</ele>
        <time>2024-11-05T09:56:15.590Z</time>
      </trkpt>
      <trkpt lat="44.61888" lon="3.56115">
        <ele>1349.23</ele>
        <time>2024-11-05T09:56:17.637Z</time>
      </trkpt>
      <trkpt lat="44.61867" lon="3.56105">
        <ele>1350.48</ele>
        <time>2024-11-05T09:56:19.687Z</time>
      </trkpt>
      <trkpt lat="44.61846" lon="3.56087">
        <ele>1357.79</ele>
        <time>2024-11-05T09:56:21.741Z</time>
      </trkpt>
      <trkpt lat="44.61825" lon="3.5607">
        <ele>1353.06</ele>
        <time>2024-11-05T09:56:23.799Z</time>
      </trkpt>
      <trkpt lat="44.61814" lon="3.56055">
        <ele>1354.32</ele>
        <time>2024-11-05T09:56:25.859Z</time>
      </trkpt>
      <trkpt lat="44.61809" lon="3.56041">
        <ele>1355.57</ele>
        <time>2024-11-05T09:56:27.921Z</time>
      </trkpt>
      <trkpt lat="44.61799" lon="3.56004">
        <ele>1363.19</ele>
        <time>2024-11-05T09:56:29.988Z</time>
      </trkpt>
      <trkpt lat="44.61788" lon="3.55967">
        <ele>1364.54</ele>
        <time>2024-11-05T09:56:32.059Z</time>
      </trkpt>
      <trkpt lat="44.61778" lon="3.5593">
        <ele>1365.85</ele>
        <time>2024-11-05T09:56:34.135Z</time>
      </trkpt>
      <trkpt lat="44.61768" lon="3.55893">
        <ele>1367.11</ele>
        <time>2024-11-05T09:56:36.215Z</time>
      </trkpt>
      <trkpt lat="44.61758" lon="3.55856">
        <ele>1361.96</ele>
        <time>2024-11-05T09:56:38.300Z</time>
      </trkpt>
      <trkpt lat="44.61749" lon="3.55823">
        <ele>1369.54</ele>
        <time>2024-11-05T09:56:40.389Z</time>
      </trkpt>
      <trkpt lat="44.61739" lon="3.5579">
        <ele>1364.45</ele>
        <time>2024-11-05T09:56:42.482Z</time>
      </trkpt>
      <trkpt lat="44.6173" lon="3.55753">
        <ele>1371.78</ele>
        <time>2024-11-05T09:56:44.579Z</time>
      </trkpt>
      <trkpt lat="44.61722" lon="3.55717">
        <ele>1366.84</ele>
        <time>2024-11-05T09:56:46.681Z</time>
      </trkpt>
      <trkpt lat="44.61715" lon="3.55683">
        <ele>1373.78</ele>
        <time>2024-11-05T09:56:48.787Z</time>
      </trkpt>
      <trkpt lat="44.61709" lon="3.55649">
        <ele>1374.76</ele>
        <time>2024-11-05T09:56:50.897Z</time>
      </trkpt>
      <trkpt lat="44.61702" lon="3.55616">
        <ele>1370.37</ele>
        <time>2024-11-05T09:56:53.011Z</time>
      </trkpt>
      <trkpt lat="44.61694" lon="3.55597">
        <ele>1371.47</ele>
        <time>2024-11-05T09:56:55.127Z</time>
      </trkpt>
      <trkpt lat="44.61683" lon="3.55584">
        <ele>1372.55</ele>
        <time>2024-11-05T09:56:57.246Z</time>
      </trkpt>
      <trkpt lat="44.61653" lon="3.55575">
        <ele>1373.58</ele>
        <time>2024-11-05T09:56:59.370Z</time>
      </trkpt>
      <trkpt lat="44.61624" lon="3.55572">
        <ele>1378.48</ele>
        <time>2024-11-05T09:57:01.498Z</time>
      </trkpt>
      <trkpt lat="44.61595" lon="3.55569">
        <ele>1379.07</ele>
        <time>2024-11-05T09:57:03.631Z</time>
      </trkpt>
      <trkpt lat="44.61567" lon="3.55566">
        <ele>1379.58</ele>
        <time>2024-11-05T09:57:05.768Z</time>
      </trkpt>
      <trkpt lat="44.61538" lon="3.55563">
        <ele>1379.96</ele>
        <time>2024-11-05T09:57:07.910Z</time>
      </trkpt>
      <trkpt lat="44.61509" lon="3.5556">
        <ele>1380.32</ele>
        <time>2024-11-05T09:57:10.057Z</time>
      </trkpt>
      <trkpt lat="44.6148" lon="3.55557">
        <ele>1380.62</ele>
        <time>2024-11-05T09:57:12.208Z</time>
      </trkpt>
      <trkpt lat="44.61451" lon="3.55554">
        <ele>1380.59</ele>
        <time>2024-11-05T09:57:14.364Z</time>
      </trkpt>
      <trkpt lat="44.61431" lon="3.55554">
        <ele>1381.07</ele>
        <time>2024-11-05T09:57:16.523Z</time>
      </trkpt>
      <trkpt lat="44.61411" lon="3.55554">
        <ele>1382.47</ele>
        <time>2024-11-05T09:57:18.685Z</time>
      </trkpt>
      <trkpt lat="44.61384" lon="3.55545">
        <ele>1381.22</ele>
        <time>2024-11-05T09:57:20.852Z</time>
      </trkpt>
      <trkpt lat="44.61406" lon="3.55531">
        <ele>1381.18</ele>
        <time>2024-11-05T09:57:23.023Z</time>
      </trkpt>
      <trkpt lat="44.61433" lon="3.5551">
        <ele>1381.05</ele>
        <time>2024-11-05T09:57:25.199Z</time>
      </trkpt>
      <trkpt lat="44.6146" lon="3.55489">
        <ele>1380.9</ele>
        <time>2024-11-05T09:57:27.380Z</time>
      </trkpt>
      <trkpt lat="44.61473" lon="3.55475">
        <ele>1380.72</ele>
        <time>2024-11-05T09:57:29.563Z</time>
      </trkpt>
      <trkpt lat="44.61479" lon="3.5546">
        <ele>1380.49</ele>
        <time>2024-11-05T09:57:31.748Z</time>
      </trkpt>
      <trkpt lat="44.61482" lon="3.55441">
        <ele>1380.18</ele>
        <time>2024-11-05T09:57:33.935Z</time>
      </trkpt>
      <trkpt lat="44.61482" lon="3.5541">
        <ele>1379.81</ele>
        <time>2024-11-05T09:57:36.126Z</time>
      </trkpt>
      <trkpt lat="44.61479" lon="3.5537">
        <ele>1379.39</ele>
        <time>2024-11-05T09:57:38.322Z</time>
      </trkpt>
      <trkpt lat="44.61473" lon="3.55336">
        <ele>1378.91</ele>
        <time>2024-11-05T09:57:40.522Z</time>
      </trkpt>
      <trkpt lat="44.61466" lon="3.5531">
        <ele>1378.37</ele>
        <time>2024-11-05T09:57:42.725Z</time>
      </trkpt>
      <trkpt lat="44.61459" lon="3.55283">
        <ele>1377.78</ele>
        <time>2024-11-05T09:57:44.931Z</time>
      </trkpt>
      <trkpt lat="44.61456" lon="3.55249">
        <ele>1377.13</ele>
        <time>2024-11-05T09:57:47.141Z</time>
      </trkpt>
      <trkpt lat="44.61458" lon="3.55216">
        <ele>1376.49</ele>
        <time>2024-11-05T09:57:49.355Z</time>
      </trkpt>
      <trkpt lat="44.61464" lon="3.55189">
        <ele>1375.81</ele>
        <time>2024-11-05T09:57:51.572Z</time>
      </trkpt>
      <trkpt lat="44.61474" lon="3.55159">
        <ele>1375.07</ele>
        <time>2024-11-05T09:57:53.793Z</time>
      </trkpt>
      <trkpt lat="44.61478" lon="3.55125">
        <ele>1374.27</ele>
        <time>2024-11-05T09:57:56.018Z</time>
      </trkpt>
      <trkpt lat="44.61483" lon="3.55092">
        <ele>1373.43</ele>
        <time>2024-11-05T09:57:58.247Z</time>
      </trkpt>
      <trkpt lat="44.61488" lon="3.55058">
        <ele>1372.58</ele>
        <time>2024-11-05T09:58:00.480Z</time>
      </trkpt>
      <trkpt lat="44.61492" lon="3.55025">
        <ele>1371.68</ele>
        <time>2024-11-05T09:58:02.716Z</time>
      </trkpt>
      <trkpt lat="44.61495" lon="3.54991">
        <ele>1370.77</ele>
        <time>2024-11-05T09:58:04.956Z</time>
      </trkpt>
      <trkpt lat="44.61496" lon="3.5495">
        <ele>1369.76</ele>
        <time>2024-11-05T09:58:07.201Z</time>
      </trkpt>
      <trkpt lat="44.61496" lon="3.5495">
        <ele>1368.79</ele>
        <time>2024-11-05T09:58:09.446Z</time>
      </trkpt>
      <trkpt lat="44.61496" lon="3.5495">
        <ele>1367.79</ele>
        <time>2024-11-05T09:58:11.691Z</time>
      </trkpt>
      <trkpt lat="44.61496" lon="3.5495">
        <ele>1366.75</ele>
        <time>2024-11-05T09:58:13.936Z</time>
      </trkpt>
      <trkpt lat="44.61496" lon="3.5495">
        <ele>1365.69</ele>
        <time>2024-11-05T09:58:16.181Z</time>
      </trkpt>
      <trkpt lat="44.61496" lon="3.5495">
        <ele>1364.61</ele>
        <time>2024-11-05T09:58:18.426Z</time>
      </trkpt>
      <trkpt lat="44.61496" lon="3.54939">
        <ele>1363.48</ele>
        <time>2024-11-05T09:58:20.672Z</time>
      </trkpt>
      <trkpt lat="44.61499" lon="3.54911">
        <ele>1362.31</ele>
        <time>2024-11-05T09:58:22.922Z</time>
      </trkpt>
      <trkpt lat="44.61502" lon="3.54883">
        <ele>1361.1</ele>
        <time>2024-11-05T09:58:25.175Z</time>
      </trkpt>
      <trkpt lat="44.61506" lon="3.54858">
        <ele>1359.88</ele>
        <time>2024-11-05T09:58:27.431Z</time>
      </trkpt>
      <trkpt lat="44.6151" lon="3.54833">
        <ele>1358.68</ele>
        <time>2024-11-05T09:58:29.690Z</time>
      </trkpt>
      <trkpt lat="44.61518" lon="3.54802">
        <ele>1357.43</ele>
        <time>2024-11-05T09:58:31.952Z</time>
      </trkpt>
      <trkpt lat="44.61525" lon="3.5477">
        <ele>1356.12</ele>
        <time>2024-11-05T09:58:34.218Z</time>
      </trkpt>
      <trkpt lat="44.61532" lon="3.54739">
        <ele>1354.82</ele>
        <time>2024-11-05T09:58:36.488Z</time>
      </trkpt>
      <trkpt lat="44.61538" lon="3.54701">
        <ele>1353.52</ele>
        <time>2024-11-05T09:58:38.762Z</time>
      </trkpt>
      <trkpt lat="44.61548" lon="3.54659">
        <ele>1352.2</ele>
        <time>2024-11-05T09:58:41.041Z</time>
      </trkpt>
      <trkpt lat="44.61558" lon="3.54632">
        <ele>1350.92</ele>
        <time>2024-11-05T09:58:43.324Z</time>
      </trkpt>
      <trkpt lat="44.61576" lon="3.54599">
        <ele>1349.63</ele>
        <time>2024-11-05T09:58:45.612Z</time>
      </trkpt>
      <trkpt lat="44.61591" lon="3.54566">
        <ele>1348.25</ele>
        <time>2024-11-05T09:58:47.904Z</time>
      </trkpt>
      <trkpt lat="44.61607" lon="3.54533">
        <ele>1346.82</ele>
        <time>2024-11-05T09:58:50.201Z</time>
      </trkpt>
      <trkpt lat="44.61617" lon="3.54507">
        <ele>1345.43</ele>
        <time>2024-11-05T09:58:52.501Z</time>
      </trkpt>
      <trkpt lat="44.61624" lon="3.54468">
        <ele>1344</ele>
        <time>2024-11-05T09:58:54.806Z</time>
      </trkpt>
      <trkpt lat="44.61631" lon="3.5443">
        <ele>1342.6</ele>
        <time>2024-11-05T09:58:57.115Z</time>
      </trkpt>
      <trkpt lat="44.61639" lon="3.54407">
        <ele>1341.26</ele>
        <time>2024-11-05T09:58:59.427Z</time>
      </trkpt>
      <trkpt lat="44.61649" lon="3.54393">
        <ele>1339.92</ele>
        <time>2024-11-05T09:59:01.741Z</time>
      </trkpt>
      <trkpt lat="44.61662" lon="3.5438">
        <ele>1338.54</ele>
        <time>2024-11-05T09:59:04.058Z</time>
      </trkpt>
      <trkpt lat="44.61677" lon="3.54375">
        <ele>1337.17</ele>
        <time>2024-11-05T09:59:06.377Z</time>
      </trkpt>
      <trkpt lat="44.617" lon="3.5437">
        <ele>1335.77</ele>
        <time>2024-11-05T09:59:08.700Z</time>
      </trkpt>
      <trkpt lat="44.61724" lon="3.54365">
        <ele>1334.39</ele>
        <time>2024-11-05T09:59:11.027Z</time>
      </trkpt>
      <trkpt lat="44.61724" lon="3.54365">
        <ele>1333.08</ele>
        <time>2024-11-05T09:59:13.354Z</time>
      </trkpt>
      <trkpt lat="44.61738" lon="3.54363">
        <ele>1331.77</ele>
        <time>2024-11-05T09:59:15.683Z</time>
      </trkpt>
      <trkpt lat="44.61759" lon="3.54347">
        <ele>1330.42</ele>
        <time>2024-11-05T09:59:18.016Z</time>
      </trkpt>
      <trkpt lat="44.61768" lon="3.54335">
        <ele>1329.11</ele>
        <time>2024-11-05T09:59:20.351Z</time>
      </trkpt>
      <trkpt lat="44.61776" lon="3.54319">
        <ele>1327.79</ele>
        <time>2024-11-05T09:59:22.688Z</time>
      </trkpt>
      <trkpt lat="44.61781" lon="3.54297">
        <ele>1326.48</ele>
        <time>2024-11-05T09:59:25.028Z</time>
      </trkpt>
      <trkpt lat="44.61781" lon="3.54273">
        <ele>1325.18</ele>
        <time>2024-11-05T09:59:27.371Z</time>
      </trkpt>
      <trkpt lat="44.61777" lon="3.54249">
        <ele>1323.93</ele>
        <time>2024-11-05T09:59:29.716Z</time>
      </trkpt>
      <trkpt lat="44.61773" lon="3.54231">
        <ele>1322.69</ele>
        <time>2024-11-05T09:59:32.064Z</time>
      </trkpt>
      <trkpt lat="44.61766" lon="3.54213">
        <ele>1321.47</ele>
        <time>2024-11-05T09:59:34.414Z</time>
      </trkpt>
      <trkpt lat="44.6175" lon="3.54185">
        <ele>1320.24</ele>
        <time>2024-11-05T09:59:36.768Z</time>
      </trkpt>
      <trkpt lat="44.61728" lon="3.54154">
        <ele>1319.08</ele>
        <time>2024-11-05T09:59:39.127Z</time>
      </trkpt>
      <trkpt lat="44.61714" lon="3.54131">
        <ele>1317.95</ele>
        <time>2024-11-05T09:59:41.490Z</time>
      </trkpt>
      <trkpt lat="44.61699" lon="3.54109">
        <ele>1316.84</ele>
        <time>2024-11-05T09:59:43.856Z</time>
      </trkpt>
      <trkpt lat="44.61685" lon="3.54081">
        <ele>1315.68</ele>
        <time>2024-11-05T09:59:46.226Z</time>
      </trkpt>
      <trkpt lat="44.61671" lon="3.54054">
        <ele>1314.63</ele>
        <time>2024-11-05T09:59:48.600Z</time>
      </trkpt>
      <trkpt lat="44.61663" lon="3.54027">
        <ele>1313.65</ele>
        <time>2024-11-05T09:59:50.977Z</time>
      </trkpt>
      <trkpt lat="44.61654" lon="3.54">
        <ele>1312.69</ele>
        <time>2024-11-05T09:59:53.357Z</time>
      </trkpt>
      <trkpt lat="44.61645" lon="3.53966">
        <ele>1311.7</ele>
        <time>2024-11-05T09:59:55.742Z</time>
      </trkpt>
      <trkpt lat="44.61636" lon="3.53931">
        <ele>1310.77</ele>
        <time>2024-11-05T09:59:58.131Z</time>
      </trkpt>
      <trkpt lat="44.61628" lon="3.53897">
        <ele>1309.91</ele>
        <time>2024-11-05T10:00:00.524Z</time>
      </trkpt>
      <trkpt lat="44.61619" lon="3.53863">
        <ele>1309.05</ele>
        <time>2024-11-05T10:00:02.921Z</time>
      </trkpt>
      <trkpt lat="44.61607" lon="3.53827">
        <ele>1308.21</ele>
        <time>2024-11-05T10:00:05.323Z</time>
      </trkpt>
      <trkpt lat="44.61595" lon="3.53798">
        <ele>1307.36</ele>
        <time>2024-11-05T10:00:07.728Z</time>
      </trkpt>
      <trkpt lat="44.61583" lon="3.53769">
        <ele>1306.51</ele>
        <time>2024-11-05T10:00:10.137Z</time>
      </trkpt>
      <trkpt lat="44.61573" lon="3.53737">
        <ele>1305.68</ele>
        <time>2024-11-05T10:00:12.550Z</time>
      </trkpt>
      <trkpt lat="44.61563" lon="3.53706">
        <ele>1304.89</ele>
        <time>2024-11-05T10:00:14.967Z</time>
      </trkpt>
      <trkpt lat="44.61553" lon="3.53674">
        <ele>1304.09</ele>
        <time>2024-11-05T10:00:17.388Z</time>
      </trkpt>
      <trkpt lat="44.61543" lon="3.53642">
        <ele>1303.29</ele>
        <time>2024-11-05T10:00:19.813Z</time>
      </trkpt>
      <trkpt lat="44.61532" lon="3.53619">
        <ele>1302.47</ele>
        <time>2024-11-05T10:00:22.241Z</time>
      </trkpt>
      <trkpt lat="44.61522" lon="3.53596">
        <ele>1301.69</ele>
        <time>2024-11-05T10:00:24.672Z</time>
      </trkpt>
      <trkpt lat="44.61512" lon="3.53562">
        <ele>1300.92</ele>
        <time>2024-11-05T10:00:27.108Z</time>
      </trkpt>
      <trkpt lat="44.61503" lon="3.53528">
        <ele>1300.13</ele>
        <time>2024-11-05T10:00:29.548Z</time>
      </trkpt>
      <trkpt lat="44.61489" lon="3.53495">
        <ele>1299.33</ele>
        <time>2024-11-05T10:00:31.992Z</time>
      </trkpt>
      <trkpt lat="44.61476" lon="3.53462">
        <ele>1298.5</ele>
        <time>2024-11-05T10:00:34.440Z</time>
      </trkpt>
      <trkpt lat="44.61462" lon="3.53429">
        <ele>1297.7</ele>
        <time>2024-11-05T10:00:36.893Z</time>
      </trkpt>
      <trkpt lat="44.61449" lon="3.53403">
        <ele>1296.94</ele>
        <time>2024-11-05T10:00:39.349Z</time>
      </trkpt>
      <trkpt lat="44.61435" lon="3.53377">
        <ele>1296.19</ele>
        <time>2024-11-05T10:00:41.809Z</time>
      </trkpt>
      <trkpt lat="44.61422" lon="3.53343">
        <ele>1295.44</ele>
        <time>2024-11-05T10:00:44.274Z</time>
      </trkpt>
      <trkpt lat="44.61408" lon="3.53309">
        <ele>1294.66</ele>
        <time>2024-11-05T10:00:46.743Z</time>
      </trkpt>
      <trkpt lat="44.61396" lon="3.53288">
        <ele>1293.92</ele>
        <time>2024-11-05T10:00:49.215Z</time>
      </trkpt>
      <trkpt lat="44.61384" lon="3.53266">
        <ele>1293.17</ele>
        <time>2024-11-05T10:00:51.690Z</time>
      </trkpt>
      <trkpt lat="44.61376" lon="3.53242">
        <ele>1292.41</ele>
        <time>2024-11-05T10:00:54.168Z</time>
      </trkpt>
      <trkpt lat="44.61373" lon="3.53214">
        <ele>1291.66</ele>
        <time>2024-11-05T10:00:56.650Z</time>
      </trkpt>
      <trkpt lat="44.61374" lon="3.53182">
        <ele>1290.91</ele>
        <time>2024-11-05T10:00:59.135Z</time>
      </trkpt>
      <trkpt lat="44.61374" lon="3.5315">
        <ele>1290.2</ele>
        <time>2024-11-05T10:01:01.624Z</time>
      </trkpt>
      <trkpt lat="44.61375" lon="3.53112">
        <ele>1289.54</ele>
        <time>2024-11-05T10:01:04.117Z</time>
      </trkpt>
      <trkpt lat="44.61375" lon="3.53074">
        <ele>1288.87</ele>
        <time>2024-11-05T10:01:06.615Z</time>
      </trkpt>
      <trkpt lat="44.61378" lon="3.53031">
        <ele>1288.19</ele>
        <time>2024-11-05T10:01:09.117Z</time>
      </trkpt>
      <trkpt lat="44.61385" lon="3.52997">
        <ele>1287.53</ele>
        <time>2024-11-05T10:01:11.623Z</time>
      </trkpt>
      <trkpt lat="44.61394" lon="3.5296">
        <ele>1286.91</ele>
        <time>2024-11-05T10:01:14.134Z</time>
      </trkpt>
      <trkpt lat="44.61403" lon="3.52924">
        <ele>1286.32</ele>
        <time>2024-11-05T10:01:16.649Z</time>
      </trkpt>
      <trkpt lat="44.61406" lon="3.52891">
        <ele>1285.77</ele>
        <time>2024-11-05T10:01:19.168Z</time>
      </trkpt>
      <trkpt lat="44.61405" lon="3.52863">
        <ele>1285.2</ele>
        <time>2024-11-05T10:01:21.690Z</time>
      </trkpt>
      <trkpt lat="44.61402" lon="3.52833">
        <ele>1284.68</ele>
        <time>2024-11-05T10:01:24.216Z</time>
      </trkpt>
      <trkpt lat="44.61399" lon="3.52804">
        <ele>1284.13</ele>
        <time>2024-11-05T10:01:26.745Z</time>
      </trkpt>
      <trkpt lat="44.61396" lon="3.52767">
        <ele>1283.58</ele>
        <time>2024-11-05T10:01:29.278Z</time>
      </trkpt>
      <trkpt lat="44.61392" lon="3.52731">
        <ele>1283.01</ele>
        <time>2024-11-05T10:01:31.816Z</time>
      </trkpt>
      <trkpt lat="44.61386" lon="3.52694">
        <ele>1282.47</ele>
        <time>2024-11-05T10:01:34.358Z</time>
      </trkpt>
      <trkpt lat="44.61373" lon="3.52657">
        <ele>1281.85</ele>
        <time>2024-11-05T10:01:36.905Z</time>
      </trkpt>
      <trkpt lat="44.6136" lon="3.52632">
        <ele>1281.3</ele>
        <time>2024-11-05T10:01:39.455Z</time>
      </trkpt>
      <trkpt lat="44.61341" lon="3.52612">
        <ele>1280.83</ele>
        <time>2024-11-05T10:01:42.009Z</time>
      </trkpt>
      <trkpt lat="44.61323" lon="3.52593">
        <ele>1280.28</ele>
        <time>2024-11-05T10:01:44.567Z</time>
      </trkpt>
      <trkpt lat="44.61312" lon="3.52576">
        <ele>1279.74</ele>
        <time>2024-11-05T10:01:47.127Z</time>
      </trkpt>
      <trkpt lat="44.61301" lon="3.52548">
        <ele>1279.23</ele>
        <time>2024-11-05T10:01:49.691Z</time>
      </trkpt>
      <trkpt lat="44.61289" lon="3.52521">
        <ele>1278.76</ele>
        <time>2024-11-05T10:01:52.259Z</time>
      </trkpt>
      <trkpt lat="44.61279" lon="3.52488">
        <ele>1278.24</ele>
        <time>2024-11-05T10:01:54.831Z</time>
      </trkpt>
      <trkpt lat="44.61268" lon="3.52456">
        <ele>1277.72</ele>
        <time>2024-11-05T10:01:57.407Z</time>
      </trkpt>
      <trkpt lat="44.6125" lon="3.52422">
        <ele>1277.33</ele>
        <time>2024-11-05T10:01:59.988Z</time>
      </trkpt>
      <trkpt lat="44.61241" lon="3.524">
        <ele>1276.96</ele>
        <time>2024-11-05T10:02:02.571Z</time>
      </trkpt>
      <trkpt lat="44.61241" lon="3.524">
        <ele>1276.57</ele>
        <time>2024-11-05T10:02:05.154Z</time>
      </trkpt>
      <trkpt lat="44.61238" lon="3.52388">
        <ele>1276.2</ele>
        <time>2024-11-05T10:02:07.739Z</time>
      </trkpt>
      <trkpt lat="44.61238" lon="3.52367">
        <ele>1275.86</ele>
        <time>2024-11-05T10:02:10.326Z</time>
      </trkpt>
      <trkpt lat="44.61243" lon="3.52347">
        <ele>1275.48</ele>
        <time>2024-11-05T10:02:12.916Z</time>
      </trkpt>
      <trkpt lat="44.61256" lon="3.52325">
        <ele>1275.1</ele>
        <time>2024-11-05T10:02:15.509Z</time>
      </trkpt>
      <trkpt lat="44.61268" lon="3.52308">
        <ele>1274.74</ele>
        <time>2024-11-05T10:02:18.105Z</time>
      </trkpt>
      <trkpt lat="44.6128" lon="3.52291">
        <ele>1274.41</ele>
        <time>2024-11-05T10:02:20.703Z</time>
      </trkpt>
      <trkpt lat="44.61296" lon="3.52275">
        <ele>1274.07</ele>
        <time>2024-11-05T10:02:23.304Z</time>
      </trkpt>
      <trkpt lat="44.61312" lon="3.5226">
        <ele>1273.71</ele>
        <time>2024-11-05T10:02:25.909Z</time>
      </trkpt>
      <trkpt lat="44.61331" lon="3.52238">
        <ele>1273.34</ele>
        <time>2024-11-05T10:02:28.518Z</time>
      </trkpt>
      <trkpt lat="44.61346" lon="3.52212">
        <ele>1272.97</ele>
        <time>2024-11-05T10:02:31.130Z</time>
      </trkpt>
      <trkpt lat="44.61361" lon="3.5218">
        <ele>1272.56</ele>
        <time>2024-11-05T10:02:33.747Z</time>
      </trkpt>
      <trkpt lat="44.61375" lon="3.52149">
        <ele>1272.11</ele>
        <time>2024-11-05T10:02:36.368Z</time>
      </trkpt>
      <trkpt lat="44.61381" lon="3.52131">
        <ele>1271.66</ele>
        <time>2024-11-05T10:02:38.991Z</time>
      </trkpt>
      <trkpt lat="44.61383" lon="3.52104">
        <ele>1271.2</ele>
        <time>2024-11-05T10:02:41.617Z</time>
      </trkpt>
      <trkpt lat="44.61383" lon="3.52082">
        <ele>1270.74</ele>
        <time>2024-11-05T10:02:44.246Z</time>
      </trkpt>
      <trkpt lat="44.61383" lon="3.52059">
        <ele>1270.28</ele>
        <time>2024-11-05T10:02:46.877Z</time>
      </trkpt>
      <trkpt lat="44.61385" lon="3.52019">
        <ele>1269.83</ele>
        <time>2024-11-05T10:02:49.513Z</time>
      </trkpt>
      <trkpt lat="44.61388" lon="3.5198">
        <ele>1269.33</ele>
        <time>2024-11-05T10:02:52.154Z</time>
      </trkpt>
      <trkpt lat="44.61393" lon="3.51948">
        <ele>1268.78</ele>
        <time>2024-11-05T10:02:54.798Z</time>
      </trkpt>
      <trkpt lat="44.614" lon="3.51919">
        <ele>1268.25</ele>
        <time>2024-11-05T10:02:57.446Z</time>
      </trkpt>
      <trkpt lat="44.61406" lon="3.5189">
        <ele>1267.68</ele>
        <time>2024-11-05T10:03:00.097Z</time>
      </trkpt>
      <trkpt lat="44.61413" lon="3.51861">
        <ele>1267.08</ele>
        <time>2024-11-05T10:03:02.752Z</time>
      </trkpt>
      <trkpt lat="44.61425" lon="3.51828">
        <ele>1266.44</ele>
        <time>2024-11-05T10:03:05.411Z</time>
      </trkpt>
      <trkpt lat="44.61431" lon="3.51816">
        <ele>1265.78</ele>
        <time>2024-11-05T10:03:08.072Z</time>
      </trkpt>
      <trkpt lat="44.61447" lon="3.51794">
        <ele>1265.09</ele>
        <time>2024-11-05T10:03:10.736Z</time>
      </trkpt>
      <trkpt lat="44.61464" lon="3.51772">
        <ele>1264.34</ele>
        <time>2024-11-05T10:03:13.404Z</time>
      </trkpt>
      <trkpt lat="44.6148" lon="3.5175">
        <ele>1263.57</ele>
        <time>2024-11-05T10:03:16.076Z</time>
      </trkpt>
      <trkpt lat="44.61497" lon="3.51718">
        <ele>1262.71</ele>
        <time>2024-11-05T10:03:18.752Z</time>
      </trkpt>
      <trkpt lat="44.61508" lon="3.51689">
        <ele>1261.83</ele>
        <time>2024-11-05T10:03:21.432Z</time>
      </trkpt>
      <trkpt lat="44.61518" lon="3.51661">
        <ele>1260.92</ele>
        <time>2024-11-05T10:03:24.115Z</time>
      </trkpt>
      <trkpt lat="44.61529" lon="3.51632">
        <ele>1260</ele>
        <time>2024-11-05T10:03:26.802Z</time>
      </trkpt>
      <trkpt lat="44.61537" lon="3.51606">
        <ele>1259.03</ele>
        <time>2024-11-05T10:03:29.492Z</time>
      </trkpt>
      <trkpt lat="44.61545" lon="3.51581">
        <ele>1258.03</ele>
        <time>2024-11-05T10:03:32.186Z</time>
      </trkpt>
      <trkpt lat="44.61555" lon="3.51554">
        <ele>1257.05</ele>
        <time>2024-11-05T10:03:34.883Z</time>
      </trkpt>
      <trkpt lat="44.61565" lon="3.51527">
        <ele>1256</ele>
        <time>2024-11-05T10:03:37.584Z</time>
      </trkpt>
      <trkpt lat="44.61574" lon="3.51491">
        <ele>1254.87</ele>
        <time>2024-11-05T10:03:40.289Z</time>
      </trkpt>
      <trkpt lat="44.6158" lon="3.5147">
        <ele>1253.77</ele>
        <time>2024-11-05T10:03:42.996Z</time>
      </trkpt>
      <trkpt lat="44.61585" lon="3.51449">
        <ele>1252.67</ele>
        <time>2024-11-05T10:03:45.706Z</time>
      </trkpt>
      <trkpt lat="44.61597" lon="3.51412">
        <ele>1251.53</ele>
        <time>2024-11-05T10:03:48.421Z</time>
      </trkpt>
      <trkpt lat="44.6161" lon="3.51387">
        <ele>1250.39</ele>
        <time>2024-11-05T10:03:51.139Z</time>
      </trkpt>
      <trkpt lat="44.61622" lon="3.51362">
        <ele>1249.26</ele>
        <time>2024-11-05T10:03:53.861Z</time>
      </trkpt>
      <trkpt lat="44.61631" lon="3.51342">
        <ele>1248.12</ele>
        <time>2024-11-05T10:03:56.585Z</time>
      </trkpt>
      <trkpt lat="44.61638" lon="3.51316">
        <ele>1246.95</ele>
        <time>2024-11-05T10:03:59.312Z</time>
      </trkpt>
      <trkpt lat="44.61643" lon="3.51286">
        <ele>1245.78</ele>
        <time>2024-11-05T10:04:02.043Z</time>
      </trkpt>
      <trkpt lat="44.61648" lon="3.51256">
        <ele>1244.64</ele>
        <time>2024-11-05T10:04:04.778Z</time>
      </trkpt>
      <trkpt lat="44.61654" lon="3.51233">
        <ele>1243.47</ele>
        <time>2024-11-05T10:04:07.515Z</time>
      </trkpt>
      <trkpt lat="44.61665" lon="3.51219">
        <ele>1242.27</ele>
        <time>2024-11-05T10:04:10.255Z</time>
      </trkpt>
      <trkpt lat="44.61691" lon="3.51202">
        <ele>1241</ele>
        <time>2024-11-05T10:04:12.999Z</time>
      </trkpt>
      <trkpt lat="44.61711" lon="3.51192">
        <ele>1239.77</ele>
        <time>2024-11-05T10:04:15.747Z</time>
      </trkpt>
      <trkpt lat="44.61732" lon="3.51183">
        <ele>1238.58</ele>
        <time>2024-11-05T10:04:18.498Z</time>
      </trkpt>
      <trkpt lat="44.61759" lon="3.51176">
        <ele>1237.4</ele>
        <time>2024-11-05T10:04:21.254Z</time>
      </trkpt>
      <trkpt lat="44.61785" lon="3.5117">
        <ele>1236.23</ele>
        <time>2024-11-05T10:04:24.014Z</time>
      </trkpt>
      <trkpt lat="44.61808" lon="3.51158">
        <ele>1235.08</ele>
        <time>2024-11-05T10:04:26.778Z</time>
      </trkpt>
      <trkpt lat="44.61831" lon="3.51147">
        <ele>1233.96</ele>
        <time>2024-11-05T10:04:29.546Z</time>
      </trkpt>
      <trkpt lat="44.61854" lon="3.51136">
        <ele>1232.86</ele>
        <time>2024-11-05T10:04:32.317Z</time>
      </trkpt>
      <trkpt lat="44.6187" lon="3.51128">
        <ele>1231.74</ele>
        <time>2024-11-05T10:04:35.091Z</time>
      </trkpt>
      <trkpt lat="44.61887" lon="3.51121">
        <ele>1230.64</ele>
        <time>2024-11-05T10:04:37.868Z</time>
      </trkpt>
      <trkpt lat="44.61908" lon="3.51109">
        <ele>1229.57</ele>
        <time>2024-11-05T10:04:40.649Z</time>
      </trkpt>
      <trkpt lat="44.61931" lon="3.51086">
        <ele>1228.52</ele>
        <time>2024-11-05T10:04:43.434Z</time>
      </trkpt>
      <trkpt lat="44.61952" lon="3.51069">
        <ele>1227.47</ele>
        <time>2024-11-05T10:04:46.223Z</time>
      </trkpt>
      <trkpt lat="44.61978" lon="3.51056">
        <ele>1226.44</ele>
        <time>2024-11-05T10:04:49.016Z</time>
      </trkpt>
      <trkpt lat="44.62004" lon="3.51043">
        <ele>1225.43</ele>
        <time>2024-11-05T10:04:51.814Z</time>
      </trkpt>
      <trkpt lat="44.6203" lon="3.5103">
        <ele>1224.47</ele>
        <time>2024-11-05T10:04:54.616Z</time>
      </trkpt>
      <trkpt lat="44.62046" lon="3.51019">
        <ele>1223.49</ele>
        <time>2024-11-05T10:04:57.421Z</time>
      </trkpt>
      <trkpt lat="44.62062" lon="3.51007">
        <ele>1222.52</ele>
        <time>2024-11-05T10:05:00.229Z</time>
      </trkpt>
      <trkpt lat="44.62082" lon="3.50987">
        <ele>1221.56</ele>
        <time>2024-11-05T10:05:03.041Z</time>
      </trkpt>
      <trkpt lat="44.62097" lon="3.50969">
        <ele>1220.65</ele>
        <time>2024-11-05T10:05:05.856Z</time>
      </trkpt>
      <trkpt lat="44.62112" lon="3.50951">
        <ele>1219.77</ele>
        <time>2024-11-05T10:05:08.674Z</time>
      </trkpt>
      <trkpt lat="44.62136" lon="3.50931">
        <ele>1218.94</ele>
        <time>2024-11-05T10:05:11.497Z</time>
      </trkpt>
      <trkpt lat="44.62153" lon="3.50919">
        <ele>1218.18</ele>
        <time>2024-11-05T10:05:14.323Z</time>
      </trkpt>
      <trkpt lat="44.6217" lon="3.50907">
        <ele>1217.45</ele>
        <time>2024-11-05T10:05:17.152Z</time>
      </trkpt>
      <trkpt lat="44.62188" lon="3.50891">
        <ele>1216.74</ele>
        <time>2024-11-05T10:05:19.984Z</time>
      </trkpt>
      <trkpt lat="44.62207" lon="3.50872">
        <ele>1216.08</ele>
        <time>2024-11-05T10:05:22.820Z</time>
      </trkpt>
      <trkpt lat="44.62227" lon="3.50847">
        <ele>1215.44</ele>
        <time>2024-11-05T10:05:25.660Z</time>
      </trkpt>
      <trkpt lat="44.62247" lon="3.50823">
        <ele>1214.82</ele>
        <time>2024-11-05T10:05:28.505Z</time>
      </trkpt>
      <trkpt lat="44.62268" lon="3.50799">
        <ele>1214.22</ele>
        <time>2024-11-05T10:05:31.354Z</time>
      </trkpt>
      <trkpt lat="44.62285" lon="3.50778">
        <ele>1213.66</ele>
        <time>2024-11-05T10:05:34.206Z</time>
      </trkpt>
      <trkpt lat="44.62301" lon="3.50757">
        <ele>1213.13</ele>
        <time>2024-11-05T10:05:37.062Z</time>
      </trkpt>
      <trkpt lat="44.62318" lon="3.50736">
        <ele>1212.62</ele>
        <time>2024-11-05T10:05:39.922Z</time>
      </trkpt>
      <trkpt lat="44.62341" lon="3.50713">
        <ele>1212.14</ele>
        <time>2024-11-05T10:05:42.786Z</time>
      </trkpt>
      <trkpt lat="44.62363" lon="3.50689">
        <ele>1211.65</ele>
        <time>2024-11-05T10:05:45.655Z</time>
      </trkpt>
      <trkpt lat="44.62375" lon="3.50674">
        <ele>1211.19</ele>
        <time>2024-11-05T10:05:48.526Z</time>
      </trkpt>
      <trkpt lat="44.6239" lon="3.50649">
        <ele>1210.74</ele>
        <time>2024-11-05T10:05:51.401Z</time>
      </trkpt>
      <trkpt lat="44.62405" lon="3.50623">
        <ele>1210.36</ele>
        <time>2024-11-05T10:05:54.280Z</time>
      </trkpt>
      <trkpt lat="44.6242" lon="3.50598">
        <ele>1210.07</ele>
        <time>2024-11-05T10:05:57.163Z</time>
      </trkpt>
      <trkpt lat="44.6242" lon="3.50598">
        <ele>1209.79</ele>
        <time>2024-11-05T10:06:00.046Z</time>
      </trkpt>
      <trkpt lat="44.62442" lon="3.50566">
        <ele>1209.57</ele>
        <time>2024-11-05T10:06:02.934Z</time>
      </trkpt>
      <trkpt lat="44.6246" lon="3.50534">
        <ele>1209.38</ele>
        <time>2024-11-05T10:06:05.826Z</time>
      </trkpt>
      <trkpt lat="44.62478" lon="3.50501">
        <ele>1209.19</ele>
        <time>2024-11-05T10:06:08.723Z</time>
      </trkpt>
      <trkpt lat="44.62496" lon="3.50469">
        <ele>1208.99</ele>
        <time>2024-11-05T10:06:11.625Z</time>
      </trkpt>
      <trkpt lat="44.62513" lon="3.50437">
        <ele>1208.85</ele>
        <time>2024-11-05T10:06:14.531Z</time>
      </trkpt>
      <trkpt lat="44.62529" lon="3.50414">
        <ele>1208.71</ele>
        <time>2024-11-05T10:06:17.441Z</time>
      </trkpt>
      <trkpt lat="44.62545" lon="3.50391">
        <ele>1208.59</ele>
        <time>2024-11-05T10:06:20.354Z</time>
      </trkpt>
      <trkpt lat="44.62562" lon="3.50366">
        <ele>1208.48</ele>
        <time>2024-11-05T10:06:23.271Z</time>
      </trkpt>
      <trkpt lat="44.62574" lon="3.50352">
        <ele>1208.44</ele>
        <time>2024-11-05T10:06:26.191Z</time>
      </trkpt>
      <trkpt lat="44.62586" lon="3.50337">
        <ele>1208.41</ele>
        <time>2024-11-05T10:06:29.114Z</time>
      </trkpt>
      <trkpt lat="44.62607" lon="3.50317">
        <ele>1208.43</ele>
        <time>2024-11-05T10:06:32.041Z</time>
      </trkpt>
      <trkpt lat="44.62627" lon="3.50298">
        <ele>1208.44</ele>
        <time>2024-11-05T10:06:34.972Z</time>
      </trkpt>
      <trkpt lat="44.62641" lon="3.50281">
        <ele>1208.45</ele>
        <time>2024-11-05T10:06:37.905Z</time>
      </trkpt>
      <trkpt lat="44.62655" lon="3.50264">
        <ele>1208.5</ele>
        <time>2024-11-05T10:06:40.841Z</time>
      </trkpt>
      <trkpt lat="44.62676" lon="3.50238">
        <ele>1208.57</ele>
        <time>2024-11-05T10:06:43.782Z</time>
      </trkpt>
      <trkpt lat="44.62688" lon="3.50212">
        <ele>1208.65</ele>
        <time>2024-11-05T10:06:46.726Z</time>
      </trkpt>
      <trkpt lat="44.627" lon="3.50186">
        <ele>1208.71</ele>
        <time>2024-11-05T10:06:49.674Z</time>
      </trkpt>
      <trkpt lat="44.62712" lon="3.5016">
        <ele>1208.85</ele>
        <time>2024-11-05T10:06:52.625Z</time>
      </trkpt>
      <trkpt lat="44.62723" lon="3.50139">
        <ele>1209</ele>
        <time>2024-11-05T10:06:55.579Z</time>
      </trkpt>
      <trkpt lat="44.62738" lon="3.50116">
        <ele>1209.2</ele>
        <time>2024-11-05T10:06:58.537Z</time>
      </trkpt>
      <trkpt lat="44.62754" lon="3.50093">
        <ele>1209.38</ele>
        <time>2024-11-05T10:07:01.499Z</time>
      </trkpt>
      <trkpt lat="44.6277" lon="3.5007">
        <ele>1209.55</ele>
        <time>2024-11-05T10:07:04.464Z</time>
      </trkpt>
      <trkpt lat="44.62786" lon="3.5005">
        <ele>1209.67</ele>
        <time>2024-11-05T10:07:07.433Z</time>
      </trkpt>
      <trkpt lat="44.62802" lon="3.5003">
        <ele>1209.83</ele>
        <time>2024-11-05T10:07:10.405Z</time>
      </trkpt>
      <trkpt lat="44.62816" lon="3.50006">
        <ele>1209.95</ele>
        <time>2024-11-05T10:07:13.381Z</time>
      </trkpt>
      <trkpt lat="44.6283" lon="3.49982">
        <ele>1210.09</ele>
        <time>2024-11-05T10:07:16.360Z</time>
      </trkpt>
      <trkpt lat="44.62844" lon="3.49959">
        <ele>1210.19</ele>
        <time>2024-11-05T10:07:19.343Z</time>
      </trkpt>
      <trkpt lat="44.62858" lon="3.49942">
        <ele>1210.3</ele>
        <time>2024-11-05T10:07:22.329Z</time>
      </trkpt>
      <trkpt lat="44.6288" lon="3.49921">
        <ele>1210.4</ele>
        <time>2024-11-05T10:07:25.319Z</time>
      </trkpt>
      <trkpt lat="44.62902" lon="3.499">
        <ele>1210.49</ele>
        <time>2024-11-05T10:07:28.313Z</time>
      </trkpt>
      <trkpt lat="44.62924" lon="3.49878">
        <ele>1210.58</ele>
        <time>2024-11-05T10:07:31.312Z</time>
      </trkpt>
      <trkpt lat="44.62951" lon="3.49856">
        <ele>1210.64</ele>
        <time>2024-11-05T10:07:34.316Z</time>
      </trkpt>
      <trkpt lat="44.62977" lon="3.49833">
        <ele>1210.69</ele>
        <time>2024-11-05T10:07:37.324Z</time>
      </trkpt>
      <trkpt lat="44.62989" lon="3.49818">
        <ele>1210.7</ele>
        <time>2024-11-05T10:07:40.335Z</time>
      </trkpt>
      <trkpt lat="44.63001" lon="3.49803">
        <ele>1210.63</ele>
        <time>2024-11-05T10:07:43.349Z</time>
      </trkpt>
      <trkpt lat="44.6301" lon="3.49782">
        <ele>1210.57</ele>
        <time>2024-11-05T10:07:46.365Z</time>
      </trkpt>
      <trkpt lat="44.63019" lon="3.49761">
        <ele>1210.47</ele>
        <time>2024-11-05T10:07:49.384Z</time>
      </trkpt>
      <trkpt lat="44.63027" lon="3.49738">
        <ele>1210.37</ele>
        <time>2024-11-05T10:07:52.406Z</time>
      </trkpt>
      <trkpt lat="44.63035" lon="3.49714">
        <ele>1210.27</ele>
        <time>2024-11-05T10:07:55.431Z</time>
      </trkpt>
      <trkpt lat="44.63044" lon="3.4968">
        <ele>1210.13</ele>
        <time>2024-11-05T10:07:58.460Z</time>
      </trkpt>
      <trkpt lat="44.63053" lon="3.49645">
        <ele>1209.93</ele>
        <time>2024-11-05T10:08:01.494Z</time>
      </trkpt>
      <trkpt lat="44.63066" lon="3.49617">
        <ele>1209.72</ele>
        <time>2024-11-05T10:08:04.531Z</time>
      </trkpt>
      <trkpt lat="44.6308" lon="3.49589">
        <ele>1209.46</ele>
        <time>2024-11-05T10:08:07.572Z</time>
      </trkpt>
      <trkpt lat="44.63093" lon="3.49562">
        <ele>1209.16</ele>
        <time>2024-11-05T10:08:10.617Z</time>
      </trkpt>
      <trkpt lat="44.631" lon="3.49539">
        <ele>1208.87</ele>
        <time>2024-11-05T10:08:13.665Z</time>
      </trkpt>
      <trkpt lat="44.63107" lon="3.49515">
        <ele>1208.58</ele>
        <time>2024-11-05T10:08:16.716Z</time>
      </trkpt>
      <trkpt lat="44.63109" lon="3.49489">
        <ele>1208.28</ele>
        <time>2024-11-05T10:08:19.770Z</time>
      </trkpt>
      <trkpt lat="44.63105" lon="3.49459">
        <ele>1207.99</ele>
        <time>2024-11-05T10:08:22.827Z</time>
      </trkpt>
      <trkpt lat="44.63101" lon="3.49441">
        <ele>1207.66</ele>
        <time>2024-11-05T10:08:25.886Z</time>
      </trkpt>
      <trkpt lat="44.63106" lon="3.4943">
        <ele>1207.32</ele>
        <time>2024-11-05T10:08:28.947Z</time>
      </trkpt>
      <trkpt lat="44.63106" lon="3.49399">
        <ele>1206.95</ele>
        <time>2024-11-05T10:08:32.011Z</time>
      </trkpt>
      <trkpt lat="44.63106" lon="3.49368">
        <ele>1206.57</ele>
        <time>2024-11-05T10:08:35.079Z</time>
      </trkpt>
      <trkpt lat="44.63107" lon="3.49337">
        <ele>1206.17</ele>
        <time>2024-11-05T10:08:38.150Z</time>
      </trkpt>
      <trkpt lat="44.63112" lon="3.49297">
        <ele>1205.7</ele>
        <time>2024-11-05T10:08:41.226Z</time>
      </trkpt>
      <trkpt lat="44.63116" lon="3.49279">
        <ele>1205.21</ele>
        <time>2024-11-05T10:08:44.304Z</time>
      </trkpt>
      <trkpt lat="44.63129" lon="3.49249">
        <ele>1204.68</ele>
        <time>2024-11-05T10:08:47.386Z</time>
      </trkpt>
      <trkpt lat="44.63151" lon="3.49224">
        <ele>1204.15</ele>
        <time>2024-11-05T10:08:50.473Z</time>
      </trkpt>
      <trkpt lat="44.63164" lon="3.49213">
        <ele>1203.59</ele>
        <time>2024-11-05T10:08:53.562Z</time>
      </trkpt>
      <trkpt lat="44.63184" lon="3.49202">
        <ele>1202.98</ele>
        <time>2024-11-05T10:08:56.655Z</time>
      </trkpt>
      <trkpt lat="44.63204" lon="3.49191">
        <ele>1202.35</ele>
        <time>2024-11-05T10:08:59.751Z</time>
      </trkpt>
      <trkpt lat="44.63224" lon="3.49181">
        <ele>1201.67</ele>
        <time>2024-11-05T10:09:02.850Z</time>
      </trkpt>
      <trkpt lat="44.63239" lon="3.49176">
        <ele>1201.03</ele>
        <time>2024-11-05T10:09:05.952Z</time>
      </trkpt>
      <trkpt lat="44.63252" lon="3.49168">
        <ele>1200.35</ele>
        <time>2024-11-05T10:09:09.056Z</time>
      </trkpt>
      <trkpt lat="44.63267" lon="3.49146">
        <ele>1199.62</ele>
        <time>2024-11-05T10:09:12.164Z</time>
      </trkpt>
      <trkpt lat="44.63271" lon="3.49127">
        <ele>1198.86</ele>
        <time>2024-11-05T10:09:15.274Z</time>
      </trkpt>
      <trkpt lat="44.63271" lon="3.49112">
        <ele>1198.11</ele>
        <time>2024-11-05T10:09:18.386Z</time>
      </trkpt>
      <trkpt lat="44.63269" lon="3.49097">
        <ele>1197.33</ele>
        <time>2024-11-05T10:09:21.499Z</time>
      </trkpt>
      <trkpt lat="44.63262" lon="3.49069">
        <ele>1196.5</ele>
        <time>2024-11-05T10:09:24.616Z</time>
      </trkpt>
      <trkpt lat="44.6325" lon="3.49039">
        <ele>1195.65</ele>
        <time>2024-11-05T10:09:27.737Z</time>
      </trkpt>
      <trkpt lat="44.63238" lon="3.49009">
        <ele>1194.81</ele>
        <time>2024-11-05T10:09:30.862Z</time>
      </trkpt>
      <trkpt lat="44.63226" lon="3.48979">
        <ele>1193.95</ele>
        <time>2024-11-05T10:09:33.991Z</time>
      </trkpt>
      <trkpt lat="44.63219" lon="3.4896">
        <ele>1193.07</ele>
        <time>2024-11-05T10:09:37.122Z</time>
      </trkpt>
      <trkpt lat="44.63215" lon="3.48936">
        <ele>1192.19</ele>
        <time>2024-11-05T10:09:40.256Z</time>
      </trkpt>
      <trkpt lat="44.63213" lon="3.48915">
        <ele>1191.32</ele>
        <time>2024-11-05T10:09:43.392Z</time>
      </trkpt>
      <trkpt lat="44.63213" lon="3.48893">
        <ele>1190.43</ele>
        <time>2024-11-05T10:09:46.531Z</time>
      </trkpt>
      <trkpt lat="44.63217" lon="3.48872">
        <ele>1189.53</ele>
        <time>2024-11-05T10:09:49.672Z</time>
      </trkpt>
      <trkpt lat="44.6323" lon="3.48832">
        <ele>1188.57</ele>
        <time>2024-11-05T10:09:52.818Z</time>
      </trkpt>
      <trkpt lat="44.63243" lon="3.48792">
        <ele>1187.63</ele>
        <time>2024-11-05T10:09:55.969Z</time>
      </trkpt>
      <trkpt lat="44.63247" lon="3.4877">
        <ele>1186.7</ele>
        <time>2024-11-05T10:09:59.123Z</time>
      </trkpt>
      <trkpt lat="44.63252" lon="3.48747">
        <ele>1185.8</ele>
        <time>2024-11-05T10:10:02.280Z</time>
      </trkpt>
      <trkpt lat="44.63252" lon="3.48721">
        <ele>1184.89</ele>
        <time>2024-11-05T10:10:05.439Z</time>
      </trkpt>
      <trkpt lat="44.63252" lon="3.48696">
        <ele>1183.94</ele>
        <time>2024-11-05T10:10:08.601Z</time>
      </trkpt>
      <trkpt lat="44.63255" lon="3.48658">
        <ele>1183</ele>
        <time>2024-11-05T10:10:11.768Z</time>
      </trkpt>
      <trkpt lat="44.63257" lon="3.48642">
        <ele>1182.04</ele>
        <time>2024-11-05T10:10:14.937Z</time>
      </trkpt>
      <trkpt lat="44.6327" lon="3.48617">
        <ele>1181.06</ele>
        <time>2024-11-05T10:10:18.109Z</time>
      </trkpt>
      <trkpt lat="44.63285" lon="3.48599">
        <ele>1180.09</ele>
        <time>2024-11-05T10:10:21.284Z</time>
      </trkpt>
      <trkpt lat="44.633" lon="3.4858">
        <ele>1179.1</ele>
        <time>2024-11-05T10:10:24.463Z</time>
      </trkpt>
      <trkpt lat="44.63315" lon="3.48557">
        <ele>1178.13</ele>
        <time>2024-11-05T10:10:27.645Z</time>
      </trkpt>
      <trkpt lat="44.63326" lon="3.48528">
        <ele>1177.16</ele>
        <time>2024-11-05T10:10:30.831Z</time>
      </trkpt>
      <trkpt lat="44.63336" lon="3.48499">
        <ele>1176.18</ele>
        <time>2024-11-05T10:10:34.021Z</time>
      </trkpt>
      <trkpt lat="44.63347" lon="3.48469">
        <ele>1175.23</ele>
        <time>2024-11-05T10:10:37.214Z</time>
      </trkpt>
      <trkpt lat="44.63347" lon="3.48461">
        <ele>1174.26</ele>
        <time>2024-11-05T10:10:40.408Z</time>
      </trkpt>
      <trkpt lat="44.63346" lon="3.48437">
        <ele>1173.31</ele>
        <time>2024-11-05T10:10:43.605Z</time>
      </trkpt>
      <trkpt lat="44.63337" lon="3.4841">
        <ele>1172.33</ele>
        <time>2024-11-05T10:10:46.805Z</time>
      </trkpt>
      <trkpt lat="44.63331" lon="3.48398">
        <ele>1171.34</ele>
        <time>2024-11-05T10:10:50.007Z</time>
      </trkpt>
      <trkpt lat="44.63318" lon="3.48384">
        <ele>1170.32</ele>
        <time>2024-11-05T10:10:53.212Z</time>
      </trkpt>
      <trkpt lat="44.63305" lon="3.4837">
        <ele>1169.31</ele>
        <time>2024-11-05T10:10:56.419Z</time>
      </trkpt>
      <trkpt lat="44.6329" lon="3.48359">
        <ele>1168.3</ele>
        <time>2024-11-05T10:10:59.629Z</time>
      </trkpt>
      <trkpt lat="44.63266" lon="3.48348">
        <ele>1167.25</ele>
        <time>2024-11-05T10:11:02.843Z</time>
      </trkpt>
      <trkpt lat="44.63241" lon="3.48337">
        <ele>1166.19</ele>
        <time>2024-11-05T10:11:06.061Z</time>
      </trkpt>
      <trkpt lat="44.63228" lon="3.48327">
        <ele>1165.15</ele>
        <time>2024-11-05T10:11:09.282Z</time>
      </trkpt>
      <trkpt lat="44.63214" lon="3.48312">
        <ele>1164.08</ele>
        <time>2024-11-05T10:11:12.506Z</time>
      </trkpt>
      <trkpt lat="44.632" lon="3.48297">
        <ele>1163</ele>
        <time>2024-11-05T10:11:15.732Z</time>
      </trkpt>
      <trkpt lat="44.63192" lon="3.48284">
        <ele>1161.92</ele>
        <time>2024-11-05T10:11:18.960Z</time>
      </trkpt>
      <trkpt lat="44.63187" lon="3.48273">
        <ele>1160.85</ele>
        <time>2024-11-05T10:11:22.190Z</time>
      </trkpt>
      <trkpt lat="44.63185" lon="3.4826">
        <ele>1159.78</ele>
        <time>2024-11-05T10:11:25.421Z</time>
      </trkpt>
      <trkpt lat="44.63185" lon="3.48247">
        <ele>1158.71</ele>
        <time>2024-11-05T10:11:28.654Z</time>
      </trkpt>
      <trkpt lat="44.63187" lon="3.48232">
        <ele>1157.63</ele>
        <time>2024-11-05T10:11:31.889Z</time>
      </trkpt>
      <trkpt lat="44.63194" lon="3.48211">
        <ele>1156.53</ele>
        <time>2024-11-05T10:11:35.126Z</time>
      </trkpt>
      <trkpt lat="44.63197" lon="3.48189">
        <ele>1155.42</ele>
        <time>2024-11-05T10:11:38.366Z</time>
      </trkpt>
      <trkpt lat="44.63201" lon="3.48168">
        <ele>1154.31</ele>
        <time>2024-11-05T10:11:41.608Z</time>
      </trkpt>
      <trkpt lat="44.63201" lon="3.48141">
        <ele>1153.19</ele>
        <time>2024-11-05T10:11:44.853Z</time>
      </trkpt>
      <trkpt lat="44.63201" lon="3.48113">
        <ele>1152.07</ele>
        <time>2024-11-05T10:11:48.102Z</time>
      </trkpt>
      <trkpt lat="44.63201" lon="3.48104">
        <ele>1150.98</ele>
        <time>2024-11-05T10:11:51.352Z</time>
      </trkpt>
      <trkpt lat="44.63201" lon="3.4808">
        <ele>1149.89</ele>
        <time>2024-11-05T10:11:54.604Z</time>
      </trkpt>
      <trkpt lat="44.632" lon="3.48056">
        <ele>1148.76</ele>
        <time>2024-11-05T10:11:57.859Z</time>
      </trkpt>
      <trkpt lat="44.632" lon="3.48031">
        <ele>1147.6</ele>
        <time>2024-11-05T10:12:01.117Z</time>
      </trkpt>
      <trkpt lat="44.63204" lon="3.48003">
        <ele>1146.45</ele>
        <time>2024-11-05T10:12:04.378Z</time>
      </trkpt>
      <trkpt lat="44.63209" lon="3.4799">
        <ele>1145.33</ele>
        <time>2024-11-05T10:12:07.641Z</time>
      </trkpt>
      <trkpt lat="44.63224" lon="3.47968">
        <ele>1144.18</ele>
        <time>2024-11-05T10:12:10.907Z</time>
      </trkpt>
      <trkpt lat="44.63237" lon="3.4796">
        <ele>1143.08</ele>
        <time>2024-11-05T10:12:14.176Z</time>
      </trkpt>
      <trkpt lat="44.63252" lon="3.47953">
        <ele>1141.96</ele>
        <time>2024-11-05T10:12:17.447Z</time>
      </trkpt>
      <trkpt lat="44.63275" lon="3.47946">
        <ele>1140.86</ele>
        <time>2024-11-05T10:12:20.722Z</time>
      </trkpt>
      <trkpt lat="44.63298" lon="3.47938">
        <ele>1139.76</ele>
        <time>2024-11-05T10:12:24.001Z</time>
      </trkpt>
      <trkpt lat="44.63321" lon="3.4793">
        <ele>1138.65</ele>
        <time>2024-11-05T10:12:27.284Z</time>
      </trkpt>
      <trkpt lat="44.6333" lon="3.47927">
        <ele>1137.54</ele>
        <time>2024-11-05T10:12:30.568Z</time>
      </trkpt>
      <trkpt lat="44.63344" lon="3.47923">
        <ele>1136.42</ele>
        <time>2024-11-05T10:12:33.854Z</time>
      </trkpt>
      <trkpt lat="44.63374" lon="3.4791">
        <ele>1135.29</ele>
        <time>2024-11-05T10:12:37.145Z</time>
      </trkpt>
      <trkpt lat="44.63379" lon="3.47905">
        <ele>1134.22</ele>
        <time>2024-11-05T10:12:40.437Z</time>
      </trkpt>
      <trkpt lat="44.63383" lon="3.47898">
        <ele>1133.15</ele>
        <time>2024-11-05T10:12:43.730Z</time>
      </trkpt>
      <trkpt lat="44.63386" lon="3.47875">
        <ele>1132.08</ele>
        <time>2024-11-05T10:12:47.026Z</time>
      </trkpt>
      <trkpt lat="44.63387" lon="3.47865">
        <ele>1131.05</ele>
        <time>2024-11-05T10:12:50.323Z</time>
      </trkpt>
      <trkpt lat="44.6339" lon="3.47858">
        <ele>1130.04</ele>
        <time>2024-11-05T10:12:53.621Z</time>
      </trkpt>
      <trkpt lat="44.63416" lon="3.47843">
        <ele>1129.05</ele>
        <time>2024-11-05T10:12:56.924Z</time>
      </trkpt>
      <trkpt lat="44.6343" lon="3.47826">
        <ele>1128.09</ele>
        <time>2024-11-05T10:13:00.230Z</time>
      </trkpt>
      <trkpt lat="44.63437" lon="3.47813">
        <ele>1127.16</ele>
        <time>2024-11-05T10:13:03.537Z</time>
      </trkpt>
      <trkpt lat="44.63442" lon="3.47805">
        <ele>1126.23</ele>
        <time>2024-11-05T10:13:06.846Z</time>
      </trkpt>
      <trkpt lat="44.63452" lon="3.47773">
        <ele>1125.32</ele>
        <time>2024-11-05T10:13:10.159Z</time>
      </trkpt>
      <trkpt lat="44.6346" lon="3.47757">
        <ele>1124.44</ele>
        <time>2024-11-05T10:13:13.474Z</time>
      </trkpt>
      <trkpt lat="44.63472" lon="3.4774">
        <ele>1123.6</ele>
        <time>2024-11-05T10:13:16.791Z</time>
      </trkpt>
      <trkpt lat="44.63484" lon="3.47712">
        <ele>1122.76</ele>
        <time>2024-11-05T10:13:20.112Z</time>
      </trkpt>
      <trkpt lat="44.63497" lon="3.4768">
        <ele>1121.92</ele>
        <time>2024-11-05T10:13:23.437Z</time>
      </trkpt>
      <trkpt lat="44.63512" lon="3.47659">
        <ele>1121.16</ele>
        <time>2024-11-05T10:13:26.766Z</time>
      </trkpt>
      <trkpt lat="44.63511" lon="3.4765">
        <ele>1120.44</ele>
        <time>2024-11-05T10:13:30.096Z</time>
      </trkpt>
      <trkpt lat="44.63518" lon="3.47632">
        <ele>1119.74</ele>
        <time>2024-11-05T10:13:33.428Z</time>
      </trkpt>
      <trkpt lat="44.6353" lon="3.47612">
        <ele>1119.11</ele>
        <time>2024-11-05T10:13:36.763Z</time>
      </trkpt>
      <trkpt lat="44.63541" lon="3.47593">
        <ele>1118.5</ele>
        <time>2024-11-05T10:13:40.101Z</time>
      </trkpt>
      <trkpt lat="44.63558" lon="3.47571">
        <ele>1117.89</ele>
        <time>2024-11-05T10:13:43.443Z</time>
      </trkpt>
      <trkpt lat="44.63578" lon="3.47553">
        <ele>1117.36</ele>
        <time>2024-11-05T10:13:46.789Z</time>
      </trkpt>
      <trkpt lat="44.63601" lon="3.47535">
        <ele>1116.91</ele>
        <time>2024-11-05T10:13:50.139Z</time>
      </trkpt>
      <trkpt lat="44.63621" lon="3.47529">
        <ele>1116.52</ele>
        <time>2024-11-05T10:13:53.492Z</time>
      </trkpt>
      <trkpt lat="44.63648" lon="3.47529">
        <ele>1116.18</ele>
        <time>2024-11-05T10:13:56.849Z</time>
      </trkpt>
      <trkpt lat="44.6365" lon="3.47525">
        <ele>1115.95</ele>
        <time>2024-11-05T10:14:00.207Z</time>
      </trkpt>
      <trkpt lat="44.6367" lon="3.47538">
        <ele>1115.81</ele>
        <time>2024-11-05T10:14:03.568Z</time>
      </trkpt>
      <trkpt lat="44.63691" lon="3.4755">
        <ele>1115.66</ele>
        <time>2024-11-05T10:14:06.933Z</time>
      </trkpt>
      <trkpt lat="44.63712" lon="3.47563">
        <ele>1115.57</ele>
        <time>2024-11-05T10:14:10.302Z</time>
      </trkpt>
      <trkpt lat="44.63732" lon="3.47568">
        <ele>1115.52</ele>
        <time>2024-11-05T10:14:13.674Z</time>
      </trkpt>
      <trkpt lat="44.63761" lon="3.47568">
        <ele>1115.58</ele>
        <time>2024-11-05T10:14:17.051Z</time>
      </trkpt>
      <trkpt lat="44.63779" lon="3.47564">
        <ele>1115.78</ele>
        <time>2024-11-05T10:14:20.431Z</time>
      </trkpt>
      <trkpt lat="44.63796" lon="3.47557">
        <ele>1116.04</ele>
        <time>2024-11-05T10:14:23.813Z</time>
      </trkpt>
      <trkpt lat="44.63824" lon="3.4754">
        <ele>1116.39</ele>
        <time>2024-11-05T10:14:27.200Z</time>
      </trkpt>
      <trkpt lat="44.63852" lon="3.47523">
        <ele>1116.79</ele>
        <time>2024-11-05T10:14:30.592Z</time>
      </trkpt>
      <trkpt lat="44.6388" lon="3.47506">
        <ele>1117.26</ele>
        <time>2024-11-05T10:14:33.989Z</time>
      </trkpt>
      <trkpt lat="44.63909" lon="3.47489">
        <ele>1117.83</ele>
        <time>2024-11-05T10:14:37.391Z</time>
      </trkpt>
      <trkpt lat="44.63937" lon="3.47472">
        <ele>1118.46</ele>
        <time>2024-11-05T10:14:40.798Z</time>
      </trkpt>
      <trkpt lat="44.63965" lon="3.47455">
        <ele>1119.16</ele>
        <time>2024-11-05T10:14:44.210Z</time>
      </trkpt>
      <trkpt lat="44.63994" lon="3.47437">
        <ele>1119.89</ele>
        <time>2024-11-05T10:14:47.627Z</time>
      </trkpt>
      <trkpt lat="44.64022" lon="3.4742">
        <ele>1120.63</ele>
        <time>2024-11-05T10:14:51.049Z</time>
      </trkpt>
      <trkpt lat="44.64049" lon="3.47403">
        <ele>1121.38</ele>
        <time>2024-11-05T10:14:54.475Z</time>
      </trkpt>
      <trkpt lat="44.64075" lon="3.47386">
        <ele>1122.1</ele>
        <time>2024-11-05T10:14:57.906Z</time>
      </trkpt>
      <trkpt lat="44.64102" lon="3.47369">
        <ele>1122.81</ele>
        <time>2024-11-05T10:15:01.342Z</time>
      </trkpt>
      <trkpt lat="44.64128" lon="3.47352">
        <ele>1123.48</ele>
        <time>2024-11-05T10:15:04.782Z</time>
      </trkpt>
      <trkpt lat="44.64155" lon="3.47335">
        <ele>1124.17</ele>
        <time>2024-11-05T10:15:08.227Z</time>
      </trkpt>
      <trkpt lat="44.64155" lon="3.47335">
        <ele>1124.86</ele>
        <time>2024-11-05T10:15:11.672Z</time>
      </trkpt>
      <trkpt lat="44.64172" lon="3.47323">
        <ele>1125.57</ele>
        <time>2024-11-05T10:15:15.120Z</time>
      </trkpt>
      <trkpt lat="44.64189" lon="3.47311">
        <ele>1126.3</ele>
        <time>2024-11-05T10:15:18.571Z</time>
      </trkpt>
      <trkpt lat="44.6421" lon="3.47291">
        <ele>1126.99</ele>
        <time>2024-11-05T10:15:22.026Z</time>
      </trkpt>
      <trkpt lat="44.64231" lon="3.4727">
        <ele>1127.66</ele>
        <time>2024-11-05T10:15:25.485Z</time>
      </trkpt>
      <trkpt lat="44.64252" lon="3.4725">
        <ele>1128.31</ele>
        <time>2024-11-05T10:15:28.948Z</time>
      </trkpt>
      <trkpt lat="44.64273" lon="3.4723">
        <ele>1128.9</ele>
        <time>2024-11-05T10:15:32.416Z</time>
      </trkpt>
      <trkpt lat="44.64299" lon="3.47207">
        <ele>1129.43</ele>
        <time>2024-11-05T10:15:35.888Z</time>
      </trkpt>
      <trkpt lat="44.64325" lon="3.47183">
        <ele>1129.98</ele>
        <time>2024-11-05T10:15:39.365Z</time>
      </trkpt>
      <trkpt lat="44.64351" lon="3.47159">
        <ele>1130.58</ele>
        <time>2024-11-05T10:15:42.847Z</time>
      </trkpt>
      <trkpt lat="44.64372" lon="3.47144">
        <ele>1131.12</ele>
        <time>2024-11-05T10:15:46.333Z</time>
      </trkpt>
      <trkpt lat="44.64395" lon="3.47134">
        <ele>1131.61</ele>
        <time>2024-11-05T10:15:49.823Z</time>
      </trkpt>
      <trkpt lat="44.64418" lon="3.47123">
        <ele>1132.01</ele>
        <time>2024-11-05T10:15:53.317Z</time>
      </trkpt>
      <trkpt lat="44.64444" lon="3.47113">
        <ele>1132.39</ele>
        <time>2024-11-05T10:15:56.815Z</time>
      </trkpt>
      <trkpt lat="44.64471" lon="3.47103">
        <ele>1132.79</ele>
        <time>2024-11-05T10:16:00.318Z</time>
      </trkpt>
      <trkpt lat="44.64497" lon="3.47093">
        <ele>1133.17</ele>
        <time>2024-11-05T10:16:03.825Z</time>
      </trkpt>
      <trkpt lat="44.64524" lon="3.47083">
        <ele>1133.58</ele>
        <time>2024-11-05T10:16:07.336Z</time>
      </trkpt>
      <trkpt lat="44.6455" lon="3.47073">
        <ele>1133.93</ele>
        <time>2024-11-05T10:16:10.852Z</time>
      </trkpt>
      <trkpt lat="44.64577" lon="3.47063">
        <ele>1134.25</ele>
        <time>2024-11-05T10:16:14.372Z</time>
      </trkpt>
      <trkpt lat="44.64603" lon="3.47053">
        <ele>1134.52</ele>
        <time>2024-11-05T10:16:17.897Z</time>
      </trkpt>
      <trkpt lat="44.64625" lon="3.47046">
        <ele>1134.77</ele>
        <time>2024-11-05T10:16:21.425Z</time>
      </trkpt>
      <trkpt lat="44.64647" lon="3.47039">
        <ele>1134.99</ele>
        <time>2024-11-05T10:16:24.957Z</time>
      </trkpt>
      <trkpt lat="44.64677" lon="3.47026">
        <ele>1135.16</ele>
        <time>2024-11-05T10:16:28.494Z</time>
      </trkpt>
      <trkpt lat="44.64706" lon="3.47013">
        <ele>1135.26</ele>
        <time>2024-11-05T10:16:32.036Z</time>
      </trkpt>
      <trkpt lat="44.64735" lon="3.47">
        <ele>1135.36</ele>
        <time>2024-11-05T10:16:35.583Z</time>
      </trkpt>
      <trkpt lat="44.64764" lon="3.46987">
        <ele>1135.45</ele>
        <time>2024-11-05T10:16:39.135Z</time>
      </trkpt>
      <trkpt lat="44.64792" lon="3.46971">
        <ele>1135.46</ele>
        <time>2024-11-05T10:16:42.691Z</time>
      </trkpt>
      <trkpt lat="44.64809" lon="3.46957">
        <ele>1135.4</ele>
        <time>2024-11-05T10:16:46.250Z</time>
      </trkpt>
      <trkpt lat="44.64826" lon="3.46943">
        <ele>1135.3</ele>
        <time>2024-11-05T10:16:49.813Z</time>
      </trkpt>
      <trkpt lat="44.64826" lon="3.46943">
        <ele>1135.24</ele>
        <time>2024-11-05T10:16:53.376Z</time>
      </trkpt>
      <trkpt lat="44.64826" lon="3.46943">
        <ele>1135.14</ele>
        <time>2024-11-05T10:16:56.939Z</time>
      </trkpt>
      <trkpt lat="44.64826" lon="3.46943">
        <ele>1135.01</ele>
        <time>2024-11-05T10:17:00.502Z</time>
      </trkpt>
      <trkpt lat="44.64826" lon="3.46943">
        <ele>1134.85</ele>
        <time>2024-11-05T10:17:04.065Z</time>
      </trkpt>
      <trkpt lat="44.64826" lon="3.46943">
        <ele>1134.65</ele>
        <time>2024-11-05T10:17:07.628Z</time>
      </trkpt>
      <trkpt lat="44.64834" lon="3.46933">
        <ele>1134.39</ele>
        <time>2024-11-05T10:17:11.192Z</time>
      </trkpt>
      <trkpt lat="44.64844" lon="3.4692">
        <ele>1134.1</ele>
        <time>2024-11-05T10:17:14.759Z</time>
      </trkpt>
      <trkpt lat="44.64871" lon="3.46887">
        <ele>1133.86</ele>
        <time>2024-11-05T10:17:18.331Z</time>
      </trkpt>
      <trkpt lat="44.64878" lon="3.46878">
        <ele>1133.54</ele>
        <time>2024-11-05T10:17:21.905Z</time>
      </trkpt>
      <trkpt lat="44.64888" lon="3.46866">
        <ele>1133.19</ele>
        <time>2024-11-05T10:17:25.481Z</time>
      </trkpt>
      <trkpt lat="44.64894" lon="3.46857">
        <ele>1132.8</ele>
        <time>2024-11-05T10:17:29.058Z</time>
      </trkpt>
      <trkpt lat="44.64898" lon="3.46853">
        <ele>1132.36</ele>
        <time>2024-11-05T10:17:32.636Z</time>
      </trkpt>
      <trkpt lat="44.64904" lon="3.46845">
        <ele>1131.9</ele>
        <time>2024-11-05T10:17:36.215Z</time>
      </trkpt>
      <trkpt lat="44.64921" lon="3.46824">
        <ele>1131.37</ele>
        <time>2024-11-05T10:17:39.798Z</time>
      </trkpt>
      <trkpt lat="44.64928" lon="3.46815">
        <ele>1130.8</ele>
        <time>2024-11-05T10:17:43.382Z</time>
      </trkpt>
      <trkpt lat="44.64931" lon="3.46811">
        <ele>1130.2</ele>
        <time>2024-11-05T10:17:46.967Z</time>
      </trkpt>
      <trkpt lat="44.64941" lon="3.46798">
        <ele>1129.57</ele>
        <time>2024-11-05T10:17:50.554Z</time>
      </trkpt>
      <trkpt lat="44.64948" lon="3.4679">
        <ele>1128.91</ele>
        <time>2024-11-05T10:17:54.143Z</time>
      </trkpt>
      <trkpt lat="44.64955" lon="3.46782">
        <ele>1128.2</ele>
        <time>2024-11-05T10:17:57.733Z</time>
      </trkpt>
      <trkpt lat="44.64961" lon="3.46773">
        <ele>1127.46</ele>
        <time>2024-11-05T10:18:01.325Z</time>
      </trkpt>
      <trkpt lat="44.64971" lon="3.46761">
        <ele>1126.7</ele>
        <time>2024-11-05T10:18:04.919Z</time>
      </trkpt>
      <trkpt lat="44.64978" lon="3.46752">
        <ele>1125.89</ele>
        <time>2024-11-05T10:18:08.514Z</time>
      </trkpt>
      <trkpt lat="44.64988" lon="3.4674">
        <ele>1125.02</ele>
        <time>2024-11-05T10:18:12.111Z</time>
      </trkpt>
      <trkpt lat="44.6499" lon="3.46737">
        <ele>1124.13</ele>
        <time>2024-11-05T10:18:15.709Z</time>
      </trkpt>
      <trkpt lat="44.64994" lon="3.46731">
        <ele>1123.22</ele>
        <time>2024-11-05T10:18:19.308Z</time>
      </trkpt>
      <trkpt lat="44.65014" lon="3.46705">
        <ele>1122.27</ele>
        <time>2024-11-05T10:18:22.911Z</time>
      </trkpt>
      <trkpt lat="44.65027" lon="3.46688">
        <ele>1121.25</ele>
        <time>2024-11-05T10:18:26.517Z</time>
      </trkpt>
      <trkpt lat="44.65033" lon="3.46679">
        <ele>1120.22</ele>
        <time>2024-11-05T10:18:30.124Z</time>
      </trkpt>
      <trkpt lat="44.65063" lon="3.4664">
        <ele>1119.01</ele>
        <time>2024-11-05T10:18:33.738Z</time>
      </trkpt>
      <trkpt lat="44.65082" lon="3.46614">
        <ele>1117.81</ele>
        <time>2024-11-05T10:18:37.356Z</time>
      </trkpt>
      <trkpt lat="44.65102" lon="3.46588">
        <ele>1116.67</ele>
        <time>2024-11-05T10:18:40.979Z</time>
      </trkpt>
      <trkpt lat="44.65118" lon="3.46567">
        <ele>1115.54</ele>
        <time>2024-11-05T10:18:44.605Z</time>
      </trkpt>
      <trkpt lat="44.65134" lon="3.46545">
        <ele>1114.43</ele>
        <time>2024-11-05T10:18:48.235Z</time>
      </trkpt>
      <trkpt lat="44.65154" lon="3.46519">
        <ele>1113.37</ele>
        <time>2024-11-05T10:18:51.869Z</time>
      </trkpt>
      <trkpt lat="44.65173" lon="3.46493">
        <ele>1112.29</ele>
        <time>2024-11-05T10:18:55.507Z</time>
      </trkpt>
      <trkpt lat="44.65183" lon="3.4648">
        <ele>1111.2</ele>
        <time>2024-11-05T10:18:59.147Z</time>
      </trkpt>
      <trkpt lat="44.65189" lon="3.46471">
        <ele>1110.06</ele>
        <time>2024-11-05T10:19:02.789Z</time>
      </trkpt>
      <trkpt lat="44.65201" lon="3.46456">
        <ele>1108.91</ele>
        <time>2024-11-05T10:19:06.433Z</time>
      </trkpt>
      <trkpt lat="44.6522" lon="3.46419">
        <ele>1107.65</ele>
        <time>2024-11-05T10:19:10.083Z</time>
      </trkpt>
      <trkpt lat="44.6522" lon="3.46418">
        <ele>1106.55</ele>
        <time>2024-11-05T10:19:13.733Z</time>
      </trkpt>
      <trkpt lat="44.65226" lon="3.46401">
        <ele>1105.42</ele>
        <time>2024-11-05T10:19:17.385Z</time>
      </trkpt>
      <trkpt lat="44.65229" lon="3.4639">
        <ele>1104.33</ele>
        <time>2024-11-05T10:19:21.038Z</time>
      </trkpt>
      <trkpt lat="44.65229" lon="3.46389">
        <ele>1103.28</ele>
        <time>2024-11-05T10:19:24.691Z</time>
      </trkpt>
      <trkpt lat="44.65233" lon="3.46358">
        <ele>1102.29</ele>
        <time>2024-11-05T10:19:28.348Z</time>
      </trkpt>
      <trkpt lat="44.65237" lon="3.46314">
        <ele>1101.25</ele>
        <time>2024-11-05T10:19:32.010Z</time>
      </trkpt>
      <trkpt lat="44.65238" lon="3.46302">
        <ele>1100.23</ele>
        <time>2024-11-05T10:19:35.673Z</time>
      </trkpt>
      <trkpt lat="44.65241" lon="3.46264">
        <ele>1099.16</ele>
        <time>2024-11-05T10:19:39.341Z</time>
      </trkpt>
      <trkpt lat="44.65241" lon="3.46258">
        <ele>1098.23</ele>
        <time>2024-11-05T10:19:43.009Z</time>
      </trkpt>
      <trkpt lat="44.65242" lon="3.46252">
        <ele>1097.32</ele>
        <time>2024-11-05T10:19:46.678Z</time>
      </trkpt>
      <trkpt lat="44.65244" lon="3.46246">
        <ele>1096.45</ele>
        <time>2024-11-05T10:19:50.348Z</time>
      </trkpt>
      <trkpt lat="44.65245" lon="3.4624">
        <ele>1095.61</ele>
        <time>2024-11-05T10:19:54.019Z</time>
      </trkpt>
      <trkpt lat="44.65247" lon="3.46234">
        <ele>1094.82</ele>
        <time>2024-11-05T10:19:57.690Z</time>
      </trkpt>
      <trkpt lat="44.65248" lon="3.46228">
        <ele>1094.07</ele>
        <time>2024-11-05T10:20:01.362Z</time>
      </trkpt>
      <trkpt lat="44.6525" lon="3.46222">
        <ele>1093.36</ele>
        <time>2024-11-05T10:20:05.035Z</time>
      </trkpt>
      <trkpt lat="44.65254" lon="3.46211">
        <ele>1092.69</ele>
        <time>2024-11-05T10:20:08.709Z</time>
      </trkpt>
      <trkpt lat="44.65261" lon="3.46189">
        <ele>1092.09</ele>
        <time>2024-11-05T10:20:12.386Z</time>
      </trkpt>
      <trkpt lat="44.65265" lon="3.46177">
        <ele>1091.55</ele>
        <time>2024-11-05T10:20:16.064Z</time>
      </trkpt>
      <trkpt lat="44.65269" lon="3.46166">
        <ele>1091.07</ele>
        <time>2024-11-05T10:20:19.744Z</time>
      </trkpt>
      <trkpt lat="44.6527" lon="3.46163">
        <ele>1090.62</ele>
        <time>2024-11-05T10:20:23.424Z</time>
      </trkpt>
      <trkpt lat="44.65278" lon="3.46138">
        <ele>1090.18</ele>
        <time>2024-11-05T10:20:27.107Z</time>
      </trkpt>
      <trkpt lat="44.65282" lon="3.46126">
        <ele>1089.81</ele>
        <time>2024-11-05T10:20:30.792Z</time>
      </trkpt>
      <trkpt lat="44.65286" lon="3.46115">
        <ele>1089.51</ele>
        <time>2024-11-05T10:20:34.478Z</time>
      </trkpt>
      <trkpt lat="44.6529" lon="3.46103">
        <ele>1089.27</ele>
        <time>2024-11-05T10:20:38.166Z</time>
      </trkpt>
      <trkpt lat="44.65293" lon="3.46092">
        <ele>1089.1</ele>
        <time>2024-11-05T10:20:41.855Z</time>
      </trkpt>
      <trkpt lat="44.653" lon="3.46071">
        <ele>1088.99</ele>
        <time>2024-11-05T10:20:45.547Z</time>
      </trkpt>
      <trkpt lat="44.65303" lon="3.46057">
        <ele>1088.93</ele>
        <time>2024-11-05T10:20:49.241Z</time>
      </trkpt>
      <trkpt lat="44.65316" lon="3.46003">
        <ele>1089.01</ele>
        <time>2024-11-05T10:20:52.941Z</time>
      </trkpt>
      <trkpt lat="44.65316" lon="3.46001">
        <ele>1089.06</ele>
        <time>2024-11-05T10:20:56.641Z</time>
      </trkpt>
      <trkpt lat="44.65321" lon="3.45985">
        <ele>1089.18</ele>
        <time>2024-11-05T10:21:00.343Z</time>
      </trkpt>
      <trkpt lat="44.65324" lon="3.45974">
        <ele>1089.34</ele>
        <time>2024-11-05T10:21:04.047Z</time>
      </trkpt>
      <trkpt lat="44.65326" lon="3.45967">
        <ele>1089.56</ele>
        <time>2024-11-05T10:21:07.751Z</time>
      </trkpt>
      <trkpt lat="44.65328" lon="3.45963">
        <ele>1089.84</ele>
        <time>2024-11-05T10:21:11.456Z</time>
      </trkpt>
      <trkpt lat="44.65342" lon="3.45931">
        <ele>1090.15</ele>
        <time>2024-11-05T10:21:15.165Z</time>
      </trkpt>
      <trkpt lat="44.65349" lon="3.45915">
        <ele>1090.51</ele>
        <time>2024-11-05T10:21:18.876Z</time>
      </trkpt>
      <trkpt lat="44.65354" lon="3.45904">
        <ele>1090.97</ele>
        <time>2024-11-05T10:21:22.589Z</time>
      </trkpt>
      <trkpt lat="44.65359" lon="3.45893">
        <ele>1091.43</ele>
        <time>2024-11-05T10:21:26.303Z</time>
      </trkpt>
      <trkpt lat="44.65361" lon="3.45888">
        <ele>1091.95</ele>
        <time>2024-11-05T10:21:30.018Z</time>
      </trkpt>
      <trkpt lat="44.65363" lon="3.45884">
        <ele>1092.54</ele>
        <time>2024-11-05T10:21:33.734Z</time>
      </trkpt>
      <trkpt lat="44.65366" lon="3.45878">
        <ele>1093.16</ele>
        <time>2024-11-05T10:21:37.451Z</time>
      </trkpt>
      <trkpt lat="44.65372" lon="3.45867">
        <ele>1093.83</ele>
        <time>2024-11-05T10:21:41.169Z</time>
      </trkpt>
      <trkpt lat="44.65385" lon="3.45842">
        <ele>1094.56</ele>
        <time>2024-11-05T10:21:44.891Z</time>
      </trkpt>
      <trkpt lat="44.65387" lon="3.45837">
        <ele>1095.29</ele>
        <time>2024-11-05T10:21:48.613Z</time>
      </trkpt>
      <trkpt lat="44.65395" lon="3.45817">
        <ele>1096.07</ele>
        <time>2024-11-05T10:21:52.338Z</time>
      </trkpt>
      <trkpt lat="44.65397" lon="3.45809">
        <ele>1096.9</ele>
        <time>2024-11-05T10:21:56.064Z</time>
      </trkpt>
      <trkpt lat="44.654" lon="3.45797">
        <ele>1097.76</ele>
        <time>2024-11-05T10:21:59.791Z</time>
      </trkpt>
      <trkpt lat="44.65406" lon="3.45773">
        <ele>1098.71</ele>
        <time>2024-11-05T10:22:03.521Z</time>
      </trkpt>
      <trkpt lat="44.65411" lon="3.45755">
        <ele>1099.71</ele>
        <time>2024-11-05T10:22:07.253Z</time>
      </trkpt>
      <trkpt lat="44.65414" lon="3.45743">
        <ele>1100.68</ele>
        <time>2024-11-05T10:22:10.987Z</time>
      </trkpt>
      <trkpt lat="44.65418" lon="3.45726">
        <ele>1101.72</ele>
        <time>2024-11-05T10:22:14.723Z</time>
      </trkpt>
      <trkpt lat="44.65421" lon="3.45714">
        <ele>1102.74</ele>
        <time>2024-11-05T10:22:18.460Z</time>
      </trkpt>
      <trkpt lat="44.65423" lon="3.45707">
        <ele>1103.75</ele>
        <time>2024-11-05T10:22:22.198Z</time>
      </trkpt>
      <trkpt lat="44.65435" lon="3.45679">
        <ele>1104.8</ele>
        <time>2024-11-05T10:22:25.940Z</time>
      </trkpt>
      <trkpt lat="44.65443" lon="3.45667">
        <ele>1105.83</ele>
        <time>2024-11-05T10:22:29.684Z</time>
      </trkpt>
      <trkpt lat="44.65448" lon="3.4566">
        <ele>1106.86</ele>
        <time>2024-11-05T10:22:33.429Z</time>
      </trkpt>
      <trkpt lat="44.6545" lon="3.45658">
        <ele>1107.9</ele>
        <time>2024-11-05T10:22:37.174Z</time>
      </trkpt>
      <trkpt lat="44.65481" lon="3.45623">
        <ele>1109.05</ele>
        <time>2024-11-05T10:22:40.926Z</time>
      </trkpt>
      <trkpt lat="44.65496" lon="3.45608">
        <ele>1110.13</ele>
        <time>2024-11-05T10:22:44.681Z</time>
      </trkpt>
      <trkpt lat="44.65506" lon="3.45596">
        <ele>1111.19</ele>
        <time>2024-11-05T10:22:48.438Z</time>
      </trkpt>
      <trkpt lat="44.65513" lon="3.45589">
        <ele>1112.24</ele>
        <time>2024-11-05T10:22:52.196Z</time>
      </trkpt>
      <trkpt lat="44.65531" lon="3.45569">
        <ele>1113.27</ele>
        <time>2024-11-05T10:22:55.958Z</time>
      </trkpt>
      <trkpt lat="44.65548" lon="3.4555">
        <ele>1114.29</ele>
        <time>2024-11-05T10:22:59.723Z</time>
      </trkpt>
      <trkpt lat="44.65559" lon="3.45538">
        <ele>1115.27</ele>
        <time>2024-11-05T10:23:03.490Z</time>
      </trkpt>
      <trkpt lat="44.65573" lon="3.45523">
        <ele>1116.24</ele>
        <time>2024-11-05T10:23:07.260Z</time>
      </trkpt>
      <trkpt lat="44.6558" lon="3.45515">
        <ele>1117.18</ele>
        <time>2024-11-05T10:23:11.032Z</time>
      </trkpt>
      <trkpt lat="44.65582" lon="3.45513">
        <ele>1118.13</ele>
        <time>2024-11-05T10:23:14.804Z</time>
      </trkpt>
      <trkpt lat="44.65588" lon="3.45508">
        <ele>1119.04</ele>
        <time>2024-11-05T10:23:18.577Z</time>
      </trkpt>
      <trkpt lat="44.65602" lon="3.45493">
        <ele>1119.94</ele>
        <time>2024-11-05T10:23:22.353Z</time>
      </trkpt>
      <trkpt lat="44.6561" lon="3.45486">
        <ele>1120.84</ele>
        <time>2024-11-05T10:23:26.131Z</time>
      </trkpt>
      <trkpt lat="44.65635" lon="3.45461">
        <ele>1121.78</ele>
        <time>2024-11-05T10:23:29.913Z</time>
      </trkpt>
      <trkpt lat="44.65635" lon="3.45461">
        <ele>1122.66</ele>
        <time>2024-11-05T10:23:33.696Z</time>
      </trkpt>
      <trkpt lat="44.65653" lon="3.45442">
        <ele>1123.55</ele>
        <time>2024-11-05T10:23:37.482Z</time>
      </trkpt>
      <trkpt lat="44.65674" lon="3.45419">
        <ele>1124.43</ele>
        <time>2024-11-05T10:23:41.272Z</time>
      </trkpt>
      <trkpt lat="44.65692" lon="3.454">
        <ele>1125.33</ele>
        <time>2024-11-05T10:23:45.066Z</time>
      </trkpt>
      <trkpt lat="44.65703" lon="3.45388">
        <ele>1126.15</ele>
        <time>2024-11-05T10:23:48.862Z</time>
      </trkpt>
      <trkpt lat="44.6572" lon="3.45369">
        <ele>1126.93</ele>
        <time>2024-11-05T10:23:52.662Z</time>
      </trkpt>
      <trkpt lat="44.65734" lon="3.45354">
        <ele>1127.7</ele>
        <time>2024-11-05T10:23:56.465Z</time>
      </trkpt>
      <trkpt lat="44.65745" lon="3.45343">
        <ele>1128.43</ele>
        <time>2024-11-05T10:24:00.270Z</time>
      </trkpt>
      <trkpt lat="44.65749" lon="3.45338">
        <ele>1129.12</ele>
        <time>2024-11-05T10:24:04.076Z</time>
      </trkpt>
      <trkpt lat="44.65779" lon="3.45302">
        <ele>1129.89</ele>
        <time>2024-11-05T10:24:07.888Z</time>
      </trkpt>
      <trkpt lat="44.65786" lon="3.45294">
        <ele>1130.55</ele>
        <time>2024-11-05T10:24:11.701Z</time>
      </trkpt>
      <trkpt lat="44.6581" lon="3.45266">
        <ele>1131.15</ele>
        <time>2024-11-05T10:24:15.519Z</time>
      </trkpt>
      <trkpt lat="44.6583" lon="3.45242">
        <ele>1131.75</ele>
        <time>2024-11-05T10:24:19.341Z</time>
      </trkpt>
      <trkpt lat="44.6584" lon="3.4523">
        <ele>1132.31</ele>
        <time>2024-11-05T10:24:23.166Z</time>
      </trkpt>
      <trkpt lat="44.65846" lon="3.45223">
        <ele>1132.84</ele>
        <time>2024-11-05T10:24:26.992Z</time>
      </trkpt>
      <trkpt lat="44.65851" lon="3.45219">
        <ele>1133.34</ele>
        <time>2024-11-05T10:24:30.819Z</time>
      </trkpt>
      <trkpt lat="44.65859" lon="3.45213">
        <ele>1133.83</ele>
        <time>2024-11-05T10:24:34.647Z</time>
      </trkpt>
      <trkpt lat="44.65862" lon="3.4521">
        <ele>1134.27</ele>
        <time>2024-11-05T10:24:38.476Z</time>
      </trkpt>
      <trkpt lat="44.65863" lon="3.4521">
        <ele>1134.67</ele>
        <time>2024-11-05T10:24:42.305Z</time>
      </trkpt>
      <trkpt lat="44.65871" lon="3.45205">
        <ele>1135.06</ele>
        <time>2024-11-05T10:24:46.135Z</time>
      </trkpt>
      <trkpt lat="44.65879" lon="3.45201">
        <ele>1135.4</ele>
        <time>2024-11-05T10:24:49.967Z</time>
      </trkpt>
      <trkpt lat="44.65883" lon="3.45199">
        <ele>1135.72</ele>
        <time>2024-11-05T10:24:53.799Z</time>
      </trkpt>
      <trkpt lat="44.65888" lon="3.45196">
        <ele>1136</ele>
        <time>2024-11-05T10:24:57.632Z</time>
      </trkpt>
      <trkpt lat="44.65892" lon="3.45194">
        <ele>1136.26</ele>
        <time>2024-11-05T10:25:01.466Z</time>
      </trkpt>
      <trkpt lat="44.659" lon="3.4519">
        <ele>1136.48</ele>
        <time>2024-11-05T10:25:05.301Z</time>
      </trkpt>
      <trkpt lat="44.65908" lon="3.45185">
        <ele>1136.66</ele>
        <time>2024-11-05T10:25:09.138Z</time>
      </trkpt>
      <trkpt lat="44.65942" lon="3.45167">
        <ele>1136.81</ele>
        <time>2024-11-05T10:25:12.980Z</time>
      </trkpt>
      <trkpt lat="44.65962" lon="3.45156">
        <ele>1136.96</ele>
        <time>2024-11-05T10:25:16.826Z</time>
      </trkpt>
      <trkpt lat="44.65996" lon="3.45138">
        <ele>1137.13</ele>
        <time>2024-11-05T10:25:20.678Z</time>
      </trkpt>
      <trkpt lat="44.66008" lon="3.45131">
        <ele>1137.23</ele>
        <time>2024-11-05T10:25:24.532Z</time>
      </trkpt>
      <trkpt lat="44.66021" lon="3.45125">
        <ele>1137.29</ele>
        <time>2024-11-05T10:25:28.388Z</time>
      </trkpt>
      <trkpt lat="44.66034" lon="3.45118">
        <ele>1137.33</ele>
        <time>2024-11-05T10:25:32.246Z</time>
      </trkpt>
      <trkpt lat="44.66042" lon="3.45113">
        <ele>1137.35</ele>
        <time>2024-11-05T10:25:36.106Z</time>
      </trkpt>
      <trkpt lat="44.66059" lon="3.45104">
        <ele>1137.34</ele>
        <time>2024-11-05T10:25:39.968Z</time>
      </trkpt>
      <trkpt lat="44.66061" lon="3.45103">
        <ele>1137.31</ele>
        <time>2024-11-05T10:25:43.831Z</time>
      </trkpt>
      <trkpt lat="44.66073" lon="3.45096">
        <ele>1137.24</ele>
        <time>2024-11-05T10:25:47.696Z</time>
      </trkpt>
      <trkpt lat="44.66088" lon="3.45088">
        <ele>1137.17</ele>
        <time>2024-11-05T10:25:51.564Z</time>
      </trkpt>
      <trkpt lat="44.66114" lon="3.45073">
        <ele>1137.08</ele>
        <time>2024-11-05T10:25:55.436Z</time>
      </trkpt>
      <trkpt lat="44.66135" lon="3.45062">
        <ele>1136.96</ele>
        <time>2024-11-05T10:25:59.312Z</time>
      </trkpt>
      <trkpt lat="44.66159" lon="3.45049">
        <ele>1136.85</ele>
        <time>2024-11-05T10:26:03.192Z</time>
      </trkpt>
      <trkpt lat="44.66168" lon="3.45044">
        <ele>1136.7</ele>
        <time>2024-11-05T10:26:07.073Z</time>
      </trkpt>
      <trkpt lat="44.66188" lon="3.45033">
        <ele>1136.54</ele>
        <time>2024-11-05T10:26:10.958Z</time>
      </trkpt>
      <trkpt lat="44.66196" lon="3.45028">
        <ele>1136.34</ele>
        <time>2024-11-05T10:26:14.844Z</time>
      </trkpt>
      <trkpt lat="44.662" lon="3.45026">
        <ele>1136.11</ele>
        <time>2024-11-05T10:26:18.731Z</time>
      </trkpt>
      <trkpt lat="44.66208" lon="3.45022">
        <ele>1135.85</ele>
        <time>2024-11-05T10:26:22.619Z</time>
      </trkpt>
      <trkpt lat="44.66229" lon="3.4501">
        <ele>1135.57</ele>
        <time>2024-11-05T10:26:26.511Z</time>
      </trkpt>
      <trkpt lat="44.66231" lon="3.45009">
        <ele>1135.26</ele>
        <time>2024-11-05T10:26:30.403Z</time>
      </trkpt>
      <trkpt lat="44.66248" lon="3.44999">
        <ele>1134.94</ele>
        <time>2024-11-05T10:26:34.298Z</time>
      </trkpt>
      <trkpt lat="44.6625" lon="3.44998">
        <ele>1134.59</ele>
        <time>2024-11-05T10:26:38.193Z</time>
      </trkpt>
      <trkpt lat="44.66248" lon="3.44983">
        <ele>1134.22</ele>
        <time>2024-11-05T10:26:42.090Z</time>
      </trkpt>
      <trkpt lat="44.66247" lon="3.44975">
        <ele>1133.82</ele>
        <time>2024-11-05T10:26:45.988Z</time>
      </trkpt>
      <trkpt lat="44.66248" lon="3.4497">
        <ele>1133.41</ele>
        <time>2024-11-05T10:26:49.887Z</time>
      </trkpt>
      <trkpt lat="44.6625" lon="3.44958">
        <ele>1132.96</ele>
        <time>2024-11-05T10:26:53.787Z</time>
      </trkpt>
      <trkpt lat="44.66253" lon="3.44942">
        <ele>1132.49</ele>
        <time>2024-11-05T10:26:57.689Z</time>
      </trkpt>
      <trkpt lat="44.66253" lon="3.44934">
        <ele>1132.01</ele>
        <time>2024-11-05T10:27:01.592Z</time>
      </trkpt>
      <trkpt lat="44.66254" lon="3.44914">
        <ele>1131.51</ele>
        <time>2024-11-05T10:27:05.497Z</time>
      </trkpt>
      <trkpt lat="44.66253" lon="3.44908">
        <ele>1130.99</ele>
        <time>2024-11-05T10:27:09.403Z</time>
      </trkpt>
      <trkpt lat="44.66252" lon="3.44896">
        <ele>1130.44</ele>
        <time>2024-11-05T10:27:13.310Z</time>
      </trkpt>
      <trkpt lat="44.66249" lon="3.44871">
        <ele>1129.87</ele>
        <time>2024-11-05T10:27:17.220Z</time>
      </trkpt>
      <trkpt lat="44.66247" lon="3.44856">
        <ele>1129.3</ele>
        <time>2024-11-05T10:27:21.132Z</time>
      </trkpt>
      <trkpt lat="44.66242" lon="3.44841">
        <ele>1128.7</ele>
        <time>2024-11-05T10:27:25.046Z</time>
      </trkpt>
      <trkpt lat="44.6624" lon="3.44834">
        <ele>1128.1</ele>
        <time>2024-11-05T10:27:28.961Z</time>
      </trkpt>
      <trkpt lat="44.66233" lon="3.44819">
        <ele>1127.45</ele>
        <time>2024-11-05T10:27:32.878Z</time>
      </trkpt>
      <trkpt lat="44.66226" lon="3.44811">
        <ele>1126.8</ele>
        <time>2024-11-05T10:27:36.796Z</time>
      </trkpt>
      <trkpt lat="44.66212" lon="3.44796">
        <ele>1126.1</ele>
        <time>2024-11-05T10:27:40.717Z</time>
      </trkpt>
      <trkpt lat="44.6621" lon="3.44793">
        <ele>1125.46</ele>
        <time>2024-11-05T10:27:44.638Z</time>
      </trkpt>
      <trkpt lat="44.66206" lon="3.44787">
        <ele>1124.8</ele>
        <time>2024-11-05T10:27:48.560Z</time>
      </trkpt>
      <trkpt lat="44.662" lon="3.44776">
        <ele>1124.13</ele>
        <time>2024-11-05T10:27:52.484Z</time>
      </trkpt>
      <trkpt lat="44.66198" lon="3.44765">
        <ele>1123.48</ele>
        <time>2024-11-05T10:27:56.409Z</time>
      </trkpt>
      <trkpt lat="44.66197" lon="3.44759">
        <ele>1122.83</ele>
        <time>2024-11-05T10:28:00.335Z</time>
      </trkpt>
      <trkpt lat="44.66194" lon="3.44746">
        <ele>1122.18</ele>
        <time>2024-11-05T10:28:04.263Z</time>
      </trkpt>
      <trkpt lat="44.66194" lon="3.44734">
        <ele>1121.54</ele>
        <time>2024-11-05T10:28:08.192Z</time>
      </trkpt>
      <trkpt lat="44.66194" lon="3.44722">
        <ele>1120.9</ele>
        <time>2024-11-05T10:28:12.122Z</time>
      </trkpt>
      <trkpt lat="44.66194" lon="3.44722">
        <ele>1120.26</ele>
        <time>2024-11-05T10:28:16.052Z</time>
      </trkpt>
      <trkpt lat="44.66192" lon="3.44703">
        <ele>1119.6</ele>
        <time>2024-11-05T10:28:19.984Z</time>
      </trkpt>
      <trkpt lat="44.6619" lon="3.44697">
        <ele>1118.96</ele>
        <time>2024-11-05T10:28:23.917Z</time>
      </trkpt>
      <trkpt lat="44.66187" lon="3.44685">
        <ele>1118.32</ele>
        <time>2024-11-05T10:28:27.852Z</time>
      </trkpt>
      <trkpt lat="44.66183" lon="3.44667">
        <ele>1117.67</ele>
        <time>2024-11-05T10:28:31.789Z</time>
      </trkpt>
      <trkpt lat="44.66182" lon="3.44665">
        <ele>1117.06</ele>
        <time>2024-11-05T10:28:35.726Z</time>
      </trkpt>
      <trkpt lat="44.66178" lon="3.44657">
        <ele>1116.44</ele>
        <time>2024-11-05T10:28:39.664Z</time>
      </trkpt>
      <trkpt lat="44.66173" lon="3.44647">
        <ele>1115.84</ele>
        <time>2024-11-05T10:28:43.604Z</time>
      </trkpt>
      <trkpt lat="44.66163" lon="3.44626">
        <ele>1115.23</ele>
        <time>2024-11-05T10:28:47.547Z</time>
      </trkpt>
      <trkpt lat="44.66147" lon="3.44595">
        <ele>1114.61</ele>
        <time>2024-11-05T10:28:51.494Z</time>
      </trkpt>
      <trkpt lat="44.66144" lon="3.4459">
        <ele>1114.05</ele>
        <time>2024-11-05T10:28:55.442Z</time>
      </trkpt>
      <trkpt lat="44.66138" lon="3.44581">
        <ele>1113.5</ele>
        <time>2024-11-05T10:28:59.391Z</time>
      </trkpt>
      <trkpt lat="44.66132" lon="3.44572">
        <ele>1112.96</ele>
        <time>2024-11-05T10:29:03.341Z</time>
      </trkpt>
      <trkpt lat="44.66126" lon="3.44564">
        <ele>1112.44</ele>
        <time>2024-11-05T10:29:07.293Z</time>
      </trkpt>
      <trkpt lat="44.66121" lon="3.44561">
        <ele>1111.94</ele>
        <time>2024-11-05T10:29:11.246Z</time>
      </trkpt>
      <trkpt lat="44.66105" lon="3.44551">
        <ele>1111.45</ele>
        <time>2024-11-05T10:29:15.201Z</time>
      </trkpt>
      <trkpt lat="44.66099" lon="3.44547">
        <ele>1110.99</ele>
        <time>2024-11-05T10:29:19.157Z</time>
      </trkpt>
      <trkpt lat="44.66096" lon="3.44547">
        <ele>1110.55</ele>
        <time>2024-11-05T10:29:23.114Z</time>
      </trkpt>
      <trkpt lat="44.66074" lon="3.44547">
        <ele>1110.1</ele>
        <time>2024-11-05T10:29:27.074Z</time>
      </trkpt>
      <trkpt lat="44.66065" lon="3.44547">
        <ele>1109.69</ele>
        <time>2024-11-05T10:29:31.036Z</time>
      </trkpt>
      <trkpt lat="44.66065" lon="3.44547">
        <ele>1109.3</ele>
        <time>2024-11-05T10:29:34.998Z</time>
      </trkpt>
      <trkpt lat="44.66032" lon="3.44545">
        <ele>1108.92</ele>
        <time>2024-11-05T10:29:38.965Z</time>
      </trkpt>
      <trkpt lat="44.6603" lon="3.44543">
        <ele>1108.56</ele>
        <time>2024-11-05T10:29:42.933Z</time>
      </trkpt>
      <trkpt lat="44.6601" lon="3.44527">
        <ele>1108.21</ele>
        <time>2024-11-05T10:29:46.904Z</time>
      </trkpt>
      <trkpt lat="44.65999" lon="3.44508">
        <ele>1107.87</ele>
        <time>2024-11-05T10:29:50.878Z</time>
      </trkpt>
      <trkpt lat="44.65984" lon="3.44484">
        <ele>1107.54</ele>
        <time>2024-11-05T10:29:54.856Z</time>
      </trkpt>
      <trkpt lat="44.65979" lon="3.44474">
        <ele>1107.24</ele>
        <time>2024-11-05T10:29:58.835Z</time>
      </trkpt>
      <trkpt lat="44.65969" lon="3.44458">
        <ele>1106.95</ele>
        <time>2024-11-05T10:30:02.817Z</time>
      </trkpt>
      <trkpt lat="44.65934" lon="3.44387">
        <ele>1106.65</ele>
        <time>2024-11-05T10:30:06.808Z</time>
      </trkpt>
      <trkpt lat="44.65926" lon="3.44372">
        <ele>1106.38</ele>
        <time>2024-11-05T10:30:10.802Z</time>
      </trkpt>
      <trkpt lat="44.65924" lon="3.44367">
        <ele>1106.14</ele>
        <time>2024-11-05T10:30:14.796Z</time>
      </trkpt>
      <trkpt lat="44.65917" lon="3.44337">
        <ele>1105.89</ele>
        <time>2024-11-05T10:30:18.794Z</time>
      </trkpt>
      <trkpt lat="44.65911" lon="3.44313">
        <ele>1105.67</ele>
        <time>2024-11-05T10:30:22.795Z</time>
      </trkpt>
      <trkpt lat="44.65909" lon="3.44304">
        <ele>1105.48</ele>
        <time>2024-11-05T10:30:26.797Z</time>
      </trkpt>
      <trkpt lat="44.65909" lon="3.44301">
        <ele>1105.31</ele>
        <time>2024-11-05T10:30:30.799Z</time>
      </trkpt>
      <trkpt lat="44.65908" lon="3.44288">
        <ele>1105.15</ele>
        <time>2024-11-05T10:30:34.803Z</time>
      </trkpt>
      <trkpt lat="44.65906" lon="3.44276">
        <ele>1105.02</ele>
        <time>2024-11-05T10:30:38.808Z</time>
      </trkpt>
      <trkpt lat="44.65905" lon="3.44257">
        <ele>1104.87</ele>
        <time>2024-11-05T10:30:42.815Z</time>
      </trkpt>
      <trkpt lat="44.65903" lon="3.4424">
        <ele>1104.75</ele>
        <time>2024-11-05T10:30:46.824Z</time>
      </trkpt>
      <trkpt lat="44.65896" lon="3.44215">
        <ele>1104.63</ele>
        <time>2024-11-05T10:30:50.836Z</time>
      </trkpt>
      <trkpt lat="44.65891" lon="3.44196">
        <ele>1104.52</ele>
        <time>2024-11-05T10:30:54.851Z</time>
      </trkpt>
      <trkpt lat="44.65886" lon="3.44187">
        <ele>1104.41</ele>
        <time>2024-11-05T10:30:58.867Z</time>
      </trkpt>
      <trkpt lat="44.65878" lon="3.44171">
        <ele>1104.29</ele>
        <time>2024-11-05T10:31:02.885Z</time>
      </trkpt>
      <trkpt lat="44.65868" lon="3.44151">
        <ele>1104.21</ele>
        <time>2024-11-05T10:31:06.906Z</time>
      </trkpt>
      <trkpt lat="44.65868" lon="3.44151">
        <ele>1104.13</ele>
        <time>2024-11-05T10:31:10.927Z</time>
      </trkpt>
      <trkpt lat="44.65861" lon="3.44143">
        <ele>1104.07</ele>
        <time>2024-11-05T10:31:14.949Z</time>
      </trkpt>
      <trkpt lat="44.65854" lon="3.44135">
        <ele>1104.02</ele>
        <time>2024-11-05T10:31:18.973Z</time>
      </trkpt>
      <trkpt lat="44.65846" lon="3.44125">
        <ele>1103.99</ele>
        <time>2024-11-05T10:31:22.998Z</time>
      </trkpt>
      <trkpt lat="44.65835" lon="3.4412">
        <ele>1103.94</ele>
        <time>2024-11-05T10:31:27.025Z</time>
      </trkpt>
      <trkpt lat="44.65818" lon="3.44112">
        <ele>1103.87</ele>
        <time>2024-11-05T10:31:31.055Z</time>
      </trkpt>
      <trkpt lat="44.65816" lon="3.44111">
        <ele>1103.79</ele>
        <time>2024-11-05T10:31:35.086Z</time>
      </trkpt>
      <trkpt lat="44.65805" lon="3.4411">
        <ele>1103.7</ele>
        <time>2024-11-05T10:31:39.118Z</time>
      </trkpt>
      <trkpt lat="44.65782" lon="3.44108">
        <ele>1103.57</ele>
        <time>2024-11-05T10:31:43.154Z</time>
      </trkpt>
      <trkpt lat="44.6576" lon="3.44106">
        <ele>1103.46</ele>
        <time>2024-11-05T10:31:47.193Z</time>
      </trkpt>
      <trkpt lat="44.65756" lon="3.44106">
        <ele>1103.36</ele>
        <time>2024-11-05T10:31:51.233Z</time>
      </trkpt>
      <trkpt lat="44.65725" lon="3.44106">
        <ele>1103.26</ele>
        <time>2024-11-05T10:31:55.278Z</time>
      </trkpt>
      <trkpt lat="44.65712" lon="3.44113">
        <ele>1103.11</ele>
        <time>2024-11-05T10:31:59.325Z</time>
      </trkpt>
      <trkpt lat="44.65687" lon="3.44126">
        <ele>1102.98</ele>
        <time>2024-11-05T10:32:03.377Z</time>
      </trkpt>
      <trkpt lat="44.65684" lon="3.44128">
        <ele>1102.83</ele>
        <time>2024-11-05T10:32:07.429Z</time>
      </trkpt>
      <trkpt lat="44.65678" lon="3.4413">
        <ele>1102.68</ele>
        <time>2024-11-05T10:32:11.482Z</time>
      </trkpt>
      <trkpt lat="44.65634" lon="3.44145">
        <ele>1102.52</ele>
        <time>2024-11-05T10:32:15.542Z</time>
      </trkpt>
      <trkpt lat="44.65617" lon="3.44144">
        <ele>1102.38</ele>
        <time>2024-11-05T10:32:19.605Z</time>
      </trkpt>
      <trkpt lat="44.65608" lon="3.44144">
        <ele>1102.19</ele>
        <time>2024-11-05T10:32:23.670Z</time>
      </trkpt>
      <trkpt lat="44.65599" lon="3.44142">
        <ele>1102</ele>
        <time>2024-11-05T10:32:27.736Z</time>
      </trkpt>
      <trkpt lat="44.65569" lon="3.44134">
        <ele>1101.76</ele>
        <time>2024-11-05T10:32:31.807Z</time>
      </trkpt>
      <trkpt lat="44.6556" lon="3.44131">
        <ele>1101.51</ele>
        <time>2024-11-05T10:32:35.879Z</time>
      </trkpt>
      <trkpt lat="44.65548" lon="3.44128">
        <ele>1101.25</ele>
        <time>2024-11-05T10:32:39.953Z</time>
      </trkpt>
      <trkpt lat="44.65547" lon="3.44128">
        <ele>1100.97</ele>
        <time>2024-11-05T10:32:44.027Z</time>
      </trkpt>
      <trkpt lat="44.65516" lon="3.44122">
        <ele>1100.66</ele>
        <time>2024-11-05T10:32:48.106Z</time>
      </trkpt>
      <trkpt lat="44.65498" lon="3.44119">
        <ele>1100.32</ele>
        <time>2024-11-05T10:32:52.188Z</time>
      </trkpt>
      <trkpt lat="44.65478" lon="3.44115">
        <ele>1099.94</ele>
        <time>2024-11-05T10:32:56.274Z</time>
      </trkpt>
      <trkpt lat="44.65438" lon="3.44117">
        <ele>1099.66</ele>
        <time>2024-11-05T10:33:00.366Z</time>
      </trkpt>
      <trkpt lat="44.65436" lon="3.44118">
        <ele>1099.28</ele>
        <time>2024-11-05T10:33:04.458Z</time>
      </trkpt>
      <trkpt lat="44.65427" lon="3.44121">
        <ele>1098.88</ele>
        <time>2024-11-05T10:33:08.552Z</time>
      </trkpt>
      <trkpt lat="44.65423" lon="3.44122">
        <ele>1098.45</ele>
        <time>2024-11-05T10:33:12.646Z</time>
      </trkpt>
      <trkpt lat="44.65414" lon="3.44125">
        <ele>1097.98</ele>
        <time>2024-11-05T10:33:16.742Z</time>
      </trkpt>
      <trkpt lat="44.65401" lon="3.44129">
        <ele>1097.48</ele>
        <time>2024-11-05T10:33:20.840Z</time>
      </trkpt>
      <trkpt lat="44.65357" lon="3.44143">
        <ele>1096.87</ele>
        <time>2024-11-05T10:33:24.945Z</time>
      </trkpt>
      <trkpt lat="44.65353" lon="3.44144">
        <ele>1096.33</ele>
        <time>2024-11-05T10:33:29.051Z</time>
      </trkpt>
      <trkpt lat="44.65349" lon="3.44145">
        <ele>1095.78</ele>
        <time>2024-11-05T10:33:33.158Z</time>
      </trkpt>
      <trkpt lat="44.65331" lon="3.44149">
        <ele>1095.16</ele>
        <time>2024-11-05T10:33:37.268Z</time>
      </trkpt>
      <trkpt lat="44.65325" lon="3.4415">
        <ele>1094.55</ele>
        <time>2024-11-05T10:33:41.378Z</time>
      </trkpt>
      <trkpt lat="44.65318" lon="3.44146">
        <ele>1093.94</ele>
        <time>2024-11-05T10:33:45.490Z</time>
      </trkpt>
      <trkpt lat="44.65306" lon="3.44138">
        <ele>1093.32</ele>
        <time>2024-11-05T10:33:49.604Z</time>
      </trkpt>
      <trkpt lat="44.65299" lon="3.44133">
        <ele>1092.66</ele>
        <time>2024-11-05T10:33:53.719Z</time>
      </trkpt>
      <trkpt lat="44.65278" lon="3.44108">
        <ele>1092.02</ele>
        <time>2024-11-05T10:33:57.839Z</time>
      </trkpt>
      <trkpt lat="44.65273" lon="3.44102">
        <ele>1091.35</ele>
        <time>2024-11-05T10:34:01.960Z</time>
      </trkpt>
      <trkpt lat="44.65247" lon="3.44082">
        <ele>1090.58</ele>
        <time>2024-11-05T10:34:06.085Z</time>
      </trkpt>
      <trkpt lat="44.65235" lon="3.44073">
        <ele>1089.84</ele>
        <time>2024-11-05T10:34:10.212Z</time>
      </trkpt>
      <trkpt lat="44.65221" lon="3.44059">
        <ele>1089.11</ele>
        <time>2024-11-05T10:34:14.342Z</time>
      </trkpt>
      <trkpt lat="44.65203" lon="3.44041">
        <ele>1088.35</ele>
        <time>2024-11-05T10:34:18.476Z</time>
      </trkpt>
      <trkpt lat="44.65201" lon="3.44039">
        <ele>1087.64</ele>
        <time>2024-11-05T10:34:22.610Z</time>
      </trkpt>
      <trkpt lat="44.65191" lon="3.44022">
        <ele>1086.89</ele>
        <time>2024-11-05T10:34:26.747Z</time>
      </trkpt>
      <trkpt lat="44.65185" lon="3.44012">
        <ele>1086.16</ele>
        <time>2024-11-05T10:34:30.885Z</time>
      </trkpt>
      <trkpt lat="44.65171" lon="3.43989">
        <ele>1085.4</ele>
        <time>2024-11-05T10:34:35.027Z</time>
      </trkpt>
      <trkpt lat="44.65169" lon="3.43986">
        <ele>1084.69</ele>
        <time>2024-11-05T10:34:39.169Z</time>
      </trkpt>
      <trkpt lat="44.65161" lon="3.43979">
        <ele>1084</ele>
        <time>2024-11-05T10:34:43.313Z</time>
      </trkpt>
      <trkpt lat="44.65151" lon="3.43979">
        <ele>1083.31</ele>
        <time>2024-11-05T10:34:47.458Z</time>
      </trkpt>
      <trkpt lat="44.65138" lon="3.43985">
        <ele>1082.6</ele>
        <time>2024-11-05T10:34:51.605Z</time>
      </trkpt>
      <trkpt lat="44.65108" lon="3.43999">
        <ele>1081.86</ele>
        <time>2024-11-05T10:34:55.757Z</time>
      </trkpt>
      <trkpt lat="44.65104" lon="3.44001">
        <ele>1081.2</ele>
        <time>2024-11-05T10:34:59.910Z</time>
      </trkpt>
      <trkpt lat="44.65096" lon="3.44006">
        <ele>1080.54</ele>
        <time>2024-11-05T10:35:04.065Z</time>
      </trkpt>
      <trkpt lat="44.65059" lon="3.44027">
        <ele>1079.83</ele>
        <time>2024-11-05T10:35:08.226Z</time>
      </trkpt>
      <trkpt lat="44.65054" lon="3.4403">
        <ele>1079.22</ele>
        <time>2024-11-05T10:35:12.388Z</time>
      </trkpt>
      <trkpt lat="44.65041" lon="3.44045">
        <ele>1078.62</ele>
        <time>2024-11-05T10:35:16.552Z</time>
      </trkpt>
      <trkpt lat="44.65027" lon="3.44062">
        <ele>1078.03</ele>
        <time>2024-11-05T10:35:20.719Z</time>
      </trkpt>
      <trkpt lat="44.6502" lon="3.4407">
        <ele>1077.45</ele>
        <time>2024-11-05T10:35:24.888Z</time>
      </trkpt>
      <trkpt lat="44.65013" lon="3.44076">
        <ele>1076.91</ele>
        <time>2024-11-05T10:35:29.058Z</time>
      </trkpt>
      <trkpt lat="44.64998" lon="3.44089">
        <ele>1076.36</ele>
        <time>2024-11-05T10:35:33.231Z</time>
      </trkpt>
      <trkpt lat="44.64978" lon="3.44105">
        <ele>1075.83</ele>
        <time>2024-11-05T10:35:37.408Z</time>
      </trkpt>
      <trkpt lat="44.64971" lon="3.44111">
        <ele>1075.34</ele>
        <time>2024-11-05T10:35:41.586Z</time>
      </trkpt>
      <trkpt lat="44.64971" lon="3.44111">
        <ele>1074.92</ele>
        <time>2024-11-05T10:35:45.764Z</time>
      </trkpt>
      <trkpt lat="44.64962" lon="3.44111">
        <ele>1074.49</ele>
        <time>2024-11-05T10:35:49.943Z</time>
      </trkpt>
      <trkpt lat="44.64955" lon="3.44111">
        <ele>1074.1</ele>
        <time>2024-11-05T10:35:54.124Z</time>
      </trkpt>
      <trkpt lat="44.64946" lon="3.441">
        <ele>1073.76</ele>
        <time>2024-11-05T10:35:58.306Z</time>
      </trkpt>
      <trkpt lat="44.64944" lon="3.44096">
        <ele>1073.46</ele>
        <time>2024-11-05T10:36:02.489Z</time>
      </trkpt>
      <trkpt lat="44.6494" lon="3.44085">
        <ele>1073.19</ele>
        <time>2024-11-05T10:36:06.673Z</time>
      </trkpt>
      <trkpt lat="44.64937" lon="3.4408">
        <ele>1072.95</ele>
        <time>2024-11-05T10:36:10.858Z</time>
      </trkpt>
      <trkpt lat="44.64933" lon="3.44069">
        <ele>1072.73</ele>
        <time>2024-11-05T10:36:15.045Z</time>
      </trkpt>
      <trkpt lat="44.64928" lon="3.44058">
        <ele>1072.54</ele>
        <time>2024-11-05T10:36:19.233Z</time>
      </trkpt>
      <trkpt lat="44.64924" lon="3.44047">
        <ele>1072.39</ele>
        <time>2024-11-05T10:36:23.422Z</time>
      </trkpt>
      <trkpt lat="44.64919" lon="3.44037">
        <ele>1072.26</ele>
        <time>2024-11-05T10:36:27.613Z</time>
      </trkpt>
      <trkpt lat="44.64914" lon="3.44026">
        <ele>1072.16</ele>
        <time>2024-11-05T10:36:31.805Z</time>
      </trkpt>
      <trkpt lat="44.64908" lon="3.4401">
        <ele>1072.11</ele>
        <time>2024-11-05T10:36:35.999Z</time>
      </trkpt>
      <trkpt lat="44.64903" lon="3.43999">
        <ele>1072.06</ele>
        <time>2024-11-05T10:36:40.195Z</time>
      </trkpt>
      <trkpt lat="44.64902" lon="3.43997">
        <ele>1072.03</ele>
        <time>2024-11-05T10:36:44.391Z</time>
      </trkpt>
      <trkpt lat="44.64891" lon="3.43985">
        <ele>1072.03</ele>
        <time>2024-11-05T10:36:48.589Z</time>
      </trkpt>
      <trkpt lat="44.6487" lon="3.43973">
        <ele>1072.01</ele>
        <time>2024-11-05T10:36:52.791Z</time>
      </trkpt>
      <trkpt lat="44.64852" lon="3.43963">
        <ele>1072.04</ele>
        <time>2024-11-05T10:36:56.996Z</time>
      </trkpt>
      <trkpt lat="44.64838" lon="3.43945">
        <ele>1072.13</ele>
        <time>2024-11-05T10:37:01.204Z</time>
      </trkpt>
      <trkpt lat="44.64835" lon="3.43942">
        <ele>1072.2</ele>
        <time>2024-11-05T10:37:05.413Z</time>
      </trkpt>
      <trkpt lat="44.64824" lon="3.43922">
        <ele>1072.31</ele>
        <time>2024-11-05T10:37:09.625Z</time>
      </trkpt>
      <trkpt lat="44.64817" lon="3.43907">
        <ele>1072.43</ele>
        <time>2024-11-05T10:37:13.839Z</time>
      </trkpt>
      <trkpt lat="44.64816" lon="3.43906">
        <ele>1072.55</ele>
        <time>2024-11-05T10:37:18.053Z</time>
      </trkpt>
      <trkpt lat="44.64801" lon="3.43871">
        <ele>1072.7</ele>
        <time>2024-11-05T10:37:22.272Z</time>
      </trkpt>
      <trkpt lat="44.64788" lon="3.43838">
        <ele>1072.8</ele>
        <time>2024-11-05T10:37:26.495Z</time>
      </trkpt>
      <trkpt lat="44.64784" lon="3.43828">
        <ele>1072.93</ele>
        <time>2024-11-05T10:37:30.719Z</time>
      </trkpt>
      <trkpt lat="44.64779" lon="3.43817">
        <ele>1073.08</ele>
        <time>2024-11-05T10:37:34.945Z</time>
      </trkpt>
      <trkpt lat="44.64773" lon="3.43801">
        <ele>1073.22</ele>
        <time>2024-11-05T10:37:39.173Z</time>
      </trkpt>
      <trkpt lat="44.64771" lon="3.43797">
        <ele>1073.4</ele>
        <time>2024-11-05T10:37:43.401Z</time>
      </trkpt>
      <trkpt lat="44.64769" lon="3.43789">
        <ele>1073.58</ele>
        <time>2024-11-05T10:37:47.630Z</time>
      </trkpt>
      <trkpt lat="44.64765" lon="3.43772">
        <ele>1073.77</ele>
        <time>2024-11-05T10:37:51.861Z</time>
      </trkpt>
      <trkpt lat="44.64753" lon="3.43724">
        <ele>1073.96</ele>
        <time>2024-11-05T10:37:56.098Z</time>
      </trkpt>
      <trkpt lat="44.64748" lon="3.43701">
        <ele>1074.14</ele>
        <time>2024-11-05T10:38:00.338Z</time>
      </trkpt>
      <trkpt lat="44.64745" lon="3.43689">
        <ele>1074.33</ele>
        <time>2024-11-05T10:38:04.579Z</time>
      </trkpt>
      <trkpt lat="44.64742" lon="3.43678">
        <ele>1074.52</ele>
        <time>2024-11-05T10:38:08.822Z</time>
      </trkpt>
      <trkpt lat="44.64739" lon="3.43666">
        <ele>1074.7</ele>
        <time>2024-11-05T10:38:13.066Z</time>
      </trkpt>
      <trkpt lat="44.64737" lon="3.43655">
        <ele>1074.93</ele>
        <time>2024-11-05T10:38:17.311Z</time>
      </trkpt>
      <trkpt lat="44.64734" lon="3.43644">
        <ele>1075.16</ele>
        <time>2024-11-05T10:38:21.558Z</time>
      </trkpt>
      <trkpt lat="44.64731" lon="3.43638">
        <ele>1075.37</ele>
        <time>2024-11-05T10:38:25.806Z</time>
      </trkpt>
      <trkpt lat="44.64725" lon="3.43629">
        <ele>1075.6</ele>
        <time>2024-11-05T10:38:30.055Z</time>
      </trkpt>
      <trkpt lat="44.64716" lon="3.43615">
        <ele>1075.83</ele>
        <time>2024-11-05T10:38:34.306Z</time>
      </trkpt>
      <trkpt lat="44.64715" lon="3.43613">
        <ele>1076.04</ele>
        <time>2024-11-05T10:38:38.557Z</time>
      </trkpt>
      <trkpt lat="44.64703" lon="3.43599">
        <ele>1076.24</ele>
        <time>2024-11-05T10:38:42.811Z</time>
      </trkpt>
      <trkpt lat="44.64696" lon="3.43591">
        <ele>1076.44</ele>
        <time>2024-11-05T10:38:47.066Z</time>
      </trkpt>
      <trkpt lat="44.64689" lon="3.43583">
        <ele>1076.64</ele>
        <time>2024-11-05T10:38:51.323Z</time>
      </trkpt>
      <trkpt lat="44.64686" lon="3.43579">
        <ele>1076.82</ele>
        <time>2024-11-05T10:38:55.581Z</time>
      </trkpt>
      <trkpt lat="44.64679" lon="3.43571">
        <ele>1077</ele>
        <time>2024-11-05T10:38:59.840Z</time>
      </trkpt>
      <trkpt lat="44.64672" lon="3.43563">
        <ele>1077.16</ele>
        <time>2024-11-05T10:39:04.100Z</time>
      </trkpt>
      <trkpt lat="44.64661" lon="3.43551">
        <ele>1077.34</ele>
        <time>2024-11-05T10:39:08.363Z</time>
      </trkpt>
      <trkpt lat="44.64654" lon="3.43543">
        <ele>1077.48</ele>
        <time>2024-11-05T10:39:12.627Z</time>
      </trkpt>
      <trkpt lat="44.64641" lon="3.43527">
        <ele>1077.62</ele>
        <time>2024-11-05T10:39:16.894Z</time>
      </trkpt>
      <trkpt lat="44.64634" lon="3.43519">
        <ele>1077.72</ele>
        <time>2024-11-05T10:39:21.162Z</time>
      </trkpt>
      <trkpt lat="44.64627" lon="3.43511">
        <ele>1077.8</ele>
        <time>2024-11-05T10:39:25.432Z</time>
      </trkpt>
      <trkpt lat="44.64603" lon="3.43483">
        <ele>1077.88</ele>
        <time>2024-11-05T10:39:29.707Z</time>
      </trkpt>
      <trkpt lat="44.64592" lon="3.43471">
        <ele>1077.92</ele>
        <time>2024-11-05T10:39:33.984Z</time>
      </trkpt>
      <trkpt lat="44.64585" lon="3.43463">
        <ele>1077.94</ele>
        <time>2024-11-05T10:39:38.262Z</time>
      </trkpt>
      <trkpt lat="44.64583" lon="3.4346">
        <ele>1077.92</ele>
        <time>2024-11-05T10:39:42.541Z</time>
      </trkpt>
      <trkpt lat="44.64579" lon="3.43454">
        <ele>1077.89</ele>
        <time>2024-11-05T10:39:46.821Z</time>
      </trkpt>
      <trkpt lat="44.64576" lon="3.43449">
        <ele>1077.83</ele>
        <time>2024-11-05T10:39:51.101Z</time>
      </trkpt>
      <trkpt lat="44.6457" lon="3.4344">
        <ele>1077.75</ele>
        <time>2024-11-05T10:39:55.383Z</time>
      </trkpt>
      <trkpt lat="44.64567" lon="3.43435">
        <ele>1077.62</ele>
        <time>2024-11-05T10:39:59.666Z</time>
      </trkpt>
      <trkpt lat="44.64564" lon="3.43431">
        <ele>1077.47</ele>
        <time>2024-11-05T10:40:03.949Z</time>
      </trkpt>
      <trkpt lat="44.64561" lon="3.43426">
        <ele>1077.29</ele>
        <time>2024-11-05T10:40:08.233Z</time>
      </trkpt>
      <trkpt lat="44.64558" lon="3.43421">
        <ele>1077.08</ele>
        <time>2024-11-05T10:40:12.518Z</time>
      </trkpt>
      <trkpt lat="44.64555" lon="3.43417">
        <ele>1076.84</ele>
        <time>2024-11-05T10:40:16.804Z</time>
      </trkpt>
      <trkpt lat="44.64552" lon="3.43412">
        <ele>1076.57</ele>
        <time>2024-11-05T10:40:21.090Z</time>
      </trkpt>
      <trkpt lat="44.64546" lon="3.43403">
        <ele>1076.25</ele>
        <time>2024-11-05T10:40:25.378Z</time>
      </trkpt>
      <trkpt lat="44.6454" lon="3.43393">
        <ele>1075.9</ele>
        <time>2024-11-05T10:40:29.667Z</time>
      </trkpt>
      <trkpt lat="44.64527" lon="3.43375">
        <ele>1075.5</ele>
        <time>2024-11-05T10:40:33.959Z</time>
      </trkpt>
      <trkpt lat="44.64515" lon="3.43356">
        <ele>1075.06</ele>
        <time>2024-11-05T10:40:38.254Z</time>
      </trkpt>
      <trkpt lat="44.64501" lon="3.43331">
        <ele>1074.59</ele>
        <time>2024-11-05T10:40:42.553Z</time>
      </trkpt>
      <trkpt lat="44.64498" lon="3.43306">
        <ele>1074.21</ele>
        <time>2024-11-05T10:40:46.854Z</time>
      </trkpt>
      <trkpt lat="44.645" lon="3.43295">
        <ele>1073.78</ele>
        <time>2024-11-05T10:40:51.157Z</time>
      </trkpt>
      <trkpt lat="44.64503" lon="3.43277">
        <ele>1073.32</ele>
        <time>2024-11-05T10:40:55.462Z</time>
      </trkpt>
      <trkpt lat="44.64514" lon="3.43256">
        <ele>1072.9</ele>
        <time>2024-11-05T10:40:59.770Z</time>
      </trkpt>
      <trkpt lat="44.64527" lon="3.43233">
        <ele>1072.42</ele>
        <time>2024-11-05T10:41:04.081Z</time>
      </trkpt>
      <trkpt lat="44.64528" lon="3.43231">
        <ele>1071.9</ele>
        <time>2024-11-05T10:41:08.392Z</time>
      </trkpt>
      <trkpt lat="44.64533" lon="3.43215">
        <ele>1071.34</ele>
        <time>2024-11-05T10:41:12.705Z</time>
      </trkpt>
      <trkpt lat="44.64534" lon="3.43201">
        <ele>1070.75</ele>
        <time>2024-11-05T10:41:17.020Z</time>
      </trkpt>
      <trkpt lat="44.64535" lon="3.43174">
        <ele>1070.13</ele>
        <time>2024-11-05T10:41:21.338Z</time>
      </trkpt>
      <trkpt lat="44.64537" lon="3.43164">
        <ele>1069.52</ele>
        <time>2024-11-05T10:41:25.657Z</time>
      </trkpt>
      <trkpt lat="44.64539" lon="3.43152">
        <ele>1068.88</ele>
        <time>2024-11-05T10:41:29.978Z</time>
      </trkpt>
      <trkpt lat="44.64539" lon="3.4315">
        <ele>1068.25</ele>
        <time>2024-11-05T10:41:34.299Z</time>
      </trkpt>
      <trkpt lat="44.64545" lon="3.43135">
        <ele>1067.62</ele>
        <time>2024-11-05T10:41:38.622Z</time>
      </trkpt>
      <trkpt lat="44.64552" lon="3.43115">
        <ele>1066.97</ele>
        <time>2024-11-05T10:41:42.947Z</time>
      </trkpt>
      <trkpt lat="44.64569" lon="3.43083">
        <ele>1066.28</ele>
        <time>2024-11-05T10:41:47.277Z</time>
      </trkpt>
      <trkpt lat="44.64575" lon="3.43072">
        <ele>1065.6</ele>
        <time>2024-11-05T10:41:51.609Z</time>
      </trkpt>
      <trkpt lat="44.64579" lon="3.43055">
        <ele>1064.87</ele>
        <time>2024-11-05T10:41:55.943Z</time>
      </trkpt>
      <trkpt lat="44.64583" lon="3.43034">
        <ele>1064.18</ele>
        <time>2024-11-05T10:42:00.279Z</time>
      </trkpt>
      <trkpt lat="44.64584" lon="3.4303">
        <ele>1063.51</ele>
        <time>2024-11-05T10:42:04.616Z</time>
      </trkpt>
      <trkpt lat="44.64586" lon="3.43018">
        <ele>1062.86</ele>
        <time>2024-11-05T10:42:08.954Z</time>
      </trkpt>
      <trkpt lat="44.64588" lon="3.43006">
        <ele>1062.21</ele>
        <time>2024-11-05T10:42:13.293Z</time>
      </trkpt>
      <trkpt lat="44.64594" lon="3.42969">
        <ele>1061.54</ele>
        <time>2024-11-05T10:42:17.637Z</time>
      </trkpt>
      <trkpt lat="44.64605" lon="3.42908">
        <ele>1060.83</ele>
        <time>2024-11-05T10:42:21.988Z</time>
      </trkpt>
      <trkpt lat="44.64607" lon="3.42896">
        <ele>1060.18</ele>
        <time>2024-11-05T10:42:26.340Z</time>
      </trkpt>
      <trkpt lat="44.64613" lon="3.42859">
        <ele>1059.5</ele>
        <time>2024-11-05T10:42:30.697Z</time>
      </trkpt>
      <trkpt lat="44.64617" lon="3.42841">
        <ele>1058.86</ele>
        <time>2024-11-05T10:42:35.056Z</time>
      </trkpt>
      <trkpt lat="44.64619" lon="3.42829">
        <ele>1058.25</ele>
        <time>2024-11-05T10:42:39.416Z</time>
      </trkpt>
      <trkpt lat="44.64623" lon="3.42805">
        <ele>1057.65</ele>
        <time>2024-11-05T10:42:43.779Z</time>
      </trkpt>
      <trkpt lat="44.64625" lon="3.42793">
        <ele>1057.08</ele>
        <time>2024-11-05T10:42:48.143Z</time>
      </trkpt>
      <trkpt lat="44.64628" lon="3.42775">
        <ele>1056.51</ele>
        <time>2024-11-05T10:42:52.510Z</time>
      </trkpt>
      <trkpt lat="44.6463" lon="3.42763">
        <ele>1055.96</ele>
        <time>2024-11-05T10:42:56.878Z</time>
      </trkpt>
      <trkpt lat="44.64632" lon="3.42751">
        <ele>1055.44</ele>
        <time>2024-11-05T10:43:01.247Z</time>
      </trkpt>
      <trkpt lat="44.64633" lon="3.42746">
        <ele>1054.95</ele>
        <time>2024-11-05T10:43:05.617Z</time>
      </trkpt>
      <trkpt lat="44.64635" lon="3.42739">
        <ele>1054.49</ele>
        <time>2024-11-05T10:43:09.988Z</time>
      </trkpt>
      <trkpt lat="44.64637" lon="3.42727">
        <ele>1054.02</ele>
        <time>2024-11-05T10:43:14.360Z</time>
      </trkpt>
      <trkpt lat="44.6464" lon="3.42715">
        <ele>1053.59</ele>
        <time>2024-11-05T10:43:18.734Z</time>
      </trkpt>
      <trkpt lat="44.64641" lon="3.42712">
        <ele>1053.19</ele>
        <time>2024-11-05T10:43:23.108Z</time>
      </trkpt>
      <trkpt lat="44.64647" lon="3.42701">
        <ele>1052.81</ele>
        <time>2024-11-05T10:43:27.484Z</time>
      </trkpt>
      <trkpt lat="44.64652" lon="3.42692">
        <ele>1052.45</ele>
        <time>2024-11-05T10:43:31.861Z</time>
      </trkpt>
      <trkpt lat="44.64662" lon="3.42674">
        <ele>1052.12</ele>
        <time>2024-11-05T10:43:36.241Z</time>
      </trkpt>
      <trkpt lat="44.64664" lon="3.42671">
        <ele>1051.81</ele>
        <time>2024-11-05T10:43:40.621Z</time>
      </trkpt>
      <trkpt lat="44.64662" lon="3.42645">
        <ele>1051.54</ele>
        <time>2024-11-05T10:43:45.004Z</time>
      </trkpt>
      <trkpt lat="44.64661" lon="3.42628">
        <ele>1051.29</ele>
        <time>2024-11-05T10:43:49.389Z</time>
      </trkpt>
      <trkpt lat="44.64661" lon="3.42624">
        <ele>1051.06</ele>
        <time>2024-11-05T10:43:53.774Z</time>
      </trkpt>
      <trkpt lat="44.64664" lon="3.42604">
        <ele>1050.85</ele>
        <time>2024-11-05T10:43:58.162Z</time>
      </trkpt>
      <trkpt lat="44.64666" lon="3.42595">
        <ele>1050.67</ele>
        <time>2024-11-05T10:44:02.551Z</time>
      </trkpt>
      <trkpt lat="44.64673" lon="3.4257">
        <ele>1050.51</ele>
        <time>2024-11-05T10:44:06.943Z</time>
      </trkpt>
      <trkpt lat="44.64676" lon="3.42558">
        <ele>1050.36</ele>
        <time>2024-11-05T10:44:11.336Z</time>
      </trkpt>
      <trkpt lat="44.6468" lon="3.42541">
        <ele>1050.22</ele>
        <time>2024-11-05T10:44:15.731Z</time>
      </trkpt>
      <trkpt lat="44.64685" lon="3.42523">
        <ele>1050.11</ele>
        <time>2024-11-05T10:44:20.129Z</time>
      </trkpt>
      <trkpt lat="44.64693" lon="3.42494">
        <ele>1050.05</ele>
        <time>2024-11-05T10:44:24.530Z</time>
      </trkpt>
      <trkpt lat="44.64694" lon="3.42489">
        <ele>1049.99</ele>
        <time>2024-11-05T10:44:28.932Z</time>
      </trkpt>
      <trkpt lat="44.64698" lon="3.42463">
        <ele>1049.94</ele>
        <time>2024-11-05T10:44:33.337Z</time>
      </trkpt>
      <trkpt lat="44.64704" lon="3.42433">
        <ele>1049.89</ele>
        <time>2024-11-05T10:44:37.745Z</time>
      </trkpt>
      <trkpt lat="44.64706" lon="3.4242">
        <ele>1049.89</ele>
        <time>2024-11-05T10:44:42.155Z</time>
      </trkpt>
      <trkpt lat="44.6471" lon="3.42396">
        <ele>1049.88</ele>
        <time>2024-11-05T10:44:46.568Z</time>
      </trkpt>
      <trkpt lat="44.64716" lon="3.42359">
        <ele>1049.85</ele>
        <time>2024-11-05T10:44:50.985Z</time>
      </trkpt>
      <trkpt lat="44.64719" lon="3.42341">
        <ele>1049.86</ele>
        <time>2024-11-05T10:44:55.404Z</time>
      </trkpt>
      <trkpt lat="44.64724" lon="3.42314">
        <ele>1049.9</ele>
        <time>2024-11-05T10:44:59.826Z</time>
      </trkpt>
      <trkpt lat="44.64727" lon="3.42291">
        <ele>1049.98</ele>
        <time>2024-11-05T10:45:04.251Z</time>
      </trkpt>
      <trkpt lat="44.6473" lon="3.42266">
        <ele>1050.09</ele>
        <time>2024-11-05T10:45:08.679Z</time>
      </trkpt>
      <trkpt lat="44.64733" lon="3.42235">
        <ele>1050.22</ele>
        <time>2024-11-05T10:45:13.110Z</time>
      </trkpt>
      <trkpt lat="44.64734" lon="3.4223">
        <ele>1050.33</ele>
        <time>2024-11-05T10:45:17.542Z</time>
      </trkpt>
      <trkpt lat="44.64733" lon="3.42204">
        <ele>1050.47</ele>
        <time>2024-11-05T10:45:21.977Z</time>
      </trkpt>
      <trkpt lat="44.64732" lon="3.42179">
        <ele>1050.59</ele>
        <time>2024-11-05T10:45:26.415Z</time>
      </trkpt>
      <trkpt lat="44.64732" lon="3.42177">
        <ele>1050.72</ele>
        <time>2024-11-05T10:45:30.853Z</time>
      </trkpt>
      <trkpt lat="44.6473" lon="3.42167">
        <ele>1050.86</ele>
        <time>2024-11-05T10:45:35.292Z</time>
      </trkpt>
      <trkpt lat="44.64716" lon="3.42093">
        <ele>1051.02</ele>
        <time>2024-11-05T10:45:39.740Z</time>
      </trkpt>
      <trkpt lat="44.64709" lon="3.42057">
        <ele>1051.17</ele>
        <time>2024-11-05T10:45:44.192Z</time>
      </trkpt>
      <trkpt lat="44.64707" lon="3.42047">
        <ele>1051.32</ele>
        <time>2024-11-05T10:45:48.645Z</time>
      </trkpt>
      <trkpt lat="44.64707" lon="3.42032">
        <ele>1051.46</ele>
        <time>2024-11-05T10:45:53.100Z</time>
      </trkpt>
      <trkpt lat="44.64706" lon="3.42001">
        <ele>1051.55</ele>
        <time>2024-11-05T10:45:57.559Z</time>
      </trkpt>
      <trkpt lat="44.64706" lon="3.41995">
        <ele>1051.7</ele>
        <time>2024-11-05T10:46:02.018Z</time>
      </trkpt>
      <trkpt lat="44.64707" lon="3.41988">
        <ele>1051.84</ele>
        <time>2024-11-05T10:46:06.478Z</time>
      </trkpt>
      <trkpt lat="44.64708" lon="3.41975">
        <ele>1051.98</ele>
        <time>2024-11-05T10:46:10.940Z</time>
      </trkpt>
      <trkpt lat="44.6471" lon="3.41951">
        <ele>1052.1</ele>
        <time>2024-11-05T10:46:15.404Z</time>
      </trkpt>
      <trkpt lat="44.6471" lon="3.41947">
        <ele>1052.25</ele>
        <time>2024-11-05T10:46:19.869Z</time>
      </trkpt>
      <trkpt lat="44.64711" lon="3.41947">
        <ele>1052.38</ele>
        <time>2024-11-05T10:46:24.334Z</time>
      </trkpt>
      <trkpt lat="44.64712" lon="3.41939">
        <ele>1052.52</ele>
        <time>2024-11-05T10:46:28.800Z</time>
      </trkpt>
      <trkpt lat="44.64713" lon="3.41927">
        <ele>1052.67</ele>
        <time>2024-11-05T10:46:33.267Z</time>
      </trkpt>
      <trkpt lat="44.64713" lon="3.41922">
        <ele>1052.8</ele>
        <time>2024-11-05T10:46:37.735Z</time>
      </trkpt>
      <trkpt lat="44.64716" lon="3.41909">
        <ele>1052.91</ele>
        <time>2024-11-05T10:46:42.205Z</time>
      </trkpt>
      <trkpt lat="44.64724" lon="3.41879">
        <ele>1053.04</ele>
        <time>2024-11-05T10:46:46.678Z</time>
      </trkpt>
      <trkpt lat="44.64728" lon="3.41861">
        <ele>1053.18</ele>
        <time>2024-11-05T10:46:51.153Z</time>
      </trkpt>
      <trkpt lat="44.64729" lon="3.41858">
        <ele>1053.29</ele>
        <time>2024-11-05T10:46:55.629Z</time>
      </trkpt>
      <trkpt lat="44.64732" lon="3.4185">
        <ele>1053.4</ele>
        <time>2024-11-05T10:47:00.106Z</time>
      </trkpt>
      <trkpt lat="44.64743" lon="3.41822">
        <ele>1053.51</ele>
        <time>2024-11-05T10:47:04.586Z</time>
      </trkpt>
      <trkpt lat="44.64747" lon="3.41811">
        <ele>1053.6</ele>
        <time>2024-11-05T10:47:09.068Z</time>
      </trkpt>
      <trkpt lat="44.64751" lon="3.418">
        <ele>1053.68</ele>
        <time>2024-11-05T10:47:13.551Z</time>
      </trkpt>
      <trkpt lat="44.64759" lon="3.41778">
        <ele>1053.75</ele>
        <time>2024-11-05T10:47:18.037Z</time>
      </trkpt>
      <trkpt lat="44.64764" lon="3.41767">
        <ele>1053.79</ele>
        <time>2024-11-05T10:47:22.525Z</time>
      </trkpt>
      <trkpt lat="44.64768" lon="3.41756">
        <ele>1053.83</ele>
        <time>2024-11-05T10:47:27.014Z</time>
      </trkpt>
      <trkpt lat="44.64769" lon="3.41752">
        <ele>1053.88</ele>
        <time>2024-11-05T10:47:31.503Z</time>
      </trkpt>
      <trkpt lat="44.64769" lon="3.41743">
        <ele>1053.93</ele>
        <time>2024-11-05T10:47:35.993Z</time>
      </trkpt>
      <trkpt lat="44.6477" lon="3.4173">
        <ele>1053.95</ele>
        <time>2024-11-05T10:47:40.485Z</time>
      </trkpt>
      <trkpt lat="44.64765" lon="3.41721">
        <ele>1054</ele>
        <time>2024-11-05T10:47:44.978Z</time>
      </trkpt>
      <trkpt lat="44.64762" lon="3.41716">
        <ele>1054.04</ele>
        <time>2024-11-05T10:47:49.472Z</time>
      </trkpt>
      <trkpt lat="44.64759" lon="3.41711">
        <ele>1054.07</ele>
        <time>2024-11-05T10:47:53.967Z</time>
      </trkpt>
      <trkpt lat="44.6475" lon="3.41698">
        <ele>1054.11</ele>
        <time>2024-11-05T10:47:58.464Z</time>
      </trkpt>
      <trkpt lat="44.64743" lon="3.41689">
        <ele>1054.14</ele>
        <time>2024-11-05T10:48:02.962Z</time>
      </trkpt>
      <trkpt lat="44.64736" lon="3.41679">
        <ele>1054.17</ele>
        <time>2024-11-05T10:48:07.462Z</time>
      </trkpt>
      <trkpt lat="44.6472" lon="3.41649">
        <ele>1054.16</ele>
        <time>2024-11-05T10:48:11.966Z</time>
      </trkpt>
      <trkpt lat="44.64691" lon="3.41612">
        <ele>1054.2</ele>
        <time>2024-11-05T10:48:16.476Z</time>
      </trkpt>
      <trkpt lat="44.64686" lon="3.41606">
        <ele>1054.23</ele>
        <time>2024-11-05T10:48:20.988Z</time>
      </trkpt>
      <trkpt lat="44.64675" lon="3.41598">
        <ele>1054.28</ele>
        <time>2024-11-05T10:48:25.501Z</time>
      </trkpt>
      <trkpt lat="44.64663" lon="3.416">
        <ele>1054.33</ele>
        <time>2024-11-05T10:48:30.016Z</time>
      </trkpt>
      <trkpt lat="44.64658" lon="3.41602">
        <ele>1054.38</ele>
        <time>2024-11-05T10:48:34.532Z</time>
      </trkpt>
      <trkpt lat="44.64641" lon="3.41611">
        <ele>1054.42</ele>
        <time>2024-11-05T10:48:39.051Z</time>
      </trkpt>
      <trkpt lat="44.64637" lon="3.41612">
        <ele>1054.48</ele>
        <time>2024-11-05T10:48:43.571Z</time>
      </trkpt>
      <trkpt lat="44.64629" lon="3.41615">
        <ele>1054.53</ele>
        <time>2024-11-05T10:48:48.092Z</time>
      </trkpt>
      <trkpt lat="44.6462" lon="3.41613">
        <ele>1054.58</ele>
        <time>2024-11-05T10:48:52.615Z</time>
      </trkpt>
      <trkpt lat="44.64615" lon="3.41611">
        <ele>1054.64</ele>
        <time>2024-11-05T10:48:57.138Z</time>
      </trkpt>
      <trkpt lat="44.64611" lon="3.41608">
        <ele>1054.73</ele>
        <time>2024-11-05T10:49:01.662Z</time>
      </trkpt>
      <trkpt lat="44.64603" lon="3.41604">
        <ele>1054.82</ele>
        <time>2024-11-05T10:49:06.187Z</time>
      </trkpt>
      <trkpt lat="44.64603" lon="3.41604">
        <ele>1054.92</ele>
        <time>2024-11-05T10:49:10.713Z</time>
      </trkpt>
      <trkpt lat="44.64599" lon="3.416">
        <ele>1055.04</ele>
        <time>2024-11-05T10:49:15.239Z</time>
      </trkpt>
      <trkpt lat="44.64592" lon="3.41593">
        <ele>1055.16</ele>
        <time>2024-11-05T10:49:19.767Z</time>
      </trkpt>
      <trkpt lat="44.64585" lon="3.41585">
        <ele>1055.3</ele>
        <time>2024-11-05T10:49:24.296Z</time>
      </trkpt>
      <trkpt lat="44.64578" lon="3.41577">
        <ele>1055.45</ele>
        <time>2024-11-05T10:49:28.827Z</time>
      </trkpt>
      <trkpt lat="44.64556" lon="3.41555">
        <ele>1055.65</ele>
        <time>2024-11-05T10:49:33.362Z</time>
      </trkpt>
      <trkpt lat="44.64546" lon="3.41544">
        <ele>1055.81</ele>
        <time>2024-11-05T10:49:37.899Z</time>
      </trkpt>
      <trkpt lat="44.64532" lon="3.4154">
        <ele>1055.99</ele>
        <time>2024-11-05T10:49:42.438Z</time>
      </trkpt>
      <trkpt lat="44.64523" lon="3.41538">
        <ele>1056.16</ele>
        <time>2024-11-05T10:49:46.979Z</time>
      </trkpt>
      <trkpt lat="44.64515" lon="3.41536">
        <ele>1056.35</ele>
        <time>2024-11-05T10:49:51.521Z</time>
      </trkpt>
      <trkpt lat="44.6451" lon="3.41535">
        <ele>1056.56</ele>
        <time>2024-11-05T10:49:56.064Z</time>
      </trkpt>
      <trkpt lat="44.64501" lon="3.41532">
        <ele>1056.77</ele>
        <time>2024-11-05T10:50:00.608Z</time>
      </trkpt>
      <trkpt lat="44.64488" lon="3.41529">
        <ele>1056.99</ele>
        <time>2024-11-05T10:50:05.154Z</time>
      </trkpt>
      <trkpt lat="44.64476" lon="3.41521">
        <ele>1057.22</ele>
        <time>2024-11-05T10:50:09.703Z</time>
      </trkpt>
      <trkpt lat="44.64472" lon="3.41519">
        <ele>1057.49</ele>
        <time>2024-11-05T10:50:14.252Z</time>
      </trkpt>
      <trkpt lat="44.64469" lon="3.41514">
        <ele>1057.78</ele>
        <time>2024-11-05T10:50:18.802Z</time>
      </trkpt>
      <trkpt lat="44.64462" lon="3.41504">
        <ele>1058.1</ele>
        <time>2024-11-05T10:50:23.353Z</time>
      </trkpt>
      <trkpt lat="44.64466" lon="3.41478">
        <ele>1058.42</ele>
        <time>2024-11-05T10:50:27.908Z</time>
      </trkpt>
      <trkpt lat="44.64468" lon="3.41475">
        <ele>1058.72</ele>
        <time>2024-11-05T10:50:32.463Z</time>
      </trkpt>
      <trkpt lat="44.6448" lon="3.41449">
        <ele>1059.06</ele>
        <time>2024-11-05T10:50:37.022Z</time>
      </trkpt>
      <trkpt lat="44.64485" lon="3.41439">
        <ele>1059.4</ele>
        <time>2024-11-05T10:50:41.582Z</time>
      </trkpt>
      <trkpt lat="44.6449" lon="3.41428">
        <ele>1059.75</ele>
        <time>2024-11-05T10:50:46.143Z</time>
      </trkpt>
      <trkpt lat="44.64493" lon="3.41423">
        <ele>1060.09</ele>
        <time>2024-11-05T10:50:50.705Z</time>
      </trkpt>
      <trkpt lat="44.64495" lon="3.41418">
        <ele>1060.44</ele>
        <time>2024-11-05T10:50:55.268Z</time>
      </trkpt>
      <trkpt lat="44.64497" lon="3.41412">
        <ele>1060.8</ele>
        <time>2024-11-05T10:50:59.832Z</time>
      </trkpt>
      <trkpt lat="44.64503" lon="3.41395">
        <ele>1061.2</ele>
        <time>2024-11-05T10:51:04.398Z</time>
      </trkpt>
      <trkpt lat="44.64509" lon="3.41378">
        <ele>1061.56</ele>
        <time>2024-11-05T10:51:08.966Z</time>
      </trkpt>
      <trkpt lat="44.64511" lon="3.41359">
        <ele>1061.95</ele>
        <time>2024-11-05T10:51:13.536Z</time>
      </trkpt>
      <trkpt lat="44.64512" lon="3.41353">
        <ele>1062.32</ele>
        <time>2024-11-05T10:51:18.107Z</time>
      </trkpt>
      <trkpt lat="44.64512" lon="3.41349">
        <ele>1062.7</ele>
        <time>2024-11-05T10:51:22.678Z</time>
      </trkpt>
      <trkpt lat="44.6451" lon="3.41341">
        <ele>1063.1</ele>
        <time>2024-11-05T10:51:27.250Z</time>
      </trkpt>
      <trkpt lat="44.64506" lon="3.4133">
        <ele>1063.5</ele>
        <time>2024-11-05T10:51:31.824Z</time>
      </trkpt>
      <trkpt lat="44.64505" lon="3.41325">
        <ele>1063.89</ele>
        <time>2024-11-05T10:51:36.398Z</time>
      </trkpt>
      <trkpt lat="44.6449" lon="3.41313">
        <ele>1064.32</ele>
        <time>2024-11-05T10:51:40.975Z</time>
      </trkpt>
      <trkpt lat="44.64475" lon="3.41314">
        <ele>1064.75</ele>
        <time>2024-11-05T10:51:45.554Z</time>
      </trkpt>
      <trkpt lat="44.64462" lon="3.41315">
        <ele>1065.15</ele>
        <time>2024-11-05T10:51:50.136Z</time>
      </trkpt>
      <trkpt lat="44.64444" lon="3.41317">
        <ele>1065.56</ele>
        <time>2024-11-05T10:51:54.720Z</time>
      </trkpt>
      <trkpt lat="44.64435" lon="3.41318">
        <ele>1065.95</ele>
        <time>2024-11-05T10:51:59.306Z</time>
      </trkpt>
      <trkpt lat="44.64426" lon="3.41318">
        <ele>1066.32</ele>
        <time>2024-11-05T10:52:03.893Z</time>
      </trkpt>
      <trkpt lat="44.64417" lon="3.41319">
        <ele>1066.69</ele>
        <time>2024-11-05T10:52:08.482Z</time>
      </trkpt>
      <trkpt lat="44.64413" lon="3.4132">
        <ele>1067.05</ele>
        <time>2024-11-05T10:52:13.071Z</time>
      </trkpt>
      <trkpt lat="44.64407" lon="3.4132">
        <ele>1067.4</ele>
        <time>2024-11-05T10:52:17.661Z</time>
      </trkpt>
      <trkpt lat="44.64404" lon="3.41321">
        <ele>1067.74</ele>
        <time>2024-11-05T10:52:22.252Z</time>
      </trkpt>
      <trkpt lat="44.64387" lon="3.41324">
        <ele>1068.08</ele>
        <time>2024-11-05T10:52:26.846Z</time>
      </trkpt>
      <trkpt lat="44.64347" lon="3.41332">
        <ele>1068.45</ele>
        <time>2024-11-05T10:52:31.446Z</time>
      </trkpt>
      <trkpt lat="44.64338" lon="3.41334">
        <ele>1068.75</ele>
        <time>2024-11-05T10:52:36.047Z</time>
      </trkpt>
      <trkpt lat="44.64301" lon="3.41355">
        <ele>1069.04</ele>
        <time>2024-11-05T10:52:40.655Z</time>
      </trkpt>
      <trkpt lat="44.64289" lon="3.41362">
        <ele>1069.34</ele>
        <time>2024-11-05T10:52:45.265Z</time>
      </trkpt>
      <trkpt lat="44.6428" lon="3.41367">
        <ele>1069.64</ele>
        <time>2024-11-05T10:52:49.876Z</time>
      </trkpt>
      <trkpt lat="44.64272" lon="3.41381">
        <ele>1069.96</ele>
        <time>2024-11-05T10:52:54.489Z</time>
      </trkpt>
      <trkpt lat="44.64268" lon="3.41388">
        <ele>1070.21</ele>
        <time>2024-11-05T10:52:59.104Z</time>
      </trkpt>
      <trkpt lat="44.64266" lon="3.41389">
        <ele>1070.45</ele>
        <time>2024-11-05T10:53:03.719Z</time>
      </trkpt>
      <trkpt lat="44.64261" lon="3.41391">
        <ele>1070.67</ele>
        <time>2024-11-05T10:53:08.335Z</time>
      </trkpt>
      <trkpt lat="44.64254" lon="3.41392">
        <ele>1070.86</ele>
        <time>2024-11-05T10:53:12.952Z</time>
      </trkpt>
      <trkpt lat="44.6425" lon="3.4139">
        <ele>1071.07</ele>
        <time>2024-11-05T10:53:17.569Z</time>
      </trkpt>
      <trkpt lat="44.64245" lon="3.41388">
        <ele>1071.26</ele>
        <time>2024-11-05T10:53:22.187Z</time>
      </trkpt>
      <trkpt lat="44.64242" lon="3.41386">
        <ele>1071.45</ele>
        <time>2024-11-05T10:53:26.806Z</time>
      </trkpt>
      <trkpt lat="44.64235" lon="3.41381">
        <ele>1071.63</ele>
        <time>2024-11-05T10:53:31.426Z</time>
      </trkpt>
      <trkpt lat="44.64234" lon="3.4138">
        <ele>1071.8</ele>
        <time>2024-11-05T10:53:36.046Z</time>
      </trkpt>
      <trkpt lat="44.64231" lon="3.41373">
        <ele>1071.98</ele>
        <time>2024-11-05T10:53:40.667Z</time>
      </trkpt>
      <trkpt lat="44.64231" lon="3.41369">
        <ele>1072.14</ele>
        <time>2024-11-05T10:53:45.289Z</time>
      </trkpt>
      <trkpt lat="44.64231" lon="3.41346">
        <ele>1072.32</ele>
        <time>2024-11-05T10:53:49.913Z</time>
      </trkpt>
      <trkpt lat="44.64241" lon="3.41322">
        <ele>1072.43</ele>
        <time>2024-11-05T10:53:54.540Z</time>
      </trkpt>
      <trkpt lat="44.64241" lon="3.4131">
        <ele>1072.56</ele>
        <time>2024-11-05T10:53:59.169Z</time>
      </trkpt>
      <trkpt lat="44.64242" lon="3.41294">
        <ele>1072.69</ele>
        <time>2024-11-05T10:54:03.800Z</time>
      </trkpt>
      <trkpt lat="44.6424" lon="3.41279">
        <ele>1072.81</ele>
        <time>2024-11-05T10:54:08.432Z</time>
      </trkpt>
      <trkpt lat="44.64238" lon="3.41258">
        <ele>1072.91</ele>
        <time>2024-11-05T10:54:13.067Z</time>
      </trkpt>
      <trkpt lat="44.64234" lon="3.41249">
        <ele>1073.05</ele>
        <time>2024-11-05T10:54:17.703Z</time>
      </trkpt>
      <trkpt lat="44.64225" lon="3.41232">
        <ele>1073.17</ele>
        <time>2024-11-05T10:54:22.341Z</time>
      </trkpt>
      <trkpt lat="44.64223" lon="3.4123">
        <ele>1073.3</ele>
        <time>2024-11-05T10:54:26.980Z</time>
      </trkpt>
      <trkpt lat="44.64214" lon="3.41225">
        <ele>1073.45</ele>
        <time>2024-11-05T10:54:31.620Z</time>
      </trkpt>
      <trkpt lat="44.64198" lon="3.41215">
        <ele>1073.62</ele>
        <time>2024-11-05T10:54:36.263Z</time>
      </trkpt>
      <trkpt lat="44.64186" lon="3.41207">
        <ele>1073.74</ele>
        <time>2024-11-05T10:54:40.908Z</time>
      </trkpt>
      <trkpt lat="44.64174" lon="3.41199">
        <ele>1073.86</ele>
        <time>2024-11-05T10:54:45.555Z</time>
      </trkpt>
      <trkpt lat="44.64152" lon="3.41185">
        <ele>1073.98</ele>
        <time>2024-11-05T10:54:50.206Z</time>
      </trkpt>
      <trkpt lat="44.6415" lon="3.41183">
        <ele>1074.12</ele>
        <time>2024-11-05T10:54:54.858Z</time>
      </trkpt>
      <trkpt lat="44.64142" lon="3.41177">
        <ele>1074.27</ele>
        <time>2024-11-05T10:54:59.511Z</time>
      </trkpt>
      <trkpt lat="44.64135" lon="3.41172">
        <ele>1074.44</ele>
        <time>2024-11-05T10:55:04.165Z</time>
      </trkpt>
      <trkpt lat="44.64131" lon="3.41166">
        <ele>1074.61</ele>
        <time>2024-11-05T10:55:08.820Z</time>
      </trkpt>
      <trkpt lat="44.64118" lon="3.41149">
        <ele>1074.78</ele>
        <time>2024-11-05T10:55:13.478Z</time>
      </trkpt>
      <trkpt lat="44.64115" lon="3.41145">
        <ele>1074.97</ele>
        <time>2024-11-05T10:55:18.137Z</time>
      </trkpt>
      <trkpt lat="44.64113" lon="3.41142">
        <ele>1075.17</ele>
        <time>2024-11-05T10:55:22.796Z</time>
      </trkpt>
      <trkpt lat="44.6411" lon="3.41135">
        <ele>1075.38</ele>
        <time>2024-11-05T10:55:27.456Z</time>
      </trkpt>
      <trkpt lat="44.641" lon="3.41113">
        <ele>1075.6</ele>
        <time>2024-11-05T10:55:32.119Z</time>
      </trkpt>
      <trkpt lat="44.64099" lon="3.41108">
        <ele>1075.84</ele>
        <time>2024-11-05T10:55:36.783Z</time>
      </trkpt>
      <trkpt lat="44.64096" lon="3.41096">
        <ele>1076.09</ele>
        <time>2024-11-05T10:55:41.448Z</time>
      </trkpt>
      <trkpt lat="44.64094" lon="3.4109">
        <ele>1076.37</ele>
        <time>2024-11-05T10:55:46.114Z</time>
      </trkpt>
      <trkpt lat="44.64096" lon="3.41078">
        <ele>1076.65</ele>
        <time>2024-11-05T10:55:50.782Z</time>
      </trkpt>
      <trkpt lat="44.64098" lon="3.41069">
        <ele>1076.98</ele>
        <time>2024-11-05T10:55:55.451Z</time>
      </trkpt>
      <trkpt lat="44.64099" lon="3.41066">
        <ele>1077.31</ele>
        <time>2024-11-05T10:56:00.120Z</time>
      </trkpt>
      <trkpt lat="44.64104" lon="3.41055">
        <ele>1077.67</ele>
        <time>2024-11-05T10:56:04.790Z</time>
      </trkpt>
      <trkpt lat="44.64118" lon="3.41023">
        <ele>1078.06</ele>
        <time>2024-11-05T10:56:09.465Z</time>
      </trkpt>
      <trkpt lat="44.64124" lon="3.41008">
        <ele>1078.46</ele>
        <time>2024-11-05T10:56:14.142Z</time>
      </trkpt>
      <trkpt lat="44.64131" lon="3.40984">
        <ele>1078.88</ele>
        <time>2024-11-05T10:56:18.822Z</time>
      </trkpt>
      <trkpt lat="44.64133" lon="3.40978">
        <ele>1079.31</ele>
        <time>2024-11-05T10:56:23.502Z</time>
      </trkpt>
      <trkpt lat="44.64133" lon="3.40953">
        <ele>1079.82</ele>
        <time>2024-11-05T10:56:28.185Z</time>
      </trkpt>
      <trkpt lat="44.64134" lon="3.40922">
        <ele>1080.31</ele>
        <time>2024-11-05T10:56:32.872Z</time>
      </trkpt>
      <trkpt lat="44.64131" lon="3.4091">
        <ele>1080.8</ele>
        <time>2024-11-05T10:56:37.560Z</time>
      </trkpt>
      <trkpt lat="44.64126" lon="3.40886">
        <ele>1081.32</ele>
        <time>2024-11-05T10:56:42.251Z</time>
      </trkpt>
      <trkpt lat="44.64124" lon="3.40879">
        <ele>1081.82</ele>
        <time>2024-11-05T10:56:46.943Z</time>
      </trkpt>
      <trkpt lat="44.64119" lon="3.40864">
        <ele>1082.33</ele>
        <time>2024-11-05T10:56:51.637Z</time>
      </trkpt>
      <trkpt lat="44.64112" lon="3.40854">
        <ele>1082.87</ele>
        <time>2024-11-05T10:56:56.332Z</time>
      </trkpt>
      <trkpt lat="44.64109" lon="3.4085">
        <ele>1083.4</ele>
        <time>2024-11-05T10:57:01.028Z</time>
      </trkpt>
      <trkpt lat="44.64096" lon="3.40833">
        <ele>1083.96</ele>
        <time>2024-11-05T10:57:05.727Z</time>
      </trkpt>
      <trkpt lat="44.6409" lon="3.40825">
        <ele>1084.52</ele>
        <time>2024-11-05T10:57:10.427Z</time>
      </trkpt>
      <trkpt lat="44.64089" lon="3.40824">
        <ele>1085.06</ele>
        <time>2024-11-05T10:57:15.127Z</time>
      </trkpt>
      <trkpt lat="44.64084" lon="3.40814">
        <ele>1085.62</ele>
        <time>2024-11-05T10:57:19.829Z</time>
      </trkpt>
      <trkpt lat="44.6408" lon="3.40806">
        <ele>1086.17</ele>
        <time>2024-11-05T10:57:24.532Z</time>
      </trkpt>
      <trkpt lat="44.64078" lon="3.40797">
        <ele>1086.72</ele>
        <time>2024-11-05T10:57:29.236Z</time>
      </trkpt>
      <trkpt lat="44.64075" lon="3.40779">
        <ele>1087.25</ele>
        <time>2024-11-05T10:57:33.942Z</time>
      </trkpt>
      <trkpt lat="44.6407" lon="3.40748">
        <ele>1087.82</ele>
        <time>2024-11-05T10:57:38.652Z</time>
      </trkpt>
      <trkpt lat="44.64061" lon="3.40693">
        <ele>1088.41</ele>
        <time>2024-11-05T10:57:43.368Z</time>
      </trkpt>
      <trkpt lat="44.64055" lon="3.40662">
        <ele>1088.95</ele>
        <time>2024-11-05T10:57:48.088Z</time>
      </trkpt>
      <trkpt lat="44.64053" lon="3.4065">
        <ele>1089.43</ele>
        <time>2024-11-05T10:57:52.809Z</time>
      </trkpt>
      <trkpt lat="44.64053" lon="3.4065">
        <ele>1089.89</ele>
        <time>2024-11-05T10:57:57.530Z</time>
      </trkpt>
      <trkpt lat="44.64053" lon="3.4065">
        <ele>1090.33</ele>
        <time>2024-11-05T10:58:02.251Z</time>
      </trkpt>
      <trkpt lat="44.64053" lon="3.4065">
        <ele>1090.74</ele>
        <time>2024-11-05T10:58:06.972Z</time>
      </trkpt>
      <trkpt lat="44.64053" lon="3.4065">
        <ele>1091.14</ele>
        <time>2024-11-05T10:58:11.693Z</time>
      </trkpt>
      <trkpt lat="44.64053" lon="3.4065">
        <ele>1091.5</ele>
        <time>2024-11-05T10:58:16.414Z</time>
      </trkpt>
      <trkpt lat="44.64051" lon="3.4064">
        <ele>1091.84</ele>
        <time>2024-11-05T10:58:21.137Z</time>
      </trkpt>
      <trkpt lat="44.64038" lon="3.40607">
        <ele>1092.15</ele>
        <time>2024-11-05T10:58:25.864Z</time>
      </trkpt>
      <trkpt lat="44.64022" lon="3.40585">
        <ele>1092.38</ele>
        <time>2024-11-05T10:58:30.594Z</time>
      </trkpt>
      <trkpt lat="44.63998" lon="3.40572">
        <ele>1092.62</ele>
        <time>2024-11-05T10:58:35.329Z</time>
      </trkpt>
      <trkpt lat="44.63989" lon="3.40562">
        <ele>1092.85</ele>
        <time>2024-11-05T10:58:40.065Z</time>
      </trkpt>
      <trkpt lat="44.6398" lon="3.40554">
        <ele>1093.04</ele>
        <time>2024-11-05T10:58:44.803Z</time>
      </trkpt>
      <trkpt lat="44.6398" lon="3.4053">
        <ele>1093.19</ele>
        <time>2024-11-05T10:58:49.544Z</time>
      </trkpt>
      <trkpt lat="44.6399" lon="3.40491">
        <ele>1093.28</ele>
        <time>2024-11-05T10:58:54.290Z</time>
      </trkpt>
      <trkpt lat="44.63999" lon="3.40452">
        <ele>1093.31</ele>
        <time>2024-11-05T10:58:59.040Z</time>
      </trkpt>
      <trkpt lat="44.64004" lon="3.40411">
        <ele>1093.32</ele>
        <time>2024-11-05T10:59:03.795Z</time>
      </trkpt>
      <trkpt lat="44.63999" lon="3.40371">
        <ele>1093.24</ele>
        <time>2024-11-05T10:59:08.555Z</time>
      </trkpt>
      <trkpt lat="44.63987" lon="3.40341">
        <ele>1093.12</ele>
        <time>2024-11-05T10:59:13.319Z</time>
      </trkpt>
      <trkpt lat="44.63974" lon="3.4031">
        <ele>1092.92</ele>
        <time>2024-11-05T10:59:18.087Z</time>
      </trkpt>
      <trkpt lat="44.63961" lon="3.4028">
        <ele>1092.77</ele>
        <time>2024-11-05T10:59:22.859Z</time>
      </trkpt>
      <trkpt lat="44.63954" lon="3.40255">
        <ele>1092.59</ele>
        <time>2024-11-05T10:59:27.634Z</time>
      </trkpt>
      <trkpt lat="44.63954" lon="3.40229">
        <ele>1092.32</ele>
        <time>2024-11-05T10:59:32.412Z</time>
      </trkpt>
      <trkpt lat="44.63962" lon="3.40193">
        <ele>1091.95</ele>
        <time>2024-11-05T10:59:37.194Z</time>
      </trkpt>
      <trkpt lat="44.63969" lon="3.40157">
        <ele>1091.6</ele>
        <time>2024-11-05T10:59:41.980Z</time>
      </trkpt>
      <trkpt lat="44.63976" lon="3.40114">
        <ele>1091.28</ele>
        <time>2024-11-05T10:59:46.771Z</time>
      </trkpt>
      <trkpt lat="44.63977" lon="3.40078">
        <ele>1090.83</ele>
        <time>2024-11-05T10:59:51.566Z</time>
      </trkpt>
      <trkpt lat="44.6397" lon="3.40038">
        <ele>1090.28</ele>
        <time>2024-11-05T10:59:56.366Z</time>
      </trkpt>
      <trkpt lat="44.63963" lon="3.39997">
        <ele>1089.64</ele>
        <time>2024-11-05T11:00:01.171Z</time>
      </trkpt>
      <trkpt lat="44.63961" lon="3.3999">
        <ele>1088.98</ele>
        <time>2024-11-05T11:00:05.977Z</time>
      </trkpt>
      <trkpt lat="44.63958" lon="3.39957">
        <ele>1088.23</ele>
        <time>2024-11-05T11:00:10.787Z</time>
      </trkpt>
      <trkpt lat="44.63955" lon="3.39924">
        <ele>1087.42</ele>
        <time>2024-11-05T11:00:15.600Z</time>
      </trkpt>
      <trkpt lat="44.63952" lon="3.39892">
        <ele>1086.63</ele>
        <time>2024-11-05T11:00:20.417Z</time>
      </trkpt>
      <trkpt lat="44.63948" lon="3.39877">
        <ele>1085.78</ele>
        <time>2024-11-05T11:00:25.236Z</time>
      </trkpt>
      <trkpt lat="44.63935" lon="3.39853">
        <ele>1084.87</ele>
        <time>2024-11-05T11:00:30.058Z</time>
      </trkpt>
      <trkpt lat="44.63922" lon="3.39828">
        <ele>1083.91</ele>
        <time>2024-11-05T11:00:34.884Z</time>
      </trkpt>
      <trkpt lat="44.63911" lon="3.3981">
        <ele>1082.84</ele>
        <time>2024-11-05T11:00:39.713Z</time>
      </trkpt>
      <trkpt lat="44.63901" lon="3.39791">
        <ele>1081.69</ele>
        <time>2024-11-05T11:00:44.544Z</time>
      </trkpt>
      <trkpt lat="44.63904" lon="3.39773">
        <ele>1080.57</ele>
        <time>2024-11-05T11:00:49.377Z</time>
      </trkpt>
      <trkpt lat="44.63899" lon="3.39757">
        <ele>1079.37</ele>
        <time>2024-11-05T11:00:54.213Z</time>
      </trkpt>
      <trkpt lat="44.63907" lon="3.39715">
        <ele>1078.14</ele>
        <time>2024-11-05T11:00:59.053Z</time>
      </trkpt>
      <trkpt lat="44.639" lon="3.39704">
        <ele>1076.86</ele>
        <time>2024-11-05T11:01:03.895Z</time>
      </trkpt>
      <trkpt lat="44.6388" lon="3.39732">
        <ele>1075.61</ele>
        <time>2024-11-05T11:01:08.742Z</time>
      </trkpt>
      <trkpt lat="44.63861" lon="3.3976">
        <ele>1074.33</ele>
        <time>2024-11-05T11:01:13.593Z</time>
      </trkpt>
      <trkpt lat="44.63852" lon="3.39762">
        <ele>1073.02</ele>
        <time>2024-11-05T11:01:18.445Z</time>
      </trkpt>
      <trkpt lat="44.63863" lon="3.39733">
        <ele>1071.68</ele>
        <time>2024-11-05T11:01:23.301Z</time>
      </trkpt>
      <trkpt lat="44.63873" lon="3.39703">
        <ele>1070.31</ele>
        <time>2024-11-05T11:01:28.161Z</time>
      </trkpt>
      <trkpt lat="44.63884" lon="3.39674">
        <ele>1068.94</ele>
        <time>2024-11-05T11:01:33.025Z</time>
      </trkpt>
      <trkpt lat="44.63899" lon="3.39638">
        <ele>1067.56</ele>
        <time>2024-11-05T11:01:37.893Z</time>
      </trkpt>
      <trkpt lat="44.63914" lon="3.39602">
        <ele>1066.16</ele>
        <time>2024-11-05T11:01:42.766Z</time>
      </trkpt>
      <trkpt lat="44.63923" lon="3.39582">
        <ele>1064.76</ele>
        <time>2024-11-05T11:01:47.642Z</time>
      </trkpt>
      <trkpt lat="44.63933" lon="3.39562">
        <ele>1063.35</ele>
        <time>2024-11-05T11:01:52.521Z</time>
      </trkpt>
      <trkpt lat="44.63943" lon="3.39549">
        <ele>1062</ele>
        <time>2024-11-05T11:01:57.402Z</time>
      </trkpt>
      <trkpt lat="44.63958" lon="3.39537">
        <ele>1060.62</ele>
        <time>2024-11-05T11:02:02.286Z</time>
      </trkpt>
      <trkpt lat="44.63978" lon="3.39527">
        <ele>1059.28</ele>
        <time>2024-11-05T11:02:07.173Z</time>
      </trkpt>
      <trkpt lat="44.63998" lon="3.39517">
        <ele>1057.89</ele>
        <time>2024-11-05T11:02:12.063Z</time>
      </trkpt>
      <trkpt lat="44.64018" lon="3.39508">
        <ele>1056.54</ele>
        <time>2024-11-05T11:02:16.957Z</time>
      </trkpt>
      <trkpt lat="44.64042" lon="3.39512">
        <ele>1055.26</ele>
        <time>2024-11-05T11:02:21.855Z</time>
      </trkpt>
      <trkpt lat="44.64068" lon="3.39498">
        <ele>1053.92</ele>
        <time>2024-11-05T11:02:26.757Z</time>
      </trkpt>
      <trkpt lat="44.6409" lon="3.39497">
        <ele>1052.65</ele>
        <time>2024-11-05T11:02:31.663Z</time>
      </trkpt>
      <trkpt lat="44.64099" lon="3.39504">
        <ele>1051.44</ele>
        <time>2024-11-05T11:02:36.570Z</time>
      </trkpt>
      <trkpt lat="44.64099" lon="3.39504">
        <ele>1050.3</ele>
        <time>2024-11-05T11:02:41.477Z</time>
      </trkpt>
      <trkpt lat="44.64108" lon="3.39511">
        <ele>1049.18</ele>
        <time>2024-11-05T11:02:46.386Z</time>
      </trkpt>
      <trkpt lat="44.64125" lon="3.39536">
        <ele>1048.1</ele>
        <time>2024-11-05T11:02:51.299Z</time>
      </trkpt>
      <trkpt lat="44.64142" lon="3.3956">
        <ele>1047.06</ele>
        <time>2024-11-05T11:02:56.216Z</time>
      </trkpt>
      <trkpt lat="44.64158" lon="3.39574">
        <ele>1046.03</ele>
        <time>2024-11-05T11:03:01.136Z</time>
      </trkpt>
      <trkpt lat="44.64176" lon="3.39581">
        <ele>1045.01</ele>
        <time>2024-11-05T11:03:06.059Z</time>
      </trkpt>
      <trkpt lat="44.64202" lon="3.39582">
        <ele>1044.02</ele>
        <time>2024-11-05T11:03:10.986Z</time>
      </trkpt>
      <trkpt lat="44.64218" lon="3.39571">
        <ele>1043.11</ele>
        <time>2024-11-05T11:03:15.916Z</time>
      </trkpt>
      <trkpt lat="44.64226" lon="3.39563">
        <ele>1042.32</ele>
        <time>2024-11-05T11:03:20.847Z</time>
      </trkpt>
      <trkpt lat="44.64238" lon="3.39546">
        <ele>1041.62</ele>
        <time>2024-11-05T11:03:25.781Z</time>
      </trkpt>
      <trkpt lat="44.64255" lon="3.39511">
        <ele>1041.01</ele>
        <time>2024-11-05T11:03:30.720Z</time>
      </trkpt>
      <trkpt lat="44.6426" lon="3.39498">
        <ele>1040.51</ele>
        <time>2024-11-05T11:03:35.661Z</time>
      </trkpt>
      <trkpt lat="44.64263" lon="3.39482">
        <ele>1040.06</ele>
        <time>2024-11-05T11:03:40.604Z</time>
      </trkpt>
      <trkpt lat="44.64262" lon="3.39443">
        <ele>1039.7</ele>
        <time>2024-11-05T11:03:45.551Z</time>
      </trkpt>
      <trkpt lat="44.64267" lon="3.39419">
        <ele>1039.38</ele>
        <time>2024-11-05T11:03:50.501Z</time>
      </trkpt>
      <trkpt lat="44.64271" lon="3.39395">
        <ele>1039.09</ele>
        <time>2024-11-05T11:03:55.454Z</time>
      </trkpt>
      <trkpt lat="44.64278" lon="3.39364">
        <ele>1038.86</ele>
        <time>2024-11-05T11:04:00.410Z</time>
      </trkpt>
      <trkpt lat="44.64286" lon="3.39346">
        <ele>1038.67</ele>
        <time>2024-11-05T11:04:05.369Z</time>
      </trkpt>
      <trkpt lat="44.64302" lon="3.39327">
        <ele>1038.57</ele>
        <time>2024-11-05T11:04:10.331Z</time>
      </trkpt>
      <trkpt lat="44.64312" lon="3.39303">
        <ele>1038.52</ele>
        <time>2024-11-05T11:04:15.296Z</time>
      </trkpt>
      <trkpt lat="44.64322" lon="3.39279">
        <ele>1038.5</ele>
        <time>2024-11-05T11:04:20.265Z</time>
      </trkpt>
      <trkpt lat="44.64331" lon="3.39261">
        <ele>1038.55</ele>
        <time>2024-11-05T11:04:25.236Z</time>
      </trkpt>
      <trkpt lat="44.6434" lon="3.39247">
        <ele>1038.64</ele>
        <time>2024-11-05T11:04:30.209Z</time>
      </trkpt>
      <trkpt lat="44.64352" lon="3.39233">
        <ele>1038.78</ele>
        <time>2024-11-05T11:04:35.185Z</time>
      </trkpt>
      <trkpt lat="44.64361" lon="3.39219">
        <ele>1038.94</ele>
        <time>2024-11-05T11:04:40.163Z</time>
      </trkpt>
      <trkpt lat="44.64369" lon="3.39198">
        <ele>1039.13</ele>
        <time>2024-11-05T11:04:45.144Z</time>
      </trkpt>
      <trkpt lat="44.64376" lon="3.39176">
        <ele>1039.34</ele>
        <time>2024-11-05T11:04:50.127Z</time>
      </trkpt>
      <trkpt lat="44.64385" lon="3.39156">
        <ele>1039.59</ele>
        <time>2024-11-05T11:04:55.113Z</time>
      </trkpt>
      <trkpt lat="44.64394" lon="3.39135">
        <ele>1039.86</ele>
        <time>2024-11-05T11:05:00.102Z</time>
      </trkpt>
      <trkpt lat="44.64414" lon="3.39124">
        <ele>1040.16</ele>
        <time>2024-11-05T11:05:05.094Z</time>
      </trkpt>
      <trkpt lat="44.64431" lon="3.3912">
        <ele>1040.47</ele>
        <time>2024-11-05T11:05:10.089Z</time>
      </trkpt>
      <trkpt lat="44.64446" lon="3.39121">
        <ele>1040.78</ele>
        <time>2024-11-05T11:05:15.086Z</time>
      </trkpt>
      <trkpt lat="44.64468" lon="3.3912">
        <ele>1041.12</ele>
        <time>2024-11-05T11:05:20.087Z</time>
      </trkpt>
      <trkpt lat="44.64491" lon="3.39119">
        <ele>1041.48</ele>
        <time>2024-11-05T11:05:25.092Z</time>
      </trkpt>
      <trkpt lat="44.6451" lon="3.39119">
        <ele>1041.87</ele>
        <time>2024-11-05T11:05:30.100Z</time>
      </trkpt>
      <trkpt lat="44.64529" lon="3.39119">
        <ele>1042.23</ele>
        <time>2024-11-05T11:05:35.111Z</time>
      </trkpt>
      <trkpt lat="44.64544" lon="3.39116">
        <ele>1042.56</ele>
        <time>2024-11-05T11:05:40.124Z</time>
      </trkpt>
      <trkpt lat="44.64565" lon="3.39102">
        <ele>1042.86</ele>
        <time>2024-11-05T11:05:45.141Z</time>
      </trkpt>
      <trkpt lat="44.64578" lon="3.39085">
        <ele>1043.22</ele>
        <time>2024-11-05T11:05:50.161Z</time>
      </trkpt>
      <trkpt lat="44.64591" lon="3.39068">
        <ele>1043.61</ele>
        <time>2024-11-05T11:05:55.184Z</time>
      </trkpt>
      <trkpt lat="44.64599" lon="3.39052">
        <ele>1044.03</ele>
        <time>2024-11-05T11:06:00.209Z</time>
      </trkpt>
      <trkpt lat="44.64612" lon="3.39039">
        <ele>1044.48</ele>
        <time>2024-11-05T11:06:05.236Z</time>
      </trkpt>
      <trkpt lat="44.6463" lon="3.39007">
        <ele>1044.98</ele>
        <time>2024-11-05T11:06:10.268Z</time>
      </trkpt>
      <trkpt lat="44.64651" lon="3.38987">
        <ele>1045.49</ele>
        <time>2024-11-05T11:06:15.304Z</time>
      </trkpt>
      <trkpt lat="44.64672" lon="3.38975">
        <ele>1045.99</ele>
        <time>2024-11-05T11:06:20.344Z</time>
      </trkpt>
      <trkpt lat="44.64699" lon="3.38966">
        <ele>1046.43</ele>
        <time>2024-11-05T11:06:25.388Z</time>
      </trkpt>
      <trkpt lat="44.64726" lon="3.38957">
        <ele>1046.86</ele>
        <time>2024-11-05T11:06:30.437Z</time>
      </trkpt>
      <trkpt lat="44.64754" lon="3.38948">
        <ele>1047.34</ele>
        <time>2024-11-05T11:06:35.490Z</time>
      </trkpt>
      <trkpt lat="44.64768" lon="3.38938">
        <ele>1047.74</ele>
        <time>2024-11-05T11:06:40.546Z</time>
      </trkpt>
      <trkpt lat="44.64783" lon="3.38928">
        <ele>1048.12</ele>
        <time>2024-11-05T11:06:45.604Z</time>
      </trkpt>
      <trkpt lat="44.648" lon="3.38903">
        <ele>1048.48</ele>
        <time>2024-11-05T11:06:50.666Z</time>
      </trkpt>
      <trkpt lat="44.64817" lon="3.38877">
        <ele>1048.82</ele>
        <time>2024-11-05T11:06:55.732Z</time>
      </trkpt>
      <trkpt lat="44.64834" lon="3.38852">
        <ele>1049.12</ele>
        <time>2024-11-05T11:07:00.802Z</time>
      </trkpt>
      <trkpt lat="44.64856" lon="3.38837">
        <ele>1049.45</ele>
        <time>2024-11-05T11:07:05.876Z</time>
      </trkpt>
      <trkpt lat="44.64878" lon="3.38822">
        <ele>1049.76</ele>
        <time>2024-11-05T11:07:10.954Z</time>
      </trkpt>
      <trkpt lat="44.64899" lon="3.38806">
        <ele>1050.08</ele>
        <time>2024-11-05T11:07:16.036Z</time>
      </trkpt>
      <trkpt lat="44.64921" lon="3.38791">
        <ele>1050.43</ele>
        <time>2024-11-05T11:07:21.122Z</time>
      </trkpt>
      <trkpt lat="44.64945" lon="3.38764">
        <ele>1050.73</ele>
        <time>2024-11-05T11:07:26.213Z</time>
      </trkpt>
      <trkpt lat="44.64968" lon="3.38736">
        <ele>1050.96</ele>
        <time>2024-11-05T11:07:31.309Z</time>
      </trkpt>
      <trkpt lat="44.64987" lon="3.3871">
        <ele>1051.18</ele>
        <time>2024-11-05T11:07:36.409Z</time>
      </trkpt>
      <trkpt lat="44.65005" lon="3.38684">
        <ele>1051.43</ele>
        <time>2024-11-05T11:07:41.513Z</time>
      </trkpt>
      <trkpt lat="44.65014" lon="3.38649">
        <ele>1051.69</ele>
        <time>2024-11-05T11:07:46.621Z</time>
      </trkpt>
      <trkpt lat="44.65019" lon="3.38621">
        <ele>1051.99</ele>
        <time>2024-11-05T11:07:51.732Z</time>
      </trkpt>
      <trkpt lat="44.65024" lon="3.38594">
        <ele>1052.34</ele>
        <time>2024-11-05T11:07:56.847Z</time>
      </trkpt>
      <trkpt lat="44.65035" lon="3.38554">
        <ele>1052.67</ele>
        <time>2024-11-05T11:08:01.967Z</time>
      </trkpt>
      <trkpt lat="44.65048" lon="3.38539">
        <ele>1053.02</ele>
        <time>2024-11-05T11:08:07.089Z</time>
      </trkpt>
      <trkpt lat="44.65071" lon="3.38532">
        <ele>1053.38</ele>
        <time>2024-11-05T11:08:12.215Z</time>
      </trkpt>
      <trkpt lat="44.65095" lon="3.38532">
        <ele>1053.7</ele>
        <time>2024-11-05T11:08:17.345Z</time>
      </trkpt>
      <trkpt lat="44.65118" lon="3.38532">
        <ele>1054.02</ele>
        <time>2024-11-05T11:08:22.479Z</time>
      </trkpt>
      <trkpt lat="44.65142" lon="3.38531">
        <ele>1054.39</ele>
        <time>2024-11-05T11:08:27.616Z</time>
      </trkpt>
      <trkpt lat="44.65158" lon="3.38516">
        <ele>1054.82</ele>
        <time>2024-11-05T11:08:32.757Z</time>
      </trkpt>
      <trkpt lat="44.65173" lon="3.38499">
        <ele>1055.31</ele>
        <time>2024-11-05T11:08:37.901Z</time>
      </trkpt>
      <trkpt lat="44.65202" lon="3.38491">
        <ele>1055.91</ele>
        <time>2024-11-05T11:08:43.049Z</time>
      </trkpt>
      <trkpt lat="44.6523" lon="3.38489">
        <ele>1056.5</ele>
        <time>2024-11-05T11:08:48.202Z</time>
      </trkpt>
      <trkpt lat="44.65258" lon="3.38488">
        <ele>1057.1</ele>
        <time>2024-11-05T11:08:53.359Z</time>
      </trkpt>
      <trkpt lat="44.65286" lon="3.38487">
        <ele>1057.74</ele>
        <time>2024-11-05T11:08:58.521Z</time>
      </trkpt>
      <trkpt lat="44.65314" lon="3.38503">
        <ele>1058.42</ele>
        <time>2024-11-05T11:09:03.688Z</time>
      </trkpt>
      <trkpt lat="44.65331" lon="3.38516">
        <ele>1059.1</ele>
        <time>2024-11-05T11:09:08.858Z</time>
      </trkpt>
      <trkpt lat="44.65349" lon="3.38528">
        <ele>1059.81</ele>
        <time>2024-11-05T11:09:14.031Z</time>
      </trkpt>
      <trkpt lat="44.65365" lon="3.38552">
        <ele>1060.62</ele>
        <time>2024-11-05T11:09:19.208Z</time>
      </trkpt>
      <trkpt lat="44.65386" lon="3.38566">
        <ele>1061.31</ele>
        <time>2024-11-05T11:09:24.388Z</time>
      </trkpt>
      <trkpt lat="44.65401" lon="3.38566">
        <ele>1062</ele>
        <time>2024-11-05T11:09:29.571Z</time>
      </trkpt>
      <trkpt lat="44.6542" lon="3.3856">
        <ele>1062.72</ele>
        <time>2024-11-05T11:09:34.757Z</time>
      </trkpt>
      <trkpt lat="44.65442" lon="3.38567">
        <ele>1063.52</ele>
        <time>2024-11-05T11:09:39.947Z</time>
      </trkpt>
      <trkpt lat="44.65457" lon="3.38583">
        <ele>1064.39</ele>
        <time>2024-11-05T11:09:45.140Z</time>
      </trkpt>
      <trkpt lat="44.65473" lon="3.386">
        <ele>1065.28</ele>
        <time>2024-11-05T11:09:50.336Z</time>
      </trkpt>
      <trkpt lat="44.65488" lon="3.38614">
        <ele>1066.13</ele>
        <time>2024-11-05T11:09:55.535Z</time>
      </trkpt>
      <trkpt lat="44.65498" lon="3.38618">
        <ele>1066.95</ele>
        <time>2024-11-05T11:10:00.735Z</time>
      </trkpt>
      <trkpt lat="44.65511" lon="3.38611">
        <ele>1067.75</ele>
        <time>2024-11-05T11:10:05.938Z</time>
      </trkpt>
      <trkpt lat="44.65518" lon="3.38597">
        <ele>1068.57</ele>
        <time>2024-11-05T11:10:11.142Z</time>
      </trkpt>
      <trkpt lat="44.65513" lon="3.38559">
        <ele>1069.4</ele>
        <time>2024-11-05T11:10:16.351Z</time>
      </trkpt>
      <trkpt lat="44.6551" lon="3.38535">
        <ele>1070.26</ele>
        <time>2024-11-05T11:10:21.563Z</time>
      </trkpt>
      <trkpt lat="44.65506" lon="3.38511">
        <ele>1071.15</ele>
        <time>2024-11-05T11:10:26.777Z</time>
      </trkpt>
      <trkpt lat="44.65503" lon="3.38478">
        <ele>1072.08</ele>
        <time>2024-11-05T11:10:31.995Z</time>
      </trkpt>
      <trkpt lat="44.65513" lon="3.38443">
        <ele>1073.06</ele>
        <time>2024-11-05T11:10:37.218Z</time>
      </trkpt>
      <trkpt lat="44.65526" lon="3.38414">
        <ele>1074.01</ele>
        <time>2024-11-05T11:10:42.444Z</time>
      </trkpt>
      <trkpt lat="44.65547" lon="3.38395">
        <ele>1074.98</ele>
        <time>2024-11-05T11:10:47.674Z</time>
      </trkpt>
      <trkpt lat="44.6557" lon="3.38374">
        <ele>1075.98</ele>
        <time>2024-11-05T11:10:52.909Z</time>
      </trkpt>
      <trkpt lat="44.65594" lon="3.38353">
        <ele>1076.98</ele>
        <time>2024-11-05T11:10:58.148Z</time>
      </trkpt>
      <trkpt lat="44.65609" lon="3.38344">
        <ele>1077.98</ele>
        <time>2024-11-05T11:11:03.390Z</time>
      </trkpt>
      <trkpt lat="44.65624" lon="3.38334">
        <ele>1078.96</ele>
        <time>2024-11-05T11:11:08.635Z</time>
      </trkpt>
      <trkpt lat="44.65641" lon="3.38332">
        <ele>1079.99</ele>
        <time>2024-11-05T11:11:13.882Z</time>
      </trkpt>
      <trkpt lat="44.65659" lon="3.38331">
        <ele>1080.97</ele>
        <time>2024-11-05T11:11:19.132Z</time>
      </trkpt>
      <trkpt lat="44.65675" lon="3.38335">
        <ele>1081.95</ele>
        <time>2024-11-05T11:11:24.385Z</time>
      </trkpt>
      <trkpt lat="44.65691" lon="3.38339">
        <ele>1082.91</ele>
        <time>2024-11-05T11:11:29.641Z</time>
      </trkpt>
      <trkpt lat="44.65709" lon="3.38367">
        <ele>1083.92</ele>
        <time>2024-11-05T11:11:34.901Z</time>
      </trkpt>
      <trkpt lat="44.65727" lon="3.38385">
        <ele>1084.91</ele>
        <time>2024-11-05T11:11:40.164Z</time>
      </trkpt>
      <trkpt lat="44.65747" lon="3.38389">
        <ele>1085.91</ele>
        <time>2024-11-05T11:11:45.431Z</time>
      </trkpt>
      <trkpt lat="44.65766" lon="3.38393">
        <ele>1086.9</ele>
        <time>2024-11-05T11:11:50.701Z</time>
      </trkpt>
      <trkpt lat="44.65766" lon="3.38393">
        <ele>1087.87</ele>
        <time>2024-11-05T11:11:55.971Z</time>
      </trkpt>
      <trkpt lat="44.65783" lon="3.38397">
        <ele>1088.84</ele>
        <time>2024-11-05T11:12:01.243Z</time>
      </trkpt>
      <trkpt lat="44.658" lon="3.384">
        <ele>1089.8</ele>
        <time>2024-11-05T11:12:06.518Z</time>
      </trkpt>
      <trkpt lat="44.65827" lon="3.38413">
        <ele>1090.79</ele>
        <time>2024-11-05T11:12:11.798Z</time>
      </trkpt>
      <trkpt lat="44.65854" lon="3.38425">
        <ele>1091.78</ele>
        <time>2024-11-05T11:12:17.082Z</time>
      </trkpt>
      <trkpt lat="44.65871" lon="3.38425">
        <ele>1092.71</ele>
        <time>2024-11-05T11:12:22.369Z</time>
      </trkpt>
      <trkpt lat="44.65888" lon="3.38425">
        <ele>1093.65</ele>
        <time>2024-11-05T11:12:27.659Z</time>
      </trkpt>
      <trkpt lat="44.65905" lon="3.38393">
        <ele>1094.51</ele>
        <time>2024-11-05T11:12:32.953Z</time>
      </trkpt>
      <trkpt lat="44.65912" lon="3.38365">
        <ele>1095.38</ele>
        <time>2024-11-05T11:12:38.251Z</time>
      </trkpt>
      <trkpt lat="44.6592" lon="3.38338">
        <ele>1096.28</ele>
        <time>2024-11-05T11:12:43.552Z</time>
      </trkpt>
      <trkpt lat="44.65928" lon="3.38299">
        <ele>1097.2</ele>
        <time>2024-11-05T11:12:48.858Z</time>
      </trkpt>
      <trkpt lat="44.65936" lon="3.3826">
        <ele>1098.05</ele>
        <time>2024-11-05T11:12:54.168Z</time>
      </trkpt>
      <trkpt lat="44.65944" lon="3.38221">
        <ele>1098.9</ele>
        <time>2024-11-05T11:12:59.483Z</time>
      </trkpt>
      <trkpt lat="44.65952" lon="3.38183">
        <ele>1099.74</ele>
        <time>2024-11-05T11:13:04.802Z</time>
      </trkpt>
      <trkpt lat="44.65968" lon="3.38156">
        <ele>1100.52</ele>
        <time>2024-11-05T11:13:10.125Z</time>
      </trkpt>
      <trkpt lat="44.65986" lon="3.3815">
        <ele>1101.24</ele>
        <time>2024-11-05T11:13:15.451Z</time>
      </trkpt>
      <trkpt lat="44.66011" lon="3.38157">
        <ele>1101.95</ele>
        <time>2024-11-05T11:13:20.781Z</time>
      </trkpt>
      <trkpt lat="44.66031" lon="3.38168">
        <ele>1102.62</ele>
        <time>2024-11-05T11:13:26.115Z</time>
      </trkpt>
      <trkpt lat="44.66051" lon="3.38178">
        <ele>1103.27</ele>
        <time>2024-11-05T11:13:31.452Z</time>
      </trkpt>
      <trkpt lat="44.66071" lon="3.38189">
        <ele>1103.84</ele>
        <time>2024-11-05T11:13:36.793Z</time>
      </trkpt>
      <trkpt lat="44.66098" lon="3.38191">
        <ele>1104.34</ele>
        <time>2024-11-05T11:13:42.138Z</time>
      </trkpt>
      <trkpt lat="44.66118" lon="3.3819">
        <ele>1104.85</ele>
        <time>2024-11-05T11:13:47.486Z</time>
      </trkpt>
      <trkpt lat="44.66138" lon="3.38189">
        <ele>1105.32</ele>
        <time>2024-11-05T11:13:52.837Z</time>
      </trkpt>
      <trkpt lat="44.6616" lon="3.38177">
        <ele>1105.74</ele>
        <time>2024-11-05T11:13:58.192Z</time>
      </trkpt>
      <trkpt lat="44.66172" lon="3.38144">
        <ele>1106.06</ele>
        <time>2024-11-05T11:14:03.551Z</time>
      </trkpt>
      <trkpt lat="44.66183" lon="3.3811">
        <ele>1106.3</ele>
        <time>2024-11-05T11:14:08.915Z</time>
      </trkpt>
      <trkpt lat="44.66195" lon="3.38075">
        <ele>1106.51</ele>
        <time>2024-11-05T11:14:14.283Z</time>
      </trkpt>
      <trkpt lat="44.66205" lon="3.38056">
        <ele>1106.65</ele>
        <time>2024-11-05T11:14:19.654Z</time>
      </trkpt>
      <trkpt lat="44.66223" lon="3.38039">
        <ele>1106.78</ele>
        <time>2024-11-05T11:14:25.028Z</time>
      </trkpt>
      <trkpt lat="44.66241" lon="3.38022">
        <ele>1106.85</ele>
        <time>2024-11-05T11:14:30.406Z</time>
      </trkpt>
      <trkpt lat="44.66255" lon="3.37989">
        <ele>1106.88</ele>
        <time>2024-11-05T11:14:35.788Z</time>
      </trkpt>
      <trkpt lat="44.66269" lon="3.37957">
        <ele>1106.84</ele>
        <time>2024-11-05T11:14:41.174Z</time>
      </trkpt>
      <trkpt lat="44.66284" lon="3.37925">
        <ele>1106.78</ele>
        <time>2024-11-05T11:14:46.565Z</time>
      </trkpt>
      <trkpt lat="44.66298" lon="3.37903">
        <ele>1106.64</ele>
        <time>2024-11-05T11:14:51.959Z</time>
      </trkpt>
      <trkpt lat="44.66313" lon="3.37881">
        <ele>1106.47</ele>
        <time>2024-11-05T11:14:57.357Z</time>
      </trkpt>
      <trkpt lat="44.66328" lon="3.37859">
        <ele>1106.27</ele>
        <time>2024-11-05T11:15:02.758Z</time>
      </trkpt>
      <trkpt lat="44.66319" lon="3.37852">
        <ele>1106.12</ele>
        <time>2024-11-05T11:15:08.161Z</time>
      </trkpt>
      <trkpt lat="44.66329" lon="3.37824">
        <ele>1105.87</ele>
        <time>2024-11-05T11:15:13.567Z</time>
      </trkpt>
      <trkpt lat="44.66338" lon="3.37796">
        <ele>1105.6</ele>
        <time>2024-11-05T11:15:18.977Z</time>
      </trkpt>
      <trkpt lat="44.66348" lon="3.37768">
        <ele>1105.34</ele>
        <time>2024-11-05T11:15:24.390Z</time>
      </trkpt>
      <trkpt lat="44.66353" lon="3.37733">
        <ele>1105.05</ele>
        <time>2024-11-05T11:15:29.807Z</time>
      </trkpt>
      <trkpt lat="44.66353" lon="3.37698">
        <ele>1104.68</ele>
        <time>2024-11-05T11:15:35.228Z</time>
      </trkpt>
      <trkpt lat="44.66353" lon="3.37662">
        <ele>1104.27</ele>
        <time>2024-11-05T11:15:40.654Z</time>
      </trkpt>
      <trkpt lat="44.66357" lon="3.37629">
        <ele>1103.92</ele>
        <time>2024-11-05T11:15:46.083Z</time>
      </trkpt>
      <trkpt lat="44.66361" lon="3.37604">
        <ele>1103.57</ele>
        <time>2024-11-05T11:15:51.515Z</time>
      </trkpt>
      <trkpt lat="44.66365" lon="3.37579">
        <ele>1103.24</ele>
        <time>2024-11-05T11:15:56.950Z</time>
      </trkpt>
      <trkpt lat="44.66372" lon="3.37548">
        <ele>1102.84</ele>
        <time>2024-11-05T11:16:02.389Z</time>
      </trkpt>
      <trkpt lat="44.66378" lon="3.37517">
        <ele>1102.45</ele>
        <time>2024-11-05T11:16:07.832Z</time>
      </trkpt>
      <trkpt lat="44.66386" lon="3.37488">
        <ele>1102.07</ele>
        <time>2024-11-05T11:16:13.278Z</time>
      </trkpt>
      <trkpt lat="44.66393" lon="3.37459">
        <ele>1101.65</ele>
        <time>2024-11-05T11:16:18.728Z</time>
      </trkpt>
      <trkpt lat="44.66404" lon="3.37427">
        <ele>1101.22</ele>
        <time>2024-11-05T11:16:24.182Z</time>
      </trkpt>
      <trkpt lat="44.66415" lon="3.37395">
        <ele>1100.77</ele>
        <time>2024-11-05T11:16:29.640Z</time>
      </trkpt>
      <trkpt lat="44.66423" lon="3.37371">
        <ele>1100.36</ele>
        <time>2024-11-05T11:16:35.101Z</time>
      </trkpt>
      <trkpt lat="44.66432" lon="3.37348">
        <ele>1099.91</ele>
        <time>2024-11-05T11:16:40.565Z</time>
      </trkpt>
      <trkpt lat="44.66444" lon="3.37316">
        <ele>1099.46</ele>
        <time>2024-11-05T11:16:46.033Z</time>
      </trkpt>
      <trkpt lat="44.66456" lon="3.37284">
        <ele>1099.01</ele>
        <time>2024-11-05T11:16:51.505Z</time>
      </trkpt>
      <trkpt lat="44.66468" lon="3.37253">
        <ele>1098.58</ele>
        <time>2024-11-05T11:16:56.981Z</time>
      </trkpt>
      <trkpt lat="44.6648" lon="3.37221">
        <ele>1098.13</ele>
        <time>2024-11-05T11:17:02.461Z</time>
      </trkpt>
      <trkpt lat="44.66489" lon="3.37186">
        <ele>1097.71</ele>
        <time>2024-11-05T11:17:07.945Z</time>
      </trkpt>
      <trkpt lat="44.66498" lon="3.37151">
        <ele>1097.33</ele>
        <time>2024-11-05T11:17:13.434Z</time>
      </trkpt>
      <trkpt lat="44.665" lon="3.37112">
        <ele>1097.02</ele>
        <time>2024-11-05T11:17:18.927Z</time>
      </trkpt>
      <trkpt lat="44.66507" lon="3.37084">
        <ele>1096.64</ele>
        <time>2024-11-05T11:17:24.424Z</time>
      </trkpt>
      <trkpt lat="44.66515" lon="3.37073">
        <ele>1096.22</ele>
        <time>2024-11-05T11:17:29.922Z</time>
      </trkpt>
      <trkpt lat="44.66527" lon="3.37066">
        <ele>1095.79</ele>
        <time>2024-11-05T11:17:35.422Z</time>
      </trkpt>
      <trkpt lat="44.66546" lon="3.37059">
        <ele>1095.33</ele>
        <time>2024-11-05T11:17:40.926Z</time>
      </trkpt>
      <trkpt lat="44.66565" lon="3.37053">
        <ele>1094.87</ele>
        <time>2024-11-05T11:17:46.433Z</time>
      </trkpt>
      <trkpt lat="44.66584" lon="3.37044">
        <ele>1094.45</ele>
        <time>2024-11-05T11:17:51.943Z</time>
      </trkpt>
      <trkpt lat="44.66599" lon="3.37031">
        <ele>1094.06</ele>
        <time>2024-11-05T11:17:57.456Z</time>
      </trkpt>
      <trkpt lat="44.66612" lon="3.37015">
        <ele>1093.66</ele>
        <time>2024-11-05T11:18:02.971Z</time>
      </trkpt>
      <trkpt lat="44.66623" lon="3.36991">
        <ele>1093.31</ele>
        <time>2024-11-05T11:18:08.490Z</time>
      </trkpt>
      <trkpt lat="44.66628" lon="3.36969">
        <ele>1092.96</ele>
        <time>2024-11-05T11:18:14.011Z</time>
      </trkpt>
      <trkpt lat="44.66632" lon="3.36945">
        <ele>1092.6</ele>
        <time>2024-11-05T11:18:19.535Z</time>
      </trkpt>
      <trkpt lat="44.66632" lon="3.36922">
        <ele>1092.24</ele>
        <time>2024-11-05T11:18:25.062Z</time>
      </trkpt>
      <trkpt lat="44.66631" lon="3.36902">
        <ele>1091.9</ele>
        <time>2024-11-05T11:18:30.591Z</time>
      </trkpt>
      <trkpt lat="44.66625" lon="3.36873">
        <ele>1091.56</ele>
        <time>2024-11-05T11:18:36.124Z</time>
      </trkpt>
      <trkpt lat="44.66612" lon="3.36845">
        <ele>1091.26</ele>
        <time>2024-11-05T11:18:41.660Z</time>
      </trkpt>
      <trkpt lat="44.66599" lon="3.36817">
        <ele>1090.93</ele>
        <time>2024-11-05T11:18:47.200Z</time>
      </trkpt>
      <trkpt lat="44.66586" lon="3.36789">
        <ele>1090.61</ele>
        <time>2024-11-05T11:18:52.744Z</time>
      </trkpt>
      <trkpt lat="44.66577" lon="3.36756">
        <ele>1090.25</ele>
        <time>2024-11-05T11:18:58.292Z</time>
      </trkpt>
      <trkpt lat="44.66572" lon="3.36723">
        <ele>1090</ele>
        <time>2024-11-05T11:19:03.844Z</time>
      </trkpt>
      <trkpt lat="44.66567" lon="3.36691">
        <ele>1089.84</ele>
        <time>2024-11-05T11:19:09.400Z</time>
      </trkpt>
      <trkpt lat="44.66564" lon="3.3668">
        <ele>1089.65</ele>
        <time>2024-11-05T11:19:14.957Z</time>
      </trkpt>
      <trkpt lat="44.66551" lon="3.36657">
        <ele>1089.46</ele>
        <time>2024-11-05T11:19:20.517Z</time>
      </trkpt>
      <trkpt lat="44.66536" lon="3.36637">
        <ele>1089.22</ele>
        <time>2024-11-05T11:19:26.081Z</time>
      </trkpt>
      <trkpt lat="44.66521" lon="3.36616">
        <ele>1088.96</ele>
        <time>2024-11-05T11:19:31.648Z</time>
      </trkpt>
      <trkpt lat="44.66514" lon="3.36601">
        <ele>1088.74</ele>
        <time>2024-11-05T11:19:37.217Z</time>
      </trkpt>
      <trkpt lat="44.66511" lon="3.3659">
        <ele>1088.53</ele>
        <time>2024-11-05T11:19:42.787Z</time>
      </trkpt>
      <trkpt lat="44.66511" lon="3.36577">
        <ele>1088.34</ele>
        <time>2024-11-05T11:19:48.359Z</time>
      </trkpt>
      <trkpt lat="44.66515" lon="3.36563">
        <ele>1088.15</ele>
        <time>2024-11-05T11:19:53.933Z</time>
      </trkpt>
      <trkpt lat="44.66529" lon="3.36541">
        <ele>1088.01</ele>
        <time>2024-11-05T11:19:59.510Z</time>
      </trkpt>
      <trkpt lat="44.66554" lon="3.36522">
        <ele>1087.92</ele>
        <time>2024-11-05T11:20:05.092Z</time>
      </trkpt>
      <trkpt lat="44.66579" lon="3.36502">
        <ele>1087.73</ele>
        <time>2024-11-05T11:20:10.678Z</time>
      </trkpt>
      <trkpt lat="44.66603" lon="3.36482">
        <ele>1087.5</ele>
        <time>2024-11-05T11:20:16.269Z</time>
      </trkpt>
      <trkpt lat="44.66628" lon="3.36463">
        <ele>1087.22</ele>
        <time>2024-11-05T11:20:21.864Z</time>
      </trkpt>
      <trkpt lat="44.66644" lon="3.36441">
        <ele>1086.99</ele>
        <time>2024-11-05T11:20:27.463Z</time>
      </trkpt>
      <trkpt lat="44.66651" lon="3.36422">
        <ele>1086.84</ele>
        <time>2024-11-05T11:20:33.064Z</time>
      </trkpt>
      <trkpt lat="44.66653" lon="3.36402">
        <ele>1086.71</ele>
        <time>2024-11-05T11:20:38.667Z</time>
      </trkpt>
      <trkpt lat="44.66652" lon="3.36381">
        <ele>1086.59</ele>
        <time>2024-11-05T11:20:44.273Z</time>
      </trkpt>
      <trkpt lat="44.66641" lon="3.3635">
        <ele>1086.42</ele>
        <time>2024-11-05T11:20:49.883Z</time>
      </trkpt>
      <trkpt lat="44.66625" lon="3.3632">
        <ele>1086.21</ele>
        <time>2024-11-05T11:20:55.497Z</time>
      </trkpt>
      <trkpt lat="44.66609" lon="3.3629">
        <ele>1086</ele>
        <time>2024-11-05T11:21:01.115Z</time>
      </trkpt>
      <trkpt lat="44.66593" lon="3.3626">
        <ele>1085.82</ele>
        <time>2024-11-05T11:21:06.738Z</time>
      </trkpt>
      <trkpt lat="44.66593" lon="3.3626">
        <ele>1085.65</ele>
        <time>2024-11-05T11:21:12.361Z</time>
      </trkpt>
      <trkpt lat="44.66578" lon="3.36231">
        <ele>1085.48</ele>
        <time>2024-11-05T11:21:17.988Z</time>
      </trkpt>
      <trkpt lat="44.66564" lon="3.36201">
        <ele>1085.31</ele>
        <time>2024-11-05T11:21:23.619Z</time>
      </trkpt>
      <trkpt lat="44.66549" lon="3.36172">
        <ele>1085.15</ele>
        <time>2024-11-05T11:21:29.254Z</time>
      </trkpt>
      <trkpt lat="44.66535" lon="3.36142">
        <ele>1085</ele>
        <time>2024-11-05T11:21:34.893Z</time>
      </trkpt>
      <trkpt lat="44.66521" lon="3.36113">
        <ele>1084.8</ele>
        <time>2024-11-05T11:21:40.536Z</time>
      </trkpt>
      <trkpt lat="44.66513" lon="3.36092">
        <ele>1084.59</ele>
        <time>2024-11-05T11:21:46.182Z</time>
      </trkpt>
      <trkpt lat="44.66506" lon="3.36064">
        <ele>1084.37</ele>
        <time>2024-11-05T11:21:51.831Z</time>
      </trkpt>
      <trkpt lat="44.66498" lon="3.36036">
        <ele>1084.12</ele>
        <time>2024-11-05T11:21:57.484Z</time>
      </trkpt>
      <trkpt lat="44.66492" lon="3.36006">
        <ele>1083.88</ele>
        <time>2024-11-05T11:22:03.140Z</time>
      </trkpt>
      <trkpt lat="44.66485" lon="3.35976">
        <ele>1083.67</ele>
        <time>2024-11-05T11:22:08.800Z</time>
      </trkpt>
      <trkpt lat="44.66482" lon="3.3594">
        <ele>1083.51</ele>
        <time>2024-11-05T11:22:14.464Z</time>
      </trkpt>
      <trkpt lat="44.66479" lon="3.35905">
        <ele>1083.35</ele>
        <time>2024-11-05T11:22:20.132Z</time>
      </trkpt>
      <trkpt lat="44.66479" lon="3.35879">
        <ele>1083.19</ele>
        <time>2024-11-05T11:22:25.803Z</time>
      </trkpt>
      <trkpt lat="44.66479" lon="3.35853">
        <ele>1083.01</ele>
        <time>2024-11-05T11:22:31.477Z</time>
      </trkpt>
      <trkpt lat="44.6648" lon="3.35822">
        <ele>1082.84</ele>
        <time>2024-11-05T11:22:37.154Z</time>
      </trkpt>
      <trkpt lat="44.66482" lon="3.35791">
        <ele>1082.67</ele>
        <time>2024-11-05T11:22:42.835Z</time>
      </trkpt>
      <trkpt lat="44.66484" lon="3.35754">
        <ele>1082.5</ele>
        <time>2024-11-05T11:22:48.520Z</time>
      </trkpt>
      <trkpt lat="44.66485" lon="3.35716">
        <ele>1082.3</ele>
        <time>2024-11-05T11:22:54.209Z</time>
      </trkpt>
      <trkpt lat="44.66487" lon="3.35679">
        <ele>1082.09</ele>
        <time>2024-11-05T11:22:59.903Z</time>
      </trkpt>
      <trkpt lat="44.66489" lon="3.35642">
        <ele>1081.92</ele>
        <time>2024-11-05T11:23:05.601Z</time>
      </trkpt>
      <trkpt lat="44.66485" lon="3.35604">
        <ele>1081.79</ele>
        <time>2024-11-05T11:23:11.303Z</time>
      </trkpt>
      <trkpt lat="44.66482" lon="3.35567">
        <ele>1081.63</ele>
        <time>2024-11-05T11:23:17.010Z</time>
      </trkpt>
      <trkpt lat="44.66481" lon="3.35527">
        <ele>1081.51</ele>
        <time>2024-11-05T11:23:22.721Z</time>
      </trkpt>
      <trkpt lat="44.66475" lon="3.35499">
        <ele>1081.41</ele>
        <time>2024-11-05T11:23:28.435Z</time>
      </trkpt>
      <trkpt lat="44.66461" lon="3.35461">
        <ele>1081.27</ele>
        <time>2024-11-05T11:23:34.154Z</time>
      </trkpt>
      <trkpt lat="44.66445" lon="3.35426">
        <ele>1081.15</ele>
        <time>2024-11-05T11:23:39.878Z</time>
      </trkpt>
      <trkpt lat="44.6643" lon="3.35403">
        <ele>1081.05</ele>
        <time>2024-11-05T11:23:45.606Z</time>
      </trkpt>
      <trkpt lat="44.66416" lon="3.35381">
        <ele>1080.92</ele>
        <time>2024-11-05T11:23:51.337Z</time>
      </trkpt>
      <trkpt lat="44.66402" lon="3.35358">
        <ele>1080.78</ele>
        <time>2024-11-05T11:23:57.071Z</time>
      </trkpt>
      <trkpt lat="44.66386" lon="3.35331">
        <ele>1080.63</ele>
        <time>2024-11-05T11:24:02.809Z</time>
      </trkpt>
      <trkpt lat="44.66372" lon="3.35298">
        <ele>1080.56</ele>
        <time>2024-11-05T11:24:08.552Z</time>
      </trkpt>
      <trkpt lat="44.66358" lon="3.35265">
        <ele>1080.51</ele>
        <time>2024-11-05T11:24:14.299Z</time>
      </trkpt>
      <trkpt lat="44.66345" lon="3.35232">
        <ele>1080.44</ele>
        <time>2024-11-05T11:24:20.051Z</time>
      </trkpt>
      <trkpt lat="44.66337" lon="3.3521">
        <ele>1080.41</ele>
        <time>2024-11-05T11:24:25.805Z</time>
      </trkpt>
      <trkpt lat="44.6633" lon="3.35188">
        <ele>1080.39</ele>
        <time>2024-11-05T11:24:31.562Z</time>
      </trkpt>
      <trkpt lat="44.66324" lon="3.35167">
        <ele>1080.38</ele>
        <time>2024-11-05T11:24:37.322Z</time>
      </trkpt>
      <trkpt lat="44.66319" lon="3.35145">
        <ele>1080.42</ele>
        <time>2024-11-05T11:24:43.084Z</time>
      </trkpt>
      <trkpt lat="44.66315" lon="3.3512">
        <ele>1080.46</ele>
        <time>2024-11-05T11:24:48.849Z</time>
      </trkpt>
      <trkpt lat="44.6631" lon="3.35095">
        <ele>1080.52</ele>
        <time>2024-11-05T11:24:54.617Z</time>
      </trkpt>
      <trkpt lat="44.66308" lon="3.35053">
        <ele>1080.59</ele>
        <time>2024-11-05T11:25:00.390Z</time>
      </trkpt>
      <trkpt lat="44.66306" lon="3.35012">
        <ele>1080.71</ele>
        <time>2024-11-05T11:25:06.168Z</time>
      </trkpt>
      <trkpt lat="44.66304" lon="3.3497">
        <ele>1080.88</ele>
        <time>2024-11-05T11:25:11.951Z</time>
      </trkpt>
      <trkpt lat="44.66302" lon="3.34929">
        <ele>1081.01</ele>
        <time>2024-11-05T11:25:17.738Z</time>
      </trkpt>
      <trkpt lat="44.66298" lon="3.34896">
        <ele>1081.13</ele>
        <time>2024-11-05T11:25:23.529Z</time>
      </trkpt>
      <trkpt lat="44.66294" lon="3.34863">
        <ele>1081.28</ele>
        <time>2024-11-05T11:25:29.324Z</time>
      </trkpt>
      <trkpt lat="44.66292" lon="3.34821">
        <ele>1081.45</ele>
        <time>2024-11-05T11:25:35.124Z</time>
      </trkpt>
      <trkpt lat="44.66289" lon="3.34779">
        <ele>1081.62</ele>
        <time>2024-11-05T11:25:40.929Z</time>
      </trkpt>
      <trkpt lat="44.66287" lon="3.34737">
        <ele>1081.76</ele>
        <time>2024-11-05T11:25:46.738Z</time>
      </trkpt>
      <trkpt lat="44.66287" lon="3.34711">
        <ele>1081.9</ele>
        <time>2024-11-05T11:25:52.550Z</time>
      </trkpt>
      <trkpt lat="44.66287" lon="3.34686">
        <ele>1082.04</ele>
        <time>2024-11-05T11:25:58.365Z</time>
      </trkpt>
      <trkpt lat="44.66284" lon="3.34651">
        <ele>1082.19</ele>
        <time>2024-11-05T11:26:04.184Z</time>
      </trkpt>
      <trkpt lat="44.66276" lon="3.34611">
        <ele>1082.33</ele>
        <time>2024-11-05T11:26:10.008Z</time>
      </trkpt>
      <trkpt lat="44.66269" lon="3.34571">
        <ele>1082.47</ele>
        <time>2024-11-05T11:26:15.837Z</time>
      </trkpt>
      <trkpt lat="44.66263" lon="3.34534">
        <ele>1082.6</ele>
        <time>2024-11-05T11:26:21.670Z</time>
      </trkpt>
      <trkpt lat="44.66257" lon="3.34496">
        <ele>1082.68</ele>
        <time>2024-11-05T11:26:27.507Z</time>
      </trkpt>
      <trkpt lat="44.66251" lon="3.34459">
        <ele>1082.7</ele>
        <time>2024-11-05T11:26:33.349Z</time>
      </trkpt>
      <trkpt lat="44.66245" lon="3.34422">
        <ele>1082.72</ele>
        <time>2024-11-05T11:26:39.195Z</time>
      </trkpt>
      <trkpt lat="44.6624" lon="3.34385">
        <ele>1082.76</ele>
        <time>2024-11-05T11:26:45.045Z</time>
      </trkpt>
      <trkpt lat="44.66229" lon="3.3435">
        <ele>1082.82</ele>
        <time>2024-11-05T11:26:50.900Z</time>
      </trkpt>
      <trkpt lat="44.66217" lon="3.34322">
        <ele>1082.9</ele>
        <time>2024-11-05T11:26:56.758Z</time>
      </trkpt>
      <trkpt lat="44.66205" lon="3.34302">
        <ele>1082.96</ele>
        <time>2024-11-05T11:27:02.619Z</time>
      </trkpt>
      <trkpt lat="44.66188" lon="3.34281">
        <ele>1083.03</ele>
        <time>2024-11-05T11:27:08.484Z</time>
      </trkpt>
      <trkpt lat="44.6617" lon="3.3426">
        <ele>1083.12</ele>
        <time>2024-11-05T11:27:14.353Z</time>
      </trkpt>
      <trkpt lat="44.66154" lon="3.34245">
        <ele>1083.2</ele>
        <time>2024-11-05T11:27:20.225Z</time>
      </trkpt>
      <trkpt lat="44.66139" lon="3.34229">
        <ele>1083.27</ele>
        <time>2024-11-05T11:27:26.100Z</time>
      </trkpt>
      <trkpt lat="44.66124" lon="3.34215">
        <ele>1083.34</ele>
        <time>2024-11-05T11:27:31.978Z</time>
      </trkpt>
      <trkpt lat="44.6611" lon="3.342">
        <ele>1083.38</ele>
        <time>2024-11-05T11:27:37.859Z</time>
      </trkpt>
      <trkpt lat="44.66085" lon="3.34175">
        <ele>1083.41</ele>
        <time>2024-11-05T11:27:43.744Z</time>
      </trkpt>
      <trkpt lat="44.66061" lon="3.3415">
        <ele>1083.41</ele>
        <time>2024-11-05T11:27:49.634Z</time>
      </trkpt>
      <trkpt lat="44.66036" lon="3.34125">
        <ele>1083.38</ele>
        <time>2024-11-05T11:27:55.529Z</time>
      </trkpt>
      <trkpt lat="44.66012" lon="3.341">
        <ele>1083.31</ele>
        <time>2024-11-05T11:28:01.429Z</time>
      </trkpt>
      <trkpt lat="44.65987" lon="3.34076">
        <ele>1083.23</ele>
        <time>2024-11-05T11:28:07.334Z</time>
      </trkpt>
      <trkpt lat="44.65964" lon="3.34053">
        <ele>1083.18</ele>
        <time>2024-11-05T11:28:13.243Z</time>
      </trkpt>
      <trkpt lat="44.6594" lon="3.34031">
        <ele>1083.13</ele>
        <time>2024-11-05T11:28:19.157Z</time>
      </trkpt>
      <trkpt lat="44.65916" lon="3.34009">
        <ele>1083.03</ele>
        <time>2024-11-05T11:28:25.076Z</time>
      </trkpt>
      <trkpt lat="44.65892" lon="3.33986">
        <ele>1082.92</ele>
        <time>2024-11-05T11:28:30.999Z</time>
      </trkpt>
      <trkpt lat="44.65869" lon="3.33964">
        <ele>1082.81</ele>
        <time>2024-11-05T11:28:36.927Z</time>
      </trkpt>
      <trkpt lat="44.65845" lon="3.33942">
        <ele>1082.68</ele>
        <time>2024-11-05T11:28:42.859Z</time>
      </trkpt>
      <trkpt lat="44.65832" lon="3.33927">
        <ele>1082.55</ele>
        <time>2024-11-05T11:28:48.794Z</time>
      </trkpt>
      <trkpt lat="44.65819" lon="3.33913">
        <ele>1082.42</ele>
        <time>2024-11-05T11:28:54.732Z</time>
      </trkpt>
      <trkpt lat="44.65808" lon="3.33893">
        <ele>1082.31</ele>
        <time>2024-11-05T11:29:00.672Z</time>
      </trkpt>
      <trkpt lat="44.65799" lon="3.33873">
        <ele>1082.18</ele>
        <time>2024-11-05T11:29:06.615Z</time>
      </trkpt>
      <trkpt lat="44.65789" lon="3.33839">
        <ele>1082.03</ele>
        <time>2024-11-05T11:29:12.562Z</time>
      </trkpt>
      <trkpt lat="44.6578" lon="3.33804">
        <ele>1081.89</ele>
        <time>2024-11-05T11:29:18.513Z</time>
      </trkpt>
      <trkpt lat="44.6577" lon="3.3377">
        <ele>1081.77</ele>
        <time>2024-11-05T11:29:24.469Z</time>
      </trkpt>
      <trkpt lat="44.65761" lon="3.33736">
        <ele>1081.67</ele>
        <time>2024-11-05T11:29:30.429Z</time>
      </trkpt>
      <trkpt lat="44.65751" lon="3.33702">
        <ele>1081.56</ele>
        <time>2024-11-05T11:29:36.393Z</time>
      </trkpt>
      <trkpt lat="44.65744" lon="3.33664">
        <ele>1081.46</ele>
        <time>2024-11-05T11:29:42.362Z</time>
      </trkpt>
      <trkpt lat="44.65737" lon="3.33626">
        <ele>1081.37</ele>
        <time>2024-11-05T11:29:48.335Z</time>
      </trkpt>
      <trkpt lat="44.6573" lon="3.33588">
        <ele>1081.26</ele>
        <time>2024-11-05T11:29:54.313Z</time>
      </trkpt>
      <trkpt lat="44.65722" lon="3.3355">
        <ele>1081.13</ele>
        <time>2024-11-05T11:30:00.295Z</time>
      </trkpt>
      <trkpt lat="44.65712" lon="3.33511">
        <ele>1081</ele>
        <time>2024-11-05T11:30:06.282Z</time>
      </trkpt>
      <trkpt lat="44.65701" lon="3.33473">
        <ele>1080.85</ele>
        <time>2024-11-05T11:30:12.273Z</time>
      </trkpt>
      <trkpt lat="44.65701" lon="3.33473">
        <ele>1080.76</ele>
        <time>2024-11-05T11:30:18.264Z</time>
      </trkpt>
      <trkpt lat="44.65693" lon="3.33441">
        <ele>1080.66</ele>
        <time>2024-11-05T11:30:24.259Z</time>
      </trkpt>
      <trkpt lat="44.65685" lon="3.3341">
        <ele>1080.59</ele>
        <time>2024-11-05T11:30:30.258Z</time>
      </trkpt>
      <trkpt lat="44.65677" lon="3.33378">
        <ele>1080.56</ele>
        <time>2024-11-05T11:30:36.261Z</time>
      </trkpt>
      <trkpt lat="44.65671" lon="3.33342">
        <ele>1080.51</ele>
        <time>2024-11-05T11:30:42.268Z</time>
      </trkpt>
      <trkpt lat="44.65667" lon="3.33299">
        <ele>1080.46</ele>
        <time>2024-11-05T11:30:48.280Z</time>
      </trkpt>
      <trkpt lat="44.65662" lon="3.33256">
        <ele>1080.4</ele>
        <time>2024-11-05T11:30:54.297Z</time>
      </trkpt>
      <trkpt lat="44.65658" lon="3.33214">
        <ele>1080.32</ele>
        <time>2024-11-05T11:31:00.319Z</time>
      </trkpt>
      <trkpt lat="44.65653" lon="3.33171">
        <ele>1080.29</ele>
        <time>2024-11-05T11:31:06.346Z</time>
      </trkpt>
      <trkpt lat="44.65649" lon="3.33128">
        <ele>1080.36</ele>
        <time>2024-11-05T11:31:12.378Z</time>
      </trkpt>
      <trkpt lat="44.65644" lon="3.33086">
        <ele>1080.48</ele>
        <time>2024-11-05T11:31:18.415Z</time>
      </trkpt>
      <trkpt lat="44.65637" lon="3.33053">
        <ele>1080.58</ele>
        <time>2024-11-05T11:31:24.456Z</time>
      </trkpt>
      <trkpt lat="44.65627" lon="3.33021">
        <ele>1080.65</ele>
        <time>2024-11-05T11:31:30.501Z</time>
      </trkpt>
      <trkpt lat="44.65613" lon="3.33004">
        <ele>1080.73</ele>
        <time>2024-11-05T11:31:36.549Z</time>
      </trkpt>
      <trkpt lat="44.65599" lon="3.32972">
        <ele>1080.87</ele>
        <time>2024-11-05T11:31:42.601Z</time>
      </trkpt>
      <trkpt lat="44.65584" lon="3.32941">
        <ele>1081.02</ele>
        <time>2024-11-05T11:31:48.657Z</time>
      </trkpt>
      <trkpt lat="44.65572" lon="3.32922">
        <ele>1081.18</ele>
        <time>2024-11-05T11:31:54.716Z</time>
      </trkpt>
      <trkpt lat="44.6556" lon="3.32904">
        <ele>1081.37</ele>
        <time>2024-11-05T11:32:00.778Z</time>
      </trkpt>
      <trkpt lat="44.65548" lon="3.32889">
        <ele>1081.58</ele>
        <time>2024-11-05T11:32:06.843Z</time>
      </trkpt>
      <trkpt lat="44.65535" lon="3.32874">
        <ele>1081.83</ele>
        <time>2024-11-05T11:32:12.910Z</time>
      </trkpt>
      <trkpt lat="44.65514" lon="3.32865">
        <ele>1082.1</ele>
        <time>2024-11-05T11:32:18.981Z</time>
      </trkpt>
      <trkpt lat="44.65493" lon="3.32856">
        <ele>1082.41</ele>
        <time>2024-11-05T11:32:25.055Z</time>
      </trkpt>
      <trkpt lat="44.65463" lon="3.32847">
        <ele>1082.72</ele>
        <time>2024-11-05T11:32:31.134Z</time>
      </trkpt>
      <trkpt lat="44.65432" lon="3.32839">
        <ele>1082.95</ele>
        <time>2024-11-05T11:32:37.218Z</time>
      </trkpt>
      <trkpt lat="44.65402" lon="3.32831">
        <ele>1083.15</ele>
        <time>2024-11-05T11:32:43.307Z</time>
      </trkpt>
      <trkpt lat="44.65372" lon="3.32822">
        <ele>1083.42</ele>
        <time>2024-11-05T11:32:49.401Z</time>
      </trkpt>
      <trkpt lat="44.65342" lon="3.32814">
        <ele>1083.78</ele>
        <time>2024-11-05T11:32:55.500Z</time>
      </trkpt>
      <trkpt lat="44.65316" lon="3.32803">
        <ele>1084.14</ele>
        <time>2024-11-05T11:33:01.603Z</time>
      </trkpt>
      <trkpt lat="44.65291" lon="3.32792">
        <ele>1084.5</ele>
        <time>2024-11-05T11:33:07.710Z</time>
      </trkpt>
      <trkpt lat="44.6527" lon="3.3278">
        <ele>1084.86</ele>
        <time>2024-11-05T11:33:13.821Z</time>
      </trkpt>
      <trkpt lat="44.6525" lon="3.32768">
        <ele>1085.24</ele>
        <time>2024-11-05T11:33:19.936Z</time>
      </trkpt>
      <trkpt lat="44.65229" lon="3.32756">
        <ele>1085.62</ele>
        <time>2024-11-05T11:33:26.054Z</time>
      </trkpt>
      <trkpt lat="44.65209" lon="3.32737">
        <ele>1086.03</ele>
        <time>2024-11-05T11:33:32.176Z</time>
      </trkpt>
      <trkpt lat="44.65189" lon="3.32718">
        <ele>1086.48</ele>
        <time>2024-11-05T11:33:38.302Z</time>
      </trkpt>
      <trkpt lat="44.65169" lon="3.32699">
        <ele>1086.92</ele>
        <time>2024-11-05T11:33:44.432Z</time>
      </trkpt>
      <trkpt lat="44.65148" lon="3.32681">
        <ele>1087.35</ele>
        <time>2024-11-05T11:33:50.566Z</time>
      </trkpt>
      <trkpt lat="44.65128" lon="3.32662">
        <ele>1087.8</ele>
        <time>2024-11-05T11:33:56.704Z</time>
      </trkpt>
      <trkpt lat="44.65107" lon="3.32644">
        <ele>1088.28</ele>
        <time>2024-11-05T11:34:02.845Z</time>
      </trkpt>
      <trkpt lat="44.65086" lon="3.32625">
        <ele>1088.78</ele>
        <time>2024-11-05T11:34:08.990Z</time>
      </trkpt>
      <trkpt lat="44.65061" lon="3.32606">
        <ele>1089.28</ele>
        <time>2024-11-05T11:34:15.140Z</time>
      </trkpt>
      <trkpt lat="44.65035" lon="3.32586">
        <ele>1089.74</ele>
        <time>2024-11-05T11:34:21.295Z</time>
      </trkpt>
      <trkpt lat="44.65009" lon="3.32567">
        <ele>1090.23</ele>
        <time>2024-11-05T11:34:27.454Z</time>
      </trkpt>
      <trkpt lat="44.64984" lon="3.32555">
        <ele>1090.76</ele>
        <time>2024-11-05T11:34:33.618Z</time>
      </trkpt>
      <trkpt lat="44.64958" lon="3.32542">
        <ele>1091.32</ele>
        <time>2024-11-05T11:34:39.786Z</time>
      </trkpt>
      <trkpt lat="44.64933" lon="3.3253">
        <ele>1091.9</ele>
        <time>2024-11-05T11:34:45.958Z</time>
      </trkpt>
      <trkpt lat="44.64907" lon="3.3252">
        <ele>1092.52</ele>
        <time>2024-11-05T11:34:52.135Z</time>
      </trkpt>
      <trkpt lat="44.64882" lon="3.3251">
        <ele>1093.15</ele>
        <time>2024-11-05T11:34:58.316Z</time>
      </trkpt>
      <trkpt lat="44.64856" lon="3.32501">
        <ele>1093.82</ele>
        <time>2024-11-05T11:35:04.501Z</time>
      </trkpt>
      <trkpt lat="44.64831" lon="3.32491">
        <ele>1094.51</ele>
        <time>2024-11-05T11:35:10.690Z</time>
      </trkpt>
      <trkpt lat="44.64808" lon="3.32485">
        <ele>1095.18</ele>
        <time>2024-11-05T11:35:16.883Z</time>
      </trkpt>
      <trkpt lat="44.64784" lon="3.32479">
        <ele>1095.84</ele>
        <time>2024-11-05T11:35:23.080Z</time>
      </trkpt>
      <trkpt lat="44.64761" lon="3.32473">
        <ele>1096.58</ele>
        <time>2024-11-05T11:35:29.281Z</time>
      </trkpt>
      <trkpt lat="44.64734" lon="3.32463">
        <ele>1097.35</ele>
        <time>2024-11-05T11:35:35.486Z</time>
      </trkpt>
      <trkpt lat="44.64706" lon="3.32454">
        <ele>1098.12</ele>
        <time>2024-11-05T11:35:41.696Z</time>
      </trkpt>
      <trkpt lat="44.64679" lon="3.32445">
        <ele>1098.86</ele>
        <time>2024-11-05T11:35:47.910Z</time>
      </trkpt>
      <trkpt lat="44.64666" lon="3.32443">
        <ele>1099.62</ele>
        <time>2024-11-05T11:35:54.126Z</time>
      </trkpt>
      <trkpt lat="44.64641" lon="3.32438">
        <ele>1100.42</ele>
        <time>2024-11-05T11:36:00.346Z</time>
      </trkpt>
      <trkpt lat="44.64616" lon="3.32434">
        <ele>1101.21</ele>
        <time>2024-11-05T11:36:06.570Z</time>
      </trkpt>
      <trkpt lat="44.64592" lon="3.3243">
        <ele>1101.98</ele>
        <time>2024-11-05T11:36:12.798Z</time>
      </trkpt>
      <trkpt lat="44.64567" lon="3.32426">
        <ele>1102.74</ele>
        <time>2024-11-05T11:36:19.030Z</time>
      </trkpt>
      <trkpt lat="44.64538" lon="3.32423">
        <ele>1103.48</ele>
        <time>2024-11-05T11:36:25.267Z</time>
      </trkpt>
      <trkpt lat="44.64509" lon="3.32421">
        <ele>1104.26</ele>
        <time>2024-11-05T11:36:31.508Z</time>
      </trkpt>
      <trkpt lat="44.6448" lon="3.32419">
        <ele>1105.08</ele>
        <time>2024-11-05T11:36:37.754Z</time>
      </trkpt>
      <trkpt lat="44.6445" lon="3.32426">
        <ele>1105.92</ele>
        <time>2024-11-05T11:36:44.005Z</time>
      </trkpt>
      <trkpt lat="44.64436" lon="3.32435">
        <ele>1106.71</ele>
        <time>2024-11-05T11:36:50.259Z</time>
      </trkpt>
      <trkpt lat="44.64421" lon="3.32445">
        <ele>1107.51</ele>
        <time>2024-11-05T11:36:56.515Z</time>
      </trkpt>
      <trkpt lat="44.64402" lon="3.32453">
        <ele>1108.31</ele>
        <time>2024-11-05T11:37:02.774Z</time>
      </trkpt>
      <trkpt lat="44.64382" lon="3.32461">
        <ele>1109.06</ele>
        <time>2024-11-05T11:37:09.037Z</time>
      </trkpt>
      <trkpt lat="44.6436" lon="3.32459">
        <ele>1109.75</ele>
        <time>2024-11-05T11:37:15.303Z</time>
      </trkpt>
      <trkpt lat="44.64332" lon="3.32456">
        <ele>1110.42</ele>
        <time>2024-11-05T11:37:21.574Z</time>
      </trkpt>
      <trkpt lat="44.64305" lon="3.32452">
        <ele>1111.06</ele>
        <time>2024-11-05T11:37:27.849Z</time>
      </trkpt>
      <trkpt lat="44.64277" lon="3.32449">
        <ele>1111.71</ele>
        <time>2024-11-05T11:37:34.128Z</time>
      </trkpt>
      <trkpt lat="44.64249" lon="3.32446">
        <ele>1112.4</ele>
        <time>2024-11-05T11:37:40.412Z</time>
      </trkpt>
      <trkpt lat="44.6422" lon="3.32454">
        <ele>1113.11</ele>
        <time>2024-11-05T11:37:46.701Z</time>
      </trkpt>
      <trkpt lat="44.64191" lon="3.32463">
        <ele>1113.79</ele>
        <time>2024-11-05T11:37:52.994Z</time>
      </trkpt>
      <trkpt lat="44.6417" lon="3.32468">
        <ele>1114.33</ele>
        <time>2024-11-05T11:37:59.291Z</time>
      </trkpt>
      <trkpt lat="44.64147" lon="3.32473">
        <ele>1114.86</ele>
        <time>2024-11-05T11:38:05.592Z</time>
      </trkpt>
      <trkpt lat="44.6412" lon="3.32472">
        <ele>1115.42</ele>
        <time>2024-11-05T11:38:11.897Z</time>
      </trkpt>
      <trkpt lat="44.64092" lon="3.32472">
        <ele>1115.9</ele>
        <time>2024-11-05T11:38:18.206Z</time>
      </trkpt>
      <trkpt lat="44.64067" lon="3.32466">
        <ele>1116.29</ele>
        <time>2024-11-05T11:38:24.519Z</time>
      </trkpt>
      <trkpt lat="44.64042" lon="3.32461">
        <ele>1116.64</ele>
        <time>2024-11-05T11:38:30.836Z</time>
      </trkpt>
      <trkpt lat="44.64021" lon="3.32449">
        <ele>1117.01</ele>
        <time>2024-11-05T11:38:37.157Z</time>
      </trkpt>
      <trkpt lat="44.64001" lon="3.32436">
        <ele>1117.31</ele>
        <time>2024-11-05T11:38:43.482Z</time>
      </trkpt>
      <trkpt lat="44.63979" lon="3.32419">
        <ele>1117.54</ele>
        <time>2024-11-05T11:38:49.811Z</time>
      </trkpt>
      <trkpt lat="44.63958" lon="3.32401">
        <ele>1117.72</ele>
        <time>2024-11-05T11:38:56.144Z</time>
      </trkpt>
      <trkpt lat="44.63937" lon="3.32377">
        <ele>1117.83</ele>
        <time>2024-11-05T11:39:02.481Z</time>
      </trkpt>
      <trkpt lat="44.63917" lon="3.32353">
        <ele>1117.85</ele>
        <time>2024-11-05T11:39:08.822Z</time>
      </trkpt>
      <trkpt lat="44.639" lon="3.3233">
        <ele>1117.82</ele>
        <time>2024-11-05T11:39:15.167Z</time>
      </trkpt>
      <trkpt lat="44.63883" lon="3.32308">
        <ele>1117.77</ele>
        <time>2024-11-05T11:39:21.516Z</time>
      </trkpt>
      <trkpt lat="44.63866" lon="3.32286">
        <ele>1117.68</ele>
        <time>2024-11-05T11:39:27.868Z</time>
      </trkpt>
      <trkpt lat="44.63849" lon="3.32258">
        <ele>1117.56</ele>
        <time>2024-11-05T11:39:34.225Z</time>
      </trkpt>
      <trkpt lat="44.63831" lon="3.32231">
        <ele>1117.39</ele>
        <time>2024-11-05T11:39:40.586Z</time>
      </trkpt>
      <trkpt lat="44.63814" lon="3.32203">
        <ele>1117.2</ele>
        <time>2024-11-05T11:39:46.951Z</time>
      </trkpt>
      <trkpt lat="44.63814" lon="3.32203">
        <ele>1116.97</ele>
        <time>2024-11-05T11:39:53.316Z</time>
      </trkpt>
      <trkpt lat="44.63794" lon="3.32176">
        <ele>1116.72</ele>
        <time>2024-11-05T11:39:59.685Z</time>
      </trkpt>
      <trkpt lat="44.63774" lon="3.32149">
        <ele>1116.4</ele>
        <time>2024-11-05T11:40:06.059Z</time>
      </trkpt>
      <trkpt lat="44.63754" lon="3.32122">
        <ele>1116.03</ele>
        <time>2024-11-05T11:40:12.437Z</time>
      </trkpt>
      <trkpt lat="44.63734" lon="3.32095">
        <ele>1115.59</ele>
        <time>2024-11-05T11:40:18.820Z</time>
      </trkpt>
      <trkpt lat="44.63714" lon="3.32068">
        <ele>1115.13</ele>
        <time>2024-11-05T11:40:25.207Z</time>
      </trkpt>
      <trkpt lat="44.63693" lon="3.32037">
        <ele>1114.6</ele>
        <time>2024-11-05T11:40:31.599Z</time>
      </trkpt>
      <trkpt lat="44.63672" lon="3.32006">
        <ele>1114</ele>
        <time>2024-11-05T11:40:37.996Z</time>
      </trkpt>
      <trkpt lat="44.63651" lon="3.31974">
        <ele>1113.47</ele>
        <time>2024-11-05T11:40:44.398Z</time>
      </trkpt>
      <trkpt lat="44.6363" lon="3.31943">
        <ele>1112.92</ele>
        <time>2024-11-05T11:40:50.805Z</time>
      </trkpt>
      <trkpt lat="44.63609" lon="3.31912">
        <ele>1112.32</ele>
        <time>2024-11-05T11:40:57.217Z</time>
      </trkpt>
      <trkpt lat="44.63597" lon="3.31886">
        <ele>1111.68</ele>
        <time>2024-11-05T11:41:03.632Z</time>
      </trkpt>
      <trkpt lat="44.63585" lon="3.31861">
        <ele>1111.04</ele>
        <time>2024-11-05T11:41:10.051Z</time>
      </trkpt>
      <trkpt lat="44.63585" lon="3.31861">
        <ele>1110.43</ele>
        <time>2024-11-05T11:41:16.470Z</time>
      </trkpt>
      <trkpt lat="44.63571" lon="3.31834">
        <ele>1109.8</ele>
        <time>2024-11-05T11:41:22.892Z</time>
      </trkpt>
      <trkpt lat="44.63557" lon="3.31807">
        <ele>1109.18</ele>
        <time>2024-11-05T11:41:29.318Z</time>
      </trkpt>
      <trkpt lat="44.63543" lon="3.3178">
        <ele>1108.58</ele>
        <time>2024-11-05T11:41:35.748Z</time>
      </trkpt>
      <trkpt lat="44.6353" lon="3.31753">
        <ele>1107.93</ele>
        <time>2024-11-05T11:41:42.182Z</time>
      </trkpt>
      <trkpt lat="44.63509" lon="3.3172">
        <ele>1107.26</ele>
        <time>2024-11-05T11:41:48.621Z</time>
      </trkpt>
      <trkpt lat="44.63489" lon="3.31686">
        <ele>1106.53</ele>
        <time>2024-11-05T11:41:55.065Z</time>
      </trkpt>
      <trkpt lat="44.63469" lon="3.31653">
        <ele>1105.77</ele>
        <time>2024-11-05T11:42:01.514Z</time>
      </trkpt>
      <trkpt lat="44.63464" lon="3.31636">
        <ele>1104.99</ele>
        <time>2024-11-05T11:42:07.965Z</time>
      </trkpt>
      <trkpt lat="44.63466" lon="3.31597">
        <ele>1104.14</ele>
        <time>2024-11-05T11:42:14.420Z</time>
      </trkpt>
      <trkpt lat="44.63468" lon="3.31558">
        <ele>1103.3</ele>
        <time>2024-11-05T11:42:20.880Z</time>
      </trkpt>
      <trkpt lat="44.63469" lon="3.31519">
        <ele>1102.49</ele>
        <time>2024-11-05T11:42:27.344Z</time>
      </trkpt>
      <trkpt lat="44.63471" lon="3.3148">
        <ele>1101.66</ele>
        <time>2024-11-05T11:42:33.813Z</time>
      </trkpt>
      <trkpt lat="44.63473" lon="3.31442">
        <ele>1100.82</ele>
        <time>2024-11-05T11:42:40.286Z</time>
      </trkpt>
      <trkpt lat="44.63476" lon="3.31405">
        <ele>1099.97</ele>
        <time>2024-11-05T11:42:46.763Z</time>
      </trkpt>
      <trkpt lat="44.63479" lon="3.31369">
        <ele>1099.08</ele>
        <time>2024-11-05T11:42:53.245Z</time>
      </trkpt>
      <trkpt lat="44.63477" lon="3.31338">
        <ele>1098.16</ele>
        <time>2024-11-05T11:42:59.730Z</time>
      </trkpt>
      <trkpt lat="44.63476" lon="3.31307">
        <ele>1097.23</ele>
        <time>2024-11-05T11:43:06.219Z</time>
      </trkpt>
      <trkpt lat="44.63471" lon="3.31288">
        <ele>1096.3</ele>
        <time>2024-11-05T11:43:12.710Z</time>
      </trkpt>
      <trkpt lat="44.63459" lon="3.31261">
        <ele>1095.37</ele>
        <time>2024-11-05T11:43:19.205Z</time>
      </trkpt>
      <trkpt lat="44.63447" lon="3.31235">
        <ele>1094.44</ele>
        <time>2024-11-05T11:43:25.703Z</time>
      </trkpt>
      <trkpt lat="44.63444" lon="3.3121">
        <ele>1093.5</ele>
        <time>2024-11-05T11:43:32.204Z</time>
      </trkpt>
      <trkpt lat="44.63453" lon="3.31186">
        <ele>1092.54</ele>
        <time>2024-11-05T11:43:38.708Z</time>
      </trkpt>
      <trkpt lat="44.63472" lon="3.3118">
        <ele>1091.52</ele>
        <time>2024-11-05T11:43:45.215Z</time>
      </trkpt>
      <trkpt lat="44.6349" lon="3.31173">
        <ele>1090.44</ele>
        <time>2024-11-05T11:43:51.725Z</time>
      </trkpt>
      <trkpt lat="44.63513" lon="3.3117">
        <ele>1089.32</ele>
        <time>2024-11-05T11:43:58.239Z</time>
      </trkpt>
      <trkpt lat="44.63537" lon="3.31167">
        <ele>1088.21</ele>
        <time>2024-11-05T11:44:04.757Z</time>
      </trkpt>
      <trkpt lat="44.63553" lon="3.31158">
        <ele>1087.14</ele>
        <time>2024-11-05T11:44:11.277Z</time>
      </trkpt>
      <trkpt lat="44.63569" lon="3.31139">
        <ele>1086.08</ele>
        <time>2024-11-05T11:44:17.801Z</time>
      </trkpt>
      <trkpt lat="44.63583" lon="3.31109">
        <ele>1085.08</ele>
        <time>2024-11-05T11:44:24.329Z</time>
      </trkpt>
      <trkpt lat="44.63597" lon="3.31078">
        <ele>1084.02</ele>
        <time>2024-11-05T11:44:30.861Z</time>
      </trkpt>
      <trkpt lat="44.6361" lon="3.31048">
        <ele>1082.94</ele>
        <time>2024-11-05T11:44:37.397Z</time>
      </trkpt>
      <trkpt lat="44.63624" lon="3.31017">
        <ele>1081.88</ele>
        <time>2024-11-05T11:44:43.937Z</time>
      </trkpt>
      <trkpt lat="44.63638" lon="3.30987">
        <ele>1080.75</ele>
        <time>2024-11-05T11:44:50.481Z</time>
      </trkpt>
      <trkpt lat="44.63652" lon="3.30967">
        <ele>1079.67</ele>
        <time>2024-11-05T11:44:57.029Z</time>
      </trkpt>
      <trkpt lat="44.63663" lon="3.30936">
        <ele>1078.5</ele>
        <time>2024-11-05T11:45:03.581Z</time>
      </trkpt>
      <trkpt lat="44.63661" lon="3.30899">
        <ele>1077.34</ele>
        <time>2024-11-05T11:45:10.137Z</time>
      </trkpt>
      <trkpt lat="44.6365" lon="3.30871">
        <ele>1076.23</ele>
        <time>2024-11-05T11:45:16.697Z</time>
      </trkpt>
      <trkpt lat="44.63627" lon="3.30851">
        <ele>1075.15</ele>
        <time>2024-11-05T11:45:23.261Z</time>
      </trkpt>
      <trkpt lat="44.63605" lon="3.30831">
        <ele>1074.08</ele>
        <time>2024-11-05T11:45:29.829Z</time>
      </trkpt>
      <trkpt lat="44.63587" lon="3.30822">
        <ele>1073.04</ele>
        <time>2024-11-05T11:45:36.400Z</time>
      </trkpt>
      <trkpt lat="44.6357" lon="3.30813">
        <ele>1071.94</ele>
        <time>2024-11-05T11:45:42.974Z</time>
      </trkpt>
      <trkpt lat="44.6355" lon="3.3081">
        <ele>1070.9</ele>
        <time>2024-11-05T11:45:49.551Z</time>
      </trkpt>
      <trkpt lat="44.6353" lon="3.30807">
        <ele>1069.87</ele>
        <time>2024-11-05T11:45:56.132Z</time>
      </trkpt>
      <trkpt lat="44.63512" lon="3.30792">
        <ele>1068.86</ele>
        <time>2024-11-05T11:46:02.716Z</time>
      </trkpt>
      <trkpt lat="44.63507" lon="3.3078">
        <ele>1067.78</ele>
        <time>2024-11-05T11:46:09.301Z</time>
      </trkpt>
      <trkpt lat="44.63502" lon="3.30757">
        <ele>1066.7</ele>
        <time>2024-11-05T11:46:15.889Z</time>
      </trkpt>
      <trkpt lat="44.63502" lon="3.30726">
        <ele>1065.57</ele>
        <time>2024-11-05T11:46:22.481Z</time>
      </trkpt>
      <trkpt lat="44.63502" lon="3.30695">
        <ele>1064.44</ele>
        <time>2024-11-05T11:46:29.076Z</time>
      </trkpt>
      <trkpt lat="44.63496" lon="3.30658">
        <ele>1063.3</ele>
        <time>2024-11-05T11:46:35.675Z</time>
      </trkpt>
      <trkpt lat="44.63489" lon="3.3064">
        <ele>1062.2</ele>
        <time>2024-11-05T11:46:42.277Z</time>
      </trkpt>
      <trkpt lat="44.63473" lon="3.30622">
        <ele>1061.12</ele>
        <time>2024-11-05T11:46:48.882Z</time>
      </trkpt>
      <trkpt lat="44.63453" lon="3.30613">
        <ele>1060.02</ele>
        <time>2024-11-05T11:46:55.490Z</time>
      </trkpt>
      <trkpt lat="44.63433" lon="3.30605">
        <ele>1058.87</ele>
        <time>2024-11-05T11:47:02.102Z</time>
      </trkpt>
      <trkpt lat="44.63413" lon="3.30602">
        <ele>1057.76</ele>
        <time>2024-11-05T11:47:08.717Z</time>
      </trkpt>
      <trkpt lat="44.63392" lon="3.30598">
        <ele>1056.72</ele>
        <time>2024-11-05T11:47:15.335Z</time>
      </trkpt>
      <trkpt lat="44.63377" lon="3.30591">
        <ele>1055.69</ele>
        <time>2024-11-05T11:47:21.956Z</time>
      </trkpt>
      <trkpt lat="44.63361" lon="3.30583">
        <ele>1054.67</ele>
        <time>2024-11-05T11:47:28.580Z</time>
      </trkpt>
      <trkpt lat="44.63338" lon="3.30554">
        <ele>1053.57</ele>
        <time>2024-11-05T11:47:35.209Z</time>
      </trkpt>
      <trkpt lat="44.63315" lon="3.30524">
        <ele>1052.5</ele>
        <time>2024-11-05T11:47:41.843Z</time>
      </trkpt>
      <trkpt lat="44.63291" lon="3.30494">
        <ele>1051.47</ele>
        <time>2024-11-05T11:47:48.482Z</time>
      </trkpt>
      <trkpt lat="44.63281" lon="3.30477">
        <ele>1050.43</ele>
        <time>2024-11-05T11:47:55.123Z</time>
      </trkpt>
      <trkpt lat="44.63277" lon="3.30445">
        <ele>1049.31</ele>
        <time>2024-11-05T11:48:01.768Z</time>
      </trkpt>
      <trkpt lat="44.63288" lon="3.30425">
        <ele>1048.29</ele>
        <time>2024-11-05T11:48:08.416Z</time>
      </trkpt>
      <trkpt lat="44.63313" lon="3.30414">
        <ele>1047.36</ele>
        <time>2024-11-05T11:48:15.068Z</time>
      </trkpt>
      <trkpt lat="44.63343" lon="3.30416">
        <ele>1046.28</ele>
        <time>2024-11-05T11:48:21.725Z</time>
      </trkpt>
      <trkpt lat="44.63367" lon="3.30412">
        <ele>1045.26</ele>
        <time>2024-11-05T11:48:28.386Z</time>
      </trkpt>
      <trkpt lat="44.63391" lon="3.30409">
        <ele>1044.25</ele>
        <time>2024-11-05T11:48:35.051Z</time>
      </trkpt>
      <trkpt lat="44.63414" lon="3.30398">
        <ele>1043.2</ele>
        <time>2024-11-05T11:48:41.719Z</time>
      </trkpt>
      <trkpt lat="44.63436" lon="3.30388">
        <ele>1042.18</ele>
        <time>2024-11-05T11:48:48.391Z</time>
      </trkpt>
      <trkpt lat="44.63465" lon="3.30377">
        <ele>1041.16</ele>
        <time>2024-11-05T11:48:55.068Z</time>
      </trkpt>
      <trkpt lat="44.63495" lon="3.30367">
        <ele>1040.2</ele>
        <time>2024-11-05T11:49:01.750Z</time>
      </trkpt>
      <trkpt lat="44.63524" lon="3.30356">
        <ele>1039.2</ele>
        <time>2024-11-05T11:49:08.437Z</time>
      </trkpt>
      <trkpt lat="44.63551" lon="3.30338">
        <ele>1038.25</ele>
        <time>2024-11-05T11:49:15.129Z</time>
      </trkpt>
      <trkpt lat="44.63565" lon="3.30322">
        <ele>1037.26</ele>
        <time>2024-11-05T11:49:21.823Z</time>
      </trkpt>
      <trkpt lat="44.63579" lon="3.30306">
        <ele>1036.23</ele>
        <time>2024-11-05T11:49:28.520Z</time>
      </trkpt>
      <trkpt lat="44.63592" lon="3.30293">
        <ele>1035.2</ele>
        <time>2024-11-05T11:49:35.220Z</time>
      </trkpt>
      <trkpt lat="44.63609" lon="3.30289">
        <ele>1034.15</ele>
        <time>2024-11-05T11:49:41.923Z</time>
      </trkpt>
      <trkpt lat="44.63626" lon="3.30285">
        <ele>1033.09</ele>
        <time>2024-11-05T11:49:48.628Z</time>
      </trkpt>
      <trkpt lat="44.63642" lon="3.30268">
        <ele>1032.14</ele>
        <time>2024-11-05T11:49:55.337Z</time>
      </trkpt>
      <trkpt lat="44.63651" lon="3.30244">
        <ele>1031.16</ele>
        <time>2024-11-05T11:50:02.049Z</time>
      </trkpt>
      <trkpt lat="44.63658" lon="3.30208">
        <ele>1030.17</ele>
        <time>2024-11-05T11:50:08.765Z</time>
      </trkpt>
      <trkpt lat="44.63657" lon="3.30185">
        <ele>1029.16</ele>
        <time>2024-11-05T11:50:15.484Z</time>
      </trkpt>
      <trkpt lat="44.63656" lon="3.30162">
        <ele>1028.17</ele>
        <time>2024-11-05T11:50:22.205Z</time>
      </trkpt>
      <trkpt lat="44.63648" lon="3.30133">
        <ele>1027.2</ele>
        <time>2024-11-05T11:50:28.930Z</time>
      </trkpt>
      <trkpt lat="44.63641" lon="3.30112">
        <ele>1026.25</ele>
        <time>2024-11-05T11:50:35.658Z</time>
      </trkpt>
      <trkpt lat="44.63634" lon="3.30091">
        <ele>1025.31</ele>
        <time>2024-11-05T11:50:42.388Z</time>
      </trkpt>
      <trkpt lat="44.63627" lon="3.30055">
        <ele>1024.32</ele>
        <time>2024-11-05T11:50:49.122Z</time>
      </trkpt>
      <trkpt lat="44.63621" lon="3.30019">
        <ele>1023.36</ele>
        <time>2024-11-05T11:50:55.861Z</time>
      </trkpt>
      <trkpt lat="44.63613" lon="3.29993">
        <ele>1022.46</ele>
        <time>2024-11-05T11:51:02.603Z</time>
      </trkpt>
      <trkpt lat="44.63605" lon="3.29968">
        <ele>1021.57</ele>
        <time>2024-11-05T11:51:09.348Z</time>
      </trkpt>
      <trkpt lat="44.636" lon="3.29956">
        <ele>1020.7</ele>
        <time>2024-11-05T11:51:16.095Z</time>
      </trkpt>
      <trkpt lat="44.63589" lon="3.2994">
        <ele>1019.9</ele>
        <time>2024-11-05T11:51:22.844Z</time>
      </trkpt>
      <trkpt lat="44.63578" lon="3.29924">
        <ele>1019.07</ele>
        <time>2024-11-05T11:51:29.596Z</time>
      </trkpt>
      <trkpt lat="44.63549" lon="3.29909">
        <ele>1018.36</ele>
        <time>2024-11-05T11:51:36.353Z</time>
      </trkpt>
      <trkpt lat="44.6352" lon="3.29894">
        <ele>1017.68</ele>
        <time>2024-11-05T11:51:43.115Z</time>
      </trkpt>
      <trkpt lat="44.63501" lon="3.29861">
        <ele>1016.88</ele>
        <time>2024-11-05T11:51:49.881Z</time>
      </trkpt>
      <trkpt lat="44.63482" lon="3.29829">
        <ele>1016.19</ele>
        <time>2024-11-05T11:51:56.652Z</time>
      </trkpt>
      <trkpt lat="44.63463" lon="3.29796">
        <ele>1015.5</ele>
        <time>2024-11-05T11:52:03.428Z</time>
      </trkpt>
      <trkpt lat="44.63444" lon="3.29764">
        <ele>1014.78</ele>
        <time>2024-11-05T11:52:10.209Z</time>
      </trkpt>
      <trkpt lat="44.6343" lon="3.29739">
        <ele>1014.13</ele>
        <time>2024-11-05T11:52:16.993Z</time>
      </trkpt>
      <trkpt lat="44.63417" lon="3.29714">
        <ele>1013.49</ele>
        <time>2024-11-05T11:52:23.781Z</time>
      </trkpt>
      <trkpt lat="44.63399" lon="3.29696">
        <ele>1013</ele>
        <time>2024-11-05T11:52:30.572Z</time>
      </trkpt>
      <trkpt lat="44.63381" lon="3.29678">
        <ele>1012.46</ele>
        <time>2024-11-05T11:52:37.367Z</time>
      </trkpt>
      <trkpt lat="44.6336" lon="3.29671">
        <ele>1012.08</ele>
        <time>2024-11-05T11:52:44.165Z</time>
      </trkpt>
      <trkpt lat="44.63339" lon="3.29664">
        <ele>1011.71</ele>
        <time>2024-11-05T11:52:50.967Z</time>
      </trkpt>
      <trkpt lat="44.63317" lon="3.29657">
        <ele>1011.48</ele>
        <time>2024-11-05T11:52:57.773Z</time>
      </trkpt>
      <trkpt lat="44.63307" lon="3.29645">
        <ele>1011.19</ele>
        <time>2024-11-05T11:53:04.581Z</time>
      </trkpt>
      <trkpt lat="44.63305" lon="3.29627">
        <ele>1010.83</ele>
        <time>2024-11-05T11:53:11.391Z</time>
      </trkpt>
      <trkpt lat="44.6331" lon="3.29594">
        <ele>1010.33</ele>
        <time>2024-11-05T11:53:18.204Z</time>
      </trkpt>
      <trkpt lat="44.6331" lon="3.29572">
        <ele>1010.1</ele>
        <time>2024-11-05T11:53:25.020Z</time>
      </trkpt>
      <trkpt lat="44.63304" lon="3.29546">
        <ele>1010</ele>
        <time>2024-11-05T11:53:31.839Z</time>
      </trkpt>
      <trkpt lat="44.63298" lon="3.29521">
        <ele>1009.96</ele>
        <time>2024-11-05T11:53:38.661Z</time>
      </trkpt>
      <trkpt lat="44.6328" lon="3.29489">
        <ele>1009.98</ele>
        <time>2024-11-05T11:53:45.488Z</time>
      </trkpt>
      <trkpt lat="44.63258" lon="3.2947">
        <ele>1010.06</ele>
        <time>2024-11-05T11:53:52.319Z</time>
      </trkpt>
      <trkpt lat="44.63237" lon="3.2945">
        <ele>1010.18</ele>
        <time>2024-11-05T11:53:59.154Z</time>
      </trkpt>
      <trkpt lat="44.63228" lon="3.29433">
        <ele>1010.28</ele>
        <time>2024-11-05T11:54:05.991Z</time>
      </trkpt>
      <trkpt lat="44.63225" lon="3.294">
        <ele>1010.33</ele>
        <time>2024-11-05T11:54:12.832Z</time>
      </trkpt>
      <trkpt lat="44.63225" lon="3.29366">
        <ele>1010.49</ele>
        <time>2024-11-05T11:54:19.677Z</time>
      </trkpt>
      <trkpt lat="44.63222" lon="3.29332">
        <ele>1010.66</ele>
        <time>2024-11-05T11:54:26.526Z</time>
      </trkpt>
      <trkpt lat="44.63211" lon="3.29309">
        <ele>1010.93</ele>
        <time>2024-11-05T11:54:33.378Z</time>
      </trkpt>
      <trkpt lat="44.63201" lon="3.29285">
        <ele>1011.24</ele>
        <time>2024-11-05T11:54:40.233Z</time>
      </trkpt>
      <trkpt lat="44.63197" lon="3.29291">
        <ele>1011.72</ele>
        <time>2024-11-05T11:54:47.089Z</time>
      </trkpt>
      <trkpt lat="44.63184" lon="3.29286">
        <ele>1012.25</ele>
        <time>2024-11-05T11:54:53.947Z</time>
      </trkpt>
      <trkpt lat="44.63168" lon="3.29273">
        <ele>1012.77</ele>
        <time>2024-11-05T11:55:00.808Z</time>
      </trkpt>
      <trkpt lat="44.63141" lon="3.29257">
        <ele>1013.38</ele>
        <time>2024-11-05T11:55:07.674Z</time>
      </trkpt>
      <trkpt lat="44.63115" lon="3.29241">
        <ele>1014.04</ele>
        <time>2024-11-05T11:55:14.545Z</time>
      </trkpt>
      <trkpt lat="44.63088" lon="3.29225">
        <ele>1014.69</ele>
        <time>2024-11-05T11:55:21.420Z</time>
      </trkpt>
      <trkpt lat="44.63062" lon="3.29209">
        <ele>1015.32</ele>
        <time>2024-11-05T11:55:28.300Z</time>
      </trkpt>
      <trkpt lat="44.63051" lon="3.29198">
        <ele>1015.94</ele>
        <time>2024-11-05T11:55:35.182Z</time>
      </trkpt>
      <trkpt lat="44.63041" lon="3.29185">
        <ele>1016.55</ele>
        <time>2024-11-05T11:55:42.066Z</time>
      </trkpt>
      <trkpt lat="44.63038" lon="3.29154">
        <ele>1017.04</ele>
        <time>2024-11-05T11:55:48.954Z</time>
      </trkpt>
      <trkpt lat="44.63031" lon="3.29124">
        <ele>1017.66</ele>
        <time>2024-11-05T11:55:55.845Z</time>
      </trkpt>
      <trkpt lat="44.63021" lon="3.29092">
        <ele>1018.28</ele>
        <time>2024-11-05T11:56:02.740Z</time>
      </trkpt>
      <trkpt lat="44.63015" lon="3.29087">
        <ele>1018.87</ele>
        <time>2024-11-05T11:56:09.636Z</time>
      </trkpt>
      <trkpt lat="44.63004" lon="3.29083">
        <ele>1019.52</ele>
        <time>2024-11-05T11:56:16.534Z</time>
      </trkpt>
      <trkpt lat="44.62987" lon="3.29077">
        <ele>1020.11</ele>
        <time>2024-11-05T11:56:23.435Z</time>
      </trkpt>
      <trkpt lat="44.62971" lon="3.29071">
        <ele>1020.61</ele>
        <time>2024-11-05T11:56:30.339Z</time>
      </trkpt>
      <trkpt lat="44.62953" lon="3.2906">
        <ele>1021</ele>
        <time>2024-11-05T11:56:37.246Z</time>
      </trkpt>
      <trkpt lat="44.62936" lon="3.29049">
        <ele>1021.39</ele>
        <time>2024-11-05T11:56:44.156Z</time>
      </trkpt>
      <trkpt lat="44.62907" lon="3.29035">
        <ele>1021.89</ele>
        <time>2024-11-05T11:56:51.071Z</time>
      </trkpt>
      <trkpt lat="44.62877" lon="3.29021">
        <ele>1022.3</ele>
        <time>2024-11-05T11:56:57.991Z</time>
      </trkpt>
      <trkpt lat="44.6285" lon="3.29006">
        <ele>1022.6</ele>
        <time>2024-11-05T11:57:04.915Z</time>
      </trkpt>
      <trkpt lat="44.6285" lon="3.29006">
        <ele>1022.77</ele>
        <time>2024-11-05T11:57:11.839Z</time>
      </trkpt>
      <trkpt lat="44.6285" lon="3.29006">
        <ele>1022.89</ele>
        <time>2024-11-05T11:57:18.763Z</time>
      </trkpt>
      <trkpt lat="44.6285" lon="3.29006">
        <ele>1022.93</ele>
        <time>2024-11-05T11:57:25.687Z</time>
      </trkpt>
      <trkpt lat="44.6285" lon="3.29006">
        <ele>1022.91</ele>
        <time>2024-11-05T11:57:32.611Z</time>
      </trkpt>
      <trkpt lat="44.62877" lon="3.29021">
        <ele>1022.3</ele>
        <time>2024-11-05T11:57:39.540Z</time>
      </trkpt>
      <trkpt lat="44.62907" lon="3.29035">
        <ele>1022.48</ele>
        <time>2024-11-05T11:57:46.474Z</time>
      </trkpt>
      <trkpt lat="44.62936" lon="3.29049">
        <ele>1021.39</ele>
        <time>2024-11-05T11:57:53.413Z</time>
      </trkpt>
      <trkpt lat="44.62953" lon="3.2906">
        <ele>1021.79</ele>
        <time>2024-11-05T11:58:00.355Z</time>
      </trkpt>
      <trkpt lat="44.62971" lon="3.29071">
        <ele>1020.61</ele>
        <time>2024-11-05T11:58:07.300Z</time>
      </trkpt>
      <trkpt lat="44.62987" lon="3.29077">
        <ele>1021</ele>
        <time>2024-11-05T11:58:14.248Z</time>
      </trkpt>
      <trkpt lat="44.63004" lon="3.29083">
        <ele>1019.52</ele>
        <time>2024-11-05T11:58:21.199Z</time>
      </trkpt>
      <trkpt lat="44.63015" lon="3.29087">
        <ele>1018.87</ele>
        <time>2024-11-05T11:58:28.151Z</time>
      </trkpt>
      <trkpt lat="44.63021" lon="3.29092">
        <ele>1018.28</ele>
        <time>2024-11-05T11:58:35.105Z</time>
      </trkpt>
      <trkpt lat="44.63031" lon="3.29124">
        <ele>1017.66</ele>
        <time>2024-11-05T11:58:42.063Z</time>
      </trkpt>
      <trkpt lat="44.63038" lon="3.29154">
        <ele>1017.04</ele>
        <time>2024-11-05T11:58:49.024Z</time>
      </trkpt>
      <trkpt lat="44.63041" lon="3.29185">
        <ele>1016.55</ele>
        <time>2024-11-05T11:58:55.989Z</time>
      </trkpt>
      <trkpt lat="44.63051" lon="3.29198">
        <ele>1015.94</ele>
        <time>2024-11-05T11:59:02.956Z</time>
      </trkpt>
      <trkpt lat="44.63062" lon="3.29209">
        <ele>1015.32</ele>
        <time>2024-11-05T11:59:09.925Z</time>
      </trkpt>
      <trkpt lat="44.63088" lon="3.29225">
        <ele>1013.85</ele>
        <time>2024-11-05T11:59:16.899Z</time>
      </trkpt>
      <trkpt lat="44.63115" lon="3.29241">
        <ele>1012.71</ele>
        <time>2024-11-05T11:59:23.877Z</time>
      </trkpt>
      <trkpt lat="44.63141" lon="3.29257">
        <ele>1011.5</ele>
        <time>2024-11-05T11:59:30.860Z</time>
      </trkpt>
      <trkpt lat="44.63168" lon="3.29273">
        <ele>1012.77</ele>
        <time>2024-11-05T11:59:37.848Z</time>
      </trkpt>
      <trkpt lat="44.63184" lon="3.29286">
        <ele>1012.25</ele>
        <time>2024-11-05T11:59:44.839Z</time>
      </trkpt>
      <trkpt lat="44.63197" lon="3.29291">
        <ele>1011.72</ele>
        <time>2024-11-05T11:59:51.832Z</time>
      </trkpt>
      <trkpt lat="44.63201" lon="3.29285">
        <ele>1006.46</ele>
        <time>2024-11-05T11:59:58.826Z</time>
      </trkpt>
      <trkpt lat="44.63184" lon="3.29252">
        <ele>1005.12</ele>
        <time>2024-11-05T12:00:05.824Z</time>
      </trkpt>
      <trkpt lat="44.63166" lon="3.29233">
        <ele>1003.82</ele>
        <time>2024-11-05T12:00:12.826Z</time>
      </trkpt>
      <trkpt lat="44.63148" lon="3.29215">
        <ele>1002.5</ele>
        <time>2024-11-05T12:00:19.831Z</time>
      </trkpt>
      <trkpt lat="44.6313" lon="3.29196">
        <ele>1001.13</ele>
        <time>2024-11-05T12:00:26.840Z</time>
      </trkpt>
      <trkpt lat="44.63114" lon="3.29184">
        <ele>999.76</ele>
        <time>2024-11-05T12:00:33.852Z</time>
      </trkpt>
      <trkpt lat="44.63098" lon="3.29173">
        <ele>998.41</ele>
        <time>2024-11-05T12:00:40.867Z</time>
      </trkpt>
      <trkpt lat="44.63086" lon="3.29158">
        <ele>997</ele>
        <time>2024-11-05T12:00:47.884Z</time>
      </trkpt>
      <trkpt lat="44.63086" lon="3.29141">
        <ele>995.51</ele>
        <time>2024-11-05T12:00:54.903Z</time>
      </trkpt>
      <trkpt lat="44.63094" lon="3.29112">
        <ele>993.9</ele>
        <time>2024-11-05T12:01:01.926Z</time>
      </trkpt>
      <trkpt lat="44.63097" lon="3.29088">
        <ele>992.3</ele>
        <time>2024-11-05T12:01:08.952Z</time>
      </trkpt>
      <trkpt lat="44.63095" lon="3.29048">
        <ele>990.56</ele>
        <time>2024-11-05T12:01:15.982Z</time>
      </trkpt>
      <trkpt lat="44.63089" lon="3.29026">
        <ele>988.82</ele>
        <time>2024-11-05T12:01:23.015Z</time>
      </trkpt>
      <trkpt lat="44.63074" lon="3.29016">
        <ele>987.48</ele>
        <time>2024-11-05T12:01:30.050Z</time>
      </trkpt>
      <trkpt lat="44.63059" lon="3.29007">
        <ele>986.12</ele>
        <time>2024-11-05T12:01:37.088Z</time>
      </trkpt>
      <trkpt lat="44.63039" lon="3.29">
        <ele>984.81</ele>
        <time>2024-11-05T12:01:44.129Z</time>
      </trkpt>
      <trkpt lat="44.6302" lon="3.28993">
        <ele>983.37</ele>
        <time>2024-11-05T12:01:51.173Z</time>
      </trkpt>
      <trkpt lat="44.62996" lon="3.28974">
        <ele>981.74</ele>
        <time>2024-11-05T12:01:58.222Z</time>
      </trkpt>
      <trkpt lat="44.62972" lon="3.28955">
        <ele>980.18</ele>
        <time>2024-11-05T12:02:05.275Z</time>
      </trkpt>
      <trkpt lat="44.62953" lon="3.28938">
        <ele>978.69</ele>
        <time>2024-11-05T12:02:12.332Z</time>
      </trkpt>
      <trkpt lat="44.62934" lon="3.2892">
        <ele>977.23</ele>
        <time>2024-11-05T12:02:19.393Z</time>
      </trkpt>
      <trkpt lat="44.62915" lon="3.28903">
        <ele>975.77</ele>
        <time>2024-11-05T12:02:26.457Z</time>
      </trkpt>
      <trkpt lat="44.62894" lon="3.28877">
        <ele>974.19</ele>
        <time>2024-11-05T12:02:33.526Z</time>
      </trkpt>
      <trkpt lat="44.62874" lon="3.28851">
        <ele>972.64</ele>
        <time>2024-11-05T12:02:40.599Z</time>
      </trkpt>
      <trkpt lat="44.62853" lon="3.28833">
        <ele>971.13</ele>
        <time>2024-11-05T12:02:47.676Z</time>
      </trkpt>
      <trkpt lat="44.62832" lon="3.28815">
        <ele>969.59</ele>
        <time>2024-11-05T12:02:54.757Z</time>
      </trkpt>
      <trkpt lat="44.62821" lon="3.28802">
        <ele>967.97</ele>
        <time>2024-11-05T12:03:01.840Z</time>
      </trkpt>
      <trkpt lat="44.62801" lon="3.28792">
        <ele>966.45</ele>
        <time>2024-11-05T12:03:08.927Z</time>
      </trkpt>
      <trkpt lat="44.62777" lon="3.28785">
        <ele>964.99</ele>
        <time>2024-11-05T12:03:16.018Z</time>
      </trkpt>
      <trkpt lat="44.62754" lon="3.28779">
        <ele>963.53</ele>
        <time>2024-11-05T12:03:23.112Z</time>
      </trkpt>
      <trkpt lat="44.6273" lon="3.28763">
        <ele>962.02</ele>
        <time>2024-11-05T12:03:30.211Z</time>
      </trkpt>
      <trkpt lat="44.62706" lon="3.28748">
        <ele>960.59</ele>
        <time>2024-11-05T12:03:37.314Z</time>
      </trkpt>
      <trkpt lat="44.62684" lon="3.28729">
        <ele>959.13</ele>
        <time>2024-11-05T12:03:44.421Z</time>
      </trkpt>
      <trkpt lat="44.62662" lon="3.28711">
        <ele>957.69</ele>
        <time>2024-11-05T12:03:51.532Z</time>
      </trkpt>
      <trkpt lat="44.62648" lon="3.28698">
        <ele>956.22</ele>
        <time>2024-11-05T12:03:58.646Z</time>
      </trkpt>
      <trkpt lat="44.62635" lon="3.28684">
        <ele>954.75</ele>
        <time>2024-11-05T12:04:05.762Z</time>
      </trkpt>
      <trkpt lat="44.62614" lon="3.28658">
        <ele>953.21</ele>
        <time>2024-11-05T12:04:12.883Z</time>
      </trkpt>
      <trkpt lat="44.62593" lon="3.28632">
        <ele>951.67</ele>
        <time>2024-11-05T12:04:20.008Z</time>
      </trkpt>
      <trkpt lat="44.62579" lon="3.28628">
        <ele>950.33</ele>
        <time>2024-11-05T12:04:27.136Z</time>
      </trkpt>
      <trkpt lat="44.62567" lon="3.28618">
        <ele>948.89</ele>
        <time>2024-11-05T12:04:34.266Z</time>
      </trkpt>
      <trkpt lat="44.62561" lon="3.28604">
        <ele>947.33</ele>
        <time>2024-11-05T12:04:41.398Z</time>
      </trkpt>
      <trkpt lat="44.62555" lon="3.28579">
        <ele>945.69</ele>
        <time>2024-11-05T12:04:48.533Z</time>
      </trkpt>
      <trkpt lat="44.62548" lon="3.28558">
        <ele>944.13</ele>
        <time>2024-11-05T12:04:55.670Z</time>
      </trkpt>
      <trkpt lat="44.62538" lon="3.28546">
        <ele>942.69</ele>
        <time>2024-11-05T12:05:02.809Z</time>
      </trkpt>
      <trkpt lat="44.62512" lon="3.28527">
        <ele>941.31</ele>
        <time>2024-11-05T12:05:09.953Z</time>
      </trkpt>
      <trkpt lat="44.62485" lon="3.28507">
        <ele>939.9</ele>
        <time>2024-11-05T12:05:17.102Z</time>
      </trkpt>
      <trkpt lat="44.62458" lon="3.28488">
        <ele>938.45</ele>
        <time>2024-11-05T12:05:24.256Z</time>
      </trkpt>
      <trkpt lat="44.62432" lon="3.28469">
        <ele>936.95</ele>
        <time>2024-11-05T12:05:31.415Z</time>
      </trkpt>
      <trkpt lat="44.62405" lon="3.28449">
        <ele>935.48</ele>
        <time>2024-11-05T12:05:38.578Z</time>
      </trkpt>
      <trkpt lat="44.62389" lon="3.28435">
        <ele>934.06</ele>
        <time>2024-11-05T12:05:45.744Z</time>
      </trkpt>
      <trkpt lat="44.62373" lon="3.2842">
        <ele>932.68</ele>
        <time>2024-11-05T12:05:52.914Z</time>
      </trkpt>
      <trkpt lat="44.62354" lon="3.28394">
        <ele>931.19</ele>
        <time>2024-11-05T12:06:00.088Z</time>
      </trkpt>
      <trkpt lat="44.6234" lon="3.28379">
        <ele>929.78</ele>
        <time>2024-11-05T12:06:07.265Z</time>
      </trkpt>
      <trkpt lat="44.62323" lon="3.28373">
        <ele>928.45</ele>
        <time>2024-11-05T12:06:14.444Z</time>
      </trkpt>
      <trkpt lat="44.62306" lon="3.28367">
        <ele>927.12</ele>
        <time>2024-11-05T12:06:21.626Z</time>
      </trkpt>
      <trkpt lat="44.62291" lon="3.28359">
        <ele>925.8</ele>
        <time>2024-11-05T12:06:28.811Z</time>
      </trkpt>
      <trkpt lat="44.62276" lon="3.28352">
        <ele>924.47</ele>
        <time>2024-11-05T12:06:35.998Z</time>
      </trkpt>
      <trkpt lat="44.62255" lon="3.28347">
        <ele>923.1</ele>
        <time>2024-11-05T12:06:43.189Z</time>
      </trkpt>
      <trkpt lat="44.62225" lon="3.28347">
        <ele>921.67</ele>
        <time>2024-11-05T12:06:50.385Z</time>
      </trkpt>
      <trkpt lat="44.62204" lon="3.28352">
        <ele>920.36</ele>
        <time>2024-11-05T12:06:57.584Z</time>
      </trkpt>
      <trkpt lat="44.62183" lon="3.28356">
        <ele>919.08</ele>
        <time>2024-11-05T12:07:04.786Z</time>
      </trkpt>
      <trkpt lat="44.62162" lon="3.2836">
        <ele>917.8</ele>
        <time>2024-11-05T12:07:11.992Z</time>
      </trkpt>
      <trkpt lat="44.62134" lon="3.28374">
        <ele>916.5</ele>
        <time>2024-11-05T12:07:19.203Z</time>
      </trkpt>
      <trkpt lat="44.62109" lon="3.28388">
        <ele>915.14</ele>
        <time>2024-11-05T12:07:26.418Z</time>
      </trkpt>
      <trkpt lat="44.62104" lon="3.28399">
        <ele>913.93</ele>
        <time>2024-11-05T12:07:33.634Z</time>
      </trkpt>
      <trkpt lat="44.62104" lon="3.28409">
        <ele>912.78</ele>
        <time>2024-11-05T12:07:40.851Z</time>
      </trkpt>
      <trkpt lat="44.62106" lon="3.28417">
        <ele>911.66</ele>
        <time>2024-11-05T12:07:48.069Z</time>
      </trkpt>
      <trkpt lat="44.62112" lon="3.28427">
        <ele>910.6</ele>
        <time>2024-11-05T12:07:55.289Z</time>
      </trkpt>
      <trkpt lat="44.62137" lon="3.28445">
        <ele>909.72</ele>
        <time>2024-11-05T12:08:02.513Z</time>
      </trkpt>
      <trkpt lat="44.62152" lon="3.28464">
        <ele>908.79</ele>
        <time>2024-11-05T12:08:09.741Z</time>
      </trkpt>
      <trkpt lat="44.62152" lon="3.28464">
        <ele>907.79</ele>
        <time>2024-11-05T12:08:16.969Z</time>
      </trkpt>
      <trkpt lat="44.62156" lon="3.28479">
        <ele>906.8</ele>
        <time>2024-11-05T12:08:24.199Z</time>
      </trkpt>
      <trkpt lat="44.62161" lon="3.28513">
        <ele>905.8</ele>
        <time>2024-11-05T12:08:31.432Z</time>
      </trkpt>
      <trkpt lat="44.62162" lon="3.28533">
        <ele>904.82</ele>
        <time>2024-11-05T12:08:38.668Z</time>
      </trkpt>
      <trkpt lat="44.62161" lon="3.28558">
        <ele>903.87</ele>
        <time>2024-11-05T12:08:45.907Z</time>
      </trkpt>
      <trkpt lat="44.62158" lon="3.28572">
        <ele>902.92</ele>
        <time>2024-11-05T12:08:53.147Z</time>
      </trkpt>
      <trkpt lat="44.6215" lon="3.28605">
        <ele>901.91</ele>
        <time>2024-11-05T12:09:00.391Z</time>
      </trkpt>
      <trkpt lat="44.62142" lon="3.28637">
        <ele>900.97</ele>
        <time>2024-11-05T12:09:07.639Z</time>
      </trkpt>
      <trkpt lat="44.62132" lon="3.28669">
        <ele>900.13</ele>
        <time>2024-11-05T12:09:14.891Z</time>
      </trkpt>
      <trkpt lat="44.6212" lon="3.28689">
        <ele>899.24</ele>
        <time>2024-11-05T12:09:22.146Z</time>
      </trkpt>
      <trkpt lat="44.62108" lon="3.28699">
        <ele>898.3</ele>
        <time>2024-11-05T12:09:29.403Z</time>
      </trkpt>
      <trkpt lat="44.62093" lon="3.28709">
        <ele>897.33</ele>
        <time>2024-11-05T12:09:36.663Z</time>
      </trkpt>
      <trkpt lat="44.62064" lon="3.2872">
        <ele>896.33</ele>
        <time>2024-11-05T12:09:43.928Z</time>
      </trkpt>
      <trkpt lat="44.62034" lon="3.28731">
        <ele>895.47</ele>
        <time>2024-11-05T12:09:51.198Z</time>
      </trkpt>
      <trkpt lat="44.62005" lon="3.28742">
        <ele>894.58</ele>
        <time>2024-11-05T12:09:58.473Z</time>
      </trkpt>
      <trkpt lat="44.61992" lon="3.28742">
        <ele>893.55</ele>
        <time>2024-11-05T12:10:05.750Z</time>
      </trkpt>
      <trkpt lat="44.61967" lon="3.28736">
        <ele>892.3</ele>
        <time>2024-11-05T12:10:13.031Z</time>
      </trkpt>
      <trkpt lat="44.61953" lon="3.28737">
        <ele>891.31</ele>
        <time>2024-11-05T12:10:20.314Z</time>
      </trkpt>
      <trkpt lat="44.61944" lon="3.28746">
        <ele>890.47</ele>
        <time>2024-11-05T12:10:27.599Z</time>
      </trkpt>
      <trkpt lat="44.61932" lon="3.28785">
        <ele>889.98</ele>
        <time>2024-11-05T12:10:34.889Z</time>
      </trkpt>
      <trkpt lat="44.61927" lon="3.28794">
        <ele>889.13</ele>
        <time>2024-11-05T12:10:42.180Z</time>
      </trkpt>
      <trkpt lat="44.61919" lon="3.28797">
        <ele>888.19</ele>
        <time>2024-11-05T12:10:49.472Z</time>
      </trkpt>
      <trkpt lat="44.61897" lon="3.28793">
        <ele>887.04</ele>
        <time>2024-11-05T12:10:56.768Z</time>
      </trkpt>
      <trkpt lat="44.6188" lon="3.28798">
        <ele>886.09</ele>
        <time>2024-11-05T12:11:04.066Z</time>
      </trkpt>
      <trkpt lat="44.61874" lon="3.28806">
        <ele>885.26</ele>
        <time>2024-11-05T12:11:11.366Z</time>
      </trkpt>
      <trkpt lat="44.6186" lon="3.28831">
        <ele>884.58</ele>
        <time>2024-11-05T12:11:18.669Z</time>
      </trkpt>
      <trkpt lat="44.61843" lon="3.28845">
        <ele>883.7</ele>
        <time>2024-11-05T12:11:25.976Z</time>
      </trkpt>
      <trkpt lat="44.61825" lon="3.28856">
        <ele>882.79</ele>
        <time>2024-11-05T12:11:33.286Z</time>
      </trkpt>
      <trkpt lat="44.61806" lon="3.28867">
        <ele>881.87</ele>
        <time>2024-11-05T12:11:40.599Z</time>
      </trkpt>
      <trkpt lat="44.61782" lon="3.28885">
        <ele>880.97</ele>
        <time>2024-11-05T12:11:47.916Z</time>
      </trkpt>
      <trkpt lat="44.61767" lon="3.28912">
        <ele>880.15</ele>
        <time>2024-11-05T12:11:55.237Z</time>
      </trkpt>
      <trkpt lat="44.61761" lon="3.28935">
        <ele>879.35</ele>
        <time>2024-11-05T12:12:02.561Z</time>
      </trkpt>
      <trkpt lat="44.61755" lon="3.28959">
        <ele>878.57</ele>
        <time>2024-11-05T12:12:09.888Z</time>
      </trkpt>
      <trkpt lat="44.6175" lon="3.28967">
        <ele>877.69</ele>
        <time>2024-11-05T12:12:17.216Z</time>
      </trkpt>
      <trkpt lat="44.61738" lon="3.28971">
        <ele>876.84</ele>
        <time>2024-11-05T12:12:24.546Z</time>
      </trkpt>
      <trkpt lat="44.61728" lon="3.28968">
        <ele>875.87</ele>
        <time>2024-11-05T12:12:31.878Z</time>
      </trkpt>
      <trkpt lat="44.61723" lon="3.28959">
        <ele>874.82</ele>
        <time>2024-11-05T12:12:39.211Z</time>
      </trkpt>
      <trkpt lat="44.61717" lon="3.28919">
        <ele>873.45</ele>
        <time>2024-11-05T12:12:46.549Z</time>
      </trkpt>
      <trkpt lat="44.61711" lon="3.2888">
        <ele>872.17</ele>
        <time>2024-11-05T12:12:53.891Z</time>
      </trkpt>
      <trkpt lat="44.61699" lon="3.28857">
        <ele>870.98</ele>
        <time>2024-11-05T12:13:01.237Z</time>
      </trkpt>
      <trkpt lat="44.61686" lon="3.28851">
        <ele>869.88</ele>
        <time>2024-11-05T12:13:08.585Z</time>
      </trkpt>
      <trkpt lat="44.61675" lon="3.2885">
        <ele>868.82</ele>
        <time>2024-11-05T12:13:15.935Z</time>
      </trkpt>
      <trkpt lat="44.61659" lon="3.28862">
        <ele>867.85</ele>
        <time>2024-11-05T12:13:23.288Z</time>
      </trkpt>
      <trkpt lat="44.61643" lon="3.28875">
        <ele>866.88</ele>
        <time>2024-11-05T12:13:30.643Z</time>
      </trkpt>
      <trkpt lat="44.61619" lon="3.28881">
        <ele>865.69</ele>
        <time>2024-11-05T12:13:38.002Z</time>
      </trkpt>
      <trkpt lat="44.616" lon="3.28889">
        <ele>864.65</ele>
        <time>2024-11-05T12:13:45.364Z</time>
      </trkpt>
      <trkpt lat="44.61578" lon="3.28904">
        <ele>863.69</ele>
        <time>2024-11-05T12:13:52.730Z</time>
      </trkpt>
      <trkpt lat="44.61558" lon="3.2892">
        <ele>862.8</ele>
        <time>2024-11-05T12:14:00.100Z</time>
      </trkpt>
      <trkpt lat="44.61538" lon="3.28937">
        <ele>861.78</ele>
        <time>2024-11-05T12:14:07.474Z</time>
      </trkpt>
      <trkpt lat="44.61509" lon="3.28945">
        <ele>860.61</ele>
        <time>2024-11-05T12:14:14.853Z</time>
      </trkpt>
      <trkpt lat="44.61486" lon="3.28943">
        <ele>859.53</ele>
        <time>2024-11-05T12:14:22.235Z</time>
      </trkpt>
      <trkpt lat="44.61463" lon="3.28942">
        <ele>858.5</ele>
        <time>2024-11-05T12:14:29.621Z</time>
      </trkpt>
      <trkpt lat="44.61446" lon="3.28937">
        <ele>857.42</ele>
        <time>2024-11-05T12:14:37.010Z</time>
      </trkpt>
      <trkpt lat="44.61428" lon="3.28926">
        <ele>856.22</ele>
        <time>2024-11-05T12:14:44.402Z</time>
      </trkpt>
      <trkpt lat="44.61413" lon="3.2892">
        <ele>855.11</ele>
        <time>2024-11-05T12:14:51.796Z</time>
      </trkpt>
      <trkpt lat="44.61398" lon="3.28921">
        <ele>854.09</ele>
        <time>2024-11-05T12:14:59.193Z</time>
      </trkpt>
      <trkpt lat="44.61384" lon="3.28932">
        <ele>853.13</ele>
        <time>2024-11-05T12:15:06.592Z</time>
      </trkpt>
      <trkpt lat="44.61372" lon="3.28945">
        <ele>852.32</ele>
        <time>2024-11-05T12:15:13.994Z</time>
      </trkpt>
      <trkpt lat="44.61359" lon="3.28954">
        <ele>851.36</ele>
        <time>2024-11-05T12:15:21.398Z</time>
      </trkpt>
      <trkpt lat="44.6133" lon="3.28961">
        <ele>850.16</ele>
        <time>2024-11-05T12:15:28.807Z</time>
      </trkpt>
      <trkpt lat="44.613" lon="3.28969">
        <ele>849.03</ele>
        <time>2024-11-05T12:15:36.221Z</time>
      </trkpt>
      <trkpt lat="44.61287" lon="3.28974">
        <ele>848.08</ele>
        <time>2024-11-05T12:15:43.637Z</time>
      </trkpt>
      <trkpt lat="44.61272" lon="3.28989">
        <ele>847.21</ele>
        <time>2024-11-05T12:15:51.056Z</time>
      </trkpt>
      <trkpt lat="44.61256" lon="3.29004">
        <ele>846.38</ele>
        <time>2024-11-05T12:15:58.478Z</time>
      </trkpt>
      <trkpt lat="44.61238" lon="3.29029">
        <ele>845.44</ele>
        <time>2024-11-05T12:16:05.904Z</time>
      </trkpt>
      <trkpt lat="44.61221" lon="3.29055">
        <ele>844.46</ele>
        <time>2024-11-05T12:16:13.334Z</time>
      </trkpt>
      <trkpt lat="44.61216" lon="3.29063">
        <ele>843.65</ele>
        <time>2024-11-05T12:16:20.765Z</time>
      </trkpt>
      <trkpt lat="44.61212" lon="3.2909">
        <ele>842.99</ele>
        <time>2024-11-05T12:16:28.199Z</time>
      </trkpt>
      <trkpt lat="44.61208" lon="3.29101">
        <ele>842.16</ele>
        <time>2024-11-05T12:16:35.635Z</time>
      </trkpt>
      <trkpt lat="44.612" lon="3.29115">
        <ele>841.3</ele>
        <time>2024-11-05T12:16:43.073Z</time>
      </trkpt>
      <trkpt lat="44.61198" lon="3.29126">
        <ele>840.48</ele>
        <time>2024-11-05T12:16:50.512Z</time>
      </trkpt>
      <trkpt lat="44.61199" lon="3.2915">
        <ele>839.79</ele>
        <time>2024-11-05T12:16:57.954Z</time>
      </trkpt>
      <trkpt lat="44.61202" lon="3.29165">
        <ele>839.18</ele>
        <time>2024-11-05T12:17:05.398Z</time>
      </trkpt>
      <trkpt lat="44.612" lon="3.29177">
        <ele>838.46</ele>
        <time>2024-11-05T12:17:12.843Z</time>
      </trkpt>
      <trkpt lat="44.61185" lon="3.29196">
        <ele>837.51</ele>
        <time>2024-11-05T12:17:20.291Z</time>
      </trkpt>
      <trkpt lat="44.61169" lon="3.29214">
        <ele>836.67</ele>
        <time>2024-11-05T12:17:27.743Z</time>
      </trkpt>
      <trkpt lat="44.61161" lon="3.29226">
        <ele>835.98</ele>
        <time>2024-11-05T12:17:35.196Z</time>
      </trkpt>
      <trkpt lat="44.61155" lon="3.29258">
        <ele>835.38</ele>
        <time>2024-11-05T12:17:42.653Z</time>
      </trkpt>
      <trkpt lat="44.61151" lon="3.29268">
        <ele>834.63</ele>
        <time>2024-11-05T12:17:50.112Z</time>
      </trkpt>
      <trkpt lat="44.61144" lon="3.29272">
        <ele>833.83</ele>
        <time>2024-11-05T12:17:57.572Z</time>
      </trkpt>
      <trkpt lat="44.61132" lon="3.29278">
        <ele>832.95</ele>
        <time>2024-11-05T12:18:05.034Z</time>
      </trkpt>
      <trkpt lat="44.61126" lon="3.29285">
        <ele>832.21</ele>
        <time>2024-11-05T12:18:12.497Z</time>
      </trkpt>
      <trkpt lat="44.61123" lon="3.29296">
        <ele>831.5</ele>
        <time>2024-11-05T12:18:19.961Z</time>
      </trkpt>
      <trkpt lat="44.61123" lon="3.29305">
        <ele>830.86</ele>
        <time>2024-11-05T12:18:27.426Z</time>
      </trkpt>
      <trkpt lat="44.61128" lon="3.29321">
        <ele>830.4</ele>
        <time>2024-11-05T12:18:34.893Z</time>
      </trkpt>
      <trkpt lat="44.61129" lon="3.29337">
        <ele>829.86</ele>
        <time>2024-11-05T12:18:42.362Z</time>
      </trkpt>
      <trkpt lat="44.61125" lon="3.29348">
        <ele>829.2</ele>
        <time>2024-11-05T12:18:49.833Z</time>
      </trkpt>
      <trkpt lat="44.61118" lon="3.29353">
        <ele>828.38</ele>
        <time>2024-11-05T12:18:57.305Z</time>
      </trkpt>
      <trkpt lat="44.61108" lon="3.29352">
        <ele>827.47</ele>
        <time>2024-11-05T12:19:04.779Z</time>
      </trkpt>
      <trkpt lat="44.61095" lon="3.29345">
        <ele>826.42</ele>
        <time>2024-11-05T12:19:12.255Z</time>
      </trkpt>
      <trkpt lat="44.6109" lon="3.29345">
        <ele>825.58</ele>
        <time>2024-11-05T12:19:19.732Z</time>
      </trkpt>
      <trkpt lat="44.61076" lon="3.29359">
        <ele>824.77</ele>
        <time>2024-11-05T12:19:27.211Z</time>
      </trkpt>
      <trkpt lat="44.61061" lon="3.29382">
        <ele>824.07</ele>
        <time>2024-11-05T12:19:34.694Z</time>
      </trkpt>
      <trkpt lat="44.61047" lon="3.2939">
        <ele>823.2</ele>
        <time>2024-11-05T12:19:42.179Z</time>
      </trkpt>
      <trkpt lat="44.61042" lon="3.29398">
        <ele>822.4</ele>
        <time>2024-11-05T12:19:49.666Z</time>
      </trkpt>
      <trkpt lat="44.61039" lon="3.29408">
        <ele>821.63</ele>
        <time>2024-11-05T12:19:57.154Z</time>
      </trkpt>
      <trkpt lat="44.6104" lon="3.29445">
        <ele>821.2</ele>
        <time>2024-11-05T12:20:04.646Z</time>
      </trkpt>
      <trkpt lat="44.61035" lon="3.29456">
        <ele>820.38</ele>
        <time>2024-11-05T12:20:12.139Z</time>
      </trkpt>
      <trkpt lat="44.61014" lon="3.29466">
        <ele>819.41</ele>
        <time>2024-11-05T12:20:19.636Z</time>
      </trkpt>
      <trkpt lat="44.60992" lon="3.29476">
        <ele>818.49</ele>
        <time>2024-11-05T12:20:27.137Z</time>
      </trkpt>
      <trkpt lat="44.60963" lon="3.29493">
        <ele>817.65</ele>
        <time>2024-11-05T12:20:34.643Z</time>
      </trkpt>
      <trkpt lat="44.60946" lon="3.29498">
        <ele>816.61</ele>
        <time>2024-11-05T12:20:42.152Z</time>
      </trkpt>
      <trkpt lat="44.60917" lon="3.29492">
        <ele>815.58</ele>
        <time>2024-11-05T12:20:49.665Z</time>
      </trkpt>
      <trkpt lat="44.60888" lon="3.29487">
        <ele>814.53</ele>
        <time>2024-11-05T12:20:57.183Z</time>
      </trkpt>
      <trkpt lat="44.60868" lon="3.29486">
        <ele>813.52</ele>
        <time>2024-11-05T12:21:04.704Z</time>
      </trkpt>
      <trkpt lat="44.60848" lon="3.29485">
        <ele>812.23</ele>
        <time>2024-11-05T12:21:12.228Z</time>
      </trkpt>
      <trkpt lat="44.60831" lon="3.29485">
        <ele>810.91</ele>
        <time>2024-11-05T12:21:19.755Z</time>
      </trkpt>
      <trkpt lat="44.60809" lon="3.2949">
        <ele>809.92</ele>
        <time>2024-11-05T12:21:27.286Z</time>
      </trkpt>
      <trkpt lat="44.60787" lon="3.29494">
        <ele>808.85</ele>
        <time>2024-11-05T12:21:34.820Z</time>
      </trkpt>
      <trkpt lat="44.60768" lon="3.295">
        <ele>807.69</ele>
        <time>2024-11-05T12:21:42.357Z</time>
      </trkpt>
      <trkpt lat="44.60743" lon="3.29511">
        <ele>806.56</ele>
        <time>2024-11-05T12:21:49.898Z</time>
      </trkpt>
      <trkpt lat="44.60721" lon="3.29509">
        <ele>805.06</ele>
        <time>2024-11-05T12:21:57.443Z</time>
      </trkpt>
      <trkpt lat="44.60699" lon="3.29507">
        <ele>803.72</ele>
        <time>2024-11-05T12:22:04.991Z</time>
      </trkpt>
      <trkpt lat="44.60671" lon="3.29495">
        <ele>802.23</ele>
        <time>2024-11-05T12:22:12.544Z</time>
      </trkpt>
      <trkpt lat="44.60643" lon="3.29483">
        <ele>800.76</ele>
        <time>2024-11-05T12:22:20.102Z</time>
      </trkpt>
      <trkpt lat="44.60615" lon="3.29471">
        <ele>799.34</ele>
        <time>2024-11-05T12:22:27.665Z</time>
      </trkpt>
      <trkpt lat="44.60587" lon="3.29459">
        <ele>797.96</ele>
        <time>2024-11-05T12:22:35.232Z</time>
      </trkpt>
      <trkpt lat="44.60559" lon="3.29447">
        <ele>796.6</ele>
        <time>2024-11-05T12:22:42.804Z</time>
      </trkpt>
      <trkpt lat="44.60531" lon="3.29434">
        <ele>795.08</ele>
        <time>2024-11-05T12:22:50.381Z</time>
      </trkpt>
      <trkpt lat="44.60515" lon="3.29431">
        <ele>793.64</ele>
        <time>2024-11-05T12:22:57.960Z</time>
      </trkpt>
      <trkpt lat="44.60499" lon="3.29428">
        <ele>792.19</ele>
        <time>2024-11-05T12:23:05.542Z</time>
      </trkpt>
      <trkpt lat="44.6047" lon="3.29427">
        <ele>790.63</ele>
        <time>2024-11-05T12:23:13.128Z</time>
      </trkpt>
      <trkpt lat="44.60442" lon="3.29427">
        <ele>789.01</ele>
        <time>2024-11-05T12:23:20.719Z</time>
      </trkpt>
      <trkpt lat="44.60425" lon="3.29433">
        <ele>787.52</ele>
        <time>2024-11-05T12:23:28.313Z</time>
      </trkpt>
      <trkpt lat="44.60408" lon="3.29439">
        <ele>786.02</ele>
        <time>2024-11-05T12:23:35.909Z</time>
      </trkpt>
      <trkpt lat="44.60381" lon="3.29451">
        <ele>784.52</ele>
        <time>2024-11-05T12:23:43.510Z</time>
      </trkpt>
      <trkpt lat="44.60353" lon="3.29463">
        <ele>782.99</ele>
        <time>2024-11-05T12:23:51.116Z</time>
      </trkpt>
      <trkpt lat="44.60325" lon="3.29474">
        <ele>781.47</ele>
        <time>2024-11-05T12:23:58.726Z</time>
      </trkpt>
      <trkpt lat="44.60298" lon="3.29485">
        <ele>779.89</ele>
        <time>2024-11-05T12:24:06.341Z</time>
      </trkpt>
      <trkpt lat="44.60277" lon="3.29497">
        <ele>778.33</ele>
        <time>2024-11-05T12:24:13.960Z</time>
      </trkpt>
      <trkpt lat="44.60255" lon="3.29509">
        <ele>776.78</ele>
        <time>2024-11-05T12:24:21.582Z</time>
      </trkpt>
      <trkpt lat="44.60234" lon="3.29521">
        <ele>775.15</ele>
        <time>2024-11-05T12:24:29.208Z</time>
      </trkpt>
      <trkpt lat="44.60218" lon="3.29537">
        <ele>773.59</ele>
        <time>2024-11-05T12:24:36.837Z</time>
      </trkpt>
      <trkpt lat="44.60203" lon="3.29552">
        <ele>771.95</ele>
        <time>2024-11-05T12:24:44.469Z</time>
      </trkpt>
      <trkpt lat="44.60189" lon="3.29574">
        <ele>770.47</ele>
        <time>2024-11-05T12:24:52.104Z</time>
      </trkpt>
      <trkpt lat="44.60176" lon="3.29595">
        <ele>769</ele>
        <time>2024-11-05T12:24:59.743Z</time>
      </trkpt>
      <trkpt lat="44.60152" lon="3.29623">
        <ele>767.51</ele>
        <time>2024-11-05T12:25:07.387Z</time>
      </trkpt>
      <trkpt lat="44.60135" lon="3.29653">
        <ele>766.15</ele>
        <time>2024-11-05T12:25:15.035Z</time>
      </trkpt>
      <trkpt lat="44.60119" lon="3.29667">
        <ele>764.65</ele>
        <time>2024-11-05T12:25:22.686Z</time>
      </trkpt>
      <trkpt lat="44.60103" lon="3.2968">
        <ele>763.19</ele>
        <time>2024-11-05T12:25:30.340Z</time>
      </trkpt>
      <trkpt lat="44.60083" lon="3.29693">
        <ele>761.69</ele>
        <time>2024-11-05T12:25:37.997Z</time>
      </trkpt>
      <trkpt lat="44.60061" lon="3.29705">
        <ele>760.18</ele>
        <time>2024-11-05T12:25:45.658Z</time>
      </trkpt>
      <trkpt lat="44.60041" lon="3.2971">
        <ele>758.7</ele>
        <time>2024-11-05T12:25:53.323Z</time>
      </trkpt>
      <trkpt lat="44.60023" lon="3.29712">
        <ele>757.25</ele>
        <time>2024-11-05T12:26:00.990Z</time>
      </trkpt>
      <trkpt lat="44.59996" lon="3.29711">
        <ele>755.84</ele>
        <time>2024-11-05T12:26:08.662Z</time>
      </trkpt>
      <trkpt lat="44.59969" lon="3.2971">
        <ele>754.46</ele>
        <time>2024-11-05T12:26:16.338Z</time>
      </trkpt>
      <trkpt lat="44.59941" lon="3.29712">
        <ele>753.11</ele>
        <time>2024-11-05T12:26:24.019Z</time>
      </trkpt>
      <trkpt lat="44.59914" lon="3.29714">
        <ele>751.74</ele>
        <time>2024-11-05T12:26:31.704Z</time>
      </trkpt>
      <trkpt lat="44.59887" lon="3.29716">
        <ele>750.35</ele>
        <time>2024-11-05T12:26:39.393Z</time>
      </trkpt>
      <trkpt lat="44.59859" lon="3.29718">
        <ele>748.92</ele>
        <time>2024-11-05T12:26:47.087Z</time>
      </trkpt>
      <trkpt lat="44.59848" lon="3.29721">
        <ele>747.54</ele>
        <time>2024-11-05T12:26:54.782Z</time>
      </trkpt>
      <trkpt lat="44.59825" lon="3.29737">
        <ele>746.18</ele>
        <time>2024-11-05T12:27:02.482Z</time>
      </trkpt>
      <trkpt lat="44.59814" lon="3.29751">
        <ele>744.9</ele>
        <time>2024-11-05T12:27:10.184Z</time>
      </trkpt>
      <trkpt lat="44.598" lon="3.29775">
        <ele>743.71</ele>
        <time>2024-11-05T12:27:17.890Z</time>
      </trkpt>
      <trkpt lat="44.59785" lon="3.29799">
        <ele>742.57</ele>
        <time>2024-11-05T12:27:25.599Z</time>
      </trkpt>
      <trkpt lat="44.59772" lon="3.29816">
        <ele>741.4</ele>
        <time>2024-11-05T12:27:33.311Z</time>
      </trkpt>
      <trkpt lat="44.59758" lon="3.29832">
        <ele>740.22</ele>
        <time>2024-11-05T12:27:41.026Z</time>
      </trkpt>
      <trkpt lat="44.59734" lon="3.29854">
        <ele>738.98</ele>
        <time>2024-11-05T12:27:48.746Z</time>
      </trkpt>
      <trkpt lat="44.59709" lon="3.29875">
        <ele>737.87</ele>
        <time>2024-11-05T12:27:56.470Z</time>
      </trkpt>
      <trkpt lat="44.59682" lon="3.29888">
        <ele>736.8</ele>
        <time>2024-11-05T12:28:04.199Z</time>
      </trkpt>
      <trkpt lat="44.59652" lon="3.29892">
        <ele>735.73</ele>
        <time>2024-11-05T12:28:11.933Z</time>
      </trkpt>
      <trkpt lat="44.59652" lon="3.29892">
        <ele>734.72</ele>
        <time>2024-11-05T12:28:19.667Z</time>
      </trkpt>
      <trkpt lat="44.59634" lon="3.29894">
        <ele>733.72</ele>
        <time>2024-11-05T12:28:27.403Z</time>
      </trkpt>
      <trkpt lat="44.59617" lon="3.29895">
        <ele>732.78</ele>
        <time>2024-11-05T12:28:35.142Z</time>
      </trkpt>
      <trkpt lat="44.59595" lon="3.29892">
        <ele>731.88</ele>
        <time>2024-11-05T12:28:42.885Z</time>
      </trkpt>
      <trkpt lat="44.59567" lon="3.29885">
        <ele>731</ele>
        <time>2024-11-05T12:28:50.632Z</time>
      </trkpt>
      <trkpt lat="44.59538" lon="3.29877">
        <ele>730.07</ele>
        <time>2024-11-05T12:28:58.384Z</time>
      </trkpt>
      <trkpt lat="44.59509" lon="3.29869">
        <ele>729.09</ele>
        <time>2024-11-05T12:29:06.141Z</time>
      </trkpt>
      <trkpt lat="44.5948" lon="3.29861">
        <ele>728.12</ele>
        <time>2024-11-05T12:29:13.902Z</time>
      </trkpt>
      <trkpt lat="44.59452" lon="3.2986">
        <ele>727.25</ele>
        <time>2024-11-05T12:29:21.668Z</time>
      </trkpt>
      <trkpt lat="44.59423" lon="3.29858">
        <ele>726.37</ele>
        <time>2024-11-05T12:29:29.439Z</time>
      </trkpt>
      <trkpt lat="44.59395" lon="3.29857">
        <ele>725.56</ele>
        <time>2024-11-05T12:29:37.214Z</time>
      </trkpt>
      <trkpt lat="44.59384" lon="3.29851">
        <ele>724.87</ele>
        <time>2024-11-05T12:29:44.991Z</time>
      </trkpt>
      <trkpt lat="44.5937" lon="3.29836">
        <ele>724.27</ele>
        <time>2024-11-05T12:29:52.771Z</time>
      </trkpt>
      <trkpt lat="44.59357" lon="3.29821">
        <ele>723.77</ele>
        <time>2024-11-05T12:30:00.554Z</time>
      </trkpt>
      <trkpt lat="44.59352" lon="3.29816">
        <ele>723.22</ele>
        <time>2024-11-05T12:30:08.338Z</time>
      </trkpt>
      <trkpt lat="44.59346" lon="3.29814">
        <ele>722.66</ele>
        <time>2024-11-05T12:30:16.122Z</time>
      </trkpt>
      <trkpt lat="44.5934" lon="3.29814">
        <ele>722.1</ele>
        <time>2024-11-05T12:30:23.907Z</time>
      </trkpt>
      <trkpt lat="44.5931" lon="3.29821">
        <ele>721.43</ele>
        <time>2024-11-05T12:30:31.697Z</time>
      </trkpt>
      <trkpt lat="44.59293" lon="3.29825">
        <ele>720.86</ele>
        <time>2024-11-05T12:30:39.490Z</time>
      </trkpt>
      <trkpt lat="44.59277" lon="3.29829">
        <ele>720.34</ele>
        <time>2024-11-05T12:30:47.286Z</time>
      </trkpt>
      <trkpt lat="44.5926" lon="3.29836">
        <ele>719.86</ele>
        <time>2024-11-05T12:30:55.084Z</time>
      </trkpt>
      <trkpt lat="44.59243" lon="3.29842">
        <ele>719.44</ele>
        <time>2024-11-05T12:31:02.885Z</time>
      </trkpt>
      <trkpt lat="44.59221" lon="3.29861">
        <ele>718.86</ele>
        <time>2024-11-05T12:31:10.690Z</time>
      </trkpt>
      <trkpt lat="44.59207" lon="3.29869">
        <ele>718.38</ele>
        <time>2024-11-05T12:31:18.498Z</time>
      </trkpt>
      <trkpt lat="44.59186" lon="3.29872">
        <ele>717.93</ele>
        <time>2024-11-05T12:31:26.309Z</time>
      </trkpt>
      <trkpt lat="44.59162" lon="3.29886">
        <ele>717.5</ele>
        <time>2024-11-05T12:31:34.124Z</time>
      </trkpt>
      <trkpt lat="44.59138" lon="3.29899">
        <ele>717.16</ele>
        <time>2024-11-05T12:31:41.944Z</time>
      </trkpt>
      <trkpt lat="44.59114" lon="3.29913">
        <ele>716.67</ele>
        <time>2024-11-05T12:31:49.768Z</time>
      </trkpt>
      <trkpt lat="44.591" lon="3.29915">
        <ele>716.21</ele>
        <time>2024-11-05T12:31:57.594Z</time>
      </trkpt>
      <trkpt lat="44.59086" lon="3.29909">
        <ele>715.81</ele>
        <time>2024-11-05T12:32:05.422Z</time>
      </trkpt>
      <trkpt lat="44.59064" lon="3.29891">
        <ele>715.38</ele>
        <time>2024-11-05T12:32:13.254Z</time>
      </trkpt>
      <trkpt lat="44.59042" lon="3.29873">
        <ele>714.99</ele>
        <time>2024-11-05T12:32:21.090Z</time>
      </trkpt>
      <trkpt lat="44.5902" lon="3.29856">
        <ele>714.64</ele>
        <time>2024-11-05T12:32:28.930Z</time>
      </trkpt>
      <trkpt lat="44.58996" lon="3.29846">
        <ele>714.23</ele>
        <time>2024-11-05T12:32:36.774Z</time>
      </trkpt>
      <trkpt lat="44.58971" lon="3.29829">
        <ele>713.83</ele>
        <time>2024-11-05T12:32:44.623Z</time>
      </trkpt>
      <trkpt lat="44.58947" lon="3.29811">
        <ele>713.43</ele>
        <time>2024-11-05T12:32:52.476Z</time>
      </trkpt>
      <trkpt lat="44.58923" lon="3.29786">
        <ele>713.08</ele>
        <time>2024-11-05T12:33:00.334Z</time>
      </trkpt>
      <trkpt lat="44.58898" lon="3.29762">
        <ele>712.71</ele>
        <time>2024-11-05T12:33:08.197Z</time>
      </trkpt>
      <trkpt lat="44.58887" lon="3.29747">
        <ele>712.41</ele>
        <time>2024-11-05T12:33:16.062Z</time>
      </trkpt>
      <trkpt lat="44.58865" lon="3.29719">
        <ele>712.14</ele>
        <time>2024-11-05T12:33:23.932Z</time>
      </trkpt>
      <trkpt lat="44.58846" lon="3.29701">
        <ele>711.84</ele>
        <time>2024-11-05T12:33:31.806Z</time>
      </trkpt>
      <trkpt lat="44.58827" lon="3.29684">
        <ele>711.54</ele>
        <time>2024-11-05T12:33:39.683Z</time>
      </trkpt>
      <trkpt lat="44.58807" lon="3.29654">
        <ele>711.27</ele>
        <time>2024-11-05T12:33:47.565Z</time>
      </trkpt>
      <trkpt lat="44.58786" lon="3.29623">
        <ele>711.04</ele>
        <time>2024-11-05T12:33:55.452Z</time>
      </trkpt>
      <trkpt lat="44.58765" lon="3.29601">
        <ele>710.82</ele>
        <time>2024-11-05T12:34:03.343Z</time>
      </trkpt>
      <trkpt lat="44.58744" lon="3.29578">
        <ele>710.62</ele>
        <time>2024-11-05T12:34:11.238Z</time>
      </trkpt>
      <trkpt lat="44.58731" lon="3.29566">
        <ele>710.45</ele>
        <time>2024-11-05T12:34:19.136Z</time>
      </trkpt>
      <trkpt lat="44.58717" lon="3.29553">
        <ele>710.29</ele>
        <time>2024-11-05T12:34:27.037Z</time>
      </trkpt>
      <trkpt lat="44.587" lon="3.29545">
        <ele>710.1</ele>
        <time>2024-11-05T12:34:34.940Z</time>
      </trkpt>
      <trkpt lat="44.58684" lon="3.29537">
        <ele>709.94</ele>
        <time>2024-11-05T12:34:42.846Z</time>
      </trkpt>
      <trkpt lat="44.58661" lon="3.29532">
        <ele>709.74</ele>
        <time>2024-11-05T12:34:50.756Z</time>
      </trkpt>
      <trkpt lat="44.58643" lon="3.29533">
        <ele>709.55</ele>
        <time>2024-11-05T12:34:58.669Z</time>
      </trkpt>
      <trkpt lat="44.58643" lon="3.29533">
        <ele>709.39</ele>
        <time>2024-11-05T12:35:06.582Z</time>
      </trkpt>
      <trkpt lat="44.58616" lon="3.29534">
        <ele>709.29</ele>
        <time>2024-11-05T12:35:14.499Z</time>
      </trkpt>
      <trkpt lat="44.58589" lon="3.29536">
        <ele>709.19</ele>
        <time>2024-11-05T12:35:22.420Z</time>
      </trkpt>
      <trkpt lat="44.58563" lon="3.29537">
        <ele>709.06</ele>
        <time>2024-11-05T12:35:30.346Z</time>
      </trkpt>
      <trkpt lat="44.58536" lon="3.29538">
        <ele>708.88</ele>
        <time>2024-11-05T12:35:38.276Z</time>
      </trkpt>
      <trkpt lat="44.5852" lon="3.29536">
        <ele>708.71</ele>
        <time>2024-11-05T12:35:46.209Z</time>
      </trkpt>
      <trkpt lat="44.58503" lon="3.29533">
        <ele>708.56</ele>
        <time>2024-11-05T12:35:54.144Z</time>
      </trkpt>
      <trkpt lat="44.58487" lon="3.29528">
        <ele>708.39</ele>
        <time>2024-11-05T12:36:02.082Z</time>
      </trkpt>
      <trkpt lat="44.58471" lon="3.29523">
        <ele>708.24</ele>
        <time>2024-11-05T12:36:10.022Z</time>
      </trkpt>
      <trkpt lat="44.58445" lon="3.29501">
        <ele>708.13</ele>
        <time>2024-11-05T12:36:17.967Z</time>
      </trkpt>
      <trkpt lat="44.58425" lon="3.29473">
        <ele>708.09</ele>
        <time>2024-11-05T12:36:25.917Z</time>
      </trkpt>
      <trkpt lat="44.58404" lon="3.29445">
        <ele>708.15</ele>
        <time>2024-11-05T12:36:33.871Z</time>
      </trkpt>
      <trkpt lat="44.58381" lon="3.29423">
        <ele>708.14</ele>
        <time>2024-11-05T12:36:41.830Z</time>
      </trkpt>
      <trkpt lat="44.58358" lon="3.294">
        <ele>708.13</ele>
        <time>2024-11-05T12:36:49.793Z</time>
      </trkpt>
      <trkpt lat="44.58335" lon="3.29377">
        <ele>708.12</ele>
        <time>2024-11-05T12:36:57.761Z</time>
      </trkpt>
      <trkpt lat="44.58315" lon="3.29355">
        <ele>708.08</ele>
        <time>2024-11-05T12:37:05.733Z</time>
      </trkpt>
      <trkpt lat="44.58296" lon="3.29332">
        <ele>708.04</ele>
        <time>2024-11-05T12:37:13.709Z</time>
      </trkpt>
      <trkpt lat="44.58283" lon="3.29309">
        <ele>708.1</ele>
        <time>2024-11-05T12:37:21.689Z</time>
      </trkpt>
      <trkpt lat="44.58269" lon="3.29285">
        <ele>708.21</ele>
        <time>2024-11-05T12:37:29.672Z</time>
      </trkpt>
      <trkpt lat="44.58249" lon="3.29263">
        <ele>708.31</ele>
        <time>2024-11-05T12:37:37.659Z</time>
      </trkpt>
      <trkpt lat="44.58229" lon="3.29254">
        <ele>708.31</ele>
        <time>2024-11-05T12:37:45.649Z</time>
      </trkpt>
      <trkpt lat="44.58209" lon="3.29244">
        <ele>708.37</ele>
        <time>2024-11-05T12:37:53.643Z</time>
      </trkpt>
      <trkpt lat="44.5819" lon="3.2923">
        <ele>708.52</ele>
        <time>2024-11-05T12:38:01.640Z</time>
      </trkpt>
      <trkpt lat="44.5817" lon="3.29217">
        <ele>708.66</ele>
        <time>2024-11-05T12:38:09.641Z</time>
      </trkpt>
      <trkpt lat="44.58146" lon="3.29203">
        <ele>708.73</ele>
        <time>2024-11-05T12:38:17.646Z</time>
      </trkpt>
      <trkpt lat="44.58122" lon="3.29189">
        <ele>708.87</ele>
        <time>2024-11-05T12:38:25.655Z</time>
      </trkpt>
      <trkpt lat="44.58098" lon="3.29175">
        <ele>708.96</ele>
        <time>2024-11-05T12:38:33.668Z</time>
      </trkpt>
      <trkpt lat="44.58074" lon="3.29161">
        <ele>709.07</ele>
        <time>2024-11-05T12:38:41.685Z</time>
      </trkpt>
      <trkpt lat="44.58051" lon="3.29158">
        <ele>709.15</ele>
        <time>2024-11-05T12:38:49.706Z</time>
      </trkpt>
      <trkpt lat="44.58032" lon="3.29151">
        <ele>709.35</ele>
        <time>2024-11-05T12:38:57.730Z</time>
      </trkpt>
      <trkpt lat="44.58012" lon="3.29144">
        <ele>709.54</ele>
        <time>2024-11-05T12:39:05.758Z</time>
      </trkpt>
      <trkpt lat="44.57986" lon="3.29137">
        <ele>709.72</ele>
        <time>2024-11-05T12:39:13.790Z</time>
      </trkpt>
      <trkpt lat="44.57961" lon="3.29131">
        <ele>709.94</ele>
        <time>2024-11-05T12:39:21.826Z</time>
      </trkpt>
      <trkpt lat="44.57936" lon="3.29124">
        <ele>710.18</ele>
        <time>2024-11-05T12:39:29.866Z</time>
      </trkpt>
      <trkpt lat="44.57911" lon="3.29118">
        <ele>710.38</ele>
        <time>2024-11-05T12:39:37.910Z</time>
      </trkpt>
      <trkpt lat="44.57891" lon="3.29118">
        <ele>710.55</ele>
        <time>2024-11-05T12:39:45.957Z</time>
      </trkpt>
      <trkpt lat="44.57871" lon="3.29118">
        <ele>710.85</ele>
        <time>2024-11-05T12:39:54.007Z</time>
      </trkpt>
      <trkpt lat="44.57871" lon="3.29118">
        <ele>711.07</ele>
        <time>2024-11-05T12:40:02.057Z</time>
      </trkpt>
      <trkpt lat="44.5786" lon="3.29118">
        <ele>711.35</ele>
        <time>2024-11-05T12:40:10.109Z</time>
      </trkpt>
      <trkpt lat="44.57839" lon="3.29122">
        <ele>711.67</ele>
        <time>2024-11-05T12:40:18.165Z</time>
      </trkpt>
      <trkpt lat="44.57828" lon="3.29127">
        <ele>711.97</ele>
        <time>2024-11-05T12:40:26.222Z</time>
      </trkpt>
      <trkpt lat="44.5782" lon="3.29139">
        <ele>712.22</ele>
        <time>2024-11-05T12:40:34.281Z</time>
      </trkpt>
      <trkpt lat="44.57809" lon="3.29163">
        <ele>712.34</ele>
        <time>2024-11-05T12:40:42.344Z</time>
      </trkpt>
      <trkpt lat="44.57796" lon="3.29191">
        <ele>712.49</ele>
        <time>2024-11-05T12:40:50.410Z</time>
      </trkpt>
      <trkpt lat="44.57783" lon="3.29214">
        <ele>712.65</ele>
        <time>2024-11-05T12:40:58.480Z</time>
      </trkpt>
      <trkpt lat="44.57771" lon="3.29238">
        <ele>712.97</ele>
        <time>2024-11-05T12:41:06.553Z</time>
      </trkpt>
      <trkpt lat="44.57758" lon="3.29262">
        <ele>713.36</ele>
        <time>2024-11-05T12:41:14.629Z</time>
      </trkpt>
      <trkpt lat="44.57748" lon="3.29289">
        <ele>713.62</ele>
        <time>2024-11-05T12:41:22.709Z</time>
      </trkpt>
      <trkpt lat="44.57737" lon="3.29316">
        <ele>713.68</ele>
        <time>2024-11-05T12:41:30.793Z</time>
      </trkpt>
      <trkpt lat="44.57727" lon="3.2933">
        <ele>713.78</ele>
        <time>2024-11-05T12:41:38.879Z</time>
      </trkpt>
      <trkpt lat="44.57721" lon="3.29337">
        <ele>713.89</ele>
        <time>2024-11-05T12:41:46.966Z</time>
      </trkpt>
      <trkpt lat="44.57705" lon="3.2934">
        <ele>714.05</ele>
        <time>2024-11-05T12:41:55.056Z</time>
      </trkpt>
      <trkpt lat="44.57697" lon="3.29338">
        <ele>714.25</ele>
        <time>2024-11-05T12:42:03.147Z</time>
      </trkpt>
      <trkpt lat="44.57671" lon="3.29325">
        <ele>714.44</ele>
        <time>2024-11-05T12:42:11.242Z</time>
      </trkpt>
      <trkpt lat="44.57645" lon="3.29313">
        <ele>714.6</ele>
        <time>2024-11-05T12:42:19.342Z</time>
      </trkpt>
      <trkpt lat="44.57619" lon="3.293">
        <ele>714.81</ele>
        <time>2024-11-05T12:42:27.446Z</time>
      </trkpt>
      <trkpt lat="44.576" lon="3.29295">
        <ele>714.94</ele>
        <time>2024-11-05T12:42:35.553Z</time>
      </trkpt>
      <trkpt lat="44.57583" lon="3.29296">
        <ele>714.97</ele>
        <time>2024-11-05T12:42:43.663Z</time>
      </trkpt>
      <trkpt lat="44.57566" lon="3.29297">
        <ele>715.02</ele>
        <time>2024-11-05T12:42:51.776Z</time>
      </trkpt>
      <trkpt lat="44.57554" lon="3.29294">
        <ele>715.11</ele>
        <time>2024-11-05T12:42:59.891Z</time>
      </trkpt>
      <trkpt lat="44.57532" lon="3.2928">
        <ele>715.24</ele>
        <time>2024-11-05T12:43:08.009Z</time>
      </trkpt>
      <trkpt lat="44.57511" lon="3.29267">
        <ele>715.39</ele>
        <time>2024-11-05T12:43:16.131Z</time>
      </trkpt>
      <trkpt lat="44.57496" lon="3.29259">
        <ele>715.48</ele>
        <time>2024-11-05T12:43:24.256Z</time>
      </trkpt>
      <trkpt lat="44.57481" lon="3.29252">
        <ele>715.53</ele>
        <time>2024-11-05T12:43:32.383Z</time>
      </trkpt>
      <trkpt lat="44.57466" lon="3.29238">
        <ele>715.64</ele>
        <time>2024-11-05T12:43:40.513Z</time>
      </trkpt>
      <trkpt lat="44.57451" lon="3.29224">
        <ele>715.74</ele>
        <time>2024-11-05T12:43:48.646Z</time>
      </trkpt>
      <trkpt lat="44.57432" lon="3.29211">
        <ele>715.88</ele>
        <time>2024-11-05T12:43:56.782Z</time>
      </trkpt>
      <trkpt lat="44.57417" lon="3.29208">
        <ele>715.97</ele>
        <time>2024-11-05T12:44:04.921Z</time>
      </trkpt>
      <trkpt lat="44.57401" lon="3.29204">
        <ele>716.11</ele>
        <time>2024-11-05T12:44:13.062Z</time>
      </trkpt>
      <trkpt lat="44.57381" lon="3.29206">
        <ele>716.21</ele>
        <time>2024-11-05T12:44:21.207Z</time>
      </trkpt>
      <trkpt lat="44.57365" lon="3.2921">
        <ele>716.24</ele>
        <time>2024-11-05T12:44:29.354Z</time>
      </trkpt>
      <trkpt lat="44.57342" lon="3.29222">
        <ele>716.34</ele>
        <time>2024-11-05T12:44:37.505Z</time>
      </trkpt>
      <trkpt lat="44.5732" lon="3.29235">
        <ele>716.37</ele>
        <time>2024-11-05T12:44:45.660Z</time>
      </trkpt>
      <trkpt lat="44.57297" lon="3.2924">
        <ele>716.45</ele>
        <time>2024-11-05T12:44:53.819Z</time>
      </trkpt>
      <trkpt lat="44.5727" lon="3.2924">
        <ele>716.56</ele>
        <time>2024-11-05T12:45:01.982Z</time>
      </trkpt>
      <trkpt lat="44.57251" lon="3.29237">
        <ele>716.59</ele>
        <time>2024-11-05T12:45:10.148Z</time>
      </trkpt>
      <trkpt lat="44.57232" lon="3.29229">
        <ele>716.73</ele>
        <time>2024-11-05T12:45:18.317Z</time>
      </trkpt>
      <trkpt lat="44.57213" lon="3.29222">
        <ele>716.88</ele>
        <time>2024-11-05T12:45:26.489Z</time>
      </trkpt>
      <trkpt lat="44.57184" lon="3.29214">
        <ele>717</ele>
        <time>2024-11-05T12:45:34.666Z</time>
      </trkpt>
      <trkpt lat="44.57154" lon="3.29206">
        <ele>717.03</ele>
        <time>2024-11-05T12:45:42.848Z</time>
      </trkpt>
      <trkpt lat="44.57124" lon="3.29198">
        <ele>716.99</ele>
        <time>2024-11-05T12:45:51.035Z</time>
      </trkpt>
      <trkpt lat="44.57124" lon="3.29198">
        <ele>717.09</ele>
        <time>2024-11-05T12:45:59.222Z</time>
      </trkpt>
      <trkpt lat="44.57118" lon="3.29193">
        <ele>717.17</ele>
        <time>2024-11-05T12:46:07.410Z</time>
      </trkpt>
      <trkpt lat="44.57117" lon="3.29188">
        <ele>717.29</ele>
        <time>2024-11-05T12:46:15.599Z</time>
      </trkpt>
      <trkpt lat="44.57118" lon="3.29181">
        <ele>717.4</ele>
        <time>2024-11-05T12:46:23.788Z</time>
      </trkpt>
      <trkpt lat="44.57133" lon="3.2915">
        <ele>717.69</ele>
        <time>2024-11-05T12:46:31.982Z</time>
      </trkpt>
      <trkpt lat="44.57148" lon="3.29117">
        <ele>717.84</ele>
        <time>2024-11-05T12:46:40.180Z</time>
      </trkpt>
      <trkpt lat="44.57153" lon="3.29093">
        <ele>717.93</ele>
        <time>2024-11-05T12:46:48.381Z</time>
      </trkpt>
      <trkpt lat="44.57151" lon="3.2905">
        <ele>717.86</ele>
        <time>2024-11-05T12:46:56.587Z</time>
      </trkpt>
      <trkpt lat="44.57154" lon="3.2904">
        <ele>717.96</ele>
        <time>2024-11-05T12:47:04.794Z</time>
      </trkpt>
      <trkpt lat="44.57158" lon="3.29032">
        <ele>718.04</ele>
        <time>2024-11-05T12:47:13.002Z</time>
      </trkpt>
      <trkpt lat="44.57183" lon="3.29008">
        <ele>718.24</ele>
        <time>2024-11-05T12:47:21.215Z</time>
      </trkpt>
      <trkpt lat="44.57209" lon="3.28984">
        <ele>718.4</ele>
        <time>2024-11-05T12:47:29.433Z</time>
      </trkpt>
      <trkpt lat="44.57219" lon="3.28973">
        <ele>718.51</ele>
        <time>2024-11-05T12:47:37.653Z</time>
      </trkpt>
      <trkpt lat="44.57225" lon="3.28961">
        <ele>718.58</ele>
        <time>2024-11-05T12:47:45.875Z</time>
      </trkpt>
      <trkpt lat="44.57228" lon="3.28947">
        <ele>718.66</ele>
        <time>2024-11-05T12:47:54.099Z</time>
      </trkpt>
      <trkpt lat="44.57232" lon="3.28911">
        <ele>718.6</ele>
        <time>2024-11-05T12:48:02.327Z</time>
      </trkpt>
      <trkpt lat="44.57236" lon="3.28874">
        <ele>718.51</ele>
        <time>2024-11-05T12:48:10.559Z</time>
      </trkpt>
      <trkpt lat="44.57239" lon="3.28868">
        <ele>718.52</ele>
        <time>2024-11-05T12:48:18.792Z</time>
      </trkpt>
      <trkpt lat="44.57253" lon="3.28855">
        <ele>718.53</ele>
        <time>2024-11-05T12:48:27.028Z</time>
      </trkpt>
      <trkpt lat="44.57266" lon="3.28843">
        <ele>718.6</ele>
        <time>2024-11-05T12:48:35.266Z</time>
      </trkpt>
      <trkpt lat="44.57269" lon="3.2884">
        <ele>718.57</ele>
        <time>2024-11-05T12:48:43.505Z</time>
      </trkpt>
      <trkpt lat="44.57279" lon="3.28817">
        <ele>718.46</ele>
        <time>2024-11-05T12:48:51.747Z</time>
      </trkpt>
      <trkpt lat="44.57264" lon="3.28811">
        <ele>718.41</ele>
        <time>2024-11-05T12:48:59.991Z</time>
      </trkpt>
      <trkpt lat="44.5725" lon="3.28808">
        <ele>718.29</ele>
        <time>2024-11-05T12:49:08.237Z</time>
      </trkpt>
      <trkpt lat="44.57235" lon="3.28808">
        <ele>718.28</ele>
        <time>2024-11-05T12:49:16.486Z</time>
      </trkpt>
      <trkpt lat="44.57226" lon="3.28809">
        <ele>718.17</ele>
        <time>2024-11-05T12:49:24.736Z</time>
      </trkpt>
      <trkpt lat="44.57226" lon="3.28809">
        <ele>718.01</ele>
        <time>2024-11-05T12:49:32.986Z</time>
      </trkpt>
      <trkpt lat="44.57215" lon="3.28815">
        <ele>717.93</ele>
        <time>2024-11-05T12:49:41.238Z</time>
      </trkpt>
      <trkpt lat="44.57205" lon="3.28823">
        <ele>717.77</ele>
        <time>2024-11-05T12:49:49.492Z</time>
      </trkpt>
      <trkpt lat="44.57186" lon="3.28854">
        <ele>717.56</ele>
        <time>2024-11-05T12:49:57.751Z</time>
      </trkpt>
      <trkpt lat="44.57167" lon="3.28887">
        <ele>717.21</ele>
        <time>2024-11-05T12:50:06.015Z</time>
      </trkpt>
      <trkpt lat="44.5715" lon="3.28905">
        <ele>716.86</ele>
        <time>2024-11-05T12:50:14.282Z</time>
      </trkpt>
      <trkpt lat="44.57129" lon="3.28918">
        <ele>716.6</ele>
        <time>2024-11-05T12:50:22.553Z</time>
      </trkpt>
      <trkpt lat="44.57106" lon="3.28934">
        <ele>716.35</ele>
        <time>2024-11-05T12:50:30.828Z</time>
      </trkpt>
      <trkpt lat="44.57092" lon="3.28954">
        <ele>716</ele>
        <time>2024-11-05T12:50:39.106Z</time>
      </trkpt>
      <trkpt lat="44.57075" lon="3.2899">
        <ele>715.47</ele>
        <time>2024-11-05T12:50:47.389Z</time>
      </trkpt>
      <trkpt lat="44.57062" lon="3.29027">
        <ele>714.87</ele>
        <time>2024-11-05T12:50:55.677Z</time>
      </trkpt>
      <trkpt lat="44.57044" lon="3.29049">
        <ele>714.31</ele>
        <time>2024-11-05T12:51:03.968Z</time>
      </trkpt>
      <trkpt lat="44.57022" lon="3.29056">
        <ele>713.82</ele>
        <time>2024-11-05T12:51:12.263Z</time>
      </trkpt>
      <trkpt lat="44.57" lon="3.29063">
        <ele>713.28</ele>
        <time>2024-11-05T12:51:20.562Z</time>
      </trkpt>
      <trkpt lat="44.56973" lon="3.29066">
        <ele>712.72</ele>
        <time>2024-11-05T12:51:28.865Z</time>
      </trkpt>
      <trkpt lat="44.56946" lon="3.29068">
        <ele>712.24</ele>
        <time>2024-11-05T12:51:37.172Z</time>
      </trkpt>
      <trkpt lat="44.56931" lon="3.29075">
        <ele>711.73</ele>
        <time>2024-11-05T12:51:45.482Z</time>
      </trkpt>
      <trkpt lat="44.56911" lon="3.29091">
        <ele>711.14</ele>
        <time>2024-11-05T12:51:53.796Z</time>
      </trkpt>
      <trkpt lat="44.56889" lon="3.29117">
        <ele>710.49</ele>
        <time>2024-11-05T12:52:02.114Z</time>
      </trkpt>
      <trkpt lat="44.56871" lon="3.29141">
        <ele>709.82</ele>
        <time>2024-11-05T12:52:10.436Z</time>
      </trkpt>
      <trkpt lat="44.56855" lon="3.29171">
        <ele>709.1</ele>
        <time>2024-11-05T12:52:18.762Z</time>
      </trkpt>
      <trkpt lat="44.56835" lon="3.29197">
        <ele>708.34</ele>
        <time>2024-11-05T12:52:27.093Z</time>
      </trkpt>
      <trkpt lat="44.56822" lon="3.29206">
        <ele>707.62</ele>
        <time>2024-11-05T12:52:35.426Z</time>
      </trkpt>
      <trkpt lat="44.56805" lon="3.2921">
        <ele>706.91</ele>
        <time>2024-11-05T12:52:43.762Z</time>
      </trkpt>
      <trkpt lat="44.56789" lon="3.29214">
        <ele>706.21</ele>
        <time>2024-11-05T12:52:52.101Z</time>
      </trkpt>
      <trkpt lat="44.56759" lon="3.29206">
        <ele>705.54</ele>
        <time>2024-11-05T12:53:00.444Z</time>
      </trkpt>
      <trkpt lat="44.5673" lon="3.29189">
        <ele>704.78</ele>
        <time>2024-11-05T12:53:08.792Z</time>
      </trkpt>
      <trkpt lat="44.56701" lon="3.29171">
        <ele>703.95</ele>
        <time>2024-11-05T12:53:17.146Z</time>
      </trkpt>
      <trkpt lat="44.56685" lon="3.29165">
        <ele>703.19</ele>
        <time>2024-11-05T12:53:25.502Z</time>
      </trkpt>
      <trkpt lat="44.5666" lon="3.29159">
        <ele>702.41</ele>
        <time>2024-11-05T12:53:33.862Z</time>
      </trkpt>
      <trkpt lat="44.56634" lon="3.29154">
        <ele>701.6</ele>
        <time>2024-11-05T12:53:42.226Z</time>
      </trkpt>
      <trkpt lat="44.56609" lon="3.29148">
        <ele>700.81</ele>
        <time>2024-11-05T12:53:50.594Z</time>
      </trkpt>
      <trkpt lat="44.56602" lon="3.29146">
        <ele>700.03</ele>
        <time>2024-11-05T12:53:58.964Z</time>
      </trkpt>
      <trkpt lat="44.56571" lon="3.2914">
        <ele>699.23</ele>
        <time>2024-11-05T12:54:07.339Z</time>
      </trkpt>
      <trkpt lat="44.56541" lon="3.29134">
        <ele>698.4</ele>
        <time>2024-11-05T12:54:15.718Z</time>
      </trkpt>
      <trkpt lat="44.56527" lon="3.29125">
        <ele>697.59</ele>
        <time>2024-11-05T12:54:24.100Z</time>
      </trkpt>
      <trkpt lat="44.56509" lon="3.29121">
        <ele>696.77</ele>
        <time>2024-11-05T12:54:32.485Z</time>
      </trkpt>
      <trkpt lat="44.56509" lon="3.29121">
        <ele>696</ele>
        <time>2024-11-05T12:54:40.870Z</time>
      </trkpt>
      <trkpt lat="44.56491" lon="3.29119">
        <ele>695.19</ele>
        <time>2024-11-05T12:54:49.258Z</time>
      </trkpt>
      <trkpt lat="44.56473" lon="3.29117">
        <ele>694.39</ele>
        <time>2024-11-05T12:54:57.649Z</time>
      </trkpt>
      <trkpt lat="44.56447" lon="3.29118">
        <ele>693.6</ele>
        <time>2024-11-05T12:55:06.044Z</time>
      </trkpt>
      <trkpt lat="44.56447" lon="3.29118">
        <ele>692.85</ele>
        <time>2024-11-05T12:55:14.439Z</time>
      </trkpt>
      <trkpt lat="44.56425" lon="3.29116">
        <ele>692.1</ele>
        <time>2024-11-05T12:55:22.837Z</time>
      </trkpt>
      <trkpt lat="44.5641" lon="3.29117">
        <ele>691.36</ele>
        <time>2024-11-05T12:55:31.238Z</time>
      </trkpt>
      <trkpt lat="44.56401" lon="3.29116">
        <ele>690.63</ele>
        <time>2024-11-05T12:55:39.640Z</time>
      </trkpt>
      <trkpt lat="44.56395" lon="3.29108">
        <ele>689.92</ele>
        <time>2024-11-05T12:55:48.043Z</time>
      </trkpt>
      <trkpt lat="44.56391" lon="3.29107">
        <ele>689.2</ele>
        <time>2024-11-05T12:55:56.447Z</time>
      </trkpt>
      <trkpt lat="44.56382" lon="3.29109">
        <ele>688.48</ele>
        <time>2024-11-05T12:56:04.853Z</time>
      </trkpt>
      <trkpt lat="44.56382" lon="3.29109">
        <ele>687.77</ele>
        <time>2024-11-05T12:56:13.259Z</time>
      </trkpt>
      <trkpt lat="44.56377" lon="3.29118">
        <ele>687.04</ele>
        <time>2024-11-05T12:56:21.666Z</time>
      </trkpt>
      <trkpt lat="44.56374" lon="3.29129">
        <ele>686.31</ele>
        <time>2024-11-05T12:56:30.074Z</time>
      </trkpt>
      <trkpt lat="44.56376" lon="3.29136">
        <ele>685.59</ele>
        <time>2024-11-05T12:56:38.483Z</time>
      </trkpt>
      <trkpt lat="44.56371" lon="3.29147">
        <ele>684.87</ele>
        <time>2024-11-05T12:56:46.893Z</time>
      </trkpt>
      <trkpt lat="44.56367" lon="3.29158">
        <ele>684.17</ele>
        <time>2024-11-05T12:56:55.305Z</time>
      </trkpt>
      <trkpt lat="44.56357" lon="3.29174">
        <ele>683.46</ele>
        <time>2024-11-05T12:57:03.719Z</time>
      </trkpt>
      <trkpt lat="44.56335" lon="3.29183">
        <ele>682.78</ele>
        <time>2024-11-05T12:57:12.137Z</time>
      </trkpt>
      <trkpt lat="44.56313" lon="3.29192">
        <ele>682.09</ele>
        <time>2024-11-05T12:57:20.559Z</time>
      </trkpt>
      <trkpt lat="44.56302" lon="3.29193">
        <ele>681.39</ele>
        <time>2024-11-05T12:57:28.982Z</time>
      </trkpt>
      <trkpt lat="44.56295" lon="3.29193">
        <ele>680.69</ele>
        <time>2024-11-05T12:57:37.406Z</time>
      </trkpt>
      <trkpt lat="44.56276" lon="3.29186">
        <ele>679.99</ele>
        <time>2024-11-05T12:57:45.834Z</time>
      </trkpt>
      <trkpt lat="44.56258" lon="3.2918">
        <ele>679.28</ele>
        <time>2024-11-05T12:57:54.265Z</time>
      </trkpt>
      <trkpt lat="44.56232" lon="3.29175">
        <ele>678.56</ele>
        <time>2024-11-05T12:58:02.700Z</time>
      </trkpt>
      <trkpt lat="44.56208" lon="3.29174">
        <ele>677.84</ele>
        <time>2024-11-05T12:58:11.139Z</time>
      </trkpt>
      <trkpt lat="44.56187" lon="3.29176">
        <ele>677.11</ele>
        <time>2024-11-05T12:58:19.581Z</time>
      </trkpt>
      <trkpt lat="44.56165" lon="3.29178">
        <ele>676.39</ele>
        <time>2024-11-05T12:58:28.026Z</time>
      </trkpt>
      <trkpt lat="44.5616" lon="3.29178">
        <ele>675.68</ele>
        <time>2024-11-05T12:58:36.472Z</time>
      </trkpt>
      <trkpt lat="44.56137" lon="3.29181">
        <ele>674.92</ele>
        <time>2024-11-05T12:58:44.922Z</time>
      </trkpt>
      <trkpt lat="44.56106" lon="3.29184">
        <ele>674.16</ele>
        <time>2024-11-05T12:58:53.377Z</time>
      </trkpt>
      <trkpt lat="44.56093" lon="3.29186">
        <ele>673.46</ele>
        <time>2024-11-05T12:59:01.834Z</time>
      </trkpt>
      <trkpt lat="44.5608" lon="3.29185">
        <ele>672.77</ele>
        <time>2024-11-05T12:59:10.293Z</time>
      </trkpt>
      <trkpt lat="44.56063" lon="3.29183">
        <ele>672.06</ele>
        <time>2024-11-05T12:59:18.755Z</time>
      </trkpt>
      <trkpt lat="44.56046" lon="3.29181">
        <ele>671.38</ele>
        <time>2024-11-05T12:59:27.220Z</time>
      </trkpt>
      <trkpt lat="44.56025" lon="3.29175">
        <ele>670.72</ele>
        <time>2024-11-05T12:59:35.688Z</time>
      </trkpt>
      <trkpt lat="44.56006" lon="3.29168">
        <ele>670.05</ele>
        <time>2024-11-05T12:59:44.159Z</time>
      </trkpt>
      <trkpt lat="44.55988" lon="3.29162">
        <ele>669.36</ele>
        <time>2024-11-05T12:59:52.633Z</time>
      </trkpt>
      <trkpt lat="44.55961" lon="3.29151">
        <ele>668.67</ele>
        <time>2024-11-05T13:00:01.112Z</time>
      </trkpt>
      <trkpt lat="44.55934" lon="3.2914">
        <ele>667.98</ele>
        <time>2024-11-05T13:00:09.595Z</time>
      </trkpt>
      <trkpt lat="44.55934" lon="3.2914">
        <ele>667.33</ele>
        <time>2024-11-05T13:00:18.078Z</time>
      </trkpt>
      <trkpt lat="44.55907" lon="3.29129">
        <ele>666.67</ele>
        <time>2024-11-05T13:00:26.566Z</time>
      </trkpt>
      <trkpt lat="44.5588" lon="3.29118">
        <ele>666.01</ele>
        <time>2024-11-05T13:00:35.058Z</time>
      </trkpt>
      <trkpt lat="44.55852" lon="3.29105">
        <ele>665.37</ele>
        <time>2024-11-05T13:00:43.555Z</time>
      </trkpt>
      <trkpt lat="44.55832" lon="3.29094">
        <ele>664.72</ele>
        <time>2024-11-05T13:00:52.055Z</time>
      </trkpt>
      <trkpt lat="44.55832" lon="3.29094">
        <ele>664.1</ele>
        <time>2024-11-05T13:01:00.555Z</time>
      </trkpt>
      <trkpt lat="44.55828" lon="3.29089">
        <ele>663.49</ele>
        <time>2024-11-05T13:01:09.056Z</time>
      </trkpt>
      <trkpt lat="44.55824" lon="3.29087">
        <ele>662.88</ele>
        <time>2024-11-05T13:01:17.558Z</time>
      </trkpt>
      <trkpt lat="44.55819" lon="3.29088">
        <ele>662.27</ele>
        <time>2024-11-05T13:01:26.061Z</time>
      </trkpt>
      <trkpt lat="44.55813" lon="3.29092">
        <ele>661.67</ele>
        <time>2024-11-05T13:01:34.565Z</time>
      </trkpt>
      <trkpt lat="44.55794" lon="3.29094">
        <ele>661.07</ele>
        <time>2024-11-05T13:01:43.072Z</time>
      </trkpt>
      <trkpt lat="44.55774" lon="3.29094">
        <ele>660.48</ele>
        <time>2024-11-05T13:01:51.582Z</time>
      </trkpt>
      <trkpt lat="44.55742" lon="3.29095">
        <ele>659.88</ele>
        <time>2024-11-05T13:02:00.097Z</time>
      </trkpt>
      <trkpt lat="44.55711" lon="3.29096">
        <ele>659.3</ele>
        <time>2024-11-05T13:02:08.617Z</time>
      </trkpt>
      <trkpt lat="44.55679" lon="3.29097">
        <ele>658.75</ele>
        <time>2024-11-05T13:02:17.142Z</time>
      </trkpt>
      <trkpt lat="44.55657" lon="3.29099">
        <ele>658.22</ele>
        <time>2024-11-05T13:02:25.671Z</time>
      </trkpt>
      <trkpt lat="44.55635" lon="3.29101">
        <ele>657.7</ele>
        <time>2024-11-05T13:02:34.203Z</time>
      </trkpt>
      <trkpt lat="44.55613" lon="3.29101">
        <ele>657.16</ele>
        <time>2024-11-05T13:02:42.739Z</time>
      </trkpt>
      <trkpt lat="44.55591" lon="3.29102">
        <ele>656.65</ele>
        <time>2024-11-05T13:02:51.278Z</time>
      </trkpt>
      <trkpt lat="44.55569" lon="3.29103">
        <ele>656.15</ele>
        <time>2024-11-05T13:02:59.821Z</time>
      </trkpt>
      <trkpt lat="44.55541" lon="3.29103">
        <ele>655.66</ele>
        <time>2024-11-05T13:03:08.368Z</time>
      </trkpt>
      <trkpt lat="44.5552" lon="3.29103">
        <ele>655.19</ele>
        <time>2024-11-05T13:03:16.919Z</time>
      </trkpt>
      <trkpt lat="44.55513" lon="3.29107">
        <ele>654.75</ele>
        <time>2024-11-05T13:03:25.471Z</time>
      </trkpt>
      <trkpt lat="44.55508" lon="3.29118">
        <ele>654.31</ele>
        <time>2024-11-05T13:03:34.024Z</time>
      </trkpt>
      <trkpt lat="44.55498" lon="3.29145">
        <ele>653.91</ele>
        <time>2024-11-05T13:03:42.581Z</time>
      </trkpt>
      <trkpt lat="44.55486" lon="3.29184">
        <ele>653.52</ele>
        <time>2024-11-05T13:03:51.143Z</time>
      </trkpt>
      <trkpt lat="44.55474" lon="3.29223">
        <ele>653.09</ele>
        <time>2024-11-05T13:03:59.710Z</time>
      </trkpt>
      <trkpt lat="44.55464" lon="3.29235">
        <ele>652.69</ele>
        <time>2024-11-05T13:04:08.279Z</time>
      </trkpt>
      <trkpt lat="44.5546" lon="3.29238">
        <ele>652.31</ele>
        <time>2024-11-05T13:04:16.848Z</time>
      </trkpt>
      <trkpt lat="44.5545" lon="3.29243">
        <ele>651.93</ele>
        <time>2024-11-05T13:04:25.419Z</time>
      </trkpt>
      <trkpt lat="44.55435" lon="3.29243">
        <ele>651.57</ele>
        <time>2024-11-05T13:04:33.993Z</time>
      </trkpt>
      <trkpt lat="44.55417" lon="3.29244">
        <ele>651.23</ele>
        <time>2024-11-05T13:04:42.569Z</time>
      </trkpt>
      <trkpt lat="44.554" lon="3.29244">
        <ele>650.91</ele>
        <time>2024-11-05T13:04:51.148Z</time>
      </trkpt>
      <trkpt lat="44.55379" lon="3.29245">
        <ele>650.61</ele>
        <time>2024-11-05T13:04:59.731Z</time>
      </trkpt>
      <trkpt lat="44.55358" lon="3.29245">
        <ele>650.32</ele>
        <time>2024-11-05T13:05:08.317Z</time>
      </trkpt>
      <trkpt lat="44.55337" lon="3.29245">
        <ele>650.1</ele>
        <time>2024-11-05T13:05:16.906Z</time>
      </trkpt>
      <trkpt lat="44.55323" lon="3.29245">
        <ele>649.88</ele>
        <time>2024-11-05T13:05:25.498Z</time>
      </trkpt>
      <trkpt lat="44.55302" lon="3.29246">
        <ele>649.67</ele>
        <time>2024-11-05T13:05:34.093Z</time>
      </trkpt>
      <trkpt lat="44.55281" lon="3.29247">
        <ele>649.42</ele>
        <time>2024-11-05T13:05:42.691Z</time>
      </trkpt>
      <trkpt lat="44.55253" lon="3.2924">
        <ele>649.21</ele>
        <time>2024-11-05T13:05:51.294Z</time>
      </trkpt>
      <trkpt lat="44.55253" lon="3.2924">
        <ele>649.05</ele>
        <time>2024-11-05T13:05:59.897Z</time>
      </trkpt>
      <trkpt lat="44.5523" lon="3.29235">
        <ele>648.85</ele>
        <time>2024-11-05T13:06:08.503Z</time>
      </trkpt>
      <trkpt lat="44.55207" lon="3.29229">
        <ele>648.69</ele>
        <time>2024-11-05T13:06:17.113Z</time>
      </trkpt>
      <trkpt lat="44.55196" lon="3.29225">
        <ele>648.57</ele>
        <time>2024-11-05T13:06:25.725Z</time>
      </trkpt>
      <trkpt lat="44.55187" lon="3.29225">
        <ele>648.47</ele>
        <time>2024-11-05T13:06:34.339Z</time>
      </trkpt>
      <trkpt lat="44.55181" lon="3.29223">
        <ele>648.38</ele>
        <time>2024-11-05T13:06:42.953Z</time>
      </trkpt>
      <trkpt lat="44.55179" lon="3.29224">
        <ele>648.32</ele>
        <time>2024-11-05T13:06:51.568Z</time>
      </trkpt>
      <trkpt lat="44.55171" lon="3.29217">
        <ele>648.27</ele>
        <time>2024-11-05T13:07:00.184Z</time>
      </trkpt>
      <trkpt lat="44.55162" lon="3.29209">
        <ele>648.25</ele>
        <time>2024-11-05T13:07:08.802Z</time>
      </trkpt>
      <trkpt lat="44.5516" lon="3.29206">
        <ele>648.24</ele>
        <time>2024-11-05T13:07:17.421Z</time>
      </trkpt>
      <trkpt lat="44.5515" lon="3.29193">
        <ele>648.26</ele>
        <time>2024-11-05T13:07:26.042Z</time>
      </trkpt>
      <trkpt lat="44.5515" lon="3.29193">
        <ele>648.27</ele>
        <time>2024-11-05T13:07:34.663Z</time>
      </trkpt>
      <trkpt lat="44.5515" lon="3.29193">
        <ele>648.29</ele>
        <time>2024-11-05T13:07:43.284Z</time>
      </trkpt>
      <trkpt lat="44.5515" lon="3.29193">
        <ele>648.32</ele>
        <time>2024-11-05T13:07:51.905Z</time>
      </trkpt>
      <trkpt lat="44.5515" lon="3.29193">
        <ele>648.36</ele>
        <time>2024-11-05T13:08:00.526Z</time>
      </trkpt>
      <trkpt lat="44.5515" lon="3.29193">
        <ele>648.42</ele>
        <time>2024-11-05T13:08:09.147Z</time>
      </trkpt>
      <trkpt lat="44.55139" lon="3.29179">
        <ele>648.5</ele>
        <time>2024-11-05T13:08:17.770Z</time>
      </trkpt>
      <trkpt lat="44.55138" lon="3.29177">
        <ele>648.57</ele>
        <time>2024-11-05T13:08:26.393Z</time>
      </trkpt>
      <trkpt lat="44.55136" lon="3.2917">
        <ele>648.64</ele>
        <time>2024-11-05T13:08:35.017Z</time>
      </trkpt>
      <trkpt lat="44.55135" lon="3.29159">
        <ele>648.73</ele>
        <time>2024-11-05T13:08:43.643Z</time>
      </trkpt>
      <trkpt lat="44.55136" lon="3.29147">
        <ele>648.81</ele>
        <time>2024-11-05T13:08:52.270Z</time>
      </trkpt>
      <trkpt lat="44.55137" lon="3.2913">
        <ele>648.9</ele>
        <time>2024-11-05T13:09:00.899Z</time>
      </trkpt>
      <trkpt lat="44.55139" lon="3.29097">
        <ele>649.01</ele>
        <time>2024-11-05T13:09:09.532Z</time>
      </trkpt>
      <trkpt lat="44.55142" lon="3.29071">
        <ele>649.1</ele>
        <time>2024-11-05T13:09:18.168Z</time>
      </trkpt>
      <trkpt lat="44.55147" lon="3.29034">
        <ele>649.2</ele>
        <time>2024-11-05T13:09:26.808Z</time>
      </trkpt>
      <trkpt lat="44.55149" lon="3.29016">
        <ele>649.29</ele>
        <time>2024-11-05T13:09:35.450Z</time>
      </trkpt>
      <trkpt lat="44.55151" lon="3.29003">
        <ele>649.39</ele>
        <time>2024-11-05T13:09:44.094Z</time>
      </trkpt>
      <trkpt lat="44.55151" lon="3.29">
        <ele>649.46</ele>
        <time>2024-11-05T13:09:52.738Z</time>
      </trkpt>
      <trkpt lat="44.55149" lon="3.28987">
        <ele>649.54</ele>
        <time>2024-11-05T13:10:01.383Z</time>
      </trkpt>
      <trkpt lat="44.55147" lon="3.28986">
        <ele>649.6</ele>
        <time>2024-11-05T13:10:10.029Z</time>
      </trkpt>
      <trkpt lat="44.55142" lon="3.28982">
        <ele>649.66</ele>
        <time>2024-11-05T13:10:18.676Z</time>
      </trkpt>
      <trkpt lat="44.55106" lon="3.28968">
        <ele>649.72</ele>
        <time>2024-11-05T13:10:27.329Z</time>
      </trkpt>
      <trkpt lat="44.55084" lon="3.28959">
        <ele>649.75</ele>
        <time>2024-11-05T13:10:35.985Z</time>
      </trkpt>
      <trkpt lat="44.55073" lon="3.28955">
        <ele>649.78</ele>
        <time>2024-11-05T13:10:44.643Z</time>
      </trkpt>
      <trkpt lat="44.55054" lon="3.28948">
        <ele>649.81</ele>
        <time>2024-11-05T13:10:53.304Z</time>
      </trkpt>
      <trkpt lat="44.55041" lon="3.28943">
        <ele>649.82</ele>
        <time>2024-11-05T13:11:01.967Z</time>
      </trkpt>
      <trkpt lat="44.55033" lon="3.2894">
        <ele>649.83</ele>
        <time>2024-11-05T13:11:10.632Z</time>
      </trkpt>
      <trkpt lat="44.54994" lon="3.28926">
        <ele>649.77</ele>
        <time>2024-11-05T13:11:19.303Z</time>
      </trkpt>
      <trkpt lat="44.54968" lon="3.28916">
        <ele>649.75</ele>
        <time>2024-11-05T13:11:27.979Z</time>
      </trkpt>
      <trkpt lat="44.54938" lon="3.28905">
        <ele>649.73</ele>
        <time>2024-11-05T13:11:36.660Z</time>
      </trkpt>
      <trkpt lat="44.54917" lon="3.28897">
        <ele>649.7</ele>
        <time>2024-11-05T13:11:45.344Z</time>
      </trkpt>
      <trkpt lat="44.54904" lon="3.28892">
        <ele>649.67</ele>
        <time>2024-11-05T13:11:54.030Z</time>
      </trkpt>
      <trkpt lat="44.54879" lon="3.28884">
        <ele>649.64</ele>
        <time>2024-11-05T13:12:02.720Z</time>
      </trkpt>
      <trkpt lat="44.54859" lon="3.28876">
        <ele>649.61</ele>
        <time>2024-11-05T13:12:11.414Z</time>
      </trkpt>
      <trkpt lat="44.54844" lon="3.2887">
        <ele>649.58</ele>
        <time>2024-11-05T13:12:20.110Z</time>
      </trkpt>
      <trkpt lat="44.54832" lon="3.28866">
        <ele>649.53</ele>
        <time>2024-11-05T13:12:28.808Z</time>
      </trkpt>
      <trkpt lat="44.54823" lon="3.28864">
        <ele>649.48</ele>
        <time>2024-11-05T13:12:37.508Z</time>
      </trkpt>
      <trkpt lat="44.54802" lon="3.28858">
        <ele>649.42</ele>
        <time>2024-11-05T13:12:46.211Z</time>
      </trkpt>
      <trkpt lat="44.54789" lon="3.28855">
        <ele>649.35</ele>
        <time>2024-11-05T13:12:54.916Z</time>
      </trkpt>
      <trkpt lat="44.54776" lon="3.28851">
        <ele>649.27</ele>
        <time>2024-11-05T13:13:03.623Z</time>
      </trkpt>
      <trkpt lat="44.54758" lon="3.28847">
        <ele>649.18</ele>
        <time>2024-11-05T13:13:12.333Z</time>
      </trkpt>
      <trkpt lat="44.54751" lon="3.28845">
        <ele>649.08</ele>
        <time>2024-11-05T13:13:21.044Z</time>
      </trkpt>
      <trkpt lat="44.54723" lon="3.2884">
        <ele>649</ele>
        <time>2024-11-05T13:13:29.760Z</time>
      </trkpt>
      <trkpt lat="44.54714" lon="3.28839">
        <ele>648.89</ele>
        <time>2024-11-05T13:13:38.477Z</time>
      </trkpt>
      <trkpt lat="44.547" lon="3.28836">
        <ele>648.77</ele>
        <time>2024-11-05T13:13:47.196Z</time>
      </trkpt>
      <trkpt lat="44.54687" lon="3.28834">
        <ele>648.62</ele>
        <time>2024-11-05T13:13:55.918Z</time>
      </trkpt>
      <trkpt lat="44.54682" lon="3.28833">
        <ele>648.48</ele>
        <time>2024-11-05T13:14:04.640Z</time>
      </trkpt>
      <trkpt lat="44.54665" lon="3.28833">
        <ele>648.3</ele>
        <time>2024-11-05T13:14:13.365Z</time>
      </trkpt>
      <trkpt lat="44.54656" lon="3.28833">
        <ele>648.13</ele>
        <time>2024-11-05T13:14:22.092Z</time>
      </trkpt>
      <trkpt lat="44.54633" lon="3.28832">
        <ele>647.96</ele>
        <time>2024-11-05T13:14:30.822Z</time>
      </trkpt>
      <trkpt lat="44.54617" lon="3.28832">
        <ele>647.8</ele>
        <time>2024-11-05T13:14:39.555Z</time>
      </trkpt>
      <trkpt lat="44.54615" lon="3.28832">
        <ele>647.63</ele>
        <time>2024-11-05T13:14:48.288Z</time>
      </trkpt>
      <trkpt lat="44.54594" lon="3.2883">
        <ele>647.45</ele>
        <time>2024-11-05T13:14:57.024Z</time>
      </trkpt>
      <trkpt lat="44.5458" lon="3.28827">
        <ele>647.25</ele>
        <time>2024-11-05T13:15:05.763Z</time>
      </trkpt>
      <trkpt lat="44.54566" lon="3.28824">
        <ele>647.04</ele>
        <time>2024-11-05T13:15:14.504Z</time>
      </trkpt>
      <trkpt lat="44.54555" lon="3.28822">
        <ele>646.82</ele>
        <time>2024-11-05T13:15:23.247Z</time>
      </trkpt>
      <trkpt lat="44.54543" lon="3.28811">
        <ele>646.62</ele>
        <time>2024-11-05T13:15:31.992Z</time>
      </trkpt>
      <trkpt lat="44.5454" lon="3.28806">
        <ele>646.4</ele>
        <time>2024-11-05T13:15:40.738Z</time>
      </trkpt>
      <trkpt lat="44.54532" lon="3.28795">
        <ele>646.18</ele>
        <time>2024-11-05T13:15:49.486Z</time>
      </trkpt>
      <trkpt lat="44.54531" lon="3.28795">
        <ele>645.95</ele>
        <time>2024-11-05T13:15:58.234Z</time>
      </trkpt>
      <trkpt lat="44.54529" lon="3.28793">
        <ele>645.71</ele>
        <time>2024-11-05T13:16:06.982Z</time>
      </trkpt>
      <trkpt lat="44.54525" lon="3.28794">
        <ele>645.46</ele>
        <time>2024-11-05T13:16:15.731Z</time>
      </trkpt>
      <trkpt lat="44.54521" lon="3.28798">
        <ele>645.2</ele>
        <time>2024-11-05T13:16:24.481Z</time>
      </trkpt>
      <trkpt lat="44.54509" lon="3.28802">
        <ele>644.91</ele>
        <time>2024-11-05T13:16:33.233Z</time>
      </trkpt>
      <trkpt lat="44.54497" lon="3.28805">
        <ele>644.63</ele>
        <time>2024-11-05T13:16:41.986Z</time>
      </trkpt>
      <trkpt lat="44.54478" lon="3.28803">
        <ele>644.36</ele>
        <time>2024-11-05T13:16:50.743Z</time>
      </trkpt>
      <trkpt lat="44.54464" lon="3.28801">
        <ele>644.11</ele>
        <time>2024-11-05T13:16:59.502Z</time>
      </trkpt>
      <trkpt lat="44.54457" lon="3.288">
        <ele>643.85</ele>
        <time>2024-11-05T13:17:08.262Z</time>
      </trkpt>
      <trkpt lat="44.54455" lon="3.288">
        <ele>643.6</ele>
        <time>2024-11-05T13:17:17.022Z</time>
      </trkpt>
      <trkpt lat="44.54437" lon="3.28802">
        <ele>643.36</ele>
        <time>2024-11-05T13:17:25.785Z</time>
      </trkpt>
      <trkpt lat="44.5442" lon="3.28806">
        <ele>643.12</ele>
        <time>2024-11-05T13:17:34.551Z</time>
      </trkpt>
      <trkpt lat="44.54411" lon="3.28808">
        <ele>642.88</ele>
        <time>2024-11-05T13:17:43.318Z</time>
      </trkpt>
      <trkpt lat="44.54386" lon="3.28814">
        <ele>642.62</ele>
        <time>2024-11-05T13:17:52.089Z</time>
      </trkpt>
      <trkpt lat="44.54368" lon="3.28816">
        <ele>642.36</ele>
        <time>2024-11-05T13:18:00.863Z</time>
      </trkpt>
      <trkpt lat="44.5436" lon="3.28817">
        <ele>642.11</ele>
        <time>2024-11-05T13:18:09.639Z</time>
      </trkpt>
      <trkpt lat="44.54347" lon="3.28819">
        <ele>641.84</ele>
        <time>2024-11-05T13:18:18.417Z</time>
      </trkpt>
      <trkpt lat="44.54339" lon="3.2882">
        <ele>641.62</ele>
        <time>2024-11-05T13:18:27.196Z</time>
      </trkpt>
      <trkpt lat="44.54323" lon="3.2882">
        <ele>641.37</ele>
        <time>2024-11-05T13:18:35.977Z</time>
      </trkpt>
      <trkpt lat="44.54313" lon="3.28816">
        <ele>641.16</ele>
        <time>2024-11-05T13:18:44.760Z</time>
      </trkpt>
      <trkpt lat="44.54312" lon="3.28815">
        <ele>640.99</ele>
        <time>2024-11-05T13:18:53.543Z</time>
      </trkpt>
      <trkpt lat="44.54305" lon="3.28809">
        <ele>640.82</ele>
        <time>2024-11-05T13:19:02.328Z</time>
      </trkpt>
      <trkpt lat="44.54302" lon="3.28807">
        <ele>640.67</ele>
        <time>2024-11-05T13:19:11.113Z</time>
      </trkpt>
      <trkpt lat="44.54293" lon="3.28807">
        <ele>640.53</ele>
        <time>2024-11-05T13:19:19.900Z</time>
      </trkpt>
      <trkpt lat="44.54291" lon="3.28808">
        <ele>640.41</ele>
        <time>2024-11-05T13:19:28.687Z</time>
      </trkpt>
      <trkpt lat="44.54284" lon="3.28815">
        <ele>640.31</ele>
        <time>2024-11-05T13:19:37.475Z</time>
      </trkpt>
      <trkpt lat="44.54281" lon="3.28818">
        <ele>640.23</ele>
        <time>2024-11-05T13:19:46.264Z</time>
      </trkpt>
      <trkpt lat="44.54276" lon="3.28818">
        <ele>640.17</ele>
        <time>2024-11-05T13:19:55.054Z</time>
      </trkpt>
      <trkpt lat="44.54268" lon="3.28819">
        <ele>640.12</ele>
        <time>2024-11-05T13:20:03.845Z</time>
      </trkpt>
      <trkpt lat="44.54255" lon="3.28819">
        <ele>640.08</ele>
        <time>2024-11-05T13:20:12.638Z</time>
      </trkpt>
      <trkpt lat="44.54246" lon="3.2882">
        <ele>640.06</ele>
        <time>2024-11-05T13:20:21.433Z</time>
      </trkpt>
      <trkpt lat="44.54229" lon="3.2882">
        <ele>640.07</ele>
        <time>2024-11-05T13:20:30.230Z</time>
      </trkpt>
      <trkpt lat="44.54212" lon="3.28821">
        <ele>640.06</ele>
        <time>2024-11-05T13:20:39.030Z</time>
      </trkpt>
      <trkpt lat="44.5421" lon="3.28821">
        <ele>640.07</ele>
        <time>2024-11-05T13:20:47.830Z</time>
      </trkpt>
      <trkpt lat="44.54204" lon="3.28823">
        <ele>640.09</ele>
        <time>2024-11-05T13:20:56.631Z</time>
      </trkpt>
      <trkpt lat="44.54196" lon="3.28826">
        <ele>640.11</ele>
        <time>2024-11-05T13:21:05.434Z</time>
      </trkpt>
      <trkpt lat="44.54172" lon="3.28833">
        <ele>640.26</ele>
        <time>2024-11-05T13:21:14.241Z</time>
      </trkpt>
      <trkpt lat="44.5416" lon="3.28837">
        <ele>640.42</ele>
        <time>2024-11-05T13:21:23.050Z</time>
      </trkpt>
      <trkpt lat="44.54151" lon="3.28835">
        <ele>640.56</ele>
        <time>2024-11-05T13:21:31.860Z</time>
      </trkpt>
      <trkpt lat="44.54147" lon="3.28833">
        <ele>640.66</ele>
        <time>2024-11-05T13:21:40.671Z</time>
      </trkpt>
      <trkpt lat="44.54144" lon="3.28831">
        <ele>640.74</ele>
        <time>2024-11-05T13:21:49.482Z</time>
      </trkpt>
      <trkpt lat="44.54137" lon="3.28821">
        <ele>640.84</ele>
        <time>2024-11-05T13:21:58.295Z</time>
      </trkpt>
      <trkpt lat="44.54134" lon="3.28817">
        <ele>640.92</ele>
        <time>2024-11-05T13:22:07.109Z</time>
      </trkpt>
      <trkpt lat="44.54131" lon="3.28813">
        <ele>640.99</ele>
        <time>2024-11-05T13:22:15.923Z</time>
      </trkpt>
      <trkpt lat="44.54128" lon="3.28809">
        <ele>641.06</ele>
        <time>2024-11-05T13:22:24.738Z</time>
      </trkpt>
      <trkpt lat="44.54129" lon="3.28808">
        <ele>641.11</ele>
        <time>2024-11-05T13:22:33.553Z</time>
      </trkpt>
      <trkpt lat="44.54131" lon="3.28804">
        <ele>641.12</ele>
        <time>2024-11-05T13:22:42.369Z</time>
      </trkpt>
      <trkpt lat="44.54134" lon="3.28799">
        <ele>641.14</ele>
        <time>2024-11-05T13:22:51.185Z</time>
      </trkpt>
      <trkpt lat="44.54134" lon="3.28799">
        <ele>641.19</ele>
        <time>2024-11-05T13:23:00.001Z</time>
      </trkpt>
      <trkpt lat="44.54135" lon="3.28793">
        <ele>641.21</ele>
        <time>2024-11-05T13:23:08.818Z</time>
      </trkpt>
      <trkpt lat="44.54136" lon="3.28783">
        <ele>641.23</ele>
        <time>2024-11-05T13:23:17.636Z</time>
      </trkpt>
      <trkpt lat="44.54134" lon="3.28757">
        <ele>641.22</ele>
        <time>2024-11-05T13:23:26.457Z</time>
      </trkpt>
      <trkpt lat="44.54133" lon="3.28745">
        <ele>641.26</ele>
        <time>2024-11-05T13:23:35.280Z</time>
      </trkpt>
      <trkpt lat="44.54132" lon="3.28733">
        <ele>641.3</ele>
        <time>2024-11-05T13:23:44.104Z</time>
      </trkpt>
      <trkpt lat="44.54131" lon="3.28721">
        <ele>641.37</ele>
        <time>2024-11-05T13:23:52.929Z</time>
      </trkpt>
      <trkpt lat="44.5413" lon="3.28714">
        <ele>641.44</ele>
        <time>2024-11-05T13:24:01.755Z</time>
      </trkpt>
      <trkpt lat="44.54129" lon="3.28709">
        <ele>641.53</ele>
        <time>2024-11-05T13:24:10.582Z</time>
      </trkpt>
      <trkpt lat="44.54125" lon="3.28697">
        <ele>641.61</ele>
        <time>2024-11-05T13:24:19.410Z</time>
      </trkpt>
      <trkpt lat="44.54123" lon="3.28693">
        <ele>641.72</ele>
        <time>2024-11-05T13:24:28.239Z</time>
      </trkpt>
      <trkpt lat="44.54119" lon="3.28687">
        <ele>641.84</ele>
        <time>2024-11-05T13:24:37.069Z</time>
      </trkpt>
      <trkpt lat="44.54112" lon="3.28682">
        <ele>641.97</ele>
        <time>2024-11-05T13:24:45.900Z</time>
      </trkpt>
      <trkpt lat="44.54108" lon="3.28678">
        <ele>642.12</ele>
        <time>2024-11-05T13:24:54.732Z</time>
      </trkpt>
      <trkpt lat="44.54103" lon="3.28671">
        <ele>642.26</ele>
        <time>2024-11-05T13:25:03.565Z</time>
      </trkpt>
      <trkpt lat="44.54102" lon="3.28669">
        <ele>642.43</ele>
        <time>2024-11-05T13:25:12.398Z</time>
      </trkpt>
      <trkpt lat="44.54097" lon="3.28653">
        <ele>642.59</ele>
        <time>2024-11-05T13:25:21.233Z</time>
      </trkpt>
      <trkpt lat="44.54097" lon="3.28652">
        <ele>642.79</ele>
        <time>2024-11-05T13:25:30.068Z</time>
      </trkpt>
      <trkpt lat="44.54094" lon="3.28647">
        <ele>643.01</ele>
        <time>2024-11-05T13:25:38.904Z</time>
      </trkpt>
      <trkpt lat="44.54088" lon="3.28638">
        <ele>643.25</ele>
        <time>2024-11-05T13:25:47.741Z</time>
      </trkpt>
      <trkpt lat="44.54086" lon="3.28635">
        <ele>643.5</ele>
        <time>2024-11-05T13:25:56.579Z</time>
      </trkpt>
      <trkpt lat="44.54081" lon="3.28631">
        <ele>643.8</ele>
        <time>2024-11-05T13:26:05.418Z</time>
      </trkpt>
      <trkpt lat="44.54077" lon="3.28631">
        <ele>644.11</ele>
        <time>2024-11-05T13:26:14.257Z</time>
      </trkpt>
      <trkpt lat="44.54076" lon="3.28631">
        <ele>644.41</ele>
        <time>2024-11-05T13:26:23.097Z</time>
      </trkpt>
      <trkpt lat="44.54064" lon="3.28638">
        <ele>644.82</ele>
        <time>2024-11-05T13:26:31.939Z</time>
      </trkpt>
      <trkpt lat="44.54057" lon="3.28641">
        <ele>645.15</ele>
        <time>2024-11-05T13:26:40.782Z</time>
      </trkpt>
      <trkpt lat="44.54055" lon="3.28642">
        <ele>645.49</ele>
        <time>2024-11-05T13:26:49.625Z</time>
      </trkpt>
      <trkpt lat="44.54043" lon="3.2865">
        <ele>645.88</ele>
        <time>2024-11-05T13:26:58.470Z</time>
      </trkpt>
      <trkpt lat="44.54035" lon="3.28655">
        <ele>646.23</ele>
        <time>2024-11-05T13:27:07.317Z</time>
      </trkpt>
      <trkpt lat="44.54027" lon="3.2866">
        <ele>646.59</ele>
        <time>2024-11-05T13:27:16.165Z</time>
      </trkpt>
      <trkpt lat="44.54019" lon="3.28666">
        <ele>647.02</ele>
        <time>2024-11-05T13:27:25.014Z</time>
      </trkpt>
      <trkpt lat="44.54011" lon="3.28671">
        <ele>647.46</ele>
        <time>2024-11-05T13:27:33.865Z</time>
      </trkpt>
      <trkpt lat="44.53999" lon="3.28679">
        <ele>647.86</ele>
        <time>2024-11-05T13:27:42.718Z</time>
      </trkpt>
      <trkpt lat="44.53995" lon="3.28681">
        <ele>648.28</ele>
        <time>2024-11-05T13:27:51.572Z</time>
      </trkpt>
      <trkpt lat="44.53978" lon="3.2869">
        <ele>648.69</ele>
        <time>2024-11-05T13:28:00.429Z</time>
      </trkpt>
      <trkpt lat="44.53966" lon="3.28697">
        <ele>649.17</ele>
        <time>2024-11-05T13:28:09.288Z</time>
      </trkpt>
      <trkpt lat="44.53954" lon="3.28704">
        <ele>649.63</ele>
        <time>2024-11-05T13:28:18.149Z</time>
      </trkpt>
      <trkpt lat="44.53924" lon="3.28721">
        <ele>650.15</ele>
        <time>2024-11-05T13:28:27.015Z</time>
      </trkpt>
      <trkpt lat="44.53921" lon="3.28723">
        <ele>650.59</ele>
        <time>2024-11-05T13:28:35.882Z</time>
      </trkpt>
      <trkpt lat="44.53901" lon="3.28737">
        <ele>651.05</ele>
        <time>2024-11-05T13:28:44.752Z</time>
      </trkpt>
      <trkpt lat="44.5388" lon="3.28752">
        <ele>651.48</ele>
        <time>2024-11-05T13:28:53.626Z</time>
      </trkpt>
      <trkpt lat="44.53877" lon="3.28755">
        <ele>651.91</ele>
        <time>2024-11-05T13:29:02.500Z</time>
      </trkpt>
      <trkpt lat="44.53855" lon="3.28776">
        <ele>652.28</ele>
        <time>2024-11-05T13:29:11.379Z</time>
      </trkpt>
      <trkpt lat="44.53837" lon="3.28793">
        <ele>652.68</ele>
        <time>2024-11-05T13:29:20.261Z</time>
      </trkpt>
      <trkpt lat="44.5383" lon="3.288">
        <ele>653.12</ele>
        <time>2024-11-05T13:29:29.145Z</time>
      </trkpt>
      <trkpt lat="44.53826" lon="3.28804">
        <ele>653.56</ele>
        <time>2024-11-05T13:29:38.029Z</time>
      </trkpt>
      <trkpt lat="44.53818" lon="3.28807">
        <ele>654.04</ele>
        <time>2024-11-05T13:29:46.915Z</time>
      </trkpt>
      <trkpt lat="44.53816" lon="3.28808">
        <ele>654.5</ele>
        <time>2024-11-05T13:29:55.801Z</time>
      </trkpt>
      <trkpt lat="44.53804" lon="3.28809">
        <ele>654.99</ele>
        <time>2024-11-05T13:30:04.689Z</time>
      </trkpt>
      <trkpt lat="44.53791" lon="3.28811">
        <ele>655.53</ele>
        <time>2024-11-05T13:30:13.579Z</time>
      </trkpt>
      <trkpt lat="44.53778" lon="3.28813">
        <ele>656.04</ele>
        <time>2024-11-05T13:30:22.471Z</time>
      </trkpt>
      <trkpt lat="44.53774" lon="3.28813">
        <ele>656.52</ele>
        <time>2024-11-05T13:30:31.364Z</time>
      </trkpt>
      <trkpt lat="44.53769" lon="3.28816">
        <ele>656.99</ele>
        <time>2024-11-05T13:30:40.258Z</time>
      </trkpt>
      <trkpt lat="44.53753" lon="3.28825">
        <ele>657.46</ele>
        <time>2024-11-05T13:30:49.154Z</time>
      </trkpt>
      <trkpt lat="44.53744" lon="3.28829">
        <ele>657.93</ele>
        <time>2024-11-05T13:30:58.052Z</time>
      </trkpt>
      <trkpt lat="44.53738" lon="3.28831">
        <ele>658.41</ele>
        <time>2024-11-05T13:31:06.951Z</time>
      </trkpt>
      <trkpt lat="44.53708" lon="3.28832">
        <ele>658.96</ele>
        <time>2024-11-05T13:31:15.855Z</time>
      </trkpt>
      <trkpt lat="44.53697" lon="3.28832">
        <ele>659.43</ele>
        <time>2024-11-05T13:31:24.760Z</time>
      </trkpt>
      <trkpt lat="44.53695" lon="3.28833">
        <ele>659.88</ele>
        <time>2024-11-05T13:31:33.666Z</time>
      </trkpt>
      <trkpt lat="44.53678" lon="3.28839">
        <ele>660.26</ele>
        <time>2024-11-05T13:31:42.575Z</time>
      </trkpt>
      <trkpt lat="44.53639" lon="3.28854">
        <ele>660.65</ele>
        <time>2024-11-05T13:31:51.490Z</time>
      </trkpt>
      <trkpt lat="44.5362" lon="3.28861">
        <ele>661.19</ele>
        <time>2024-11-05T13:32:00.408Z</time>
      </trkpt>
      <trkpt lat="44.53591" lon="3.28886">
        <ele>661.66</ele>
        <time>2024-11-05T13:32:09.332Z</time>
      </trkpt>
      <trkpt lat="44.53571" lon="3.28902">
        <ele>662.16</ele>
        <time>2024-11-05T13:32:18.259Z</time>
      </trkpt>
      <trkpt lat="44.5357" lon="3.28903">
        <ele>662.63</ele>
        <time>2024-11-05T13:32:27.187Z</time>
      </trkpt>
      <trkpt lat="44.53563" lon="3.28907">
        <ele>663.1</ele>
        <time>2024-11-05T13:32:36.116Z</time>
      </trkpt>
      <trkpt lat="44.5356" lon="3.28909">
        <ele>663.58</ele>
        <time>2024-11-05T13:32:45.045Z</time>
      </trkpt>
      <trkpt lat="44.5355" lon="3.28912">
        <ele>664.09</ele>
        <time>2024-11-05T13:32:53.976Z</time>
      </trkpt>
      <trkpt lat="44.53545" lon="3.28913">
        <ele>664.58</ele>
        <time>2024-11-05T13:33:02.908Z</time>
      </trkpt>
      <trkpt lat="44.53541" lon="3.28913">
        <ele>665.1</ele>
        <time>2024-11-05T13:33:11.840Z</time>
      </trkpt>
      <trkpt lat="44.53528" lon="3.28913">
        <ele>665.64</ele>
        <time>2024-11-05T13:33:20.774Z</time>
      </trkpt>
      <trkpt lat="44.53519" lon="3.28912">
        <ele>666.14</ele>
        <time>2024-11-05T13:33:29.710Z</time>
      </trkpt>
      <trkpt lat="44.5351" lon="3.28912">
        <ele>666.65</ele>
        <time>2024-11-05T13:33:38.647Z</time>
      </trkpt>
      <trkpt lat="44.53483" lon="3.28911">
        <ele>667.19</ele>
        <time>2024-11-05T13:33:47.589Z</time>
      </trkpt>
      <trkpt lat="44.53474" lon="3.28911">
        <ele>667.73</ele>
        <time>2024-11-05T13:33:56.532Z</time>
      </trkpt>
      <trkpt lat="44.53473" lon="3.28911">
        <ele>668.27</ele>
        <time>2024-11-05T13:34:05.475Z</time>
      </trkpt>
      <trkpt lat="44.53456" lon="3.28912">
        <ele>668.8</ele>
        <time>2024-11-05T13:34:14.421Z</time>
      </trkpt>
      <trkpt lat="44.53421" lon="3.28915">
        <ele>669.36</ele>
        <time>2024-11-05T13:34:23.373Z</time>
      </trkpt>
      <trkpt lat="44.53402" lon="3.28915">
        <ele>669.98</ele>
        <time>2024-11-05T13:34:32.328Z</time>
      </trkpt>
      <trkpt lat="44.53392" lon="3.28915">
        <ele>670.57</ele>
        <time>2024-11-05T13:34:41.284Z</time>
      </trkpt>
      <trkpt lat="44.53384" lon="3.28914">
        <ele>671.17</ele>
        <time>2024-11-05T13:34:50.241Z</time>
      </trkpt>
      <trkpt lat="44.53371" lon="3.28912">
        <ele>671.8</ele>
        <time>2024-11-05T13:34:59.201Z</time>
      </trkpt>
      <trkpt lat="44.53353" lon="3.28909">
        <ele>672.43</ele>
        <time>2024-11-05T13:35:08.163Z</time>
      </trkpt>
      <trkpt lat="44.53349" lon="3.28909">
        <ele>673.03</ele>
        <time>2024-11-05T13:35:17.126Z</time>
      </trkpt>
      <trkpt lat="44.53337" lon="3.28907">
        <ele>673.65</ele>
        <time>2024-11-05T13:35:26.091Z</time>
      </trkpt>
      <trkpt lat="44.53336" lon="3.28907">
        <ele>674.24</ele>
        <time>2024-11-05T13:35:35.056Z</time>
      </trkpt>
      <trkpt lat="44.53309" lon="3.28911">
        <ele>674.86</ele>
        <time>2024-11-05T13:35:44.026Z</time>
      </trkpt>
      <trkpt lat="44.5329" lon="3.28914">
        <ele>675.48</ele>
        <time>2024-11-05T13:35:52.999Z</time>
      </trkpt>
      <trkpt lat="44.53278" lon="3.28913">
        <ele>676.12</ele>
        <time>2024-11-05T13:36:01.974Z</time>
      </trkpt>
      <trkpt lat="44.5326" lon="3.28911">
        <ele>676.77</ele>
        <time>2024-11-05T13:36:10.951Z</time>
      </trkpt>
      <trkpt lat="44.53224" lon="3.28908">
        <ele>677.44</ele>
        <time>2024-11-05T13:36:19.934Z</time>
      </trkpt>
      <trkpt lat="44.53203" lon="3.28906">
        <ele>678.08</ele>
        <time>2024-11-05T13:36:28.921Z</time>
      </trkpt>
      <trkpt lat="44.53184" lon="3.28907">
        <ele>678.69</ele>
        <time>2024-11-05T13:36:37.911Z</time>
      </trkpt>
      <trkpt lat="44.53176" lon="3.28907">
        <ele>679.29</ele>
        <time>2024-11-05T13:36:46.902Z</time>
      </trkpt>
      <trkpt lat="44.5314" lon="3.28918">
        <ele>679.91</ele>
        <time>2024-11-05T13:36:55.899Z</time>
      </trkpt>
      <trkpt lat="44.53127" lon="3.28922">
        <ele>680.53</ele>
        <time>2024-11-05T13:37:04.898Z</time>
      </trkpt>
      <trkpt lat="44.53115" lon="3.28925">
        <ele>681.15</ele>
        <time>2024-11-05T13:37:13.899Z</time>
      </trkpt>
      <trkpt lat="44.53114" lon="3.28926">
        <ele>681.74</ele>
        <time>2024-11-05T13:37:22.900Z</time>
      </trkpt>
      <trkpt lat="44.53106" lon="3.28932">
        <ele>682.31</ele>
        <time>2024-11-05T13:37:31.903Z</time>
      </trkpt>
      <trkpt lat="44.53089" lon="3.28943">
        <ele>682.89</ele>
        <time>2024-11-05T13:37:40.908Z</time>
      </trkpt>
      <trkpt lat="44.53076" lon="3.28952">
        <ele>683.44</ele>
        <time>2024-11-05T13:37:49.916Z</time>
      </trkpt>
      <trkpt lat="44.53066" lon="3.28957">
        <ele>684.01</ele>
        <time>2024-11-05T13:37:58.926Z</time>
      </trkpt>
      <trkpt lat="44.53065" lon="3.28957">
        <ele>684.59</ele>
        <time>2024-11-05T13:38:07.936Z</time>
      </trkpt>
      <trkpt lat="44.53058" lon="3.28958">
        <ele>685.18</ele>
        <time>2024-11-05T13:38:16.947Z</time>
      </trkpt>
      <trkpt lat="44.53051" lon="3.28957">
        <ele>685.78</ele>
        <time>2024-11-05T13:38:25.959Z</time>
      </trkpt>
      <trkpt lat="44.53047" lon="3.28956">
        <ele>686.36</ele>
        <time>2024-11-05T13:38:34.972Z</time>
      </trkpt>
      <trkpt lat="44.53043" lon="3.28953">
        <ele>686.97</ele>
        <time>2024-11-05T13:38:43.985Z</time>
      </trkpt>
      <trkpt lat="44.53031" lon="3.28943">
        <ele>687.65</ele>
        <time>2024-11-05T13:38:53.000Z</time>
      </trkpt>
      <trkpt lat="44.5302" lon="3.28934">
        <ele>688.29</ele>
        <time>2024-11-05T13:39:02.018Z</time>
      </trkpt>
      <trkpt lat="44.53014" lon="3.28929">
        <ele>688.89</ele>
        <time>2024-11-05T13:39:11.037Z</time>
      </trkpt>
      <trkpt lat="44.53008" lon="3.28926">
        <ele>689.48</ele>
        <time>2024-11-05T13:39:20.057Z</time>
      </trkpt>
      <trkpt lat="44.52999" lon="3.28921">
        <ele>690.09</ele>
        <time>2024-11-05T13:39:29.078Z</time>
      </trkpt>
      <trkpt lat="44.52996" lon="3.28919">
        <ele>690.67</ele>
        <time>2024-11-05T13:39:38.100Z</time>
      </trkpt>
      <trkpt lat="44.52987" lon="3.2892">
        <ele>691.28</ele>
        <time>2024-11-05T13:39:47.123Z</time>
      </trkpt>
      <trkpt lat="44.52978" lon="3.28927">
        <ele>691.83</ele>
        <time>2024-11-05T13:39:56.148Z</time>
      </trkpt>
      <trkpt lat="44.52977" lon="3.28928">
        <ele>692.38</ele>
        <time>2024-11-05T13:40:05.173Z</time>
      </trkpt>
      <trkpt lat="44.5297" lon="3.28945">
        <ele>692.88</ele>
        <time>2024-11-05T13:40:14.200Z</time>
      </trkpt>
      <trkpt lat="44.52969" lon="3.28949">
        <ele>693.42</ele>
        <time>2024-11-05T13:40:23.228Z</time>
      </trkpt>
      <trkpt lat="44.52962" lon="3.28992">
        <ele>693.89</ele>
        <time>2024-11-05T13:40:32.261Z</time>
      </trkpt>
      <trkpt lat="44.52962" lon="3.28994">
        <ele>694.42</ele>
        <time>2024-11-05T13:40:41.294Z</time>
      </trkpt>
      <trkpt lat="44.52958" lon="3.29008">
        <ele>694.96</ele>
        <time>2024-11-05T13:40:50.329Z</time>
      </trkpt>
      <trkpt lat="44.52955" lon="3.29014">
        <ele>695.49</ele>
        <time>2024-11-05T13:40:59.365Z</time>
      </trkpt>
      <trkpt lat="44.52953" lon="3.29017">
        <ele>696.02</ele>
        <time>2024-11-05T13:41:08.401Z</time>
      </trkpt>
      <trkpt lat="44.52948" lon="3.29023">
        <ele>696.57</ele>
        <time>2024-11-05T13:41:17.438Z</time>
      </trkpt>
      <trkpt lat="44.52943" lon="3.29028">
        <ele>697.11</ele>
        <time>2024-11-05T13:41:26.476Z</time>
      </trkpt>
      <trkpt lat="44.52936" lon="3.29032">
        <ele>697.68</ele>
        <time>2024-11-05T13:41:35.515Z</time>
      </trkpt>
      <trkpt lat="44.52932" lon="3.29033">
        <ele>698.25</ele>
        <time>2024-11-05T13:41:44.555Z</time>
      </trkpt>
      <trkpt lat="44.52914" lon="3.29039">
        <ele>698.85</ele>
        <time>2024-11-05T13:41:53.598Z</time>
      </trkpt>
      <trkpt lat="44.52888" lon="3.29048">
        <ele>699.47</ele>
        <time>2024-11-05T13:42:02.645Z</time>
      </trkpt>
      <trkpt lat="44.52884" lon="3.29049">
        <ele>700.01</ele>
        <time>2024-11-05T13:42:11.693Z</time>
      </trkpt>
      <trkpt lat="44.5288" lon="3.29051">
        <ele>700.54</ele>
        <time>2024-11-05T13:42:20.742Z</time>
      </trkpt>
      <trkpt lat="44.52863" lon="3.2906">
        <ele>701.04</ele>
        <time>2024-11-05T13:42:29.794Z</time>
      </trkpt>
      <trkpt lat="44.52854" lon="3.29065">
        <ele>701.57</ele>
        <time>2024-11-05T13:42:38.847Z</time>
      </trkpt>
      <trkpt lat="44.52813" lon="3.29088">
        <ele>702.09</ele>
        <time>2024-11-05T13:42:47.907Z</time>
      </trkpt>
      <trkpt lat="44.52806" lon="3.29091">
        <ele>702.63</ele>
        <time>2024-11-05T13:42:56.968Z</time>
      </trkpt>
      <trkpt lat="44.52804" lon="3.29092">
        <ele>703.19</ele>
        <time>2024-11-05T13:43:06.030Z</time>
      </trkpt>
      <trkpt lat="44.52786" lon="3.29097">
        <ele>703.78</ele>
        <time>2024-11-05T13:43:15.095Z</time>
      </trkpt>
      <trkpt lat="44.52756" lon="3.29107">
        <ele>704.43</ele>
        <time>2024-11-05T13:43:24.165Z</time>
      </trkpt>
      <trkpt lat="44.52751" lon="3.29109">
        <ele>704.98</ele>
        <time>2024-11-05T13:43:33.235Z</time>
      </trkpt>
      <trkpt lat="44.5273" lon="3.29119">
        <ele>705.63</ele>
        <time>2024-11-05T13:43:42.309Z</time>
      </trkpt>
      <trkpt lat="44.52711" lon="3.29129">
        <ele>706.23</ele>
        <time>2024-11-05T13:43:51.386Z</time>
      </trkpt>
      <trkpt lat="44.52705" lon="3.29133">
        <ele>706.75</ele>
        <time>2024-11-05T13:44:00.464Z</time>
      </trkpt>
      <trkpt lat="44.52693" lon="3.29141">
        <ele>707.28</ele>
        <time>2024-11-05T13:44:09.544Z</time>
      </trkpt>
      <trkpt lat="44.52679" lon="3.29151">
        <ele>707.75</ele>
        <time>2024-11-05T13:44:18.627Z</time>
      </trkpt>
      <trkpt lat="44.52672" lon="3.29154">
        <ele>708.23</ele>
        <time>2024-11-05T13:44:27.711Z</time>
      </trkpt>
      <trkpt lat="44.52669" lon="3.29155">
        <ele>708.69</ele>
        <time>2024-11-05T13:44:36.796Z</time>
      </trkpt>
      <trkpt lat="44.52655" lon="3.29156">
        <ele>709.24</ele>
        <time>2024-11-05T13:44:45.883Z</time>
      </trkpt>
      <trkpt lat="44.52647" lon="3.29156">
        <ele>709.73</ele>
        <time>2024-11-05T13:44:54.971Z</time>
      </trkpt>
      <trkpt lat="44.52642" lon="3.29156">
        <ele>710.18</ele>
        <time>2024-11-05T13:45:04.060Z</time>
      </trkpt>
      <trkpt lat="44.52635" lon="3.29159">
        <ele>710.62</ele>
        <time>2024-11-05T13:45:13.150Z</time>
      </trkpt>
      <trkpt lat="44.52634" lon="3.2916">
        <ele>710.99</ele>
        <time>2024-11-05T13:45:22.240Z</time>
      </trkpt>
      <trkpt lat="44.52627" lon="3.29168">
        <ele>711.37</ele>
        <time>2024-11-05T13:45:31.332Z</time>
      </trkpt>
      <trkpt lat="44.52623" lon="3.29178">
        <ele>711.68</ele>
        <time>2024-11-05T13:45:40.425Z</time>
      </trkpt>
      <trkpt lat="44.52616" lon="3.29194">
        <ele>711.95</ele>
        <time>2024-11-05T13:45:49.520Z</time>
      </trkpt>
      <trkpt lat="44.52607" lon="3.2921">
        <ele>712.23</ele>
        <time>2024-11-05T13:45:58.617Z</time>
      </trkpt>
      <trkpt lat="44.52597" lon="3.29221">
        <ele>712.49</ele>
        <time>2024-11-05T13:46:07.716Z</time>
      </trkpt>
      <trkpt lat="44.52589" lon="3.29228">
        <ele>712.71</ele>
        <time>2024-11-05T13:46:16.817Z</time>
      </trkpt>
      <trkpt lat="44.52582" lon="3.29235">
        <ele>712.92</ele>
        <time>2024-11-05T13:46:25.919Z</time>
      </trkpt>
      <trkpt lat="44.52573" lon="3.29244">
        <ele>713.09</ele>
        <time>2024-11-05T13:46:35.023Z</time>
      </trkpt>
      <trkpt lat="44.52556" lon="3.29259">
        <ele>713.24</ele>
        <time>2024-11-05T13:46:44.130Z</time>
      </trkpt>
      <trkpt lat="44.52541" lon="3.29273">
        <ele>713.36</ele>
        <time>2024-11-05T13:46:53.240Z</time>
      </trkpt>
      <trkpt lat="44.52533" lon="3.2928">
        <ele>713.51</ele>
        <time>2024-11-05T13:47:02.352Z</time>
      </trkpt>
      <trkpt lat="44.52522" lon="3.2929">
        <ele>713.63</ele>
        <time>2024-11-05T13:47:11.466Z</time>
      </trkpt>
      <trkpt lat="44.52517" lon="3.29294">
        <ele>713.77</ele>
        <time>2024-11-05T13:47:20.581Z</time>
      </trkpt>
      <trkpt lat="44.52504" lon="3.29301">
        <ele>713.91</ele>
        <time>2024-11-05T13:47:29.698Z</time>
      </trkpt>
      <trkpt lat="44.52501" lon="3.29302">
        <ele>714.07</ele>
        <time>2024-11-05T13:47:38.815Z</time>
      </trkpt>
      <trkpt lat="44.52491" lon="3.29304">
        <ele>714.24</ele>
        <time>2024-11-05T13:47:47.934Z</time>
      </trkpt>
      <trkpt lat="44.52484" lon="3.29302">
        <ele>714.45</ele>
        <time>2024-11-05T13:47:57.054Z</time>
      </trkpt>
      <trkpt lat="44.5247" lon="3.29298">
        <ele>714.71</ele>
        <time>2024-11-05T13:48:06.177Z</time>
      </trkpt>
      <trkpt lat="44.52461" lon="3.293">
        <ele>714.9</ele>
        <time>2024-11-05T13:48:15.301Z</time>
      </trkpt>
      <trkpt lat="44.52454" lon="3.29306">
        <ele>715.04</ele>
        <time>2024-11-05T13:48:24.426Z</time>
      </trkpt>
      <trkpt lat="44.52454" lon="3.29306">
        <ele>715.19</ele>
        <time>2024-11-05T13:48:33.551Z</time>
      </trkpt>
      <trkpt lat="44.52448" lon="3.29315">
        <ele>715.29</ele>
        <time>2024-11-05T13:48:42.678Z</time>
      </trkpt>
      <trkpt lat="44.52442" lon="3.29322">
        <ele>715.41</ele>
        <time>2024-11-05T13:48:51.806Z</time>
      </trkpt>
      <trkpt lat="44.52437" lon="3.29326">
        <ele>715.58</ele>
        <time>2024-11-05T13:49:00.935Z</time>
      </trkpt>
      <trkpt lat="44.52423" lon="3.29338">
        <ele>715.78</ele>
        <time>2024-11-05T13:49:10.066Z</time>
      </trkpt>
      <trkpt lat="44.52408" lon="3.29342">
        <ele>716.03</ele>
        <time>2024-11-05T13:49:19.200Z</time>
      </trkpt>
      <trkpt lat="44.52398" lon="3.29344">
        <ele>716.28</ele>
        <time>2024-11-05T13:49:28.336Z</time>
      </trkpt>
      <trkpt lat="44.52391" lon="3.2935">
        <ele>716.47</ele>
        <time>2024-11-05T13:49:37.473Z</time>
      </trkpt>
      <trkpt lat="44.52371" lon="3.29382">
        <ele>716.53</ele>
        <time>2024-11-05T13:49:46.615Z</time>
      </trkpt>
      <trkpt lat="44.52366" lon="3.2939">
        <ele>716.71</ele>
        <time>2024-11-05T13:49:55.758Z</time>
      </trkpt>
      <trkpt lat="44.52352" lon="3.29404">
        <ele>716.93</ele>
        <time>2024-11-05T13:50:04.904Z</time>
      </trkpt>
      <trkpt lat="44.52345" lon="3.29407">
        <ele>717.16</ele>
        <time>2024-11-05T13:50:14.051Z</time>
      </trkpt>
      <trkpt lat="44.52338" lon="3.2941">
        <ele>717.4</ele>
        <time>2024-11-05T13:50:23.199Z</time>
      </trkpt>
      <trkpt lat="44.52337" lon="3.2941">
        <ele>717.65</ele>
        <time>2024-11-05T13:50:32.347Z</time>
      </trkpt>
      <trkpt lat="44.52328" lon="3.29411">
        <ele>717.93</ele>
        <time>2024-11-05T13:50:41.497Z</time>
      </trkpt>
      <trkpt lat="44.52312" lon="3.29412">
        <ele>718.24</ele>
        <time>2024-11-05T13:50:50.649Z</time>
      </trkpt>
      <trkpt lat="44.52301" lon="3.29415">
        <ele>718.56</ele>
        <time>2024-11-05T13:50:59.803Z</time>
      </trkpt>
      <trkpt lat="44.52296" lon="3.29416">
        <ele>718.88</ele>
        <time>2024-11-05T13:51:08.958Z</time>
      </trkpt>
      <trkpt lat="44.52293" lon="3.29419">
        <ele>719.18</ele>
        <time>2024-11-05T13:51:18.113Z</time>
      </trkpt>
      <trkpt lat="44.52289" lon="3.29424">
        <ele>719.49</ele>
        <time>2024-11-05T13:51:27.269Z</time>
      </trkpt>
      <trkpt lat="44.52284" lon="3.29434">
        <ele>719.77</ele>
        <time>2024-11-05T13:51:36.427Z</time>
      </trkpt>
      <trkpt lat="44.52274" lon="3.29468">
        <ele>720.07</ele>
        <time>2024-11-05T13:51:45.589Z</time>
      </trkpt>
      <trkpt lat="44.52273" lon="3.29473">
        <ele>720.41</ele>
        <time>2024-11-05T13:51:54.751Z</time>
      </trkpt>
      <trkpt lat="44.52261" lon="3.29493">
        <ele>720.85</ele>
        <time>2024-11-05T13:52:03.916Z</time>
      </trkpt>
      <trkpt lat="44.52231" lon="3.2954">
        <ele>721.26</ele>
        <time>2024-11-05T13:52:13.089Z</time>
      </trkpt>
      <trkpt lat="44.52225" lon="3.2955">
        <ele>721.65</ele>
        <time>2024-11-05T13:52:22.263Z</time>
      </trkpt>
      <trkpt lat="44.52217" lon="3.29559">
        <ele>722.01</ele>
        <time>2024-11-05T13:52:31.439Z</time>
      </trkpt>
      <trkpt lat="44.52215" lon="3.29561">
        <ele>722.41</ele>
        <time>2024-11-05T13:52:40.615Z</time>
      </trkpt>
      <trkpt lat="44.52208" lon="3.29566">
        <ele>722.82</ele>
        <time>2024-11-05T13:52:49.792Z</time>
      </trkpt>
      <trkpt lat="44.52203" lon="3.29569">
        <ele>723.26</ele>
        <time>2024-11-05T13:52:58.970Z</time>
      </trkpt>
      <trkpt lat="44.52194" lon="3.29573">
        <ele>723.72</ele>
        <time>2024-11-05T13:53:08.150Z</time>
      </trkpt>
      <trkpt lat="44.5219" lon="3.29574">
        <ele>724.18</ele>
        <time>2024-11-05T13:53:17.331Z</time>
      </trkpt>
      <trkpt lat="44.52176" lon="3.29577">
        <ele>724.66</ele>
        <time>2024-11-05T13:53:26.514Z</time>
      </trkpt>
      <trkpt lat="44.52163" lon="3.29581">
        <ele>725.16</ele>
        <time>2024-11-05T13:53:35.699Z</time>
      </trkpt>
      <trkpt lat="44.52154" lon="3.29583">
        <ele>725.66</ele>
        <time>2024-11-05T13:53:44.885Z</time>
      </trkpt>
      <trkpt lat="44.52145" lon="3.29583">
        <ele>726.18</ele>
        <time>2024-11-05T13:53:54.073Z</time>
      </trkpt>
      <trkpt lat="44.52137" lon="3.29582">
        <ele>726.71</ele>
        <time>2024-11-05T13:54:03.262Z</time>
      </trkpt>
      <trkpt lat="44.52132" lon="3.29582">
        <ele>727.21</ele>
        <time>2024-11-05T13:54:12.452Z</time>
      </trkpt>
      <trkpt lat="44.52121" lon="3.29586">
        <ele>727.72</ele>
        <time>2024-11-05T13:54:21.644Z</time>
      </trkpt>
      <trkpt lat="44.5212" lon="3.29588">
        <ele>728.21</ele>
        <time>2024-11-05T13:54:30.836Z</time>
      </trkpt>
      <trkpt lat="44.52116" lon="3.29592">
        <ele>728.71</ele>
        <time>2024-11-05T13:54:40.029Z</time>
      </trkpt>
      <trkpt lat="44.52113" lon="3.29604">
        <ele>729.2</ele>
        <time>2024-11-05T13:54:49.223Z</time>
      </trkpt>
      <trkpt lat="44.5211" lon="3.29613">
        <ele>729.7</ele>
        <time>2024-11-05T13:54:58.418Z</time>
      </trkpt>
      <trkpt lat="44.5211" lon="3.29615">
        <ele>730.18</ele>
        <time>2024-11-05T13:55:07.614Z</time>
      </trkpt>
      <trkpt lat="44.52112" lon="3.29625">
        <ele>730.64</ele>
        <time>2024-11-05T13:55:16.811Z</time>
      </trkpt>
      <trkpt lat="44.52121" lon="3.29649">
        <ele>731.05</ele>
        <time>2024-11-05T13:55:26.011Z</time>
      </trkpt>
      <trkpt lat="44.52122" lon="3.29651">
        <ele>731.53</ele>
        <time>2024-11-05T13:55:35.211Z</time>
      </trkpt>
      <trkpt lat="44.52125" lon="3.29673">
        <ele>732</ele>
        <time>2024-11-05T13:55:44.414Z</time>
      </trkpt>
      <trkpt lat="44.52121" lon="3.29685">
        <ele>732.52</ele>
        <time>2024-11-05T13:55:53.618Z</time>
      </trkpt>
      <trkpt lat="44.52119" lon="3.29691">
        <ele>733.02</ele>
        <time>2024-11-05T13:56:02.823Z</time>
      </trkpt>
      <trkpt lat="44.52115" lon="3.29694">
        <ele>733.54</ele>
        <time>2024-11-05T13:56:12.029Z</time>
      </trkpt>
      <trkpt lat="44.52078" lon="3.29729">
        <ele>734.17</ele>
        <time>2024-11-05T13:56:21.242Z</time>
      </trkpt>
      <trkpt lat="44.52071" lon="3.29735">
        <ele>734.69</ele>
        <time>2024-11-05T13:56:30.456Z</time>
      </trkpt>
      <trkpt lat="44.5207" lon="3.29735">
        <ele>735.2</ele>
        <time>2024-11-05T13:56:39.670Z</time>
      </trkpt>
      <trkpt lat="44.52061" lon="3.29737">
        <ele>735.73</ele>
        <time>2024-11-05T13:56:48.886Z</time>
      </trkpt>
      <trkpt lat="44.52054" lon="3.29739">
        <ele>736.26</ele>
        <time>2024-11-05T13:56:58.103Z</time>
      </trkpt>
      <trkpt lat="44.52053" lon="3.29739">
        <ele>736.77</ele>
        <time>2024-11-05T13:57:07.320Z</time>
      </trkpt>
      <trkpt lat="44.52043" lon="3.29736">
        <ele>737.3</ele>
        <time>2024-11-05T13:57:16.539Z</time>
      </trkpt>
      <trkpt lat="44.52041" lon="3.29732">
        <ele>737.81</ele>
        <time>2024-11-05T13:57:25.758Z</time>
      </trkpt>
      <trkpt lat="44.5204" lon="3.29731">
        <ele>738.32</ele>
        <time>2024-11-05T13:57:34.977Z</time>
      </trkpt>
      <trkpt lat="44.52038" lon="3.29716">
        <ele>738.83</ele>
        <time>2024-11-05T13:57:44.198Z</time>
      </trkpt>
      <trkpt lat="44.52041" lon="3.29704">
        <ele>739.34</ele>
        <time>2024-11-05T13:57:53.421Z</time>
      </trkpt>
      <trkpt lat="44.52046" lon="3.29687">
        <ele>739.88</ele>
        <time>2024-11-05T13:58:02.646Z</time>
      </trkpt>
      <trkpt lat="44.52049" lon="3.29675">
        <ele>740.41</ele>
        <time>2024-11-05T13:58:11.872Z</time>
      </trkpt>
      <trkpt lat="44.52056" lon="3.29649">
        <ele>740.96</ele>
        <time>2024-11-05T13:58:21.101Z</time>
      </trkpt>
      <trkpt lat="44.52057" lon="3.29641">
        <ele>741.48</ele>
        <time>2024-11-05T13:58:30.331Z</time>
      </trkpt>
      <trkpt lat="44.52058" lon="3.29629">
        <ele>742</ele>
        <time>2024-11-05T13:58:39.563Z</time>
      </trkpt>
      <trkpt lat="44.52059" lon="3.29616">
        <ele>742.52</ele>
        <time>2024-11-05T13:58:48.796Z</time>
      </trkpt>
      <trkpt lat="44.52055" lon="3.29606">
        <ele>743.05</ele>
        <time>2024-11-05T13:58:58.030Z</time>
      </trkpt>
      <trkpt lat="44.52054" lon="3.29602">
        <ele>743.55</ele>
        <time>2024-11-05T13:59:07.265Z</time>
      </trkpt>
      <trkpt lat="44.52048" lon="3.29599">
        <ele>744.06</ele>
        <time>2024-11-05T13:59:16.501Z</time>
      </trkpt>
      <trkpt lat="44.52044" lon="3.29598">
        <ele>744.55</ele>
        <time>2024-11-05T13:59:25.738Z</time>
      </trkpt>
      <trkpt lat="44.52042" lon="3.29598">
        <ele>745.04</ele>
        <time>2024-11-05T13:59:34.975Z</time>
      </trkpt>
      <trkpt lat="44.52036" lon="3.29601">
        <ele>745.52</ele>
        <time>2024-11-05T13:59:44.213Z</time>
      </trkpt>
      <trkpt lat="44.52036" lon="3.29601">
        <ele>746.01</ele>
        <time>2024-11-05T13:59:53.451Z</time>
      </trkpt>
      <trkpt lat="44.52028" lon="3.29608">
        <ele>746.48</ele>
        <time>2024-11-05T14:00:02.690Z</time>
      </trkpt>
      <trkpt lat="44.52016" lon="3.29618">
        <ele>746.98</ele>
        <time>2024-11-05T14:00:11.932Z</time>
      </trkpt>
      <trkpt lat="44.52008" lon="3.29622">
        <ele>747.46</ele>
        <time>2024-11-05T14:00:21.175Z</time>
      </trkpt>
      <trkpt lat="44.52005" lon="3.29623">
        <ele>747.94</ele>
        <time>2024-11-05T14:00:30.419Z</time>
      </trkpt>
      <trkpt lat="44.51995" lon="3.29626">
        <ele>748.42</ele>
        <time>2024-11-05T14:00:39.664Z</time>
      </trkpt>
      <trkpt lat="44.51993" lon="3.29627">
        <ele>748.9</ele>
        <time>2024-11-05T14:00:48.910Z</time>
      </trkpt>
      <trkpt lat="44.51976" lon="3.29626">
        <ele>749.42</ele>
        <time>2024-11-05T14:00:58.158Z</time>
      </trkpt>
      <trkpt lat="44.51967" lon="3.29622">
        <ele>749.91</ele>
        <time>2024-11-05T14:01:07.408Z</time>
      </trkpt>
      <trkpt lat="44.51949" lon="3.29607">
        <ele>750.44</ele>
        <time>2024-11-05T14:01:16.661Z</time>
      </trkpt>
      <trkpt lat="44.51938" lon="3.29597">
        <ele>750.95</ele>
        <time>2024-11-05T14:01:25.916Z</time>
      </trkpt>
      <trkpt lat="44.51926" lon="3.29589">
        <ele>751.45</ele>
        <time>2024-11-05T14:01:35.173Z</time>
      </trkpt>
      <trkpt lat="44.51918" lon="3.29584">
        <ele>751.94</ele>
        <time>2024-11-05T14:01:44.432Z</time>
      </trkpt>
      <trkpt lat="44.51917" lon="3.29584">
        <ele>752.41</ele>
        <time>2024-11-05T14:01:53.691Z</time>
      </trkpt>
      <trkpt lat="44.51909" lon="3.29582">
        <ele>752.9</ele>
        <time>2024-11-05T14:02:02.951Z</time>
      </trkpt>
      <trkpt lat="44.51906" lon="3.29581">
        <ele>753.37</ele>
        <time>2024-11-05T14:02:12.212Z</time>
      </trkpt>
      <trkpt lat="44.51891" lon="3.2958">
        <ele>753.88</ele>
        <time>2024-11-05T14:02:21.475Z</time>
      </trkpt>
      <trkpt lat="44.51888" lon="3.2958">
        <ele>754.35</ele>
        <time>2024-11-05T14:02:30.739Z</time>
      </trkpt>
      <trkpt lat="44.51882" lon="3.29582">
        <ele>754.83</ele>
        <time>2024-11-05T14:02:40.004Z</time>
      </trkpt>
      <trkpt lat="44.51861" lon="3.29614">
        <ele>755.3</ele>
        <time>2024-11-05T14:02:49.274Z</time>
      </trkpt>
      <trkpt lat="44.51852" lon="3.29628">
        <ele>755.8</ele>
        <time>2024-11-05T14:02:58.546Z</time>
      </trkpt>
      <trkpt lat="44.51848" lon="3.29633">
        <ele>756.27</ele>
        <time>2024-11-05T14:03:07.819Z</time>
      </trkpt>
      <trkpt lat="44.51837" lon="3.29643">
        <ele>756.76</ele>
        <time>2024-11-05T14:03:17.094Z</time>
      </trkpt>
      <trkpt lat="44.5183" lon="3.2965">
        <ele>757.27</ele>
        <time>2024-11-05T14:03:26.370Z</time>
      </trkpt>
      <trkpt lat="44.51827" lon="3.29653">
        <ele>757.75</ele>
        <time>2024-11-05T14:03:35.647Z</time>
      </trkpt>
      <trkpt lat="44.51824" lon="3.29658">
        <ele>758.24</ele>
        <time>2024-11-05T14:03:44.924Z</time>
      </trkpt>
      <trkpt lat="44.5182" lon="3.29673">
        <ele>758.7</ele>
        <time>2024-11-05T14:03:54.203Z</time>
      </trkpt>
      <trkpt lat="44.51819" lon="3.29683">
        <ele>759.18</ele>
        <time>2024-11-05T14:04:03.483Z</time>
      </trkpt>
      <trkpt lat="44.51816" lon="3.29704">
        <ele>759.65</ele>
        <time>2024-11-05T14:04:12.766Z</time>
      </trkpt>
      <trkpt lat="44.51813" lon="3.29713">
        <ele>760.15</ele>
        <time>2024-11-05T14:04:22.050Z</time>
      </trkpt>
      <trkpt lat="44.51803" lon="3.29736">
        <ele>760.65</ele>
        <time>2024-11-05T14:04:31.337Z</time>
      </trkpt>
      <trkpt lat="44.51798" lon="3.29744">
        <ele>761.14</ele>
        <time>2024-11-05T14:04:40.625Z</time>
      </trkpt>
      <trkpt lat="44.51793" lon="3.29752">
        <ele>761.65</ele>
        <time>2024-11-05T14:04:49.914Z</time>
      </trkpt>
      <trkpt lat="44.51782" lon="3.29765">
        <ele>762.16</ele>
        <time>2024-11-05T14:04:59.206Z</time>
      </trkpt>
      <trkpt lat="44.51768" lon="3.29778">
        <ele>762.68</ele>
        <time>2024-11-05T14:05:08.500Z</time>
      </trkpt>
      <trkpt lat="44.51767" lon="3.29779">
        <ele>763.21</ele>
        <time>2024-11-05T14:05:17.795Z</time>
      </trkpt>
      <trkpt lat="44.51753" lon="3.29784">
        <ele>763.76</ele>
        <time>2024-11-05T14:05:27.092Z</time>
      </trkpt>
      <trkpt lat="44.5174" lon="3.29785">
        <ele>764.32</ele>
        <time>2024-11-05T14:05:36.391Z</time>
      </trkpt>
      <trkpt lat="44.51736" lon="3.29783">
        <ele>764.88</ele>
        <time>2024-11-05T14:05:45.691Z</time>
      </trkpt>
      <trkpt lat="44.51724" lon="3.29777">
        <ele>765.47</ele>
        <time>2024-11-05T14:05:54.993Z</time>
      </trkpt>
      <trkpt lat="44.51716" lon="3.2977">
        <ele>766.07</ele>
        <time>2024-11-05T14:06:04.296Z</time>
      </trkpt>
      <trkpt lat="44.51697" lon="3.29756">
        <ele>766.74</ele>
        <time>2024-11-05T14:06:13.603Z</time>
      </trkpt>
      <trkpt lat="44.51696" lon="3.29756">
        <ele>767.33</ele>
        <time>2024-11-05T14:06:22.910Z</time>
      </trkpt>
      <trkpt lat="44.51679" lon="3.29749">
        <ele>767.99</ele>
        <time>2024-11-05T14:06:32.220Z</time>
      </trkpt>
      <trkpt lat="44.51659" lon="3.29746">
        <ele>768.63</ele>
        <time>2024-11-05T14:06:41.533Z</time>
      </trkpt>
      <trkpt lat="44.51648" lon="3.29748">
        <ele>769.25</ele>
        <time>2024-11-05T14:06:50.848Z</time>
      </trkpt>
      <trkpt lat="44.51645" lon="3.29749">
        <ele>769.87</ele>
        <time>2024-11-05T14:07:00.163Z</time>
      </trkpt>
      <trkpt lat="44.51639" lon="3.29752">
        <ele>770.5</ele>
        <time>2024-11-05T14:07:09.479Z</time>
      </trkpt>
      <trkpt lat="44.51616" lon="3.29766">
        <ele>771.16</ele>
        <time>2024-11-05T14:07:18.799Z</time>
      </trkpt>
      <trkpt lat="44.51604" lon="3.29778">
        <ele>771.8</ele>
        <time>2024-11-05T14:07:28.122Z</time>
      </trkpt>
      <trkpt lat="44.51587" lon="3.29795">
        <ele>772.45</ele>
        <time>2024-11-05T14:07:37.448Z</time>
      </trkpt>
      <trkpt lat="44.51577" lon="3.29801">
        <ele>773.12</ele>
        <time>2024-11-05T14:07:46.776Z</time>
      </trkpt>
      <trkpt lat="44.51569" lon="3.29804">
        <ele>773.79</ele>
        <time>2024-11-05T14:07:56.105Z</time>
      </trkpt>
      <trkpt lat="44.51564" lon="3.29805">
        <ele>774.46</ele>
        <time>2024-11-05T14:08:05.435Z</time>
      </trkpt>
      <trkpt lat="44.51551" lon="3.29806">
        <ele>775.15</ele>
        <time>2024-11-05T14:08:14.767Z</time>
      </trkpt>
      <trkpt lat="44.51519" lon="3.29804">
        <ele>775.89</ele>
        <time>2024-11-05T14:08:24.104Z</time>
      </trkpt>
      <trkpt lat="44.51515" lon="3.29803">
        <ele>776.6</ele>
        <time>2024-11-05T14:08:33.442Z</time>
      </trkpt>
      <trkpt lat="44.51497" lon="3.298">
        <ele>777.35</ele>
        <time>2024-11-05T14:08:42.783Z</time>
      </trkpt>
      <trkpt lat="44.51495" lon="3.298">
        <ele>778.06</ele>
        <time>2024-11-05T14:08:52.124Z</time>
      </trkpt>
      <trkpt lat="44.51488" lon="3.29798">
        <ele>778.78</ele>
        <time>2024-11-05T14:09:01.466Z</time>
      </trkpt>
      <trkpt lat="44.51462" lon="3.29789">
        <ele>779.55</ele>
        <time>2024-11-05T14:09:10.812Z</time>
      </trkpt>
      <trkpt lat="44.51454" lon="3.29786">
        <ele>780.28</ele>
        <time>2024-11-05T14:09:20.160Z</time>
      </trkpt>
      <trkpt lat="44.51449" lon="3.29783">
        <ele>781.01</ele>
        <time>2024-11-05T14:09:29.508Z</time>
      </trkpt>
      <trkpt lat="44.51441" lon="3.29779">
        <ele>781.75</ele>
        <time>2024-11-05T14:09:38.858Z</time>
      </trkpt>
      <trkpt lat="44.51419" lon="3.29766">
        <ele>782.5</ele>
        <time>2024-11-05T14:09:48.212Z</time>
      </trkpt>
      <trkpt lat="44.51417" lon="3.29764">
        <ele>783.23</ele>
        <time>2024-11-05T14:09:57.566Z</time>
      </trkpt>
      <trkpt lat="44.51396" lon="3.29744">
        <ele>783.99</ele>
        <time>2024-11-05T14:10:06.924Z</time>
      </trkpt>
      <trkpt lat="44.51391" lon="3.29738">
        <ele>784.72</ele>
        <time>2024-11-05T14:10:16.283Z</time>
      </trkpt>
      <trkpt lat="44.51382" lon="3.29724">
        <ele>785.47</ele>
        <time>2024-11-05T14:10:25.644Z</time>
      </trkpt>
      <trkpt lat="44.5136" lon="3.29693">
        <ele>786.24</ele>
        <time>2024-11-05T14:10:35.010Z</time>
      </trkpt>
      <trkpt lat="44.51338" lon="3.29662">
        <ele>787.04</ele>
        <time>2024-11-05T14:10:44.381Z</time>
      </trkpt>
      <trkpt lat="44.51329" lon="3.29649">
        <ele>787.76</ele>
        <time>2024-11-05T14:10:53.754Z</time>
      </trkpt>
      <trkpt lat="44.51328" lon="3.29648">
        <ele>788.45</ele>
        <time>2024-11-05T14:11:03.128Z</time>
      </trkpt>
      <trkpt lat="44.51317" lon="3.29638">
        <ele>789.13</ele>
        <time>2024-11-05T14:11:12.504Z</time>
      </trkpt>
      <trkpt lat="44.51308" lon="3.29629">
        <ele>789.82</ele>
        <time>2024-11-05T14:11:21.881Z</time>
      </trkpt>
      <trkpt lat="44.51294" lon="3.29623">
        <ele>790.51</ele>
        <time>2024-11-05T14:11:31.261Z</time>
      </trkpt>
      <trkpt lat="44.51284" lon="3.29618">
        <ele>791.19</ele>
        <time>2024-11-05T14:11:40.642Z</time>
      </trkpt>
      <trkpt lat="44.5126" lon="3.29626">
        <ele>791.81</ele>
        <time>2024-11-05T14:11:50.028Z</time>
      </trkpt>
      <trkpt lat="44.51249" lon="3.2963">
        <ele>792.44</ele>
        <time>2024-11-05T14:11:59.415Z</time>
      </trkpt>
      <trkpt lat="44.51247" lon="3.29631">
        <ele>793.06</ele>
        <time>2024-11-05T14:12:08.803Z</time>
      </trkpt>
      <trkpt lat="44.51234" lon="3.29638">
        <ele>793.65</ele>
        <time>2024-11-05T14:12:18.193Z</time>
      </trkpt>
      <trkpt lat="44.51218" lon="3.29647">
        <ele>794.23</ele>
        <time>2024-11-05T14:12:27.586Z</time>
      </trkpt>
      <trkpt lat="44.51209" lon="3.29651">
        <ele>794.8</ele>
        <time>2024-11-05T14:12:36.980Z</time>
      </trkpt>
      <trkpt lat="44.51202" lon="3.29655">
        <ele>795.35</ele>
        <time>2024-11-05T14:12:46.375Z</time>
      </trkpt>
      <trkpt lat="44.51192" lon="3.29651">
        <ele>795.92</ele>
        <time>2024-11-05T14:12:55.772Z</time>
      </trkpt>
      <trkpt lat="44.51184" lon="3.29648">
        <ele>796.47</ele>
        <time>2024-11-05T14:13:05.170Z</time>
      </trkpt>
      <trkpt lat="44.51128" lon="3.29626">
        <ele>797.14</ele>
        <time>2024-11-05T14:13:14.578Z</time>
      </trkpt>
      <trkpt lat="44.51106" lon="3.29623">
        <ele>797.68</ele>
        <time>2024-11-05T14:13:23.989Z</time>
      </trkpt>
      <trkpt lat="44.51097" lon="3.29622">
        <ele>798.18</ele>
        <time>2024-11-05T14:13:33.402Z</time>
      </trkpt>
      <trkpt lat="44.51086" lon="3.29621">
        <ele>798.7</ele>
        <time>2024-11-05T14:13:42.816Z</time>
      </trkpt>
      <trkpt lat="44.51066" lon="3.29622">
        <ele>799.16</ele>
        <time>2024-11-05T14:13:52.234Z</time>
      </trkpt>
      <trkpt lat="44.51055" lon="3.29622">
        <ele>799.61</ele>
        <time>2024-11-05T14:14:01.653Z</time>
      </trkpt>
      <trkpt lat="44.51044" lon="3.29626">
        <ele>800</ele>
        <time>2024-11-05T14:14:11.074Z</time>
      </trkpt>
      <trkpt lat="44.51033" lon="3.2963">
        <ele>800.39</ele>
        <time>2024-11-05T14:14:20.497Z</time>
      </trkpt>
      <trkpt lat="44.51001" lon="3.29635">
        <ele>800.77</ele>
        <time>2024-11-05T14:14:29.925Z</time>
      </trkpt>
      <trkpt lat="44.50994" lon="3.29636">
        <ele>801.17</ele>
        <time>2024-11-05T14:14:39.354Z</time>
      </trkpt>
      <trkpt lat="44.50989" lon="3.29636">
        <ele>801.54</ele>
        <time>2024-11-05T14:14:48.784Z</time>
      </trkpt>
      <trkpt lat="44.50963" lon="3.29637">
        <ele>801.92</ele>
        <time>2024-11-05T14:14:58.218Z</time>
      </trkpt>
      <trkpt lat="44.50952" lon="3.29637">
        <ele>802.26</ele>
        <time>2024-11-05T14:15:07.654Z</time>
      </trkpt>
      <trkpt lat="44.50945" lon="3.29638">
        <ele>802.59</ele>
        <time>2024-11-05T14:15:17.091Z</time>
      </trkpt>
      <trkpt lat="44.50918" lon="3.29644">
        <ele>802.93</ele>
        <time>2024-11-05T14:15:26.532Z</time>
      </trkpt>
      <trkpt lat="44.50914" lon="3.29644">
        <ele>803.23</ele>
        <time>2024-11-05T14:15:35.974Z</time>
      </trkpt>
      <trkpt lat="44.50905" lon="3.29646">
        <ele>803.51</ele>
        <time>2024-11-05T14:15:45.418Z</time>
      </trkpt>
      <trkpt lat="44.50896" lon="3.29648">
        <ele>803.79</ele>
        <time>2024-11-05T14:15:54.863Z</time>
      </trkpt>
      <trkpt lat="44.50892" lon="3.29649">
        <ele>804.06</ele>
        <time>2024-11-05T14:16:04.309Z</time>
      </trkpt>
      <trkpt lat="44.50874" lon="3.29652">
        <ele>804.33</ele>
        <time>2024-11-05T14:16:13.758Z</time>
      </trkpt>
      <trkpt lat="44.50865" lon="3.29653">
        <ele>804.58</ele>
        <time>2024-11-05T14:16:23.208Z</time>
      </trkpt>
      <trkpt lat="44.50852" lon="3.29654">
        <ele>804.83</ele>
        <time>2024-11-05T14:16:32.660Z</time>
      </trkpt>
      <trkpt lat="44.50843" lon="3.29655">
        <ele>805.05</ele>
        <time>2024-11-05T14:16:42.114Z</time>
      </trkpt>
      <trkpt lat="44.50827" lon="3.29657">
        <ele>805.26</ele>
        <time>2024-11-05T14:16:51.570Z</time>
      </trkpt>
      <trkpt lat="44.50809" lon="3.29669">
        <ele>805.51</ele>
        <time>2024-11-05T14:17:01.029Z</time>
      </trkpt>
      <trkpt lat="44.50802" lon="3.29673">
        <ele>805.71</ele>
        <time>2024-11-05T14:17:10.489Z</time>
      </trkpt>
      <trkpt lat="44.508" lon="3.29673">
        <ele>805.88</ele>
        <time>2024-11-05T14:17:19.950Z</time>
      </trkpt>
      <trkpt lat="44.50796" lon="3.29674">
        <ele>806.05</ele>
        <time>2024-11-05T14:17:29.411Z</time>
      </trkpt>
      <trkpt lat="44.50793" lon="3.29674">
        <ele>806.2</ele>
        <time>2024-11-05T14:17:38.873Z</time>
      </trkpt>
      <trkpt lat="44.50787" lon="3.29673">
        <ele>806.34</ele>
        <time>2024-11-05T14:17:48.336Z</time>
      </trkpt>
      <trkpt lat="44.50784" lon="3.29673">
        <ele>806.47</ele>
        <time>2024-11-05T14:17:57.799Z</time>
      </trkpt>
      <trkpt lat="44.50779" lon="3.29668">
        <ele>806.57</ele>
        <time>2024-11-05T14:18:07.263Z</time>
      </trkpt>
      <trkpt lat="44.50772" lon="3.29661">
        <ele>806.66</ele>
        <time>2024-11-05T14:18:16.729Z</time>
      </trkpt>
      <trkpt lat="44.50764" lon="3.29654">
        <ele>806.73</ele>
        <time>2024-11-05T14:18:26.196Z</time>
      </trkpt>
      <trkpt lat="44.50757" lon="3.29647">
        <ele>806.79</ele>
        <time>2024-11-05T14:18:35.665Z</time>
      </trkpt>
      <trkpt lat="44.50753" lon="3.29644">
        <ele>806.85</ele>
        <time>2024-11-05T14:18:45.134Z</time>
      </trkpt>
      <trkpt lat="44.50745" lon="3.2964">
        <ele>806.9</ele>
        <time>2024-11-05T14:18:54.605Z</time>
      </trkpt>
      <trkpt lat="44.5074" lon="3.29639">
        <ele>806.95</ele>
        <time>2024-11-05T14:19:04.077Z</time>
      </trkpt>
      <trkpt lat="44.5073" lon="3.29636">
        <ele>806.99</ele>
        <time>2024-11-05T14:19:13.550Z</time>
      </trkpt>
      <trkpt lat="44.50727" lon="3.29636">
        <ele>807.04</ele>
        <time>2024-11-05T14:19:23.024Z</time>
      </trkpt>
      <trkpt lat="44.50718" lon="3.29638">
        <ele>807.09</ele>
        <time>2024-11-05T14:19:32.499Z</time>
      </trkpt>
      <trkpt lat="44.50709" lon="3.29639">
        <ele>807.13</ele>
        <time>2024-11-05T14:19:41.976Z</time>
      </trkpt>
      <trkpt lat="44.50707" lon="3.29639">
        <ele>807.15</ele>
        <time>2024-11-05T14:19:51.453Z</time>
      </trkpt>
      <trkpt lat="44.507" lon="3.29641">
        <ele>807.18</ele>
        <time>2024-11-05T14:20:00.931Z</time>
      </trkpt>
      <trkpt lat="44.50691" lon="3.29644">
        <ele>807.2</ele>
        <time>2024-11-05T14:20:10.410Z</time>
      </trkpt>
      <trkpt lat="44.50683" lon="3.29647">
        <ele>807.21</ele>
        <time>2024-11-05T14:20:19.891Z</time>
      </trkpt>
      <trkpt lat="44.50665" lon="3.29654">
        <ele>807.25</ele>
        <time>2024-11-05T14:20:29.375Z</time>
      </trkpt>
      <trkpt lat="44.50656" lon="3.29657">
        <ele>807.24</ele>
        <time>2024-11-05T14:20:38.860Z</time>
      </trkpt>
      <trkpt lat="44.50648" lon="3.2966">
        <ele>807.21</ele>
        <time>2024-11-05T14:20:48.347Z</time>
      </trkpt>
      <trkpt lat="44.50639" lon="3.29663">
        <ele>807.18</ele>
        <time>2024-11-05T14:20:57.835Z</time>
      </trkpt>
      <trkpt lat="44.5063" lon="3.29666">
        <ele>807.11</ele>
        <time>2024-11-05T14:21:07.325Z</time>
      </trkpt>
      <trkpt lat="44.50623" lon="3.29668">
        <ele>807.05</ele>
        <time>2024-11-05T14:21:16.816Z</time>
      </trkpt>
      <trkpt lat="44.50622" lon="3.29669">
        <ele>807</ele>
        <time>2024-11-05T14:21:26.307Z</time>
      </trkpt>
      <trkpt lat="44.50609" lon="3.29679">
        <ele>806.95</ele>
        <time>2024-11-05T14:21:35.800Z</time>
      </trkpt>
      <trkpt lat="44.50598" lon="3.29697">
        <ele>806.92</ele>
        <time>2024-11-05T14:21:45.296Z</time>
      </trkpt>
      <trkpt lat="44.50593" lon="3.29707">
        <ele>806.87</ele>
        <time>2024-11-05T14:21:54.793Z</time>
      </trkpt>
      <trkpt lat="44.50578" lon="3.29731">
        <ele>806.8</ele>
        <time>2024-11-05T14:22:04.294Z</time>
      </trkpt>
      <trkpt lat="44.5057" lon="3.29746">
        <ele>806.75</ele>
        <time>2024-11-05T14:22:13.797Z</time>
      </trkpt>
      <trkpt lat="44.50561" lon="3.29761">
        <ele>806.7</ele>
        <time>2024-11-05T14:22:23.302Z</time>
      </trkpt>
      <trkpt lat="44.50556" lon="3.2977">
        <ele>806.64</ele>
        <time>2024-11-05T14:22:32.809Z</time>
      </trkpt>
      <trkpt lat="44.50553" lon="3.29775">
        <ele>806.57</ele>
        <time>2024-11-05T14:22:42.316Z</time>
      </trkpt>
      <trkpt lat="44.50549" lon="3.29782">
        <ele>806.5</ele>
        <time>2024-11-05T14:22:51.824Z</time>
      </trkpt>
      <trkpt lat="44.50547" lon="3.29785">
        <ele>806.41</ele>
        <time>2024-11-05T14:23:01.333Z</time>
      </trkpt>
      <trkpt lat="44.5054" lon="3.29794">
        <ele>806.34</ele>
        <time>2024-11-05T14:23:10.843Z</time>
      </trkpt>
      <trkpt lat="44.50529" lon="3.29803">
        <ele>806.27</ele>
        <time>2024-11-05T14:23:20.356Z</time>
      </trkpt>
      <trkpt lat="44.50524" lon="3.29803">
        <ele>806.17</ele>
        <time>2024-11-05T14:23:29.869Z</time>
      </trkpt>
      <trkpt lat="44.50509" lon="3.29803">
        <ele>806.05</ele>
        <time>2024-11-05T14:23:39.385Z</time>
      </trkpt>
      <trkpt lat="44.5047" lon="3.29779">
        <ele>805.87</ele>
        <time>2024-11-05T14:23:48.908Z</time>
      </trkpt>
      <trkpt lat="44.50461" lon="3.29773">
        <ele>805.76</ele>
        <time>2024-11-05T14:23:58.432Z</time>
      </trkpt>
      <trkpt lat="44.50457" lon="3.29772">
        <ele>805.66</ele>
        <time>2024-11-05T14:24:07.957Z</time>
      </trkpt>
      <trkpt lat="44.50447" lon="3.29769">
        <ele>805.56</ele>
        <time>2024-11-05T14:24:17.483Z</time>
      </trkpt>
      <trkpt lat="44.5044" lon="3.29769">
        <ele>805.47</ele>
        <time>2024-11-05T14:24:27.011Z</time>
      </trkpt>
      <trkpt lat="44.50431" lon="3.29768">
        <ele>805.35</ele>
        <time>2024-11-05T14:24:36.540Z</time>
      </trkpt>
      <trkpt lat="44.50422" lon="3.29772">
        <ele>805.25</ele>
        <time>2024-11-05T14:24:46.070Z</time>
      </trkpt>
      <trkpt lat="44.50405" lon="3.2978">
        <ele>805.19</ele>
        <time>2024-11-05T14:24:55.603Z</time>
      </trkpt>
      <trkpt lat="44.50392" lon="3.29785">
        <ele>805.14</ele>
        <time>2024-11-05T14:25:05.139Z</time>
      </trkpt>
      <trkpt lat="44.50384" lon="3.29789">
        <ele>805.09</ele>
        <time>2024-11-05T14:25:14.676Z</time>
      </trkpt>
      <trkpt lat="44.50379" lon="3.29789">
        <ele>805.03</ele>
        <time>2024-11-05T14:25:24.214Z</time>
      </trkpt>
      <trkpt lat="44.50352" lon="3.2979">
        <ele>804.93</ele>
        <time>2024-11-05T14:25:33.756Z</time>
      </trkpt>
      <trkpt lat="44.50348" lon="3.2979">
        <ele>804.88</ele>
        <time>2024-11-05T14:25:43.299Z</time>
      </trkpt>
      <trkpt lat="44.50343" lon="3.29791">
        <ele>804.83</ele>
        <time>2024-11-05T14:25:52.842Z</time>
      </trkpt>
      <trkpt lat="44.50334" lon="3.29792">
        <ele>804.78</ele>
        <time>2024-11-05T14:26:02.387Z</time>
      </trkpt>
      <trkpt lat="44.50316" lon="3.29795">
        <ele>804.73</ele>
        <time>2024-11-05T14:26:11.935Z</time>
      </trkpt>
      <trkpt lat="44.50314" lon="3.29795">
        <ele>804.71</ele>
        <time>2024-11-05T14:26:21.483Z</time>
      </trkpt>
      <trkpt lat="44.50303" lon="3.29799">
        <ele>804.72</ele>
        <time>2024-11-05T14:26:31.033Z</time>
      </trkpt>
      <trkpt lat="44.50297" lon="3.29801">
        <ele>804.72</ele>
        <time>2024-11-05T14:26:40.584Z</time>
      </trkpt>
      <trkpt lat="44.50295" lon="3.29802">
        <ele>804.73</ele>
        <time>2024-11-05T14:26:50.135Z</time>
      </trkpt>
      <trkpt lat="44.50286" lon="3.29807">
        <ele>804.75</ele>
        <time>2024-11-05T14:26:59.688Z</time>
      </trkpt>
      <trkpt lat="44.50278" lon="3.29811">
        <ele>804.8</ele>
        <time>2024-11-05T14:27:09.242Z</time>
      </trkpt>
      <trkpt lat="44.50274" lon="3.29813">
        <ele>804.86</ele>
        <time>2024-11-05T14:27:18.797Z</time>
      </trkpt>
      <trkpt lat="44.50269" lon="3.29815">
        <ele>804.92</ele>
        <time>2024-11-05T14:27:28.353Z</time>
      </trkpt>
      <trkpt lat="44.50266" lon="3.29817">
        <ele>804.98</ele>
        <time>2024-11-05T14:27:37.909Z</time>
      </trkpt>
      <trkpt lat="44.50265" lon="3.29817">
        <ele>805.04</ele>
        <time>2024-11-05T14:27:47.465Z</time>
      </trkpt>
      <trkpt lat="44.50261" lon="3.29817">
        <ele>805.11</ele>
        <time>2024-11-05T14:27:57.022Z</time>
      </trkpt>
      <trkpt lat="44.50256" lon="3.29818">
        <ele>805.19</ele>
        <time>2024-11-05T14:28:06.580Z</time>
      </trkpt>
      <trkpt lat="44.50252" lon="3.29818">
        <ele>805.27</ele>
        <time>2024-11-05T14:28:16.138Z</time>
      </trkpt>
      <trkpt lat="44.50249" lon="3.29818">
        <ele>805.36</ele>
        <time>2024-11-05T14:28:25.697Z</time>
      </trkpt>
      <trkpt lat="44.50243" lon="3.29815">
        <ele>805.44</ele>
        <time>2024-11-05T14:28:35.257Z</time>
      </trkpt>
      <trkpt lat="44.50232" lon="3.2981">
        <ele>805.53</ele>
        <time>2024-11-05T14:28:44.819Z</time>
      </trkpt>
      <trkpt lat="44.50221" lon="3.29809">
        <ele>805.64</ele>
        <time>2024-11-05T14:28:54.383Z</time>
      </trkpt>
      <trkpt lat="44.50212" lon="3.29808">
        <ele>805.74</ele>
        <time>2024-11-05T14:29:03.948Z</time>
      </trkpt>
      <trkpt lat="44.50208" lon="3.29807">
        <ele>805.84</ele>
        <time>2024-11-05T14:29:13.514Z</time>
      </trkpt>
      <trkpt lat="44.50203" lon="3.29808">
        <ele>805.96</ele>
        <time>2024-11-05T14:29:23.080Z</time>
      </trkpt>
      <trkpt lat="44.50199" lon="3.29809">
        <ele>806.07</ele>
        <time>2024-11-05T14:29:32.647Z</time>
      </trkpt>
      <trkpt lat="44.50194" lon="3.2981">
        <ele>806.18</ele>
        <time>2024-11-05T14:29:42.215Z</time>
      </trkpt>
      <trkpt lat="44.5019" lon="3.29811">
        <ele>806.29</ele>
        <time>2024-11-05T14:29:51.784Z</time>
      </trkpt>
      <trkpt lat="44.50186" lon="3.29812">
        <ele>806.39</ele>
        <time>2024-11-05T14:30:01.353Z</time>
      </trkpt>
      <trkpt lat="44.50186" lon="3.29812">
        <ele>806.5</ele>
        <time>2024-11-05T14:30:10.922Z</time>
      </trkpt>
      <trkpt lat="44.50181" lon="3.29814">
        <ele>806.61</ele>
        <time>2024-11-05T14:30:20.492Z</time>
      </trkpt>
      <trkpt lat="44.50177" lon="3.29817">
        <ele>806.71</ele>
        <time>2024-11-05T14:30:30.063Z</time>
      </trkpt>
      <trkpt lat="44.50173" lon="3.29819">
        <ele>806.81</ele>
        <time>2024-11-05T14:30:39.634Z</time>
      </trkpt>
      <trkpt lat="44.50169" lon="3.29821">
        <ele>806.9</ele>
        <time>2024-11-05T14:30:49.206Z</time>
      </trkpt>
      <trkpt lat="44.50165" lon="3.29823">
        <ele>806.99</ele>
        <time>2024-11-05T14:30:58.779Z</time>
      </trkpt>
      <trkpt lat="44.50156" lon="3.29828">
        <ele>807.07</ele>
        <time>2024-11-05T14:31:08.353Z</time>
      </trkpt>
      <trkpt lat="44.50149" lon="3.29835">
        <ele>807.16</ele>
        <time>2024-11-05T14:31:17.929Z</time>
      </trkpt>
      <trkpt lat="44.50141" lon="3.29841">
        <ele>807.23</ele>
        <time>2024-11-05T14:31:27.506Z</time>
      </trkpt>
      <trkpt lat="44.50133" lon="3.29848">
        <ele>807.3</ele>
        <time>2024-11-05T14:31:37.085Z</time>
      </trkpt>
      <trkpt lat="44.50126" lon="3.29855">
        <ele>807.36</ele>
        <time>2024-11-05T14:31:46.665Z</time>
      </trkpt>
      <trkpt lat="44.50123" lon="3.29857">
        <ele>807.42</ele>
        <time>2024-11-05T14:31:56.246Z</time>
      </trkpt>
      <trkpt lat="44.50119" lon="3.29863">
        <ele>807.48</ele>
        <time>2024-11-05T14:32:05.827Z</time>
      </trkpt>
      <trkpt lat="44.50106" lon="3.29881">
        <ele>807.52</ele>
        <time>2024-11-05T14:32:15.411Z</time>
      </trkpt>
      <trkpt lat="44.50091" lon="3.29903">
        <ele>807.56</ele>
        <time>2024-11-05T14:32:24.999Z</time>
      </trkpt>
      <trkpt lat="44.50072" lon="3.29929">
        <ele>807.6</ele>
        <time>2024-11-05T14:32:34.591Z</time>
      </trkpt>
      <trkpt lat="44.50067" lon="3.29932">
        <ele>807.63</ele>
        <time>2024-11-05T14:32:44.184Z</time>
      </trkpt>
      <trkpt lat="44.50061" lon="3.29937">
        <ele>807.64</ele>
        <time>2024-11-05T14:32:53.778Z</time>
      </trkpt>
      <trkpt lat="44.50059" lon="3.29938">
        <ele>807.64</ele>
        <time>2024-11-05T14:33:03.372Z</time>
      </trkpt>
      <trkpt lat="44.50055" lon="3.2994">
        <ele>807.62</ele>
        <time>2024-11-05T14:33:12.967Z</time>
      </trkpt>
      <trkpt lat="44.50051" lon="3.29942">
        <ele>807.6</ele>
        <time>2024-11-05T14:33:22.563Z</time>
      </trkpt>
      <trkpt lat="44.50048" lon="3.29943">
        <ele>807.56</ele>
        <time>2024-11-05T14:33:32.159Z</time>
      </trkpt>
      <trkpt lat="44.50046" lon="3.29943">
        <ele>807.51</ele>
        <time>2024-11-05T14:33:41.756Z</time>
      </trkpt>
      <trkpt lat="44.50042" lon="3.29944">
        <ele>807.45</ele>
        <time>2024-11-05T14:33:51.353Z</time>
      </trkpt>
      <trkpt lat="44.50038" lon="3.29945">
        <ele>807.37</ele>
        <time>2024-11-05T14:34:00.951Z</time>
      </trkpt>
      <trkpt lat="44.50034" lon="3.29945">
        <ele>807.28</ele>
        <time>2024-11-05T14:34:10.550Z</time>
      </trkpt>
      <trkpt lat="44.50033" lon="3.29944">
        <ele>807.18</ele>
        <time>2024-11-05T14:34:20.149Z</time>
      </trkpt>
      <trkpt lat="44.50029" lon="3.29942">
        <ele>807.06</ele>
        <time>2024-11-05T14:34:29.748Z</time>
      </trkpt>
      <trkpt lat="44.50025" lon="3.29939">
        <ele>806.92</ele>
        <time>2024-11-05T14:34:39.348Z</time>
      </trkpt>
      <trkpt lat="44.50021" lon="3.29936">
        <ele>806.79</ele>
        <time>2024-11-05T14:34:48.949Z</time>
      </trkpt>
      <trkpt lat="44.50017" lon="3.29933">
        <ele>806.63</ele>
        <time>2024-11-05T14:34:58.551Z</time>
      </trkpt>
      <trkpt lat="44.50015" lon="3.29932">
        <ele>806.47</ele>
        <time>2024-11-05T14:35:08.153Z</time>
      </trkpt>
      <trkpt lat="44.50013" lon="3.2993">
        <ele>806.29</ele>
        <time>2024-11-05T14:35:17.755Z</time>
      </trkpt>
      <trkpt lat="44.5" lon="3.29912">
        <ele>806.08</ele>
        <time>2024-11-05T14:35:27.360Z</time>
      </trkpt>
      <trkpt lat="44.49997" lon="3.29908">
        <ele>805.88</ele>
        <time>2024-11-05T14:35:36.966Z</time>
      </trkpt>
      <trkpt lat="44.49994" lon="3.29904">
        <ele>805.66</ele>
        <time>2024-11-05T14:35:46.573Z</time>
      </trkpt>
      <trkpt lat="44.49991" lon="3.29899">
        <ele>805.43</ele>
        <time>2024-11-05T14:35:56.180Z</time>
      </trkpt>
      <trkpt lat="44.49987" lon="3.29895">
        <ele>805.19</ele>
        <time>2024-11-05T14:36:05.788Z</time>
      </trkpt>
      <trkpt lat="44.49984" lon="3.29891">
        <ele>804.94</ele>
        <time>2024-11-05T14:36:15.397Z</time>
      </trkpt>
      <trkpt lat="44.49981" lon="3.29887">
        <ele>804.68</ele>
        <time>2024-11-05T14:36:25.007Z</time>
      </trkpt>
      <trkpt lat="44.49978" lon="3.29882">
        <ele>804.41</ele>
        <time>2024-11-05T14:36:34.617Z</time>
      </trkpt>
      <trkpt lat="44.49974" lon="3.29878">
        <ele>804.12</ele>
        <time>2024-11-05T14:36:44.228Z</time>
      </trkpt>
      <trkpt lat="44.49971" lon="3.29873">
        <ele>803.82</ele>
        <time>2024-11-05T14:36:53.840Z</time>
      </trkpt>
      <trkpt lat="44.49968" lon="3.29869">
        <ele>803.51</ele>
        <time>2024-11-05T14:37:03.452Z</time>
      </trkpt>
      <trkpt lat="44.49961" lon="3.2986">
        <ele>803.18</ele>
        <time>2024-11-05T14:37:13.066Z</time>
      </trkpt>
      <trkpt lat="44.49952" lon="3.29847">
        <ele>802.85</ele>
        <time>2024-11-05T14:37:22.682Z</time>
      </trkpt>
      <trkpt lat="44.49948" lon="3.29843">
        <ele>802.53</ele>
        <time>2024-11-05T14:37:32.299Z</time>
      </trkpt>
      <trkpt lat="44.49946" lon="3.2984">
        <ele>802.2</ele>
        <time>2024-11-05T14:37:41.916Z</time>
      </trkpt>
      <trkpt lat="44.49945" lon="3.29839">
        <ele>801.87</ele>
        <time>2024-11-05T14:37:51.533Z</time>
      </trkpt>
      <trkpt lat="44.49941" lon="3.29838">
        <ele>801.53</ele>
        <time>2024-11-05T14:38:01.151Z</time>
      </trkpt>
      <trkpt lat="44.49936" lon="3.29836">
        <ele>801.18</ele>
        <time>2024-11-05T14:38:10.770Z</time>
      </trkpt>
      <trkpt lat="44.49932" lon="3.29834">
        <ele>800.83</ele>
        <time>2024-11-05T14:38:20.390Z</time>
      </trkpt>
      <trkpt lat="44.49928" lon="3.29832">
        <ele>800.47</ele>
        <time>2024-11-05T14:38:30.010Z</time>
      </trkpt>
      <trkpt lat="44.49923" lon="3.2983">
        <ele>800.11</ele>
        <time>2024-11-05T14:38:39.631Z</time>
      </trkpt>
      <trkpt lat="44.49915" lon="3.29826">
        <ele>799.74</ele>
        <time>2024-11-05T14:38:49.253Z</time>
      </trkpt>
      <trkpt lat="44.4991" lon="3.29824">
        <ele>799.37</ele>
        <time>2024-11-05T14:38:58.876Z</time>
      </trkpt>
      <trkpt lat="44.49906" lon="3.29822">
        <ele>799</ele>
        <time>2024-11-05T14:39:08.500Z</time>
      </trkpt>
      <trkpt lat="44.49898" lon="3.29817">
        <ele>798.62</ele>
        <time>2024-11-05T14:39:18.125Z</time>
      </trkpt>
      <trkpt lat="44.49882" lon="3.29807">
        <ele>798.23</ele>
        <time>2024-11-05T14:39:27.753Z</time>
      </trkpt>
      <trkpt lat="44.49879" lon="3.29806">
        <ele>797.87</ele>
        <time>2024-11-05T14:39:37.382Z</time>
      </trkpt>
      <trkpt lat="44.49874" lon="3.29801">
        <ele>797.51</ele>
        <time>2024-11-05T14:39:47.012Z</time>
      </trkpt>
      <trkpt lat="44.49867" lon="3.29793">
        <ele>797.15</ele>
        <time>2024-11-05T14:39:56.643Z</time>
      </trkpt>
      <trkpt lat="44.49852" lon="3.29778">
        <ele>796.79</ele>
        <time>2024-11-05T14:40:06.277Z</time>
      </trkpt>
      <trkpt lat="44.49845" lon="3.29771">
        <ele>796.44</ele>
        <time>2024-11-05T14:40:15.912Z</time>
      </trkpt>
      <trkpt lat="44.49838" lon="3.29763">
        <ele>796.11</ele>
        <time>2024-11-05T14:40:25.549Z</time>
      </trkpt>
      <trkpt lat="44.49836" lon="3.29761">
        <ele>795.79</ele>
        <time>2024-11-05T14:40:35.186Z</time>
      </trkpt>
      <trkpt lat="44.49821" lon="3.29743">
        <ele>795.45</ele>
        <time>2024-11-05T14:40:44.826Z</time>
      </trkpt>
      <trkpt lat="44.49805" lon="3.29723">
        <ele>795.13</ele>
        <time>2024-11-05T14:40:54.470Z</time>
      </trkpt>
      <trkpt lat="44.49795" lon="3.29708">
        <ele>794.81</ele>
        <time>2024-11-05T14:41:04.116Z</time>
      </trkpt>
      <trkpt lat="44.49789" lon="3.297">
        <ele>794.51</ele>
        <time>2024-11-05T14:41:13.764Z</time>
      </trkpt>
      <trkpt lat="44.49786" lon="3.29694">
        <ele>794.22</ele>
        <time>2024-11-05T14:41:23.412Z</time>
      </trkpt>
      <trkpt lat="44.4977" lon="3.29662">
        <ele>793.89</ele>
        <time>2024-11-05T14:41:33.065Z</time>
      </trkpt>
      <trkpt lat="44.49761" lon="3.29649">
        <ele>793.63</ele>
        <time>2024-11-05T14:41:42.720Z</time>
      </trkpt>
      <trkpt lat="44.49755" lon="3.2964">
        <ele>793.39</ele>
        <time>2024-11-05T14:41:52.376Z</time>
      </trkpt>
      <trkpt lat="44.49752" lon="3.29636">
        <ele>793.16</ele>
        <time>2024-11-05T14:42:02.033Z</time>
      </trkpt>
      <trkpt lat="44.49749" lon="3.29631">
        <ele>792.95</ele>
        <time>2024-11-05T14:42:11.691Z</time>
      </trkpt>
      <trkpt lat="44.49743" lon="3.29623">
        <ele>792.74</ele>
        <time>2024-11-05T14:42:21.350Z</time>
      </trkpt>
      <trkpt lat="44.49743" lon="3.29622">
        <ele>792.54</ele>
        <time>2024-11-05T14:42:31.009Z</time>
      </trkpt>
      <trkpt lat="44.49737" lon="3.29612">
        <ele>792.36</ele>
        <time>2024-11-05T14:42:40.670Z</time>
      </trkpt>
      <trkpt lat="44.4973" lon="3.296">
        <ele>792.18</ele>
        <time>2024-11-05T14:42:50.332Z</time>
      </trkpt>
      <trkpt lat="44.49726" lon="3.29592">
        <ele>792.02</ele>
        <time>2024-11-05T14:42:59.995Z</time>
      </trkpt>
      <trkpt lat="44.49719" lon="3.29576">
        <ele>791.86</ele>
        <time>2024-11-05T14:43:09.661Z</time>
      </trkpt>
      <trkpt lat="44.49714" lon="3.29566">
        <ele>791.73</ele>
        <time>2024-11-05T14:43:19.328Z</time>
      </trkpt>
      <trkpt lat="44.49707" lon="3.2955">
        <ele>791.59</ele>
        <time>2024-11-05T14:43:28.997Z</time>
      </trkpt>
      <trkpt lat="44.49702" lon="3.2954">
        <ele>791.49</ele>
        <time>2024-11-05T14:43:38.668Z</time>
      </trkpt>
      <trkpt lat="44.49697" lon="3.29529">
        <ele>791.4</ele>
        <time>2024-11-05T14:43:48.340Z</time>
      </trkpt>
      <trkpt lat="44.49693" lon="3.29518">
        <ele>791.32</ele>
        <time>2024-11-05T14:43:58.014Z</time>
      </trkpt>
      <trkpt lat="44.49688" lon="3.29508">
        <ele>791.25</ele>
        <time>2024-11-05T14:44:07.689Z</time>
      </trkpt>
      <trkpt lat="44.49683" lon="3.29497">
        <ele>791.19</ele>
        <time>2024-11-05T14:44:17.365Z</time>
      </trkpt>
      <trkpt lat="44.4968" lon="3.29491">
        <ele>791.14</ele>
        <time>2024-11-05T14:44:27.042Z</time>
      </trkpt>
      <trkpt lat="44.49678" lon="3.29487">
        <ele>791.1</ele>
        <time>2024-11-05T14:44:36.720Z</time>
      </trkpt>
      <trkpt lat="44.49675" lon="3.29482">
        <ele>791.07</ele>
        <time>2024-11-05T14:44:46.399Z</time>
      </trkpt>
      <trkpt lat="44.49666" lon="3.29468">
        <ele>791.07</ele>
        <time>2024-11-05T14:44:56.080Z</time>
      </trkpt>
      <trkpt lat="44.49656" lon="3.2945">
        <ele>791.07</ele>
        <time>2024-11-05T14:45:05.763Z</time>
      </trkpt>
      <trkpt lat="44.49655" lon="3.29449">
        <ele>791.05</ele>
        <time>2024-11-05T14:45:15.447Z</time>
      </trkpt>
      <trkpt lat="44.49636" lon="3.29424">
        <ele>791.05</ele>
        <time>2024-11-05T14:45:25.135Z</time>
      </trkpt>
      <trkpt lat="44.49635" lon="3.29423">
        <ele>791.03</ele>
        <time>2024-11-05T14:45:34.823Z</time>
      </trkpt>
      <trkpt lat="44.49627" lon="3.29417">
        <ele>791.01</ele>
        <time>2024-11-05T14:45:44.512Z</time>
      </trkpt>
      <trkpt lat="44.49624" lon="3.29413">
        <ele>790.98</ele>
        <time>2024-11-05T14:45:54.202Z</time>
      </trkpt>
      <trkpt lat="44.49616" lon="3.29407">
        <ele>790.95</ele>
        <time>2024-11-05T14:46:03.893Z</time>
      </trkpt>
      <trkpt lat="44.49615" lon="3.29406">
        <ele>790.92</ele>
        <time>2024-11-05T14:46:13.585Z</time>
      </trkpt>
      <trkpt lat="44.49612" lon="3.29404">
        <ele>790.88</ele>
        <time>2024-11-05T14:46:23.277Z</time>
      </trkpt>
      <trkpt lat="44.49608" lon="3.29402">
        <ele>790.83</ele>
        <time>2024-11-05T14:46:32.970Z</time>
      </trkpt>
      <trkpt lat="44.49604" lon="3.294">
        <ele>790.76</ele>
        <time>2024-11-05T14:46:42.664Z</time>
      </trkpt>
      <trkpt lat="44.496" lon="3.29398">
        <ele>790.69</ele>
        <time>2024-11-05T14:46:52.358Z</time>
      </trkpt>
      <trkpt lat="44.49595" lon="3.29395">
        <ele>790.61</ele>
        <time>2024-11-05T14:47:02.053Z</time>
      </trkpt>
      <trkpt lat="44.49593" lon="3.29394">
        <ele>790.52</ele>
        <time>2024-11-05T14:47:11.748Z</time>
      </trkpt>
      <trkpt lat="44.49591" lon="3.29394">
        <ele>790.42</ele>
        <time>2024-11-05T14:47:21.444Z</time>
      </trkpt>
      <trkpt lat="44.49587" lon="3.29393">
        <ele>790.31</ele>
        <time>2024-11-05T14:47:31.140Z</time>
      </trkpt>
      <trkpt lat="44.49582" lon="3.29392">
        <ele>790.19</ele>
        <time>2024-11-05T14:47:40.837Z</time>
      </trkpt>
      <trkpt lat="44.49573" lon="3.2939">
        <ele>790.06</ele>
        <time>2024-11-05T14:47:50.536Z</time>
      </trkpt>
      <trkpt lat="44.49565" lon="3.29388">
        <ele>789.91</ele>
        <time>2024-11-05T14:48:00.236Z</time>
      </trkpt>
      <trkpt lat="44.49548" lon="3.29384">
        <ele>789.74</ele>
        <time>2024-11-05T14:48:09.939Z</time>
      </trkpt>
      <trkpt lat="44.49538" lon="3.29383">
        <ele>789.55</ele>
        <time>2024-11-05T14:48:19.643Z</time>
      </trkpt>
      <trkpt lat="44.49529" lon="3.29383">
        <ele>789.36</ele>
        <time>2024-11-05T14:48:29.349Z</time>
      </trkpt>
      <trkpt lat="44.49525" lon="3.29382">
        <ele>789.16</ele>
        <time>2024-11-05T14:48:39.055Z</time>
      </trkpt>
      <trkpt lat="44.49498" lon="3.2938">
        <ele>788.92</ele>
        <time>2024-11-05T14:48:48.766Z</time>
      </trkpt>
      <trkpt lat="44.49496" lon="3.2938">
        <ele>788.69</ele>
        <time>2024-11-05T14:48:58.477Z</time>
      </trkpt>
      <trkpt lat="44.49484" lon="3.2938">
        <ele>788.43</ele>
        <time>2024-11-05T14:49:08.190Z</time>
      </trkpt>
      <trkpt lat="44.49475" lon="3.2938">
        <ele>788.16</ele>
        <time>2024-11-05T14:49:17.904Z</time>
      </trkpt>
      <trkpt lat="44.49466" lon="3.29379">
        <ele>787.87</ele>
        <time>2024-11-05T14:49:27.620Z</time>
      </trkpt>
      <trkpt lat="44.49458" lon="3.29379">
        <ele>787.58</ele>
        <time>2024-11-05T14:49:37.337Z</time>
      </trkpt>
      <trkpt lat="44.49449" lon="3.29379">
        <ele>787.27</ele>
        <time>2024-11-05T14:49:47.056Z</time>
      </trkpt>
      <trkpt lat="44.49422" lon="3.29378">
        <ele>786.97</ele>
        <time>2024-11-05T14:49:56.779Z</time>
      </trkpt>
      <trkpt lat="44.49408" lon="3.29378">
        <ele>786.66</ele>
        <time>2024-11-05T14:50:06.504Z</time>
      </trkpt>
      <trkpt lat="44.49395" lon="3.29378">
        <ele>786.33</ele>
        <time>2024-11-05T14:50:16.231Z</time>
      </trkpt>
      <trkpt lat="44.49391" lon="3.29377">
        <ele>785.99</ele>
        <time>2024-11-05T14:50:25.959Z</time>
      </trkpt>
      <trkpt lat="44.49382" lon="3.29377">
        <ele>785.62</ele>
        <time>2024-11-05T14:50:35.688Z</time>
      </trkpt>
      <trkpt lat="44.49375" lon="3.29377">
        <ele>785.24</ele>
        <time>2024-11-05T14:50:45.418Z</time>
      </trkpt>
      <trkpt lat="44.49368" lon="3.2938">
        <ele>784.87</ele>
        <time>2024-11-05T14:50:55.149Z</time>
      </trkpt>
      <trkpt lat="44.49355" lon="3.29385">
        <ele>784.46</ele>
        <time>2024-11-05T14:51:04.883Z</time>
      </trkpt>
      <trkpt lat="44.49338" lon="3.29405">
        <ele>784.06</ele>
        <time>2024-11-05T14:51:14.620Z</time>
      </trkpt>
      <trkpt lat="44.49321" lon="3.29425">
        <ele>783.65</ele>
        <time>2024-11-05T14:51:24.361Z</time>
      </trkpt>
      <trkpt lat="44.49296" lon="3.2946">
        <ele>783.21</ele>
        <time>2024-11-05T14:51:34.108Z</time>
      </trkpt>
      <trkpt lat="44.4928" lon="3.29482">
        <ele>782.81</ele>
        <time>2024-11-05T14:51:43.858Z</time>
      </trkpt>
      <trkpt lat="44.49274" lon="3.29491">
        <ele>782.4</ele>
        <time>2024-11-05T14:51:53.610Z</time>
      </trkpt>
      <trkpt lat="44.49267" lon="3.295">
        <ele>782</ele>
        <time>2024-11-05T14:52:03.363Z</time>
      </trkpt>
      <trkpt lat="44.49261" lon="3.29509">
        <ele>781.61</ele>
        <time>2024-11-05T14:52:13.117Z</time>
      </trkpt>
      <trkpt lat="44.49258" lon="3.29513">
        <ele>781.25</ele>
        <time>2024-11-05T14:52:22.872Z</time>
      </trkpt>
      <trkpt lat="44.49251" lon="3.29522">
        <ele>780.89</ele>
        <time>2024-11-05T14:52:32.629Z</time>
      </trkpt>
      <trkpt lat="44.49242" lon="3.29535">
        <ele>780.55</ele>
        <time>2024-11-05T14:52:42.388Z</time>
      </trkpt>
      <trkpt lat="44.49235" lon="3.29545">
        <ele>780.23</ele>
        <time>2024-11-05T14:52:52.148Z</time>
      </trkpt>
      <trkpt lat="44.49229" lon="3.29552">
        <ele>779.92</ele>
        <time>2024-11-05T14:53:01.910Z</time>
      </trkpt>
      <trkpt lat="44.49222" lon="3.2956">
        <ele>779.6</ele>
        <time>2024-11-05T14:53:11.673Z</time>
      </trkpt>
      <trkpt lat="44.492" lon="3.29583">
        <ele>779.29</ele>
        <time>2024-11-05T14:53:21.440Z</time>
      </trkpt>
      <trkpt lat="44.49199" lon="3.29584">
        <ele>778.99</ele>
        <time>2024-11-05T14:53:31.208Z</time>
      </trkpt>
      <trkpt lat="44.49184" lon="3.29617">
        <ele>778.72</ele>
        <time>2024-11-05T14:53:40.980Z</time>
      </trkpt>
      <trkpt lat="44.49183" lon="3.29619">
        <ele>778.46</ele>
        <time>2024-11-05T14:53:50.752Z</time>
      </trkpt>
      <trkpt lat="44.49179" lon="3.2963">
        <ele>778.21</ele>
        <time>2024-11-05T14:54:00.526Z</time>
      </trkpt>
      <trkpt lat="44.49163" lon="3.29672">
        <ele>777.97</ele>
        <time>2024-11-05T14:54:10.305Z</time>
      </trkpt>
      <trkpt lat="44.49161" lon="3.29685">
        <ele>777.73</ele>
        <time>2024-11-05T14:54:20.086Z</time>
      </trkpt>
      <trkpt lat="44.49159" lon="3.29701">
        <ele>777.5</ele>
        <time>2024-11-05T14:54:29.869Z</time>
      </trkpt>
      <trkpt lat="44.49159" lon="3.29716">
        <ele>777.28</ele>
        <time>2024-11-05T14:54:39.653Z</time>
      </trkpt>
      <trkpt lat="44.49158" lon="3.29734">
        <ele>777.08</ele>
        <time>2024-11-05T14:54:49.439Z</time>
      </trkpt>
      <trkpt lat="44.49162" lon="3.29779">
        <ele>776.87</ele>
        <time>2024-11-05T14:54:59.231Z</time>
      </trkpt>
      <trkpt lat="44.49164" lon="3.29798">
        <ele>776.68</ele>
        <time>2024-11-05T14:55:09.025Z</time>
      </trkpt>
      <trkpt lat="44.49165" lon="3.2981">
        <ele>776.52</ele>
        <time>2024-11-05T14:55:18.820Z</time>
      </trkpt>
      <trkpt lat="44.49166" lon="3.29823">
        <ele>776.36</ele>
        <time>2024-11-05T14:55:28.617Z</time>
      </trkpt>
      <trkpt lat="44.49167" lon="3.29835">
        <ele>776.21</ele>
        <time>2024-11-05T14:55:38.415Z</time>
      </trkpt>
      <trkpt lat="44.49168" lon="3.29848">
        <ele>776.08</ele>
        <time>2024-11-05T14:55:48.215Z</time>
      </trkpt>
      <trkpt lat="44.49169" lon="3.2986">
        <ele>775.95</ele>
        <time>2024-11-05T14:55:58.016Z</time>
      </trkpt>
      <trkpt lat="44.4917" lon="3.29885">
        <ele>775.85</ele>
        <time>2024-11-05T14:56:07.820Z</time>
      </trkpt>
      <trkpt lat="44.49172" lon="3.29911">
        <ele>775.76</ele>
        <time>2024-11-05T14:56:17.627Z</time>
      </trkpt>
      <trkpt lat="44.49173" lon="3.29923">
        <ele>775.66</ele>
        <time>2024-11-05T14:56:27.435Z</time>
      </trkpt>
      <trkpt lat="44.49173" lon="3.29929">
        <ele>775.57</ele>
        <time>2024-11-05T14:56:37.244Z</time>
      </trkpt>
      <trkpt lat="44.49174" lon="3.29942">
        <ele>775.48</ele>
        <time>2024-11-05T14:56:47.054Z</time>
      </trkpt>
      <trkpt lat="44.49176" lon="3.29973">
        <ele>775.41</ele>
        <time>2024-11-05T14:56:56.868Z</time>
      </trkpt>
      <trkpt lat="44.49178" lon="3.30011">
        <ele>775.31</ele>
        <time>2024-11-05T14:57:06.686Z</time>
      </trkpt>
      <trkpt lat="44.49179" lon="3.30017">
        <ele>775.23</ele>
        <time>2024-11-05T14:57:16.505Z</time>
      </trkpt>
      <trkpt lat="44.49181" lon="3.30039">
        <ele>775.12</ele>
        <time>2024-11-05T14:57:26.326Z</time>
      </trkpt>
      <trkpt lat="44.49182" lon="3.30042">
        <ele>775.04</ele>
        <time>2024-11-05T14:57:36.148Z</time>
      </trkpt>
      <trkpt lat="44.49185" lon="3.30054">
        <ele>774.95</ele>
        <time>2024-11-05T14:57:45.971Z</time>
      </trkpt>
      <trkpt lat="44.49186" lon="3.30058">
        <ele>774.87</ele>
        <time>2024-11-05T14:57:55.795Z</time>
      </trkpt>
      <trkpt lat="44.49187" lon="3.30059">
        <ele>774.79</ele>
        <time>2024-11-05T14:58:05.619Z</time>
      </trkpt>
      <trkpt lat="44.49189" lon="3.30065">
        <ele>774.71</ele>
        <time>2024-11-05T14:58:15.444Z</time>
      </trkpt>
      <trkpt lat="44.49195" lon="3.30075">
        <ele>774.63</ele>
        <time>2024-11-05T14:58:25.270Z</time>
      </trkpt>
      <trkpt lat="44.49197" lon="3.3008">
        <ele>774.54</ele>
        <time>2024-11-05T14:58:35.097Z</time>
      </trkpt>
      <trkpt lat="44.49209" lon="3.30099">
        <ele>774.48</ele>
        <time>2024-11-05T14:58:44.927Z</time>
      </trkpt>
      <trkpt lat="44.4922" lon="3.30117">
        <ele>774.41</ele>
        <time>2024-11-05T14:58:54.760Z</time>
      </trkpt>
      <trkpt lat="44.49224" lon="3.3013">
        <ele>774.31</ele>
        <time>2024-11-05T14:59:04.594Z</time>
      </trkpt>
      <trkpt lat="44.49225" lon="3.30133">
        <ele>774.19</ele>
        <time>2024-11-05T14:59:14.429Z</time>
      </trkpt>
      <trkpt lat="44.49227" lon="3.3015">
        <ele>774.07</ele>
        <time>2024-11-05T14:59:24.265Z</time>
      </trkpt>
      <trkpt lat="44.49226" lon="3.30171">
        <ele>773.9</ele>
        <time>2024-11-05T14:59:34.104Z</time>
      </trkpt>
      <trkpt lat="44.49221" lon="3.30184">
        <ele>773.7</ele>
        <time>2024-11-05T14:59:43.945Z</time>
      </trkpt>
      <trkpt lat="44.49217" lon="3.30196">
        <ele>773.49</ele>
        <time>2024-11-05T14:59:53.787Z</time>
      </trkpt>
      <trkpt lat="44.49212" lon="3.3021">
        <ele>773.25</ele>
        <time>2024-11-05T15:00:03.631Z</time>
      </trkpt>
      <trkpt lat="44.4921" lon="3.30219">
        <ele>773.06</ele>
        <time>2024-11-05T15:00:13.476Z</time>
      </trkpt>
      <trkpt lat="44.49208" lon="3.30229">
        <ele>772.85</ele>
        <time>2024-11-05T15:00:23.322Z</time>
      </trkpt>
      <trkpt lat="44.49208" lon="3.30237">
        <ele>772.65</ele>
        <time>2024-11-05T15:00:33.169Z</time>
      </trkpt>
      <trkpt lat="44.49209" lon="3.30275">
        <ele>772.47</ele>
        <time>2024-11-05T15:00:43.020Z</time>
      </trkpt>
      <trkpt lat="44.49209" lon="3.303">
        <ele>772.26</ele>
        <time>2024-11-05T15:00:52.874Z</time>
      </trkpt>
      <trkpt lat="44.4921" lon="3.30307">
        <ele>772.01</ele>
        <time>2024-11-05T15:01:02.729Z</time>
      </trkpt>
      <trkpt lat="44.4921" lon="3.30332">
        <ele>771.73</ele>
        <time>2024-11-05T15:01:12.587Z</time>
      </trkpt>
      <trkpt lat="44.49208" lon="3.30361">
        <ele>771.44</ele>
        <time>2024-11-05T15:01:22.448Z</time>
      </trkpt>
      <trkpt lat="44.49208" lon="3.30363">
        <ele>771.16</ele>
        <time>2024-11-05T15:01:32.310Z</time>
      </trkpt>
      <trkpt lat="44.49205" lon="3.30375">
        <ele>770.84</ele>
        <time>2024-11-05T15:01:42.173Z</time>
      </trkpt>
      <trkpt lat="44.49199" lon="3.30399">
        <ele>770.49</ele>
        <time>2024-11-05T15:01:52.039Z</time>
      </trkpt>
      <trkpt lat="44.49197" lon="3.30407">
        <ele>770.16</ele>
        <time>2024-11-05T15:02:01.906Z</time>
      </trkpt>
      <trkpt lat="44.49197" lon="3.30411">
        <ele>769.83</ele>
        <time>2024-11-05T15:02:11.773Z</time>
      </trkpt>
      <trkpt lat="44.49197" lon="3.30424">
        <ele>769.48</ele>
        <time>2024-11-05T15:02:21.642Z</time>
      </trkpt>
      <trkpt lat="44.49196" lon="3.30442">
        <ele>769.12</ele>
        <time>2024-11-05T15:02:31.513Z</time>
      </trkpt>
      <trkpt lat="44.49196" lon="3.30451">
        <ele>768.75</ele>
        <time>2024-11-05T15:02:41.385Z</time>
      </trkpt>
      <trkpt lat="44.49199" lon="3.3048">
        <ele>768.36</ele>
        <time>2024-11-05T15:02:51.260Z</time>
      </trkpt>
      <trkpt lat="44.492" lon="3.30493">
        <ele>767.95</ele>
        <time>2024-11-05T15:03:01.137Z</time>
      </trkpt>
      <trkpt lat="44.492" lon="3.30496">
        <ele>767.54</ele>
        <time>2024-11-05T15:03:11.014Z</time>
      </trkpt>
      <trkpt lat="44.49195" lon="3.30536">
        <ele>767.06</ele>
        <time>2024-11-05T15:03:20.896Z</time>
      </trkpt>
      <trkpt lat="44.49193" lon="3.30549">
        <ele>766.64</ele>
        <time>2024-11-05T15:03:30.779Z</time>
      </trkpt>
      <trkpt lat="44.49192" lon="3.30561">
        <ele>766.18</ele>
        <time>2024-11-05T15:03:40.664Z</time>
      </trkpt>
      <trkpt lat="44.49192" lon="3.30567">
        <ele>765.71</ele>
        <time>2024-11-05T15:03:50.549Z</time>
      </trkpt>
      <trkpt lat="44.49191" lon="3.3058">
        <ele>765.23</ele>
        <time>2024-11-05T15:04:00.436Z</time>
      </trkpt>
      <trkpt lat="44.49191" lon="3.30586">
        <ele>764.75</ele>
        <time>2024-11-05T15:04:10.323Z</time>
      </trkpt>
      <trkpt lat="44.4919" lon="3.30592">
        <ele>764.25</ele>
        <time>2024-11-05T15:04:20.211Z</time>
      </trkpt>
      <trkpt lat="44.4919" lon="3.30599">
        <ele>763.74</ele>
        <time>2024-11-05T15:04:30.100Z</time>
      </trkpt>
      <trkpt lat="44.4919" lon="3.30605">
        <ele>763.23</ele>
        <time>2024-11-05T15:04:39.990Z</time>
      </trkpt>
      <trkpt lat="44.49191" lon="3.30617">
        <ele>762.7</ele>
        <time>2024-11-05T15:04:49.881Z</time>
      </trkpt>
      <trkpt lat="44.49193" lon="3.30642">
        <ele>762.15</ele>
        <time>2024-11-05T15:04:59.775Z</time>
      </trkpt>
      <trkpt lat="44.49194" lon="3.30649">
        <ele>761.61</ele>
        <time>2024-11-05T15:05:09.670Z</time>
      </trkpt>
      <trkpt lat="44.49194" lon="3.30655">
        <ele>761.05</ele>
        <time>2024-11-05T15:05:19.565Z</time>
      </trkpt>
      <trkpt lat="44.49195" lon="3.30668">
        <ele>760.48</ele>
        <time>2024-11-05T15:05:29.462Z</time>
      </trkpt>
      <trkpt lat="44.49188" lon="3.30679">
        <ele>759.84</ele>
        <time>2024-11-05T15:05:39.361Z</time>
      </trkpt>
      <trkpt lat="44.49186" lon="3.30679">
        <ele>759.25</ele>
        <time>2024-11-05T15:05:49.260Z</time>
      </trkpt>
      <trkpt lat="44.49182" lon="3.30678">
        <ele>758.64</ele>
        <time>2024-11-05T15:05:59.160Z</time>
      </trkpt>
      <trkpt lat="44.49179" lon="3.30672">
        <ele>758.04</ele>
        <time>2024-11-05T15:06:09.060Z</time>
      </trkpt>
      <trkpt lat="44.49176" lon="3.30666">
        <ele>757.44</ele>
        <time>2024-11-05T15:06:18.961Z</time>
      </trkpt>
      <trkpt lat="44.49175" lon="3.30661">
        <ele>756.83</ele>
        <time>2024-11-05T15:06:28.863Z</time>
      </trkpt>
      <trkpt lat="44.49173" lon="3.30655">
        <ele>756.22</ele>
        <time>2024-11-05T15:06:38.766Z</time>
      </trkpt>
      <trkpt lat="44.4917" lon="3.30644">
        <ele>755.59</ele>
        <time>2024-11-05T15:06:48.670Z</time>
      </trkpt>
      <trkpt lat="44.49168" lon="3.30638">
        <ele>754.97</ele>
        <time>2024-11-05T15:06:58.575Z</time>
      </trkpt>
      <trkpt lat="44.49165" lon="3.30626">
        <ele>754.33</ele>
        <time>2024-11-05T15:07:08.481Z</time>
      </trkpt>
      <trkpt lat="44.49162" lon="3.30614">
        <ele>753.69</ele>
        <time>2024-11-05T15:07:18.389Z</time>
      </trkpt>
      <trkpt lat="44.49152" lon="3.30602">
        <ele>753</ele>
        <time>2024-11-05T15:07:28.299Z</time>
      </trkpt>
      <trkpt lat="44.49122" lon="3.30565">
        <ele>752.24</ele>
        <time>2024-11-05T15:07:38.215Z</time>
      </trkpt>
      <trkpt lat="44.49119" lon="3.30562">
        <ele>751.59</ele>
        <time>2024-11-05T15:07:48.132Z</time>
      </trkpt>
      <trkpt lat="44.49116" lon="3.30556">
        <ele>750.94</ele>
        <time>2024-11-05T15:07:58.050Z</time>
      </trkpt>
      <trkpt lat="44.49102" lon="3.30531">
        <ele>750.24</ele>
        <time>2024-11-05T15:08:07.971Z</time>
      </trkpt>
      <trkpt lat="44.491" lon="3.30526">
        <ele>749.59</ele>
        <time>2024-11-05T15:08:17.893Z</time>
      </trkpt>
      <trkpt lat="44.49094" lon="3.30516">
        <ele>748.94</ele>
        <time>2024-11-05T15:08:27.816Z</time>
      </trkpt>
      <trkpt lat="44.49086" lon="3.30501">
        <ele>748.29</ele>
        <time>2024-11-05T15:08:37.741Z</time>
      </trkpt>
      <trkpt lat="44.49078" lon="3.30486">
        <ele>747.63</ele>
        <time>2024-11-05T15:08:47.669Z</time>
      </trkpt>
      <trkpt lat="44.49076" lon="3.30482">
        <ele>747</ele>
        <time>2024-11-05T15:08:57.597Z</time>
      </trkpt>
      <trkpt lat="44.49057" lon="3.30438">
        <ele>746.31</ele>
        <time>2024-11-05T15:09:07.531Z</time>
      </trkpt>
      <trkpt lat="44.49052" lon="3.30428">
        <ele>745.66</ele>
        <time>2024-11-05T15:09:17.466Z</time>
      </trkpt>
      <trkpt lat="44.49048" lon="3.30417">
        <ele>745.02</ele>
        <time>2024-11-05T15:09:27.403Z</time>
      </trkpt>
      <trkpt lat="44.49047" lon="3.30415">
        <ele>744.4</ele>
        <time>2024-11-05T15:09:37.340Z</time>
      </trkpt>
      <trkpt lat="44.49032" lon="3.30387">
        <ele>743.67</ele>
        <time>2024-11-05T15:09:47.281Z</time>
      </trkpt>
      <trkpt lat="44.4903" lon="3.30383">
        <ele>743.05</ele>
        <time>2024-11-05T15:09:57.223Z</time>
      </trkpt>
      <trkpt lat="44.49026" lon="3.3037">
        <ele>742.41</ele>
        <time>2024-11-05T15:10:07.166Z</time>
      </trkpt>
      <trkpt lat="44.49023" lon="3.30362">
        <ele>741.79</ele>
        <time>2024-11-05T15:10:17.110Z</time>
      </trkpt>
      <trkpt lat="44.49023" lon="3.30359">
        <ele>741.2</ele>
        <time>2024-11-05T15:10:27.055Z</time>
      </trkpt>
      <trkpt lat="44.49022" lon="3.3034">
        <ele>740.61</ele>
        <time>2024-11-05T15:10:37.002Z</time>
      </trkpt>
      <trkpt lat="44.49024" lon="3.30334">
        <ele>740.04</ele>
        <time>2024-11-05T15:10:46.950Z</time>
      </trkpt>
      <trkpt lat="44.49026" lon="3.30322">
        <ele>739.48</ele>
        <time>2024-11-05T15:10:56.899Z</time>
      </trkpt>
      <trkpt lat="44.49028" lon="3.30316">
        <ele>738.89</ele>
        <time>2024-11-05T15:11:06.849Z</time>
      </trkpt>
      <trkpt lat="44.49029" lon="3.3031">
        <ele>738.31</ele>
        <time>2024-11-05T15:11:16.800Z</time>
      </trkpt>
      <trkpt lat="44.49032" lon="3.30299">
        <ele>737.72</ele>
        <time>2024-11-05T15:11:26.752Z</time>
      </trkpt>
      <trkpt lat="44.49035" lon="3.30287">
        <ele>737.13</ele>
        <time>2024-11-05T15:11:36.705Z</time>
      </trkpt>
      <trkpt lat="44.49038" lon="3.30275">
        <ele>736.54</ele>
        <time>2024-11-05T15:11:46.660Z</time>
      </trkpt>
      <trkpt lat="44.49042" lon="3.30259">
        <ele>735.93</ele>
        <time>2024-11-05T15:11:56.617Z</time>
      </trkpt>
      <trkpt lat="44.49046" lon="3.30226">
        <ele>735.24</ele>
        <time>2024-11-05T15:12:06.578Z</time>
      </trkpt>
      <trkpt lat="44.49047" lon="3.30216">
        <ele>734.61</ele>
        <time>2024-11-05T15:12:16.540Z</time>
      </trkpt>
      <trkpt lat="44.49047" lon="3.30201">
        <ele>733.99</ele>
        <time>2024-11-05T15:12:26.503Z</time>
      </trkpt>
      <trkpt lat="44.49047" lon="3.30195">
        <ele>733.37</ele>
        <time>2024-11-05T15:12:36.467Z</time>
      </trkpt>
      <trkpt lat="44.49046" lon="3.30189">
        <ele>732.74</ele>
        <time>2024-11-05T15:12:46.432Z</time>
      </trkpt>
      <trkpt lat="44.49046" lon="3.30183">
        <ele>732.1</ele>
        <time>2024-11-05T15:12:56.398Z</time>
      </trkpt>
      <trkpt lat="44.49046" lon="3.30177">
        <ele>731.46</ele>
        <time>2024-11-05T15:13:06.364Z</time>
      </trkpt>
      <trkpt lat="44.49046" lon="3.30172">
        <ele>730.81</ele>
        <time>2024-11-05T15:13:16.331Z</time>
      </trkpt>
      <trkpt lat="44.49044" lon="3.30164">
        <ele>730.14</ele>
        <time>2024-11-05T15:13:26.299Z</time>
      </trkpt>
      <trkpt lat="44.49043" lon="3.30161">
        <ele>729.46</ele>
        <time>2024-11-05T15:13:36.267Z</time>
      </trkpt>
      <trkpt lat="44.49036" lon="3.30157">
        <ele>728.75</ele>
        <time>2024-11-05T15:13:46.236Z</time>
      </trkpt>
      <trkpt lat="44.4903" lon="3.30165">
        <ele>728.02</ele>
        <time>2024-11-05T15:13:56.207Z</time>
      </trkpt>
      <trkpt lat="44.49029" lon="3.3017">
        <ele>727.31</ele>
        <time>2024-11-05T15:14:06.178Z</time>
      </trkpt>
      <trkpt lat="44.49027" lon="3.30182">
        <ele>726.58</ele>
        <time>2024-11-05T15:14:16.151Z</time>
      </trkpt>
      <trkpt lat="44.49025" lon="3.30194">
        <ele>725.83</ele>
        <time>2024-11-05T15:14:26.125Z</time>
      </trkpt>
      <trkpt lat="44.49024" lon="3.30199">
        <ele>725.09</ele>
        <time>2024-11-05T15:14:36.100Z</time>
      </trkpt>
      <trkpt lat="44.49013" lon="3.30215">
        <ele>724.27</ele>
        <time>2024-11-05T15:14:46.077Z</time>
      </trkpt>
      <trkpt lat="44.49011" lon="3.30217">
        <ele>723.5</ele>
        <time>2024-11-05T15:14:56.055Z</time>
      </trkpt>
      <trkpt lat="44.48988" lon="3.30237">
        <ele>722.63</ele>
        <time>2024-11-05T15:15:06.037Z</time>
      </trkpt>
      <trkpt lat="44.48981" lon="3.30244">
        <ele>721.83</ele>
        <time>2024-11-05T15:15:16.020Z</time>
      </trkpt>
      <trkpt lat="44.48966" lon="3.30257">
        <ele>720.96</ele>
        <time>2024-11-05T15:15:26.006Z</time>
      </trkpt>
      <trkpt lat="44.48953" lon="3.30275">
        <ele>720.14</ele>
        <time>2024-11-05T15:15:35.995Z</time>
      </trkpt>
      <trkpt lat="44.4894" lon="3.30292">
        <ele>719.34</ele>
        <time>2024-11-05T15:15:45.987Z</time>
      </trkpt>
      <trkpt lat="44.48933" lon="3.30301">
        <ele>718.54</ele>
        <time>2024-11-05T15:15:55.980Z</time>
      </trkpt>
      <trkpt lat="44.48922" lon="3.30311">
        <ele>717.7</ele>
        <time>2024-11-05T15:16:05.975Z</time>
      </trkpt>
      <trkpt lat="44.48915" lon="3.30317">
        <ele>716.89</ele>
        <time>2024-11-05T15:16:15.972Z</time>
      </trkpt>
      <trkpt lat="44.48903" lon="3.30328">
        <ele>716.05</ele>
        <time>2024-11-05T15:16:25.971Z</time>
      </trkpt>
      <trkpt lat="44.48895" lon="3.30337">
        <ele>715.22</ele>
        <time>2024-11-05T15:16:35.972Z</time>
      </trkpt>
      <trkpt lat="44.48894" lon="3.3034">
        <ele>714.46</ele>
        <time>2024-11-05T15:16:45.973Z</time>
      </trkpt>
      <trkpt lat="44.48891" lon="3.30351">
        <ele>713.7</ele>
        <time>2024-11-05T15:16:55.976Z</time>
      </trkpt>
      <trkpt lat="44.48893" lon="3.30368">
        <ele>712.97</ele>
        <time>2024-11-05T15:17:05.980Z</time>
      </trkpt>
      <trkpt lat="44.48894" lon="3.3037">
        <ele>712.24</ele>
        <time>2024-11-05T15:17:15.985Z</time>
      </trkpt>
      <trkpt lat="44.48904" lon="3.30397">
        <ele>711.55</ele>
        <time>2024-11-05T15:17:25.993Z</time>
      </trkpt>
      <trkpt lat="44.48914" lon="3.30425">
        <ele>710.85</ele>
        <time>2024-11-05T15:17:36.005Z</time>
      </trkpt>
      <trkpt lat="44.48916" lon="3.30431">
        <ele>710.14</ele>
        <time>2024-11-05T15:17:46.018Z</time>
      </trkpt>
      <trkpt lat="44.48922" lon="3.30462">
        <ele>709.39</ele>
        <time>2024-11-05T15:17:56.034Z</time>
      </trkpt>
      <trkpt lat="44.48924" lon="3.30479">
        <ele>708.66</ele>
        <time>2024-11-05T15:18:06.052Z</time>
      </trkpt>
      <trkpt lat="44.48925" lon="3.30496">
        <ele>707.95</ele>
        <time>2024-11-05T15:18:16.072Z</time>
      </trkpt>
      <trkpt lat="44.48925" lon="3.30497">
        <ele>707.28</ele>
        <time>2024-11-05T15:18:26.092Z</time>
      </trkpt>
      <trkpt lat="44.48923" lon="3.30553">
        <ele>706.49</ele>
        <time>2024-11-05T15:18:36.119Z</time>
      </trkpt>
      <trkpt lat="44.48922" lon="3.30575">
        <ele>705.82</ele>
        <time>2024-11-05T15:18:46.148Z</time>
      </trkpt>
      <trkpt lat="44.48922" lon="3.30578">
        <ele>705.17</ele>
        <time>2024-11-05T15:18:56.178Z</time>
      </trkpt>
      <trkpt lat="44.48922" lon="3.3059">
        <ele>704.52</ele>
        <time>2024-11-05T15:19:06.209Z</time>
      </trkpt>
      <trkpt lat="44.48923" lon="3.30602">
        <ele>703.87</ele>
        <time>2024-11-05T15:19:16.241Z</time>
      </trkpt>
      <trkpt lat="44.48923" lon="3.30615">
        <ele>703.24</ele>
        <time>2024-11-05T15:19:26.275Z</time>
      </trkpt>
      <trkpt lat="44.48924" lon="3.30646">
        <ele>702.59</ele>
        <time>2024-11-05T15:19:36.312Z</time>
      </trkpt>
      <trkpt lat="44.48925" lon="3.30671">
        <ele>701.95</ele>
        <time>2024-11-05T15:19:46.352Z</time>
      </trkpt>
      <trkpt lat="44.48925" lon="3.30686">
        <ele>701.31</ele>
        <time>2024-11-05T15:19:56.394Z</time>
      </trkpt>
      <trkpt lat="44.48926" lon="3.30695">
        <ele>700.7</ele>
        <time>2024-11-05T15:20:06.437Z</time>
      </trkpt>
      <trkpt lat="44.48927" lon="3.30708">
        <ele>700.09</ele>
        <time>2024-11-05T15:20:16.481Z</time>
      </trkpt>
      <trkpt lat="44.48928" lon="3.30713">
        <ele>699.5</ele>
        <time>2024-11-05T15:20:26.526Z</time>
      </trkpt>
      <trkpt lat="44.48928" lon="3.30714">
        <ele>698.91</ele>
        <time>2024-11-05T15:20:36.571Z</time>
      </trkpt>
      <trkpt lat="44.48931" lon="3.30719">
        <ele>698.32</ele>
        <time>2024-11-05T15:20:46.617Z</time>
      </trkpt>
      <trkpt lat="44.48933" lon="3.30724">
        <ele>697.73</ele>
        <time>2024-11-05T15:20:56.664Z</time>
      </trkpt>
      <trkpt lat="44.48935" lon="3.3073">
        <ele>697.14</ele>
        <time>2024-11-05T15:21:06.711Z</time>
      </trkpt>
      <trkpt lat="44.48938" lon="3.30735">
        <ele>696.54</ele>
        <time>2024-11-05T15:21:16.759Z</time>
      </trkpt>
      <trkpt lat="44.48939" lon="3.30738">
        <ele>695.95</ele>
        <time>2024-11-05T15:21:26.807Z</time>
      </trkpt>
      <trkpt lat="44.48939" lon="3.30741">
        <ele>695.35</ele>
        <time>2024-11-05T15:21:36.856Z</time>
      </trkpt>
      <trkpt lat="44.4894" lon="3.30747">
        <ele>694.75</ele>
        <time>2024-11-05T15:21:46.905Z</time>
      </trkpt>
      <trkpt lat="44.4894" lon="3.30749">
        <ele>694.14</ele>
        <time>2024-11-05T15:21:56.955Z</time>
      </trkpt>
      <trkpt lat="44.48937" lon="3.30757">
        <ele>693.51</ele>
        <time>2024-11-05T15:22:07.006Z</time>
      </trkpt>
      <trkpt lat="44.48932" lon="3.30757">
        <ele>692.88</ele>
        <time>2024-11-05T15:22:17.058Z</time>
      </trkpt>
      <trkpt lat="44.48927" lon="3.30758">
        <ele>692.24</ele>
        <time>2024-11-05T15:22:27.110Z</time>
      </trkpt>
      <trkpt lat="44.48925" lon="3.30758">
        <ele>691.61</ele>
        <time>2024-11-05T15:22:37.163Z</time>
      </trkpt>
      <trkpt lat="44.48923" lon="3.30757">
        <ele>690.97</ele>
        <time>2024-11-05T15:22:47.216Z</time>
      </trkpt>
      <trkpt lat="44.48915" lon="3.30752">
        <ele>690.31</ele>
        <time>2024-11-05T15:22:57.270Z</time>
      </trkpt>
      <trkpt lat="44.4889" lon="3.30739">
        <ele>689.59</ele>
        <time>2024-11-05T15:23:07.329Z</time>
      </trkpt>
      <trkpt lat="44.48869" lon="3.30727">
        <ele>688.87</ele>
        <time>2024-11-05T15:23:17.391Z</time>
      </trkpt>
      <trkpt lat="44.48857" lon="3.3072">
        <ele>688.16</ele>
        <time>2024-11-05T15:23:27.455Z</time>
      </trkpt>
      <trkpt lat="44.48848" lon="3.30716">
        <ele>687.46</ele>
        <time>2024-11-05T15:23:37.521Z</time>
      </trkpt>
      <trkpt lat="44.48832" lon="3.30707">
        <ele>686.72</ele>
        <time>2024-11-05T15:23:47.590Z</time>
      </trkpt>
      <trkpt lat="44.48822" lon="3.30701">
        <ele>686.01</ele>
        <time>2024-11-05T15:23:57.660Z</time>
      </trkpt>
      <trkpt lat="44.48807" lon="3.30693">
        <ele>685.28</ele>
        <time>2024-11-05T15:24:07.733Z</time>
      </trkpt>
      <trkpt lat="44.48799" lon="3.30688">
        <ele>684.56</ele>
        <time>2024-11-05T15:24:17.807Z</time>
      </trkpt>
      <trkpt lat="44.48782" lon="3.30679">
        <ele>683.81</ele>
        <time>2024-11-05T15:24:27.884Z</time>
      </trkpt>
      <trkpt lat="44.48749" lon="3.3066">
        <ele>683</ele>
        <time>2024-11-05T15:24:37.967Z</time>
      </trkpt>
      <trkpt lat="44.48737" lon="3.30653">
        <ele>682.23</ele>
        <time>2024-11-05T15:24:48.052Z</time>
      </trkpt>
      <trkpt lat="44.48725" lon="3.30646">
        <ele>681.46</ele>
        <time>2024-11-05T15:24:58.139Z</time>
      </trkpt>
      <trkpt lat="44.48708" lon="3.30637">
        <ele>680.67</ele>
        <time>2024-11-05T15:25:08.229Z</time>
      </trkpt>
      <trkpt lat="44.48698" lon="3.30631">
        <ele>679.88</ele>
        <time>2024-11-05T15:25:18.321Z</time>
      </trkpt>
      <trkpt lat="44.48676" lon="3.30615">
        <ele>679.08</ele>
        <time>2024-11-05T15:25:28.417Z</time>
      </trkpt>
      <trkpt lat="44.48665" lon="3.30605">
        <ele>678.28</ele>
        <time>2024-11-05T15:25:38.515Z</time>
      </trkpt>
      <trkpt lat="44.48643" lon="3.30587">
        <ele>677.47</ele>
        <time>2024-11-05T15:25:48.617Z</time>
      </trkpt>
      <trkpt lat="44.48635" lon="3.30578">
        <ele>676.66</ele>
        <time>2024-11-05T15:25:58.721Z</time>
      </trkpt>
      <trkpt lat="44.48614" lon="3.30553">
        <ele>675.84</ele>
        <time>2024-11-05T15:26:08.829Z</time>
      </trkpt>
      <trkpt lat="44.48603" lon="3.3054">
        <ele>675.02</ele>
        <time>2024-11-05T15:26:18.939Z</time>
      </trkpt>
      <trkpt lat="44.48598" lon="3.30532">
        <ele>674.19</ele>
        <time>2024-11-05T15:26:29.051Z</time>
      </trkpt>
      <trkpt lat="44.48592" lon="3.30523">
        <ele>673.36</ele>
        <time>2024-11-05T15:26:39.164Z</time>
      </trkpt>
      <trkpt lat="44.48586" lon="3.30514">
        <ele>672.52</ele>
        <time>2024-11-05T15:26:49.278Z</time>
      </trkpt>
      <trkpt lat="44.48578" lon="3.30501">
        <ele>671.67</ele>
        <time>2024-11-05T15:26:59.394Z</time>
      </trkpt>
      <trkpt lat="44.48568" lon="3.30471">
        <ele>670.74</ele>
        <time>2024-11-05T15:27:09.514Z</time>
      </trkpt>
      <trkpt lat="44.48562" lon="3.30454">
        <ele>669.81</ele>
        <time>2024-11-05T15:27:19.636Z</time>
      </trkpt>
      <trkpt lat="44.48556" lon="3.30437">
        <ele>668.87</ele>
        <time>2024-11-05T15:27:29.760Z</time>
      </trkpt>
      <trkpt lat="44.48551" lon="3.30424">
        <ele>667.93</ele>
        <time>2024-11-05T15:27:39.886Z</time>
      </trkpt>
      <trkpt lat="44.48549" lon="3.30421">
        <ele>667.06</ele>
        <time>2024-11-05T15:27:50.013Z</time>
      </trkpt>
      <trkpt lat="44.48543" lon="3.3041">
        <ele>666.16</ele>
        <time>2024-11-05T15:28:00.141Z</time>
      </trkpt>
      <trkpt lat="44.48533" lon="3.304">
        <ele>665.27</ele>
        <time>2024-11-05T15:28:10.271Z</time>
      </trkpt>
      <trkpt lat="44.48529" lon="3.30398">
        <ele>664.42</ele>
        <time>2024-11-05T15:28:20.402Z</time>
      </trkpt>
      <trkpt lat="44.4852" lon="3.30393">
        <ele>663.54</ele>
        <time>2024-11-05T15:28:30.534Z</time>
      </trkpt>
      <trkpt lat="44.48516" lon="3.30392">
        <ele>662.68</ele>
        <time>2024-11-05T15:28:40.667Z</time>
      </trkpt>
      <trkpt lat="44.48507" lon="3.30389">
        <ele>661.81</ele>
        <time>2024-11-05T15:28:50.802Z</time>
      </trkpt>
      <trkpt lat="44.48503" lon="3.30388">
        <ele>660.97</ele>
        <time>2024-11-05T15:29:00.937Z</time>
      </trkpt>
      <trkpt lat="44.48485" lon="3.30386">
        <ele>660.06</ele>
        <time>2024-11-05T15:29:11.075Z</time>
      </trkpt>
      <trkpt lat="44.48485" lon="3.30386">
        <ele>659.24</ele>
        <time>2024-11-05T15:29:21.213Z</time>
      </trkpt>
      <trkpt lat="44.48473" lon="3.30391">
        <ele>658.39</ele>
        <time>2024-11-05T15:29:31.353Z</time>
      </trkpt>
      <trkpt lat="44.48466" lon="3.30402">
        <ele>657.56</ele>
        <time>2024-11-05T15:29:41.495Z</time>
      </trkpt>
      <trkpt lat="44.48465" lon="3.30403">
        <ele>656.76</ele>
        <time>2024-11-05T15:29:51.637Z</time>
      </trkpt>
      <trkpt lat="44.48456" lon="3.30437">
        <ele>656.01</ele>
        <time>2024-11-05T15:30:01.783Z</time>
      </trkpt>
      <trkpt lat="44.48456" lon="3.30438">
        <ele>655.23</ele>
        <time>2024-11-05T15:30:11.929Z</time>
      </trkpt>
      <trkpt lat="44.48455" lon="3.30449">
        <ele>654.48</ele>
        <time>2024-11-05T15:30:22.076Z</time>
      </trkpt>
      <trkpt lat="44.48451" lon="3.30474">
        <ele>653.67</ele>
        <time>2024-11-05T15:30:32.226Z</time>
      </trkpt>
      <trkpt lat="44.48449" lon="3.30492">
        <ele>652.85</ele>
        <time>2024-11-05T15:30:42.379Z</time>
      </trkpt>
      <trkpt lat="44.48446" lon="3.30511">
        <ele>652.1</ele>
        <time>2024-11-05T15:30:52.534Z</time>
      </trkpt>
      <trkpt lat="44.48444" lon="3.30529">
        <ele>651.37</ele>
        <time>2024-11-05T15:31:02.691Z</time>
      </trkpt>
      <trkpt lat="44.48442" lon="3.30542">
        <ele>650.68</ele>
        <time>2024-11-05T15:31:12.849Z</time>
      </trkpt>
      <trkpt lat="44.48442" lon="3.30548">
        <ele>649.99</ele>
        <time>2024-11-05T15:31:23.008Z</time>
      </trkpt>
      <trkpt lat="44.48441" lon="3.30605">
        <ele>649.27</ele>
        <time>2024-11-05T15:31:33.174Z</time>
      </trkpt>
      <trkpt lat="44.48441" lon="3.3063">
        <ele>648.53</ele>
        <time>2024-11-05T15:31:43.342Z</time>
      </trkpt>
      <trkpt lat="44.4844" lon="3.30671">
        <ele>647.75</ele>
        <time>2024-11-05T15:31:53.515Z</time>
      </trkpt>
      <trkpt lat="44.4844" lon="3.30706">
        <ele>647.03</ele>
        <time>2024-11-05T15:32:03.692Z</time>
      </trkpt>
      <trkpt lat="44.4844" lon="3.30724">
        <ele>646.37</ele>
        <time>2024-11-05T15:32:13.871Z</time>
      </trkpt>
      <trkpt lat="44.48441" lon="3.30781">
        <ele>645.74</ele>
        <time>2024-11-05T15:32:24.057Z</time>
      </trkpt>
      <trkpt lat="44.48441" lon="3.30792">
        <ele>645.08</ele>
        <time>2024-11-05T15:32:34.244Z</time>
      </trkpt>
      <trkpt lat="44.48442" lon="3.30806">
        <ele>644.44</ele>
        <time>2024-11-05T15:32:44.433Z</time>
      </trkpt>
      <trkpt lat="44.48442" lon="3.30825">
        <ele>643.77</ele>
        <time>2024-11-05T15:32:54.624Z</time>
      </trkpt>
      <trkpt lat="44.48443" lon="3.30839">
        <ele>643.15</ele>
        <time>2024-11-05T15:33:04.816Z</time>
      </trkpt>
      <trkpt lat="44.48446" lon="3.30863">
        <ele>642.57</ele>
        <time>2024-11-05T15:33:15.011Z</time>
      </trkpt>
      <trkpt lat="44.48448" lon="3.30881">
        <ele>641.98</ele>
        <time>2024-11-05T15:33:25.208Z</time>
      </trkpt>
      <trkpt lat="44.48449" lon="3.30894">
        <ele>641.39</ele>
        <time>2024-11-05T15:33:35.407Z</time>
      </trkpt>
      <trkpt lat="44.48452" lon="3.30919">
        <ele>640.78</ele>
        <time>2024-11-05T15:33:45.609Z</time>
      </trkpt>
      <trkpt lat="44.48453" lon="3.30931">
        <ele>640.22</ele>
        <time>2024-11-05T15:33:55.812Z</time>
      </trkpt>
      <trkpt lat="44.48456" lon="3.30955">
        <ele>639.63</ele>
        <time>2024-11-05T15:34:06.018Z</time>
      </trkpt>
      <trkpt lat="44.48459" lon="3.30968">
        <ele>639.14</ele>
        <time>2024-11-05T15:34:16.225Z</time>
      </trkpt>
      <trkpt lat="44.48462" lon="3.3098">
        <ele>638.66</ele>
        <time>2024-11-05T15:34:26.434Z</time>
      </trkpt>
      <trkpt lat="44.48463" lon="3.30986">
        <ele>638.2</ele>
        <time>2024-11-05T15:34:36.644Z</time>
      </trkpt>
      <trkpt lat="44.48465" lon="3.30992">
        <ele>637.78</ele>
        <time>2024-11-05T15:34:46.854Z</time>
      </trkpt>
      <trkpt lat="44.48467" lon="3.31004">
        <ele>637.37</ele>
        <time>2024-11-05T15:34:57.066Z</time>
      </trkpt>
      <trkpt lat="44.48468" lon="3.31006">
        <ele>637.01</ele>
        <time>2024-11-05T15:35:07.278Z</time>
      </trkpt>
      <trkpt lat="44.48468" lon="3.31016">
        <ele>636.63</ele>
        <time>2024-11-05T15:35:17.491Z</time>
      </trkpt>
      <trkpt lat="44.48468" lon="3.31021">
        <ele>636.3</ele>
        <time>2024-11-05T15:35:27.705Z</time>
      </trkpt>
      <trkpt lat="44.48463" lon="3.3103">
        <ele>635.93</ele>
        <time>2024-11-05T15:35:37.920Z</time>
      </trkpt>
      <trkpt lat="44.48461" lon="3.31031">
        <ele>635.64</ele>
        <time>2024-11-05T15:35:48.135Z</time>
      </trkpt>
      <trkpt lat="44.48452" lon="3.31038">
        <ele>635.3</ele>
        <time>2024-11-05T15:35:58.352Z</time>
      </trkpt>
      <trkpt lat="44.48452" lon="3.31034">
        <ele>635.08</ele>
        <time>2024-11-05T15:36:08.569Z</time>
      </trkpt>
      <trkpt lat="44.4845" lon="3.31015">
        <ele>634.9</ele>
        <time>2024-11-05T15:36:18.789Z</time>
      </trkpt>
      <trkpt lat="44.48447" lon="3.30991">
        <ele>634.77</ele>
        <time>2024-11-05T15:36:29.011Z</time>
      </trkpt>
      <trkpt lat="44.48445" lon="3.30978">
        <ele>634.66</ele>
        <time>2024-11-05T15:36:39.235Z</time>
      </trkpt>
      <trkpt lat="44.48443" lon="3.3096">
        <ele>634.58</ele>
        <time>2024-11-05T15:36:49.461Z</time>
      </trkpt>
      <trkpt lat="44.48442" lon="3.30947">
        <ele>634.5</ele>
        <time>2024-11-05T15:36:59.688Z</time>
      </trkpt>
      <trkpt lat="44.48437" lon="3.30904">
        <ele>634.48</ele>
        <time>2024-11-05T15:37:09.921Z</time>
      </trkpt>
      <trkpt lat="44.48431" lon="3.30848">
        <ele>634.5</ele>
        <time>2024-11-05T15:37:20.160Z</time>
      </trkpt>
      <trkpt lat="44.48427" lon="3.30811">
        <ele>634.44</ele>
        <time>2024-11-05T15:37:30.403Z</time>
      </trkpt>
      <trkpt lat="44.48426" lon="3.30801">
        <ele>634.41</ele>
        <time>2024-11-05T15:37:40.647Z</time>
      </trkpt>
      <trkpt lat="44.48423" lon="3.30767">
        <ele>634.36</ele>
        <time>2024-11-05T15:37:50.895Z</time>
      </trkpt>
      <trkpt lat="44.4842" lon="3.30724">
        <ele>634.29</ele>
        <time>2024-11-05T15:38:01.148Z</time>
      </trkpt>
      <trkpt lat="44.48416" lon="3.30668">
        <ele>634.26</ele>
        <time>2024-11-05T15:38:11.408Z</time>
      </trkpt>
      <trkpt lat="44.48411" lon="3.30605">
        <ele>634.26</ele>
        <time>2024-11-05T15:38:21.675Z</time>
      </trkpt>
      <trkpt lat="44.4841" lon="3.30594">
        <ele>634.26</ele>
        <time>2024-11-05T15:38:31.943Z</time>
      </trkpt>
      <trkpt lat="44.48409" lon="3.30537">
        <ele>634.23</ele>
        <time>2024-11-05T15:38:42.218Z</time>
      </trkpt>
      <trkpt lat="44.48409" lon="3.30507">
        <ele>634.23</ele>
        <time>2024-11-05T15:38:52.496Z</time>
      </trkpt>
      <trkpt lat="44.4841" lon="3.30493">
        <ele>634.25</ele>
        <time>2024-11-05T15:39:02.776Z</time>
      </trkpt>
      <trkpt lat="44.48412" lon="3.30474">
        <ele>634.33</ele>
        <time>2024-11-05T15:39:13.058Z</time>
      </trkpt>
      <trkpt lat="44.48413" lon="3.3046">
        <ele>634.37</ele>
        <time>2024-11-05T15:39:23.342Z</time>
      </trkpt>
      <trkpt lat="44.48413" lon="3.30465">
        <ele>634.41</ele>
        <time>2024-11-05T15:39:33.626Z</time>
      </trkpt>
      <trkpt lat="44.48409" lon="3.30507">
        <ele>634.23</ele>
        <time>2024-11-05T15:39:43.915Z</time>
      </trkpt>
      <trkpt lat="44.48409" lon="3.30509">
        <ele>634.43</ele>
        <time>2024-11-05T15:39:54.204Z</time>
      </trkpt>
      <trkpt lat="44.4841" lon="3.30578">
        <ele>634.54</ele>
        <time>2024-11-05T15:40:04.501Z</time>
      </trkpt>
      <trkpt lat="44.4841" lon="3.30594">
        <ele>634.26</ele>
        <time>2024-11-05T15:40:14.800Z</time>
      </trkpt>
      <trkpt lat="44.48414" lon="3.3064">
        <ele>634.61</ele>
        <time>2024-11-05T15:40:25.104Z</time>
      </trkpt>
      <trkpt lat="44.48418" lon="3.30696">
        <ele>634.67</ele>
        <time>2024-11-05T15:40:35.415Z</time>
      </trkpt>
      <trkpt lat="44.48421" lon="3.3074">
        <ele>634.75</ele>
        <time>2024-11-05T15:40:45.731Z</time>
      </trkpt>
      <trkpt lat="44.48425" lon="3.30783">
        <ele>634.83</ele>
        <time>2024-11-05T15:40:56.052Z</time>
      </trkpt>
      <trkpt lat="44.48426" lon="3.30801">
        <ele>634.41</ele>
        <time>2024-11-05T15:41:06.375Z</time>
      </trkpt>
      <trkpt lat="44.48428" lon="3.30821">
        <ele>634.92</ele>
        <time>2024-11-05T15:41:16.700Z</time>
      </trkpt>
      <trkpt lat="44.48434" lon="3.30877">
        <ele>634.95</ele>
        <time>2024-11-05T15:41:27.032Z</time>
      </trkpt>
      <trkpt lat="44.48439" lon="3.3092">
        <ele>634.91</ele>
        <time>2024-11-05T15:41:37.369Z</time>
      </trkpt>
      <trkpt lat="44.4844" lon="3.30932">
        <ele>634.93</ele>
        <time>2024-11-05T15:41:47.707Z</time>
      </trkpt>
      <trkpt lat="44.48442" lon="3.30951">
        <ele>634.95</ele>
        <time>2024-11-05T15:41:58.047Z</time>
      </trkpt>
      <trkpt lat="44.48444" lon="3.30963">
        <ele>634.97</ele>
        <time>2024-11-05T15:42:08.389Z</time>
      </trkpt>
      <trkpt lat="44.48447" lon="3.30988">
        <ele>634.96</ele>
        <time>2024-11-05T15:42:18.734Z</time>
      </trkpt>
      <trkpt lat="44.48449" lon="3.31007">
        <ele>634.98</ele>
        <time>2024-11-05T15:42:29.081Z</time>
      </trkpt>
      <trkpt lat="44.48451" lon="3.31025">
        <ele>635.02</ele>
        <time>2024-11-05T15:42:39.430Z</time>
      </trkpt>
      <trkpt lat="44.48452" lon="3.31038">
        <ele>635.3</ele>
        <time>2024-11-05T15:42:49.780Z</time>
      </trkpt>
      <trkpt lat="44.48452" lon="3.3105">
        <ele>635.14</ele>
        <time>2024-11-05T15:43:00.132Z</time>
      </trkpt>
      <trkpt lat="44.48451" lon="3.31063">
        <ele>635.23</ele>
        <time>2024-11-05T15:43:10.485Z</time>
      </trkpt>
      <trkpt lat="44.48448" lon="3.31089">
        <ele>635.35</ele>
        <time>2024-11-05T15:43:20.841Z</time>
      </trkpt>
      <trkpt lat="44.48446" lon="3.31102">
        <ele>635.48</ele>
        <time>2024-11-05T15:43:31.199Z</time>
      </trkpt>
      <trkpt lat="44.48442" lon="3.31112">
        <ele>635.6</ele>
        <time>2024-11-05T15:43:41.558Z</time>
      </trkpt>
      <trkpt lat="44.48436" lon="3.31129">
        <ele>635.74</ele>
        <time>2024-11-05T15:43:51.919Z</time>
      </trkpt>
      <trkpt lat="44.48432" lon="3.3114">
        <ele>635.87</ele>
        <time>2024-11-05T15:44:02.282Z</time>
      </trkpt>
      <trkpt lat="44.48424" lon="3.31155">
        <ele>635.95</ele>
        <time>2024-11-05T15:44:12.647Z</time>
      </trkpt>
      <trkpt lat="44.48413" lon="3.31175">
        <ele>636.06</ele>
        <time>2024-11-05T15:44:23.015Z</time>
      </trkpt>
      <trkpt lat="44.48405" lon="3.31191">
        <ele>636.2</ele>
        <time>2024-11-05T15:44:33.385Z</time>
      </trkpt>
      <trkpt lat="44.484" lon="3.31201">
        <ele>636.33</ele>
        <time>2024-11-05T15:44:43.756Z</time>
      </trkpt>
      <trkpt lat="44.48392" lon="3.31216">
        <ele>636.41</ele>
        <time>2024-11-05T15:44:54.129Z</time>
      </trkpt>
      <trkpt lat="44.48391" lon="3.31217">
        <ele>636.5</ele>
        <time>2024-11-05T15:45:04.503Z</time>
      </trkpt>
      <trkpt lat="44.48387" lon="3.31226">
        <ele>636.62</ele>
        <time>2024-11-05T15:45:14.878Z</time>
      </trkpt>
      <trkpt lat="44.4838" lon="3.31243">
        <ele>636.74</ele>
        <time>2024-11-05T15:45:25.255Z</time>
      </trkpt>
      <trkpt lat="44.48374" lon="3.31259">
        <ele>636.83</ele>
        <time>2024-11-05T15:45:35.634Z</time>
      </trkpt>
      <trkpt lat="44.48367" lon="3.31275">
        <ele>636.89</ele>
        <time>2024-11-05T15:45:46.015Z</time>
      </trkpt>
      <trkpt lat="44.4836" lon="3.31292">
        <ele>636.98</ele>
        <time>2024-11-05T15:45:56.399Z</time>
      </trkpt>
      <trkpt lat="44.48347" lon="3.31324">
        <ele>637.05</ele>
        <time>2024-11-05T15:46:06.787Z</time>
      </trkpt>
      <trkpt lat="44.48345" lon="3.31329">
        <ele>637.12</ele>
        <time>2024-11-05T15:46:17.175Z</time>
      </trkpt>
      <trkpt lat="44.48334" lon="3.3135">
        <ele>637.17</ele>
        <time>2024-11-05T15:46:27.566Z</time>
      </trkpt>
      <trkpt lat="44.48324" lon="3.31371">
        <ele>637.24</ele>
        <time>2024-11-05T15:46:37.960Z</time>
      </trkpt>
      <trkpt lat="44.4832" lon="3.31378">
        <ele>637.29</ele>
        <time>2024-11-05T15:46:48.355Z</time>
      </trkpt>
      <trkpt lat="44.48318" lon="3.31381">
        <ele>637.32</ele>
        <time>2024-11-05T15:46:58.751Z</time>
      </trkpt>
      <trkpt lat="44.48312" lon="3.3139">
        <ele>637.34</ele>
        <time>2024-11-05T15:47:09.148Z</time>
      </trkpt>
      <trkpt lat="44.48308" lon="3.31396">
        <ele>637.35</ele>
        <time>2024-11-05T15:47:19.546Z</time>
      </trkpt>
      <trkpt lat="44.48288" lon="3.3142">
        <ele>637.39</ele>
        <time>2024-11-05T15:47:29.948Z</time>
      </trkpt>
      <trkpt lat="44.48274" lon="3.31433">
        <ele>637.37</ele>
        <time>2024-11-05T15:47:40.353Z</time>
      </trkpt>
      <trkpt lat="44.48262" lon="3.31445">
        <ele>637.36</ele>
        <time>2024-11-05T15:47:50.760Z</time>
      </trkpt>
      <trkpt lat="44.48259" lon="3.31447">
        <ele>637.33</ele>
        <time>2024-11-05T15:48:01.168Z</time>
      </trkpt>
      <trkpt lat="44.48244" lon="3.31459">
        <ele>637.28</ele>
        <time>2024-11-05T15:48:11.579Z</time>
      </trkpt>
      <trkpt lat="44.48224" lon="3.31474">
        <ele>637.24</ele>
        <time>2024-11-05T15:48:21.993Z</time>
      </trkpt>
      <trkpt lat="44.48212" lon="3.31483">
        <ele>637.19</ele>
        <time>2024-11-05T15:48:32.410Z</time>
      </trkpt>
      <trkpt lat="44.48204" lon="3.31489">
        <ele>637.12</ele>
        <time>2024-11-05T15:48:42.828Z</time>
      </trkpt>
      <trkpt lat="44.48196" lon="3.31495">
        <ele>637.04</ele>
        <time>2024-11-05T15:48:53.247Z</time>
      </trkpt>
      <trkpt lat="44.4818" lon="3.31507">
        <ele>636.99</ele>
        <time>2024-11-05T15:49:03.669Z</time>
      </trkpt>
      <trkpt lat="44.48162" lon="3.31524">
        <ele>636.91</ele>
        <time>2024-11-05T15:49:14.095Z</time>
      </trkpt>
      <trkpt lat="44.48153" lon="3.31533">
        <ele>636.81</ele>
        <time>2024-11-05T15:49:24.523Z</time>
      </trkpt>
      <trkpt lat="44.48138" lon="3.31552">
        <ele>636.64</ele>
        <time>2024-11-05T15:49:34.954Z</time>
      </trkpt>
      <trkpt lat="44.48131" lon="3.31561">
        <ele>636.54</ele>
        <time>2024-11-05T15:49:45.386Z</time>
      </trkpt>
      <trkpt lat="44.48112" lon="3.31587">
        <ele>636.4</ele>
        <time>2024-11-05T15:49:55.823Z</time>
      </trkpt>
      <trkpt lat="44.48079" lon="3.31634">
        <ele>636.27</ele>
        <time>2024-11-05T15:50:06.267Z</time>
      </trkpt>
      <trkpt lat="44.48078" lon="3.31637">
        <ele>636.14</ele>
        <time>2024-11-05T15:50:16.712Z</time>
      </trkpt>
      <trkpt lat="44.48072" lon="3.31646">
        <ele>636.04</ele>
        <time>2024-11-05T15:50:27.158Z</time>
      </trkpt>
      <trkpt lat="44.48058" lon="3.3167">
        <ele>635.9</ele>
        <time>2024-11-05T15:50:37.608Z</time>
      </trkpt>
      <trkpt lat="44.48055" lon="3.31675">
        <ele>635.75</ele>
        <time>2024-11-05T15:50:48.058Z</time>
      </trkpt>
      <trkpt lat="44.48052" lon="3.3168">
        <ele>635.6</ele>
        <time>2024-11-05T15:50:58.509Z</time>
      </trkpt>
      <trkpt lat="44.48046" lon="3.3169">
        <ele>635.44</ele>
        <time>2024-11-05T15:51:08.961Z</time>
      </trkpt>
      <trkpt lat="44.48038" lon="3.31704">
        <ele>635.26</ele>
        <time>2024-11-05T15:51:19.416Z</time>
      </trkpt>
      <trkpt lat="44.48026" lon="3.31724">
        <ele>635.05</ele>
        <time>2024-11-05T15:51:29.873Z</time>
      </trkpt>
      <trkpt lat="44.48021" lon="3.31733">
        <ele>634.87</ele>
        <time>2024-11-05T15:51:40.332Z</time>
      </trkpt>
      <trkpt lat="44.48021" lon="3.31734">
        <ele>634.69</ele>
        <time>2024-11-05T15:51:50.791Z</time>
      </trkpt>
      <trkpt lat="44.48014" lon="3.3175">
        <ele>634.51</ele>
        <time>2024-11-05T15:52:01.252Z</time>
      </trkpt>
      <trkpt lat="44.48009" lon="3.31764">
        <ele>634.33</ele>
        <time>2024-11-05T15:52:11.715Z</time>
      </trkpt>
      <trkpt lat="44.48007" lon="3.31773">
        <ele>634.15</ele>
        <time>2024-11-05T15:52:22.179Z</time>
      </trkpt>
      <trkpt lat="44.48" lon="3.31798">
        <ele>633.94</ele>
        <time>2024-11-05T15:52:32.646Z</time>
      </trkpt>
      <trkpt lat="44.47996" lon="3.3182">
        <ele>633.75</ele>
        <time>2024-11-05T15:52:43.116Z</time>
      </trkpt>
      <trkpt lat="44.47992" lon="3.31845">
        <ele>633.54</ele>
        <time>2024-11-05T15:52:53.589Z</time>
      </trkpt>
      <trkpt lat="44.47992" lon="3.31847">
        <ele>633.35</ele>
        <time>2024-11-05T15:53:04.062Z</time>
      </trkpt>
      <trkpt lat="44.4799" lon="3.31876">
        <ele>633.12</ele>
        <time>2024-11-05T15:53:14.538Z</time>
      </trkpt>
      <trkpt lat="44.4799" lon="3.31879">
        <ele>632.94</ele>
        <time>2024-11-05T15:53:25.014Z</time>
      </trkpt>
      <trkpt lat="44.4799" lon="3.31882">
        <ele>632.76</ele>
        <time>2024-11-05T15:53:35.491Z</time>
      </trkpt>
      <trkpt lat="44.4799" lon="3.31895">
        <ele>632.58</ele>
        <time>2024-11-05T15:53:45.969Z</time>
      </trkpt>
      <trkpt lat="44.4799" lon="3.31913">
        <ele>632.39</ele>
        <time>2024-11-05T15:53:56.449Z</time>
      </trkpt>
      <trkpt lat="44.47991" lon="3.3198">
        <ele>632.17</ele>
        <time>2024-11-05T15:54:06.937Z</time>
      </trkpt>
      <trkpt lat="44.47991" lon="3.3201">
        <ele>632.03</ele>
        <time>2024-11-05T15:54:17.428Z</time>
      </trkpt>
      <trkpt lat="44.47991" lon="3.32023">
        <ele>631.9</ele>
        <time>2024-11-05T15:54:27.921Z</time>
      </trkpt>
      <trkpt lat="44.47991" lon="3.32035">
        <ele>631.76</ele>
        <time>2024-11-05T15:54:38.415Z</time>
      </trkpt>
      <trkpt lat="44.47993" lon="3.32078">
        <ele>631.64</ele>
        <time>2024-11-05T15:54:48.914Z</time>
      </trkpt>
      <trkpt lat="44.47993" lon="3.32097">
        <ele>631.5</ele>
        <time>2024-11-05T15:54:59.415Z</time>
      </trkpt>
      <trkpt lat="44.47994" lon="3.32114">
        <ele>631.38</ele>
        <time>2024-11-05T15:55:09.918Z</time>
      </trkpt>
      <trkpt lat="44.47994" lon="3.32116">
        <ele>631.28</ele>
        <time>2024-11-05T15:55:20.422Z</time>
      </trkpt>
      <trkpt lat="44.47995" lon="3.32134">
        <ele>631.18</ele>
        <time>2024-11-05T15:55:30.928Z</time>
      </trkpt>
      <trkpt lat="44.47997" lon="3.32159">
        <ele>631.1</ele>
        <time>2024-11-05T15:55:41.437Z</time>
      </trkpt>
      <trkpt lat="44.47998" lon="3.32178">
        <ele>631.04</ele>
        <time>2024-11-05T15:55:51.948Z</time>
      </trkpt>
      <trkpt lat="44.47997" lon="3.32196">
        <ele>630.98</ele>
        <time>2024-11-05T15:56:02.461Z</time>
      </trkpt>
      <trkpt lat="44.47997" lon="3.32209">
        <ele>630.91</ele>
        <time>2024-11-05T15:56:12.975Z</time>
      </trkpt>
      <trkpt lat="44.47994" lon="3.32227">
        <ele>630.87</ele>
        <time>2024-11-05T15:56:23.491Z</time>
      </trkpt>
      <trkpt lat="44.47992" lon="3.32245">
        <ele>630.84</ele>
        <time>2024-11-05T15:56:34.010Z</time>
      </trkpt>
      <trkpt lat="44.47989" lon="3.32264">
        <ele>630.77</ele>
        <time>2024-11-05T15:56:44.531Z</time>
      </trkpt>
      <trkpt lat="44.47987" lon="3.32276">
        <ele>630.72</ele>
        <time>2024-11-05T15:56:55.053Z</time>
      </trkpt>
      <trkpt lat="44.47982" lon="3.32297">
        <ele>630.69</ele>
        <time>2024-11-05T15:57:05.578Z</time>
      </trkpt>
      <trkpt lat="44.47981" lon="3.323">
        <ele>630.67</ele>
        <time>2024-11-05T15:57:16.103Z</time>
      </trkpt>
      <trkpt lat="44.47972" lon="3.3233">
        <ele>630.68</ele>
        <time>2024-11-05T15:57:26.632Z</time>
      </trkpt>
      <trkpt lat="44.47969" lon="3.3234">
        <ele>630.69</ele>
        <time>2024-11-05T15:57:37.162Z</time>
      </trkpt>
      <trkpt lat="44.47953" lon="3.32385">
        <ele>630.76</ele>
        <time>2024-11-05T15:57:47.698Z</time>
      </trkpt>
      <trkpt lat="44.47947" lon="3.32402">
        <ele>630.75</ele>
        <time>2024-11-05T15:57:58.236Z</time>
      </trkpt>
      <trkpt lat="44.47941" lon="3.32419">
        <ele>630.75</ele>
        <time>2024-11-05T15:58:08.776Z</time>
      </trkpt>
      <trkpt lat="44.47924" lon="3.32469">
        <ele>630.75</ele>
        <time>2024-11-05T15:58:19.323Z</time>
      </trkpt>
      <trkpt lat="44.4792" lon="3.32481">
        <ele>630.78</ele>
        <time>2024-11-05T15:58:29.871Z</time>
      </trkpt>
      <trkpt lat="44.47906" lon="3.3252">
        <ele>630.83</ele>
        <time>2024-11-05T15:58:40.424Z</time>
      </trkpt>
      <trkpt lat="44.47889" lon="3.32571">
        <ele>630.83</ele>
        <time>2024-11-05T15:58:50.983Z</time>
      </trkpt>
      <trkpt lat="44.47879" lon="3.32599">
        <ele>630.88</ele>
        <time>2024-11-05T15:59:01.546Z</time>
      </trkpt>
      <trkpt lat="44.47873" lon="3.32616">
        <ele>630.93</ele>
        <time>2024-11-05T15:59:12.111Z</time>
      </trkpt>
      <trkpt lat="44.47863" lon="3.32644">
        <ele>631</ele>
        <time>2024-11-05T15:59:22.680Z</time>
      </trkpt>
      <trkpt lat="44.47858" lon="3.32661">
        <ele>631.07</ele>
        <time>2024-11-05T15:59:33.251Z</time>
      </trkpt>
      <trkpt lat="44.4785" lon="3.32684">
        <ele>631.08</ele>
        <time>2024-11-05T15:59:43.825Z</time>
      </trkpt>
      <trkpt lat="44.47846" lon="3.32695">
        <ele>631.1</ele>
        <time>2024-11-05T15:59:54.400Z</time>
      </trkpt>
      <trkpt lat="44.47836" lon="3.32723">
        <ele>631.11</ele>
        <time>2024-11-05T16:00:04.979Z</time>
      </trkpt>
      <trkpt lat="44.4782" lon="3.32768">
        <ele>631.06</ele>
        <time>2024-11-05T16:00:15.564Z</time>
      </trkpt>
      <trkpt lat="44.47815" lon="3.32785">
        <ele>631.07</ele>
        <time>2024-11-05T16:00:26.151Z</time>
      </trkpt>
      <trkpt lat="44.47809" lon="3.32802">
        <ele>631.08</ele>
        <time>2024-11-05T16:00:36.740Z</time>
      </trkpt>
      <trkpt lat="44.47809" lon="3.32802">
        <ele>631.11</ele>
        <time>2024-11-05T16:00:47.329Z</time>
      </trkpt>
      <trkpt lat="44.47809" lon="3.32802">
        <ele>631.14</ele>
        <time>2024-11-05T16:00:57.918Z</time>
      </trkpt>
      <trkpt lat="44.47809" lon="3.32802">
        <ele>631.18</ele>
        <time>2024-11-05T16:01:08.507Z</time>
      </trkpt>
      <trkpt lat="44.47809" lon="3.32802">
        <ele>631.22</ele>
        <time>2024-11-05T16:01:19.096Z</time>
      </trkpt>
      <trkpt lat="44.47796" lon="3.3284">
        <ele>631.25</ele>
        <time>2024-11-05T16:01:29.690Z</time>
      </trkpt>
      <trkpt lat="44.47792" lon="3.32851">
        <ele>631.29</ele>
        <time>2024-11-05T16:01:40.285Z</time>
      </trkpt>
      <trkpt lat="44.47786" lon="3.32867">
        <ele>631.33</ele>
        <time>2024-11-05T16:01:50.882Z</time>
      </trkpt>
      <trkpt lat="44.47782" lon="3.32879">
        <ele>631.37</ele>
        <time>2024-11-05T16:02:01.481Z</time>
      </trkpt>
      <trkpt lat="44.47772" lon="3.32905">
        <ele>631.39</ele>
        <time>2024-11-05T16:02:12.083Z</time>
      </trkpt>
      <trkpt lat="44.47768" lon="3.32916">
        <ele>631.43</ele>
        <time>2024-11-05T16:02:22.686Z</time>
      </trkpt>
      <trkpt lat="44.47755" lon="3.32949">
        <ele>631.47</ele>
        <time>2024-11-05T16:02:33.294Z</time>
      </trkpt>
      <trkpt lat="44.4775" lon="3.3296">
        <ele>631.51</ele>
        <time>2024-11-05T16:02:43.903Z</time>
      </trkpt>
      <trkpt lat="44.47748" lon="3.32966">
        <ele>631.54</ele>
        <time>2024-11-05T16:02:54.513Z</time>
      </trkpt>
      <trkpt lat="44.47746" lon="3.3297">
        <ele>631.59</ele>
        <time>2024-11-05T16:03:05.124Z</time>
      </trkpt>
      <trkpt lat="44.47739" lon="3.32986">
        <ele>631.64</ele>
        <time>2024-11-05T16:03:15.737Z</time>
      </trkpt>
      <trkpt lat="44.47729" lon="3.33007">
        <ele>631.69</ele>
        <time>2024-11-05T16:03:26.353Z</time>
      </trkpt>
      <trkpt lat="44.47727" lon="3.33012">
        <ele>631.73</ele>
        <time>2024-11-05T16:03:36.969Z</time>
      </trkpt>
      <trkpt lat="44.4771" lon="3.33041">
        <ele>631.78</ele>
        <time>2024-11-05T16:03:47.590Z</time>
      </trkpt>
      <trkpt lat="44.4769" lon="3.33074">
        <ele>631.85</ele>
        <time>2024-11-05T16:03:58.215Z</time>
      </trkpt>
      <trkpt lat="44.47668" lon="3.33106">
        <ele>631.91</ele>
        <time>2024-11-05T16:04:08.846Z</time>
      </trkpt>
      <trkpt lat="44.47637" lon="3.33147">
        <ele>631.93</ele>
        <time>2024-11-05T16:04:19.483Z</time>
      </trkpt>
      <trkpt lat="44.47634" lon="3.33151">
        <ele>631.94</ele>
        <time>2024-11-05T16:04:30.121Z</time>
      </trkpt>
      <trkpt lat="44.47627" lon="3.33159">
        <ele>631.93</ele>
        <time>2024-11-05T16:04:40.761Z</time>
      </trkpt>
      <trkpt lat="44.47613" lon="3.33174">
        <ele>631.91</ele>
        <time>2024-11-05T16:04:51.403Z</time>
      </trkpt>
      <trkpt lat="44.47603" lon="3.33186">
        <ele>631.92</ele>
        <time>2024-11-05T16:05:02.047Z</time>
      </trkpt>
      <trkpt lat="44.47582" lon="3.33209">
        <ele>631.93</ele>
        <time>2024-11-05T16:05:12.696Z</time>
      </trkpt>
      <trkpt lat="44.47572" lon="3.3322">
        <ele>631.93</ele>
        <time>2024-11-05T16:05:23.347Z</time>
      </trkpt>
      <trkpt lat="44.47562" lon="3.33232">
        <ele>631.92</ele>
        <time>2024-11-05T16:05:34.000Z</time>
      </trkpt>
      <trkpt lat="44.47548" lon="3.33248">
        <ele>631.89</ele>
        <time>2024-11-05T16:05:44.656Z</time>
      </trkpt>
      <trkpt lat="44.47543" lon="3.33253">
        <ele>631.85</ele>
        <time>2024-11-05T16:05:55.313Z</time>
      </trkpt>
      <trkpt lat="44.47518" lon="3.33284">
        <ele>631.79</ele>
        <time>2024-11-05T16:06:05.975Z</time>
      </trkpt>
      <trkpt lat="44.47505" lon="3.33301">
        <ele>631.72</ele>
        <time>2024-11-05T16:06:16.640Z</time>
      </trkpt>
      <trkpt lat="44.47489" lon="3.33322">
        <ele>631.66</ele>
        <time>2024-11-05T16:06:27.308Z</time>
      </trkpt>
      <trkpt lat="44.47476" lon="3.33338">
        <ele>631.59</ele>
        <time>2024-11-05T16:06:37.979Z</time>
      </trkpt>
      <trkpt lat="44.47461" lon="3.33357">
        <ele>631.52</ele>
        <time>2024-11-05T16:06:48.653Z</time>
      </trkpt>
      <trkpt lat="44.47457" lon="3.3336">
        <ele>631.42</ele>
        <time>2024-11-05T16:06:59.328Z</time>
      </trkpt>
      <trkpt lat="44.47449" lon="3.33366">
        <ele>631.32</ele>
        <time>2024-11-05T16:07:10.005Z</time>
      </trkpt>
      <trkpt lat="44.47446" lon="3.33367">
        <ele>631.22</ele>
        <time>2024-11-05T16:07:20.682Z</time>
      </trkpt>
      <trkpt lat="44.47434" lon="3.3337">
        <ele>631.1</ele>
        <time>2024-11-05T16:07:31.361Z</time>
      </trkpt>
      <trkpt lat="44.47425" lon="3.33372">
        <ele>630.98</ele>
        <time>2024-11-05T16:07:42.042Z</time>
      </trkpt>
      <trkpt lat="44.47416" lon="3.33372">
        <ele>630.85</ele>
        <time>2024-11-05T16:07:52.724Z</time>
      </trkpt>
      <trkpt lat="44.4741" lon="3.33374">
        <ele>630.73</ele>
        <time>2024-11-05T16:08:03.407Z</time>
      </trkpt>
      <trkpt lat="44.47401" lon="3.33376">
        <ele>630.6</ele>
        <time>2024-11-05T16:08:14.091Z</time>
      </trkpt>
      <trkpt lat="44.47393" lon="3.33381">
        <ele>630.46</ele>
        <time>2024-11-05T16:08:24.777Z</time>
      </trkpt>
      <trkpt lat="44.47379" lon="3.3339">
        <ele>630.31</ele>
        <time>2024-11-05T16:08:35.465Z</time>
      </trkpt>
      <trkpt lat="44.47377" lon="3.33392">
        <ele>630.17</ele>
        <time>2024-11-05T16:08:46.154Z</time>
      </trkpt>
      <trkpt lat="44.47365" lon="3.33402">
        <ele>630.01</ele>
        <time>2024-11-05T16:08:56.845Z</time>
      </trkpt>
      <trkpt lat="44.47346" lon="3.33418">
        <ele>629.85</ele>
        <time>2024-11-05T16:09:07.539Z</time>
      </trkpt>
      <trkpt lat="44.47339" lon="3.33425">
        <ele>629.71</ele>
        <time>2024-11-05T16:09:18.235Z</time>
      </trkpt>
      <trkpt lat="44.47331" lon="3.33431">
        <ele>629.56</ele>
        <time>2024-11-05T16:09:28.932Z</time>
      </trkpt>
      <trkpt lat="44.47323" lon="3.33438">
        <ele>629.42</ele>
        <time>2024-11-05T16:09:39.631Z</time>
      </trkpt>
      <trkpt lat="44.47301" lon="3.33452">
        <ele>629.29</ele>
        <time>2024-11-05T16:09:50.334Z</time>
      </trkpt>
      <trkpt lat="44.47296" lon="3.33455">
        <ele>629.16</ele>
        <time>2024-11-05T16:10:01.038Z</time>
      </trkpt>
      <trkpt lat="44.47289" lon="3.33459">
        <ele>629.05</ele>
        <time>2024-11-05T16:10:11.743Z</time>
      </trkpt>
      <trkpt lat="44.47269" lon="3.33469">
        <ele>628.94</ele>
        <time>2024-11-05T16:10:22.451Z</time>
      </trkpt>
      <trkpt lat="44.47257" lon="3.33474">
        <ele>628.84</ele>
        <time>2024-11-05T16:10:33.161Z</time>
      </trkpt>
      <trkpt lat="44.4724" lon="3.33482">
        <ele>628.78</ele>
        <time>2024-11-05T16:10:43.874Z</time>
      </trkpt>
      <trkpt lat="44.47211" lon="3.33495">
        <ele>628.74</ele>
        <time>2024-11-05T16:10:54.592Z</time>
      </trkpt>
      <trkpt lat="44.47202" lon="3.33499">
        <ele>628.69</ele>
        <time>2024-11-05T16:11:05.311Z</time>
      </trkpt>
      <trkpt lat="44.47186" lon="3.33508">
        <ele>628.65</ele>
        <time>2024-11-05T16:11:16.033Z</time>
      </trkpt>
      <trkpt lat="44.47173" lon="3.33515">
        <ele>628.62</ele>
        <time>2024-11-05T16:11:26.757Z</time>
      </trkpt>
      <trkpt lat="44.47151" lon="3.33531">
        <ele>628.59</ele>
        <time>2024-11-05T16:11:37.485Z</time>
      </trkpt>
      <trkpt lat="44.4715" lon="3.33533">
        <ele>628.59</ele>
        <time>2024-11-05T16:11:48.214Z</time>
      </trkpt>
      <trkpt lat="44.47136" lon="3.33549">
        <ele>628.59</ele>
        <time>2024-11-05T16:11:58.946Z</time>
      </trkpt>
      <trkpt lat="44.47129" lon="3.33557">
        <ele>628.62</ele>
        <time>2024-11-05T16:12:09.679Z</time>
      </trkpt>
      <trkpt lat="44.47122" lon="3.33549">
        <ele>628.65</ele>
        <time>2024-11-05T16:12:20.413Z</time>
      </trkpt>
      <trkpt lat="44.47114" lon="3.3354">
        <ele>628.7</ele>
        <time>2024-11-05T16:12:31.149Z</time>
      </trkpt>
      <trkpt lat="44.47112" lon="3.3354">
        <ele>628.79</ele>
        <time>2024-11-05T16:12:41.885Z</time>
      </trkpt>
      <trkpt lat="44.47099" lon="3.33542">
        <ele>628.9</ele>
        <time>2024-11-05T16:12:52.623Z</time>
      </trkpt>
      <trkpt lat="44.4709" lon="3.33544">
        <ele>629.04</ele>
        <time>2024-11-05T16:13:03.363Z</time>
      </trkpt>
      <trkpt lat="44.4709" lon="3.33544">
        <ele>629.21</ele>
        <time>2024-11-05T16:13:14.103Z</time>
      </trkpt>
      <trkpt lat="44.47082" lon="3.33536">
        <ele>629.38</ele>
        <time>2024-11-05T16:13:24.845Z</time>
      </trkpt>
      <trkpt lat="44.47074" lon="3.33515">
        <ele>629.59</ele>
        <time>2024-11-05T16:13:35.589Z</time>
      </trkpt>
      <trkpt lat="44.47068" lon="3.33499">
        <ele>629.85</ele>
        <time>2024-11-05T16:13:46.335Z</time>
      </trkpt>
      <trkpt lat="44.47064" lon="3.33487">
        <ele>630.15</ele>
        <time>2024-11-05T16:13:57.083Z</time>
      </trkpt>
      <trkpt lat="44.47064" lon="3.33485">
        <ele>630.45</ele>
        <time>2024-11-05T16:14:07.831Z</time>
      </trkpt>
      <trkpt lat="44.47063" lon="3.33472">
        <ele>630.8</ele>
        <time>2024-11-05T16:14:18.581Z</time>
      </trkpt>
      <trkpt lat="44.47062" lon="3.33467">
        <ele>631.16</ele>
        <time>2024-11-05T16:14:29.331Z</time>
      </trkpt>
      <trkpt lat="44.47057" lon="3.33449">
        <ele>631.59</ele>
        <time>2024-11-05T16:14:40.083Z</time>
      </trkpt>
      <trkpt lat="44.47055" lon="3.33444">
        <ele>632.01</ele>
        <time>2024-11-05T16:14:50.836Z</time>
      </trkpt>
      <trkpt lat="44.4705" lon="3.33433">
        <ele>632.45</ele>
        <time>2024-11-05T16:15:01.590Z</time>
      </trkpt>
      <trkpt lat="44.47049" lon="3.33431">
        <ele>632.9</ele>
        <time>2024-11-05T16:15:12.345Z</time>
      </trkpt>
      <trkpt lat="44.47043" lon="3.33426">
        <ele>633.38</ele>
        <time>2024-11-05T16:15:23.101Z</time>
      </trkpt>
      <trkpt lat="44.47033" lon="3.33419">
        <ele>633.9</ele>
        <time>2024-11-05T16:15:33.859Z</time>
      </trkpt>
      <trkpt lat="44.47023" lon="3.33416">
        <ele>634.44</ele>
        <time>2024-11-05T16:15:44.618Z</time>
      </trkpt>
      <trkpt lat="44.47017" lon="3.33416">
        <ele>634.98</ele>
        <time>2024-11-05T16:15:55.378Z</time>
      </trkpt>
      <trkpt lat="44.4701" lon="3.33417">
        <ele>635.54</ele>
        <time>2024-11-05T16:16:06.139Z</time>
      </trkpt>
      <trkpt lat="44.47008" lon="3.33418">
        <ele>636.08</ele>
        <time>2024-11-05T16:16:16.901Z</time>
      </trkpt>
      <trkpt lat="44.47" lon="3.33421">
        <ele>636.66</ele>
        <time>2024-11-05T16:16:27.664Z</time>
      </trkpt>
      <trkpt lat="44.46982" lon="3.33428">
        <ele>637.28</ele>
        <time>2024-11-05T16:16:38.430Z</time>
      </trkpt>
      <trkpt lat="44.46974" lon="3.33431">
        <ele>637.87</ele>
        <time>2024-11-05T16:16:49.197Z</time>
      </trkpt>
      <trkpt lat="44.46965" lon="3.33435">
        <ele>638.47</ele>
        <time>2024-11-05T16:16:59.966Z</time>
      </trkpt>
      <trkpt lat="44.46957" lon="3.33438">
        <ele>639.06</ele>
        <time>2024-11-05T16:17:10.736Z</time>
      </trkpt>
      <trkpt lat="44.46946" lon="3.33442">
        <ele>639.66</ele>
        <time>2024-11-05T16:17:21.508Z</time>
      </trkpt>
      <trkpt lat="44.46944" lon="3.33443">
        <ele>640.26</ele>
        <time>2024-11-05T16:17:32.280Z</time>
      </trkpt>
      <trkpt lat="44.46935" lon="3.33445">
        <ele>640.88</ele>
        <time>2024-11-05T16:17:43.054Z</time>
      </trkpt>
      <trkpt lat="44.46926" lon="3.33447">
        <ele>641.5</ele>
        <time>2024-11-05T16:17:53.829Z</time>
      </trkpt>
      <trkpt lat="44.46921" lon="3.33448">
        <ele>642.11</ele>
        <time>2024-11-05T16:18:04.605Z</time>
      </trkpt>
      <trkpt lat="44.46913" lon="3.3345">
        <ele>642.73</ele>
        <time>2024-11-05T16:18:15.382Z</time>
      </trkpt>
      <trkpt lat="44.46898" lon="3.33453">
        <ele>643.37</ele>
        <time>2024-11-05T16:18:26.162Z</time>
      </trkpt>
      <trkpt lat="44.46891" lon="3.33456">
        <ele>643.98</ele>
        <time>2024-11-05T16:18:36.943Z</time>
      </trkpt>
      <trkpt lat="44.46883" lon="3.33459">
        <ele>644.62</ele>
        <time>2024-11-05T16:18:47.725Z</time>
      </trkpt>
      <trkpt lat="44.46882" lon="3.3346">
        <ele>645.23</ele>
        <time>2024-11-05T16:18:58.508Z</time>
      </trkpt>
      <trkpt lat="44.46874" lon="3.33465">
        <ele>645.86</ele>
        <time>2024-11-05T16:19:09.292Z</time>
      </trkpt>
      <trkpt lat="44.46865" lon="3.3347">
        <ele>646.5</ele>
        <time>2024-11-05T16:19:20.077Z</time>
      </trkpt>
      <trkpt lat="44.4685" lon="3.33483">
        <ele>647.15</ele>
        <time>2024-11-05T16:19:30.865Z</time>
      </trkpt>
      <trkpt lat="44.46847" lon="3.33487">
        <ele>647.74</ele>
        <time>2024-11-05T16:19:41.654Z</time>
      </trkpt>
      <trkpt lat="44.46834" lon="3.33504">
        <ele>648.33</ele>
        <time>2024-11-05T16:19:52.446Z</time>
      </trkpt>
      <trkpt lat="44.46826" lon="3.33514">
        <ele>648.93</ele>
        <time>2024-11-05T16:20:03.240Z</time>
      </trkpt>
      <trkpt lat="44.46805" lon="3.3356">
        <ele>649.54</ele>
        <time>2024-11-05T16:20:14.040Z</time>
      </trkpt>
      <trkpt lat="44.46801" lon="3.33569">
        <ele>650.11</ele>
        <time>2024-11-05T16:20:24.841Z</time>
      </trkpt>
      <trkpt lat="44.468" lon="3.33571">
        <ele>650.67</ele>
        <time>2024-11-05T16:20:35.642Z</time>
      </trkpt>
      <trkpt lat="44.46792" lon="3.33593">
        <ele>651.34</ele>
        <time>2024-11-05T16:20:46.446Z</time>
      </trkpt>
      <trkpt lat="44.46779" lon="3.33633">
        <ele>652</ele>
        <time>2024-11-05T16:20:57.255Z</time>
      </trkpt>
      <trkpt lat="44.46775" lon="3.33644">
        <ele>652.58</ele>
        <time>2024-11-05T16:21:08.066Z</time>
      </trkpt>
      <trkpt lat="44.46771" lon="3.33655">
        <ele>653.13</ele>
        <time>2024-11-05T16:21:18.878Z</time>
      </trkpt>
      <trkpt lat="44.46766" lon="3.33668">
        <ele>653.68</ele>
        <time>2024-11-05T16:21:29.692Z</time>
      </trkpt>
      <trkpt lat="44.46761" lon="3.33684">
        <ele>654.2</ele>
        <time>2024-11-05T16:21:40.508Z</time>
      </trkpt>
      <trkpt lat="44.46757" lon="3.33695">
        <ele>654.68</ele>
        <time>2024-11-05T16:21:51.325Z</time>
      </trkpt>
      <trkpt lat="44.46752" lon="3.33713">
        <ele>655.06</ele>
        <time>2024-11-05T16:22:02.144Z</time>
      </trkpt>
      <trkpt lat="44.46748" lon="3.33724">
        <ele>655.52</ele>
        <time>2024-11-05T16:22:12.965Z</time>
      </trkpt>
      <trkpt lat="44.46747" lon="3.3373">
        <ele>656.04</ele>
        <time>2024-11-05T16:22:23.786Z</time>
      </trkpt>
      <trkpt lat="44.46745" lon="3.33735">
        <ele>656.54</ele>
        <time>2024-11-05T16:22:34.608Z</time>
      </trkpt>
      <trkpt lat="44.46744" lon="3.33748">
        <ele>657</ele>
        <time>2024-11-05T16:22:45.432Z</time>
      </trkpt>
      <trkpt lat="44.4674" lon="3.33779">
        <ele>657.46</ele>
        <time>2024-11-05T16:22:56.259Z</time>
      </trkpt>
      <trkpt lat="44.46739" lon="3.33792">
        <ele>657.99</ele>
        <time>2024-11-05T16:23:07.088Z</time>
      </trkpt>
      <trkpt lat="44.46737" lon="3.3381">
        <ele>658.47</ele>
        <time>2024-11-05T16:23:17.919Z</time>
      </trkpt>
      <trkpt lat="44.46735" lon="3.33829">
        <ele>658.96</ele>
        <time>2024-11-05T16:23:28.752Z</time>
      </trkpt>
      <trkpt lat="44.46734" lon="3.33841">
        <ele>659.44</ele>
        <time>2024-11-05T16:23:39.586Z</time>
      </trkpt>
      <trkpt lat="44.46731" lon="3.33866">
        <ele>659.91</ele>
        <time>2024-11-05T16:23:50.423Z</time>
      </trkpt>
      <trkpt lat="44.4673" lon="3.33879">
        <ele>660.39</ele>
        <time>2024-11-05T16:24:01.262Z</time>
      </trkpt>
      <trkpt lat="44.46729" lon="3.33885">
        <ele>660.87</ele>
        <time>2024-11-05T16:24:12.101Z</time>
      </trkpt>
      <trkpt lat="44.46728" lon="3.33897">
        <ele>661.39</ele>
        <time>2024-11-05T16:24:22.942Z</time>
      </trkpt>
      <trkpt lat="44.46727" lon="3.33904">
        <ele>661.91</ele>
        <time>2024-11-05T16:24:33.784Z</time>
      </trkpt>
      <trkpt lat="44.46726" lon="3.33916">
        <ele>662.44</ele>
        <time>2024-11-05T16:24:44.627Z</time>
      </trkpt>
      <trkpt lat="44.46725" lon="3.33929">
        <ele>662.98</ele>
        <time>2024-11-05T16:24:55.471Z</time>
      </trkpt>
      <trkpt lat="44.46723" lon="3.33941">
        <ele>663.52</ele>
        <time>2024-11-05T16:25:06.317Z</time>
      </trkpt>
      <trkpt lat="44.46721" lon="3.3396">
        <ele>664.11</ele>
        <time>2024-11-05T16:25:17.165Z</time>
      </trkpt>
      <trkpt lat="44.46719" lon="3.33978">
        <ele>664.71</ele>
        <time>2024-11-05T16:25:28.015Z</time>
      </trkpt>
      <trkpt lat="44.46717" lon="3.33997">
        <ele>665.31</ele>
        <time>2024-11-05T16:25:38.867Z</time>
      </trkpt>
      <trkpt lat="44.46716" lon="3.3401">
        <ele>665.87</ele>
        <time>2024-11-05T16:25:49.721Z</time>
      </trkpt>
      <trkpt lat="44.46713" lon="3.34034">
        <ele>666.46</ele>
        <time>2024-11-05T16:26:00.578Z</time>
      </trkpt>
      <trkpt lat="44.46713" lon="3.34037">
        <ele>667.05</ele>
        <time>2024-11-05T16:26:11.435Z</time>
      </trkpt>
      <trkpt lat="44.46708" lon="3.34044">
        <ele>667.66</ele>
        <time>2024-11-05T16:26:22.293Z</time>
      </trkpt>
      <trkpt lat="44.46694" lon="3.34032">
        <ele>668.33</ele>
        <time>2024-11-05T16:26:33.154Z</time>
      </trkpt>
      <trkpt lat="44.46687" lon="3.34026">
        <ele>668.96</ele>
        <time>2024-11-05T16:26:44.016Z</time>
      </trkpt>
      <trkpt lat="44.4668" lon="3.3402">
        <ele>669.6</ele>
        <time>2024-11-05T16:26:54.879Z</time>
      </trkpt>
      <trkpt lat="44.46672" lon="3.34013">
        <ele>670.24</ele>
        <time>2024-11-05T16:27:05.744Z</time>
      </trkpt>
      <trkpt lat="44.46665" lon="3.34005">
        <ele>670.9</ele>
        <time>2024-11-05T16:27:16.610Z</time>
      </trkpt>
      <trkpt lat="44.46658" lon="3.33998">
        <ele>671.56</ele>
        <time>2024-11-05T16:27:27.478Z</time>
      </trkpt>
      <trkpt lat="44.46657" lon="3.33998">
        <ele>672.21</ele>
        <time>2024-11-05T16:27:38.346Z</time>
      </trkpt>
      <trkpt lat="44.46652" lon="3.3399">
        <ele>672.88</ele>
        <time>2024-11-05T16:27:49.215Z</time>
      </trkpt>
      <trkpt lat="44.46643" lon="3.33976">
        <ele>673.57</ele>
        <time>2024-11-05T16:28:00.086Z</time>
      </trkpt>
      <trkpt lat="44.46641" lon="3.33972">
        <ele>674.25</ele>
        <time>2024-11-05T16:28:10.958Z</time>
      </trkpt>
      <trkpt lat="44.46632" lon="3.33952">
        <ele>674.95</ele>
        <time>2024-11-05T16:28:21.833Z</time>
      </trkpt>
      <trkpt lat="44.46626" lon="3.33933">
        <ele>675.65</ele>
        <time>2024-11-05T16:28:32.710Z</time>
      </trkpt>
      <trkpt lat="44.46608" lon="3.3387">
        <ele>676.47</ele>
        <time>2024-11-05T16:28:43.595Z</time>
      </trkpt>
      <trkpt lat="44.46601" lon="3.33848">
        <ele>677.2</ele>
        <time>2024-11-05T16:28:54.482Z</time>
      </trkpt>
      <trkpt lat="44.46598" lon="3.33835">
        <ele>677.94</ele>
        <time>2024-11-05T16:29:05.371Z</time>
      </trkpt>
      <trkpt lat="44.46594" lon="3.33823">
        <ele>678.69</ele>
        <time>2024-11-05T16:29:16.262Z</time>
      </trkpt>
      <trkpt lat="44.46592" lon="3.33818">
        <ele>679.44</ele>
        <time>2024-11-05T16:29:27.153Z</time>
      </trkpt>
      <trkpt lat="44.46585" lon="3.33797">
        <ele>680.24</ele>
        <time>2024-11-05T16:29:38.047Z</time>
      </trkpt>
      <trkpt lat="44.4657" lon="3.33774">
        <ele>681.04</ele>
        <time>2024-11-05T16:29:48.944Z</time>
      </trkpt>
      <trkpt lat="44.46567" lon="3.33769">
        <ele>681.83</ele>
        <time>2024-11-05T16:29:59.842Z</time>
      </trkpt>
      <trkpt lat="44.4655" lon="3.33753">
        <ele>682.64</ele>
        <time>2024-11-05T16:30:10.743Z</time>
      </trkpt>
      <trkpt lat="44.46549" lon="3.33753">
        <ele>683.43</ele>
        <time>2024-11-05T16:30:21.645Z</time>
      </trkpt>
      <trkpt lat="44.46538" lon="3.33745">
        <ele>684.23</ele>
        <time>2024-11-05T16:30:32.549Z</time>
      </trkpt>
      <trkpt lat="44.46529" lon="3.33739">
        <ele>685.06</ele>
        <time>2024-11-05T16:30:43.454Z</time>
      </trkpt>
      <trkpt lat="44.46505" lon="3.33725">
        <ele>685.96</ele>
        <time>2024-11-05T16:30:54.363Z</time>
      </trkpt>
      <trkpt lat="44.46492" lon="3.33717">
        <ele>686.84</ele>
        <time>2024-11-05T16:31:05.275Z</time>
      </trkpt>
      <trkpt lat="44.46483" lon="3.33712">
        <ele>687.69</ele>
        <time>2024-11-05T16:31:16.188Z</time>
      </trkpt>
      <trkpt lat="44.46471" lon="3.33706">
        <ele>688.55</ele>
        <time>2024-11-05T16:31:27.103Z</time>
      </trkpt>
      <trkpt lat="44.46446" lon="3.33694">
        <ele>689.39</ele>
        <time>2024-11-05T16:31:38.022Z</time>
      </trkpt>
      <trkpt lat="44.4643" lon="3.33686">
        <ele>690.28</ele>
        <time>2024-11-05T16:31:48.944Z</time>
      </trkpt>
      <trkpt lat="44.46413" lon="3.33675">
        <ele>691.2</ele>
        <time>2024-11-05T16:31:59.869Z</time>
      </trkpt>
      <trkpt lat="44.46376" lon="3.33653">
        <ele>692.1</ele>
        <time>2024-11-05T16:32:10.801Z</time>
      </trkpt>
      <trkpt lat="44.46368" lon="3.33648">
        <ele>692.96</ele>
        <time>2024-11-05T16:32:21.734Z</time>
      </trkpt>
      <trkpt lat="44.46349" lon="3.33633">
        <ele>693.85</ele>
        <time>2024-11-05T16:32:32.670Z</time>
      </trkpt>
      <trkpt lat="44.46347" lon="3.33632">
        <ele>694.74</ele>
        <time>2024-11-05T16:32:43.607Z</time>
      </trkpt>
      <trkpt lat="44.46331" lon="3.33616">
        <ele>695.67</ele>
        <time>2024-11-05T16:32:54.547Z</time>
      </trkpt>
      <trkpt lat="44.46302" lon="3.33588">
        <ele>696.6</ele>
        <time>2024-11-05T16:33:05.493Z</time>
      </trkpt>
      <trkpt lat="44.46287" lon="3.33574">
        <ele>697.54</ele>
        <time>2024-11-05T16:33:16.441Z</time>
      </trkpt>
      <trkpt lat="44.46282" lon="3.33569">
        <ele>698.46</ele>
        <time>2024-11-05T16:33:27.390Z</time>
      </trkpt>
      <trkpt lat="44.46276" lon="3.33564">
        <ele>699.38</ele>
        <time>2024-11-05T16:33:38.341Z</time>
      </trkpt>
      <trkpt lat="44.46249" lon="3.33543">
        <ele>700.31</ele>
        <time>2024-11-05T16:33:49.296Z</time>
      </trkpt>
      <trkpt lat="44.46241" lon="3.33537">
        <ele>701.21</ele>
        <time>2024-11-05T16:34:00.253Z</time>
      </trkpt>
      <trkpt lat="44.46237" lon="3.33535">
        <ele>702.12</ele>
        <time>2024-11-05T16:34:11.211Z</time>
      </trkpt>
      <trkpt lat="44.46229" lon="3.33529">
        <ele>703.03</ele>
        <time>2024-11-05T16:34:22.170Z</time>
      </trkpt>
      <trkpt lat="44.46209" lon="3.33516">
        <ele>703.96</ele>
        <time>2024-11-05T16:34:33.133Z</time>
      </trkpt>
      <trkpt lat="44.46193" lon="3.33505">
        <ele>704.92</ele>
        <time>2024-11-05T16:34:44.098Z</time>
      </trkpt>
      <trkpt lat="44.46166" lon="3.33488">
        <ele>705.97</ele>
        <time>2024-11-05T16:34:55.068Z</time>
      </trkpt>
      <trkpt lat="44.4616" lon="3.33485">
        <ele>706.93</ele>
        <time>2024-11-05T16:35:06.039Z</time>
      </trkpt>
      <trkpt lat="44.46147" lon="3.3348">
        <ele>707.91</ele>
        <time>2024-11-05T16:35:17.012Z</time>
      </trkpt>
      <trkpt lat="44.46139" lon="3.33476">
        <ele>708.87</ele>
        <time>2024-11-05T16:35:27.987Z</time>
      </trkpt>
      <trkpt lat="44.46117" lon="3.33467">
        <ele>709.91</ele>
        <time>2024-11-05T16:35:38.965Z</time>
      </trkpt>
      <trkpt lat="44.46109" lon="3.33463">
        <ele>710.89</ele>
        <time>2024-11-05T16:35:49.945Z</time>
      </trkpt>
      <trkpt lat="44.46098" lon="3.33458">
        <ele>711.88</ele>
        <time>2024-11-05T16:36:00.927Z</time>
      </trkpt>
      <trkpt lat="44.46079" lon="3.3345">
        <ele>712.87</ele>
        <time>2024-11-05T16:36:11.912Z</time>
      </trkpt>
      <trkpt lat="44.46053" lon="3.3344">
        <ele>713.88</ele>
        <time>2024-11-05T16:36:22.901Z</time>
      </trkpt>
      <trkpt lat="44.4604" lon="3.33435">
        <ele>714.85</ele>
        <time>2024-11-05T16:36:33.892Z</time>
      </trkpt>
      <trkpt lat="44.45999" lon="3.33419">
        <ele>715.91</ele>
        <time>2024-11-05T16:36:44.890Z</time>
      </trkpt>
      <trkpt lat="44.45988" lon="3.33415">
        <ele>716.89</ele>
        <time>2024-11-05T16:36:55.890Z</time>
      </trkpt>
      <trkpt lat="44.45957" lon="3.33405">
        <ele>717.96</ele>
        <time>2024-11-05T16:37:06.895Z</time>
      </trkpt>
      <trkpt lat="44.45944" lon="3.33401">
        <ele>719</ele>
        <time>2024-11-05T16:37:17.902Z</time>
      </trkpt>
      <trkpt lat="44.45919" lon="3.33407">
        <ele>719.98</ele>
        <time>2024-11-05T16:37:28.913Z</time>
      </trkpt>
      <trkpt lat="44.45897" lon="3.33418">
        <ele>720.89</ele>
        <time>2024-11-05T16:37:39.928Z</time>
      </trkpt>
      <trkpt lat="44.45888" lon="3.33422">
        <ele>721.83</ele>
        <time>2024-11-05T16:37:50.944Z</time>
      </trkpt>
      <trkpt lat="44.4588" lon="3.33427">
        <ele>722.76</ele>
        <time>2024-11-05T16:38:01.962Z</time>
      </trkpt>
      <trkpt lat="44.45872" lon="3.33431">
        <ele>723.7</ele>
        <time>2024-11-05T16:38:12.981Z</time>
      </trkpt>
      <trkpt lat="44.45855" lon="3.33439">
        <ele>724.63</ele>
        <time>2024-11-05T16:38:24.003Z</time>
      </trkpt>
      <trkpt lat="44.45855" lon="3.33439">
        <ele>725.6</ele>
        <time>2024-11-05T16:38:35.025Z</time>
      </trkpt>
      <trkpt lat="44.45846" lon="3.3344">
        <ele>726.62</ele>
        <time>2024-11-05T16:38:46.049Z</time>
      </trkpt>
      <trkpt lat="44.45831" lon="3.33442">
        <ele>727.66</ele>
        <time>2024-11-05T16:38:57.075Z</time>
      </trkpt>
      <trkpt lat="44.45824" lon="3.33439">
        <ele>728.67</ele>
        <time>2024-11-05T16:39:08.102Z</time>
      </trkpt>
      <trkpt lat="44.45811" lon="3.33433">
        <ele>729.69</ele>
        <time>2024-11-05T16:39:19.131Z</time>
      </trkpt>
      <trkpt lat="44.45799" lon="3.33428">
        <ele>730.72</ele>
        <time>2024-11-05T16:39:30.162Z</time>
      </trkpt>
      <trkpt lat="44.45794" lon="3.33425">
        <ele>731.74</ele>
        <time>2024-11-05T16:39:41.194Z</time>
      </trkpt>
      <trkpt lat="44.45782" lon="3.33417">
        <ele>732.78</ele>
        <time>2024-11-05T16:39:52.228Z</time>
      </trkpt>
      <trkpt lat="44.45773" lon="3.33411">
        <ele>733.82</ele>
        <time>2024-11-05T16:40:03.264Z</time>
      </trkpt>
      <trkpt lat="44.45761" lon="3.33405">
        <ele>734.86</ele>
        <time>2024-11-05T16:40:14.302Z</time>
      </trkpt>
      <trkpt lat="44.45736" lon="3.33392">
        <ele>735.88</ele>
        <time>2024-11-05T16:40:25.344Z</time>
      </trkpt>
      <trkpt lat="44.45723" lon="3.33385">
        <ele>736.93</ele>
        <time>2024-11-05T16:40:36.388Z</time>
      </trkpt>
      <trkpt lat="44.45707" lon="3.33376">
        <ele>738.05</ele>
        <time>2024-11-05T16:40:47.435Z</time>
      </trkpt>
      <trkpt lat="44.45685" lon="3.33365">
        <ele>739.22</ele>
        <time>2024-11-05T16:40:58.486Z</time>
      </trkpt>
      <trkpt lat="44.45673" lon="3.3336">
        <ele>740.35</ele>
        <time>2024-11-05T16:41:09.539Z</time>
      </trkpt>
      <trkpt lat="44.45642" lon="3.33349">
        <ele>741.74</ele>
        <time>2024-11-05T16:41:20.597Z</time>
      </trkpt>
      <trkpt lat="44.4564" lon="3.33348">
        <ele>742.91</ele>
        <time>2024-11-05T16:41:31.655Z</time>
      </trkpt>
      <trkpt lat="44.4562" lon="3.33344">
        <ele>744.06</ele>
        <time>2024-11-05T16:41:42.717Z</time>
      </trkpt>
      <trkpt lat="44.45601" lon="3.33339">
        <ele>745.25</ele>
        <time>2024-11-05T16:41:53.782Z</time>
      </trkpt>
      <trkpt lat="44.45598" lon="3.33338">
        <ele>746.43</ele>
        <time>2024-11-05T16:42:04.847Z</time>
      </trkpt>
      <trkpt lat="44.45585" lon="3.33334">
        <ele>747.65</ele>
        <time>2024-11-05T16:42:15.914Z</time>
      </trkpt>
      <trkpt lat="44.45555" lon="3.33325">
        <ele>748.85</ele>
        <time>2024-11-05T16:42:26.986Z</time>
      </trkpt>
      <trkpt lat="44.45542" lon="3.33321">
        <ele>750.06</ele>
        <time>2024-11-05T16:42:38.060Z</time>
      </trkpt>
      <trkpt lat="44.45525" lon="3.33312">
        <ele>751.36</ele>
        <time>2024-11-05T16:42:49.137Z</time>
      </trkpt>
      <trkpt lat="44.45508" lon="3.33304">
        <ele>752.68</ele>
        <time>2024-11-05T16:43:00.217Z</time>
      </trkpt>
      <trkpt lat="44.455" lon="3.33298">
        <ele>753.95</ele>
        <time>2024-11-05T16:43:11.299Z</time>
      </trkpt>
      <trkpt lat="44.45493" lon="3.33292">
        <ele>755.17</ele>
        <time>2024-11-05T16:43:22.382Z</time>
      </trkpt>
      <trkpt lat="44.45489" lon="3.33286">
        <ele>756.41</ele>
        <time>2024-11-05T16:43:33.466Z</time>
      </trkpt>
      <trkpt lat="44.4548" lon="3.33272">
        <ele>757.67</ele>
        <time>2024-11-05T16:43:44.552Z</time>
      </trkpt>
      <trkpt lat="44.4547" lon="3.3323">
        <ele>758.91</ele>
        <time>2024-11-05T16:43:55.643Z</time>
      </trkpt>
      <trkpt lat="44.45469" lon="3.33218">
        <ele>760.13</ele>
        <time>2024-11-05T16:44:06.735Z</time>
      </trkpt>
      <trkpt lat="44.45468" lon="3.33205">
        <ele>761.36</ele>
        <time>2024-11-05T16:44:17.829Z</time>
      </trkpt>
      <trkpt lat="44.45469" lon="3.332">
        <ele>762.55</ele>
        <time>2024-11-05T16:44:28.924Z</time>
      </trkpt>
      <trkpt lat="44.45471" lon="3.33188">
        <ele>763.74</ele>
        <time>2024-11-05T16:44:40.020Z</time>
      </trkpt>
      <trkpt lat="44.45484" lon="3.33106">
        <ele>765.05</ele>
        <time>2024-11-05T16:44:51.126Z</time>
      </trkpt>
      <trkpt lat="44.45483" lon="3.33078">
        <ele>766.27</ele>
        <time>2024-11-05T16:45:02.235Z</time>
      </trkpt>
      <trkpt lat="44.45483" lon="3.33076">
        <ele>767.4</ele>
        <time>2024-11-05T16:45:13.344Z</time>
      </trkpt>
      <trkpt lat="44.4548" lon="3.33058">
        <ele>768.52</ele>
        <time>2024-11-05T16:45:24.455Z</time>
      </trkpt>
      <trkpt lat="44.45468" lon="3.33025">
        <ele>769.65</ele>
        <time>2024-11-05T16:45:35.570Z</time>
      </trkpt>
      <trkpt lat="44.45468" lon="3.33024">
        <ele>770.73</ele>
        <time>2024-11-05T16:45:46.685Z</time>
      </trkpt>
      <trkpt lat="44.45455" lon="3.33006">
        <ele>771.82</ele>
        <time>2024-11-05T16:45:57.803Z</time>
      </trkpt>
      <trkpt lat="44.4545" lon="3.32998">
        <ele>772.88</ele>
        <time>2024-11-05T16:46:08.923Z</time>
      </trkpt>
      <trkpt lat="44.45437" lon="3.32987">
        <ele>773.91</ele>
        <time>2024-11-05T16:46:20.045Z</time>
      </trkpt>
      <trkpt lat="44.45426" lon="3.32978">
        <ele>774.94</ele>
        <time>2024-11-05T16:46:31.169Z</time>
      </trkpt>
      <trkpt lat="44.45419" lon="3.32972">
        <ele>775.94</ele>
        <time>2024-11-05T16:46:42.294Z</time>
      </trkpt>
      <trkpt lat="44.4538" lon="3.32952">
        <ele>777</ele>
        <time>2024-11-05T16:46:53.426Z</time>
      </trkpt>
      <trkpt lat="44.45376" lon="3.3295">
        <ele>777.94</ele>
        <time>2024-11-05T16:47:04.559Z</time>
      </trkpt>
      <trkpt lat="44.45359" lon="3.32939">
        <ele>778.91</ele>
        <time>2024-11-05T16:47:15.695Z</time>
      </trkpt>
      <trkpt lat="44.45354" lon="3.32936">
        <ele>779.79</ele>
        <time>2024-11-05T16:47:26.832Z</time>
      </trkpt>
      <trkpt lat="44.45329" lon="3.32926">
        <ele>780.64</ele>
        <time>2024-11-05T16:47:37.973Z</time>
      </trkpt>
      <trkpt lat="44.45308" lon="3.32918">
        <ele>781.5</ele>
        <time>2024-11-05T16:47:49.117Z</time>
      </trkpt>
      <trkpt lat="44.45299" lon="3.32915">
        <ele>782.34</ele>
        <time>2024-11-05T16:48:00.263Z</time>
      </trkpt>
      <trkpt lat="44.4529" lon="3.32911">
        <ele>783.17</ele>
        <time>2024-11-05T16:48:11.410Z</time>
      </trkpt>
      <trkpt lat="44.45274" lon="3.32901">
        <ele>784</ele>
        <time>2024-11-05T16:48:22.560Z</time>
      </trkpt>
      <trkpt lat="44.45266" lon="3.32896">
        <ele>784.76</ele>
        <time>2024-11-05T16:48:33.711Z</time>
      </trkpt>
      <trkpt lat="44.45263" lon="3.32894">
        <ele>785.5</ele>
        <time>2024-11-05T16:48:44.863Z</time>
      </trkpt>
      <trkpt lat="44.45248" lon="3.32876">
        <ele>786.22</ele>
        <time>2024-11-05T16:48:56.018Z</time>
      </trkpt>
      <trkpt lat="44.45241" lon="3.32867">
        <ele>786.9</ele>
        <time>2024-11-05T16:49:07.175Z</time>
      </trkpt>
      <trkpt lat="44.45229" lon="3.32849">
        <ele>787.55</ele>
        <time>2024-11-05T16:49:18.334Z</time>
      </trkpt>
      <trkpt lat="44.45214" lon="3.32826">
        <ele>788.2</ele>
        <time>2024-11-05T16:49:29.497Z</time>
      </trkpt>
      <trkpt lat="44.45193" lon="3.32794">
        <ele>788.86</ele>
        <time>2024-11-05T16:49:40.665Z</time>
      </trkpt>
      <trkpt lat="44.45177" lon="3.32771">
        <ele>789.53</ele>
        <time>2024-11-05T16:49:51.837Z</time>
      </trkpt>
      <trkpt lat="44.45162" lon="3.32748">
        <ele>790.16</ele>
        <time>2024-11-05T16:50:03.012Z</time>
      </trkpt>
      <trkpt lat="44.45153" lon="3.32734">
        <ele>790.73</ele>
        <time>2024-11-05T16:50:14.189Z</time>
      </trkpt>
      <trkpt lat="44.45141" lon="3.32715">
        <ele>791.31</ele>
        <time>2024-11-05T16:50:25.369Z</time>
      </trkpt>
      <trkpt lat="44.45132" lon="3.32702">
        <ele>791.86</ele>
        <time>2024-11-05T16:50:36.551Z</time>
      </trkpt>
      <trkpt lat="44.45116" lon="3.32679">
        <ele>792.4</ele>
        <time>2024-11-05T16:50:47.737Z</time>
      </trkpt>
      <trkpt lat="44.4511" lon="3.32669">
        <ele>792.91</ele>
        <time>2024-11-05T16:50:58.925Z</time>
      </trkpt>
      <trkpt lat="44.45094" lon="3.32643">
        <ele>793.47</ele>
        <time>2024-11-05T16:51:10.116Z</time>
      </trkpt>
      <trkpt lat="44.45085" lon="3.32629">
        <ele>793.98</ele>
        <time>2024-11-05T16:51:21.310Z</time>
      </trkpt>
      <trkpt lat="44.4507" lon="3.32605">
        <ele>794.45</ele>
        <time>2024-11-05T16:51:32.507Z</time>
      </trkpt>
      <trkpt lat="44.45069" lon="3.32603">
        <ele>794.91</ele>
        <time>2024-11-05T16:51:43.705Z</time>
      </trkpt>
      <trkpt lat="44.45061" lon="3.32564">
        <ele>795.31</ele>
        <time>2024-11-05T16:51:54.907Z</time>
      </trkpt>
      <trkpt lat="44.45059" lon="3.32553">
        <ele>795.74</ele>
        <time>2024-11-05T16:52:06.111Z</time>
      </trkpt>
      <trkpt lat="44.45058" lon="3.3252">
        <ele>796.25</ele>
        <time>2024-11-05T16:52:17.318Z</time>
      </trkpt>
      <trkpt lat="44.45058" lon="3.32509">
        <ele>796.71</ele>
        <time>2024-11-05T16:52:28.527Z</time>
      </trkpt>
      <trkpt lat="44.45055" lon="3.32496">
        <ele>797.15</ele>
        <time>2024-11-05T16:52:39.737Z</time>
      </trkpt>
      <trkpt lat="44.45054" lon="3.3249">
        <ele>797.57</ele>
        <time>2024-11-05T16:52:50.948Z</time>
      </trkpt>
      <trkpt lat="44.45048" lon="3.32473">
        <ele>797.98</ele>
        <time>2024-11-05T16:53:02.161Z</time>
      </trkpt>
      <trkpt lat="44.45047" lon="3.32471">
        <ele>798.38</ele>
        <time>2024-11-05T16:53:13.374Z</time>
      </trkpt>
      <trkpt lat="44.45036" lon="3.32459">
        <ele>798.74</ele>
        <time>2024-11-05T16:53:24.589Z</time>
      </trkpt>
      <trkpt lat="44.45026" lon="3.32451">
        <ele>799.1</ele>
        <time>2024-11-05T16:53:35.806Z</time>
      </trkpt>
      <trkpt lat="44.45017" lon="3.32448">
        <ele>799.49</ele>
        <time>2024-11-05T16:53:47.025Z</time>
      </trkpt>
      <trkpt lat="44.45014" lon="3.32447">
        <ele>799.88</ele>
        <time>2024-11-05T16:53:58.244Z</time>
      </trkpt>
      <trkpt lat="44.45008" lon="3.32447">
        <ele>800.26</ele>
        <time>2024-11-05T16:54:09.464Z</time>
      </trkpt>
      <trkpt lat="44.45002" lon="3.32446">
        <ele>800.65</ele>
        <time>2024-11-05T16:54:20.685Z</time>
      </trkpt>
      <trkpt lat="44.45" lon="3.32447">
        <ele>801.05</ele>
        <time>2024-11-05T16:54:31.907Z</time>
      </trkpt>
      <trkpt lat="44.44991" lon="3.32449">
        <ele>801.5</ele>
        <time>2024-11-05T16:54:43.130Z</time>
      </trkpt>
      <trkpt lat="44.44969" lon="3.32455">
        <ele>801.99</ele>
        <time>2024-11-05T16:54:54.357Z</time>
      </trkpt>
      <trkpt lat="44.44966" lon="3.32456">
        <ele>802.41</ele>
        <time>2024-11-05T16:55:05.584Z</time>
      </trkpt>
      <trkpt lat="44.44918" lon="3.32459">
        <ele>803.02</ele>
        <time>2024-11-05T16:55:16.819Z</time>
      </trkpt>
      <trkpt lat="44.44911" lon="3.32459">
        <ele>803.42</ele>
        <time>2024-11-05T16:55:28.055Z</time>
      </trkpt>
      <trkpt lat="44.44888" lon="3.32459">
        <ele>803.82</ele>
        <time>2024-11-05T16:55:39.295Z</time>
      </trkpt>
      <trkpt lat="44.44875" lon="3.32459">
        <ele>804.24</ele>
        <time>2024-11-05T16:55:50.537Z</time>
      </trkpt>
      <trkpt lat="44.44844" lon="3.32459">
        <ele>804.69</ele>
        <time>2024-11-05T16:56:01.784Z</time>
      </trkpt>
      <trkpt lat="44.44808" lon="3.32458">
        <ele>805.11</ele>
        <time>2024-11-05T16:56:13.036Z</time>
      </trkpt>
      <trkpt lat="44.44785" lon="3.32458">
        <ele>805.49</ele>
        <time>2024-11-05T16:56:24.292Z</time>
      </trkpt>
      <trkpt lat="44.44774" lon="3.32458">
        <ele>805.87</ele>
        <time>2024-11-05T16:56:35.550Z</time>
      </trkpt>
      <trkpt lat="44.44754" lon="3.32455">
        <ele>806.26</ele>
        <time>2024-11-05T16:56:46.811Z</time>
      </trkpt>
      <trkpt lat="44.44751" lon="3.32455">
        <ele>806.65</ele>
        <time>2024-11-05T16:56:58.073Z</time>
      </trkpt>
      <trkpt lat="44.44732" lon="3.32449">
        <ele>807.07</ele>
        <time>2024-11-05T16:57:09.338Z</time>
      </trkpt>
      <trkpt lat="44.44729" lon="3.32448">
        <ele>807.45</ele>
        <time>2024-11-05T16:57:20.603Z</time>
      </trkpt>
      <trkpt lat="44.44703" lon="3.32433">
        <ele>807.89</ele>
        <time>2024-11-05T16:57:31.873Z</time>
      </trkpt>
      <trkpt lat="44.44682" lon="3.32422">
        <ele>808.27</ele>
        <time>2024-11-05T16:57:43.146Z</time>
      </trkpt>
      <trkpt lat="44.44667" lon="3.32413">
        <ele>808.63</ele>
        <time>2024-11-05T16:57:54.422Z</time>
      </trkpt>
      <trkpt lat="44.44661" lon="3.32411">
        <ele>809</ele>
        <time>2024-11-05T16:58:05.699Z</time>
      </trkpt>
      <trkpt lat="44.44652" lon="3.32408">
        <ele>809.36</ele>
        <time>2024-11-05T16:58:16.977Z</time>
      </trkpt>
      <trkpt lat="44.44649" lon="3.32408">
        <ele>809.72</ele>
        <time>2024-11-05T16:58:28.256Z</time>
      </trkpt>
      <trkpt lat="44.44628" lon="3.32407">
        <ele>810.07</ele>
        <time>2024-11-05T16:58:39.538Z</time>
      </trkpt>
      <trkpt lat="44.44619" lon="3.32407">
        <ele>810.43</ele>
        <time>2024-11-05T16:58:50.822Z</time>
      </trkpt>
      <trkpt lat="44.44606" lon="3.32411">
        <ele>810.79</ele>
        <time>2024-11-05T16:59:02.108Z</time>
      </trkpt>
      <trkpt lat="44.44594" lon="3.32414">
        <ele>811.17</ele>
        <time>2024-11-05T16:59:13.396Z</time>
      </trkpt>
      <trkpt lat="44.44584" lon="3.32417">
        <ele>811.54</ele>
        <time>2024-11-05T16:59:24.685Z</time>
      </trkpt>
      <trkpt lat="44.44568" lon="3.32424">
        <ele>811.91</ele>
        <time>2024-11-05T16:59:35.977Z</time>
      </trkpt>
      <trkpt lat="44.4454" lon="3.32435">
        <ele>812.23</ele>
        <time>2024-11-05T16:59:47.274Z</time>
      </trkpt>
      <trkpt lat="44.44538" lon="3.32436">
        <ele>812.54</ele>
        <time>2024-11-05T16:59:58.571Z</time>
      </trkpt>
      <trkpt lat="44.4453" lon="3.32441">
        <ele>812.86</ele>
        <time>2024-11-05T17:00:09.869Z</time>
      </trkpt>
      <trkpt lat="44.44503" lon="3.32455">
        <ele>813.16</ele>
        <time>2024-11-05T17:00:21.172Z</time>
      </trkpt>
      <trkpt lat="44.44493" lon="3.32464">
        <ele>813.47</ele>
        <time>2024-11-05T17:00:32.477Z</time>
      </trkpt>
      <trkpt lat="44.44479" lon="3.32478">
        <ele>813.81</ele>
        <time>2024-11-05T17:00:43.785Z</time>
      </trkpt>
      <trkpt lat="44.44478" lon="3.32479">
        <ele>814.11</ele>
        <time>2024-11-05T17:00:55.093Z</time>
      </trkpt>
      <trkpt lat="44.44472" lon="3.32486">
        <ele>814.41</ele>
        <time>2024-11-05T17:01:06.402Z</time>
      </trkpt>
      <trkpt lat="44.44453" lon="3.32509">
        <ele>814.72</ele>
        <time>2024-11-05T17:01:17.715Z</time>
      </trkpt>
      <trkpt lat="44.44452" lon="3.32511">
        <ele>815.01</ele>
        <time>2024-11-05T17:01:29.028Z</time>
      </trkpt>
      <trkpt lat="44.4444" lon="3.32538">
        <ele>815.32</ele>
        <time>2024-11-05T17:01:40.345Z</time>
      </trkpt>
      <trkpt lat="44.44435" lon="3.32549">
        <ele>815.61</ele>
        <time>2024-11-05T17:01:51.664Z</time>
      </trkpt>
      <trkpt lat="44.4443" lon="3.32565">
        <ele>815.92</ele>
        <time>2024-11-05T17:02:02.985Z</time>
      </trkpt>
      <trkpt lat="44.44423" lon="3.32588">
        <ele>816.2</ele>
        <time>2024-11-05T17:02:14.308Z</time>
      </trkpt>
      <trkpt lat="44.44421" lon="3.32594">
        <ele>816.47</ele>
        <time>2024-11-05T17:02:25.632Z</time>
      </trkpt>
      <trkpt lat="44.44418" lon="3.32619">
        <ele>816.74</ele>
        <time>2024-11-05T17:02:36.959Z</time>
      </trkpt>
      <trkpt lat="44.44417" lon="3.32629">
        <ele>817</ele>
        <time>2024-11-05T17:02:48.287Z</time>
      </trkpt>
      <trkpt lat="44.44417" lon="3.3265">
        <ele>817.28</ele>
        <time>2024-11-05T17:02:59.618Z</time>
      </trkpt>
      <trkpt lat="44.44416" lon="3.32662">
        <ele>817.55</ele>
        <time>2024-11-05T17:03:10.950Z</time>
      </trkpt>
      <trkpt lat="44.44416" lon="3.32678">
        <ele>817.84</ele>
        <time>2024-11-05T17:03:22.284Z</time>
      </trkpt>
      <trkpt lat="44.44416" lon="3.32681">
        <ele>818.13</ele>
        <time>2024-11-05T17:03:33.618Z</time>
      </trkpt>
      <trkpt lat="44.44417" lon="3.32694">
        <ele>818.43</ele>
        <time>2024-11-05T17:03:44.954Z</time>
      </trkpt>
      <trkpt lat="44.44418" lon="3.32712">
        <ele>818.74</ele>
        <time>2024-11-05T17:03:56.292Z</time>
      </trkpt>
      <trkpt lat="44.44419" lon="3.32726">
        <ele>819.04</ele>
        <time>2024-11-05T17:04:07.631Z</time>
      </trkpt>
      <trkpt lat="44.44417" lon="3.32737">
        <ele>819.33</ele>
        <time>2024-11-05T17:04:18.972Z</time>
      </trkpt>
      <trkpt lat="44.44416" lon="3.32745">
        <ele>819.63</ele>
        <time>2024-11-05T17:04:30.314Z</time>
      </trkpt>
      <trkpt lat="44.4441" lon="3.32759">
        <ele>819.92</ele>
        <time>2024-11-05T17:04:41.658Z</time>
      </trkpt>
      <trkpt lat="44.44404" lon="3.32773">
        <ele>820.23</ele>
        <time>2024-11-05T17:04:53.003Z</time>
      </trkpt>
      <trkpt lat="44.44403" lon="3.32775">
        <ele>820.53</ele>
        <time>2024-11-05T17:05:04.349Z</time>
      </trkpt>
      <trkpt lat="44.44396" lon="3.32783">
        <ele>820.84</ele>
        <time>2024-11-05T17:05:15.696Z</time>
      </trkpt>
      <trkpt lat="44.44389" lon="3.32792">
        <ele>821.17</ele>
        <time>2024-11-05T17:05:27.045Z</time>
      </trkpt>
      <trkpt lat="44.4438" lon="3.32803">
        <ele>821.51</ele>
        <time>2024-11-05T17:05:38.396Z</time>
      </trkpt>
      <trkpt lat="44.44379" lon="3.32804">
        <ele>821.82</ele>
        <time>2024-11-05T17:05:49.747Z</time>
      </trkpt>
      <trkpt lat="44.44362" lon="3.32819">
        <ele>822.16</ele>
        <time>2024-11-05T17:06:01.101Z</time>
      </trkpt>
      <trkpt lat="44.4436" lon="3.3282">
        <ele>822.49</ele>
        <time>2024-11-05T17:06:12.455Z</time>
      </trkpt>
      <trkpt lat="44.44347" lon="3.32826">
        <ele>822.84</ele>
        <time>2024-11-05T17:06:23.811Z</time>
      </trkpt>
      <trkpt lat="44.44339" lon="3.32831">
        <ele>823.19</ele>
        <time>2024-11-05T17:06:35.169Z</time>
      </trkpt>
      <trkpt lat="44.44338" lon="3.32831">
        <ele>823.53</ele>
        <time>2024-11-05T17:06:46.527Z</time>
      </trkpt>
      <trkpt lat="44.4433" lon="3.32833">
        <ele>823.88</ele>
        <time>2024-11-05T17:06:57.886Z</time>
      </trkpt>
      <trkpt lat="44.44307" lon="3.32838">
        <ele>824.24</ele>
        <time>2024-11-05T17:07:09.249Z</time>
      </trkpt>
      <trkpt lat="44.443" lon="3.32841">
        <ele>824.6</ele>
        <time>2024-11-05T17:07:20.613Z</time>
      </trkpt>
      <trkpt lat="44.44287" lon="3.32846">
        <ele>824.96</ele>
        <time>2024-11-05T17:07:31.979Z</time>
      </trkpt>
      <trkpt lat="44.44265" lon="3.32854">
        <ele>825.32</ele>
        <time>2024-11-05T17:07:43.349Z</time>
      </trkpt>
      <trkpt lat="44.44257" lon="3.32857">
        <ele>825.68</ele>
        <time>2024-11-05T17:07:54.720Z</time>
      </trkpt>
      <trkpt lat="44.44235" lon="3.32867">
        <ele>826.1</ele>
        <time>2024-11-05T17:08:06.095Z</time>
      </trkpt>
      <trkpt lat="44.4421" lon="3.32879">
        <ele>826.48</ele>
        <time>2024-11-05T17:08:17.474Z</time>
      </trkpt>
      <trkpt lat="44.44206" lon="3.32881">
        <ele>826.84</ele>
        <time>2024-11-05T17:08:28.854Z</time>
      </trkpt>
      <trkpt lat="44.44202" lon="3.32884">
        <ele>827.2</ele>
        <time>2024-11-05T17:08:40.235Z</time>
      </trkpt>
      <trkpt lat="44.4419" lon="3.32893">
        <ele>827.57</ele>
        <time>2024-11-05T17:08:51.618Z</time>
      </trkpt>
      <trkpt lat="44.44182" lon="3.32899">
        <ele>827.94</ele>
        <time>2024-11-05T17:09:03.002Z</time>
      </trkpt>
      <trkpt lat="44.44168" lon="3.32914">
        <ele>828.3</ele>
        <time>2024-11-05T17:09:14.389Z</time>
      </trkpt>
      <trkpt lat="44.44163" lon="3.32918">
        <ele>828.65</ele>
        <time>2024-11-05T17:09:25.777Z</time>
      </trkpt>
      <trkpt lat="44.44161" lon="3.32921">
        <ele>829.01</ele>
        <time>2024-11-05T17:09:37.166Z</time>
      </trkpt>
      <trkpt lat="44.44151" lon="3.32934">
        <ele>829.36</ele>
        <time>2024-11-05T17:09:48.557Z</time>
      </trkpt>
      <trkpt lat="44.44144" lon="3.32943">
        <ele>829.69</ele>
        <time>2024-11-05T17:09:59.949Z</time>
      </trkpt>
      <trkpt lat="44.44136" lon="3.32954">
        <ele>830.02</ele>
        <time>2024-11-05T17:10:11.343Z</time>
      </trkpt>
      <trkpt lat="44.44126" lon="3.32961">
        <ele>830.36</ele>
        <time>2024-11-05T17:10:22.739Z</time>
      </trkpt>
      <trkpt lat="44.44115" lon="3.3297">
        <ele>830.69</ele>
        <time>2024-11-05T17:10:34.137Z</time>
      </trkpt>
      <trkpt lat="44.44109" lon="3.32974">
        <ele>831.01</ele>
        <time>2024-11-05T17:10:45.536Z</time>
      </trkpt>
      <trkpt lat="44.44073" lon="3.32992">
        <ele>831.36</ele>
        <time>2024-11-05T17:10:56.941Z</time>
      </trkpt>
      <trkpt lat="44.44065" lon="3.32997">
        <ele>831.68</ele>
        <time>2024-11-05T17:11:08.347Z</time>
      </trkpt>
      <trkpt lat="44.4406" lon="3.32999">
        <ele>832</ele>
        <time>2024-11-05T17:11:19.754Z</time>
      </trkpt>
      <trkpt lat="44.44023" lon="3.33018">
        <ele>832.37</ele>
        <time>2024-11-05T17:11:31.168Z</time>
      </trkpt>
      <trkpt lat="44.44002" lon="3.33029">
        <ele>832.69</ele>
        <time>2024-11-05T17:11:42.585Z</time>
      </trkpt>
      <trkpt lat="44.43989" lon="3.33035">
        <ele>832.98</ele>
        <time>2024-11-05T17:11:54.004Z</time>
      </trkpt>
      <trkpt lat="44.4398" lon="3.3304">
        <ele>833.26</ele>
        <time>2024-11-05T17:12:05.425Z</time>
      </trkpt>
      <trkpt lat="44.43972" lon="3.33044">
        <ele>833.53</ele>
        <time>2024-11-05T17:12:16.847Z</time>
      </trkpt>
      <trkpt lat="44.43971" lon="3.33044">
        <ele>833.78</ele>
        <time>2024-11-05T17:12:28.269Z</time>
      </trkpt>
      <trkpt lat="44.43963" lon="3.33045">
        <ele>834.05</ele>
        <time>2024-11-05T17:12:39.693Z</time>
      </trkpt>
      <trkpt lat="44.43959" lon="3.33046">
        <ele>834.29</ele>
        <time>2024-11-05T17:12:51.117Z</time>
      </trkpt>
      <trkpt lat="44.43955" lon="3.33047">
        <ele>834.51</ele>
        <time>2024-11-05T17:13:02.542Z</time>
      </trkpt>
      <trkpt lat="44.43946" lon="3.33048">
        <ele>834.74</ele>
        <time>2024-11-05T17:13:13.968Z</time>
      </trkpt>
      <trkpt lat="44.43941" lon="3.33049">
        <ele>834.94</ele>
        <time>2024-11-05T17:13:25.395Z</time>
      </trkpt>
      <trkpt lat="44.43924" lon="3.33049">
        <ele>835.14</ele>
        <time>2024-11-05T17:13:36.825Z</time>
      </trkpt>
      <trkpt lat="44.43915" lon="3.33049">
        <ele>835.32</ele>
        <time>2024-11-05T17:13:48.256Z</time>
      </trkpt>
      <trkpt lat="44.43897" lon="3.33048">
        <ele>835.49</ele>
        <time>2024-11-05T17:13:59.690Z</time>
      </trkpt>
      <trkpt lat="44.43891" lon="3.33048">
        <ele>835.64</ele>
        <time>2024-11-05T17:14:11.125Z</time>
      </trkpt>
      <trkpt lat="44.43888" lon="3.33048">
        <ele>835.77</ele>
        <time>2024-11-05T17:14:22.561Z</time>
      </trkpt>
      <trkpt lat="44.43861" lon="3.33051">
        <ele>835.91</ele>
        <time>2024-11-05T17:14:34.001Z</time>
      </trkpt>
      <trkpt lat="44.43852" lon="3.33052">
        <ele>836.02</ele>
        <time>2024-11-05T17:14:45.442Z</time>
      </trkpt>
      <trkpt lat="44.43844" lon="3.33052">
        <ele>836.11</ele>
        <time>2024-11-05T17:14:56.885Z</time>
      </trkpt>
      <trkpt lat="44.43835" lon="3.33053">
        <ele>836.18</ele>
        <time>2024-11-05T17:15:08.329Z</time>
      </trkpt>
      <trkpt lat="44.43825" lon="3.33054">
        <ele>836.24</ele>
        <time>2024-11-05T17:15:19.775Z</time>
      </trkpt>
      <trkpt lat="44.43816" lon="3.33052">
        <ele>836.28</ele>
        <time>2024-11-05T17:15:31.222Z</time>
      </trkpt>
      <trkpt lat="44.43813" lon="3.33051">
        <ele>836.32</ele>
        <time>2024-11-05T17:15:42.670Z</time>
      </trkpt>
      <trkpt lat="44.438" lon="3.33045">
        <ele>836.34</ele>
        <time>2024-11-05T17:15:54.120Z</time>
      </trkpt>
      <trkpt lat="44.43795" lon="3.33043">
        <ele>836.35</ele>
        <time>2024-11-05T17:16:05.571Z</time>
      </trkpt>
      <trkpt lat="44.43783" lon="3.33036">
        <ele>836.35</ele>
        <time>2024-11-05T17:16:17.024Z</time>
      </trkpt>
      <trkpt lat="44.43771" lon="3.33028">
        <ele>836.34</ele>
        <time>2024-11-05T17:16:28.479Z</time>
      </trkpt>
      <trkpt lat="44.43755" lon="3.33017">
        <ele>836.33</ele>
        <time>2024-11-05T17:16:39.937Z</time>
      </trkpt>
      <trkpt lat="44.43747" lon="3.33012">
        <ele>836.33</ele>
        <time>2024-11-05T17:16:51.396Z</time>
      </trkpt>
      <trkpt lat="44.43727" lon="3.33001">
        <ele>836.36</ele>
        <time>2024-11-05T17:17:02.859Z</time>
      </trkpt>
      <trkpt lat="44.43726" lon="3.33001">
        <ele>836.35</ele>
        <time>2024-11-05T17:17:14.322Z</time>
      </trkpt>
      <trkpt lat="44.43718" lon="3.32999">
        <ele>836.34</ele>
        <time>2024-11-05T17:17:25.786Z</time>
      </trkpt>
      <trkpt lat="44.43712" lon="3.32998">
        <ele>836.34</ele>
        <time>2024-11-05T17:17:37.251Z</time>
      </trkpt>
      <trkpt lat="44.437" lon="3.32999">
        <ele>836.33</ele>
        <time>2024-11-05T17:17:48.718Z</time>
      </trkpt>
      <trkpt lat="44.43694" lon="3.32999">
        <ele>836.32</ele>
        <time>2024-11-05T17:18:00.186Z</time>
      </trkpt>
      <trkpt lat="44.43687" lon="3.33001">
        <ele>836.3</ele>
        <time>2024-11-05T17:18:11.655Z</time>
      </trkpt>
      <trkpt lat="44.43652" lon="3.33012">
        <ele>836.27</ele>
        <time>2024-11-05T17:18:23.130Z</time>
      </trkpt>
      <trkpt lat="44.43633" lon="3.33017">
        <ele>836.24</ele>
        <time>2024-11-05T17:18:34.608Z</time>
      </trkpt>
      <trkpt lat="44.43621" lon="3.33018">
        <ele>836.22</ele>
        <time>2024-11-05T17:18:46.088Z</time>
      </trkpt>
      <trkpt lat="44.43621" lon="3.33018">
        <ele>836.22</ele>
        <time>2024-11-05T17:18:57.568Z</time>
      </trkpt>
      <trkpt lat="44.43608" lon="3.33015">
        <ele>836.21</ele>
        <time>2024-11-05T17:19:09.050Z</time>
      </trkpt>
      <trkpt lat="44.43605" lon="3.33014">
        <ele>836.22</ele>
        <time>2024-11-05T17:19:20.532Z</time>
      </trkpt>
      <trkpt lat="44.43599" lon="3.33011">
        <ele>836.24</ele>
        <time>2024-11-05T17:19:32.015Z</time>
      </trkpt>
      <trkpt lat="44.43587" lon="3.33006">
        <ele>836.28</ele>
        <time>2024-11-05T17:19:43.501Z</time>
      </trkpt>
      <trkpt lat="44.43561" lon="3.32994">
        <ele>836.33</ele>
        <time>2024-11-05T17:19:54.991Z</time>
      </trkpt>
      <trkpt lat="44.43548" lon="3.32988">
        <ele>836.37</ele>
        <time>2024-11-05T17:20:06.483Z</time>
      </trkpt>
      <trkpt lat="44.4354" lon="3.32984">
        <ele>836.42</ele>
        <time>2024-11-05T17:20:17.976Z</time>
      </trkpt>
      <trkpt lat="44.43527" lon="3.32978">
        <ele>836.49</ele>
        <time>2024-11-05T17:20:29.472Z</time>
      </trkpt>
      <trkpt lat="44.43506" lon="3.32968">
        <ele>836.58</ele>
        <time>2024-11-05T17:20:40.971Z</time>
      </trkpt>
      <trkpt lat="44.43497" lon="3.32965">
        <ele>836.69</ele>
        <time>2024-11-05T17:20:52.472Z</time>
      </trkpt>
      <trkpt lat="44.43489" lon="3.32961">
        <ele>836.82</ele>
        <time>2024-11-05T17:21:03.974Z</time>
      </trkpt>
      <trkpt lat="44.43446" lon="3.32941">
        <ele>837.07</ele>
        <time>2024-11-05T17:21:15.483Z</time>
      </trkpt>
      <trkpt lat="44.43399" lon="3.3292">
        <ele>837.21</ele>
        <time>2024-11-05T17:21:27.000Z</time>
      </trkpt>
      <trkpt lat="44.43365" lon="3.32904">
        <ele>837.39</ele>
        <time>2024-11-05T17:21:38.523Z</time>
      </trkpt>
      <trkpt lat="44.43353" lon="3.32898">
        <ele>837.58</ele>
        <time>2024-11-05T17:21:50.048Z</time>
      </trkpt>
      <trkpt lat="44.43344" lon="3.32894">
        <ele>837.77</ele>
        <time>2024-11-05T17:22:01.574Z</time>
      </trkpt>
      <trkpt lat="44.43323" lon="3.32884">
        <ele>838.01</ele>
        <time>2024-11-05T17:22:13.104Z</time>
      </trkpt>
      <trkpt lat="44.43293" lon="3.32871">
        <ele>838.25</ele>
        <time>2024-11-05T17:22:24.639Z</time>
      </trkpt>
      <trkpt lat="44.43276" lon="3.32863">
        <ele>838.5</ele>
        <time>2024-11-05T17:22:36.177Z</time>
      </trkpt>
      <trkpt lat="44.43259" lon="3.32855">
        <ele>838.73</ele>
        <time>2024-11-05T17:22:47.718Z</time>
      </trkpt>
      <trkpt lat="44.43235" lon="3.32844">
        <ele>838.97</ele>
        <time>2024-11-05T17:22:59.263Z</time>
      </trkpt>
      <trkpt lat="44.4322" lon="3.32839">
        <ele>839.24</ele>
        <time>2024-11-05T17:23:10.810Z</time>
      </trkpt>
      <trkpt lat="44.43207" lon="3.32838">
        <ele>839.5</ele>
        <time>2024-11-05T17:23:22.359Z</time>
      </trkpt>
      <trkpt lat="44.43202" lon="3.32837">
        <ele>839.8</ele>
        <time>2024-11-05T17:23:33.909Z</time>
      </trkpt>
      <trkpt lat="44.43165" lon="3.3284">
        <ele>840.1</ele>
        <time>2024-11-05T17:23:45.465Z</time>
      </trkpt>
      <trkpt lat="44.43144" lon="3.32843">
        <ele>840.46</ele>
        <time>2024-11-05T17:23:57.024Z</time>
      </trkpt>
      <trkpt lat="44.43113" lon="3.32846">
        <ele>840.86</ele>
        <time>2024-11-05T17:24:08.588Z</time>
      </trkpt>
      <trkpt lat="44.43082" lon="3.3285">
        <ele>841.23</ele>
        <time>2024-11-05T17:24:20.157Z</time>
      </trkpt>
      <trkpt lat="44.43046" lon="3.32855">
        <ele>841.62</ele>
        <time>2024-11-05T17:24:31.732Z</time>
      </trkpt>
      <trkpt lat="44.43033" lon="3.32856">
        <ele>842.07</ele>
        <time>2024-11-05T17:24:43.309Z</time>
      </trkpt>
      <trkpt lat="44.43006" lon="3.3286">
        <ele>842.52</ele>
        <time>2024-11-05T17:24:54.891Z</time>
      </trkpt>
      <trkpt lat="44.43004" lon="3.3286">
        <ele>843.02</ele>
        <time>2024-11-05T17:25:06.473Z</time>
      </trkpt>
      <trkpt lat="44.42988" lon="3.3286">
        <ele>843.54</ele>
        <time>2024-11-05T17:25:18.057Z</time>
      </trkpt>
      <trkpt lat="44.4298" lon="3.3286">
        <ele>844.1</ele>
        <time>2024-11-05T17:25:29.643Z</time>
      </trkpt>
      <trkpt lat="44.42971" lon="3.32859">
        <ele>844.68</ele>
        <time>2024-11-05T17:25:41.230Z</time>
      </trkpt>
      <trkpt lat="44.42966" lon="3.32859">
        <ele>845.3</ele>
        <time>2024-11-05T17:25:52.818Z</time>
      </trkpt>
      <trkpt lat="44.42957" lon="3.32859">
        <ele>845.95</ele>
        <time>2024-11-05T17:26:04.407Z</time>
      </trkpt>
      <trkpt lat="44.42944" lon="3.32856">
        <ele>846.62</ele>
        <time>2024-11-05T17:26:15.999Z</time>
      </trkpt>
      <trkpt lat="44.42932" lon="3.32854">
        <ele>847.36</ele>
        <time>2024-11-05T17:26:27.593Z</time>
      </trkpt>
      <trkpt lat="44.42931" lon="3.32854">
        <ele>848.1</ele>
        <time>2024-11-05T17:26:39.187Z</time>
      </trkpt>
      <trkpt lat="44.42922" lon="3.32851">
        <ele>848.89</ele>
        <time>2024-11-05T17:26:50.782Z</time>
      </trkpt>
      <trkpt lat="44.42918" lon="3.32849">
        <ele>849.7</ele>
        <time>2024-11-05T17:27:02.378Z</time>
      </trkpt>
      <trkpt lat="44.42909" lon="3.32846">
        <ele>850.56</ele>
        <time>2024-11-05T17:27:13.975Z</time>
      </trkpt>
      <trkpt lat="44.42901" lon="3.32843">
        <ele>851.44</ele>
        <time>2024-11-05T17:27:25.574Z</time>
      </trkpt>
      <trkpt lat="44.42892" lon="3.3284">
        <ele>852.34</ele>
        <time>2024-11-05T17:27:37.174Z</time>
      </trkpt>
      <trkpt lat="44.42888" lon="3.32837">
        <ele>853.26</ele>
        <time>2024-11-05T17:27:48.775Z</time>
      </trkpt>
      <trkpt lat="44.42868" lon="3.32824">
        <ele>854.25</ele>
        <time>2024-11-05T17:28:00.379Z</time>
      </trkpt>
      <trkpt lat="44.42855" lon="3.32816">
        <ele>855.22</ele>
        <time>2024-11-05T17:28:11.986Z</time>
      </trkpt>
      <trkpt lat="44.42841" lon="3.32807">
        <ele>856.2</ele>
        <time>2024-11-05T17:28:23.595Z</time>
      </trkpt>
      <trkpt lat="44.42813" lon="3.32782">
        <ele>857.25</ele>
        <time>2024-11-05T17:28:35.209Z</time>
      </trkpt>
      <trkpt lat="44.42806" lon="3.32774">
        <ele>858.27</ele>
        <time>2024-11-05T17:28:46.825Z</time>
      </trkpt>
      <trkpt lat="44.42796" lon="3.32762">
        <ele>859.33</ele>
        <time>2024-11-05T17:28:58.443Z</time>
      </trkpt>
      <trkpt lat="44.42782" lon="3.32747">
        <ele>860.43</ele>
        <time>2024-11-05T17:29:10.064Z</time>
      </trkpt>
      <trkpt lat="44.42775" lon="3.32739">
        <ele>861.47</ele>
        <time>2024-11-05T17:29:21.686Z</time>
      </trkpt>
      <trkpt lat="44.42765" lon="3.32727">
        <ele>862.54</ele>
        <time>2024-11-05T17:29:33.310Z</time>
      </trkpt>
      <trkpt lat="44.42757" lon="3.32718">
        <ele>863.59</ele>
        <time>2024-11-05T17:29:44.936Z</time>
      </trkpt>
      <trkpt lat="44.42736" lon="3.32698">
        <ele>864.63</ele>
        <time>2024-11-05T17:29:56.566Z</time>
      </trkpt>
      <trkpt lat="44.42726" lon="3.32688">
        <ele>865.64</ele>
        <time>2024-11-05T17:30:08.198Z</time>
      </trkpt>
      <trkpt lat="44.42702" lon="3.3267">
        <ele>866.67</ele>
        <time>2024-11-05T17:30:19.834Z</time>
      </trkpt>
      <trkpt lat="44.42684" lon="3.32662">
        <ele>867.69</ele>
        <time>2024-11-05T17:30:31.473Z</time>
      </trkpt>
      <trkpt lat="44.42667" lon="3.32655">
        <ele>868.67</ele>
        <time>2024-11-05T17:30:43.115Z</time>
      </trkpt>
      <trkpt lat="44.42641" lon="3.32644">
        <ele>869.71</ele>
        <time>2024-11-05T17:30:54.762Z</time>
      </trkpt>
      <trkpt lat="44.42611" lon="3.32631">
        <ele>870.74</ele>
        <time>2024-11-05T17:31:06.414Z</time>
      </trkpt>
      <trkpt lat="44.42586" lon="3.3262">
        <ele>871.67</ele>
        <time>2024-11-05T17:31:18.070Z</time>
      </trkpt>
      <trkpt lat="44.4258" lon="3.32617">
        <ele>872.56</ele>
        <time>2024-11-05T17:31:29.727Z</time>
      </trkpt>
      <trkpt lat="44.42569" lon="3.32611">
        <ele>873.41</ele>
        <time>2024-11-05T17:31:41.386Z</time>
      </trkpt>
      <trkpt lat="44.42549" lon="3.32598">
        <ele>874.25</ele>
        <time>2024-11-05T17:31:53.048Z</time>
      </trkpt>
      <trkpt lat="44.42545" lon="3.32596">
        <ele>875.04</ele>
        <time>2024-11-05T17:32:04.711Z</time>
      </trkpt>
      <trkpt lat="44.42537" lon="3.32589">
        <ele>875.82</ele>
        <time>2024-11-05T17:32:16.375Z</time>
      </trkpt>
      <trkpt lat="44.42526" lon="3.32578">
        <ele>876.56</ele>
        <time>2024-11-05T17:32:28.042Z</time>
      </trkpt>
      <trkpt lat="44.42519" lon="3.32571">
        <ele>877.27</ele>
        <time>2024-11-05T17:32:39.710Z</time>
      </trkpt>
      <trkpt lat="44.42518" lon="3.3257">
        <ele>877.92</ele>
        <time>2024-11-05T17:32:51.378Z</time>
      </trkpt>
      <trkpt lat="44.42513" lon="3.32563">
        <ele>878.55</ele>
        <time>2024-11-05T17:33:03.047Z</time>
      </trkpt>
      <trkpt lat="44.42504" lon="3.32551">
        <ele>879.15</ele>
        <time>2024-11-05T17:33:14.718Z</time>
      </trkpt>
      <trkpt lat="44.42496" lon="3.32541">
        <ele>879.67</ele>
        <time>2024-11-05T17:33:26.391Z</time>
      </trkpt>
      <trkpt lat="44.42491" lon="3.32533">
        <ele>880.15</ele>
        <time>2024-11-05T17:33:38.065Z</time>
      </trkpt>
      <trkpt lat="44.42483" lon="3.32518">
        <ele>880.58</ele>
        <time>2024-11-05T17:33:49.741Z</time>
      </trkpt>
      <trkpt lat="44.42478" lon="3.32508">
        <ele>880.97</ele>
        <time>2024-11-05T17:34:01.419Z</time>
      </trkpt>
      <trkpt lat="44.42472" lon="3.32498">
        <ele>881.32</ele>
        <time>2024-11-05T17:34:13.098Z</time>
      </trkpt>
      <trkpt lat="44.42464" lon="3.32484">
        <ele>881.64</ele>
        <time>2024-11-05T17:34:24.779Z</time>
      </trkpt>
      <trkpt lat="44.42461" lon="3.32479">
        <ele>881.91</ele>
        <time>2024-11-05T17:34:36.461Z</time>
      </trkpt>
      <trkpt lat="44.42455" lon="3.32469">
        <ele>882.15</ele>
        <time>2024-11-05T17:34:48.145Z</time>
      </trkpt>
      <trkpt lat="44.42447" lon="3.32454">
        <ele>882.34</ele>
        <time>2024-11-05T17:34:59.831Z</time>
      </trkpt>
      <trkpt lat="44.42442" lon="3.32445">
        <ele>882.48</ele>
        <time>2024-11-05T17:35:11.518Z</time>
      </trkpt>
      <trkpt lat="44.42441" lon="3.32444">
        <ele>882.56</ele>
        <time>2024-11-05T17:35:23.205Z</time>
      </trkpt>
      <trkpt lat="44.42434" lon="3.32437">
        <ele>882.62</ele>
        <time>2024-11-05T17:35:34.894Z</time>
      </trkpt>
      <trkpt lat="44.42424" lon="3.32426">
        <ele>882.62</ele>
        <time>2024-11-05T17:35:46.585Z</time>
      </trkpt>
      <trkpt lat="44.4242" lon="3.32422">
        <ele>882.58</ele>
        <time>2024-11-05T17:35:58.276Z</time>
      </trkpt>
      <trkpt lat="44.42412" lon="3.32416">
        <ele>882.49</ele>
        <time>2024-11-05T17:36:09.969Z</time>
      </trkpt>
      <trkpt lat="44.42404" lon="3.3241">
        <ele>882.35</ele>
        <time>2024-11-05T17:36:21.663Z</time>
      </trkpt>
      <trkpt lat="44.42402" lon="3.32408">
        <ele>882.19</ele>
        <time>2024-11-05T17:36:33.358Z</time>
      </trkpt>
      <trkpt lat="44.42396" lon="3.32405">
        <ele>881.98</ele>
        <time>2024-11-05T17:36:45.054Z</time>
      </trkpt>
      <trkpt lat="44.42388" lon="3.324">
        <ele>881.74</ele>
        <time>2024-11-05T17:36:56.751Z</time>
      </trkpt>
      <trkpt lat="44.42385" lon="3.32399">
        <ele>881.46</ele>
        <time>2024-11-05T17:37:08.449Z</time>
      </trkpt>
      <trkpt lat="44.42379" lon="3.32398">
        <ele>881.14</ele>
        <time>2024-11-05T17:37:20.148Z</time>
      </trkpt>
      <trkpt lat="44.42375" lon="3.32397">
        <ele>880.79</ele>
        <time>2024-11-05T17:37:31.847Z</time>
      </trkpt>
      <trkpt lat="44.42357" lon="3.32394">
        <ele>880.36</ele>
        <time>2024-11-05T17:37:43.549Z</time>
      </trkpt>
      <trkpt lat="44.42355" lon="3.32394">
        <ele>879.97</ele>
        <time>2024-11-05T17:37:55.251Z</time>
      </trkpt>
      <trkpt lat="44.42339" lon="3.32396">
        <ele>879.49</ele>
        <time>2024-11-05T17:38:06.956Z</time>
      </trkpt>
      <trkpt lat="44.42335" lon="3.32396">
        <ele>879.04</ele>
        <time>2024-11-05T17:38:18.662Z</time>
      </trkpt>
      <trkpt lat="44.42317" lon="3.32401">
        <ele>878.55</ele>
        <time>2024-11-05T17:38:30.371Z</time>
      </trkpt>
      <trkpt lat="44.42307" lon="3.32403">
        <ele>878.05</ele>
        <time>2024-11-05T17:38:42.081Z</time>
      </trkpt>
      <trkpt lat="44.42295" lon="3.32408">
        <ele>877.53</ele>
        <time>2024-11-05T17:38:53.793Z</time>
      </trkpt>
      <trkpt lat="44.42291" lon="3.3241">
        <ele>877.01</ele>
        <time>2024-11-05T17:39:05.506Z</time>
      </trkpt>
      <trkpt lat="44.42282" lon="3.32414">
        <ele>876.46</ele>
        <time>2024-11-05T17:39:17.220Z</time>
      </trkpt>
      <trkpt lat="44.42257" lon="3.32425">
        <ele>875.88</ele>
        <time>2024-11-05T17:39:28.939Z</time>
      </trkpt>
      <trkpt lat="44.42248" lon="3.32429">
        <ele>875.32</ele>
        <time>2024-11-05T17:39:40.659Z</time>
      </trkpt>
      <trkpt lat="44.4224" lon="3.32433">
        <ele>874.77</ele>
        <time>2024-11-05T17:39:52.381Z</time>
      </trkpt>
      <trkpt lat="44.42232" lon="3.32436">
        <ele>874.19</ele>
        <time>2024-11-05T17:40:04.104Z</time>
      </trkpt>
      <trkpt lat="44.42222" lon="3.32438">
        <ele>873.6</ele>
        <time>2024-11-05T17:40:15.828Z</time>
      </trkpt>
      <trkpt lat="44.42196" lon="3.32442">
        <ele>873.01</ele>
        <time>2024-11-05T17:40:27.557Z</time>
      </trkpt>
      <trkpt lat="44.42191" lon="3.32443">
        <ele>872.4</ele>
        <time>2024-11-05T17:40:39.286Z</time>
      </trkpt>
      <trkpt lat="44.42178" lon="3.32442">
        <ele>871.77</ele>
        <time>2024-11-05T17:40:51.018Z</time>
      </trkpt>
      <trkpt lat="44.42167" lon="3.32441">
        <ele>871.14</ele>
        <time>2024-11-05T17:41:02.751Z</time>
      </trkpt>
      <trkpt lat="44.42164" lon="3.3244">
        <ele>870.53</ele>
        <time>2024-11-05T17:41:14.485Z</time>
      </trkpt>
      <trkpt lat="44.42151" lon="3.32436">
        <ele>869.94</ele>
        <time>2024-11-05T17:41:26.221Z</time>
      </trkpt>
      <trkpt lat="44.42143" lon="3.32434">
        <ele>869.33</ele>
        <time>2024-11-05T17:41:37.958Z</time>
      </trkpt>
      <trkpt lat="44.42126" lon="3.32425">
        <ele>868.72</ele>
        <time>2024-11-05T17:41:49.698Z</time>
      </trkpt>
      <trkpt lat="44.42119" lon="3.32421">
        <ele>868.09</ele>
        <time>2024-11-05T17:42:01.439Z</time>
      </trkpt>
      <trkpt lat="44.42109" lon="3.32415">
        <ele>867.46</ele>
        <time>2024-11-05T17:42:13.182Z</time>
      </trkpt>
      <trkpt lat="44.42101" lon="3.32409">
        <ele>866.83</ele>
        <time>2024-11-05T17:42:24.927Z</time>
      </trkpt>
      <trkpt lat="44.42083" lon="3.32392">
        <ele>866.21</ele>
        <time>2024-11-05T17:42:36.675Z</time>
      </trkpt>
      <trkpt lat="44.42071" lon="3.32382">
        <ele>865.6</ele>
        <time>2024-11-05T17:42:48.425Z</time>
      </trkpt>
      <trkpt lat="44.42049" lon="3.32361">
        <ele>864.95</ele>
        <time>2024-11-05T17:43:00.180Z</time>
      </trkpt>
      <trkpt lat="44.42038" lon="3.32351">
        <ele>864.3</ele>
        <time>2024-11-05T17:43:11.937Z</time>
      </trkpt>
      <trkpt lat="44.42026" lon="3.32342">
        <ele>863.64</ele>
        <time>2024-11-05T17:43:23.696Z</time>
      </trkpt>
      <trkpt lat="44.42017" lon="3.32336">
        <ele>862.92</ele>
        <time>2024-11-05T17:43:35.456Z</time>
      </trkpt>
      <trkpt lat="44.42014" lon="3.32334">
        <ele>862.24</ele>
        <time>2024-11-05T17:43:47.217Z</time>
      </trkpt>
      <trkpt lat="44.41992" lon="3.32325">
        <ele>861.49</ele>
        <time>2024-11-05T17:43:58.982Z</time>
      </trkpt>
      <trkpt lat="44.4195" lon="3.32305">
        <ele>860.79</ele>
        <time>2024-11-05T17:44:10.754Z</time>
      </trkpt>
      <trkpt lat="44.41929" lon="3.32295">
        <ele>860.1</ele>
        <time>2024-11-05T17:44:22.529Z</time>
      </trkpt>
      <trkpt lat="44.4189" lon="3.32278">
        <ele>859.34</ele>
        <time>2024-11-05T17:44:34.311Z</time>
      </trkpt>
      <trkpt lat="44.41865" lon="3.32266">
        <ele>858.65</ele>
        <time>2024-11-05T17:44:46.097Z</time>
      </trkpt>
      <trkpt lat="44.41856" lon="3.32262">
        <ele>857.99</ele>
        <time>2024-11-05T17:44:57.884Z</time>
      </trkpt>
      <trkpt lat="44.41844" lon="3.32256">
        <ele>857.32</ele>
        <time>2024-11-05T17:45:09.674Z</time>
      </trkpt>
      <trkpt lat="44.41835" lon="3.32252">
        <ele>856.66</ele>
        <time>2024-11-05T17:45:21.465Z</time>
      </trkpt>
      <trkpt lat="44.4181" lon="3.3224">
        <ele>855.99</ele>
        <time>2024-11-05T17:45:33.260Z</time>
      </trkpt>
      <trkpt lat="44.41801" lon="3.32236">
        <ele>855.35</ele>
        <time>2024-11-05T17:45:45.057Z</time>
      </trkpt>
      <trkpt lat="44.41793" lon="3.32232">
        <ele>854.72</ele>
        <time>2024-11-05T17:45:56.855Z</time>
      </trkpt>
      <trkpt lat="44.41776" lon="3.32225">
        <ele>854.09</ele>
        <time>2024-11-05T17:46:08.656Z</time>
      </trkpt>
      <trkpt lat="44.41754" lon="3.32215">
        <ele>853.49</ele>
        <time>2024-11-05T17:46:20.461Z</time>
      </trkpt>
      <trkpt lat="44.41742" lon="3.32209">
        <ele>852.89</ele>
        <time>2024-11-05T17:46:32.268Z</time>
      </trkpt>
      <trkpt lat="44.41733" lon="3.32205">
        <ele>852.3</ele>
        <time>2024-11-05T17:46:44.076Z</time>
      </trkpt>
      <trkpt lat="44.41712" lon="3.32195">
        <ele>851.73</ele>
        <time>2024-11-05T17:46:55.888Z</time>
      </trkpt>
      <trkpt lat="44.4169" lon="3.32185">
        <ele>851.15</ele>
        <time>2024-11-05T17:47:07.704Z</time>
      </trkpt>
      <trkpt lat="44.41687" lon="3.32183">
        <ele>850.6</ele>
        <time>2024-11-05T17:47:19.520Z</time>
      </trkpt>
      <trkpt lat="44.41661" lon="3.32171">
        <ele>850.05</ele>
        <time>2024-11-05T17:47:31.340Z</time>
      </trkpt>
      <trkpt lat="44.41648" lon="3.32165">
        <ele>849.49</ele>
        <time>2024-11-05T17:47:43.163Z</time>
      </trkpt>
      <trkpt lat="44.41623" lon="3.32153">
        <ele>848.92</ele>
        <time>2024-11-05T17:47:54.990Z</time>
      </trkpt>
      <trkpt lat="44.41614" lon="3.32149">
        <ele>848.41</ele>
        <time>2024-11-05T17:48:06.818Z</time>
      </trkpt>
      <trkpt lat="44.41597" lon="3.3214">
        <ele>847.91</ele>
        <time>2024-11-05T17:48:18.649Z</time>
      </trkpt>
      <trkpt lat="44.41559" lon="3.32122">
        <ele>847.44</ele>
        <time>2024-11-05T17:48:30.487Z</time>
      </trkpt>
      <trkpt lat="44.41517" lon="3.32102">
        <ele>846.99</ele>
        <time>2024-11-05T17:48:42.332Z</time>
      </trkpt>
      <trkpt lat="44.41508" lon="3.32098">
        <ele>846.55</ele>
        <time>2024-11-05T17:48:54.178Z</time>
      </trkpt>
      <trkpt lat="44.41504" lon="3.32096">
        <ele>846.14</ele>
        <time>2024-11-05T17:49:06.025Z</time>
      </trkpt>
      <trkpt lat="44.415" lon="3.32093">
        <ele>845.74</ele>
        <time>2024-11-05T17:49:17.873Z</time>
      </trkpt>
      <trkpt lat="44.41491" lon="3.32089">
        <ele>845.35</ele>
        <time>2024-11-05T17:49:29.722Z</time>
      </trkpt>
      <trkpt lat="44.41444" lon="3.32067">
        <ele>844.95</ele>
        <time>2024-11-05T17:49:41.579Z</time>
      </trkpt>
      <trkpt lat="44.41436" lon="3.32063">
        <ele>844.6</ele>
        <time>2024-11-05T17:49:53.438Z</time>
      </trkpt>
      <trkpt lat="44.41423" lon="3.32057">
        <ele>844.27</ele>
        <time>2024-11-05T17:50:05.299Z</time>
      </trkpt>
      <trkpt lat="44.4141" lon="3.32051">
        <ele>843.95</ele>
        <time>2024-11-05T17:50:17.162Z</time>
      </trkpt>
      <trkpt lat="44.41398" lon="3.32044">
        <ele>843.64</ele>
        <time>2024-11-05T17:50:29.027Z</time>
      </trkpt>
      <trkpt lat="44.41389" lon="3.3204">
        <ele>843.36</ele>
        <time>2024-11-05T17:50:40.893Z</time>
      </trkpt>
      <trkpt lat="44.41368" lon="3.3203">
        <ele>843.08</ele>
        <time>2024-11-05T17:50:52.763Z</time>
      </trkpt>
      <trkpt lat="44.41338" lon="3.32016">
        <ele>842.8</ele>
        <time>2024-11-05T17:51:04.638Z</time>
      </trkpt>
      <trkpt lat="44.413" lon="3.31997">
        <ele>842.55</ele>
        <time>2024-11-05T17:51:16.520Z</time>
      </trkpt>
      <trkpt lat="44.41249" lon="3.31973">
        <ele>842.42</ele>
        <time>2024-11-05T17:51:28.410Z</time>
      </trkpt>
      <trkpt lat="44.41232" lon="3.31965">
        <ele>842.24</ele>
        <time>2024-11-05T17:51:40.303Z</time>
      </trkpt>
      <trkpt lat="44.41224" lon="3.31961">
        <ele>842.05</ele>
        <time>2024-11-05T17:51:52.197Z</time>
      </trkpt>
      <trkpt lat="44.41214" lon="3.31956">
        <ele>841.86</ele>
        <time>2024-11-05T17:52:04.093Z</time>
      </trkpt>
      <trkpt lat="44.41211" lon="3.31954">
        <ele>841.68</ele>
        <time>2024-11-05T17:52:15.990Z</time>
      </trkpt>
      <trkpt lat="44.4119" lon="3.31943">
        <ele>841.5</ele>
        <time>2024-11-05T17:52:27.890Z</time>
      </trkpt>
      <trkpt lat="44.41179" lon="3.31937">
        <ele>841.32</ele>
        <time>2024-11-05T17:52:39.792Z</time>
      </trkpt>
      <trkpt lat="44.41174" lon="3.31934">
        <ele>841.15</ele>
        <time>2024-11-05T17:52:51.695Z</time>
      </trkpt>
      <trkpt lat="44.41149" lon="3.31918">
        <ele>840.92</ele>
        <time>2024-11-05T17:53:03.602Z</time>
      </trkpt>
      <trkpt lat="44.41144" lon="3.31915">
        <ele>840.77</ele>
        <time>2024-11-05T17:53:15.510Z</time>
      </trkpt>
      <trkpt lat="44.41138" lon="3.31909">
        <ele>840.62</ele>
        <time>2024-11-05T17:53:27.419Z</time>
      </trkpt>
      <trkpt lat="44.41115" lon="3.31889">
        <ele>840.42</ele>
        <time>2024-11-05T17:53:39.333Z</time>
      </trkpt>
      <trkpt lat="44.41089" lon="3.31866">
        <ele>840.3</ele>
        <time>2024-11-05T17:53:51.252Z</time>
      </trkpt>
      <trkpt lat="44.41074" lon="3.31852">
        <ele>840.23</ele>
        <time>2024-11-05T17:54:03.174Z</time>
      </trkpt>
      <trkpt lat="44.41062" lon="3.31842">
        <ele>840.17</ele>
        <time>2024-11-05T17:54:15.098Z</time>
      </trkpt>
      <trkpt lat="44.41051" lon="3.31832">
        <ele>840.12</ele>
        <time>2024-11-05T17:54:27.024Z</time>
      </trkpt>
      <trkpt lat="44.4104" lon="3.31822">
        <ele>840.09</ele>
        <time>2024-11-05T17:54:38.952Z</time>
      </trkpt>
      <trkpt lat="44.41025" lon="3.31809">
        <ele>840.07</ele>
        <time>2024-11-05T17:54:50.883Z</time>
      </trkpt>
      <trkpt lat="44.4101" lon="3.31793">
        <ele>840.09</ele>
        <time>2024-11-05T17:55:02.817Z</time>
      </trkpt>
      <trkpt lat="44.40993" lon="3.31773">
        <ele>840.12</ele>
        <time>2024-11-05T17:55:14.754Z</time>
      </trkpt>
      <trkpt lat="44.40984" lon="3.31751">
        <ele>840.14</ele>
        <time>2024-11-05T17:55:26.694Z</time>
      </trkpt>
      <trkpt lat="44.40974" lon="3.31723">
        <ele>840.16</ele>
        <time>2024-11-05T17:55:38.638Z</time>
      </trkpt>
      <trkpt lat="44.4096" lon="3.31688">
        <ele>840.17</ele>
        <time>2024-11-05T17:55:50.586Z</time>
      </trkpt>
      <trkpt lat="44.40956" lon="3.31673">
        <ele>840.24</ele>
        <time>2024-11-05T17:56:02.536Z</time>
      </trkpt>
      <trkpt lat="44.40939" lon="3.31618">
        <ele>840.36</ele>
        <time>2024-11-05T17:56:14.493Z</time>
      </trkpt>
      <trkpt lat="44.40937" lon="3.31603">
        <ele>840.49</ele>
        <time>2024-11-05T17:56:26.452Z</time>
      </trkpt>
      <trkpt lat="44.40932" lon="3.31566">
        <ele>840.62</ele>
        <time>2024-11-05T17:56:38.415Z</time>
      </trkpt>
      <trkpt lat="44.40928" lon="3.31537">
        <ele>840.73</ele>
        <time>2024-11-05T17:56:50.382Z</time>
      </trkpt>
      <trkpt lat="44.40928" lon="3.31522">
        <ele>840.83</ele>
        <time>2024-11-05T17:57:02.350Z</time>
      </trkpt>
      <trkpt lat="44.40927" lon="3.31491">
        <ele>840.93</ele>
        <time>2024-11-05T17:57:14.322Z</time>
      </trkpt>
      <trkpt lat="44.40927" lon="3.31466">
        <ele>841.06</ele>
        <time>2024-11-05T17:57:26.297Z</time>
      </trkpt>
      <trkpt lat="44.40927" lon="3.31453">
        <ele>841.24</ele>
        <time>2024-11-05T17:57:38.273Z</time>
      </trkpt>
      <trkpt lat="44.40926" lon="3.31422">
        <ele>841.42</ele>
        <time>2024-11-05T17:57:50.253Z</time>
      </trkpt>
      <trkpt lat="44.40926" lon="3.31391">
        <ele>841.65</ele>
        <time>2024-11-05T17:58:02.236Z</time>
      </trkpt>
      <trkpt lat="44.40925" lon="3.31334">
        <ele>841.89</ele>
        <time>2024-11-05T17:58:14.226Z</time>
      </trkpt>
      <trkpt lat="44.40924" lon="3.31291">
        <ele>842.06</ele>
        <time>2024-11-05T17:58:26.221Z</time>
      </trkpt>
      <trkpt lat="44.40924" lon="3.31284">
        <ele>842.26</ele>
        <time>2024-11-05T17:58:38.217Z</time>
      </trkpt>
      <trkpt lat="44.40923" lon="3.31259">
        <ele>842.46</ele>
        <time>2024-11-05T17:58:50.216Z</time>
      </trkpt>
      <trkpt lat="44.40922" lon="3.31234">
        <ele>842.69</ele>
        <time>2024-11-05T17:59:02.217Z</time>
      </trkpt>
      <trkpt lat="44.40921" lon="3.31222">
        <ele>842.91</ele>
        <time>2024-11-05T17:59:14.220Z</time>
      </trkpt>
      <trkpt lat="44.40924" lon="3.31194">
        <ele>843.17</ele>
        <time>2024-11-05T17:59:26.226Z</time>
      </trkpt>
      <trkpt lat="44.40932" lon="3.31161">
        <ele>843.41</ele>
        <time>2024-11-05T17:59:38.236Z</time>
      </trkpt>
      <trkpt lat="44.40938" lon="3.31137">
        <ele>843.66</ele>
        <time>2024-11-05T17:59:50.249Z</time>
      </trkpt>
      <trkpt lat="44.40942" lon="3.31113">
        <ele>843.91</ele>
        <time>2024-11-05T18:00:02.265Z</time>
      </trkpt>
      <trkpt lat="44.40942" lon="3.3111">
        <ele>844.11</ele>
        <time>2024-11-05T18:00:14.281Z</time>
      </trkpt>
      <trkpt lat="44.40942" lon="3.311">
        <ele>844.31</ele>
        <time>2024-11-05T18:00:26.298Z</time>
      </trkpt>
      <trkpt lat="44.40942" lon="3.31081">
        <ele>844.51</ele>
        <time>2024-11-05T18:00:38.317Z</time>
      </trkpt>
      <trkpt lat="44.40941" lon="3.31069">
        <ele>844.68</ele>
        <time>2024-11-05T18:00:50.338Z</time>
      </trkpt>
      <trkpt lat="44.40939" lon="3.31054">
        <ele>844.84</ele>
        <time>2024-11-05T18:01:02.361Z</time>
      </trkpt>
      <trkpt lat="44.40933" lon="3.31027">
        <ele>844.98</ele>
        <time>2024-11-05T18:01:14.387Z</time>
      </trkpt>
      <trkpt lat="44.40929" lon="3.31009">
        <ele>845.08</ele>
        <time>2024-11-05T18:01:26.415Z</time>
      </trkpt>
      <trkpt lat="44.40925" lon="3.30991">
        <ele>845.2</ele>
        <time>2024-11-05T18:01:38.445Z</time>
      </trkpt>
      <trkpt lat="44.40919" lon="3.30967">
        <ele>845.25</ele>
        <time>2024-11-05T18:01:50.478Z</time>
      </trkpt>
      <trkpt lat="44.40908" lon="3.30919">
        <ele>845.25</ele>
        <time>2024-11-05T18:02:02.517Z</time>
      </trkpt>
      <trkpt lat="44.40907" lon="3.30913">
        <ele>845.31</ele>
        <time>2024-11-05T18:02:14.557Z</time>
      </trkpt>
      <trkpt lat="44.40903" lon="3.30882">
        <ele>845.34</ele>
        <time>2024-11-05T18:02:26.600Z</time>
      </trkpt>
      <trkpt lat="44.40901" lon="3.30867">
        <ele>845.36</ele>
        <time>2024-11-05T18:02:38.645Z</time>
      </trkpt>
      <trkpt lat="44.40902" lon="3.30849">
        <ele>845.37</ele>
        <time>2024-11-05T18:02:50.692Z</time>
      </trkpt>
      <trkpt lat="44.40907" lon="3.30834">
        <ele>845.36</ele>
        <time>2024-11-05T18:03:02.741Z</time>
      </trkpt>
      <trkpt lat="44.40922" lon="3.30781">
        <ele>845.4</ele>
        <time>2024-11-05T18:03:14.796Z</time>
      </trkpt>
      <trkpt lat="44.40925" lon="3.3077">
        <ele>845.32</ele>
        <time>2024-11-05T18:03:26.853Z</time>
      </trkpt>
      <trkpt lat="44.40927" lon="3.30763">
        <ele>845.25</ele>
        <time>2024-11-05T18:03:38.911Z</time>
      </trkpt>
      <trkpt lat="44.40929" lon="3.30752">
        <ele>845.13</ele>
        <time>2024-11-05T18:03:50.970Z</time>
      </trkpt>
      <trkpt lat="44.40932" lon="3.30738">
        <ele>844.98</ele>
        <time>2024-11-05T18:04:03.031Z</time>
      </trkpt>
      <trkpt lat="44.40933" lon="3.30721">
        <ele>844.83</ele>
        <time>2024-11-05T18:04:15.094Z</time>
      </trkpt>
      <trkpt lat="44.40933" lon="3.30709">
        <ele>844.67</ele>
        <time>2024-11-05T18:04:27.158Z</time>
      </trkpt>
      <trkpt lat="44.40934" lon="3.30693">
        <ele>844.46</ele>
        <time>2024-11-05T18:04:39.224Z</time>
      </trkpt>
      <trkpt lat="44.40926" lon="3.30648">
        <ele>844.29</ele>
        <time>2024-11-05T18:04:51.295Z</time>
      </trkpt>
      <trkpt lat="44.40921" lon="3.30624">
        <ele>844.08</ele>
        <time>2024-11-05T18:05:03.369Z</time>
      </trkpt>
      <trkpt lat="44.4092" lon="3.30618">
        <ele>843.83</ele>
        <time>2024-11-05T18:05:15.444Z</time>
      </trkpt>
      <trkpt lat="44.40912" lon="3.30603">
        <ele>843.58</ele>
        <time>2024-11-05T18:05:27.521Z</time>
      </trkpt>
      <trkpt lat="44.40905" lon="3.3059">
        <ele>843.32</ele>
        <time>2024-11-05T18:05:39.600Z</time>
      </trkpt>
      <trkpt lat="44.40891" lon="3.30571">
        <ele>843.06</ele>
        <time>2024-11-05T18:05:51.682Z</time>
      </trkpt>
      <trkpt lat="44.40884" lon="3.30563">
        <ele>842.74</ele>
        <time>2024-11-05T18:06:03.765Z</time>
      </trkpt>
      <trkpt lat="44.40882" lon="3.3056">
        <ele>842.39</ele>
        <time>2024-11-05T18:06:15.849Z</time>
      </trkpt>
      <trkpt lat="44.40872" lon="3.30544">
        <ele>841.99</ele>
        <time>2024-11-05T18:06:27.935Z</time>
      </trkpt>
      <trkpt lat="44.40854" lon="3.30517">
        <ele>841.52</ele>
        <time>2024-11-05T18:06:40.025Z</time>
      </trkpt>
      <trkpt lat="44.40848" lon="3.30507">
        <ele>841.11</ele>
        <time>2024-11-05T18:06:52.117Z</time>
      </trkpt>
      <trkpt lat="44.40845" lon="3.30502">
        <ele>840.68</ele>
        <time>2024-11-05T18:07:04.210Z</time>
      </trkpt>
      <trkpt lat="44.40844" lon="3.30497">
        <ele>840.23</ele>
        <time>2024-11-05T18:07:16.303Z</time>
      </trkpt>
      <trkpt lat="44.40835" lon="3.30468">
        <ele>839.74</ele>
        <time>2024-11-05T18:07:28.400Z</time>
      </trkpt>
      <trkpt lat="44.40831" lon="3.30456">
        <ele>839.24</ele>
        <time>2024-11-05T18:07:40.498Z</time>
      </trkpt>
      <trkpt lat="44.4083" lon="3.30451">
        <ele>838.73</ele>
        <time>2024-11-05T18:07:52.597Z</time>
      </trkpt>
      <trkpt lat="44.40826" lon="3.30433">
        <ele>838.21</ele>
        <time>2024-11-05T18:08:04.698Z</time>
      </trkpt>
      <trkpt lat="44.40817" lon="3.30391">
        <ele>837.68</ele>
        <time>2024-11-05T18:08:16.804Z</time>
      </trkpt>
      <trkpt lat="44.40813" lon="3.30373">
        <ele>837.11</ele>
        <time>2024-11-05T18:08:28.912Z</time>
      </trkpt>
      <trkpt lat="44.40803" lon="3.30325">
        <ele>836.42</ele>
        <time>2024-11-05T18:08:41.026Z</time>
      </trkpt>
      <trkpt lat="44.40801" lon="3.30317">
        <ele>835.81</ele>
        <time>2024-11-05T18:08:53.141Z</time>
      </trkpt>
      <trkpt lat="44.408" lon="3.30313">
        <ele>835.2</ele>
        <time>2024-11-05T18:09:05.256Z</time>
      </trkpt>
      <trkpt lat="44.40793" lon="3.30289">
        <ele>834.52</ele>
        <time>2024-11-05T18:09:17.374Z</time>
      </trkpt>
      <trkpt lat="44.4078" lon="3.30273">
        <ele>833.86</ele>
        <time>2024-11-05T18:09:29.495Z</time>
      </trkpt>
      <trkpt lat="44.40755" lon="3.3026">
        <ele>833.24</ele>
        <time>2024-11-05T18:09:41.620Z</time>
      </trkpt>
      <trkpt lat="44.40716" lon="3.30246">
        <ele>832.62</ele>
        <time>2024-11-05T18:09:53.752Z</time>
      </trkpt>
      <trkpt lat="44.40699" lon="3.3024">
        <ele>832.02</ele>
        <time>2024-11-05T18:10:05.887Z</time>
      </trkpt>
      <trkpt lat="44.40681" lon="3.30234">
        <ele>831.39</ele>
        <time>2024-11-05T18:10:18.025Z</time>
      </trkpt>
      <trkpt lat="44.40676" lon="3.30232">
        <ele>830.77</ele>
        <time>2024-11-05T18:10:30.164Z</time>
      </trkpt>
      <trkpt lat="44.4066" lon="3.30224">
        <ele>830.14</ele>
        <time>2024-11-05T18:10:42.305Z</time>
      </trkpt>
      <trkpt lat="44.40614" lon="3.302">
        <ele>829.41</ele>
        <time>2024-11-05T18:10:54.454Z</time>
      </trkpt>
      <trkpt lat="44.40593" lon="3.30189">
        <ele>828.72</ele>
        <time>2024-11-05T18:11:06.607Z</time>
      </trkpt>
      <trkpt lat="44.40588" lon="3.30186">
        <ele>828.09</ele>
        <time>2024-11-05T18:11:18.761Z</time>
      </trkpt>
      <trkpt lat="44.40581" lon="3.30181">
        <ele>827.46</ele>
        <time>2024-11-05T18:11:30.916Z</time>
      </trkpt>
      <trkpt lat="44.40573" lon="3.30175">
        <ele>826.81</ele>
        <time>2024-11-05T18:11:43.072Z</time>
      </trkpt>
      <trkpt lat="44.40565" lon="3.3017">
        <ele>826.17</ele>
        <time>2024-11-05T18:11:55.230Z</time>
      </trkpt>
      <trkpt lat="44.40565" lon="3.3017">
        <ele>825.58</ele>
        <time>2024-11-05T18:12:07.388Z</time>
      </trkpt>
      <trkpt lat="44.40554" lon="3.30155">
        <ele>824.92</ele>
        <time>2024-11-05T18:12:19.548Z</time>
      </trkpt>
      <trkpt lat="44.40547" lon="3.30137">
        <ele>824.32</ele>
        <time>2024-11-05T18:12:31.710Z</time>
      </trkpt>
      <trkpt lat="44.40547" lon="3.30122">
        <ele>823.74</ele>
        <time>2024-11-05T18:12:43.874Z</time>
      </trkpt>
      <trkpt lat="44.40547" lon="3.30114">
        <ele>823.19</ele>
        <time>2024-11-05T18:12:56.039Z</time>
      </trkpt>
      <trkpt lat="44.4055" lon="3.30097">
        <ele>822.64</ele>
        <time>2024-11-05T18:13:08.206Z</time>
      </trkpt>
      <trkpt lat="44.40552" lon="3.30079">
        <ele>822.1</ele>
        <time>2024-11-05T18:13:20.375Z</time>
      </trkpt>
      <trkpt lat="44.40555" lon="3.3006">
        <ele>821.61</ele>
        <time>2024-11-05T18:13:32.546Z</time>
      </trkpt>
      <trkpt lat="44.40555" lon="3.30054">
        <ele>821.11</ele>
        <time>2024-11-05T18:13:44.718Z</time>
      </trkpt>
      <trkpt lat="44.40556" lon="3.30033">
        <ele>820.63</ele>
        <time>2024-11-05T18:13:56.893Z</time>
      </trkpt>
      <trkpt lat="44.40555" lon="3.30011">
        <ele>820.14</ele>
        <time>2024-11-05T18:14:09.070Z</time>
      </trkpt>
      <trkpt lat="44.40554" lon="3.29988">
        <ele>819.65</ele>
        <time>2024-11-05T18:14:21.250Z</time>
      </trkpt>
      <trkpt lat="44.40547" lon="3.29963">
        <ele>819.15</ele>
        <time>2024-11-05T18:14:33.433Z</time>
      </trkpt>
      <trkpt lat="44.40539" lon="3.29936">
        <ele>818.63</ele>
        <time>2024-11-05T18:14:45.619Z</time>
      </trkpt>
      <trkpt lat="44.40537" lon="3.29934">
        <ele>818.16</ele>
        <time>2024-11-05T18:14:57.805Z</time>
      </trkpt>
      <trkpt lat="44.4052" lon="3.29914">
        <ele>817.62</ele>
        <time>2024-11-05T18:15:09.995Z</time>
      </trkpt>
      <trkpt lat="44.4051" lon="3.29902">
        <ele>817.15</ele>
        <time>2024-11-05T18:15:22.187Z</time>
      </trkpt>
      <trkpt lat="44.405" lon="3.29891">
        <ele>816.68</ele>
        <time>2024-11-05T18:15:34.381Z</time>
      </trkpt>
      <trkpt lat="44.40499" lon="3.2989">
        <ele>816.24</ele>
        <time>2024-11-05T18:15:46.575Z</time>
      </trkpt>
      <trkpt lat="44.40489" lon="3.29879">
        <ele>815.81</ele>
        <time>2024-11-05T18:15:58.772Z</time>
      </trkpt>
      <trkpt lat="44.40478" lon="3.29868">
        <ele>815.4</ele>
        <time>2024-11-05T18:16:10.971Z</time>
      </trkpt>
      <trkpt lat="44.40465" lon="3.29842">
        <ele>815</ele>
        <time>2024-11-05T18:16:23.173Z</time>
      </trkpt>
      <trkpt lat="44.40463" lon="3.29837">
        <ele>814.57</ele>
        <time>2024-11-05T18:16:35.376Z</time>
      </trkpt>
      <trkpt lat="44.4046" lon="3.29818">
        <ele>814.14</ele>
        <time>2024-11-05T18:16:47.581Z</time>
      </trkpt>
      <trkpt lat="44.40456" lon="3.298">
        <ele>813.72</ele>
        <time>2024-11-05T18:16:59.788Z</time>
      </trkpt>
      <trkpt lat="44.40451" lon="3.2977">
        <ele>813.29</ele>
        <time>2024-11-05T18:17:11.999Z</time>
      </trkpt>
      <trkpt lat="44.40442" lon="3.29721">
        <ele>812.8</ele>
        <time>2024-11-05T18:17:24.216Z</time>
      </trkpt>
      <trkpt lat="44.40436" lon="3.29691">
        <ele>812.34</ele>
        <time>2024-11-05T18:17:36.436Z</time>
      </trkpt>
      <trkpt lat="44.40433" lon="3.29673">
        <ele>811.9</ele>
        <time>2024-11-05T18:17:48.658Z</time>
      </trkpt>
      <trkpt lat="44.40425" lon="3.2963">
        <ele>811.49</ele>
        <time>2024-11-05T18:18:00.885Z</time>
      </trkpt>
      <trkpt lat="44.4042" lon="3.29606">
        <ele>811.02</ele>
        <time>2024-11-05T18:18:13.115Z</time>
      </trkpt>
      <trkpt lat="44.40416" lon="3.29583">
        <ele>810.54</ele>
        <time>2024-11-05T18:18:25.348Z</time>
      </trkpt>
      <trkpt lat="44.40415" lon="3.29576">
        <ele>810.06</ele>
        <time>2024-11-05T18:18:37.582Z</time>
      </trkpt>
      <trkpt lat="44.40409" lon="3.29533">
        <ele>809.52</ele>
        <time>2024-11-05T18:18:49.821Z</time>
      </trkpt>
      <trkpt lat="44.40409" lon="3.29526">
        <ele>809.05</ele>
        <time>2024-11-05T18:19:02.061Z</time>
      </trkpt>
      <trkpt lat="44.40408" lon="3.29514">
        <ele>808.53</ele>
        <time>2024-11-05T18:19:14.302Z</time>
      </trkpt>
      <trkpt lat="44.40405" lon="3.29476">
        <ele>807.99</ele>
        <time>2024-11-05T18:19:26.547Z</time>
      </trkpt>
      <trkpt lat="44.40404" lon="3.29458">
        <ele>807.47</ele>
        <time>2024-11-05T18:19:38.795Z</time>
      </trkpt>
      <trkpt lat="44.40402" lon="3.29433">
        <ele>806.95</ele>
        <time>2024-11-05T18:19:51.045Z</time>
      </trkpt>
      <trkpt lat="44.40401" lon="3.29421">
        <ele>806.46</ele>
        <time>2024-11-05T18:20:03.297Z</time>
      </trkpt>
      <trkpt lat="44.40396" lon="3.29393">
        <ele>805.92</ele>
        <time>2024-11-05T18:20:15.552Z</time>
      </trkpt>
      <trkpt lat="44.40389" lon="3.29367">
        <ele>805.43</ele>
        <time>2024-11-05T18:20:27.810Z</time>
      </trkpt>
      <trkpt lat="44.40372" lon="3.29329">
        <ele>805.02</ele>
        <time>2024-11-05T18:20:40.073Z</time>
      </trkpt>
      <trkpt lat="44.40356" lon="3.29291">
        <ele>804.49</ele>
        <time>2024-11-05T18:20:52.341Z</time>
      </trkpt>
      <trkpt lat="44.40347" lon="3.2927">
        <ele>803.99</ele>
        <time>2024-11-05T18:21:04.612Z</time>
      </trkpt>
      <trkpt lat="44.40337" lon="3.29249">
        <ele>803.43</ele>
        <time>2024-11-05T18:21:16.886Z</time>
      </trkpt>
      <trkpt lat="44.40333" lon="3.29238">
        <ele>802.94</ele>
        <time>2024-11-05T18:21:29.162Z</time>
      </trkpt>
      <trkpt lat="44.40319" lon="3.29206">
        <ele>802.46</ele>
        <time>2024-11-05T18:21:41.442Z</time>
      </trkpt>
      <trkpt lat="44.4031" lon="3.29184">
        <ele>802.02</ele>
        <time>2024-11-05T18:21:53.725Z</time>
      </trkpt>
      <trkpt lat="44.40305" lon="3.29173">
        <ele>801.56</ele>
        <time>2024-11-05T18:22:06.009Z</time>
      </trkpt>
      <trkpt lat="44.40298" lon="3.29157">
        <ele>801.13</ele>
        <time>2024-11-05T18:22:18.295Z</time>
      </trkpt>
      <trkpt lat="44.40286" lon="3.29131">
        <ele>800.72</ele>
        <time>2024-11-05T18:22:30.585Z</time>
      </trkpt>
      <trkpt lat="44.40282" lon="3.29121">
        <ele>800.26</ele>
        <time>2024-11-05T18:22:42.876Z</time>
      </trkpt>
      <trkpt lat="44.40282" lon="3.2912">
        <ele>799.84</ele>
        <time>2024-11-05T18:22:55.167Z</time>
      </trkpt>
      <trkpt lat="44.40276" lon="3.29103">
        <ele>799.39</ele>
        <time>2024-11-05T18:23:07.461Z</time>
      </trkpt>
      <trkpt lat="44.40271" lon="3.29089">
        <ele>798.94</ele>
        <time>2024-11-05T18:23:19.756Z</time>
      </trkpt>
      <trkpt lat="44.40267" lon="3.29091">
        <ele>798.56</ele>
        <time>2024-11-05T18:23:32.052Z</time>
      </trkpt>
      <trkpt lat="44.40264" lon="3.29092">
        <ele>798.2</ele>
        <time>2024-11-05T18:23:44.349Z</time>
      </trkpt>
      <trkpt lat="44.40257" lon="3.29086">
        <ele>797.82</ele>
        <time>2024-11-05T18:23:56.647Z</time>
      </trkpt>
      <trkpt lat="44.40247" lon="3.29092">
        <ele>797.5</ele>
        <time>2024-11-05T18:24:08.947Z</time>
      </trkpt>
      <trkpt lat="44.40238" lon="3.29097">
        <ele>797.18</ele>
        <time>2024-11-05T18:24:21.248Z</time>
      </trkpt>
      <trkpt lat="44.40232" lon="3.291">
        <ele>796.89</ele>
        <time>2024-11-05T18:24:33.550Z</time>
      </trkpt>
      <trkpt lat="44.40211" lon="3.29117">
        <ele>796.65</ele>
        <time>2024-11-05T18:24:45.856Z</time>
      </trkpt>
      <trkpt lat="44.40208" lon="3.29122">
        <ele>796.38</ele>
        <time>2024-11-05T18:24:58.163Z</time>
      </trkpt>
      <trkpt lat="44.40189" lon="3.29148">
        <ele>796.1</ele>
        <time>2024-11-05T18:25:10.474Z</time>
      </trkpt>
      <trkpt lat="44.40182" lon="3.29157">
        <ele>795.83</ele>
        <time>2024-11-05T18:25:22.787Z</time>
      </trkpt>
      <trkpt lat="44.40164" lon="3.29184">
        <ele>795.5</ele>
        <time>2024-11-05T18:25:35.104Z</time>
      </trkpt>
      <trkpt lat="44.40155" lon="3.29198">
        <ele>795.33</ele>
        <time>2024-11-05T18:25:47.423Z</time>
      </trkpt>
      <trkpt lat="44.40149" lon="3.29207">
        <ele>795.17</ele>
        <time>2024-11-05T18:25:59.743Z</time>
      </trkpt>
      <trkpt lat="44.40143" lon="3.29216">
        <ele>795.01</ele>
        <time>2024-11-05T18:26:12.065Z</time>
      </trkpt>
      <trkpt lat="44.40135" lon="3.29229">
        <ele>794.91</ele>
        <time>2024-11-05T18:26:24.389Z</time>
      </trkpt>
      <trkpt lat="44.40131" lon="3.29234">
        <ele>794.84</ele>
        <time>2024-11-05T18:26:36.714Z</time>
      </trkpt>
      <trkpt lat="44.40125" lon="3.29243">
        <ele>794.75</ele>
        <time>2024-11-05T18:26:49.040Z</time>
      </trkpt>
      <trkpt lat="44.40119" lon="3.29252">
        <ele>794.7</ele>
        <time>2024-11-05T18:27:01.367Z</time>
      </trkpt>
      <trkpt lat="44.40112" lon="3.29261">
        <ele>794.67</ele>
        <time>2024-11-05T18:27:13.696Z</time>
      </trkpt>
      <trkpt lat="44.40109" lon="3.29265">
        <ele>794.66</ele>
        <time>2024-11-05T18:27:26.026Z</time>
      </trkpt>
      <trkpt lat="44.40106" lon="3.29269">
        <ele>794.71</ele>
        <time>2024-11-05T18:27:38.356Z</time>
      </trkpt>
      <trkpt lat="44.40098" lon="3.29276">
        <ele>794.78</ele>
        <time>2024-11-05T18:27:50.688Z</time>
      </trkpt>
      <trkpt lat="44.40088" lon="3.29288">
        <ele>794.86</ele>
        <time>2024-11-05T18:28:03.022Z</time>
      </trkpt>
      <trkpt lat="44.40081" lon="3.29295">
        <ele>794.96</ele>
        <time>2024-11-05T18:28:15.357Z</time>
      </trkpt>
      <trkpt lat="44.40079" lon="3.29297">
        <ele>795.13</ele>
        <time>2024-11-05T18:28:27.693Z</time>
      </trkpt>
      <trkpt lat="44.40073" lon="3.29301">
        <ele>795.32</ele>
        <time>2024-11-05T18:28:40.030Z</time>
      </trkpt>
      <trkpt lat="44.40064" lon="3.29305">
        <ele>795.56</ele>
        <time>2024-11-05T18:28:52.368Z</time>
      </trkpt>
      <trkpt lat="44.4006" lon="3.29307">
        <ele>795.83</ele>
        <time>2024-11-05T18:29:04.707Z</time>
      </trkpt>
      <trkpt lat="44.40056" lon="3.2931">
        <ele>796.12</ele>
        <time>2024-11-05T18:29:17.047Z</time>
      </trkpt>
      <trkpt lat="44.40047" lon="3.29314">
        <ele>796.47</ele>
        <time>2024-11-05T18:29:29.388Z</time>
      </trkpt>
      <trkpt lat="44.40046" lon="3.29315">
        <ele>796.83</ele>
        <time>2024-11-05T18:29:41.729Z</time>
      </trkpt>
      <trkpt lat="44.40034" lon="3.29319">
        <ele>797.27</ele>
        <time>2024-11-05T18:29:54.072Z</time>
      </trkpt>
      <trkpt lat="44.40021" lon="3.29323">
        <ele>797.75</ele>
        <time>2024-11-05T18:30:06.417Z</time>
      </trkpt>
      <trkpt lat="44.40008" lon="3.29328">
        <ele>798.24</ele>
        <time>2024-11-05T18:30:18.765Z</time>
      </trkpt>
      <trkpt lat="44.40005" lon="3.29329">
        <ele>798.73</ele>
        <time>2024-11-05T18:30:31.113Z</time>
      </trkpt>
      <trkpt lat="44.39995" lon="3.2933">
        <ele>799.28</ele>
        <time>2024-11-05T18:30:43.463Z</time>
      </trkpt>
      <trkpt lat="44.3999" lon="3.29331">
        <ele>799.83</ele>
        <time>2024-11-05T18:30:55.813Z</time>
      </trkpt>
      <trkpt lat="44.39979" lon="3.29331">
        <ele>800.41</ele>
        <time>2024-11-05T18:31:08.165Z</time>
      </trkpt>
      <trkpt lat="44.39977" lon="3.29331">
        <ele>801.01</ele>
        <time>2024-11-05T18:31:20.518Z</time>
      </trkpt>
      <trkpt lat="44.39957" lon="3.29327">
        <ele>801.64</ele>
        <time>2024-11-05T18:31:32.874Z</time>
      </trkpt>
      <trkpt lat="44.3995" lon="3.29325">
        <ele>802.3</ele>
        <time>2024-11-05T18:31:45.231Z</time>
      </trkpt>
      <trkpt lat="44.39942" lon="3.29322">
        <ele>802.98</ele>
        <time>2024-11-05T18:31:57.589Z</time>
      </trkpt>
      <trkpt lat="44.39924" lon="3.29316">
        <ele>803.73</ele>
        <time>2024-11-05T18:32:09.950Z</time>
      </trkpt>
      <trkpt lat="44.39908" lon="3.2931">
        <ele>804.51</ele>
        <time>2024-11-05T18:32:22.314Z</time>
      </trkpt>
      <trkpt lat="44.39907" lon="3.2931">
        <ele>805.28</ele>
        <time>2024-11-05T18:32:34.678Z</time>
      </trkpt>
      <trkpt lat="44.39893" lon="3.29307">
        <ele>806.12</ele>
        <time>2024-11-05T18:32:47.044Z</time>
      </trkpt>
      <trkpt lat="44.39886" lon="3.29306">
        <ele>806.96</ele>
        <time>2024-11-05T18:32:59.411Z</time>
      </trkpt>
      <trkpt lat="44.39875" lon="3.29306">
        <ele>807.82</ele>
        <time>2024-11-05T18:33:11.780Z</time>
      </trkpt>
      <trkpt lat="44.39857" lon="3.29305">
        <ele>808.73</ele>
        <time>2024-11-05T18:33:24.152Z</time>
      </trkpt>
      <trkpt lat="44.39848" lon="3.29305">
        <ele>809.62</ele>
        <time>2024-11-05T18:33:36.525Z</time>
      </trkpt>
      <trkpt lat="44.39833" lon="3.29304">
        <ele>810.53</ele>
        <time>2024-11-05T18:33:48.901Z</time>
      </trkpt>
      <trkpt lat="44.39804" lon="3.29307">
        <ele>811.46</ele>
        <time>2024-11-05T18:34:01.282Z</time>
      </trkpt>
      <trkpt lat="44.39772" lon="3.2931">
        <ele>812.48</ele>
        <time>2024-11-05T18:34:13.668Z</time>
      </trkpt>
      <trkpt lat="44.39759" lon="3.29311">
        <ele>813.45</ele>
        <time>2024-11-05T18:34:26.056Z</time>
      </trkpt>
      <trkpt lat="44.39753" lon="3.29312">
        <ele>814.4</ele>
        <time>2024-11-05T18:34:38.445Z</time>
      </trkpt>
      <trkpt lat="44.39736" lon="3.29312">
        <ele>815.4</ele>
        <time>2024-11-05T18:34:50.836Z</time>
      </trkpt>
      <trkpt lat="44.39735" lon="3.29312">
        <ele>816.33</ele>
        <time>2024-11-05T18:35:03.228Z</time>
      </trkpt>
      <trkpt lat="44.39714" lon="3.29309">
        <ele>817.31</ele>
        <time>2024-11-05T18:35:15.623Z</time>
      </trkpt>
      <trkpt lat="44.39702" lon="3.29308">
        <ele>818.26</ele>
        <time>2024-11-05T18:35:28.020Z</time>
      </trkpt>
      <trkpt lat="44.39687" lon="3.29304">
        <ele>819.19</ele>
        <time>2024-11-05T18:35:40.419Z</time>
      </trkpt>
      <trkpt lat="44.39665" lon="3.29298">
        <ele>820.14</ele>
        <time>2024-11-05T18:35:52.822Z</time>
      </trkpt>
      <trkpt lat="44.39652" lon="3.29293">
        <ele>821.07</ele>
        <time>2024-11-05T18:36:05.227Z</time>
      </trkpt>
      <trkpt lat="44.3964" lon="3.29285">
        <ele>822</ele>
        <time>2024-11-05T18:36:17.634Z</time>
      </trkpt>
      <trkpt lat="44.39631" lon="3.29279">
        <ele>822.92</ele>
        <time>2024-11-05T18:36:30.043Z</time>
      </trkpt>
      <trkpt lat="44.39613" lon="3.29262">
        <ele>823.86</ele>
        <time>2024-11-05T18:36:42.455Z</time>
      </trkpt>
      <trkpt lat="44.39608" lon="3.29257">
        <ele>824.78</ele>
        <time>2024-11-05T18:36:54.868Z</time>
      </trkpt>
      <trkpt lat="44.39599" lon="3.29246">
        <ele>825.7</ele>
        <time>2024-11-05T18:37:07.283Z</time>
      </trkpt>
      <trkpt lat="44.39586" lon="3.29229">
        <ele>826.64</ele>
        <time>2024-11-05T18:37:19.701Z</time>
      </trkpt>
      <trkpt lat="44.3958" lon="3.29221">
        <ele>827.55</ele>
        <time>2024-11-05T18:37:32.120Z</time>
      </trkpt>
      <trkpt lat="44.3958" lon="3.2922">
        <ele>828.45</ele>
        <time>2024-11-05T18:37:44.539Z</time>
      </trkpt>
      <trkpt lat="44.39562" lon="3.29201">
        <ele>829.38</ele>
        <time>2024-11-05T18:37:56.962Z</time>
      </trkpt>
      <trkpt lat="44.39558" lon="3.29198">
        <ele>830.27</ele>
        <time>2024-11-05T18:38:09.386Z</time>
      </trkpt>
      <trkpt lat="44.39544" lon="3.29186">
        <ele>831.18</ele>
        <time>2024-11-05T18:38:21.812Z</time>
      </trkpt>
      <trkpt lat="44.39534" lon="3.29181">
        <ele>832.07</ele>
        <time>2024-11-05T18:38:34.240Z</time>
      </trkpt>
      <trkpt lat="44.39524" lon="3.29175">
        <ele>832.95</ele>
        <time>2024-11-05T18:38:46.670Z</time>
      </trkpt>
      <trkpt lat="44.39522" lon="3.29174">
        <ele>833.81</ele>
        <time>2024-11-05T18:38:59.100Z</time>
      </trkpt>
      <trkpt lat="44.39503" lon="3.29168">
        <ele>834.71</ele>
        <time>2024-11-05T18:39:11.533Z</time>
      </trkpt>
      <trkpt lat="44.39495" lon="3.29167">
        <ele>835.57</ele>
        <time>2024-11-05T18:39:23.968Z</time>
      </trkpt>
      <trkpt lat="44.39477" lon="3.29163">
        <ele>836.44</ele>
        <time>2024-11-05T18:39:36.406Z</time>
      </trkpt>
      <trkpt lat="44.39469" lon="3.29163">
        <ele>837.28</ele>
        <time>2024-11-05T18:39:48.845Z</time>
      </trkpt>
      <trkpt lat="44.39455" lon="3.29162">
        <ele>838.15</ele>
        <time>2024-11-05T18:40:01.286Z</time>
      </trkpt>
      <trkpt lat="44.39446" lon="3.29162">
        <ele>838.98</ele>
        <time>2024-11-05T18:40:13.728Z</time>
      </trkpt>
      <trkpt lat="44.39438" lon="3.29162">
        <ele>839.8</ele>
        <time>2024-11-05T18:40:26.172Z</time>
      </trkpt>
      <trkpt lat="44.39429" lon="3.29161">
        <ele>840.6</ele>
        <time>2024-11-05T18:40:38.617Z</time>
      </trkpt>
      <trkpt lat="44.39422" lon="3.29161">
        <ele>841.39</ele>
        <time>2024-11-05T18:40:51.063Z</time>
      </trkpt>
      <trkpt lat="44.3942" lon="3.29161">
        <ele>842.15</ele>
        <time>2024-11-05T18:41:03.510Z</time>
      </trkpt>
      <trkpt lat="44.39411" lon="3.29159">
        <ele>842.92</ele>
        <time>2024-11-05T18:41:15.958Z</time>
      </trkpt>
      <trkpt lat="44.39406" lon="3.29158">
        <ele>843.66</ele>
        <time>2024-11-05T18:41:28.407Z</time>
      </trkpt>
      <trkpt lat="44.39397" lon="3.29157">
        <ele>844.4</ele>
        <time>2024-11-05T18:41:40.857Z</time>
      </trkpt>
      <trkpt lat="44.39382" lon="3.29154">
        <ele>845.14</ele>
        <time>2024-11-05T18:41:53.310Z</time>
      </trkpt>
      <trkpt lat="44.39367" lon="3.29147">
        <ele>845.87</ele>
        <time>2024-11-05T18:42:05.765Z</time>
      </trkpt>
      <trkpt lat="44.3936" lon="3.29144">
        <ele>846.59</ele>
        <time>2024-11-05T18:42:18.221Z</time>
      </trkpt>
      <trkpt lat="44.39346" lon="3.29136">
        <ele>847.31</ele>
        <time>2024-11-05T18:42:30.680Z</time>
      </trkpt>
      <trkpt lat="44.39343" lon="3.29134">
        <ele>848.02</ele>
        <time>2024-11-05T18:42:43.139Z</time>
      </trkpt>
      <trkpt lat="44.3933" lon="3.29125">
        <ele>848.74</ele>
        <time>2024-11-05T18:42:55.601Z</time>
      </trkpt>
      <trkpt lat="44.39298" lon="3.29103">
        <ele>849.54</ele>
        <time>2024-11-05T18:43:08.068Z</time>
      </trkpt>
      <trkpt lat="44.39278" lon="3.2909">
        <ele>850.29</ele>
        <time>2024-11-05T18:43:20.539Z</time>
      </trkpt>
      <trkpt lat="44.39268" lon="3.29083">
        <ele>851.02</ele>
        <time>2024-11-05T18:43:33.012Z</time>
      </trkpt>
      <trkpt lat="44.39262" lon="3.29079">
        <ele>851.73</ele>
        <time>2024-11-05T18:43:45.486Z</time>
      </trkpt>
      <trkpt lat="44.39239" lon="3.29065">
        <ele>852.46</ele>
        <time>2024-11-05T18:43:57.964Z</time>
      </trkpt>
      <trkpt lat="44.39233" lon="3.29063">
        <ele>853.16</ele>
        <time>2024-11-05T18:44:10.443Z</time>
      </trkpt>
      <trkpt lat="44.39215" lon="3.29056">
        <ele>853.88</ele>
        <time>2024-11-05T18:44:22.925Z</time>
      </trkpt>
      <trkpt lat="44.39181" lon="3.29043">
        <ele>854.56</ele>
        <time>2024-11-05T18:44:35.413Z</time>
      </trkpt>
      <trkpt lat="44.39174" lon="3.29041">
        <ele>855.26</ele>
        <time>2024-11-05T18:44:47.902Z</time>
      </trkpt>
      <trkpt lat="44.39151" lon="3.29037">
        <ele>856</ele>
        <time>2024-11-05T18:45:00.394Z</time>
      </trkpt>
      <trkpt lat="44.3914" lon="3.2904">
        <ele>856.72</ele>
        <time>2024-11-05T18:45:12.888Z</time>
      </trkpt>
      <trkpt lat="44.3913" lon="3.29045">
        <ele>857.46</ele>
        <time>2024-11-05T18:45:25.384Z</time>
      </trkpt>
      <trkpt lat="44.39121" lon="3.29054">
        <ele>858.22</ele>
        <time>2024-11-05T18:45:37.882Z</time>
      </trkpt>
      <trkpt lat="44.39114" lon="3.29062">
        <ele>858.99</ele>
        <time>2024-11-05T18:45:50.381Z</time>
      </trkpt>
      <trkpt lat="44.39109" lon="3.29072">
        <ele>859.79</ele>
        <time>2024-11-05T18:46:02.881Z</time>
      </trkpt>
      <trkpt lat="44.39101" lon="3.29087">
        <ele>860.6</ele>
        <time>2024-11-05T18:46:15.384Z</time>
      </trkpt>
      <trkpt lat="44.39095" lon="3.29097">
        <ele>861.41</ele>
        <time>2024-11-05T18:46:27.888Z</time>
      </trkpt>
      <trkpt lat="44.3909" lon="3.29107">
        <ele>862.25</ele>
        <time>2024-11-05T18:46:40.393Z</time>
      </trkpt>
      <trkpt lat="44.39085" lon="3.29117">
        <ele>863.1</ele>
        <time>2024-11-05T18:46:52.900Z</time>
      </trkpt>
      <trkpt lat="44.39079" lon="3.29127">
        <ele>863.97</ele>
        <time>2024-11-05T18:47:05.408Z</time>
      </trkpt>
      <trkpt lat="44.39078" lon="3.2913">
        <ele>864.83</ele>
        <time>2024-11-05T18:47:17.917Z</time>
      </trkpt>
      <trkpt lat="44.39073" lon="3.29136">
        <ele>865.73</ele>
        <time>2024-11-05T18:47:30.427Z</time>
      </trkpt>
      <trkpt lat="44.39065" lon="3.29144">
        <ele>866.65</ele>
        <time>2024-11-05T18:47:42.938Z</time>
      </trkpt>
      <trkpt lat="44.39057" lon="3.29149">
        <ele>867.58</ele>
        <time>2024-11-05T18:47:55.451Z</time>
      </trkpt>
      <trkpt lat="44.39042" lon="3.29154">
        <ele>868.54</ele>
        <time>2024-11-05T18:48:07.966Z</time>
      </trkpt>
      <trkpt lat="44.39032" lon="3.29155">
        <ele>869.52</ele>
        <time>2024-11-05T18:48:20.483Z</time>
      </trkpt>
      <trkpt lat="44.39022" lon="3.29153">
        <ele>870.52</ele>
        <time>2024-11-05T18:48:33.001Z</time>
      </trkpt>
      <trkpt lat="44.39012" lon="3.2915">
        <ele>871.5</ele>
        <time>2024-11-05T18:48:45.521Z</time>
      </trkpt>
      <trkpt lat="44.39003" lon="3.29146">
        <ele>872.51</ele>
        <time>2024-11-05T18:48:58.043Z</time>
      </trkpt>
      <trkpt lat="44.38994" lon="3.29138">
        <ele>873.56</ele>
        <time>2024-11-05T18:49:10.566Z</time>
      </trkpt>
      <trkpt lat="44.38986" lon="3.29127">
        <ele>874.64</ele>
        <time>2024-11-05T18:49:23.091Z</time>
      </trkpt>
      <trkpt lat="44.3898" lon="3.29118">
        <ele>875.73</ele>
        <time>2024-11-05T18:49:35.618Z</time>
      </trkpt>
      <trkpt lat="44.38978" lon="3.29116">
        <ele>876.81</ele>
        <time>2024-11-05T18:49:48.145Z</time>
      </trkpt>
      <trkpt lat="44.3897" lon="3.29097">
        <ele>877.99</ele>
        <time>2024-11-05T18:50:00.674Z</time>
      </trkpt>
      <trkpt lat="44.38958" lon="3.29071">
        <ele>879.2</ele>
        <time>2024-11-05T18:50:13.207Z</time>
      </trkpt>
      <trkpt lat="44.38955" lon="3.29065">
        <ele>880.33</ele>
        <time>2024-11-05T18:50:25.741Z</time>
      </trkpt>
      <trkpt lat="44.38946" lon="3.29044">
        <ele>881.5</ele>
        <time>2024-11-05T18:50:38.278Z</time>
      </trkpt>
      <trkpt lat="44.38937" lon="3.29024">
        <ele>882.68</ele>
        <time>2024-11-05T18:50:50.817Z</time>
      </trkpt>
      <trkpt lat="44.38936" lon="3.29023">
        <ele>883.8</ele>
        <time>2024-11-05T18:51:03.356Z</time>
      </trkpt>
      <trkpt lat="44.38921" lon="3.28999">
        <ele>885</ele>
        <time>2024-11-05T18:51:15.899Z</time>
      </trkpt>
      <trkpt lat="44.38914" lon="3.28993">
        <ele>886.13</ele>
        <time>2024-11-05T18:51:28.444Z</time>
      </trkpt>
      <trkpt lat="44.38904" lon="3.28983">
        <ele>887.3</ele>
        <time>2024-11-05T18:51:40.990Z</time>
      </trkpt>
      <trkpt lat="44.38899" lon="3.2898">
        <ele>888.42</ele>
        <time>2024-11-05T18:51:53.537Z</time>
      </trkpt>
      <trkpt lat="44.38884" lon="3.28972">
        <ele>889.54</ele>
        <time>2024-11-05T18:52:06.087Z</time>
      </trkpt>
      <trkpt lat="44.38882" lon="3.28972">
        <ele>890.63</ele>
        <time>2024-11-05T18:52:18.637Z</time>
      </trkpt>
      <trkpt lat="44.38864" lon="3.28968">
        <ele>891.74</ele>
        <time>2024-11-05T18:52:31.190Z</time>
      </trkpt>
      <trkpt lat="44.38851" lon="3.28966">
        <ele>892.86</ele>
        <time>2024-11-05T18:52:43.745Z</time>
      </trkpt>
      <trkpt lat="44.38842" lon="3.28964">
        <ele>893.96</ele>
        <time>2024-11-05T18:52:56.302Z</time>
      </trkpt>
      <trkpt lat="44.38829" lon="3.28959">
        <ele>895.08</ele>
        <time>2024-11-05T18:53:08.861Z</time>
      </trkpt>
      <trkpt lat="44.38821" lon="3.28956">
        <ele>896.13</ele>
        <time>2024-11-05T18:53:21.421Z</time>
      </trkpt>
      <trkpt lat="44.38813" lon="3.2895">
        <ele>897.17</ele>
        <time>2024-11-05T18:53:33.983Z</time>
      </trkpt>
      <trkpt lat="44.388" lon="3.28942">
        <ele>898.22</ele>
        <time>2024-11-05T18:53:46.547Z</time>
      </trkpt>
      <trkpt lat="44.38797" lon="3.28939">
        <ele>899.15</ele>
        <time>2024-11-05T18:53:59.112Z</time>
      </trkpt>
      <trkpt lat="44.38782" lon="3.28923">
        <ele>900.07</ele>
        <time>2024-11-05T18:54:11.680Z</time>
      </trkpt>
      <trkpt lat="44.3878" lon="3.28919">
        <ele>900.91</ele>
        <time>2024-11-05T18:54:24.248Z</time>
      </trkpt>
      <trkpt lat="44.38774" lon="3.28909">
        <ele>901.73</ele>
        <time>2024-11-05T18:54:36.818Z</time>
      </trkpt>
      <trkpt lat="44.38766" lon="3.28894">
        <ele>902.52</ele>
        <time>2024-11-05T18:54:49.390Z</time>
      </trkpt>
      <trkpt lat="44.38766" lon="3.28894">
        <ele>903.23</ele>
        <time>2024-11-05T18:55:01.962Z</time>
      </trkpt>
      <trkpt lat="44.38762" lon="3.28883">
        <ele>903.92</ele>
        <time>2024-11-05T18:55:14.535Z</time>
      </trkpt>
      <trkpt lat="44.3876" lon="3.28877">
        <ele>904.55</ele>
        <time>2024-11-05T18:55:27.109Z</time>
      </trkpt>
      <trkpt lat="44.38759" lon="3.28875">
        <ele>905.13</ele>
        <time>2024-11-05T18:55:39.683Z</time>
      </trkpt>
      <trkpt lat="44.38757" lon="3.28866">
        <ele>905.67</ele>
        <time>2024-11-05T18:55:52.258Z</time>
      </trkpt>
      <trkpt lat="44.38755" lon="3.2886">
        <ele>906.18</ele>
        <time>2024-11-05T18:56:04.834Z</time>
      </trkpt>
      <trkpt lat="44.38752" lon="3.28848">
        <ele>906.63</ele>
        <time>2024-11-05T18:56:17.411Z</time>
      </trkpt>
      <trkpt lat="44.3875" lon="3.28842">
        <ele>907.03</ele>
        <time>2024-11-05T18:56:29.989Z</time>
      </trkpt>
      <trkpt lat="44.38749" lon="3.28836">
        <ele>907.39</ele>
        <time>2024-11-05T18:56:42.568Z</time>
      </trkpt>
      <trkpt lat="44.38745" lon="3.28825">
        <ele>907.71</ele>
        <time>2024-11-05T18:56:55.148Z</time>
      </trkpt>
      <trkpt lat="44.38744" lon="3.28819">
        <ele>907.99</ele>
        <time>2024-11-05T18:57:07.729Z</time>
      </trkpt>
      <trkpt lat="44.38741" lon="3.28807">
        <ele>908.24</ele>
        <time>2024-11-05T18:57:20.311Z</time>
      </trkpt>
      <trkpt lat="44.38739" lon="3.28801">
        <ele>908.45</ele>
        <time>2024-11-05T18:57:32.894Z</time>
      </trkpt>
      <trkpt lat="44.38736" lon="3.2879">
        <ele>908.61</ele>
        <time>2024-11-05T18:57:45.479Z</time>
      </trkpt>
      <trkpt lat="44.38733" lon="3.28778">
        <ele>908.73</ele>
        <time>2024-11-05T18:57:58.065Z</time>
      </trkpt>
      <trkpt lat="44.38731" lon="3.28772">
        <ele>908.82</ele>
        <time>2024-11-05T18:58:10.652Z</time>
      </trkpt>
      <trkpt lat="44.38728" lon="3.2876">
        <ele>908.9</ele>
        <time>2024-11-05T18:58:23.240Z</time>
      </trkpt>
      <trkpt lat="44.38721" lon="3.28737">
        <ele>908.94</ele>
        <time>2024-11-05T18:58:35.831Z</time>
      </trkpt>
      <trkpt lat="44.38717" lon="3.2872">
        <ele>908.94</ele>
        <time>2024-11-05T18:58:48.424Z</time>
      </trkpt>
      <trkpt lat="44.38713" lon="3.28706">
        <ele>908.92</ele>
        <time>2024-11-05T18:59:01.019Z</time>
      </trkpt>
      <trkpt lat="44.38707" lon="3.28692">
        <ele>908.88</ele>
        <time>2024-11-05T18:59:13.616Z</time>
      </trkpt>
      <trkpt lat="44.38699" lon="3.28672">
        <ele>908.79</ele>
        <time>2024-11-05T18:59:26.215Z</time>
      </trkpt>
      <trkpt lat="44.38695" lon="3.28666">
        <ele>908.7</ele>
        <time>2024-11-05T18:59:38.815Z</time>
      </trkpt>
      <trkpt lat="44.38691" lon="3.28659">
        <ele>908.6</ele>
        <time>2024-11-05T18:59:51.416Z</time>
      </trkpt>
      <trkpt lat="44.38686" lon="3.28652">
        <ele>908.49</ele>
        <time>2024-11-05T19:00:04.018Z</time>
      </trkpt>
      <trkpt lat="44.38667" lon="3.28627">
        <ele>908.32</ele>
        <time>2024-11-05T19:00:16.625Z</time>
      </trkpt>
      <trkpt lat="44.38654" lon="3.2861">
        <ele>908.17</ele>
        <time>2024-11-05T19:00:29.235Z</time>
      </trkpt>
      <trkpt lat="44.38634" lon="3.28583">
        <ele>908</ele>
        <time>2024-11-05T19:00:41.849Z</time>
      </trkpt>
      <trkpt lat="44.38632" lon="3.28579">
        <ele>907.87</ele>
        <time>2024-11-05T19:00:54.464Z</time>
      </trkpt>
      <trkpt lat="44.3861" lon="3.28543">
        <ele>907.73</ele>
        <time>2024-11-05T19:01:07.084Z</time>
      </trkpt>
      <trkpt lat="44.38601" lon="3.28519">
        <ele>907.62</ele>
        <time>2024-11-05T19:01:19.707Z</time>
      </trkpt>
      <trkpt lat="44.38594" lon="3.28502">
        <ele>907.5</ele>
        <time>2024-11-05T19:01:32.332Z</time>
      </trkpt>
      <trkpt lat="44.38591" lon="3.28491">
        <ele>907.39</ele>
        <time>2024-11-05T19:01:44.959Z</time>
      </trkpt>
      <trkpt lat="44.38588" lon="3.2848">
        <ele>907.27</ele>
        <time>2024-11-05T19:01:57.587Z</time>
      </trkpt>
      <trkpt lat="44.38585" lon="3.28468">
        <ele>907.17</ele>
        <time>2024-11-05T19:02:10.216Z</time>
      </trkpt>
      <trkpt lat="44.38582" lon="3.28456">
        <ele>907.06</ele>
        <time>2024-11-05T19:02:22.847Z</time>
      </trkpt>
      <trkpt lat="44.38578" lon="3.28439">
        <ele>906.96</ele>
        <time>2024-11-05T19:02:35.480Z</time>
      </trkpt>
      <trkpt lat="44.38575" lon="3.28427">
        <ele>906.88</ele>
        <time>2024-11-05T19:02:48.114Z</time>
      </trkpt>
      <trkpt lat="44.38574" lon="3.28425">
        <ele>906.82</ele>
        <time>2024-11-05T19:03:00.749Z</time>
      </trkpt>
      <trkpt lat="44.3857" lon="3.28416">
        <ele>906.77</ele>
        <time>2024-11-05T19:03:13.385Z</time>
      </trkpt>
      <trkpt lat="44.38565" lon="3.28406">
        <ele>906.73</ele>
        <time>2024-11-05T19:03:26.022Z</time>
      </trkpt>
      <trkpt lat="44.38561" lon="3.28395">
        <ele>906.71</ele>
        <time>2024-11-05T19:03:38.661Z</time>
      </trkpt>
      <trkpt lat="44.38557" lon="3.28387">
        <ele>906.71</ele>
        <time>2024-11-05T19:03:51.301Z</time>
      </trkpt>
      <trkpt lat="44.38556" lon="3.28385">
        <ele>906.73</ele>
        <time>2024-11-05T19:04:03.941Z</time>
      </trkpt>
      <trkpt lat="44.3855" lon="3.28375">
        <ele>906.75</ele>
        <time>2024-11-05T19:04:16.583Z</time>
      </trkpt>
      <trkpt lat="44.38548" lon="3.28371">
        <ele>906.79</ele>
        <time>2024-11-05T19:04:29.225Z</time>
      </trkpt>
      <trkpt lat="44.38547" lon="3.2837">
        <ele>906.85</ele>
        <time>2024-11-05T19:04:41.867Z</time>
      </trkpt>
      <trkpt lat="44.38541" lon="3.28361">
        <ele>906.92</ele>
        <time>2024-11-05T19:04:54.511Z</time>
      </trkpt>
      <trkpt lat="44.38532" lon="3.28347">
        <ele>907.01</ele>
        <time>2024-11-05T19:05:07.157Z</time>
      </trkpt>
      <trkpt lat="44.3853" lon="3.28345">
        <ele>907.09</ele>
        <time>2024-11-05T19:05:19.803Z</time>
      </trkpt>
      <trkpt lat="44.38521" lon="3.28336">
        <ele>907.2</ele>
        <time>2024-11-05T19:05:32.451Z</time>
      </trkpt>
      <trkpt lat="44.38503" lon="3.28317">
        <ele>907.33</ele>
        <time>2024-11-05T19:05:45.103Z</time>
      </trkpt>
      <trkpt lat="44.38488" lon="3.28302">
        <ele>907.44</ele>
        <time>2024-11-05T19:05:57.758Z</time>
      </trkpt>
      <trkpt lat="44.38477" lon="3.28291">
        <ele>907.56</ele>
        <time>2024-11-05T19:06:10.415Z</time>
      </trkpt>
      <trkpt lat="44.38441" lon="3.28254">
        <ele>907.77</ele>
        <time>2024-11-05T19:06:23.079Z</time>
      </trkpt>
      <trkpt lat="44.38434" lon="3.28247">
        <ele>907.88</ele>
        <time>2024-11-05T19:06:35.744Z</time>
      </trkpt>
      <trkpt lat="44.38427" lon="3.2824">
        <ele>907.96</ele>
        <time>2024-11-05T19:06:48.411Z</time>
      </trkpt>
      <trkpt lat="44.3842" lon="3.28232">
        <ele>908.03</ele>
        <time>2024-11-05T19:07:01.079Z</time>
      </trkpt>
      <trkpt lat="44.38412" lon="3.28225">
        <ele>908.09</ele>
        <time>2024-11-05T19:07:13.749Z</time>
      </trkpt>
      <trkpt lat="44.38405" lon="3.28217">
        <ele>908.13</ele>
        <time>2024-11-05T19:07:26.420Z</time>
      </trkpt>
      <trkpt lat="44.38398" lon="3.2821">
        <ele>908.12</ele>
        <time>2024-11-05T19:07:39.093Z</time>
      </trkpt>
      <trkpt lat="44.38394" lon="3.28206">
        <ele>908.1</ele>
        <time>2024-11-05T19:07:51.766Z</time>
      </trkpt>
      <trkpt lat="44.38387" lon="3.28199">
        <ele>908.04</ele>
        <time>2024-11-05T19:08:04.441Z</time>
      </trkpt>
      <trkpt lat="44.38383" lon="3.28195">
        <ele>907.97</ele>
        <time>2024-11-05T19:08:17.116Z</time>
      </trkpt>
      <trkpt lat="44.3838" lon="3.28191">
        <ele>907.87</ele>
        <time>2024-11-05T19:08:29.792Z</time>
      </trkpt>
      <trkpt lat="44.38372" lon="3.28184">
        <ele>907.73</ele>
        <time>2024-11-05T19:08:42.470Z</time>
      </trkpt>
      <trkpt lat="44.38362" lon="3.28173">
        <ele>907.56</ele>
        <time>2024-11-05T19:08:55.150Z</time>
      </trkpt>
      <trkpt lat="44.38351" lon="3.28162">
        <ele>907.34</ele>
        <time>2024-11-05T19:09:07.832Z</time>
      </trkpt>
      <trkpt lat="44.38348" lon="3.28159">
        <ele>907.1</ele>
        <time>2024-11-05T19:09:20.514Z</time>
      </trkpt>
      <trkpt lat="44.38332" lon="3.28145">
        <ele>906.79</ele>
        <time>2024-11-05T19:09:33.200Z</time>
      </trkpt>
      <trkpt lat="44.38324" lon="3.28139">
        <ele>906.48</ele>
        <time>2024-11-05T19:09:45.887Z</time>
      </trkpt>
      <trkpt lat="44.38287" lon="3.28115">
        <ele>906.13</ele>
        <time>2024-11-05T19:09:58.580Z</time>
      </trkpt>
      <trkpt lat="44.38273" lon="3.28105">
        <ele>905.74</ele>
        <time>2024-11-05T19:10:11.276Z</time>
      </trkpt>
      <trkpt lat="44.38243" lon="3.28085">
        <ele>905.27</ele>
        <time>2024-11-05T19:10:23.977Z</time>
      </trkpt>
      <trkpt lat="44.38233" lon="3.28078">
        <ele>904.78</ele>
        <time>2024-11-05T19:10:36.680Z</time>
      </trkpt>
      <trkpt lat="44.38231" lon="3.28076">
        <ele>904.28</ele>
        <time>2024-11-05T19:10:49.383Z</time>
      </trkpt>
      <trkpt lat="44.38219" lon="3.28068">
        <ele>903.73</ele>
        <time>2024-11-05T19:11:02.089Z</time>
      </trkpt>
      <trkpt lat="44.38211" lon="3.28062">
        <ele>903.15</ele>
        <time>2024-11-05T19:11:14.796Z</time>
      </trkpt>
      <trkpt lat="44.38203" lon="3.28057">
        <ele>902.52</ele>
        <time>2024-11-05T19:11:27.505Z</time>
      </trkpt>
      <trkpt lat="44.38195" lon="3.28051">
        <ele>901.86</ele>
        <time>2024-11-05T19:11:40.215Z</time>
      </trkpt>
      <trkpt lat="44.38189" lon="3.28047">
        <ele>901.15</ele>
        <time>2024-11-05T19:11:52.926Z</time>
      </trkpt>
      <trkpt lat="44.38187" lon="3.28045">
        <ele>900.41</ele>
        <time>2024-11-05T19:12:05.637Z</time>
      </trkpt>
      <trkpt lat="44.3818" lon="3.28037">
        <ele>899.63</ele>
        <time>2024-11-05T19:12:18.350Z</time>
      </trkpt>
      <trkpt lat="44.38176" lon="3.28033">
        <ele>898.81</ele>
        <time>2024-11-05T19:12:31.064Z</time>
      </trkpt>
      <trkpt lat="44.3817" lon="3.28025">
        <ele>897.96</ele>
        <time>2024-11-05T19:12:43.779Z</time>
      </trkpt>
      <trkpt lat="44.38164" lon="3.28016">
        <ele>897.06</ele>
        <time>2024-11-05T19:12:56.495Z</time>
      </trkpt>
      <trkpt lat="44.38159" lon="3.28009">
        <ele>896.12</ele>
        <time>2024-11-05T19:13:09.212Z</time>
      </trkpt>
      <trkpt lat="44.38155" lon="3.28002">
        <ele>895.15</ele>
        <time>2024-11-05T19:13:21.931Z</time>
      </trkpt>
      <trkpt lat="44.38145" lon="3.27984">
        <ele>894.11</ele>
        <time>2024-11-05T19:13:34.652Z</time>
      </trkpt>
      <trkpt lat="44.38118" lon="3.27888">
        <ele>892.96</ele>
        <time>2024-11-05T19:13:47.385Z</time>
      </trkpt>
      <trkpt lat="44.38111" lon="3.27864">
        <ele>891.86</ele>
        <time>2024-11-05T19:14:00.121Z</time>
      </trkpt>
      <trkpt lat="44.38101" lon="3.27837">
        <ele>890.71</ele>
        <time>2024-11-05T19:14:12.860Z</time>
      </trkpt>
      <trkpt lat="44.38098" lon="3.27828">
        <ele>889.58</ele>
        <time>2024-11-05T19:14:25.601Z</time>
      </trkpt>
      <trkpt lat="44.38088" lon="3.27812">
        <ele>888.4</ele>
        <time>2024-11-05T19:14:38.344Z</time>
      </trkpt>
      <trkpt lat="44.38086" lon="3.27808">
        <ele>887.24</ele>
        <time>2024-11-05T19:14:51.088Z</time>
      </trkpt>
      <trkpt lat="44.38078" lon="3.278">
        <ele>886.03</ele>
        <time>2024-11-05T19:15:03.833Z</time>
      </trkpt>
      <trkpt lat="44.38071" lon="3.27793">
        <ele>884.83</ele>
        <time>2024-11-05T19:15:16.580Z</time>
      </trkpt>
      <trkpt lat="44.38041" lon="3.27763">
        <ele>883.54</ele>
        <time>2024-11-05T19:15:29.332Z</time>
      </trkpt>
      <trkpt lat="44.3803" lon="3.27752">
        <ele>882.3</ele>
        <time>2024-11-05T19:15:42.087Z</time>
      </trkpt>
      <trkpt lat="44.38021" lon="3.2774">
        <ele>881.05</ele>
        <time>2024-11-05T19:15:54.844Z</time>
      </trkpt>
      <trkpt lat="44.38014" lon="3.27726">
        <ele>879.8</ele>
        <time>2024-11-05T19:16:07.603Z</time>
      </trkpt>
      <trkpt lat="44.38013" lon="3.27724">
        <ele>878.58</ele>
        <time>2024-11-05T19:16:20.362Z</time>
      </trkpt>
      <trkpt lat="44.38009" lon="3.27713">
        <ele>877.34</ele>
        <time>2024-11-05T19:16:33.122Z</time>
      </trkpt>
      <trkpt lat="44.38005" lon="3.277">
        <ele>876.07</ele>
        <time>2024-11-05T19:16:45.884Z</time>
      </trkpt>
      <trkpt lat="44.38003" lon="3.27683">
        <ele>874.83</ele>
        <time>2024-11-05T19:16:58.648Z</time>
      </trkpt>
      <trkpt lat="44.38001" lon="3.27671">
        <ele>873.58</ele>
        <time>2024-11-05T19:17:11.413Z</time>
      </trkpt>
      <trkpt lat="44.37997" lon="3.27634">
        <ele>872.27</ele>
        <time>2024-11-05T19:17:24.183Z</time>
      </trkpt>
      <trkpt lat="44.37996" lon="3.27626">
        <ele>871.05</ele>
        <time>2024-11-05T19:17:36.953Z</time>
      </trkpt>
      <trkpt lat="44.37993" lon="3.27616">
        <ele>869.83</ele>
        <time>2024-11-05T19:17:49.725Z</time>
      </trkpt>
      <trkpt lat="44.37989" lon="3.27603">
        <ele>868.61</ele>
        <time>2024-11-05T19:18:02.498Z</time>
      </trkpt>
      <trkpt lat="44.37987" lon="3.27599">
        <ele>867.4</ele>
        <time>2024-11-05T19:18:15.272Z</time>
      </trkpt>
      <trkpt lat="44.37984" lon="3.27592">
        <ele>866.19</ele>
        <time>2024-11-05T19:18:28.047Z</time>
      </trkpt>
      <trkpt lat="44.37979" lon="3.27584">
        <ele>864.97</ele>
        <time>2024-11-05T19:18:40.823Z</time>
      </trkpt>
      <trkpt lat="44.3797" lon="3.2757">
        <ele>863.74</ele>
        <time>2024-11-05T19:18:53.601Z</time>
      </trkpt>
      <trkpt lat="44.37962" lon="3.27561">
        <ele>862.54</ele>
        <time>2024-11-05T19:19:06.381Z</time>
      </trkpt>
      <trkpt lat="44.37955" lon="3.27556">
        <ele>861.36</ele>
        <time>2024-11-05T19:19:19.162Z</time>
      </trkpt>
      <trkpt lat="44.3794" lon="3.27543">
        <ele>860.15</ele>
        <time>2024-11-05T19:19:31.946Z</time>
      </trkpt>
      <trkpt lat="44.37929" lon="3.27533">
        <ele>858.98</ele>
        <time>2024-11-05T19:19:44.732Z</time>
      </trkpt>
      <trkpt lat="44.37921" lon="3.27527">
        <ele>857.87</ele>
        <time>2024-11-05T19:19:57.519Z</time>
      </trkpt>
      <trkpt lat="44.37919" lon="3.27525">
        <ele>856.81</ele>
        <time>2024-11-05T19:20:10.307Z</time>
      </trkpt>
      <trkpt lat="44.37901" lon="3.27502">
        <ele>855.71</ele>
        <time>2024-11-05T19:20:23.099Z</time>
      </trkpt>
      <trkpt lat="44.37896" lon="3.27496">
        <ele>854.69</ele>
        <time>2024-11-05T19:20:35.892Z</time>
      </trkpt>
      <trkpt lat="44.37883" lon="3.27474">
        <ele>853.7</ele>
        <time>2024-11-05T19:20:48.688Z</time>
      </trkpt>
      <trkpt lat="44.37878" lon="3.27466">
        <ele>852.77</ele>
        <time>2024-11-05T19:21:01.485Z</time>
      </trkpt>
      <trkpt lat="44.37871" lon="3.27454">
        <ele>851.83</ele>
        <time>2024-11-05T19:21:14.284Z</time>
      </trkpt>
      <trkpt lat="44.37863" lon="3.27443">
        <ele>850.93</ele>
        <time>2024-11-05T19:21:27.085Z</time>
      </trkpt>
      <trkpt lat="44.37856" lon="3.27433">
        <ele>850.06</ele>
        <time>2024-11-05T19:21:39.887Z</time>
      </trkpt>
      <trkpt lat="44.3785" lon="3.27427">
        <ele>849.24</ele>
        <time>2024-11-05T19:21:52.691Z</time>
      </trkpt>
      <trkpt lat="44.37842" lon="3.27419">
        <ele>848.45</ele>
        <time>2024-11-05T19:22:05.496Z</time>
      </trkpt>
      <trkpt lat="44.3784" lon="3.27417">
        <ele>847.72</ele>
        <time>2024-11-05T19:22:18.302Z</time>
      </trkpt>
      <trkpt lat="44.37839" lon="3.27416">
        <ele>847.03</ele>
        <time>2024-11-05T19:22:31.108Z</time>
      </trkpt>
      <trkpt lat="44.37824" lon="3.27405">
        <ele>846.32</ele>
        <time>2024-11-05T19:22:43.917Z</time>
      </trkpt>
      <trkpt lat="44.37815" lon="3.274">
        <ele>845.67</ele>
        <time>2024-11-05T19:22:56.727Z</time>
      </trkpt>
      <trkpt lat="44.37807" lon="3.27396">
        <ele>845.07</ele>
        <time>2024-11-05T19:23:09.538Z</time>
      </trkpt>
      <trkpt lat="44.37799" lon="3.27393">
        <ele>844.51</ele>
        <time>2024-11-05T19:23:22.351Z</time>
      </trkpt>
      <trkpt lat="44.37788" lon="3.27387">
        <ele>843.98</ele>
        <time>2024-11-05T19:23:35.166Z</time>
      </trkpt>
      <trkpt lat="44.37778" lon="3.27382">
        <ele>843.49</ele>
        <time>2024-11-05T19:23:47.982Z</time>
      </trkpt>
      <trkpt lat="44.37775" lon="3.2738">
        <ele>843.08</ele>
        <time>2024-11-05T19:24:00.799Z</time>
      </trkpt>
      <trkpt lat="44.37768" lon="3.27373">
        <ele>842.7</ele>
        <time>2024-11-05T19:24:13.617Z</time>
      </trkpt>
      <trkpt lat="44.3776" lon="3.27366">
        <ele>842.35</ele>
        <time>2024-11-05T19:24:26.437Z</time>
      </trkpt>
      <trkpt lat="44.37756" lon="3.27363">
        <ele>842.06</ele>
        <time>2024-11-05T19:24:39.257Z</time>
      </trkpt>
      <trkpt lat="44.37753" lon="3.27359">
        <ele>841.8</ele>
        <time>2024-11-05T19:24:52.078Z</time>
      </trkpt>
      <trkpt lat="44.37749" lon="3.27356">
        <ele>841.58</ele>
        <time>2024-11-05T19:25:04.900Z</time>
      </trkpt>
      <trkpt lat="44.37745" lon="3.27352">
        <ele>841.41</ele>
        <time>2024-11-05T19:25:17.723Z</time>
      </trkpt>
      <trkpt lat="44.37741" lon="3.27349">
        <ele>841.27</ele>
        <time>2024-11-05T19:25:30.546Z</time>
      </trkpt>
      <trkpt lat="44.3774" lon="3.27348">
        <ele>841.16</ele>
        <time>2024-11-05T19:25:43.370Z</time>
      </trkpt>
      <trkpt lat="44.37734" lon="3.27341">
        <ele>841.09</ele>
        <time>2024-11-05T19:25:56.195Z</time>
      </trkpt>
      <trkpt lat="44.37731" lon="3.27337">
        <ele>841.05</ele>
        <time>2024-11-05T19:26:09.020Z</time>
      </trkpt>
      <trkpt lat="44.37724" lon="3.27329">
        <ele>841.03</ele>
        <time>2024-11-05T19:26:21.847Z</time>
      </trkpt>
      <trkpt lat="44.37718" lon="3.2732">
        <ele>841.05</ele>
        <time>2024-11-05T19:26:34.675Z</time>
      </trkpt>
      <trkpt lat="44.37711" lon="3.27312">
        <ele>841.09</ele>
        <time>2024-11-05T19:26:47.505Z</time>
      </trkpt>
      <trkpt lat="44.37707" lon="3.27308">
        <ele>841.15</ele>
        <time>2024-11-05T19:27:00.336Z</time>
      </trkpt>
      <trkpt lat="44.37706" lon="3.27306">
        <ele>841.23</ele>
        <time>2024-11-05T19:27:13.167Z</time>
      </trkpt>
      <trkpt lat="44.37701" lon="3.27299">
        <ele>841.33</ele>
        <time>2024-11-05T19:27:25.999Z</time>
      </trkpt>
      <trkpt lat="44.37698" lon="3.27295">
        <ele>841.45</ele>
        <time>2024-11-05T19:27:38.832Z</time>
      </trkpt>
      <trkpt lat="44.37691" lon="3.27286">
        <ele>841.59</ele>
        <time>2024-11-05T19:27:51.666Z</time>
      </trkpt>
      <trkpt lat="44.37685" lon="3.27278">
        <ele>841.76</ele>
        <time>2024-11-05T19:28:04.502Z</time>
      </trkpt>
      <trkpt lat="44.37672" lon="3.2726">
        <ele>841.94</ele>
        <time>2024-11-05T19:28:17.340Z</time>
      </trkpt>
      <trkpt lat="44.37665" lon="3.27252">
        <ele>842.09</ele>
        <time>2024-11-05T19:28:30.180Z</time>
      </trkpt>
      <trkpt lat="44.37659" lon="3.27243">
        <ele>842.27</ele>
        <time>2024-11-05T19:28:43.021Z</time>
      </trkpt>
      <trkpt lat="44.37655" lon="3.27238">
        <ele>842.42</ele>
        <time>2024-11-05T19:28:55.863Z</time>
      </trkpt>
      <trkpt lat="44.3765" lon="3.27228">
        <ele>842.59</ele>
        <time>2024-11-05T19:29:08.707Z</time>
      </trkpt>
      <trkpt lat="44.37648" lon="3.27223">
        <ele>842.73</ele>
        <time>2024-11-05T19:29:21.551Z</time>
      </trkpt>
      <trkpt lat="44.37642" lon="3.27213">
        <ele>842.88</ele>
        <time>2024-11-05T19:29:34.397Z</time>
      </trkpt>
      <trkpt lat="44.3764" lon="3.27208">
        <ele>843.01</ele>
        <time>2024-11-05T19:29:47.243Z</time>
      </trkpt>
      <trkpt lat="44.37638" lon="3.27204">
        <ele>843.12</ele>
        <time>2024-11-05T19:30:00.090Z</time>
      </trkpt>
      <trkpt lat="44.37636" lon="3.27197">
        <ele>843.22</ele>
        <time>2024-11-05T19:30:12.938Z</time>
      </trkpt>
      <trkpt lat="44.37632" lon="3.27185">
        <ele>843.32</ele>
        <time>2024-11-05T19:30:25.787Z</time>
      </trkpt>
      <trkpt lat="44.37627" lon="3.27168">
        <ele>843.39</ele>
        <time>2024-11-05T19:30:38.638Z</time>
      </trkpt>
      <trkpt lat="44.37623" lon="3.27156">
        <ele>843.45</ele>
        <time>2024-11-05T19:30:51.491Z</time>
      </trkpt>
      <trkpt lat="44.3762" lon="3.27145">
        <ele>843.49</ele>
        <time>2024-11-05T19:31:04.345Z</time>
      </trkpt>
      <trkpt lat="44.37617" lon="3.27135">
        <ele>843.52</ele>
        <time>2024-11-05T19:31:17.200Z</time>
      </trkpt>
      <trkpt lat="44.37607" lon="3.27119">
        <ele>843.55</ele>
        <time>2024-11-05T19:31:30.058Z</time>
      </trkpt>
      <trkpt lat="44.37599" lon="3.27105">
        <ele>843.56</ele>
        <time>2024-11-05T19:31:42.918Z</time>
      </trkpt>
      <trkpt lat="44.37593" lon="3.27095">
        <ele>843.51</ele>
        <time>2024-11-05T19:31:55.779Z</time>
      </trkpt>
      <trkpt lat="44.37587" lon="3.27086">
        <ele>843.43</ele>
        <time>2024-11-05T19:32:08.642Z</time>
      </trkpt>
      <trkpt lat="44.37572" lon="3.27062">
        <ele>843.32</ele>
        <time>2024-11-05T19:32:21.509Z</time>
      </trkpt>
      <trkpt lat="44.37552" lon="3.27029">
        <ele>843.14</ele>
        <time>2024-11-05T19:32:34.381Z</time>
      </trkpt>
      <trkpt lat="44.37546" lon="3.27019">
        <ele>842.98</ele>
        <time>2024-11-05T19:32:47.254Z</time>
      </trkpt>
      <trkpt lat="44.37531" lon="3.26995">
        <ele>842.75</ele>
        <time>2024-11-05T19:33:00.131Z</time>
      </trkpt>
      <trkpt lat="44.37523" lon="3.26981">
        <ele>842.54</ele>
        <time>2024-11-05T19:33:13.010Z</time>
      </trkpt>
      <trkpt lat="44.37517" lon="3.26971">
        <ele>842.34</ele>
        <time>2024-11-05T19:33:25.890Z</time>
      </trkpt>
      <trkpt lat="44.37508" lon="3.26957">
        <ele>842.13</ele>
        <time>2024-11-05T19:33:38.772Z</time>
      </trkpt>
      <trkpt lat="44.37508" lon="3.26957">
        <ele>841.95</ele>
        <time>2024-11-05T19:33:51.654Z</time>
      </trkpt>
      <trkpt lat="44.375" lon="3.26934">
        <ele>841.72</ele>
        <time>2024-11-05T19:34:04.539Z</time>
      </trkpt>
      <trkpt lat="44.37499" lon="3.26928">
        <ele>841.52</ele>
        <time>2024-11-05T19:34:17.425Z</time>
      </trkpt>
      <trkpt lat="44.37498" lon="3.26915">
        <ele>841.33</ele>
        <time>2024-11-05T19:34:30.312Z</time>
      </trkpt>
      <trkpt lat="44.37481" lon="3.26918">
        <ele>841.12</ele>
        <time>2024-11-05T19:34:43.202Z</time>
      </trkpt>
      <trkpt lat="44.37462" lon="3.26921">
        <ele>840.94</ele>
        <time>2024-11-05T19:34:56.095Z</time>
      </trkpt>
      <trkpt lat="44.37455" lon="3.26924">
        <ele>840.77</ele>
        <time>2024-11-05T19:35:08.990Z</time>
      </trkpt>
      <trkpt lat="44.37447" lon="3.26927">
        <ele>840.58</ele>
        <time>2024-11-05T19:35:21.886Z</time>
      </trkpt>
      <trkpt lat="44.37441" lon="3.26931">
        <ele>840.39</ele>
        <time>2024-11-05T19:35:34.783Z</time>
      </trkpt>
      <trkpt lat="44.37435" lon="3.26938">
        <ele>840.19</ele>
        <time>2024-11-05T19:35:47.681Z</time>
      </trkpt>
      <trkpt lat="44.37431" lon="3.26942">
        <ele>840.02</ele>
        <time>2024-11-05T19:36:00.580Z</time>
      </trkpt>
      <trkpt lat="44.37429" lon="3.26946">
        <ele>839.85</ele>
        <time>2024-11-05T19:36:13.479Z</time>
      </trkpt>
      <trkpt lat="44.37423" lon="3.26956">
        <ele>839.67</ele>
        <time>2024-11-05T19:36:26.380Z</time>
      </trkpt>
      <trkpt lat="44.37422" lon="3.26958">
        <ele>839.52</ele>
        <time>2024-11-05T19:36:39.281Z</time>
      </trkpt>
      <trkpt lat="44.37419" lon="3.26967">
        <ele>839.37</ele>
        <time>2024-11-05T19:36:52.183Z</time>
      </trkpt>
      <trkpt lat="44.37413" lon="3.2699">
        <ele>839.23</ele>
        <time>2024-11-05T19:37:05.088Z</time>
      </trkpt>
      <trkpt lat="44.37412" lon="3.26993">
        <ele>839.13</ele>
        <time>2024-11-05T19:37:17.994Z</time>
      </trkpt>
      <trkpt lat="44.37406" lon="3.2702">
        <ele>839.06</ele>
        <time>2024-11-05T19:37:30.903Z</time>
      </trkpt>
      <trkpt lat="44.37404" lon="3.27032">
        <ele>839.01</ele>
        <time>2024-11-05T19:37:43.813Z</time>
      </trkpt>
      <trkpt lat="44.37401" lon="3.27044">
        <ele>838.97</ele>
        <time>2024-11-05T19:37:56.725Z</time>
      </trkpt>
      <trkpt lat="44.374" lon="3.2705">
        <ele>838.92</ele>
        <time>2024-11-05T19:38:09.637Z</time>
      </trkpt>
      <trkpt lat="44.37398" lon="3.27056">
        <ele>838.91</ele>
        <time>2024-11-05T19:38:22.550Z</time>
      </trkpt>
      <trkpt lat="44.37397" lon="3.27062">
        <ele>838.92</ele>
        <time>2024-11-05T19:38:35.464Z</time>
      </trkpt>
      <trkpt lat="44.37396" lon="3.27068">
        <ele>838.94</ele>
        <time>2024-11-05T19:38:48.378Z</time>
      </trkpt>
      <trkpt lat="44.37395" lon="3.27074">
        <ele>838.97</ele>
        <time>2024-11-05T19:39:01.293Z</time>
      </trkpt>
      <trkpt lat="44.37392" lon="3.27086">
        <ele>839.04</ele>
        <time>2024-11-05T19:39:14.210Z</time>
      </trkpt>
      <trkpt lat="44.37388" lon="3.27104">
        <ele>839.11</ele>
        <time>2024-11-05T19:39:27.129Z</time>
      </trkpt>
      <trkpt lat="44.37387" lon="3.2711">
        <ele>839.21</ele>
        <time>2024-11-05T19:39:40.048Z</time>
      </trkpt>
      <trkpt lat="44.37385" lon="3.27122">
        <ele>839.32</ele>
        <time>2024-11-05T19:39:52.969Z</time>
      </trkpt>
      <trkpt lat="44.37383" lon="3.27134">
        <ele>839.46</ele>
        <time>2024-11-05T19:40:05.891Z</time>
      </trkpt>
      <trkpt lat="44.37383" lon="3.27135">
        <ele>839.62</ele>
        <time>2024-11-05T19:40:18.813Z</time>
      </trkpt>
      <trkpt lat="44.37383" lon="3.27146">
        <ele>839.82</ele>
        <time>2024-11-05T19:40:31.737Z</time>
      </trkpt>
      <trkpt lat="44.37382" lon="3.27153">
        <ele>840.03</ele>
        <time>2024-11-05T19:40:44.662Z</time>
      </trkpt>
      <trkpt lat="44.37382" lon="3.27159">
        <ele>840.25</ele>
        <time>2024-11-05T19:40:57.587Z</time>
      </trkpt>
      <trkpt lat="44.37382" lon="3.27164">
        <ele>840.49</ele>
        <time>2024-11-05T19:41:10.513Z</time>
      </trkpt>
      <trkpt lat="44.37382" lon="3.27165">
        <ele>840.75</ele>
        <time>2024-11-05T19:41:23.439Z</time>
      </trkpt>
      <trkpt lat="44.37381" lon="3.27171">
        <ele>841.04</ele>
        <time>2024-11-05T19:41:36.366Z</time>
      </trkpt>
      <trkpt lat="44.3738" lon="3.27177">
        <ele>841.34</ele>
        <time>2024-11-05T19:41:49.293Z</time>
      </trkpt>
      <trkpt lat="44.37379" lon="3.27183">
        <ele>841.67</ele>
        <time>2024-11-05T19:42:02.221Z</time>
      </trkpt>
      <trkpt lat="44.37377" lon="3.27195">
        <ele>842.04</ele>
        <time>2024-11-05T19:42:15.151Z</time>
      </trkpt>
      <trkpt lat="44.37377" lon="3.27198">
        <ele>842.39</ele>
        <time>2024-11-05T19:42:28.081Z</time>
      </trkpt>
      <trkpt lat="44.37373" lon="3.27206">
        <ele>842.78</ele>
        <time>2024-11-05T19:42:41.012Z</time>
      </trkpt>
      <trkpt lat="44.37369" lon="3.27217">
        <ele>843.17</ele>
        <time>2024-11-05T19:42:53.944Z</time>
      </trkpt>
      <trkpt lat="44.37364" lon="3.27228">
        <ele>843.57</ele>
        <time>2024-11-05T19:43:06.878Z</time>
      </trkpt>
      <trkpt lat="44.37363" lon="3.2723">
        <ele>843.98</ele>
        <time>2024-11-05T19:43:19.812Z</time>
      </trkpt>
      <trkpt lat="44.37359" lon="3.27245">
        <ele>844.41</ele>
        <time>2024-11-05T19:43:32.748Z</time>
      </trkpt>
      <trkpt lat="44.37356" lon="3.27253">
        <ele>844.84</ele>
        <time>2024-11-05T19:43:45.685Z</time>
      </trkpt>
      <trkpt lat="44.37356" lon="3.27256">
        <ele>845.29</ele>
        <time>2024-11-05T19:43:58.622Z</time>
      </trkpt>
      <trkpt lat="44.37355" lon="3.27262">
        <ele>845.75</ele>
        <time>2024-11-05T19:44:11.560Z</time>
      </trkpt>
      <trkpt lat="44.37354" lon="3.27269">
        <ele>846.22</ele>
        <time>2024-11-05T19:44:24.499Z</time>
      </trkpt>
      <trkpt lat="44.37352" lon="3.2728">
        <ele>846.69</ele>
        <time>2024-11-05T19:44:37.439Z</time>
      </trkpt>
      <trkpt lat="44.37352" lon="3.27287">
        <ele>847.19</ele>
        <time>2024-11-05T19:44:50.380Z</time>
      </trkpt>
      <trkpt lat="44.37352" lon="3.27299">
        <ele>847.71</ele>
        <time>2024-11-05T19:45:03.322Z</time>
      </trkpt>
      <trkpt lat="44.37352" lon="3.27301">
        <ele>848.23</ele>
        <time>2024-11-05T19:45:16.265Z</time>
      </trkpt>
      <trkpt lat="44.37349" lon="3.27312">
        <ele>848.78</ele>
        <time>2024-11-05T19:45:29.209Z</time>
      </trkpt>
      <trkpt lat="44.37344" lon="3.2732">
        <ele>849.34</ele>
        <time>2024-11-05T19:45:42.154Z</time>
      </trkpt>
      <trkpt lat="44.37344" lon="3.2732">
        <ele>849.89</ele>
        <time>2024-11-05T19:45:55.099Z</time>
      </trkpt>
      <trkpt lat="44.37336" lon="3.27327">
        <ele>850.46</ele>
        <time>2024-11-05T19:46:08.046Z</time>
      </trkpt>
      <trkpt lat="44.37333" lon="3.2733">
        <ele>851.03</ele>
        <time>2024-11-05T19:46:20.993Z</time>
      </trkpt>
      <trkpt lat="44.37328" lon="3.27332">
        <ele>851.63</ele>
        <time>2024-11-05T19:46:33.941Z</time>
      </trkpt>
      <trkpt lat="44.37319" lon="3.27337">
        <ele>852.25</ele>
        <time>2024-11-05T19:46:46.891Z</time>
      </trkpt>
      <trkpt lat="44.37292" lon="3.27333">
        <ele>852.84</ele>
        <time>2024-11-05T19:46:59.845Z</time>
      </trkpt>
      <trkpt lat="44.3728" lon="3.27334">
        <ele>853.46</ele>
        <time>2024-11-05T19:47:12.801Z</time>
      </trkpt>
      <trkpt lat="44.37276" lon="3.27334">
        <ele>854.1</ele>
        <time>2024-11-05T19:47:25.758Z</time>
      </trkpt>
      <trkpt lat="44.3726" lon="3.27345">
        <ele>854.78</ele>
        <time>2024-11-05T19:47:38.717Z</time>
      </trkpt>
      <trkpt lat="44.37247" lon="3.27354">
        <ele>855.44</ele>
        <time>2024-11-05T19:47:51.679Z</time>
      </trkpt>
      <trkpt lat="44.37237" lon="3.27365">
        <ele>856.13</ele>
        <time>2024-11-05T19:48:04.643Z</time>
      </trkpt>
      <trkpt lat="44.37231" lon="3.27372">
        <ele>856.79</ele>
        <time>2024-11-05T19:48:17.608Z</time>
      </trkpt>
      <trkpt lat="44.37231" lon="3.27373">
        <ele>857.45</ele>
        <time>2024-11-05T19:48:30.573Z</time>
      </trkpt>
      <trkpt lat="44.37222" lon="3.27388">
        <ele>858.13</ele>
        <time>2024-11-05T19:48:43.540Z</time>
      </trkpt>
      <trkpt lat="44.37219" lon="3.27394">
        <ele>858.79</ele>
        <time>2024-11-05T19:48:56.508Z</time>
      </trkpt>
      <trkpt lat="44.37211" lon="3.27414">
        <ele>859.52</ele>
        <time>2024-11-05T19:49:09.479Z</time>
      </trkpt>
      <trkpt lat="44.37206" lon="3.27425">
        <ele>860.23</ele>
        <time>2024-11-05T19:49:22.451Z</time>
      </trkpt>
      <trkpt lat="44.37204" lon="3.2743">
        <ele>860.9</ele>
        <time>2024-11-05T19:49:35.424Z</time>
      </trkpt>
      <trkpt lat="44.37196" lon="3.27446">
        <ele>861.59</ele>
        <time>2024-11-05T19:49:48.399Z</time>
      </trkpt>
      <trkpt lat="44.37191" lon="3.27456">
        <ele>862.26</ele>
        <time>2024-11-05T19:50:01.375Z</time>
      </trkpt>
      <trkpt lat="44.37181" lon="3.27477">
        <ele>862.99</ele>
        <time>2024-11-05T19:50:14.354Z</time>
      </trkpt>
      <trkpt lat="44.37173" lon="3.27491">
        <ele>863.66</ele>
        <time>2024-11-05T19:50:27.335Z</time>
      </trkpt>
      <trkpt lat="44.37156" lon="3.27519">
        <ele>864.36</ele>
        <time>2024-11-05T19:50:40.321Z</time>
      </trkpt>
      <trkpt lat="44.37147" lon="3.27533">
        <ele>865.01</ele>
        <time>2024-11-05T19:50:53.309Z</time>
      </trkpt>
      <trkpt lat="44.37142" lon="3.27543">
        <ele>865.62</ele>
        <time>2024-11-05T19:51:06.298Z</time>
      </trkpt>
      <trkpt lat="44.37141" lon="3.27544">
        <ele>866.21</ele>
        <time>2024-11-05T19:51:19.287Z</time>
      </trkpt>
      <trkpt lat="44.37134" lon="3.27558">
        <ele>866.79</ele>
        <time>2024-11-05T19:51:32.278Z</time>
      </trkpt>
      <trkpt lat="44.37128" lon="3.27568">
        <ele>867.36</ele>
        <time>2024-11-05T19:51:45.271Z</time>
      </trkpt>
      <trkpt lat="44.37118" lon="3.27587">
        <ele>867.93</ele>
        <time>2024-11-05T19:51:58.267Z</time>
      </trkpt>
      <trkpt lat="44.37112" lon="3.27597">
        <ele>868.45</ele>
        <time>2024-11-05T19:52:11.264Z</time>
      </trkpt>
      <trkpt lat="44.37107" lon="3.27607">
        <ele>868.95</ele>
        <time>2024-11-05T19:52:24.262Z</time>
      </trkpt>
      <trkpt lat="44.37102" lon="3.27617">
        <ele>869.47</ele>
        <time>2024-11-05T19:52:37.262Z</time>
      </trkpt>
      <trkpt lat="44.37091" lon="3.27637">
        <ele>869.96</ele>
        <time>2024-11-05T19:52:50.265Z</time>
      </trkpt>
      <trkpt lat="44.37087" lon="3.27647">
        <ele>870.42</ele>
        <time>2024-11-05T19:53:03.269Z</time>
      </trkpt>
      <trkpt lat="44.37082" lon="3.27658">
        <ele>870.84</ele>
        <time>2024-11-05T19:53:16.275Z</time>
      </trkpt>
      <trkpt lat="44.37078" lon="3.27669">
        <ele>871.26</ele>
        <time>2024-11-05T19:53:29.282Z</time>
      </trkpt>
      <trkpt lat="44.37076" lon="3.27674">
        <ele>871.65</ele>
        <time>2024-11-05T19:53:42.290Z</time>
      </trkpt>
      <trkpt lat="44.37071" lon="3.27685">
        <ele>872.04</ele>
        <time>2024-11-05T19:53:55.299Z</time>
      </trkpt>
      <trkpt lat="44.3706" lon="3.27712">
        <ele>872.39</ele>
        <time>2024-11-05T19:54:08.312Z</time>
      </trkpt>
      <trkpt lat="44.3705" lon="3.27736">
        <ele>872.68</ele>
        <time>2024-11-05T19:54:21.328Z</time>
      </trkpt>
      <trkpt lat="44.37039" lon="3.27759">
        <ele>873.02</ele>
        <time>2024-11-05T19:54:34.347Z</time>
      </trkpt>
      <trkpt lat="44.37034" lon="3.2777">
        <ele>873.3</ele>
        <time>2024-11-05T19:54:47.368Z</time>
      </trkpt>
      <trkpt lat="44.37032" lon="3.27775">
        <ele>873.56</ele>
        <time>2024-11-05T19:55:00.389Z</time>
      </trkpt>
      <trkpt lat="44.37022" lon="3.27795">
        <ele>873.78</ele>
        <time>2024-11-05T19:55:13.413Z</time>
      </trkpt>
      <trkpt lat="44.37011" lon="3.27819">
        <ele>873.95</ele>
        <time>2024-11-05T19:55:26.440Z</time>
      </trkpt>
      <trkpt lat="44.37006" lon="3.27827">
        <ele>874.12</ele>
        <time>2024-11-05T19:55:39.469Z</time>
      </trkpt>
      <trkpt lat="44.37" lon="3.27833">
        <ele>874.3</ele>
        <time>2024-11-05T19:55:52.499Z</time>
      </trkpt>
      <trkpt lat="44.36999" lon="3.27833">
        <ele>874.49</ele>
        <time>2024-11-05T19:56:05.529Z</time>
      </trkpt>
      <trkpt lat="44.36994" lon="3.27836">
        <ele>874.66</ele>
        <time>2024-11-05T19:56:18.560Z</time>
      </trkpt>
      <trkpt lat="44.36985" lon="3.27837">
        <ele>874.82</ele>
        <time>2024-11-05T19:56:31.592Z</time>
      </trkpt>
      <trkpt lat="44.36978" lon="3.27834">
        <ele>875</ele>
        <time>2024-11-05T19:56:44.625Z</time>
      </trkpt>
      <trkpt lat="44.36974" lon="3.27832">
        <ele>875.17</ele>
        <time>2024-11-05T19:56:57.659Z</time>
      </trkpt>
      <trkpt lat="44.3697" lon="3.27829">
        <ele>875.34</ele>
        <time>2024-11-05T19:57:10.694Z</time>
      </trkpt>
      <trkpt lat="44.36964" lon="3.27824">
        <ele>875.51</ele>
        <time>2024-11-05T19:57:23.730Z</time>
      </trkpt>
      <trkpt lat="44.36962" lon="3.27822">
        <ele>875.68</ele>
        <time>2024-11-05T19:57:36.766Z</time>
      </trkpt>
      <trkpt lat="44.36955" lon="3.27812">
        <ele>875.87</ele>
        <time>2024-11-05T19:57:49.804Z</time>
      </trkpt>
      <trkpt lat="44.36953" lon="3.27808">
        <ele>876.05</ele>
        <time>2024-11-05T19:58:02.842Z</time>
      </trkpt>
      <trkpt lat="44.36947" lon="3.27799">
        <ele>876.25</ele>
        <time>2024-11-05T19:58:15.882Z</time>
      </trkpt>
      <trkpt lat="44.36938" lon="3.27784">
        <ele>876.42</ele>
        <time>2024-11-05T19:58:28.924Z</time>
      </trkpt>
      <trkpt lat="44.36927" lon="3.27765">
        <ele>876.6</ele>
        <time>2024-11-05T19:58:41.969Z</time>
      </trkpt>
      <trkpt lat="44.36921" lon="3.27756">
        <ele>876.77</ele>
        <time>2024-11-05T19:58:55.015Z</time>
      </trkpt>
      <trkpt lat="44.36918" lon="3.27751">
        <ele>876.94</ele>
        <time>2024-11-05T19:59:08.062Z</time>
      </trkpt>
      <trkpt lat="44.36912" lon="3.27741">
        <ele>877.11</ele>
        <time>2024-11-05T19:59:21.111Z</time>
      </trkpt>
      <trkpt lat="44.36906" lon="3.27732">
        <ele>877.3</ele>
        <time>2024-11-05T19:59:34.161Z</time>
      </trkpt>
      <trkpt lat="44.36903" lon="3.27728">
        <ele>877.49</ele>
        <time>2024-11-05T19:59:47.212Z</time>
      </trkpt>
      <trkpt lat="44.36903" lon="3.27728">
        <ele>877.68</ele>
        <time>2024-11-05T20:00:00.263Z</time>
      </trkpt>
      <trkpt lat="44.36899" lon="3.27724">
        <ele>877.88</ele>
        <time>2024-11-05T20:00:13.314Z</time>
      </trkpt>
      <trkpt lat="44.36896" lon="3.27721">
        <ele>878.09</ele>
        <time>2024-11-05T20:00:26.366Z</time>
      </trkpt>
      <trkpt lat="44.36892" lon="3.27717">
        <ele>878.31</ele>
        <time>2024-11-05T20:00:39.419Z</time>
      </trkpt>
      <trkpt lat="44.36891" lon="3.27716">
        <ele>878.54</ele>
        <time>2024-11-05T20:00:52.472Z</time>
      </trkpt>
      <trkpt lat="44.36884" lon="3.27711">
        <ele>878.76</ele>
        <time>2024-11-05T20:01:05.526Z</time>
      </trkpt>
      <trkpt lat="44.3688" lon="3.27708">
        <ele>879</ele>
        <time>2024-11-05T20:01:18.581Z</time>
      </trkpt>
      <trkpt lat="44.36872" lon="3.27702">
        <ele>879.26</ele>
        <time>2024-11-05T20:01:31.637Z</time>
      </trkpt>
      <trkpt lat="44.36868" lon="3.27699">
        <ele>879.53</ele>
        <time>2024-11-05T20:01:44.694Z</time>
      </trkpt>
      <trkpt lat="44.36865" lon="3.27696">
        <ele>879.81</ele>
        <time>2024-11-05T20:01:57.752Z</time>
      </trkpt>
      <trkpt lat="44.3686" lon="3.27694">
        <ele>880.11</ele>
        <time>2024-11-05T20:02:10.811Z</time>
      </trkpt>
      <trkpt lat="44.36839" lon="3.27684">
        <ele>880.49</ele>
        <time>2024-11-05T20:02:23.873Z</time>
      </trkpt>
      <trkpt lat="44.3683" lon="3.27683">
        <ele>880.85</ele>
        <time>2024-11-05T20:02:36.937Z</time>
      </trkpt>
      <trkpt lat="44.3683" lon="3.27683">
        <ele>881.19</ele>
        <time>2024-11-05T20:02:50.001Z</time>
      </trkpt>
      <trkpt lat="44.36821" lon="3.27684">
        <ele>881.57</ele>
        <time>2024-11-05T20:03:03.066Z</time>
      </trkpt>
      <trkpt lat="44.36813" lon="3.27687">
        <ele>881.96</ele>
        <time>2024-11-05T20:03:16.132Z</time>
      </trkpt>
      <trkpt lat="44.36812" lon="3.27687">
        <ele>882.33</ele>
        <time>2024-11-05T20:03:29.198Z</time>
      </trkpt>
      <trkpt lat="44.36798" lon="3.27699">
        <ele>882.75</ele>
        <time>2024-11-05T20:03:42.267Z</time>
      </trkpt>
      <trkpt lat="44.36797" lon="3.277">
        <ele>883.13</ele>
        <time>2024-11-05T20:03:55.336Z</time>
      </trkpt>
      <trkpt lat="44.3679" lon="3.27708">
        <ele>883.54</ele>
        <time>2024-11-05T20:04:08.407Z</time>
      </trkpt>
      <trkpt lat="44.36783" lon="3.27716">
        <ele>883.97</ele>
        <time>2024-11-05T20:04:21.479Z</time>
      </trkpt>
      <trkpt lat="44.36763" lon="3.2774">
        <ele>884.44</ele>
        <time>2024-11-05T20:04:34.555Z</time>
      </trkpt>
      <trkpt lat="44.36757" lon="3.27747">
        <ele>884.88</ele>
        <time>2024-11-05T20:04:47.633Z</time>
      </trkpt>
      <trkpt lat="44.36743" lon="3.27767">
        <ele>885.36</ele>
        <time>2024-11-05T20:05:00.714Z</time>
      </trkpt>
      <trkpt lat="44.36739" lon="3.27773">
        <ele>885.79</ele>
        <time>2024-11-05T20:05:13.796Z</time>
      </trkpt>
      <trkpt lat="44.36738" lon="3.27776">
        <ele>886.22</ele>
        <time>2024-11-05T20:05:26.878Z</time>
      </trkpt>
      <trkpt lat="44.36733" lon="3.27787">
        <ele>886.67</ele>
        <time>2024-11-05T20:05:39.962Z</time>
      </trkpt>
      <trkpt lat="44.36731" lon="3.27792">
        <ele>887.11</ele>
        <time>2024-11-05T20:05:53.046Z</time>
      </trkpt>
      <trkpt lat="44.36729" lon="3.27798">
        <ele>887.55</ele>
        <time>2024-11-05T20:06:06.131Z</time>
      </trkpt>
      <trkpt lat="44.36727" lon="3.27804">
        <ele>888</ele>
        <time>2024-11-05T20:06:19.217Z</time>
      </trkpt>
      <trkpt lat="44.36723" lon="3.27815">
        <ele>888.46</ele>
        <time>2024-11-05T20:06:32.304Z</time>
      </trkpt>
      <trkpt lat="44.36717" lon="3.27832">
        <ele>888.94</ele>
        <time>2024-11-05T20:06:45.393Z</time>
      </trkpt>
      <trkpt lat="44.36711" lon="3.27849">
        <ele>889.39</ele>
        <time>2024-11-05T20:06:58.485Z</time>
      </trkpt>
      <trkpt lat="44.36711" lon="3.2785">
        <ele>889.83</ele>
        <time>2024-11-05T20:07:11.577Z</time>
      </trkpt>
      <trkpt lat="44.36708" lon="3.27861">
        <ele>890.29</ele>
        <time>2024-11-05T20:07:24.670Z</time>
      </trkpt>
      <trkpt lat="44.36707" lon="3.27866">
        <ele>890.74</ele>
        <time>2024-11-05T20:07:37.764Z</time>
      </trkpt>
      <trkpt lat="44.36705" lon="3.27872">
        <ele>891.19</ele>
        <time>2024-11-05T20:07:50.858Z</time>
      </trkpt>
      <trkpt lat="44.36704" lon="3.27878">
        <ele>891.64</ele>
        <time>2024-11-05T20:08:03.953Z</time>
      </trkpt>
      <trkpt lat="44.36702" lon="3.27884">
        <ele>892.09</ele>
        <time>2024-11-05T20:08:17.049Z</time>
      </trkpt>
      <trkpt lat="44.36701" lon="3.2789">
        <ele>892.53</ele>
        <time>2024-11-05T20:08:30.146Z</time>
      </trkpt>
      <trkpt lat="44.36698" lon="3.279">
        <ele>892.96</ele>
        <time>2024-11-05T20:08:43.244Z</time>
      </trkpt>
      <trkpt lat="44.36697" lon="3.27901">
        <ele>893.42</ele>
        <time>2024-11-05T20:08:56.342Z</time>
      </trkpt>
      <trkpt lat="44.36693" lon="3.27909">
        <ele>893.87</ele>
        <time>2024-11-05T20:09:09.441Z</time>
      </trkpt>
      <trkpt lat="44.36684" lon="3.27918">
        <ele>894.31</ele>
        <time>2024-11-05T20:09:22.542Z</time>
      </trkpt>
      <trkpt lat="44.36681" lon="3.27922">
        <ele>894.77</ele>
        <time>2024-11-05T20:09:35.644Z</time>
      </trkpt>
      <trkpt lat="44.36679" lon="3.27924">
        <ele>895.23</ele>
        <time>2024-11-05T20:09:48.746Z</time>
      </trkpt>
      <trkpt lat="44.36677" lon="3.27925">
        <ele>895.71</ele>
        <time>2024-11-05T20:10:01.848Z</time>
      </trkpt>
      <trkpt lat="44.36672" lon="3.27926">
        <ele>896.21</ele>
        <time>2024-11-05T20:10:14.951Z</time>
      </trkpt>
      <trkpt lat="44.36668" lon="3.27928">
        <ele>896.71</ele>
        <time>2024-11-05T20:10:28.055Z</time>
      </trkpt>
      <trkpt lat="44.36664" lon="3.2793">
        <ele>897.22</ele>
        <time>2024-11-05T20:10:41.159Z</time>
      </trkpt>
      <trkpt lat="44.3666" lon="3.27931">
        <ele>897.72</ele>
        <time>2024-11-05T20:10:54.264Z</time>
      </trkpt>
      <trkpt lat="44.36659" lon="3.27931">
        <ele>898.22</ele>
        <time>2024-11-05T20:11:07.369Z</time>
      </trkpt>
      <trkpt lat="44.36655" lon="3.27932">
        <ele>898.74</ele>
        <time>2024-11-05T20:11:20.475Z</time>
      </trkpt>
      <trkpt lat="44.36651" lon="3.27933">
        <ele>899.26</ele>
        <time>2024-11-05T20:11:33.582Z</time>
      </trkpt>
      <trkpt lat="44.36647" lon="3.27933">
        <ele>899.78</ele>
        <time>2024-11-05T20:11:46.689Z</time>
      </trkpt>
      <trkpt lat="44.36642" lon="3.27933">
        <ele>900.31</ele>
        <time>2024-11-05T20:11:59.797Z</time>
      </trkpt>
      <trkpt lat="44.36628" lon="3.27932">
        <ele>900.86</ele>
        <time>2024-11-05T20:12:12.907Z</time>
      </trkpt>
      <trkpt lat="44.3661" lon="3.27931">
        <ele>901.45</ele>
        <time>2024-11-05T20:12:26.020Z</time>
      </trkpt>
      <trkpt lat="44.36603" lon="3.2793">
        <ele>901.97</ele>
        <time>2024-11-05T20:12:39.134Z</time>
      </trkpt>
      <trkpt lat="44.36601" lon="3.2793">
        <ele>902.48</ele>
        <time>2024-11-05T20:12:52.249Z</time>
      </trkpt>
      <trkpt lat="44.36597" lon="3.27931">
        <ele>902.98</ele>
        <time>2024-11-05T20:13:05.364Z</time>
      </trkpt>
      <trkpt lat="44.36593" lon="3.27931">
        <ele>903.49</ele>
        <time>2024-11-05T20:13:18.480Z</time>
      </trkpt>
      <trkpt lat="44.36588" lon="3.27933">
        <ele>903.99</ele>
        <time>2024-11-05T20:13:31.597Z</time>
      </trkpt>
      <trkpt lat="44.36582" lon="3.27935">
        <ele>904.49</ele>
        <time>2024-11-05T20:13:44.715Z</time>
      </trkpt>
      <trkpt lat="44.3658" lon="3.27937">
        <ele>904.98</ele>
        <time>2024-11-05T20:13:57.833Z</time>
      </trkpt>
      <trkpt lat="44.36572" lon="3.27943">
        <ele>905.46</ele>
        <time>2024-11-05T20:14:10.953Z</time>
      </trkpt>
      <trkpt lat="44.36569" lon="3.27945">
        <ele>905.92</ele>
        <time>2024-11-05T20:14:24.073Z</time>
      </trkpt>
      <trkpt lat="44.36564" lon="3.2795">
        <ele>906.38</ele>
        <time>2024-11-05T20:14:37.194Z</time>
      </trkpt>
      <trkpt lat="44.3655" lon="3.27965">
        <ele>906.86</ele>
        <time>2024-11-05T20:14:50.318Z</time>
      </trkpt>
      <trkpt lat="44.36543" lon="3.27972">
        <ele>907.3</ele>
        <time>2024-11-05T20:15:03.443Z</time>
      </trkpt>
      <trkpt lat="44.36535" lon="3.2798">
        <ele>907.72</ele>
        <time>2024-11-05T20:15:16.570Z</time>
      </trkpt>
      <trkpt lat="44.36528" lon="3.27987">
        <ele>908.13</ele>
        <time>2024-11-05T20:15:29.698Z</time>
      </trkpt>
      <trkpt lat="44.36525" lon="3.27991">
        <ele>908.52</ele>
        <time>2024-11-05T20:15:42.827Z</time>
      </trkpt>
      <trkpt lat="44.36517" lon="3.27998">
        <ele>908.93</ele>
        <time>2024-11-05T20:15:55.957Z</time>
      </trkpt>
      <trkpt lat="44.36496" lon="3.2802">
        <ele>909.36</ele>
        <time>2024-11-05T20:16:09.092Z</time>
      </trkpt>
      <trkpt lat="44.36485" lon="3.28032">
        <ele>909.73</ele>
        <time>2024-11-05T20:16:22.229Z</time>
      </trkpt>
      <trkpt lat="44.36478" lon="3.28039">
        <ele>910.09</ele>
        <time>2024-11-05T20:16:35.367Z</time>
      </trkpt>
      <trkpt lat="44.36471" lon="3.28046">
        <ele>910.42</ele>
        <time>2024-11-05T20:16:48.507Z</time>
      </trkpt>
      <trkpt lat="44.36471" lon="3.28046">
        <ele>910.71</ele>
        <time>2024-11-05T20:17:01.647Z</time>
      </trkpt>
      <trkpt lat="44.36463" lon="3.28053">
        <ele>911</ele>
        <time>2024-11-05T20:17:14.788Z</time>
      </trkpt>
      <trkpt lat="44.36459" lon="3.28056">
        <ele>911.25</ele>
        <time>2024-11-05T20:17:27.930Z</time>
      </trkpt>
      <trkpt lat="44.36457" lon="3.28057">
        <ele>911.47</ele>
        <time>2024-11-05T20:17:41.072Z</time>
      </trkpt>
      <trkpt lat="44.3645" lon="3.28059">
        <ele>911.67</ele>
        <time>2024-11-05T20:17:54.215Z</time>
      </trkpt>
      <trkpt lat="44.36448" lon="3.2806">
        <ele>911.85</ele>
        <time>2024-11-05T20:18:07.359Z</time>
      </trkpt>
      <trkpt lat="44.36441" lon="3.2806">
        <ele>912.02</ele>
        <time>2024-11-05T20:18:20.504Z</time>
      </trkpt>
      <trkpt lat="44.36438" lon="3.2806">
        <ele>912.14</ele>
        <time>2024-11-05T20:18:33.649Z</time>
      </trkpt>
      <trkpt lat="44.36428" lon="3.28058">
        <ele>912.25</ele>
        <time>2024-11-05T20:18:46.796Z</time>
      </trkpt>
      <trkpt lat="44.36419" lon="3.28057">
        <ele>912.32</ele>
        <time>2024-11-05T20:18:59.944Z</time>
      </trkpt>
      <trkpt lat="44.36413" lon="3.28056">
        <ele>912.37</ele>
        <time>2024-11-05T20:19:13.093Z</time>
      </trkpt>
      <trkpt lat="44.3641" lon="3.28056">
        <ele>912.37</ele>
        <time>2024-11-05T20:19:26.243Z</time>
      </trkpt>
      <trkpt lat="44.36406" lon="3.28056">
        <ele>912.35</ele>
        <time>2024-11-05T20:19:39.393Z</time>
      </trkpt>
      <trkpt lat="44.36401" lon="3.28056">
        <ele>912.3</ele>
        <time>2024-11-05T20:19:52.544Z</time>
      </trkpt>
      <trkpt lat="44.36397" lon="3.28056">
        <ele>912.23</ele>
        <time>2024-11-05T20:20:05.696Z</time>
      </trkpt>
      <trkpt lat="44.36392" lon="3.28055">
        <ele>912.13</ele>
        <time>2024-11-05T20:20:18.849Z</time>
      </trkpt>
      <trkpt lat="44.36388" lon="3.28055">
        <ele>912.01</ele>
        <time>2024-11-05T20:20:32.002Z</time>
      </trkpt>
      <trkpt lat="44.36383" lon="3.28055">
        <ele>911.86</ele>
        <time>2024-11-05T20:20:45.156Z</time>
      </trkpt>
      <trkpt lat="44.36379" lon="3.28055">
        <ele>911.69</ele>
        <time>2024-11-05T20:20:58.311Z</time>
      </trkpt>
      <trkpt lat="44.36379" lon="3.28055">
        <ele>911.5</ele>
        <time>2024-11-05T20:21:11.466Z</time>
      </trkpt>
      <trkpt lat="44.36361" lon="3.28052">
        <ele>911.28</ele>
        <time>2024-11-05T20:21:24.624Z</time>
      </trkpt>
      <trkpt lat="44.3636" lon="3.28052">
        <ele>911.05</ele>
        <time>2024-11-05T20:21:37.782Z</time>
      </trkpt>
      <trkpt lat="44.36353" lon="3.28048">
        <ele>910.78</ele>
        <time>2024-11-05T20:21:50.941Z</time>
      </trkpt>
      <trkpt lat="44.36349" lon="3.28046">
        <ele>910.51</ele>
        <time>2024-11-05T20:22:04.101Z</time>
      </trkpt>
      <trkpt lat="44.36345" lon="3.28043">
        <ele>910.22</ele>
        <time>2024-11-05T20:22:17.261Z</time>
      </trkpt>
      <trkpt lat="44.36341" lon="3.2804">
        <ele>909.93</ele>
        <time>2024-11-05T20:22:30.422Z</time>
      </trkpt>
      <trkpt lat="44.36333" lon="3.28033">
        <ele>909.61</ele>
        <time>2024-11-05T20:22:43.585Z</time>
      </trkpt>
      <trkpt lat="44.36313" lon="3.28018">
        <ele>909.27</ele>
        <time>2024-11-05T20:22:56.751Z</time>
      </trkpt>
      <trkpt lat="44.36311" lon="3.28016">
        <ele>908.96</ele>
        <time>2024-11-05T20:23:09.918Z</time>
      </trkpt>
      <trkpt lat="44.36309" lon="3.28015">
        <ele>908.65</ele>
        <time>2024-11-05T20:23:23.085Z</time>
      </trkpt>
      <trkpt lat="44.3629" lon="3.28008">
        <ele>908.35</ele>
        <time>2024-11-05T20:23:36.255Z</time>
      </trkpt>
      <trkpt lat="44.36283" lon="3.2801">
        <ele>908.02</ele>
        <time>2024-11-05T20:23:49.426Z</time>
      </trkpt>
      <trkpt lat="44.36274" lon="3.28013">
        <ele>907.69</ele>
        <time>2024-11-05T20:24:02.599Z</time>
      </trkpt>
      <trkpt lat="44.36264" lon="3.28019">
        <ele>907.38</ele>
        <time>2024-11-05T20:24:15.773Z</time>
      </trkpt>
      <trkpt lat="44.36251" lon="3.2803">
        <ele>907.06</ele>
        <time>2024-11-05T20:24:28.950Z</time>
      </trkpt>
      <trkpt lat="44.36239" lon="3.28039">
        <ele>906.75</ele>
        <time>2024-11-05T20:24:42.129Z</time>
      </trkpt>
      <trkpt lat="44.36234" lon="3.28043">
        <ele>906.46</ele>
        <time>2024-11-05T20:24:55.309Z</time>
      </trkpt>
      <trkpt lat="44.36231" lon="3.28046">
        <ele>906.19</ele>
        <time>2024-11-05T20:25:08.489Z</time>
      </trkpt>
      <trkpt lat="44.36215" lon="3.28062">
        <ele>905.88</ele>
        <time>2024-11-05T20:25:21.673Z</time>
      </trkpt>
      <trkpt lat="44.36213" lon="3.28064">
        <ele>905.65</ele>
        <time>2024-11-05T20:25:34.857Z</time>
      </trkpt>
      <trkpt lat="44.36206" lon="3.28072">
        <ele>905.42</ele>
        <time>2024-11-05T20:25:48.043Z</time>
      </trkpt>
      <trkpt lat="44.36189" lon="3.28092">
        <ele>905.23</ele>
        <time>2024-11-05T20:26:01.232Z</time>
      </trkpt>
      <trkpt lat="44.3618" lon="3.28102">
        <ele>905.07</ele>
        <time>2024-11-05T20:26:14.423Z</time>
      </trkpt>
      <trkpt lat="44.36171" lon="3.2811">
        <ele>904.94</ele>
        <time>2024-11-05T20:26:27.616Z</time>
      </trkpt>
      <trkpt lat="44.3616" lon="3.28121">
        <ele>904.84</ele>
        <time>2024-11-05T20:26:40.811Z</time>
      </trkpt>
      <trkpt lat="44.36153" lon="3.28128">
        <ele>904.76</ele>
        <time>2024-11-05T20:26:54.007Z</time>
      </trkpt>
      <trkpt lat="44.36149" lon="3.28132">
        <ele>904.71</ele>
        <time>2024-11-05T20:27:07.204Z</time>
      </trkpt>
      <trkpt lat="44.36145" lon="3.28135">
        <ele>904.69</ele>
        <time>2024-11-05T20:27:20.402Z</time>
      </trkpt>
      <trkpt lat="44.36134" lon="3.28146">
        <ele>904.71</ele>
        <time>2024-11-05T20:27:33.602Z</time>
      </trkpt>
      <trkpt lat="44.36123" lon="3.28156">
        <ele>904.76</ele>
        <time>2024-11-05T20:27:46.804Z</time>
      </trkpt>
      <trkpt lat="44.36115" lon="3.28163">
        <ele>904.83</ele>
        <time>2024-11-05T20:28:00.007Z</time>
      </trkpt>
      <trkpt lat="44.36108" lon="3.2817">
        <ele>904.95</ele>
        <time>2024-11-05T20:28:13.212Z</time>
      </trkpt>
      <trkpt lat="44.36106" lon="3.28172">
        <ele>905.1</ele>
        <time>2024-11-05T20:28:26.417Z</time>
      </trkpt>
      <trkpt lat="44.36101" lon="3.28177">
        <ele>905.29</ele>
        <time>2024-11-05T20:28:39.623Z</time>
      </trkpt>
      <trkpt lat="44.36097" lon="3.28181">
        <ele>905.5</ele>
        <time>2024-11-05T20:28:52.830Z</time>
      </trkpt>
      <trkpt lat="44.36093" lon="3.28185">
        <ele>905.75</ele>
        <time>2024-11-05T20:29:06.038Z</time>
      </trkpt>
      <trkpt lat="44.36086" lon="3.28192">
        <ele>906.04</ele>
        <time>2024-11-05T20:29:19.247Z</time>
      </trkpt>
      <trkpt lat="44.36079" lon="3.28199">
        <ele>906.36</ele>
        <time>2024-11-05T20:29:32.458Z</time>
      </trkpt>
      <trkpt lat="44.36068" lon="3.2821">
        <ele>906.73</ele>
        <time>2024-11-05T20:29:45.671Z</time>
      </trkpt>
      <trkpt lat="44.36062" lon="3.28216">
        <ele>907.08</ele>
        <time>2024-11-05T20:29:58.885Z</time>
      </trkpt>
      <trkpt lat="44.3606" lon="3.28217">
        <ele>907.46</ele>
        <time>2024-11-05T20:30:12.099Z</time>
      </trkpt>
      <trkpt lat="44.36052" lon="3.28222">
        <ele>907.87</ele>
        <time>2024-11-05T20:30:25.315Z</time>
      </trkpt>
      <trkpt lat="44.36049" lon="3.28224">
        <ele>908.31</ele>
        <time>2024-11-05T20:30:38.531Z</time>
      </trkpt>
      <trkpt lat="44.36044" lon="3.28226">
        <ele>908.77</ele>
        <time>2024-11-05T20:30:51.748Z</time>
      </trkpt>
      <trkpt lat="44.36032" lon="3.28231">
        <ele>909.29</ele>
        <time>2024-11-05T20:31:04.967Z</time>
      </trkpt>
      <trkpt lat="44.36023" lon="3.28233">
        <ele>909.8</ele>
        <time>2024-11-05T20:31:18.188Z</time>
      </trkpt>
      <trkpt lat="44.36022" lon="3.28233">
        <ele>910.3</ele>
        <time>2024-11-05T20:31:31.409Z</time>
      </trkpt>
      <trkpt lat="44.36013" lon="3.28233">
        <ele>910.83</ele>
        <time>2024-11-05T20:31:44.631Z</time>
      </trkpt>
      <trkpt lat="44.36" lon="3.28233">
        <ele>911.37</ele>
        <time>2024-11-05T20:31:57.855Z</time>
      </trkpt>
      <trkpt lat="44.35995" lon="3.28232">
        <ele>911.92</ele>
        <time>2024-11-05T20:32:11.080Z</time>
      </trkpt>
      <trkpt lat="44.35991" lon="3.28231">
        <ele>912.47</ele>
        <time>2024-11-05T20:32:24.306Z</time>
      </trkpt>
      <trkpt lat="44.35981" lon="3.28229">
        <ele>913.02</ele>
        <time>2024-11-05T20:32:37.533Z</time>
      </trkpt>
      <trkpt lat="44.35974" lon="3.28225">
        <ele>913.61</ele>
        <time>2024-11-05T20:32:50.762Z</time>
      </trkpt>
      <trkpt lat="44.35961" lon="3.28218">
        <ele>914.21</ele>
        <time>2024-11-05T20:33:03.993Z</time>
      </trkpt>
      <trkpt lat="44.35957" lon="3.28215">
        <ele>914.8</ele>
        <time>2024-11-05T20:33:17.224Z</time>
      </trkpt>
      <trkpt lat="44.35953" lon="3.28213">
        <ele>915.39</ele>
        <time>2024-11-05T20:33:30.456Z</time>
      </trkpt>
      <trkpt lat="44.3595" lon="3.28211">
        <ele>915.99</ele>
        <time>2024-11-05T20:33:43.689Z</time>
      </trkpt>
      <trkpt lat="44.35945" lon="3.28207">
        <ele>916.58</ele>
        <time>2024-11-05T20:33:56.923Z</time>
      </trkpt>
      <trkpt lat="44.35941" lon="3.28204">
        <ele>917.18</ele>
        <time>2024-11-05T20:34:10.157Z</time>
      </trkpt>
      <trkpt lat="44.35933" lon="3.28198">
        <ele>917.78</ele>
        <time>2024-11-05T20:34:23.393Z</time>
      </trkpt>
      <trkpt lat="44.35925" lon="3.28192">
        <ele>918.38</ele>
        <time>2024-11-05T20:34:36.630Z</time>
      </trkpt>
      <trkpt lat="44.35914" lon="3.28183">
        <ele>918.97</ele>
        <time>2024-11-05T20:34:49.869Z</time>
      </trkpt>
      <trkpt lat="44.35894" lon="3.28167">
        <ele>919.57</ele>
        <time>2024-11-05T20:35:03.112Z</time>
      </trkpt>
      <trkpt lat="44.35886" lon="3.28161">
        <ele>920.15</ele>
        <time>2024-11-05T20:35:16.356Z</time>
      </trkpt>
      <trkpt lat="44.35878" lon="3.28156">
        <ele>920.71</ele>
        <time>2024-11-05T20:35:29.602Z</time>
      </trkpt>
      <trkpt lat="44.35874" lon="3.28154">
        <ele>921.25</ele>
        <time>2024-11-05T20:35:42.848Z</time>
      </trkpt>
      <trkpt lat="44.35865" lon="3.28152">
        <ele>921.78</ele>
        <time>2024-11-05T20:35:56.096Z</time>
      </trkpt>
      <trkpt lat="44.35859" lon="3.2815">
        <ele>922.29</ele>
        <time>2024-11-05T20:36:09.345Z</time>
      </trkpt>
      <trkpt lat="44.35838" lon="3.28151">
        <ele>922.75</ele>
        <time>2024-11-05T20:36:22.597Z</time>
      </trkpt>
      <trkpt lat="44.35834" lon="3.28151">
        <ele>923.21</ele>
        <time>2024-11-05T20:36:35.850Z</time>
      </trkpt>
      <trkpt lat="44.35825" lon="3.28151">
        <ele>923.66</ele>
        <time>2024-11-05T20:36:49.104Z</time>
      </trkpt>
      <trkpt lat="44.35807" lon="3.28152">
        <ele>924.16</ele>
        <time>2024-11-05T20:37:02.361Z</time>
      </trkpt>
      <trkpt lat="44.35798" lon="3.28152">
        <ele>924.6</ele>
        <time>2024-11-05T20:37:15.620Z</time>
      </trkpt>
      <trkpt lat="44.35793" lon="3.28152">
        <ele>925</ele>
        <time>2024-11-05T20:37:28.879Z</time>
      </trkpt>
      <trkpt lat="44.35789" lon="3.28153">
        <ele>925.37</ele>
        <time>2024-11-05T20:37:42.139Z</time>
      </trkpt>
      <trkpt lat="44.35776" lon="3.28153">
        <ele>925.76</ele>
        <time>2024-11-05T20:37:55.401Z</time>
      </trkpt>
      <trkpt lat="44.35762" lon="3.28154">
        <ele>926.07</ele>
        <time>2024-11-05T20:38:08.665Z</time>
      </trkpt>
      <trkpt lat="44.35753" lon="3.28154">
        <ele>926.35</ele>
        <time>2024-11-05T20:38:21.931Z</time>
      </trkpt>
      <trkpt lat="44.3575" lon="3.28154">
        <ele>926.58</ele>
        <time>2024-11-05T20:38:35.197Z</time>
      </trkpt>
      <trkpt lat="44.35744" lon="3.28156">
        <ele>926.8</ele>
        <time>2024-11-05T20:38:48.464Z</time>
      </trkpt>
      <trkpt lat="44.35736" lon="3.28159">
        <ele>926.97</ele>
        <time>2024-11-05T20:39:01.733Z</time>
      </trkpt>
      <trkpt lat="44.3571" lon="3.28167">
        <ele>927.11</ele>
        <time>2024-11-05T20:39:15.006Z</time>
      </trkpt>
      <trkpt lat="44.35701" lon="3.2817">
        <ele>927.19</ele>
        <time>2024-11-05T20:39:28.280Z</time>
      </trkpt>
      <trkpt lat="44.35692" lon="3.28171">
        <ele>927.23</ele>
        <time>2024-11-05T20:39:41.556Z</time>
      </trkpt>
      <trkpt lat="44.3569" lon="3.28171">
        <ele>927.25</ele>
        <time>2024-11-05T20:39:54.832Z</time>
      </trkpt>
      <trkpt lat="44.35683" lon="3.2817">
        <ele>927.22</ele>
        <time>2024-11-05T20:40:08.109Z</time>
      </trkpt>
      <trkpt lat="44.35674" lon="3.28168">
        <ele>927.14</ele>
        <time>2024-11-05T20:40:21.388Z</time>
      </trkpt>
      <trkpt lat="44.3567" lon="3.28167">
        <ele>927.05</ele>
        <time>2024-11-05T20:40:34.667Z</time>
      </trkpt>
      <trkpt lat="44.35666" lon="3.28166">
        <ele>926.91</ele>
        <time>2024-11-05T20:40:47.947Z</time>
      </trkpt>
      <trkpt lat="44.35665" lon="3.28166">
        <ele>926.76</ele>
        <time>2024-11-05T20:41:01.227Z</time>
      </trkpt>
      <trkpt lat="44.35657" lon="3.28162">
        <ele>926.55</ele>
        <time>2024-11-05T20:41:14.509Z</time>
      </trkpt>
      <trkpt lat="44.35644" lon="3.28157">
        <ele>926.33</ele>
        <time>2024-11-05T20:41:27.793Z</time>
      </trkpt>
      <trkpt lat="44.35632" lon="3.28149">
        <ele>926.07</ele>
        <time>2024-11-05T20:41:41.079Z</time>
      </trkpt>
      <trkpt lat="44.35628" lon="3.28146">
        <ele>925.79</ele>
        <time>2024-11-05T20:41:54.366Z</time>
      </trkpt>
      <trkpt lat="44.35612" lon="3.28133">
        <ele>925.47</ele>
        <time>2024-11-05T20:42:07.656Z</time>
      </trkpt>
      <trkpt lat="44.35593" lon="3.28117">
        <ele>925.08</ele>
        <time>2024-11-05T20:42:20.949Z</time>
      </trkpt>
      <trkpt lat="44.35585" lon="3.28111">
        <ele>924.68</ele>
        <time>2024-11-05T20:42:34.244Z</time>
      </trkpt>
      <trkpt lat="44.35583" lon="3.28109">
        <ele>924.27</ele>
        <time>2024-11-05T20:42:47.539Z</time>
      </trkpt>
      <trkpt lat="44.35577" lon="3.28105">
        <ele>923.82</ele>
        <time>2024-11-05T20:43:00.835Z</time>
      </trkpt>
      <trkpt lat="44.35573" lon="3.28102">
        <ele>923.35</ele>
        <time>2024-11-05T20:43:14.132Z</time>
      </trkpt>
      <trkpt lat="44.35569" lon="3.281">
        <ele>922.85</ele>
        <time>2024-11-05T20:43:27.429Z</time>
      </trkpt>
      <trkpt lat="44.35567" lon="3.28098">
        <ele>922.33</ele>
        <time>2024-11-05T20:43:40.727Z</time>
      </trkpt>
      <trkpt lat="44.35552" lon="3.28091">
        <ele>921.76</ele>
        <time>2024-11-05T20:43:54.027Z</time>
      </trkpt>
      <trkpt lat="44.35548" lon="3.28089">
        <ele>921.18</ele>
        <time>2024-11-05T20:44:07.328Z</time>
      </trkpt>
      <trkpt lat="44.3554" lon="3.28084">
        <ele>920.56</ele>
        <time>2024-11-05T20:44:20.630Z</time>
      </trkpt>
      <trkpt lat="44.35531" lon="3.2808">
        <ele>919.92</ele>
        <time>2024-11-05T20:44:33.934Z</time>
      </trkpt>
      <trkpt lat="44.35527" lon="3.28078">
        <ele>919.28</ele>
        <time>2024-11-05T20:44:47.239Z</time>
      </trkpt>
      <trkpt lat="44.35519" lon="3.28073">
        <ele>918.6</ele>
        <time>2024-11-05T20:45:00.545Z</time>
      </trkpt>
      <trkpt lat="44.35503" lon="3.28064">
        <ele>917.86</ele>
        <time>2024-11-05T20:45:13.854Z</time>
      </trkpt>
      <trkpt lat="44.35478" lon="3.28049">
        <ele>917.09</ele>
        <time>2024-11-05T20:45:27.167Z</time>
      </trkpt>
      <trkpt lat="44.35465" lon="3.28042">
        <ele>916.38</ele>
        <time>2024-11-05T20:45:40.482Z</time>
      </trkpt>
      <trkpt lat="44.35457" lon="3.28038">
        <ele>915.67</ele>
        <time>2024-11-05T20:45:53.799Z</time>
      </trkpt>
      <trkpt lat="44.35449" lon="3.28033">
        <ele>914.95</ele>
        <time>2024-11-05T20:46:07.117Z</time>
      </trkpt>
      <trkpt lat="44.35445" lon="3.2803">
        <ele>914.22</ele>
        <time>2024-11-05T20:46:20.436Z</time>
      </trkpt>
      <trkpt lat="44.35436" lon="3.28026">
        <ele>913.48</ele>
        <time>2024-11-05T20:46:33.756Z</time>
      </trkpt>
      <trkpt lat="44.35428" lon="3.28021">
        <ele>912.73</ele>
        <time>2024-11-05T20:46:47.078Z</time>
      </trkpt>
      <trkpt lat="44.3542" lon="3.28016">
        <ele>911.97</ele>
        <time>2024-11-05T20:47:00.401Z</time>
      </trkpt>
      <trkpt lat="44.35409" lon="3.2801">
        <ele>911.21</ele>
        <time>2024-11-05T20:47:13.726Z</time>
      </trkpt>
      <trkpt lat="44.35402" lon="3.28008">
        <ele>910.43</ele>
        <time>2024-11-05T20:47:27.052Z</time>
      </trkpt>
      <trkpt lat="44.35399" lon="3.28008">
        <ele>909.63</ele>
        <time>2024-11-05T20:47:40.379Z</time>
      </trkpt>
      <trkpt lat="44.3539" lon="3.28009">
        <ele>908.79</ele>
        <time>2024-11-05T20:47:53.707Z</time>
      </trkpt>
      <trkpt lat="44.35387" lon="3.28009">
        <ele>907.97</ele>
        <time>2024-11-05T20:48:07.036Z</time>
      </trkpt>
      <trkpt lat="44.35381" lon="3.28012">
        <ele>907.15</ele>
        <time>2024-11-05T20:48:20.366Z</time>
      </trkpt>
      <trkpt lat="44.35373" lon="3.28017">
        <ele>906.33</ele>
        <time>2024-11-05T20:48:33.697Z</time>
      </trkpt>
      <trkpt lat="44.35363" lon="3.2803">
        <ele>905.45</ele>
        <time>2024-11-05T20:48:47.030Z</time>
      </trkpt>
      <trkpt lat="44.35361" lon="3.28036">
        <ele>904.57</ele>
        <time>2024-11-05T20:49:00.364Z</time>
      </trkpt>
      <trkpt lat="44.35354" lon="3.28052">
        <ele>903.64</ele>
        <time>2024-11-05T20:49:13.700Z</time>
      </trkpt>
      <trkpt lat="44.35349" lon="3.28066">
        <ele>902.83</ele>
        <time>2024-11-05T20:49:27.038Z</time>
      </trkpt>
      <trkpt lat="44.35348" lon="3.28068">
        <ele>901.99</ele>
        <time>2024-11-05T20:49:40.376Z</time>
      </trkpt>
      <trkpt lat="44.35337" lon="3.28088">
        <ele>901.12</ele>
        <time>2024-11-05T20:49:53.717Z</time>
      </trkpt>
      <trkpt lat="44.35309" lon="3.28124">
        <ele>900.19</ele>
        <time>2024-11-05T20:50:07.064Z</time>
      </trkpt>
      <trkpt lat="44.35308" lon="3.28126">
        <ele>899.33</ele>
        <time>2024-11-05T20:50:20.412Z</time>
      </trkpt>
      <trkpt lat="44.35299" lon="3.28141">
        <ele>898.44</ele>
        <time>2024-11-05T20:50:33.762Z</time>
      </trkpt>
      <trkpt lat="44.3529" lon="3.28155">
        <ele>897.56</ele>
        <time>2024-11-05T20:50:47.114Z</time>
      </trkpt>
      <trkpt lat="44.35275" lon="3.28178">
        <ele>896.61</ele>
        <time>2024-11-05T20:51:00.469Z</time>
      </trkpt>
      <trkpt lat="44.35272" lon="3.28183">
        <ele>895.74</ele>
        <time>2024-11-05T20:51:13.825Z</time>
      </trkpt>
      <trkpt lat="44.35268" lon="3.28186">
        <ele>894.9</ele>
        <time>2024-11-05T20:51:27.182Z</time>
      </trkpt>
      <trkpt lat="44.35261" lon="3.28193">
        <ele>894.08</ele>
        <time>2024-11-05T20:51:40.540Z</time>
      </trkpt>
      <trkpt lat="44.35253" lon="3.28199">
        <ele>893.26</ele>
        <time>2024-11-05T20:51:53.900Z</time>
      </trkpt>
      <trkpt lat="44.35245" lon="3.28206">
        <ele>892.43</ele>
        <time>2024-11-05T20:52:07.261Z</time>
      </trkpt>
      <trkpt lat="44.35236" lon="3.28223">
        <ele>891.61</ele>
        <time>2024-11-05T20:52:20.625Z</time>
      </trkpt>
      <trkpt lat="44.35235" lon="3.28226">
        <ele>890.81</ele>
        <time>2024-11-05T20:52:33.989Z</time>
      </trkpt>
      <trkpt lat="44.3523" lon="3.28243">
        <ele>890.01</ele>
        <time>2024-11-05T20:52:47.355Z</time>
      </trkpt>
      <trkpt lat="44.35229" lon="3.28256">
        <ele>889.21</ele>
        <time>2024-11-05T20:53:00.723Z</time>
      </trkpt>
      <trkpt lat="44.35229" lon="3.28265">
        <ele>888.42</ele>
        <time>2024-11-05T20:53:14.092Z</time>
      </trkpt>
      <trkpt lat="44.35232" lon="3.28299">
        <ele>887.58</ele>
        <time>2024-11-05T20:53:27.465Z</time>
      </trkpt>
      <trkpt lat="44.35233" lon="3.28312">
        <ele>886.82</ele>
        <time>2024-11-05T20:53:40.839Z</time>
      </trkpt>
      <trkpt lat="44.35234" lon="3.2833">
        <ele>886.04</ele>
        <time>2024-11-05T20:53:54.215Z</time>
      </trkpt>
      <trkpt lat="44.35235" lon="3.28343">
        <ele>885.31</ele>
        <time>2024-11-05T20:54:07.593Z</time>
      </trkpt>
      <trkpt lat="44.35236" lon="3.28355">
        <ele>884.59</ele>
        <time>2024-11-05T20:54:20.972Z</time>
      </trkpt>
      <trkpt lat="44.35239" lon="3.2838">
        <ele>883.81</ele>
        <time>2024-11-05T20:54:34.354Z</time>
      </trkpt>
      <trkpt lat="44.3524" lon="3.28392">
        <ele>883.12</ele>
        <time>2024-11-05T20:54:47.737Z</time>
      </trkpt>
      <trkpt lat="44.3524" lon="3.28398">
        <ele>882.47</ele>
        <time>2024-11-05T20:55:01.121Z</time>
      </trkpt>
      <trkpt lat="44.35239" lon="3.28405">
        <ele>881.85</ele>
        <time>2024-11-05T20:55:14.506Z</time>
      </trkpt>
      <trkpt lat="44.35236" lon="3.28417">
        <ele>881.22</ele>
        <time>2024-11-05T20:55:27.892Z</time>
      </trkpt>
      <trkpt lat="44.35234" lon="3.28429">
        <ele>880.62</ele>
        <time>2024-11-05T20:55:41.280Z</time>
      </trkpt>
      <trkpt lat="44.35233" lon="3.28433">
        <ele>880.06</ele>
        <time>2024-11-05T20:55:54.668Z</time>
      </trkpt>
      <trkpt lat="44.35229" lon="3.28439">
        <ele>879.52</ele>
        <time>2024-11-05T20:56:08.057Z</time>
      </trkpt>
      <trkpt lat="44.35224" lon="3.28447">
        <ele>879.02</ele>
        <time>2024-11-05T20:56:21.447Z</time>
      </trkpt>
      <trkpt lat="44.3521" lon="3.28458">
        <ele>878.53</ele>
        <time>2024-11-05T20:56:34.840Z</time>
      </trkpt>
      <trkpt lat="44.35207" lon="3.28459">
        <ele>878.07</ele>
        <time>2024-11-05T20:56:48.233Z</time>
      </trkpt>
      <trkpt lat="44.35198" lon="3.28462">
        <ele>877.63</ele>
        <time>2024-11-05T20:57:01.628Z</time>
      </trkpt>
      <trkpt lat="44.3519" lon="3.28465">
        <ele>877.2</ele>
        <time>2024-11-05T20:57:15.024Z</time>
      </trkpt>
      <trkpt lat="44.35181" lon="3.28468">
        <ele>876.78</ele>
        <time>2024-11-05T20:57:28.422Z</time>
      </trkpt>
      <trkpt lat="44.35179" lon="3.28469">
        <ele>876.39</ele>
        <time>2024-11-05T20:57:41.820Z</time>
      </trkpt>
      <trkpt lat="44.35177" lon="3.2847">
        <ele>876.02</ele>
        <time>2024-11-05T20:57:55.218Z</time>
      </trkpt>
      <trkpt lat="44.3517" lon="3.28474">
        <ele>875.66</ele>
        <time>2024-11-05T20:58:08.618Z</time>
      </trkpt>
      <trkpt lat="44.35169" lon="3.28475">
        <ele>875.32</ele>
        <time>2024-11-05T20:58:22.018Z</time>
      </trkpt>
      <trkpt lat="44.35161" lon="3.28481">
        <ele>874.98</ele>
        <time>2024-11-05T20:58:35.419Z</time>
      </trkpt>
      <trkpt lat="44.35157" lon="3.28485">
        <ele>874.66</ele>
        <time>2024-11-05T20:58:48.821Z</time>
      </trkpt>
      <trkpt lat="44.35153" lon="3.28488">
        <ele>874.35</ele>
        <time>2024-11-05T20:59:02.224Z</time>
      </trkpt>
      <trkpt lat="44.35145" lon="3.28494">
        <ele>874.06</ele>
        <time>2024-11-05T20:59:15.628Z</time>
      </trkpt>
      <trkpt lat="44.35138" lon="3.285">
        <ele>873.79</ele>
        <time>2024-11-05T20:59:29.034Z</time>
      </trkpt>
      <trkpt lat="44.35133" lon="3.28502">
        <ele>873.52</ele>
        <time>2024-11-05T20:59:42.440Z</time>
      </trkpt>
      <trkpt lat="44.3513" lon="3.28503">
        <ele>873.25</ele>
        <time>2024-11-05T20:59:55.847Z</time>
      </trkpt>
      <trkpt lat="44.35116" lon="3.28506">
        <ele>872.95</ele>
        <time>2024-11-05T21:00:09.256Z</time>
      </trkpt>
      <trkpt lat="44.35107" lon="3.28507">
        <ele>872.67</ele>
        <time>2024-11-05T21:00:22.667Z</time>
      </trkpt>
      <trkpt lat="44.35094" lon="3.28509">
        <ele>872.4</ele>
        <time>2024-11-05T21:00:36.080Z</time>
      </trkpt>
      <trkpt lat="44.3508" lon="3.28512">
        <ele>872.14</ele>
        <time>2024-11-05T21:00:49.495Z</time>
      </trkpt>
      <trkpt lat="44.35079" lon="3.28512">
        <ele>871.87</ele>
        <time>2024-11-05T21:01:02.910Z</time>
      </trkpt>
      <trkpt lat="44.35072" lon="3.28515">
        <ele>871.61</ele>
        <time>2024-11-05T21:01:16.326Z</time>
      </trkpt>
      <trkpt lat="44.3505" lon="3.28524">
        <ele>871.35</ele>
        <time>2024-11-05T21:01:29.746Z</time>
      </trkpt>
      <trkpt lat="44.35038" lon="3.28529">
        <ele>871.08</ele>
        <time>2024-11-05T21:01:43.168Z</time>
      </trkpt>
      <trkpt lat="44.35035" lon="3.2853">
        <ele>870.78</ele>
        <time>2024-11-05T21:01:56.590Z</time>
      </trkpt>
      <trkpt lat="44.35025" lon="3.28536">
        <ele>870.47</ele>
        <time>2024-11-05T21:02:10.014Z</time>
      </trkpt>
      <trkpt lat="44.35016" lon="3.28542">
        <ele>870.17</ele>
        <time>2024-11-05T21:02:23.440Z</time>
      </trkpt>
      <trkpt lat="44.35013" lon="3.28544">
        <ele>869.83</ele>
        <time>2024-11-05T21:02:36.866Z</time>
      </trkpt>
      <trkpt lat="44.35006" lon="3.28551">
        <ele>869.46</ele>
        <time>2024-11-05T21:02:50.294Z</time>
      </trkpt>
      <trkpt lat="44.34998" lon="3.28557">
        <ele>869.09</ele>
        <time>2024-11-05T21:03:03.723Z</time>
      </trkpt>
      <trkpt lat="44.34975" lon="3.28577">
        <ele>868.67</ele>
        <time>2024-11-05T21:03:17.156Z</time>
      </trkpt>
      <trkpt lat="44.34965" lon="3.28585">
        <ele>868.26</ele>
        <time>2024-11-05T21:03:30.591Z</time>
      </trkpt>
      <trkpt lat="44.34945" lon="3.28604">
        <ele>867.76</ele>
        <time>2024-11-05T21:03:44.030Z</time>
      </trkpt>
      <trkpt lat="44.34928" lon="3.28621">
        <ele>867.26</ele>
        <time>2024-11-05T21:03:57.473Z</time>
      </trkpt>
      <trkpt lat="44.34918" lon="3.28636">
        <ele>866.81</ele>
        <time>2024-11-05T21:04:10.918Z</time>
      </trkpt>
      <trkpt lat="44.34915" lon="3.2864">
        <ele>866.35</ele>
        <time>2024-11-05T21:04:24.364Z</time>
      </trkpt>
      <trkpt lat="44.3491" lon="3.28651">
        <ele>865.86</ele>
        <time>2024-11-05T21:04:37.811Z</time>
      </trkpt>
      <trkpt lat="44.34903" lon="3.28663">
        <ele>865.35</ele>
        <time>2024-11-05T21:04:51.260Z</time>
      </trkpt>
      <trkpt lat="44.34902" lon="3.28666">
        <ele>864.83</ele>
        <time>2024-11-05T21:05:04.709Z</time>
      </trkpt>
      <trkpt lat="44.3489" lon="3.28699">
        <ele>864.3</ele>
        <time>2024-11-05T21:05:18.162Z</time>
      </trkpt>
      <trkpt lat="44.34882" lon="3.28721">
        <ele>863.78</ele>
        <time>2024-11-05T21:05:31.618Z</time>
      </trkpt>
      <trkpt lat="44.34876" lon="3.28731">
        <ele>863.23</ele>
        <time>2024-11-05T21:05:45.076Z</time>
      </trkpt>
      <trkpt lat="44.34865" lon="3.28741">
        <ele>862.66</ele>
        <time>2024-11-05T21:05:58.536Z</time>
      </trkpt>
      <trkpt lat="44.34865" lon="3.28741">
        <ele>862.07</ele>
        <time>2024-11-05T21:06:11.996Z</time>
      </trkpt>
      <trkpt lat="44.34857" lon="3.28744">
        <ele>861.45</ele>
        <time>2024-11-05T21:06:25.457Z</time>
      </trkpt>
      <trkpt lat="44.34852" lon="3.28744">
        <ele>860.79</ele>
        <time>2024-11-05T21:06:38.919Z</time>
      </trkpt>
      <trkpt lat="44.34849" lon="3.28744">
        <ele>860.14</ele>
        <time>2024-11-05T21:06:52.381Z</time>
      </trkpt>
      <trkpt lat="44.34832" lon="3.28739">
        <ele>859.36</ele>
        <time>2024-11-05T21:07:05.846Z</time>
      </trkpt>
      <trkpt lat="44.34821" lon="3.28734">
        <ele>858.64</ele>
        <time>2024-11-05T21:07:19.313Z</time>
      </trkpt>
      <trkpt lat="44.34818" lon="3.28732">
        <ele>857.96</ele>
        <time>2024-11-05T21:07:32.781Z</time>
      </trkpt>
      <trkpt lat="44.34805" lon="3.28723">
        <ele>857.2</ele>
        <time>2024-11-05T21:07:46.251Z</time>
      </trkpt>
      <trkpt lat="44.34797" lon="3.28717">
        <ele>856.49</ele>
        <time>2024-11-05T21:07:59.722Z</time>
      </trkpt>
      <trkpt lat="44.34796" lon="3.28716">
        <ele>855.8</ele>
        <time>2024-11-05T21:08:13.194Z</time>
      </trkpt>
      <trkpt lat="44.34775" lon="3.28698">
        <ele>855.07</ele>
        <time>2024-11-05T21:08:26.670Z</time>
      </trkpt>
      <trkpt lat="44.34763" lon="3.28688">
        <ele>854.32</ele>
        <time>2024-11-05T21:08:40.148Z</time>
      </trkpt>
      <trkpt lat="44.34756" lon="3.28682">
        <ele>853.59</ele>
        <time>2024-11-05T21:08:53.627Z</time>
      </trkpt>
      <trkpt lat="44.34741" lon="3.28667">
        <ele>852.81</ele>
        <time>2024-11-05T21:09:07.109Z</time>
      </trkpt>
      <trkpt lat="44.34735" lon="3.28661">
        <ele>852.07</ele>
        <time>2024-11-05T21:09:20.592Z</time>
      </trkpt>
      <trkpt lat="44.3473" lon="3.28658">
        <ele>851.36</ele>
        <time>2024-11-05T21:09:34.076Z</time>
      </trkpt>
      <trkpt lat="44.34722" lon="3.28652">
        <ele>850.65</ele>
        <time>2024-11-05T21:09:47.562Z</time>
      </trkpt>
      <trkpt lat="44.34712" lon="3.28645">
        <ele>849.94</ele>
        <time>2024-11-05T21:10:01.049Z</time>
      </trkpt>
      <trkpt lat="44.34706" lon="3.28643">
        <ele>849.23</ele>
        <time>2024-11-05T21:10:14.537Z</time>
      </trkpt>
      <trkpt lat="44.347" lon="3.28641">
        <ele>848.53</ele>
        <time>2024-11-05T21:10:28.026Z</time>
      </trkpt>
      <trkpt lat="44.34697" lon="3.28642">
        <ele>847.83</ele>
        <time>2024-11-05T21:10:41.516Z</time>
      </trkpt>
      <trkpt lat="44.34688" lon="3.28643">
        <ele>847.15</ele>
        <time>2024-11-05T21:10:55.007Z</time>
      </trkpt>
      <trkpt lat="44.3468" lon="3.28645">
        <ele>846.47</ele>
        <time>2024-11-05T21:11:08.500Z</time>
      </trkpt>
      <trkpt lat="44.34671" lon="3.28646">
        <ele>845.78</ele>
        <time>2024-11-05T21:11:21.994Z</time>
      </trkpt>
      <trkpt lat="44.34666" lon="3.28647">
        <ele>845.09</ele>
        <time>2024-11-05T21:11:35.489Z</time>
      </trkpt>
      <trkpt lat="44.34661" lon="3.28646">
        <ele>844.4</ele>
        <time>2024-11-05T21:11:48.985Z</time>
      </trkpt>
      <trkpt lat="44.34658" lon="3.28644">
        <ele>843.72</ele>
        <time>2024-11-05T21:12:02.481Z</time>
      </trkpt>
      <trkpt lat="44.34649" lon="3.2864">
        <ele>843.04</ele>
        <time>2024-11-05T21:12:15.979Z</time>
      </trkpt>
      <trkpt lat="44.34646" lon="3.28636">
        <ele>842.37</ele>
        <time>2024-11-05T21:12:29.477Z</time>
      </trkpt>
      <trkpt lat="44.3464" lon="3.28628">
        <ele>841.7</ele>
        <time>2024-11-05T21:12:42.977Z</time>
      </trkpt>
      <trkpt lat="44.34634" lon="3.28621">
        <ele>841.04</ele>
        <time>2024-11-05T21:12:56.478Z</time>
      </trkpt>
      <trkpt lat="44.34616" lon="3.28606">
        <ele>840.35</ele>
        <time>2024-11-05T21:13:09.982Z</time>
      </trkpt>
      <trkpt lat="44.34609" lon="3.28603">
        <ele>839.71</ele>
        <time>2024-11-05T21:13:23.487Z</time>
      </trkpt>
      <trkpt lat="44.34606" lon="3.28601">
        <ele>839.09</ele>
        <time>2024-11-05T21:13:36.993Z</time>
      </trkpt>
      <trkpt lat="44.34574" lon="3.28592">
        <ele>838.37</ele>
        <time>2024-11-05T21:13:50.504Z</time>
      </trkpt>
      <trkpt lat="44.34563" lon="3.28585">
        <ele>837.73</ele>
        <time>2024-11-05T21:14:04.017Z</time>
      </trkpt>
      <trkpt lat="44.34543" lon="3.28571">
        <ele>837.08</ele>
        <time>2024-11-05T21:14:17.534Z</time>
      </trkpt>
      <trkpt lat="44.34533" lon="3.28564">
        <ele>836.48</ele>
        <time>2024-11-05T21:14:31.052Z</time>
      </trkpt>
      <trkpt lat="44.34532" lon="3.28563">
        <ele>835.94</ele>
        <time>2024-11-05T21:14:44.571Z</time>
      </trkpt>
      <trkpt lat="44.34519" lon="3.28557">
        <ele>835.39</ele>
        <time>2024-11-05T21:14:58.092Z</time>
      </trkpt>
      <trkpt lat="44.34511" lon="3.28553">
        <ele>834.89</ele>
        <time>2024-11-05T21:15:11.614Z</time>
      </trkpt>
      <trkpt lat="44.34503" lon="3.28549">
        <ele>834.4</ele>
        <time>2024-11-05T21:15:25.138Z</time>
      </trkpt>
      <trkpt lat="44.34495" lon="3.28544">
        <ele>833.93</ele>
        <time>2024-11-05T21:15:38.663Z</time>
      </trkpt>
      <trkpt lat="44.3449" lon="3.28542">
        <ele>833.5</ele>
        <time>2024-11-05T21:15:52.189Z</time>
      </trkpt>
      <trkpt lat="44.34486" lon="3.28541">
        <ele>833.09</ele>
        <time>2024-11-05T21:16:05.715Z</time>
      </trkpt>
      <trkpt lat="44.34478" lon="3.28538">
        <ele>832.68</ele>
        <time>2024-11-05T21:16:19.243Z</time>
      </trkpt>
      <trkpt lat="44.34469" lon="3.28535">
        <ele>832.31</ele>
        <time>2024-11-05T21:16:32.772Z</time>
      </trkpt>
      <trkpt lat="44.34463" lon="3.28533">
        <ele>831.96</ele>
        <time>2024-11-05T21:16:46.302Z</time>
      </trkpt>
      <trkpt lat="44.34461" lon="3.28533">
        <ele>831.64</ele>
        <time>2024-11-05T21:16:59.833Z</time>
      </trkpt>
      <trkpt lat="44.3445" lon="3.28531">
        <ele>831.33</ele>
        <time>2024-11-05T21:17:13.365Z</time>
      </trkpt>
      <trkpt lat="44.34443" lon="3.28531">
        <ele>831.05</ele>
        <time>2024-11-05T21:17:26.898Z</time>
      </trkpt>
      <trkpt lat="44.34434" lon="3.2853">
        <ele>830.79</ele>
        <time>2024-11-05T21:17:40.433Z</time>
      </trkpt>
      <trkpt lat="44.34426" lon="3.2853">
        <ele>830.56</ele>
        <time>2024-11-05T21:17:53.969Z</time>
      </trkpt>
      <trkpt lat="44.34421" lon="3.28531">
        <ele>830.34</ele>
        <time>2024-11-05T21:18:07.506Z</time>
      </trkpt>
      <trkpt lat="44.34418" lon="3.28532">
        <ele>830.14</ele>
        <time>2024-11-05T21:18:21.043Z</time>
      </trkpt>
      <trkpt lat="44.34413" lon="3.28535">
        <ele>829.96</ele>
        <time>2024-11-05T21:18:34.581Z</time>
      </trkpt>
      <trkpt lat="44.34404" lon="3.28539">
        <ele>829.8</ele>
        <time>2024-11-05T21:18:48.121Z</time>
      </trkpt>
      <trkpt lat="44.34398" lon="3.28546">
        <ele>829.64</ele>
        <time>2024-11-05T21:19:01.662Z</time>
      </trkpt>
      <trkpt lat="44.34391" lon="3.28554">
        <ele>829.5</ele>
        <time>2024-11-05T21:19:15.205Z</time>
      </trkpt>
      <trkpt lat="44.34384" lon="3.28562">
        <ele>829.37</ele>
        <time>2024-11-05T21:19:28.749Z</time>
      </trkpt>
      <trkpt lat="44.34378" lon="3.28569">
        <ele>829.26</ele>
        <time>2024-11-05T21:19:42.294Z</time>
      </trkpt>
      <trkpt lat="44.34374" lon="3.28574">
        <ele>829.16</ele>
        <time>2024-11-05T21:19:55.840Z</time>
      </trkpt>
      <trkpt lat="44.34356" lon="3.28592">
        <ele>829.09</ele>
        <time>2024-11-05T21:20:09.390Z</time>
      </trkpt>
      <trkpt lat="44.34332" lon="3.28618">
        <ele>829.1</ele>
        <time>2024-11-05T21:20:22.945Z</time>
      </trkpt>
      <trkpt lat="44.34325" lon="3.28625">
        <ele>829.05</ele>
        <time>2024-11-05T21:20:36.501Z</time>
      </trkpt>
      <trkpt lat="44.34313" lon="3.28636">
        <ele>828.97</ele>
        <time>2024-11-05T21:20:50.059Z</time>
      </trkpt>
      <trkpt lat="44.3431" lon="3.28638">
        <ele>828.9</ele>
        <time>2024-11-05T21:21:03.618Z</time>
      </trkpt>
      <trkpt lat="44.34305" lon="3.28641">
        <ele>828.83</ele>
        <time>2024-11-05T21:21:17.178Z</time>
      </trkpt>
      <trkpt lat="44.34301" lon="3.28644">
        <ele>828.75</ele>
        <time>2024-11-05T21:21:30.738Z</time>
      </trkpt>
      <trkpt lat="44.34297" lon="3.28646">
        <ele>828.66</ele>
        <time>2024-11-05T21:21:44.299Z</time>
      </trkpt>
      <trkpt lat="44.34293" lon="3.28649">
        <ele>828.57</ele>
        <time>2024-11-05T21:21:57.861Z</time>
      </trkpt>
      <trkpt lat="44.34289" lon="3.28652">
        <ele>828.48</ele>
        <time>2024-11-05T21:22:11.423Z</time>
      </trkpt>
      <trkpt lat="44.34284" lon="3.28654">
        <ele>828.38</ele>
        <time>2024-11-05T21:22:24.986Z</time>
      </trkpt>
      <trkpt lat="44.34276" lon="3.28659">
        <ele>828.26</ele>
        <time>2024-11-05T21:22:38.551Z</time>
      </trkpt>
      <trkpt lat="44.34268" lon="3.28665">
        <ele>828.16</ele>
        <time>2024-11-05T21:22:52.117Z</time>
      </trkpt>
      <trkpt lat="44.34261" lon="3.28669">
        <ele>828.05</ele>
        <time>2024-11-05T21:23:05.684Z</time>
      </trkpt>
      <trkpt lat="44.34249" lon="3.2868">
        <ele>827.92</ele>
        <time>2024-11-05T21:23:19.254Z</time>
      </trkpt>
      <trkpt lat="44.34247" lon="3.28682">
        <ele>827.81</ele>
        <time>2024-11-05T21:23:32.824Z</time>
      </trkpt>
      <trkpt lat="44.34236" lon="3.28698">
        <ele>827.72</ele>
        <time>2024-11-05T21:23:46.397Z</time>
      </trkpt>
      <trkpt lat="44.34235" lon="3.287">
        <ele>827.61</ele>
        <time>2024-11-05T21:23:59.970Z</time>
      </trkpt>
      <trkpt lat="44.34228" lon="3.28714">
        <ele>827.51</ele>
        <time>2024-11-05T21:24:13.545Z</time>
      </trkpt>
      <trkpt lat="44.3422" lon="3.28729">
        <ele>827.41</ele>
        <time>2024-11-05T21:24:27.122Z</time>
      </trkpt>
      <trkpt lat="44.34215" lon="3.28739">
        <ele>827.29</ele>
        <time>2024-11-05T21:24:40.700Z</time>
      </trkpt>
      <trkpt lat="44.34209" lon="3.28751">
        <ele>827.15</ele>
        <time>2024-11-05T21:24:54.280Z</time>
      </trkpt>
      <trkpt lat="44.34203" lon="3.2876">
        <ele>827.01</ele>
        <time>2024-11-05T21:25:07.861Z</time>
      </trkpt>
      <trkpt lat="44.34197" lon="3.28766">
        <ele>826.85</ele>
        <time>2024-11-05T21:25:21.444Z</time>
      </trkpt>
      <trkpt lat="44.34185" lon="3.28778">
        <ele>826.67</ele>
        <time>2024-11-05T21:25:35.029Z</time>
      </trkpt>
      <trkpt lat="44.34178" lon="3.28783">
        <ele>826.5</ele>
        <time>2024-11-05T21:25:48.615Z</time>
      </trkpt>
      <trkpt lat="44.34161" lon="3.28793">
        <ele>826.31</ele>
        <time>2024-11-05T21:26:02.204Z</time>
      </trkpt>
      <trkpt lat="44.34157" lon="3.28796">
        <ele>826.18</ele>
        <time>2024-11-05T21:26:15.794Z</time>
      </trkpt>
      <trkpt lat="44.34144" lon="3.28801">
        <ele>826</ele>
        <time>2024-11-05T21:26:29.386Z</time>
      </trkpt>
      <trkpt lat="44.3414" lon="3.28803">
        <ele>825.86</ele>
        <time>2024-11-05T21:26:42.979Z</time>
      </trkpt>
      <trkpt lat="44.34123" lon="3.2881">
        <ele>825.72</ele>
        <time>2024-11-05T21:26:56.575Z</time>
      </trkpt>
      <trkpt lat="44.3411" lon="3.28815">
        <ele>825.57</ele>
        <time>2024-11-05T21:27:10.173Z</time>
      </trkpt>
      <trkpt lat="44.34105" lon="3.28817">
        <ele>825.45</ele>
        <time>2024-11-05T21:27:23.772Z</time>
      </trkpt>
      <trkpt lat="44.34097" lon="3.2882">
        <ele>825.33</ele>
        <time>2024-11-05T21:27:37.372Z</time>
      </trkpt>
      <trkpt lat="44.34095" lon="3.28821">
        <ele>825.24</ele>
        <time>2024-11-05T21:27:50.972Z</time>
      </trkpt>
      <trkpt lat="44.34085" lon="3.28828">
        <ele>825.11</ele>
        <time>2024-11-05T21:28:04.574Z</time>
      </trkpt>
      <trkpt lat="44.34083" lon="3.28829">
        <ele>825.04</ele>
        <time>2024-11-05T21:28:18.176Z</time>
      </trkpt>
      <trkpt lat="44.34077" lon="3.28835">
        <ele>824.98</ele>
        <time>2024-11-05T21:28:31.780Z</time>
      </trkpt>
      <trkpt lat="44.34073" lon="3.28838">
        <ele>824.94</ele>
        <time>2024-11-05T21:28:45.384Z</time>
      </trkpt>
      <trkpt lat="44.34066" lon="3.28845">
        <ele>824.92</ele>
        <time>2024-11-05T21:28:58.990Z</time>
      </trkpt>
      <trkpt lat="44.3406" lon="3.28851">
        <ele>824.9</ele>
        <time>2024-11-05T21:29:12.597Z</time>
      </trkpt>
      <trkpt lat="44.34059" lon="3.28853">
        <ele>824.9</ele>
        <time>2024-11-05T21:29:26.204Z</time>
      </trkpt>
      <trkpt lat="44.34052" lon="3.28861">
        <ele>824.92</ele>
        <time>2024-11-05T21:29:39.813Z</time>
      </trkpt>
      <trkpt lat="44.34049" lon="3.28866">
        <ele>824.96</ele>
        <time>2024-11-05T21:29:53.422Z</time>
      </trkpt>
      <trkpt lat="44.34047" lon="3.28868">
        <ele>825.02</ele>
        <time>2024-11-05T21:30:07.032Z</time>
      </trkpt>
      <trkpt lat="44.34043" lon="3.28875">
        <ele>825.1</ele>
        <time>2024-11-05T21:30:20.643Z</time>
      </trkpt>
      <trkpt lat="44.3404" lon="3.2888">
        <ele>825.2</ele>
        <time>2024-11-05T21:30:34.254Z</time>
      </trkpt>
      <trkpt lat="44.34035" lon="3.28889">
        <ele>825.31</ele>
        <time>2024-11-05T21:30:47.867Z</time>
      </trkpt>
      <trkpt lat="44.34035" lon="3.2889">
        <ele>825.41</ele>
        <time>2024-11-05T21:31:01.480Z</time>
      </trkpt>
      <trkpt lat="44.34032" lon="3.28902">
        <ele>825.53</ele>
        <time>2024-11-05T21:31:15.094Z</time>
      </trkpt>
      <trkpt lat="44.3403" lon="3.28914">
        <ele>825.66</ele>
        <time>2024-11-05T21:31:28.710Z</time>
      </trkpt>
      <trkpt lat="44.34029" lon="3.28917">
        <ele>825.78</ele>
        <time>2024-11-05T21:31:42.326Z</time>
      </trkpt>
      <trkpt lat="44.34028" lon="3.28927">
        <ele>825.9</ele>
        <time>2024-11-05T21:31:55.943Z</time>
      </trkpt>
      <trkpt lat="44.34026" lon="3.28945">
        <ele>826.02</ele>
        <time>2024-11-05T21:32:09.562Z</time>
      </trkpt>
      <trkpt lat="44.34024" lon="3.28964">
        <ele>826.14</ele>
        <time>2024-11-05T21:32:23.184Z</time>
      </trkpt>
      <trkpt lat="44.34023" lon="3.2897">
        <ele>826.28</ele>
        <time>2024-11-05T21:32:36.806Z</time>
      </trkpt>
      <trkpt lat="44.34023" lon="3.28973">
        <ele>826.41</ele>
        <time>2024-11-05T21:32:50.429Z</time>
      </trkpt>
      <trkpt lat="44.34022" lon="3.28976">
        <ele>826.54</ele>
        <time>2024-11-05T21:33:04.052Z</time>
      </trkpt>
      <trkpt lat="44.3402" lon="3.28982">
        <ele>826.68</ele>
        <time>2024-11-05T21:33:17.676Z</time>
      </trkpt>
      <trkpt lat="44.34018" lon="3.28987">
        <ele>826.81</ele>
        <time>2024-11-05T21:33:31.300Z</time>
      </trkpt>
      <trkpt lat="44.34016" lon="3.28994">
        <ele>826.92</ele>
        <time>2024-11-05T21:33:44.925Z</time>
      </trkpt>
      <trkpt lat="44.34014" lon="3.28998">
        <ele>827.03</ele>
        <time>2024-11-05T21:33:58.551Z</time>
      </trkpt>
      <trkpt lat="44.34005" lon="3.29013">
        <ele>827.15</ele>
        <time>2024-11-05T21:34:12.179Z</time>
      </trkpt>
      <trkpt lat="44.34" lon="3.29021">
        <ele>827.23</ele>
        <time>2024-11-05T21:34:25.808Z</time>
      </trkpt>
      <trkpt lat="44.33996" lon="3.29026">
        <ele>827.31</ele>
        <time>2024-11-05T21:34:39.438Z</time>
      </trkpt>
      <trkpt lat="44.33989" lon="3.29034">
        <ele>827.36</ele>
        <time>2024-11-05T21:34:53.070Z</time>
      </trkpt>
      <trkpt lat="44.33982" lon="3.29042">
        <ele>827.39</ele>
        <time>2024-11-05T21:35:06.703Z</time>
      </trkpt>
      <trkpt lat="44.33978" lon="3.29047">
        <ele>827.4</ele>
        <time>2024-11-05T21:35:20.337Z</time>
      </trkpt>
      <trkpt lat="44.33971" lon="3.29053">
        <ele>827.38</ele>
        <time>2024-11-05T21:35:33.972Z</time>
      </trkpt>
      <trkpt lat="44.33964" lon="3.2906">
        <ele>827.36</ele>
        <time>2024-11-05T21:35:47.609Z</time>
      </trkpt>
      <trkpt lat="44.33957" lon="3.29066">
        <ele>827.33</ele>
        <time>2024-11-05T21:36:01.247Z</time>
      </trkpt>
      <trkpt lat="44.33956" lon="3.29066">
        <ele>827.26</ele>
        <time>2024-11-05T21:36:14.885Z</time>
      </trkpt>
      <trkpt lat="44.33949" lon="3.29072">
        <ele>827.18</ele>
        <time>2024-11-05T21:36:28.524Z</time>
      </trkpt>
      <trkpt lat="44.33941" lon="3.29078">
        <ele>827.08</ele>
        <time>2024-11-05T21:36:42.165Z</time>
      </trkpt>
      <trkpt lat="44.33937" lon="3.29081">
        <ele>826.95</ele>
        <time>2024-11-05T21:36:55.807Z</time>
      </trkpt>
      <trkpt lat="44.33929" lon="3.29087">
        <ele>826.8</ele>
        <time>2024-11-05T21:37:09.450Z</time>
      </trkpt>
      <trkpt lat="44.33921" lon="3.29093">
        <ele>826.62</ele>
        <time>2024-11-05T21:37:23.094Z</time>
      </trkpt>
      <trkpt lat="44.33917" lon="3.29096">
        <ele>826.4</ele>
        <time>2024-11-05T21:37:36.739Z</time>
      </trkpt>
      <trkpt lat="44.33913" lon="3.29099">
        <ele>826.15</ele>
        <time>2024-11-05T21:37:50.385Z</time>
      </trkpt>
      <trkpt lat="44.33906" lon="3.29106">
        <ele>825.88</ele>
        <time>2024-11-05T21:38:04.032Z</time>
      </trkpt>
      <trkpt lat="44.33904" lon="3.29108">
        <ele>825.58</ele>
        <time>2024-11-05T21:38:17.680Z</time>
      </trkpt>
      <trkpt lat="44.33895" lon="3.29118">
        <ele>825.26</ele>
        <time>2024-11-05T21:38:31.329Z</time>
      </trkpt>
      <trkpt lat="44.33875" lon="3.2914">
        <ele>824.82</ele>
        <time>2024-11-05T21:38:44.983Z</time>
      </trkpt>
      <trkpt lat="44.33863" lon="3.2915">
        <ele>824.39</ele>
        <time>2024-11-05T21:38:58.639Z</time>
      </trkpt>
      <trkpt lat="44.33856" lon="3.29155">
        <ele>823.95</ele>
        <time>2024-11-05T21:39:12.296Z</time>
      </trkpt>
      <trkpt lat="44.33855" lon="3.29156">
        <ele>823.51</ele>
        <time>2024-11-05T21:39:25.953Z</time>
      </trkpt>
      <trkpt lat="44.33825" lon="3.29171">
        <ele>822.95</ele>
        <time>2024-11-05T21:39:39.615Z</time>
      </trkpt>
      <trkpt lat="44.33822" lon="3.29173">
        <ele>822.47</ele>
        <time>2024-11-05T21:39:53.278Z</time>
      </trkpt>
      <trkpt lat="44.33822" lon="3.29173">
        <ele>821.97</ele>
        <time>2024-11-05T21:40:06.941Z</time>
      </trkpt>
      <trkpt lat="44.33821" lon="3.29173">
        <ele>821.44</ele>
        <time>2024-11-05T21:40:20.604Z</time>
      </trkpt>
      <trkpt lat="44.33821" lon="3.29173">
        <ele>820.9</ele>
        <time>2024-11-05T21:40:34.267Z</time>
      </trkpt>
      <trkpt lat="44.33821" lon="3.29173">
        <ele>820.33</ele>
        <time>2024-11-05T21:40:47.930Z</time>
      </trkpt>
      <trkpt lat="44.33788" lon="3.29192">
        <ele>819.7</ele>
        <time>2024-11-05T21:41:01.599Z</time>
      </trkpt>
      <trkpt lat="44.33784" lon="3.29195">
        <ele>819.1</ele>
        <time>2024-11-05T21:41:15.269Z</time>
      </trkpt>
      <trkpt lat="44.3378" lon="3.29198">
        <ele>818.47</ele>
        <time>2024-11-05T21:41:28.939Z</time>
      </trkpt>
      <trkpt lat="44.33773" lon="3.29205">
        <ele>817.79</ele>
        <time>2024-11-05T21:41:42.611Z</time>
      </trkpt>
      <trkpt lat="44.33769" lon="3.29208">
        <ele>817.14</ele>
        <time>2024-11-05T21:41:56.283Z</time>
      </trkpt>
      <trkpt lat="44.33761" lon="3.29223">
        <ele>816.43</ele>
        <time>2024-11-05T21:42:09.957Z</time>
      </trkpt>
      <trkpt lat="44.33755" lon="3.29232">
        <ele>815.73</ele>
        <time>2024-11-05T21:42:23.633Z</time>
      </trkpt>
      <trkpt lat="44.3375" lon="3.29249">
        <ele>814.99</ele>
        <time>2024-11-05T21:42:37.311Z</time>
      </trkpt>
      <trkpt lat="44.33739" lon="3.29284">
        <ele>814.27</ele>
        <time>2024-11-05T21:42:50.993Z</time>
      </trkpt>
      <trkpt lat="44.33738" lon="3.29287">
        <ele>813.56</ele>
        <time>2024-11-05T21:43:04.676Z</time>
      </trkpt>
      <trkpt lat="44.33722" lon="3.29318">
        <ele>812.78</ele>
        <time>2024-11-05T21:43:18.363Z</time>
      </trkpt>
      <trkpt lat="44.33718" lon="3.29324">
        <ele>812.04</ele>
        <time>2024-11-05T21:43:32.051Z</time>
      </trkpt>
      <trkpt lat="44.33708" lon="3.29337">
        <ele>811.28</ele>
        <time>2024-11-05T21:43:45.741Z</time>
      </trkpt>
      <trkpt lat="44.33706" lon="3.29339">
        <ele>810.54</ele>
        <time>2024-11-05T21:43:59.432Z</time>
      </trkpt>
      <trkpt lat="44.33697" lon="3.29348">
        <ele>809.77</ele>
        <time>2024-11-05T21:44:13.124Z</time>
      </trkpt>
      <trkpt lat="44.33691" lon="3.29354">
        <ele>808.99</ele>
        <time>2024-11-05T21:44:26.818Z</time>
      </trkpt>
      <trkpt lat="44.33678" lon="3.29362">
        <ele>808.23</ele>
        <time>2024-11-05T21:44:40.514Z</time>
      </trkpt>
      <trkpt lat="44.33669" lon="3.29367">
        <ele>807.47</ele>
        <time>2024-11-05T21:44:54.211Z</time>
      </trkpt>
      <trkpt lat="44.33661" lon="3.29372">
        <ele>806.69</ele>
        <time>2024-11-05T21:45:07.910Z</time>
      </trkpt>
      <trkpt lat="44.33657" lon="3.29375">
        <ele>805.96</ele>
        <time>2024-11-05T21:45:21.610Z</time>
      </trkpt>
      <trkpt lat="44.33644" lon="3.29386">
        <ele>805.19</ele>
        <time>2024-11-05T21:45:35.312Z</time>
      </trkpt>
      <trkpt lat="44.33642" lon="3.29389">
        <ele>804.45</ele>
        <time>2024-11-05T21:45:49.014Z</time>
      </trkpt>
      <trkpt lat="44.33637" lon="3.29398">
        <ele>803.7</ele>
        <time>2024-11-05T21:46:02.718Z</time>
      </trkpt>
      <trkpt lat="44.33637" lon="3.29398">
        <ele>802.97</ele>
        <time>2024-11-05T21:46:16.422Z</time>
      </trkpt>
      <trkpt lat="44.33632" lon="3.29411">
        <ele>802.23</ele>
        <time>2024-11-05T21:46:30.127Z</time>
      </trkpt>
      <trkpt lat="44.33624" lon="3.29438">
        <ele>801.49</ele>
        <time>2024-11-05T21:46:43.836Z</time>
      </trkpt>
      <trkpt lat="44.33621" lon="3.29447">
        <ele>800.78</ele>
        <time>2024-11-05T21:46:57.546Z</time>
      </trkpt>
      <trkpt lat="44.3361" lon="3.2947">
        <ele>800.05</ele>
        <time>2024-11-05T21:47:11.259Z</time>
      </trkpt>
      <trkpt lat="44.33604" lon="3.2948">
        <ele>799.33</ele>
        <time>2024-11-05T21:47:24.974Z</time>
      </trkpt>
      <trkpt lat="44.33602" lon="3.29483">
        <ele>798.64</ele>
        <time>2024-11-05T21:47:38.689Z</time>
      </trkpt>
      <trkpt lat="44.33586" lon="3.29503">
        <ele>797.94</ele>
        <time>2024-11-05T21:47:52.408Z</time>
      </trkpt>
      <trkpt lat="44.3358" lon="3.29508">
        <ele>797.26</ele>
        <time>2024-11-05T21:48:06.128Z</time>
      </trkpt>
      <trkpt lat="44.33569" lon="3.29517">
        <ele>796.61</ele>
        <time>2024-11-05T21:48:19.850Z</time>
      </trkpt>
      <trkpt lat="44.33561" lon="3.29524">
        <ele>795.97</ele>
        <time>2024-11-05T21:48:33.573Z</time>
      </trkpt>
      <trkpt lat="44.33551" lon="3.29536">
        <ele>795.31</ele>
        <time>2024-11-05T21:48:47.298Z</time>
      </trkpt>
      <trkpt lat="44.33544" lon="3.29545">
        <ele>794.66</ele>
        <time>2024-11-05T21:49:01.025Z</time>
      </trkpt>
      <trkpt lat="44.3354" lon="3.2955">
        <ele>794.04</ele>
        <time>2024-11-05T21:49:14.753Z</time>
      </trkpt>
      <trkpt lat="44.33532" lon="3.29563">
        <ele>793.4</ele>
        <time>2024-11-05T21:49:28.483Z</time>
      </trkpt>
      <trkpt lat="44.33518" lon="3.29585">
        <ele>792.75</ele>
        <time>2024-11-05T21:49:42.216Z</time>
      </trkpt>
      <trkpt lat="44.33489" lon="3.29627">
        <ele>792.12</ele>
        <time>2024-11-05T21:49:55.956Z</time>
      </trkpt>
      <trkpt lat="44.33485" lon="3.29637">
        <ele>791.51</ele>
        <time>2024-11-05T21:50:09.697Z</time>
      </trkpt>
      <trkpt lat="44.33478" lon="3.29653">
        <ele>790.92</ele>
        <time>2024-11-05T21:50:23.440Z</time>
      </trkpt>
      <trkpt lat="44.33463" lon="3.29691">
        <ele>790.31</ele>
        <time>2024-11-05T21:50:37.188Z</time>
      </trkpt>
      <trkpt lat="44.33459" lon="3.29702">
        <ele>789.72</ele>
        <time>2024-11-05T21:50:50.938Z</time>
      </trkpt>
      <trkpt lat="44.33455" lon="3.29713">
        <ele>789.16</ele>
        <time>2024-11-05T21:51:04.689Z</time>
      </trkpt>
      <trkpt lat="44.33452" lon="3.29719">
        <ele>788.63</ele>
        <time>2024-11-05T21:51:18.441Z</time>
      </trkpt>
      <trkpt lat="44.33451" lon="3.29724">
        <ele>788.12</ele>
        <time>2024-11-05T21:51:32.193Z</time>
      </trkpt>
      <trkpt lat="44.33449" lon="3.29732">
        <ele>787.62</ele>
        <time>2024-11-05T21:51:45.946Z</time>
      </trkpt>
      <trkpt lat="44.33449" lon="3.29736">
        <ele>787.13</ele>
        <time>2024-11-05T21:51:59.700Z</time>
      </trkpt>
      <trkpt lat="44.3345" lon="3.29753">
        <ele>786.64</ele>
        <time>2024-11-05T21:52:13.456Z</time>
      </trkpt>
      <trkpt lat="44.33453" lon="3.29766">
        <ele>786.19</ele>
        <time>2024-11-05T21:52:27.213Z</time>
      </trkpt>
      <trkpt lat="44.33456" lon="3.29778">
        <ele>785.74</ele>
        <time>2024-11-05T21:52:40.972Z</time>
      </trkpt>
      <trkpt lat="44.33459" lon="3.2979">
        <ele>785.28</ele>
        <time>2024-11-05T21:52:54.732Z</time>
      </trkpt>
      <trkpt lat="44.33466" lon="3.29819">
        <ele>784.83</ele>
        <time>2024-11-05T21:53:08.496Z</time>
      </trkpt>
      <trkpt lat="44.33474" lon="3.29849">
        <ele>784.39</ele>
        <time>2024-11-05T21:53:22.263Z</time>
      </trkpt>
      <trkpt lat="44.33475" lon="3.29855">
        <ele>783.97</ele>
        <time>2024-11-05T21:53:36.031Z</time>
      </trkpt>
      <trkpt lat="44.33476" lon="3.29867">
        <ele>783.57</ele>
        <time>2024-11-05T21:53:49.801Z</time>
      </trkpt>
      <trkpt lat="44.33478" lon="3.2988">
        <ele>783.19</ele>
        <time>2024-11-05T21:54:03.572Z</time>
      </trkpt>
      <trkpt lat="44.33479" lon="3.29892">
        <ele>782.81</ele>
        <time>2024-11-05T21:54:17.345Z</time>
      </trkpt>
      <trkpt lat="44.33481" lon="3.29911">
        <ele>782.41</ele>
        <time>2024-11-05T21:54:31.120Z</time>
      </trkpt>
      <trkpt lat="44.33483" lon="3.29936">
        <ele>782.06</ele>
        <time>2024-11-05T21:54:44.898Z</time>
      </trkpt>
      <trkpt lat="44.33485" lon="3.29948">
        <ele>781.69</ele>
        <time>2024-11-05T21:54:58.677Z</time>
      </trkpt>
      <trkpt lat="44.33485" lon="3.29952">
        <ele>781.35</ele>
        <time>2024-11-05T21:55:12.456Z</time>
      </trkpt>
      <trkpt lat="44.33484" lon="3.2996">
        <ele>781.03</ele>
        <time>2024-11-05T21:55:26.236Z</time>
      </trkpt>
      <trkpt lat="44.3348" lon="3.2998">
        <ele>780.69</ele>
        <time>2024-11-05T21:55:40.019Z</time>
      </trkpt>
      <trkpt lat="44.33474" lon="3.29995">
        <ele>780.37</ele>
        <time>2024-11-05T21:55:53.804Z</time>
      </trkpt>
      <trkpt lat="44.33469" lon="3.30006">
        <ele>780.07</ele>
        <time>2024-11-05T21:56:07.590Z</time>
      </trkpt>
      <trkpt lat="44.33465" lon="3.30016">
        <ele>779.8</ele>
        <time>2024-11-05T21:56:21.378Z</time>
      </trkpt>
      <trkpt lat="44.33462" lon="3.30023">
        <ele>779.53</ele>
        <time>2024-11-05T21:56:35.167Z</time>
      </trkpt>
      <trkpt lat="44.33459" lon="3.30046">
        <ele>779.27</ele>
        <time>2024-11-05T21:56:48.958Z</time>
      </trkpt>
      <trkpt lat="44.33458" lon="3.30071">
        <ele>778.99</ele>
        <time>2024-11-05T21:57:02.752Z</time>
      </trkpt>
      <trkpt lat="44.33458" lon="3.30076">
        <ele>778.75</ele>
        <time>2024-11-05T21:57:16.547Z</time>
      </trkpt>
      <trkpt lat="44.33461" lon="3.30096">
        <ele>778.5</ele>
        <time>2024-11-05T21:57:30.344Z</time>
      </trkpt>
      <trkpt lat="44.33466" lon="3.30139">
        <ele>778.24</ele>
        <time>2024-11-05T21:57:44.146Z</time>
      </trkpt>
      <trkpt lat="44.33468" lon="3.30151">
        <ele>778.02</ele>
        <time>2024-11-05T21:57:57.949Z</time>
      </trkpt>
      <trkpt lat="44.33473" lon="3.30189">
        <ele>777.87</ele>
        <time>2024-11-05T21:58:11.757Z</time>
      </trkpt>
      <trkpt lat="44.33473" lon="3.30195">
        <ele>777.68</ele>
        <time>2024-11-05T21:58:25.565Z</time>
      </trkpt>
      <trkpt lat="44.33473" lon="3.30207">
        <ele>777.48</ele>
        <time>2024-11-05T21:58:39.375Z</time>
      </trkpt>
      <trkpt lat="44.33473" lon="3.30226">
        <ele>777.3</ele>
        <time>2024-11-05T21:58:53.187Z</time>
      </trkpt>
      <trkpt lat="44.33473" lon="3.30249">
        <ele>777.11</ele>
        <time>2024-11-05T21:59:07.002Z</time>
      </trkpt>
      <trkpt lat="44.33472" lon="3.30257">
        <ele>776.96</ele>
        <time>2024-11-05T21:59:20.818Z</time>
      </trkpt>
      <trkpt lat="44.33468" lon="3.30294">
        <ele>776.79</ele>
        <time>2024-11-05T21:59:34.638Z</time>
      </trkpt>
      <trkpt lat="44.33467" lon="3.30313">
        <ele>776.63</ele>
        <time>2024-11-05T21:59:48.460Z</time>
      </trkpt>
      <trkpt lat="44.33464" lon="3.30338">
        <ele>776.48</ele>
        <time>2024-11-05T22:00:02.285Z</time>
      </trkpt>
      <trkpt lat="44.33463" lon="3.30344">
        <ele>776.36</ele>
        <time>2024-11-05T22:00:16.111Z</time>
      </trkpt>
      <trkpt lat="44.33461" lon="3.30356">
        <ele>776.25</ele>
        <time>2024-11-05T22:00:29.938Z</time>
      </trkpt>
      <trkpt lat="44.33459" lon="3.30368">
        <ele>776.15</ele>
        <time>2024-11-05T22:00:43.767Z</time>
      </trkpt>
      <trkpt lat="44.33452" lon="3.30405">
        <ele>776.04</ele>
        <time>2024-11-05T22:00:57.600Z</time>
      </trkpt>
      <trkpt lat="44.33451" lon="3.3041">
        <ele>775.94</ele>
        <time>2024-11-05T22:01:11.434Z</time>
      </trkpt>
      <trkpt lat="44.33445" lon="3.30435">
        <ele>775.84</ele>
        <time>2024-11-05T22:01:25.271Z</time>
      </trkpt>
      <trkpt lat="44.33442" lon="3.30446">
        <ele>775.77</ele>
        <time>2024-11-05T22:01:39.109Z</time>
      </trkpt>
      <trkpt lat="44.33441" lon="3.30452">
        <ele>775.72</ele>
        <time>2024-11-05T22:01:52.948Z</time>
      </trkpt>
      <trkpt lat="44.33435" lon="3.30476">
        <ele>775.68</ele>
        <time>2024-11-05T22:02:06.790Z</time>
      </trkpt>
      <trkpt lat="44.33433" lon="3.30488">
        <ele>775.66</ele>
        <time>2024-11-05T22:02:20.633Z</time>
      </trkpt>
      <trkpt lat="44.3343" lon="3.30499">
        <ele>775.64</ele>
        <time>2024-11-05T22:02:34.477Z</time>
      </trkpt>
      <trkpt lat="44.3343" lon="3.305">
        <ele>775.61</ele>
        <time>2024-11-05T22:02:48.321Z</time>
      </trkpt>
      <trkpt lat="44.33423" lon="3.30519">
        <ele>775.62</ele>
        <time>2024-11-05T22:03:02.168Z</time>
      </trkpt>
      <trkpt lat="44.33419" lon="3.30528">
        <ele>775.61</ele>
        <time>2024-11-05T22:03:16.016Z</time>
      </trkpt>
      <trkpt lat="44.33415" lon="3.30538">
        <ele>775.59</ele>
        <time>2024-11-05T22:03:29.865Z</time>
      </trkpt>
      <trkpt lat="44.33411" lon="3.30547">
        <ele>775.57</ele>
        <time>2024-11-05T22:03:43.716Z</time>
      </trkpt>
      <trkpt lat="44.33405" lon="3.30559">
        <ele>775.55</ele>
        <time>2024-11-05T22:03:57.568Z</time>
      </trkpt>
      <trkpt lat="44.33396" lon="3.30575">
        <ele>775.53</ele>
        <time>2024-11-05T22:04:11.423Z</time>
      </trkpt>
      <trkpt lat="44.33393" lon="3.30578">
        <ele>775.52</ele>
        <time>2024-11-05T22:04:25.278Z</time>
      </trkpt>
      <trkpt lat="44.33384" lon="3.3059">
        <ele>775.47</ele>
        <time>2024-11-05T22:04:39.135Z</time>
      </trkpt>
      <trkpt lat="44.33379" lon="3.30594">
        <ele>775.45</ele>
        <time>2024-11-05T22:04:52.993Z</time>
      </trkpt>
      <trkpt lat="44.33376" lon="3.30596">
        <ele>775.42</ele>
        <time>2024-11-05T22:05:06.852Z</time>
      </trkpt>
      <trkpt lat="44.33358" lon="3.30604">
        <ele>775.37</ele>
        <time>2024-11-05T22:05:20.714Z</time>
      </trkpt>
      <trkpt lat="44.33332" lon="3.30615">
        <ele>775.33</ele>
        <time>2024-11-05T22:05:34.580Z</time>
      </trkpt>
      <trkpt lat="44.33308" lon="3.30632">
        <ele>775.28</ele>
        <time>2024-11-05T22:05:48.450Z</time>
      </trkpt>
      <trkpt lat="44.33302" lon="3.30636">
        <ele>775.23</ele>
        <time>2024-11-05T22:06:02.321Z</time>
      </trkpt>
      <trkpt lat="44.33279" lon="3.30659">
        <ele>775.18</ele>
        <time>2024-11-05T22:06:16.197Z</time>
      </trkpt>
      <trkpt lat="44.33269" lon="3.30673">
        <ele>775.13</ele>
        <time>2024-11-05T22:06:30.075Z</time>
      </trkpt>
      <trkpt lat="44.33246" lon="3.30703">
        <ele>775.04</ele>
        <time>2024-11-05T22:06:43.958Z</time>
      </trkpt>
      <trkpt lat="44.33232" lon="3.3072">
        <ele>774.97</ele>
        <time>2024-11-05T22:06:57.844Z</time>
      </trkpt>
      <trkpt lat="44.33229" lon="3.30724">
        <ele>774.87</ele>
        <time>2024-11-05T22:07:11.731Z</time>
      </trkpt>
      <trkpt lat="44.33208" lon="3.30757">
        <ele>774.77</ele>
        <time>2024-11-05T22:07:25.623Z</time>
      </trkpt>
      <trkpt lat="44.33185" lon="3.30786">
        <ele>774.67</ele>
        <time>2024-11-05T22:07:39.520Z</time>
      </trkpt>
      <trkpt lat="44.33178" lon="3.30795">
        <ele>774.54</ele>
        <time>2024-11-05T22:07:53.418Z</time>
      </trkpt>
      <trkpt lat="44.33173" lon="3.30801">
        <ele>774.37</ele>
        <time>2024-11-05T22:08:07.318Z</time>
      </trkpt>
      <trkpt lat="44.33167" lon="3.30806">
        <ele>774.19</ele>
        <time>2024-11-05T22:08:21.219Z</time>
      </trkpt>
      <trkpt lat="44.33159" lon="3.30812">
        <ele>773.96</ele>
        <time>2024-11-05T22:08:35.121Z</time>
      </trkpt>
      <trkpt lat="44.3314" lon="3.30827">
        <ele>773.68</ele>
        <time>2024-11-05T22:08:49.027Z</time>
      </trkpt>
      <trkpt lat="44.33128" lon="3.30836">
        <ele>773.42</ele>
        <time>2024-11-05T22:09:02.935Z</time>
      </trkpt>
      <trkpt lat="44.3312" lon="3.30842">
        <ele>773.15</ele>
        <time>2024-11-05T22:09:16.844Z</time>
      </trkpt>
      <trkpt lat="44.331" lon="3.30858">
        <ele>772.78</ele>
        <time>2024-11-05T22:09:30.757Z</time>
      </trkpt>
      <trkpt lat="44.33093" lon="3.30865">
        <ele>772.46</ele>
        <time>2024-11-05T22:09:44.671Z</time>
      </trkpt>
      <trkpt lat="44.33086" lon="3.30873">
        <ele>772.09</ele>
        <time>2024-11-05T22:09:58.587Z</time>
      </trkpt>
      <trkpt lat="44.33075" lon="3.30886">
        <ele>771.67</ele>
        <time>2024-11-05T22:10:12.505Z</time>
      </trkpt>
      <trkpt lat="44.3307" lon="3.30895">
        <ele>771.25</ele>
        <time>2024-11-05T22:10:26.424Z</time>
      </trkpt>
      <trkpt lat="44.33065" lon="3.30905">
        <ele>770.79</ele>
        <time>2024-11-05T22:10:40.345Z</time>
      </trkpt>
      <trkpt lat="44.33059" lon="3.30915">
        <ele>770.29</ele>
        <time>2024-11-05T22:10:54.267Z</time>
      </trkpt>
      <trkpt lat="44.33053" lon="3.30932">
        <ele>769.78</ele>
        <time>2024-11-05T22:11:08.191Z</time>
      </trkpt>
      <trkpt lat="44.33041" lon="3.30965">
        <ele>769.2</ele>
        <time>2024-11-05T22:11:22.120Z</time>
      </trkpt>
      <trkpt lat="44.33033" lon="3.30988">
        <ele>768.58</ele>
        <time>2024-11-05T22:11:36.052Z</time>
      </trkpt>
      <trkpt lat="44.33022" lon="3.31022">
        <ele>767.87</ele>
        <time>2024-11-05T22:11:49.988Z</time>
      </trkpt>
      <trkpt lat="44.33012" lon="3.3105">
        <ele>767.26</ele>
        <time>2024-11-05T22:12:03.928Z</time>
      </trkpt>
      <trkpt lat="44.33" lon="3.31084">
        <ele>766.67</ele>
        <time>2024-11-05T22:12:17.872Z</time>
      </trkpt>
      <trkpt lat="44.32997" lon="3.31092">
        <ele>766.02</ele>
        <time>2024-11-05T22:12:31.817Z</time>
      </trkpt>
      <trkpt lat="44.32995" lon="3.31098">
        <ele>765.36</ele>
        <time>2024-11-05T22:12:45.763Z</time>
      </trkpt>
      <trkpt lat="44.32976" lon="3.31142">
        <ele>764.62</ele>
        <time>2024-11-05T22:12:59.715Z</time>
      </trkpt>
      <trkpt lat="44.32952" lon="3.31207">
        <ele>763.8</ele>
        <time>2024-11-05T22:13:13.675Z</time>
      </trkpt>
      <trkpt lat="44.32951" lon="3.3121">
        <ele>763.08</ele>
        <time>2024-11-05T22:13:27.635Z</time>
      </trkpt>
      <trkpt lat="44.32947" lon="3.31218">
        <ele>762.31</ele>
        <time>2024-11-05T22:13:41.596Z</time>
      </trkpt>
      <trkpt lat="44.32942" lon="3.31228">
        <ele>761.55</ele>
        <time>2024-11-05T22:13:55.559Z</time>
      </trkpt>
      <trkpt lat="44.3293" lon="3.31254">
        <ele>760.8</ele>
        <time>2024-11-05T22:14:09.525Z</time>
      </trkpt>
      <trkpt lat="44.32918" lon="3.3128">
        <ele>760.02</ele>
        <time>2024-11-05T22:14:23.495Z</time>
      </trkpt>
      <trkpt lat="44.32914" lon="3.31287">
        <ele>759.21</ele>
        <time>2024-11-05T22:14:37.466Z</time>
      </trkpt>
      <trkpt lat="44.32903" lon="3.31312">
        <ele>758.41</ele>
        <time>2024-11-05T22:14:51.440Z</time>
      </trkpt>
      <trkpt lat="44.32896" lon="3.31328">
        <ele>757.56</ele>
        <time>2024-11-05T22:15:05.416Z</time>
      </trkpt>
      <trkpt lat="44.32893" lon="3.31332">
        <ele>756.74</ele>
        <time>2024-11-05T22:15:19.393Z</time>
      </trkpt>
      <trkpt lat="44.32876" lon="3.31353">
        <ele>755.87</ele>
        <time>2024-11-05T22:15:33.374Z</time>
      </trkpt>
      <trkpt lat="44.32872" lon="3.31356">
        <ele>755</ele>
        <time>2024-11-05T22:15:47.355Z</time>
      </trkpt>
      <trkpt lat="44.3286" lon="3.31365">
        <ele>754.11</ele>
        <time>2024-11-05T22:16:01.339Z</time>
      </trkpt>
      <trkpt lat="44.32856" lon="3.31368">
        <ele>753.21</ele>
        <time>2024-11-05T22:16:15.323Z</time>
      </trkpt>
      <trkpt lat="44.32848" lon="3.31371">
        <ele>752.3</ele>
        <time>2024-11-05T22:16:29.309Z</time>
      </trkpt>
      <trkpt lat="44.32835" lon="3.31376">
        <ele>751.35</ele>
        <time>2024-11-05T22:16:43.297Z</time>
      </trkpt>
      <trkpt lat="44.32808" lon="3.31382">
        <ele>750.37</ele>
        <time>2024-11-05T22:16:57.289Z</time>
      </trkpt>
      <trkpt lat="44.32806" lon="3.31382">
        <ele>749.46</ele>
        <time>2024-11-05T22:17:11.282Z</time>
      </trkpt>
      <trkpt lat="44.32799" lon="3.31382">
        <ele>748.53</ele>
        <time>2024-11-05T22:17:25.276Z</time>
      </trkpt>
      <trkpt lat="44.32776" lon="3.31384">
        <ele>747.58</ele>
        <time>2024-11-05T22:17:39.273Z</time>
      </trkpt>
      <trkpt lat="44.32767" lon="3.31384">
        <ele>746.63</ele>
        <time>2024-11-05T22:17:53.272Z</time>
      </trkpt>
      <trkpt lat="44.32745" lon="3.31386">
        <ele>745.66</ele>
        <time>2024-11-05T22:18:07.274Z</time>
      </trkpt>
      <trkpt lat="44.32736" lon="3.31386">
        <ele>744.69</ele>
        <time>2024-11-05T22:18:21.278Z</time>
      </trkpt>
      <trkpt lat="44.32727" lon="3.31387">
        <ele>743.72</ele>
        <time>2024-11-05T22:18:35.283Z</time>
      </trkpt>
      <trkpt lat="44.32718" lon="3.31387">
        <ele>742.75</ele>
        <time>2024-11-05T22:18:49.290Z</time>
      </trkpt>
      <trkpt lat="44.32704" lon="3.31388">
        <ele>741.78</ele>
        <time>2024-11-05T22:19:03.299Z</time>
      </trkpt>
      <trkpt lat="44.32674" lon="3.3138">
        <ele>740.76</ele>
        <time>2024-11-05T22:19:17.313Z</time>
      </trkpt>
      <trkpt lat="44.32661" lon="3.31376">
        <ele>739.8</ele>
        <time>2024-11-05T22:19:31.329Z</time>
      </trkpt>
      <trkpt lat="44.32648" lon="3.31372">
        <ele>738.86</ele>
        <time>2024-11-05T22:19:45.347Z</time>
      </trkpt>
      <trkpt lat="44.32639" lon="3.3137">
        <ele>737.92</ele>
        <time>2024-11-05T22:19:59.367Z</time>
      </trkpt>
      <trkpt lat="44.32617" lon="3.31364">
        <ele>736.93</ele>
        <time>2024-11-05T22:20:13.390Z</time>
      </trkpt>
      <trkpt lat="44.3259" lon="3.31357">
        <ele>735.93</ele>
        <time>2024-11-05T22:20:27.417Z</time>
      </trkpt>
      <trkpt lat="44.32585" lon="3.31355">
        <ele>734.98</ele>
        <time>2024-11-05T22:20:41.445Z</time>
      </trkpt>
      <trkpt lat="44.32559" lon="3.31353">
        <ele>733.99</ele>
        <time>2024-11-05T22:20:55.477Z</time>
      </trkpt>
      <trkpt lat="44.32546" lon="3.31352">
        <ele>733.02</ele>
        <time>2024-11-05T22:21:09.512Z</time>
      </trkpt>
      <trkpt lat="44.32544" lon="3.31352">
        <ele>732.08</ele>
        <time>2024-11-05T22:21:23.547Z</time>
      </trkpt>
      <trkpt lat="44.32533" lon="3.31355">
        <ele>731.07</ele>
        <time>2024-11-05T22:21:37.584Z</time>
      </trkpt>
      <trkpt lat="44.32526" lon="3.31357">
        <ele>730.11</ele>
        <time>2024-11-05T22:21:51.622Z</time>
      </trkpt>
      <trkpt lat="44.32524" lon="3.31358">
        <ele>729.18</ele>
        <time>2024-11-05T22:22:05.660Z</time>
      </trkpt>
      <trkpt lat="44.32515" lon="3.31359">
        <ele>728.24</ele>
        <time>2024-11-05T22:22:19.700Z</time>
      </trkpt>
      <trkpt lat="44.32484" lon="3.31366">
        <ele>727.26</ele>
        <time>2024-11-05T22:22:33.745Z</time>
      </trkpt>
      <trkpt lat="44.32475" lon="3.31368">
        <ele>726.35</ele>
        <time>2024-11-05T22:22:47.791Z</time>
      </trkpt>
      <trkpt lat="44.32466" lon="3.3137">
        <ele>725.44</ele>
        <time>2024-11-05T22:23:01.839Z</time>
      </trkpt>
      <trkpt lat="44.32453" lon="3.31372">
        <ele>724.52</ele>
        <time>2024-11-05T22:23:15.889Z</time>
      </trkpt>
      <trkpt lat="44.32435" lon="3.31376">
        <ele>723.58</ele>
        <time>2024-11-05T22:23:29.942Z</time>
      </trkpt>
      <trkpt lat="44.32426" lon="3.31378">
        <ele>722.67</ele>
        <time>2024-11-05T22:23:43.996Z</time>
      </trkpt>
      <trkpt lat="44.32413" lon="3.31381">
        <ele>721.76</ele>
        <time>2024-11-05T22:23:58.052Z</time>
      </trkpt>
      <trkpt lat="44.32404" lon="3.31383">
        <ele>720.85</ele>
        <time>2024-11-05T22:24:12.110Z</time>
      </trkpt>
      <trkpt lat="44.32386" lon="3.31386">
        <ele>719.94</ele>
        <time>2024-11-05T22:24:26.170Z</time>
      </trkpt>
      <trkpt lat="44.32364" lon="3.31391">
        <ele>719.03</ele>
        <time>2024-11-05T22:24:40.234Z</time>
      </trkpt>
      <trkpt lat="44.32341" lon="3.31396">
        <ele>718.14</ele>
        <time>2024-11-05T22:24:54.302Z</time>
      </trkpt>
      <trkpt lat="44.32333" lon="3.31397">
        <ele>717.29</ele>
        <time>2024-11-05T22:25:08.371Z</time>
      </trkpt>
      <trkpt lat="44.32324" lon="3.31398">
        <ele>716.45</ele>
        <time>2024-11-05T22:25:22.441Z</time>
      </trkpt>
      <trkpt lat="44.32306" lon="3.314">
        <ele>715.62</ele>
        <time>2024-11-05T22:25:36.514Z</time>
      </trkpt>
      <trkpt lat="44.32275" lon="3.31404">
        <ele>714.76</ele>
        <time>2024-11-05T22:25:50.592Z</time>
      </trkpt>
      <trkpt lat="44.32262" lon="3.31406">
        <ele>713.93</ele>
        <time>2024-11-05T22:26:04.672Z</time>
      </trkpt>
      <trkpt lat="44.3226" lon="3.31406">
        <ele>713.13</ele>
        <time>2024-11-05T22:26:18.753Z</time>
      </trkpt>
      <trkpt lat="44.32232" lon="3.31418">
        <ele>712.27</ele>
        <time>2024-11-05T22:26:32.839Z</time>
      </trkpt>
      <trkpt lat="44.32219" lon="3.31423">
        <ele>711.47</ele>
        <time>2024-11-05T22:26:46.927Z</time>
      </trkpt>
      <trkpt lat="44.32212" lon="3.31426">
        <ele>710.68</ele>
        <time>2024-11-05T22:27:01.016Z</time>
      </trkpt>
      <trkpt lat="44.3221" lon="3.31427">
        <ele>709.91</ele>
        <time>2024-11-05T22:27:15.105Z</time>
      </trkpt>
      <trkpt lat="44.32202" lon="3.31432">
        <ele>709.12</ele>
        <time>2024-11-05T22:27:29.196Z</time>
      </trkpt>
      <trkpt lat="44.32189" lon="3.31439">
        <ele>708.32</ele>
        <time>2024-11-05T22:27:43.289Z</time>
      </trkpt>
      <trkpt lat="44.32183" lon="3.31442">
        <ele>707.54</ele>
        <time>2024-11-05T22:27:57.383Z</time>
      </trkpt>
      <trkpt lat="44.32181" lon="3.31442">
        <ele>706.79</ele>
        <time>2024-11-05T22:28:11.477Z</time>
      </trkpt>
      <trkpt lat="44.32172" lon="3.31443">
        <ele>706.01</ele>
        <time>2024-11-05T22:28:25.573Z</time>
      </trkpt>
      <trkpt lat="44.32163" lon="3.31439">
        <ele>705.21</ele>
        <time>2024-11-05T22:28:39.670Z</time>
      </trkpt>
      <trkpt lat="44.32159" lon="3.31436">
        <ele>704.48</ele>
        <time>2024-11-05T22:28:53.768Z</time>
      </trkpt>
      <trkpt lat="44.32155" lon="3.31432">
        <ele>703.75</ele>
        <time>2024-11-05T22:29:07.867Z</time>
      </trkpt>
      <trkpt lat="44.32149" lon="3.31424">
        <ele>703.02</ele>
        <time>2024-11-05T22:29:21.967Z</time>
      </trkpt>
      <trkpt lat="44.32143" lon="3.31415">
        <ele>702.3</ele>
        <time>2024-11-05T22:29:36.068Z</time>
      </trkpt>
      <trkpt lat="44.32133" lon="3.31401">
        <ele>701.59</ele>
        <time>2024-11-05T22:29:50.172Z</time>
      </trkpt>
      <trkpt lat="44.3213" lon="3.31398">
        <ele>700.88</ele>
        <time>2024-11-05T22:30:04.276Z</time>
      </trkpt>
      <trkpt lat="44.32123" lon="3.31392">
        <ele>700.16</ele>
        <time>2024-11-05T22:30:18.381Z</time>
      </trkpt>
      <trkpt lat="44.32114" lon="3.31388">
        <ele>699.43</ele>
        <time>2024-11-05T22:30:32.488Z</time>
      </trkpt>
      <trkpt lat="44.32096" lon="3.31392">
        <ele>698.65</ele>
        <time>2024-11-05T22:30:46.598Z</time>
      </trkpt>
      <trkpt lat="44.32088" lon="3.31397">
        <ele>697.9</ele>
        <time>2024-11-05T22:31:00.709Z</time>
      </trkpt>
      <trkpt lat="44.32071" lon="3.31407">
        <ele>697.18</ele>
        <time>2024-11-05T22:31:14.823Z</time>
      </trkpt>
      <trkpt lat="44.32057" lon="3.31415">
        <ele>696.42</ele>
        <time>2024-11-05T22:31:28.940Z</time>
      </trkpt>
      <trkpt lat="44.32037" lon="3.31424">
        <ele>695.71</ele>
        <time>2024-11-05T22:31:43.060Z</time>
      </trkpt>
      <trkpt lat="44.32016" lon="3.31434">
        <ele>694.96</ele>
        <time>2024-11-05T22:31:57.184Z</time>
      </trkpt>
      <trkpt lat="44.32007" lon="3.31438">
        <ele>694.22</ele>
        <time>2024-11-05T22:32:11.309Z</time>
      </trkpt>
      <trkpt lat="44.31999" lon="3.31442">
        <ele>693.49</ele>
        <time>2024-11-05T22:32:25.435Z</time>
      </trkpt>
      <trkpt lat="44.31978" lon="3.31451">
        <ele>692.76</ele>
        <time>2024-11-05T22:32:39.565Z</time>
      </trkpt>
      <trkpt lat="44.31965" lon="3.31457">
        <ele>692.04</ele>
        <time>2024-11-05T22:32:53.697Z</time>
      </trkpt>
      <trkpt lat="44.31956" lon="3.31461">
        <ele>691.31</ele>
        <time>2024-11-05T22:33:07.831Z</time>
      </trkpt>
      <trkpt lat="44.31943" lon="3.31467">
        <ele>690.52</ele>
        <time>2024-11-05T22:33:21.967Z</time>
      </trkpt>
      <trkpt lat="44.31921" lon="3.31477">
        <ele>689.73</ele>
        <time>2024-11-05T22:33:36.107Z</time>
      </trkpt>
      <trkpt lat="44.31918" lon="3.31477">
        <ele>688.96</ele>
        <time>2024-11-05T22:33:50.247Z</time>
      </trkpt>
      <trkpt lat="44.31895" lon="3.3148">
        <ele>688.2</ele>
        <time>2024-11-05T22:34:04.391Z</time>
      </trkpt>
      <trkpt lat="44.31886" lon="3.31481">
        <ele>687.37</ele>
        <time>2024-11-05T22:34:18.536Z</time>
      </trkpt>
      <trkpt lat="44.31851" lon="3.31485">
        <ele>686.49</ele>
        <time>2024-11-05T22:34:32.687Z</time>
      </trkpt>
      <trkpt lat="44.31837" lon="3.31487">
        <ele>685.65</ele>
        <time>2024-11-05T22:34:46.840Z</time>
      </trkpt>
      <trkpt lat="44.31828" lon="3.31488">
        <ele>684.83</ele>
        <time>2024-11-05T22:35:00.994Z</time>
      </trkpt>
      <trkpt lat="44.31812" lon="3.3149">
        <ele>683.97</ele>
        <time>2024-11-05T22:35:15.151Z</time>
      </trkpt>
      <trkpt lat="44.31811" lon="3.3149">
        <ele>683.15</ele>
        <time>2024-11-05T22:35:29.308Z</time>
      </trkpt>
      <trkpt lat="44.31784" lon="3.31491">
        <ele>682.24</ele>
        <time>2024-11-05T22:35:43.470Z</time>
      </trkpt>
      <trkpt lat="44.31766" lon="3.31492">
        <ele>681.34</ele>
        <time>2024-11-05T22:35:57.634Z</time>
      </trkpt>
      <trkpt lat="44.31751" lon="3.31495">
        <ele>680.49</ele>
        <time>2024-11-05T22:36:11.801Z</time>
      </trkpt>
      <trkpt lat="44.31735" lon="3.31501">
        <ele>679.63</ele>
        <time>2024-11-05T22:36:25.971Z</time>
      </trkpt>
      <trkpt lat="44.31726" lon="3.31504">
        <ele>678.76</ele>
        <time>2024-11-05T22:36:40.142Z</time>
      </trkpt>
      <trkpt lat="44.31705" lon="3.31512">
        <ele>677.84</ele>
        <time>2024-11-05T22:36:54.317Z</time>
      </trkpt>
      <trkpt lat="44.31679" lon="3.31521">
        <ele>676.92</ele>
        <time>2024-11-05T22:37:08.496Z</time>
      </trkpt>
      <trkpt lat="44.31657" lon="3.31529">
        <ele>676.02</ele>
        <time>2024-11-05T22:37:22.678Z</time>
      </trkpt>
      <trkpt lat="44.31654" lon="3.3153">
        <ele>675.11</ele>
        <time>2024-11-05T22:37:36.861Z</time>
      </trkpt>
      <trkpt lat="44.31611" lon="3.31543">
        <ele>674.18</ele>
        <time>2024-11-05T22:37:51.051Z</time>
      </trkpt>
      <trkpt lat="44.31595" lon="3.31547">
        <ele>673.23</ele>
        <time>2024-11-05T22:38:05.243Z</time>
      </trkpt>
      <trkpt lat="44.31587" lon="3.31549">
        <ele>672.26</ele>
        <time>2024-11-05T22:38:19.437Z</time>
      </trkpt>
      <trkpt lat="44.31584" lon="3.31549">
        <ele>671.29</ele>
        <time>2024-11-05T22:38:33.631Z</time>
      </trkpt>
      <trkpt lat="44.31558" lon="3.31566">
        <ele>670.29</ele>
        <time>2024-11-05T22:38:47.830Z</time>
      </trkpt>
      <trkpt lat="44.31549" lon="3.31571">
        <ele>669.27</ele>
        <time>2024-11-05T22:39:02.030Z</time>
      </trkpt>
      <trkpt lat="44.31542" lon="3.31578">
        <ele>668.22</ele>
        <time>2024-11-05T22:39:16.232Z</time>
      </trkpt>
      <trkpt lat="44.31535" lon="3.31585">
        <ele>667.18</ele>
        <time>2024-11-05T22:39:30.435Z</time>
      </trkpt>
      <trkpt lat="44.31529" lon="3.3159">
        <ele>666.14</ele>
        <time>2024-11-05T22:39:44.639Z</time>
      </trkpt>
      <trkpt lat="44.31514" lon="3.31593">
        <ele>665.01</ele>
        <time>2024-11-05T22:39:58.846Z</time>
      </trkpt>
      <trkpt lat="44.31503" lon="3.31595">
        <ele>663.91</ele>
        <time>2024-11-05T22:40:13.055Z</time>
      </trkpt>
      <trkpt lat="44.31478" lon="3.3159">
        <ele>662.73</ele>
        <time>2024-11-05T22:40:27.268Z</time>
      </trkpt>
      <trkpt lat="44.31452" lon="3.31585">
        <ele>661.6</ele>
        <time>2024-11-05T22:40:41.485Z</time>
      </trkpt>
      <trkpt lat="44.31436" lon="3.31571">
        <ele>660.47</ele>
        <time>2024-11-05T22:40:55.705Z</time>
      </trkpt>
      <trkpt lat="44.31433" lon="3.31568">
        <ele>659.38</ele>
        <time>2024-11-05T22:41:09.925Z</time>
      </trkpt>
      <trkpt lat="44.31426" lon="3.31544">
        <ele>658.21</ele>
        <time>2024-11-05T22:41:24.148Z</time>
      </trkpt>
      <trkpt lat="44.31422" lon="3.31533">
        <ele>657.06</ele>
        <time>2024-11-05T22:41:38.373Z</time>
      </trkpt>
      <trkpt lat="44.31419" lon="3.31521">
        <ele>655.93</ele>
        <time>2024-11-05T22:41:52.599Z</time>
      </trkpt>
      <trkpt lat="44.31418" lon="3.31518">
        <ele>654.81</ele>
        <time>2024-11-05T22:42:06.826Z</time>
      </trkpt>
      <trkpt lat="44.31415" lon="3.3151">
        <ele>653.66</ele>
        <time>2024-11-05T22:42:21.054Z</time>
      </trkpt>
      <trkpt lat="44.31413" lon="3.31505">
        <ele>652.53</ele>
        <time>2024-11-05T22:42:35.282Z</time>
      </trkpt>
      <trkpt lat="44.31408" lon="3.31494">
        <ele>651.35</ele>
        <time>2024-11-05T22:42:49.512Z</time>
      </trkpt>
      <trkpt lat="44.31407" lon="3.31491">
        <ele>650.22</ele>
        <time>2024-11-05T22:43:03.742Z</time>
      </trkpt>
      <trkpt lat="44.31401" lon="3.31488">
        <ele>649.05</ele>
        <time>2024-11-05T22:43:17.973Z</time>
      </trkpt>
      <trkpt lat="44.31397" lon="3.31485">
        <ele>647.89</ele>
        <time>2024-11-05T22:43:32.205Z</time>
      </trkpt>
      <trkpt lat="44.31392" lon="3.31483">
        <ele>646.73</ele>
        <time>2024-11-05T22:43:46.438Z</time>
      </trkpt>
      <trkpt lat="44.31375" lon="3.31489">
        <ele>645.53</ele>
        <time>2024-11-05T22:44:00.674Z</time>
      </trkpt>
      <trkpt lat="44.31374" lon="3.31489">
        <ele>644.39</ele>
        <time>2024-11-05T22:44:14.910Z</time>
      </trkpt>
      <trkpt lat="44.31361" lon="3.31506">
        <ele>643.25</ele>
        <time>2024-11-05T22:44:29.149Z</time>
      </trkpt>
      <trkpt lat="44.31359" lon="3.3151">
        <ele>642.11</ele>
        <time>2024-11-05T22:44:43.388Z</time>
      </trkpt>
      <trkpt lat="44.31353" lon="3.31527">
        <ele>640.97</ele>
        <time>2024-11-05T22:44:57.629Z</time>
      </trkpt>
      <trkpt lat="44.31348" lon="3.31537">
        <ele>639.86</ele>
        <time>2024-11-05T22:45:11.872Z</time>
      </trkpt>
      <trkpt lat="44.31344" lon="3.31548">
        <ele>638.75</ele>
        <time>2024-11-05T22:45:26.116Z</time>
      </trkpt>
      <trkpt lat="44.3134" lon="3.31559">
        <ele>637.65</ele>
        <time>2024-11-05T22:45:40.362Z</time>
      </trkpt>
      <trkpt lat="44.31338" lon="3.31563">
        <ele>636.52</ele>
        <time>2024-11-05T22:45:54.608Z</time>
      </trkpt>
      <trkpt lat="44.31329" lon="3.31569">
        <ele>635.35</ele>
        <time>2024-11-05T22:46:08.856Z</time>
      </trkpt>
      <trkpt lat="44.31322" lon="3.31574">
        <ele>634.18</ele>
        <time>2024-11-05T22:46:23.105Z</time>
      </trkpt>
      <trkpt lat="44.31299" lon="3.31578">
        <ele>632.9</ele>
        <time>2024-11-05T22:46:37.358Z</time>
      </trkpt>
      <trkpt lat="44.31295" lon="3.31577">
        <ele>631.71</ele>
        <time>2024-11-05T22:46:51.611Z</time>
      </trkpt>
      <trkpt lat="44.31265" lon="3.31566">
        <ele>630.28</ele>
        <time>2024-11-05T22:47:05.869Z</time>
      </trkpt>
      <trkpt lat="44.31252" lon="3.31561">
        <ele>629.05</ele>
        <time>2024-11-05T22:47:20.129Z</time>
      </trkpt>
      <trkpt lat="44.31244" lon="3.31558">
        <ele>627.85</ele>
        <time>2024-11-05T22:47:34.391Z</time>
      </trkpt>
      <trkpt lat="44.31242" lon="3.31557">
        <ele>626.71</ele>
        <time>2024-11-05T22:47:48.653Z</time>
      </trkpt>
      <trkpt lat="44.31235" lon="3.31557">
        <ele>625.55</ele>
        <time>2024-11-05T22:48:02.916Z</time>
      </trkpt>
      <trkpt lat="44.3123" lon="3.31557">
        <ele>624.41</ele>
        <time>2024-11-05T22:48:17.180Z</time>
      </trkpt>
      <trkpt lat="44.31216" lon="3.31562">
        <ele>623.19</ele>
        <time>2024-11-05T22:48:31.446Z</time>
      </trkpt>
      <trkpt lat="44.31203" lon="3.31578">
        <ele>622</ele>
        <time>2024-11-05T22:48:45.715Z</time>
      </trkpt>
      <trkpt lat="44.31202" lon="3.31582">
        <ele>620.95</ele>
        <time>2024-11-05T22:48:59.985Z</time>
      </trkpt>
      <trkpt lat="44.31198" lon="3.31593">
        <ele>619.92</ele>
        <time>2024-11-05T22:49:14.256Z</time>
      </trkpt>
      <trkpt lat="44.31197" lon="3.31596">
        <ele>618.89</ele>
        <time>2024-11-05T22:49:28.527Z</time>
      </trkpt>
      <trkpt lat="44.31193" lon="3.31617">
        <ele>617.92</ele>
        <time>2024-11-05T22:49:42.801Z</time>
      </trkpt>
      <trkpt lat="44.31187" lon="3.31647">
        <ele>617.06</ele>
        <time>2024-11-05T22:49:57.078Z</time>
      </trkpt>
      <trkpt lat="44.31185" lon="3.31655">
        <ele>616.15</ele>
        <time>2024-11-05T22:50:11.356Z</time>
      </trkpt>
      <trkpt lat="44.31174" lon="3.31681">
        <ele>615.22</ele>
        <time>2024-11-05T22:50:25.638Z</time>
      </trkpt>
      <trkpt lat="44.31171" lon="3.31683">
        <ele>614.28</ele>
        <time>2024-11-05T22:50:39.920Z</time>
      </trkpt>
      <trkpt lat="44.31159" lon="3.31691">
        <ele>613.28</ele>
        <time>2024-11-05T22:50:54.205Z</time>
      </trkpt>
      <trkpt lat="44.31155" lon="3.31693">
        <ele>612.41</ele>
        <time>2024-11-05T22:51:08.490Z</time>
      </trkpt>
      <trkpt lat="44.31137" lon="3.31697">
        <ele>611.44</ele>
        <time>2024-11-05T22:51:22.778Z</time>
      </trkpt>
      <trkpt lat="44.31129" lon="3.31698">
        <ele>610.62</ele>
        <time>2024-11-05T22:51:37.067Z</time>
      </trkpt>
      <trkpt lat="44.3112" lon="3.317">
        <ele>609.85</ele>
        <time>2024-11-05T22:51:51.358Z</time>
      </trkpt>
      <trkpt lat="44.3112" lon="3.317">
        <ele>609.1</ele>
        <time>2024-11-05T22:52:05.649Z</time>
      </trkpt>
      <trkpt lat="44.31107" lon="3.31697">
        <ele>608.3</ele>
        <time>2024-11-05T22:52:19.942Z</time>
      </trkpt>
      <trkpt lat="44.31098" lon="3.31694">
        <ele>607.58</ele>
        <time>2024-11-05T22:52:34.236Z</time>
      </trkpt>
      <trkpt lat="44.31067" lon="3.31686">
        <ele>606.77</ele>
        <time>2024-11-05T22:52:48.535Z</time>
      </trkpt>
      <trkpt lat="44.31066" lon="3.31686">
        <ele>606.12</ele>
        <time>2024-11-05T22:53:02.835Z</time>
      </trkpt>
      <trkpt lat="44.31053" lon="3.31687">
        <ele>605.41</ele>
        <time>2024-11-05T22:53:17.137Z</time>
      </trkpt>
      <trkpt lat="44.31042" lon="3.31695">
        <ele>604.78</ele>
        <time>2024-11-05T22:53:31.441Z</time>
      </trkpt>
      <trkpt lat="44.31041" lon="3.31695">
        <ele>604.23</ele>
        <time>2024-11-05T22:53:45.745Z</time>
      </trkpt>
      <trkpt lat="44.31033" lon="3.31696">
        <ele>603.65</ele>
        <time>2024-11-05T22:54:00.050Z</time>
      </trkpt>
      <trkpt lat="44.3103" lon="3.31697">
        <ele>603.14</ele>
        <time>2024-11-05T22:54:14.356Z</time>
      </trkpt>
      <trkpt lat="44.31027" lon="3.3169">
        <ele>602.58</ele>
        <time>2024-11-05T22:54:28.663Z</time>
      </trkpt>
      <trkpt lat="44.31028" lon="3.31681">
        <ele>602.14</ele>
        <time>2024-11-05T22:54:42.971Z</time>
      </trkpt>
      <trkpt lat="44.31036" lon="3.31675">
        <ele>601.81</ele>
        <time>2024-11-05T22:54:57.280Z</time>
      </trkpt>
      <trkpt lat="44.31051" lon="3.31672">
        <ele>601.53</ele>
        <time>2024-11-05T22:55:11.592Z</time>
      </trkpt>
      <trkpt lat="44.3106" lon="3.3167">
        <ele>601.23</ele>
        <time>2024-11-05T22:55:25.905Z</time>
      </trkpt>
      <trkpt lat="44.31065" lon="3.31669">
        <ele>600.9</ele>
        <time>2024-11-05T22:55:40.219Z</time>
      </trkpt>
      <trkpt lat="44.31069" lon="3.31668">
        <ele>600.59</ele>
        <time>2024-11-05T22:55:54.533Z</time>
      </trkpt>
      <trkpt lat="44.31073" lon="3.31667">
        <ele>600.29</ele>
        <time>2024-11-05T22:56:08.848Z</time>
      </trkpt>
      <trkpt lat="44.31078" lon="3.31666">
        <ele>600</ele>
        <time>2024-11-05T22:56:23.164Z</time>
      </trkpt>
      <trkpt lat="44.31082" lon="3.31665">
        <ele>599.71</ele>
        <time>2024-11-05T22:56:37.481Z</time>
      </trkpt>
      <trkpt lat="44.31088" lon="3.31664">
        <ele>599.44</ele>
        <time>2024-11-05T22:56:51.799Z</time>
      </trkpt>
      <trkpt lat="44.31095" lon="3.31665">
        <ele>599.2</ele>
        <time>2024-11-05T22:57:06.118Z</time>
      </trkpt>
      <trkpt lat="44.311" lon="3.31666">
        <ele>598.94</ele>
        <time>2024-11-05T22:57:20.437Z</time>
      </trkpt>
      <trkpt lat="44.31104" lon="3.31667">
        <ele>598.69</ele>
        <time>2024-11-05T22:57:34.757Z</time>
      </trkpt>
      <trkpt lat="44.31105" lon="3.31667">
        <ele>598.43</ele>
        <time>2024-11-05T22:57:49.077Z</time>
      </trkpt>
      <trkpt lat="44.31107" lon="3.31663">
        <ele>598.13</ele>
        <time>2024-11-05T22:58:03.398Z</time>
      </trkpt>
      <trkpt lat="44.31109" lon="3.31658">
        <ele>597.84</ele>
        <time>2024-11-05T22:58:17.720Z</time>
      </trkpt>
      <trkpt lat="44.3111" lon="3.31656">
        <ele>597.55</ele>
        <time>2024-11-05T22:58:32.042Z</time>
      </trkpt>
      <trkpt lat="44.31108" lon="3.31653">
        <ele>597.23</ele>
        <time>2024-11-05T22:58:46.364Z</time>
      </trkpt>
      <trkpt lat="44.31106" lon="3.3165">
        <ele>596.91</ele>
        <time>2024-11-05T22:59:00.687Z</time>
      </trkpt>
      <trkpt lat="44.31104" lon="3.3165">
        <ele>596.58</ele>
        <time>2024-11-05T22:59:15.010Z</time>
      </trkpt>
      <trkpt lat="44.31082" lon="3.31646">
        <ele>596.2</ele>
        <time>2024-11-05T22:59:29.337Z</time>
      </trkpt>
      <trkpt lat="44.31074" lon="3.31644">
        <ele>595.81</ele>
        <time>2024-11-05T22:59:43.665Z</time>
      </trkpt>
      <trkpt lat="44.31074" lon="3.31644">
        <ele>595.43</ele>
        <time>2024-11-05T22:59:57.993Z</time>
      </trkpt>
      <trkpt lat="44.3106" lon="3.31644">
        <ele>594.98</ele>
        <time>2024-11-05T23:00:12.323Z</time>
      </trkpt>
      <trkpt lat="44.31042" lon="3.31645">
        <ele>594.5</ele>
        <time>2024-11-05T23:00:26.656Z</time>
      </trkpt>
      <trkpt lat="44.31033" lon="3.31645">
        <ele>594.03</ele>
        <time>2024-11-05T23:00:40.990Z</time>
      </trkpt>
      <trkpt lat="44.31011" lon="3.31646">
        <ele>593.49</ele>
        <time>2024-11-05T23:00:55.328Z</time>
      </trkpt>
      <trkpt lat="44.31002" lon="3.31646">
        <ele>593</ele>
        <time>2024-11-05T23:01:09.667Z</time>
      </trkpt>
      <trkpt lat="44.30999" lon="3.31646">
        <ele>592.49</ele>
        <time>2024-11-05T23:01:24.007Z</time>
      </trkpt>
      <trkpt lat="44.30998" lon="3.31647">
        <ele>591.97</ele>
        <time>2024-11-05T23:01:38.347Z</time>
      </trkpt>
      <trkpt lat="44.30993" lon="3.31648">
        <ele>591.42</ele>
        <time>2024-11-05T23:01:52.688Z</time>
      </trkpt>
      <trkpt lat="44.30988" lon="3.3165">
        <ele>590.88</ele>
        <time>2024-11-05T23:02:07.030Z</time>
      </trkpt>
      <trkpt lat="44.30982" lon="3.31659">
        <ele>590.25</ele>
        <time>2024-11-05T23:02:21.373Z</time>
      </trkpt>
      <trkpt lat="44.30978" lon="3.31673">
        <ele>589.64</ele>
        <time>2024-11-05T23:02:35.718Z</time>
      </trkpt>
      <trkpt lat="44.30978" lon="3.31676">
        <ele>589</ele>
        <time>2024-11-05T23:02:50.063Z</time>
      </trkpt>
      <trkpt lat="44.30978" lon="3.31688">
        <ele>588.28</ele>
        <time>2024-11-05T23:03:04.410Z</time>
      </trkpt>
      <trkpt lat="44.30978" lon="3.31701">
        <ele>587.63</ele>
        <time>2024-11-05T23:03:18.758Z</time>
      </trkpt>
      <trkpt lat="44.30978" lon="3.31717">
        <ele>586.92</ele>
        <time>2024-11-05T23:03:33.108Z</time>
      </trkpt>
      <trkpt lat="44.30977" lon="3.31719">
        <ele>586.2</ele>
        <time>2024-11-05T23:03:47.458Z</time>
      </trkpt>
      <trkpt lat="44.30974" lon="3.31728">
        <ele>585.45</ele>
        <time>2024-11-05T23:04:01.809Z</time>
      </trkpt>
      <trkpt lat="44.3097" lon="3.31735">
        <ele>584.63</ele>
        <time>2024-11-05T23:04:16.161Z</time>
      </trkpt>
      <trkpt lat="44.30953" lon="3.31764">
        <ele>583.79</ele>
        <time>2024-11-05T23:04:30.518Z</time>
      </trkpt>
      <trkpt lat="44.30947" lon="3.31774">
        <ele>582.93</ele>
        <time>2024-11-05T23:04:44.876Z</time>
      </trkpt>
      <trkpt lat="44.30945" lon="3.31777">
        <ele>582.08</ele>
        <time>2024-11-05T23:04:59.235Z</time>
      </trkpt>
      <trkpt lat="44.30945" lon="3.31779">
        <ele>581.21</ele>
        <time>2024-11-05T23:05:13.594Z</time>
      </trkpt>
      <trkpt lat="44.30944" lon="3.31791">
        <ele>580.29</ele>
        <time>2024-11-05T23:05:27.954Z</time>
      </trkpt>
      <trkpt lat="44.30944" lon="3.31792">
        <ele>579.36</ele>
        <time>2024-11-05T23:05:42.314Z</time>
      </trkpt>
      <trkpt lat="44.30946" lon="3.31804">
        <ele>578.42</ele>
        <time>2024-11-05T23:05:56.676Z</time>
      </trkpt>
      <trkpt lat="44.30947" lon="3.31816">
        <ele>577.46</ele>
        <time>2024-11-05T23:06:11.039Z</time>
      </trkpt>
      <trkpt lat="44.30949" lon="3.31828">
        <ele>576.45</ele>
        <time>2024-11-05T23:06:25.404Z</time>
      </trkpt>
      <trkpt lat="44.30947" lon="3.31847">
        <ele>575.41</ele>
        <time>2024-11-05T23:06:39.771Z</time>
      </trkpt>
      <trkpt lat="44.30947" lon="3.31851">
        <ele>574.35</ele>
        <time>2024-11-05T23:06:54.138Z</time>
      </trkpt>
      <trkpt lat="44.30944" lon="3.31859">
        <ele>573.25</ele>
        <time>2024-11-05T23:07:08.506Z</time>
      </trkpt>
      <trkpt lat="44.30939" lon="3.31876">
        <ele>572.09</ele>
        <time>2024-11-05T23:07:22.876Z</time>
      </trkpt>
      <trkpt lat="44.30932" lon="3.31895">
        <ele>570.94</ele>
        <time>2024-11-05T23:07:37.249Z</time>
      </trkpt>
      <trkpt lat="44.30922" lon="3.31913">
        <ele>569.71</ele>
        <time>2024-11-05T23:07:51.624Z</time>
      </trkpt>
      <trkpt lat="44.30918" lon="3.31919">
        <ele>568.61</ele>
        <time>2024-11-05T23:08:06.000Z</time>
      </trkpt>
      <trkpt lat="44.30904" lon="3.31931">
        <ele>567.46</ele>
        <time>2024-11-05T23:08:20.379Z</time>
      </trkpt>
      <trkpt lat="44.30899" lon="3.31932">
        <ele>566.26</ele>
        <time>2024-11-05T23:08:34.759Z</time>
      </trkpt>
      <trkpt lat="44.3089" lon="3.31934">
        <ele>565.01</ele>
        <time>2024-11-05T23:08:49.140Z</time>
      </trkpt>
      <trkpt lat="44.30889" lon="3.31934">
        <ele>563.81</ele>
        <time>2024-11-05T23:09:03.521Z</time>
      </trkpt>
      <trkpt lat="44.30881" lon="3.31934">
        <ele>562.55</ele>
        <time>2024-11-05T23:09:17.904Z</time>
      </trkpt>
      <trkpt lat="44.3085" lon="3.31935">
        <ele>561.16</ele>
        <time>2024-11-05T23:09:32.292Z</time>
      </trkpt>
      <trkpt lat="44.30849" lon="3.31935">
        <ele>559.95</ele>
        <time>2024-11-05T23:09:46.680Z</time>
      </trkpt>
      <trkpt lat="44.30837" lon="3.3193">
        <ele>558.68</ele>
        <time>2024-11-05T23:10:01.070Z</time>
      </trkpt>
      <trkpt lat="44.30832" lon="3.31928">
        <ele>557.43</ele>
        <time>2024-11-05T23:10:15.461Z</time>
      </trkpt>
      <trkpt lat="44.3082" lon="3.31914">
        <ele>556.1</ele>
        <time>2024-11-05T23:10:29.854Z</time>
      </trkpt>
      <trkpt lat="44.30819" lon="3.31912">
        <ele>554.87</ele>
        <time>2024-11-05T23:10:44.247Z</time>
      </trkpt>
      <trkpt lat="44.30806" lon="3.31892">
        <ele>553.58</ele>
        <time>2024-11-05T23:10:58.644Z</time>
      </trkpt>
      <trkpt lat="44.30803" lon="3.31891">
        <ele>552.36</ele>
        <time>2024-11-05T23:11:13.041Z</time>
      </trkpt>
      <trkpt lat="44.30785" lon="3.31887">
        <ele>550.99</ele>
        <time>2024-11-05T23:11:27.441Z</time>
      </trkpt>
      <trkpt lat="44.30779" lon="3.31885">
        <ele>549.72</ele>
        <time>2024-11-05T23:11:41.842Z</time>
      </trkpt>
      <trkpt lat="44.30777" lon="3.31885">
        <ele>548.51</ele>
        <time>2024-11-05T23:11:56.243Z</time>
      </trkpt>
      <trkpt lat="44.30768" lon="3.31884">
        <ele>547.29</ele>
        <time>2024-11-05T23:12:10.646Z</time>
      </trkpt>
      <trkpt lat="44.30753" lon="3.31883">
        <ele>546.14</ele>
        <time>2024-11-05T23:12:25.051Z</time>
      </trkpt>
      <trkpt lat="44.30741" lon="3.31888">
        <ele>544.98</ele>
        <time>2024-11-05T23:12:39.458Z</time>
      </trkpt>
      <trkpt lat="44.30737" lon="3.31889">
        <ele>543.82</ele>
        <time>2024-11-05T23:12:53.866Z</time>
      </trkpt>
      <trkpt lat="44.30728" lon="3.31893">
        <ele>542.66</ele>
        <time>2024-11-05T23:13:08.275Z</time>
      </trkpt>
      <trkpt lat="44.30724" lon="3.31895">
        <ele>541.51</ele>
        <time>2024-11-05T23:13:22.685Z</time>
      </trkpt>
      <trkpt lat="44.3072" lon="3.31896">
        <ele>540.37</ele>
        <time>2024-11-05T23:13:37.096Z</time>
      </trkpt>
      <trkpt lat="44.30719" lon="3.31896">
        <ele>539.26</ele>
        <time>2024-11-05T23:13:51.507Z</time>
      </trkpt>
      <trkpt lat="44.30715" lon="3.31897">
        <ele>538.14</ele>
        <time>2024-11-05T23:14:05.918Z</time>
      </trkpt>
      <trkpt lat="44.30706" lon="3.31898">
        <ele>537.02</ele>
        <time>2024-11-05T23:14:20.331Z</time>
      </trkpt>
      <trkpt lat="44.30693" lon="3.31901">
        <ele>535.87</ele>
        <time>2024-11-05T23:14:34.746Z</time>
      </trkpt>
      <trkpt lat="44.30685" lon="3.31902">
        <ele>534.75</ele>
        <time>2024-11-05T23:14:49.162Z</time>
      </trkpt>
      <trkpt lat="44.3067" lon="3.31911">
        <ele>533.53</ele>
        <time>2024-11-05T23:15:03.581Z</time>
      </trkpt>
      <trkpt lat="44.30667" lon="3.31911">
        <ele>532.45</ele>
        <time>2024-11-05T23:15:18.000Z</time>
      </trkpt>
      <trkpt lat="44.30661" lon="3.31911">
        <ele>531.35</ele>
        <time>2024-11-05T23:15:32.420Z</time>
      </trkpt>
      <trkpt lat="44.30658" lon="3.3191">
        <ele>530.29</ele>
        <time>2024-11-05T23:15:46.841Z</time>
      </trkpt>
      <trkpt lat="44.30654" lon="3.31908">
        <ele>529.23</ele>
        <time>2024-11-05T23:16:01.262Z</time>
      </trkpt>
      <trkpt lat="44.3065" lon="3.31905">
        <ele>528.18</ele>
        <time>2024-11-05T23:16:15.684Z</time>
      </trkpt>
      <trkpt lat="44.30641" lon="3.31901">
        <ele>527.11</ele>
        <time>2024-11-05T23:16:30.108Z</time>
      </trkpt>
      <trkpt lat="44.30637" lon="3.31902">
        <ele>526.03</ele>
        <time>2024-11-05T23:16:44.532Z</time>
      </trkpt>
      <trkpt lat="44.30633" lon="3.31903">
        <ele>524.95</ele>
        <time>2024-11-05T23:16:58.957Z</time>
      </trkpt>
      <trkpt lat="44.30629" lon="3.31907">
        <ele>523.88</ele>
        <time>2024-11-05T23:17:13.383Z</time>
      </trkpt>
      <trkpt lat="44.30625" lon="3.31912">
        <ele>522.79</ele>
        <time>2024-11-05T23:17:27.810Z</time>
      </trkpt>
      <trkpt lat="44.30622" lon="3.31921">
        <ele>521.72</ele>
        <time>2024-11-05T23:17:42.238Z</time>
      </trkpt>
      <trkpt lat="44.30621" lon="3.3193">
        <ele>520.62</ele>
        <time>2024-11-05T23:17:56.667Z</time>
      </trkpt>
      <trkpt lat="44.30624" lon="3.31941">
        <ele>519.49</ele>
        <time>2024-11-05T23:18:11.097Z</time>
      </trkpt>
      <trkpt lat="44.30625" lon="3.31947">
        <ele>518.41</ele>
        <time>2024-11-05T23:18:25.528Z</time>
      </trkpt>
      <trkpt lat="44.30627" lon="3.31953">
        <ele>517.32</ele>
        <time>2024-11-05T23:18:39.960Z</time>
      </trkpt>
      <trkpt lat="44.30626" lon="3.31959">
        <ele>516.22</ele>
        <time>2024-11-05T23:18:54.392Z</time>
      </trkpt>
      <trkpt lat="44.30626" lon="3.31961">
        <ele>515.08</ele>
        <time>2024-11-05T23:19:08.825Z</time>
      </trkpt>
      <trkpt lat="44.30624" lon="3.31964">
        <ele>513.92</ele>
        <time>2024-11-05T23:19:23.258Z</time>
      </trkpt>
      <trkpt lat="44.30621" lon="3.31968">
        <ele>512.74</ele>
        <time>2024-11-05T23:19:37.692Z</time>
      </trkpt>
      <trkpt lat="44.30613" lon="3.31974">
        <ele>511.54</ele>
        <time>2024-11-05T23:19:52.127Z</time>
      </trkpt>
      <trkpt lat="44.30607" lon="3.31978">
        <ele>510.29</ele>
        <time>2024-11-05T23:20:06.563Z</time>
      </trkpt>
      <trkpt lat="44.30605" lon="3.3198">
        <ele>509.06</ele>
        <time>2024-11-05T23:20:21.000Z</time>
      </trkpt>
      <trkpt lat="44.30599" lon="3.3199">
        <ele>507.79</ele>
        <time>2024-11-05T23:20:35.438Z</time>
      </trkpt>
      <trkpt lat="44.30594" lon="3.31998">
        <ele>506.47</ele>
        <time>2024-11-05T23:20:49.877Z</time>
      </trkpt>
      <trkpt lat="44.30593" lon="3.31999">
        <ele>505.18</ele>
        <time>2024-11-05T23:21:04.316Z</time>
      </trkpt>
      <trkpt lat="44.30585" lon="3.32004">
        <ele>503.82</ele>
        <time>2024-11-05T23:21:18.757Z</time>
      </trkpt>
      <trkpt lat="44.30581" lon="3.32006">
        <ele>502.46</ele>
        <time>2024-11-05T23:21:33.199Z</time>
      </trkpt>
      <trkpt lat="44.30576" lon="3.32008">
        <ele>501.07</ele>
        <time>2024-11-05T23:21:47.641Z</time>
      </trkpt>
      <trkpt lat="44.30572" lon="3.3201">
        <ele>499.66</ele>
        <time>2024-11-05T23:22:02.084Z</time>
      </trkpt>
      <trkpt lat="44.30564" lon="3.32013">
        <ele>498.18</ele>
        <time>2024-11-05T23:22:16.528Z</time>
      </trkpt>
      <trkpt lat="44.30559" lon="3.32015">
        <ele>496.75</ele>
        <time>2024-11-05T23:22:30.973Z</time>
      </trkpt>
      <trkpt lat="44.30549" lon="3.32017">
        <ele>495.25</ele>
        <time>2024-11-05T23:22:45.420Z</time>
      </trkpt>
      <trkpt lat="44.30537" lon="3.32017">
        <ele>493.76</ele>
        <time>2024-11-05T23:22:59.869Z</time>
      </trkpt>
      <trkpt lat="44.30503" lon="3.32016">
        <ele>492.19</ele>
        <time>2024-11-05T23:23:14.323Z</time>
      </trkpt>
      <trkpt lat="44.30501" lon="3.32017">
        <ele>490.75</ele>
        <time>2024-11-05T23:23:28.778Z</time>
      </trkpt>
      <trkpt lat="44.3049" lon="3.32021">
        <ele>489.28</ele>
        <time>2024-11-05T23:23:43.234Z</time>
      </trkpt>
      <trkpt lat="44.30478" lon="3.32025">
        <ele>487.79</ele>
        <time>2024-11-05T23:23:57.692Z</time>
      </trkpt>
      <trkpt lat="44.30448" lon="3.32035">
        <ele>486.22</ele>
        <time>2024-11-05T23:24:12.155Z</time>
      </trkpt>
      <trkpt lat="44.30441" lon="3.32038">
        <ele>484.75</ele>
        <time>2024-11-05T23:24:26.619Z</time>
      </trkpt>
      <trkpt lat="44.30426" lon="3.32038">
        <ele>483.24</ele>
        <time>2024-11-05T23:24:41.086Z</time>
      </trkpt>
      <trkpt lat="44.30421" lon="3.32038">
        <ele>481.78</ele>
        <time>2024-11-05T23:24:55.554Z</time>
      </trkpt>
      <trkpt lat="44.30414" lon="3.32039">
        <ele>480.32</ele>
        <time>2024-11-05T23:25:10.023Z</time>
      </trkpt>
      <trkpt lat="44.30411" lon="3.32039">
        <ele>478.88</ele>
        <time>2024-11-05T23:25:24.492Z</time>
      </trkpt>
      <trkpt lat="44.30406" lon="3.32035">
        <ele>477.41</ele>
        <time>2024-11-05T23:25:38.962Z</time>
      </trkpt>
      <trkpt lat="44.30393" lon="3.32027">
        <ele>475.91</ele>
        <time>2024-11-05T23:25:53.434Z</time>
      </trkpt>
      <trkpt lat="44.30379" lon="3.32014">
        <ele>474.41</ele>
        <time>2024-11-05T23:26:07.909Z</time>
      </trkpt>
      <trkpt lat="44.30368" lon="3.32003">
        <ele>472.96</ele>
        <time>2024-11-05T23:26:22.386Z</time>
      </trkpt>
      <trkpt lat="44.30348" lon="3.31991">
        <ele>471.55</ele>
        <time>2024-11-05T23:26:36.867Z</time>
      </trkpt>
      <trkpt lat="44.30335" lon="3.31983">
        <ele>470.19</ele>
        <time>2024-11-05T23:26:51.350Z</time>
      </trkpt>
      <trkpt lat="44.30332" lon="3.31982">
        <ele>468.86</ele>
        <time>2024-11-05T23:27:05.834Z</time>
      </trkpt>
      <trkpt lat="44.30327" lon="3.3198">
        <ele>467.54</ele>
        <time>2024-11-05T23:27:20.318Z</time>
      </trkpt>
      <trkpt lat="44.30311" lon="3.31977">
        <ele>466.29</ele>
        <time>2024-11-05T23:27:34.805Z</time>
      </trkpt>
      <trkpt lat="44.30308" lon="3.31977">
        <ele>465.03</ele>
        <time>2024-11-05T23:27:49.292Z</time>
      </trkpt>
      <trkpt lat="44.30281" lon="3.31982">
        <ele>463.73</ele>
        <time>2024-11-05T23:28:03.784Z</time>
      </trkpt>
      <trkpt lat="44.30276" lon="3.31985">
        <ele>462.49</ele>
        <time>2024-11-05T23:28:18.277Z</time>
      </trkpt>
      <trkpt lat="44.30268" lon="3.31989">
        <ele>461.28</ele>
        <time>2024-11-05T23:28:32.771Z</time>
      </trkpt>
      <trkpt lat="44.30251" lon="3.31998">
        <ele>460</ele>
        <time>2024-11-05T23:28:47.268Z</time>
      </trkpt>
      <trkpt lat="44.30239" lon="3.32005">
        <ele>458.86</ele>
        <time>2024-11-05T23:29:01.767Z</time>
      </trkpt>
      <trkpt lat="44.30233" lon="3.32008">
        <ele>457.78</ele>
        <time>2024-11-05T23:29:16.267Z</time>
      </trkpt>
      <trkpt lat="44.30226" lon="3.3201">
        <ele>456.73</ele>
        <time>2024-11-05T23:29:30.768Z</time>
      </trkpt>
      <trkpt lat="44.30219" lon="3.32012">
        <ele>455.71</ele>
        <time>2024-11-05T23:29:45.270Z</time>
      </trkpt>
      <trkpt lat="44.30196" lon="3.32016">
        <ele>454.71</ele>
        <time>2024-11-05T23:29:59.776Z</time>
      </trkpt>
      <trkpt lat="44.30191" lon="3.32017">
        <ele>453.81</ele>
        <time>2024-11-05T23:30:14.283Z</time>
      </trkpt>
      <trkpt lat="44.30187" lon="3.32018">
        <ele>452.96</ele>
        <time>2024-11-05T23:30:28.790Z</time>
      </trkpt>
      <trkpt lat="44.30179" lon="3.32019">
        <ele>452.13</ele>
        <time>2024-11-05T23:30:43.299Z</time>
      </trkpt>
      <trkpt lat="44.3017" lon="3.3202">
        <ele>451.35</ele>
        <time>2024-11-05T23:30:57.809Z</time>
      </trkpt>
      <trkpt lat="44.30148" lon="3.32022">
        <ele>450.57</ele>
        <time>2024-11-05T23:31:12.323Z</time>
      </trkpt>
      <trkpt lat="44.30136" lon="3.32024">
        <ele>449.88</ele>
        <time>2024-11-05T23:31:26.839Z</time>
      </trkpt>
      <trkpt lat="44.30131" lon="3.32024">
        <ele>449.29</ele>
        <time>2024-11-05T23:31:41.355Z</time>
      </trkpt>
      <trkpt lat="44.30123" lon="3.32028">
        <ele>448.73</ele>
        <time>2024-11-05T23:31:55.873Z</time>
      </trkpt>
      <trkpt lat="44.30118" lon="3.3203">
        <ele>448.26</ele>
        <time>2024-11-05T23:32:10.392Z</time>
      </trkpt>
      <trkpt lat="44.30114" lon="3.32032">
        <ele>447.84</ele>
        <time>2024-11-05T23:32:24.911Z</time>
      </trkpt>
      <trkpt lat="44.30106" lon="3.32035">
        <ele>447.46</ele>
        <time>2024-11-05T23:32:39.432Z</time>
      </trkpt>
      <trkpt lat="44.30093" lon="3.32041">
        <ele>447.15</ele>
        <time>2024-11-05T23:32:53.955Z</time>
      </trkpt>
      <trkpt lat="44.30088" lon="3.32043">
        <ele>446.92</ele>
        <time>2024-11-05T23:33:08.479Z</time>
      </trkpt>
      <trkpt lat="44.30081" lon="3.32048">
        <ele>446.73</ele>
        <time>2024-11-05T23:33:23.004Z</time>
      </trkpt>
      <trkpt lat="44.30073" lon="3.32054">
        <ele>446.61</ele>
        <time>2024-11-05T23:33:37.530Z</time>
      </trkpt>
      <trkpt lat="44.30049" lon="3.32071">
        <ele>446.53</ele>
        <time>2024-11-05T23:33:52.061Z</time>
      </trkpt>
      <trkpt lat="44.30021" lon="3.3209">
        <ele>446.8</ele>
        <time>2024-11-05T23:34:06.597Z</time>
      </trkpt>
      <trkpt lat="44.30017" lon="3.32093">
        <ele>446.95</ele>
        <time>2024-11-05T23:34:21.133Z</time>
      </trkpt>
      <trkpt lat="44.30016" lon="3.32094">
        <ele>447.1</ele>
        <time>2024-11-05T23:34:35.670Z</time>
      </trkpt>
      <trkpt lat="44.30013" lon="3.32099">
        <ele>447.38</ele>
        <time>2024-11-05T23:34:50.207Z</time>
      </trkpt>
      <trkpt lat="44.30013" lon="3.3211">
        <ele>447.72</ele>
        <time>2024-11-05T23:35:04.746Z</time>
      </trkpt>
      <trkpt lat="44.30016" lon="3.32123">
        <ele>448.06</ele>
        <time>2024-11-05T23:35:19.286Z</time>
      </trkpt>
      <trkpt lat="44.30018" lon="3.3213">
        <ele>448.42</ele>
        <time>2024-11-05T23:35:33.827Z</time>
      </trkpt>
      <trkpt lat="44.3002" lon="3.32134">
        <ele>448.8</ele>
        <time>2024-11-05T23:35:48.369Z</time>
      </trkpt>
      <trkpt lat="44.30022" lon="3.32139">
        <ele>449.21</ele>
        <time>2024-11-05T23:36:02.911Z</time>
      </trkpt>
      <trkpt lat="44.30026" lon="3.3215">
        <ele>449.65</ele>
        <time>2024-11-05T23:36:17.455Z</time>
      </trkpt>
      <trkpt lat="44.30037" lon="3.32177">
        <ele>450.06</ele>
        <time>2024-11-05T23:36:32.002Z</time>
      </trkpt>
      <trkpt lat="44.30042" lon="3.32188">
        <ele>450.57</ele>
        <time>2024-11-05T23:36:46.551Z</time>
      </trkpt>
      <trkpt lat="44.30044" lon="3.32194">
        <ele>451.13</ele>
        <time>2024-11-05T23:37:01.100Z</time>
      </trkpt>
      <trkpt lat="44.30046" lon="3.32199">
        <ele>451.74</ele>
        <time>2024-11-05T23:37:15.650Z</time>
      </trkpt>
      <trkpt lat="44.30048" lon="3.32204">
        <ele>452.37</ele>
        <time>2024-11-05T23:37:30.201Z</time>
      </trkpt>
      <trkpt lat="44.3005" lon="3.3221">
        <ele>453.04</ele>
        <time>2024-11-05T23:37:44.753Z</time>
      </trkpt>
      <trkpt lat="44.30061" lon="3.32237">
        <ele>453.75</ele>
        <time>2024-11-05T23:37:59.308Z</time>
      </trkpt>
      <trkpt lat="44.30072" lon="3.32263">
        <ele>454.53</ele>
        <time>2024-11-05T23:38:13.867Z</time>
      </trkpt>
      <trkpt lat="44.30083" lon="3.32291">
        <ele>455.36</ele>
        <time>2024-11-05T23:38:28.429Z</time>
      </trkpt>
      <trkpt lat="44.30084" lon="3.32302">
        <ele>456.26</ele>
        <time>2024-11-05T23:38:42.993Z</time>
      </trkpt>
      <trkpt lat="44.30087" lon="3.32323">
        <ele>457.45</ele>
        <time>2024-11-05T23:38:57.559Z</time>
      </trkpt>
      <trkpt lat="44.30088" lon="3.32326">
        <ele>458.35</ele>
        <time>2024-11-05T23:39:12.125Z</time>
      </trkpt>
      <trkpt lat="44.30092" lon="3.32338">
        <ele>459.31</ele>
        <time>2024-11-05T23:39:26.693Z</time>
      </trkpt>
      <trkpt lat="44.30091" lon="3.32343">
        <ele>460.31</ele>
        <time>2024-11-05T23:39:41.262Z</time>
      </trkpt>
      <trkpt lat="44.3009" lon="3.32345">
        <ele>461.26</ele>
        <time>2024-11-05T23:39:55.831Z</time>
      </trkpt>
      <trkpt lat="44.30087" lon="3.32344">
        <ele>462.24</ele>
        <time>2024-11-05T23:40:10.400Z</time>
      </trkpt>
      <trkpt lat="44.30085" lon="3.32344">
        <ele>463.21</ele>
        <time>2024-11-05T23:40:24.970Z</time>
      </trkpt>
      <trkpt lat="44.30083" lon="3.32341">
        <ele>464.16</ele>
        <time>2024-11-05T23:40:39.540Z</time>
      </trkpt>
      <trkpt lat="44.30082" lon="3.32336">
        <ele>465.05</ele>
        <time>2024-11-05T23:40:54.111Z</time>
      </trkpt>
      <trkpt lat="44.30077" lon="3.32313">
        <ele>465.68</ele>
        <time>2024-11-05T23:41:08.684Z</time>
      </trkpt>
      <trkpt lat="44.30077" lon="3.32312">
        <ele>466.65</ele>
        <time>2024-11-05T23:41:23.258Z</time>
      </trkpt>
      <trkpt lat="44.30063" lon="3.32281">
        <ele>467.52</ele>
        <time>2024-11-05T23:41:37.836Z</time>
      </trkpt>
      <trkpt lat="44.3006" lon="3.32276">
        <ele>468.52</ele>
        <time>2024-11-05T23:41:52.415Z</time>
      </trkpt>
      <trkpt lat="44.30056" lon="3.32265">
        <ele>469.52</ele>
        <time>2024-11-05T23:42:06.995Z</time>
      </trkpt>
      <trkpt lat="44.30051" lon="3.32255">
        <ele>470.53</ele>
        <time>2024-11-05T23:42:21.576Z</time>
      </trkpt>
      <trkpt lat="44.30046" lon="3.32244">
        <ele>471.57</ele>
        <time>2024-11-05T23:42:36.159Z</time>
      </trkpt>
      <trkpt lat="44.30041" lon="3.32234">
        <ele>472.64</ele>
        <time>2024-11-05T23:42:50.743Z</time>
      </trkpt>
      <trkpt lat="44.30038" lon="3.32226">
        <ele>473.72</ele>
        <time>2024-11-05T23:43:05.328Z</time>
      </trkpt>
      <trkpt lat="44.30036" lon="3.32225">
        <ele>474.83</ele>
        <time>2024-11-05T23:43:19.914Z</time>
      </trkpt>
      <trkpt lat="44.30035" lon="3.32224">
        <ele>475.92</ele>
        <time>2024-11-05T23:43:34.500Z</time>
      </trkpt>
      <trkpt lat="44.30032" lon="3.32225">
        <ele>477.09</ele>
        <time>2024-11-05T23:43:49.086Z</time>
      </trkpt>
      <trkpt lat="44.30032" lon="3.3223">
        <ele>478.22</ele>
        <time>2024-11-05T23:44:03.673Z</time>
      </trkpt>
      <trkpt lat="44.30035" lon="3.32237">
        <ele>479.31</ele>
        <time>2024-11-05T23:44:18.261Z</time>
      </trkpt>
      <trkpt lat="44.30038" lon="3.32249">
        <ele>480.41</ele>
        <time>2024-11-05T23:44:32.850Z</time>
      </trkpt>
      <trkpt lat="44.3004" lon="3.32254">
        <ele>481.51</ele>
        <time>2024-11-05T23:44:47.440Z</time>
      </trkpt>
      <trkpt lat="44.30044" lon="3.32266">
        <ele>482.63</ele>
        <time>2024-11-05T23:45:02.031Z</time>
      </trkpt>
      <trkpt lat="44.30053" lon="3.32291">
        <ele>483.8</ele>
        <time>2024-11-05T23:45:16.626Z</time>
      </trkpt>
      <trkpt lat="44.30053" lon="3.32294">
        <ele>484.93</ele>
        <time>2024-11-05T23:45:31.221Z</time>
      </trkpt>
      <trkpt lat="44.30053" lon="3.32302">
        <ele>486.13</ele>
        <time>2024-11-05T23:45:45.817Z</time>
      </trkpt>
      <trkpt lat="44.30052" lon="3.32306">
        <ele>487.28</ele>
        <time>2024-11-05T23:46:00.413Z</time>
      </trkpt>
      <trkpt lat="44.30049" lon="3.32321">
        <ele>488.6</ele>
        <time>2024-11-05T23:46:15.011Z</time>
      </trkpt>
      <trkpt lat="44.3005" lon="3.32337">
        <ele>489.79</ele>
        <time>2024-11-05T23:46:29.611Z</time>
      </trkpt>
      <trkpt lat="44.3005" lon="3.3234">
        <ele>490.84</ele>
        <time>2024-11-05T23:46:44.211Z</time>
      </trkpt>
      <trkpt lat="44.30053" lon="3.32355">
        <ele>491.92</ele>
        <time>2024-11-05T23:46:58.813Z</time>
      </trkpt>
      <trkpt lat="44.30054" lon="3.32358">
        <ele>492.91</ele>
        <time>2024-11-05T23:47:13.415Z</time>
      </trkpt>
      <trkpt lat="44.30054" lon="3.32365">
        <ele>493.93</ele>
        <time>2024-11-05T23:47:28.018Z</time>
      </trkpt>
      <trkpt lat="44.30053" lon="3.32367">
        <ele>494.88</ele>
        <time>2024-11-05T23:47:42.622Z</time>
      </trkpt>
      <trkpt lat="44.30052" lon="3.32368">
        <ele>495.79</ele>
        <time>2024-11-05T23:47:57.226Z</time>
      </trkpt>
      <trkpt lat="44.30048" lon="3.32368">
        <ele>496.7</ele>
        <time>2024-11-05T23:48:11.830Z</time>
      </trkpt>
      <trkpt lat="44.30041" lon="3.32355">
        <ele>497.5</ele>
        <time>2024-11-05T23:48:26.436Z</time>
      </trkpt>
      <trkpt lat="44.3004" lon="3.32347">
        <ele>498.31</ele>
        <time>2024-11-05T23:48:41.043Z</time>
      </trkpt>
      <trkpt lat="44.30038" lon="3.32335">
        <ele>499.02</ele>
        <time>2024-11-05T23:48:55.652Z</time>
      </trkpt>
      <trkpt lat="44.30038" lon="3.32332">
        <ele>499.77</ele>
        <time>2024-11-05T23:49:10.261Z</time>
      </trkpt>
      <trkpt lat="44.30039" lon="3.32329">
        <ele>500.48</ele>
        <time>2024-11-05T23:49:24.870Z</time>
      </trkpt>
      <trkpt lat="44.30041" lon="3.32311">
        <ele>500.98</ele>
        <time>2024-11-05T23:49:39.481Z</time>
      </trkpt>
      <trkpt lat="44.30041" lon="3.32311">
        <ele>501.68</ele>
        <time>2024-11-05T23:49:54.092Z</time>
      </trkpt>
      <trkpt lat="44.3004" lon="3.32305">
        <ele>502.29</ele>
        <time>2024-11-05T23:50:08.704Z</time>
      </trkpt>
      <trkpt lat="44.30038" lon="3.32305">
        <ele>502.99</ele>
        <time>2024-11-05T23:50:23.316Z</time>
      </trkpt>
      <trkpt lat="44.30035" lon="3.32308">
        <ele>503.73</ele>
        <time>2024-11-05T23:50:37.929Z</time>
      </trkpt>
      <trkpt lat="44.30032" lon="3.32331">
        <ele>504.57</ele>
        <time>2024-11-05T23:50:52.545Z</time>
      </trkpt>
      <trkpt lat="44.30029" lon="3.32358">
        <ele>505.34</ele>
        <time>2024-11-05T23:51:07.164Z</time>
      </trkpt>
      <trkpt lat="44.30036" lon="3.3238">
        <ele>506.01</ele>
        <time>2024-11-05T23:51:21.786Z</time>
      </trkpt>
      <trkpt lat="44.30041" lon="3.32386">
        <ele>506.58</ele>
        <time>2024-11-05T23:51:36.409Z</time>
      </trkpt>
      <trkpt lat="44.30047" lon="3.3239">
        <ele>507.13</ele>
        <time>2024-11-05T23:51:51.033Z</time>
      </trkpt>
      <trkpt lat="44.30055" lon="3.32389">
        <ele>507.61</ele>
        <time>2024-11-05T23:52:05.658Z</time>
      </trkpt>
      <trkpt lat="44.30059" lon="3.32388">
        <ele>508.08</ele>
        <time>2024-11-05T23:52:20.284Z</time>
      </trkpt>
      <trkpt lat="44.30067" lon="3.32387">
        <ele>508.51</ele>
        <time>2024-11-05T23:52:34.911Z</time>
      </trkpt>
      <trkpt lat="44.30068" lon="3.32388">
        <ele>509</ele>
        <time>2024-11-05T23:52:49.538Z</time>
      </trkpt>
      <trkpt lat="44.30077" lon="3.32392">
        <ele>509.49</ele>
        <time>2024-11-05T23:53:04.167Z</time>
      </trkpt>
      <trkpt lat="44.30085" lon="3.32396">
        <ele>509.89</ele>
        <time>2024-11-05T23:53:18.797Z</time>
      </trkpt>
      <trkpt lat="44.30092" lon="3.32397">
        <ele>510.25</ele>
        <time>2024-11-05T23:53:33.428Z</time>
      </trkpt>
      <trkpt lat="44.30097" lon="3.32401">
        <ele>510.7</ele>
        <time>2024-11-05T23:53:48.060Z</time>
      </trkpt>
      <trkpt lat="44.30097" lon="3.32402">
        <ele>511.17</ele>
        <time>2024-11-05T23:54:02.692Z</time>
      </trkpt>
      <trkpt lat="44.30098" lon="3.32406">
        <ele>511.71</ele>
        <time>2024-11-05T23:54:17.325Z</time>
      </trkpt>
      <trkpt lat="44.30095" lon="3.3241">
        <ele>512.3</ele>
        <time>2024-11-05T23:54:31.958Z</time>
      </trkpt>
      <trkpt lat="44.30094" lon="3.3241">
        <ele>512.8</ele>
        <time>2024-11-05T23:54:46.592Z</time>
      </trkpt>
      <trkpt lat="44.30085" lon="3.32407">
        <ele>513.39</ele>
        <time>2024-11-05T23:55:01.227Z</time>
      </trkpt>
      <trkpt lat="44.30076" lon="3.32404">
        <ele>513.98</ele>
        <time>2024-11-05T23:55:15.863Z</time>
      </trkpt>
      <trkpt lat="44.30072" lon="3.32403">
        <ele>514.48</ele>
        <time>2024-11-05T23:55:30.500Z</time>
      </trkpt>
      <trkpt lat="44.30067" lon="3.32403">
        <ele>515</ele>
        <time>2024-11-05T23:55:45.138Z</time>
      </trkpt>
      <trkpt lat="44.3006" lon="3.32402">
        <ele>515.51</ele>
        <time>2024-11-05T23:55:59.777Z</time>
      </trkpt>
      <trkpt lat="44.30059" lon="3.32403">
        <ele>516.01</ele>
        <time>2024-11-05T23:56:14.416Z</time>
      </trkpt>
      <trkpt lat="44.30052" lon="3.32405">
        <ele>516.56</ele>
        <time>2024-11-05T23:56:29.056Z</time>
      </trkpt>
      <trkpt lat="44.3005" lon="3.32406">
        <ele>517.08</ele>
        <time>2024-11-05T23:56:43.697Z</time>
      </trkpt>
      <trkpt lat="44.3004" lon="3.32414">
        <ele>517.74</ele>
        <time>2024-11-05T23:56:58.340Z</time>
      </trkpt>
      <trkpt lat="44.30033" lon="3.32417">
        <ele>518.35</ele>
        <time>2024-11-05T23:57:12.984Z</time>
      </trkpt>
      <trkpt lat="44.30021" lon="3.32416">
        <ele>518.92</ele>
        <time>2024-11-05T23:57:27.630Z</time>
      </trkpt>
      <trkpt lat="44.30014" lon="3.32416">
        <ele>519.45</ele>
        <time>2024-11-05T23:57:42.277Z</time>
      </trkpt>
      <trkpt lat="44.30012" lon="3.32415">
        <ele>519.96</ele>
        <time>2024-11-05T23:57:56.924Z</time>
      </trkpt>
      <trkpt lat="44.30007" lon="3.32413">
        <ele>520.46</ele>
        <time>2024-11-05T23:58:11.572Z</time>
      </trkpt>
      <trkpt lat="44.29988" lon="3.32399">
        <ele>520.96</ele>
        <time>2024-11-05T23:58:26.223Z</time>
      </trkpt>
      <trkpt lat="44.29986" lon="3.32397">
        <ele>521.5</ele>
        <time>2024-11-05T23:58:40.875Z</time>
      </trkpt>
      <trkpt lat="44.29979" lon="3.32386">
        <ele>522</ele>
        <time>2024-11-05T23:58:55.528Z</time>
      </trkpt>
      <trkpt lat="44.29975" lon="3.32376">
        <ele>522.57</ele>
        <time>2024-11-05T23:59:10.183Z</time>
      </trkpt>
      <trkpt lat="44.29973" lon="3.32364">
        <ele>523.15</ele>
        <time>2024-11-05T23:59:24.839Z</time>
      </trkpt>
      <trkpt lat="44.29978" lon="3.32339">
        <ele>523.71</ele>
        <time>2024-11-05T23:59:39.498Z</time>
      </trkpt>
      <trkpt lat="44.29987" lon="3.32324">
        <ele>524.17</ele>
        <time>2024-11-05T23:59:54.159Z</time>
      </trkpt>
      <trkpt lat="44.29998" lon="3.32306">
        <ele>524.59</ele>
        <time>2024-11-06T00:00:08.823Z</time>
      </trkpt>
      <trkpt lat="44.3" lon="3.32298">
        <ele>525.14</ele>
        <time>2024-11-06T00:00:23.488Z</time>
      </trkpt>
      <trkpt lat="44.29997" lon="3.32295">
        <ele>525.82</ele>
        <time>2024-11-06T00:00:38.154Z</time>
      </trkpt>
      <trkpt lat="44.29994" lon="3.32293">
        <ele>526.52</ele>
        <time>2024-11-06T00:00:52.820Z</time>
      </trkpt>
      <trkpt lat="44.29991" lon="3.32297">
        <ele>527.25</ele>
        <time>2024-11-06T00:01:07.487Z</time>
      </trkpt>
      <trkpt lat="44.29988" lon="3.32303">
        <ele>527.98</ele>
        <time>2024-11-06T00:01:22.155Z</time>
      </trkpt>
      <trkpt lat="44.29984" lon="3.3231">
        <ele>528.75</ele>
        <time>2024-11-06T00:01:36.824Z</time>
      </trkpt>
      <trkpt lat="44.29972" lon="3.32325">
        <ele>529.61</ele>
        <time>2024-11-06T00:01:51.495Z</time>
      </trkpt>
      <trkpt lat="44.29962" lon="3.32337">
        <ele>530.44</ele>
        <time>2024-11-06T00:02:06.168Z</time>
      </trkpt>
      <trkpt lat="44.2996" lon="3.3234">
        <ele>531.22</ele>
        <time>2024-11-06T00:02:20.842Z</time>
      </trkpt>
      <trkpt lat="44.29951" lon="3.32355">
        <ele>532.05</ele>
        <time>2024-11-06T00:02:35.518Z</time>
      </trkpt>
      <trkpt lat="44.29945" lon="3.32365">
        <ele>532.91</ele>
        <time>2024-11-06T00:02:50.196Z</time>
      </trkpt>
      <trkpt lat="44.29942" lon="3.32379">
        <ele>533.72</ele>
        <time>2024-11-06T00:03:04.875Z</time>
      </trkpt>
      <trkpt lat="44.29942" lon="3.32383">
        <ele>534.52</ele>
        <time>2024-11-06T00:03:19.555Z</time>
      </trkpt>
      <trkpt lat="44.29941" lon="3.32396">
        <ele>535.38</ele>
        <time>2024-11-06T00:03:34.236Z</time>
      </trkpt>
      <trkpt lat="44.29943" lon="3.32408">
        <ele>536.22</ele>
        <time>2024-11-06T00:03:48.919Z</time>
      </trkpt>
      <trkpt lat="44.29944" lon="3.32415">
        <ele>537.09</ele>
        <time>2024-11-06T00:04:03.603Z</time>
      </trkpt>
      <trkpt lat="44.29948" lon="3.32427">
        <ele>537.97</ele>
        <time>2024-11-06T00:04:18.288Z</time>
      </trkpt>
      <trkpt lat="44.2995" lon="3.3243">
        <ele>538.84</ele>
        <time>2024-11-06T00:04:32.974Z</time>
      </trkpt>
      <trkpt lat="44.29955" lon="3.32438">
        <ele>539.72</ele>
        <time>2024-11-06T00:04:47.661Z</time>
      </trkpt>
      <trkpt lat="44.29962" lon="3.32445">
        <ele>540.63</ele>
        <time>2024-11-06T00:05:02.349Z</time>
      </trkpt>
      <trkpt lat="44.29971" lon="3.32447">
        <ele>541.53</ele>
        <time>2024-11-06T00:05:17.039Z</time>
      </trkpt>
      <trkpt lat="44.29988" lon="3.32446">
        <ele>542.37</ele>
        <time>2024-11-06T00:05:31.731Z</time>
      </trkpt>
      <trkpt lat="44.29991" lon="3.32447">
        <ele>543.31</ele>
        <time>2024-11-06T00:05:46.424Z</time>
      </trkpt>
      <trkpt lat="44.29996" lon="3.32448">
        <ele>544.26</ele>
        <time>2024-11-06T00:06:01.118Z</time>
      </trkpt>
      <trkpt lat="44.30004" lon="3.32452">
        <ele>545.3</ele>
        <time>2024-11-06T00:06:15.813Z</time>
      </trkpt>
      <trkpt lat="44.30012" lon="3.32457">
        <ele>546.36</ele>
        <time>2024-11-06T00:06:30.509Z</time>
      </trkpt>
      <trkpt lat="44.3003" lon="3.32468">
        <ele>547.5</ele>
        <time>2024-11-06T00:06:45.208Z</time>
      </trkpt>
      <trkpt lat="44.30033" lon="3.32468">
        <ele>548.5</ele>
        <time>2024-11-06T00:06:59.908Z</time>
      </trkpt>
      <trkpt lat="44.30058" lon="3.32472">
        <ele>549.44</ele>
        <time>2024-11-06T00:07:14.612Z</time>
      </trkpt>
      <trkpt lat="44.30059" lon="3.32473">
        <ele>550.47</ele>
        <time>2024-11-06T00:07:29.316Z</time>
      </trkpt>
      <trkpt lat="44.30081" lon="3.32483">
        <ele>551.46</ele>
        <time>2024-11-06T00:07:44.024Z</time>
      </trkpt>
      <trkpt lat="44.30083" lon="3.32486">
        <ele>552.52</ele>
        <time>2024-11-06T00:07:58.732Z</time>
      </trkpt>
      <trkpt lat="44.30081" lon="3.32492">
        <ele>553.67</ele>
        <time>2024-11-06T00:08:13.441Z</time>
      </trkpt>
      <trkpt lat="44.3008" lon="3.32492">
        <ele>554.76</ele>
        <time>2024-11-06T00:08:28.150Z</time>
      </trkpt>
      <trkpt lat="44.30076" lon="3.32493">
        <ele>555.89</ele>
        <time>2024-11-06T00:08:42.860Z</time>
      </trkpt>
      <trkpt lat="44.30063" lon="3.32487">
        <ele>557.02</ele>
        <time>2024-11-06T00:08:57.572Z</time>
      </trkpt>
      <trkpt lat="44.30057" lon="3.32485">
        <ele>558.13</ele>
        <time>2024-11-06T00:09:12.285Z</time>
      </trkpt>
      <trkpt lat="44.30041" lon="3.32486">
        <ele>559.33</ele>
        <time>2024-11-06T00:09:27.001Z</time>
      </trkpt>
      <trkpt lat="44.30032" lon="3.32487">
        <ele>560.51</ele>
        <time>2024-11-06T00:09:41.718Z</time>
      </trkpt>
      <trkpt lat="44.30018" lon="3.32487">
        <ele>561.67</ele>
        <time>2024-11-06T00:09:56.437Z</time>
      </trkpt>
      <trkpt lat="44.30001" lon="3.32486">
        <ele>562.76</ele>
        <time>2024-11-06T00:10:11.159Z</time>
      </trkpt>
      <trkpt lat="44.29992" lon="3.32487">
        <ele>563.88</ele>
        <time>2024-11-06T00:10:25.883Z</time>
      </trkpt>
      <trkpt lat="44.29987" lon="3.3249">
        <ele>565.02</ele>
        <time>2024-11-06T00:10:40.607Z</time>
      </trkpt>
      <trkpt lat="44.29979" lon="3.32494">
        <ele>566.21</ele>
        <time>2024-11-06T00:10:55.333Z</time>
      </trkpt>
      <trkpt lat="44.2995" lon="3.3251">
        <ele>567.64</ele>
        <time>2024-11-06T00:11:10.064Z</time>
      </trkpt>
      <trkpt lat="44.29944" lon="3.32513">
        <ele>568.77</ele>
        <time>2024-11-06T00:11:24.796Z</time>
      </trkpt>
      <trkpt lat="44.29941" lon="3.32513">
        <ele>569.84</ele>
        <time>2024-11-06T00:11:39.528Z</time>
      </trkpt>
      <trkpt lat="44.29936" lon="3.32514">
        <ele>570.91</ele>
        <time>2024-11-06T00:11:54.261Z</time>
      </trkpt>
      <trkpt lat="44.29929" lon="3.32512">
        <ele>571.96</ele>
        <time>2024-11-06T00:12:08.995Z</time>
      </trkpt>
      <trkpt lat="44.29924" lon="3.32507">
        <ele>572.94</ele>
        <time>2024-11-06T00:12:23.730Z</time>
      </trkpt>
      <trkpt lat="44.29922" lon="3.32505">
        <ele>573.92</ele>
        <time>2024-11-06T00:12:38.466Z</time>
      </trkpt>
      <trkpt lat="44.29913" lon="3.32488">
        <ele>574.76</ele>
        <time>2024-11-06T00:12:53.204Z</time>
      </trkpt>
      <trkpt lat="44.2991" lon="3.32482">
        <ele>575.71</ele>
        <time>2024-11-06T00:13:07.943Z</time>
      </trkpt>
      <trkpt lat="44.29907" lon="3.32479">
        <ele>576.68</ele>
        <time>2024-11-06T00:13:22.682Z</time>
      </trkpt>
      <trkpt lat="44.29901" lon="3.32471">
        <ele>577.66</ele>
        <time>2024-11-06T00:13:37.423Z</time>
      </trkpt>
      <trkpt lat="44.299" lon="3.3247">
        <ele>578.59</ele>
        <time>2024-11-06T00:13:52.164Z</time>
      </trkpt>
      <trkpt lat="44.29882" lon="3.32452">
        <ele>579.67</ele>
        <time>2024-11-06T00:14:06.908Z</time>
      </trkpt>
      <trkpt lat="44.29864" lon="3.32433">
        <ele>580.66</ele>
        <time>2024-11-06T00:14:21.656Z</time>
      </trkpt>
      <trkpt lat="44.29863" lon="3.32432">
        <ele>581.53</ele>
        <time>2024-11-06T00:14:36.404Z</time>
      </trkpt>
      <trkpt lat="44.29856" lon="3.32419">
        <ele>582.37</ele>
        <time>2024-11-06T00:14:51.154Z</time>
      </trkpt>
      <trkpt lat="44.29856" lon="3.32419">
        <ele>583.2</ele>
        <time>2024-11-06T00:15:05.904Z</time>
      </trkpt>
      <trkpt lat="44.2985" lon="3.32401">
        <ele>584.05</ele>
        <time>2024-11-06T00:15:20.656Z</time>
      </trkpt>
      <trkpt lat="44.29847" lon="3.32391">
        <ele>584.9</ele>
        <time>2024-11-06T00:15:35.410Z</time>
      </trkpt>
      <trkpt lat="44.29846" lon="3.32391">
        <ele>585.68</ele>
        <time>2024-11-06T00:15:50.164Z</time>
      </trkpt>
      <trkpt lat="44.29841" lon="3.32393">
        <ele>586.54</ele>
        <time>2024-11-06T00:16:04.919Z</time>
      </trkpt>
      <trkpt lat="44.29841" lon="3.32398">
        <ele>587.29</ele>
        <time>2024-11-06T00:16:19.674Z</time>
      </trkpt>
      <trkpt lat="44.29847" lon="3.32414">
        <ele>587.93</ele>
        <time>2024-11-06T00:16:34.431Z</time>
      </trkpt>
      <trkpt lat="44.29848" lon="3.32417">
        <ele>588.63</ele>
        <time>2024-11-06T00:16:49.189Z</time>
      </trkpt>
      <trkpt lat="44.29848" lon="3.32419">
        <ele>589.32</ele>
        <time>2024-11-06T00:17:03.947Z</time>
      </trkpt>
      <trkpt lat="44.29851" lon="3.32431">
        <ele>590.03</ele>
        <time>2024-11-06T00:17:18.706Z</time>
      </trkpt>
      <trkpt lat="44.29853" lon="3.32442">
        <ele>590.7</ele>
        <time>2024-11-06T00:17:33.467Z</time>
      </trkpt>
      <trkpt lat="44.29856" lon="3.32454">
        <ele>591.34</ele>
        <time>2024-11-06T00:17:48.229Z</time>
      </trkpt>
      <trkpt lat="44.29859" lon="3.32459">
        <ele>591.96</ele>
        <time>2024-11-06T00:18:02.992Z</time>
      </trkpt>
      <trkpt lat="44.29866" lon="3.32472">
        <ele>592.56</ele>
        <time>2024-11-06T00:18:17.757Z</time>
      </trkpt>
      <trkpt lat="44.29867" lon="3.32474">
        <ele>593.16</ele>
        <time>2024-11-06T00:18:32.522Z</time>
      </trkpt>
      <trkpt lat="44.2988" lon="3.32492">
        <ele>593.73</ele>
        <time>2024-11-06T00:18:47.290Z</time>
      </trkpt>
      <trkpt lat="44.29883" lon="3.32496">
        <ele>594.3</ele>
        <time>2024-11-06T00:19:02.059Z</time>
      </trkpt>
      <trkpt lat="44.29889" lon="3.32507">
        <ele>594.85</ele>
        <time>2024-11-06T00:19:16.829Z</time>
      </trkpt>
      <trkpt lat="44.29892" lon="3.32524">
        <ele>595.45</ele>
        <time>2024-11-06T00:19:31.601Z</time>
      </trkpt>
      <trkpt lat="44.29895" lon="3.32538">
        <ele>596.12</ele>
        <time>2024-11-06T00:19:46.375Z</time>
      </trkpt>
      <trkpt lat="44.29896" lon="3.32542">
        <ele>596.68</ele>
        <time>2024-11-06T00:20:01.149Z</time>
      </trkpt>
      <trkpt lat="44.299" lon="3.32553">
        <ele>597.31</ele>
        <time>2024-11-06T00:20:15.925Z</time>
      </trkpt>
      <trkpt lat="44.299" lon="3.32555">
        <ele>597.86</ele>
        <time>2024-11-06T00:20:30.701Z</time>
      </trkpt>
      <trkpt lat="44.29902" lon="3.32559">
        <ele>598.42</ele>
        <time>2024-11-06T00:20:45.478Z</time>
      </trkpt>
      <trkpt lat="44.29905" lon="3.32566">
        <ele>599.02</ele>
        <time>2024-11-06T00:21:00.256Z</time>
      </trkpt>
      <trkpt lat="44.29908" lon="3.32568">
        <ele>599.53</ele>
        <time>2024-11-06T00:21:15.034Z</time>
      </trkpt>
      <trkpt lat="44.29912" lon="3.32571">
        <ele>600.04</ele>
        <time>2024-11-06T00:21:29.813Z</time>
      </trkpt>
      <trkpt lat="44.2992" lon="3.32574">
        <ele>600.59</ele>
        <time>2024-11-06T00:21:44.593Z</time>
      </trkpt>
      <trkpt lat="44.29932" lon="3.32574">
        <ele>601.09</ele>
        <time>2024-11-06T00:21:59.375Z</time>
      </trkpt>
      <trkpt lat="44.29938" lon="3.32573">
        <ele>601.56</ele>
        <time>2024-11-06T00:22:14.158Z</time>
      </trkpt>
      <trkpt lat="44.29949" lon="3.32572">
        <ele>602.04</ele>
        <time>2024-11-06T00:22:28.943Z</time>
      </trkpt>
      <trkpt lat="44.29956" lon="3.3257">
        <ele>602.49</ele>
        <time>2024-11-06T00:22:43.729Z</time>
      </trkpt>
      <trkpt lat="44.29969" lon="3.32565">
        <ele>602.91</ele>
        <time>2024-11-06T00:22:58.517Z</time>
      </trkpt>
      <trkpt lat="44.29982" lon="3.32561">
        <ele>603.3</ele>
        <time>2024-11-06T00:23:13.307Z</time>
      </trkpt>
      <trkpt lat="44.29991" lon="3.32559">
        <ele>603.76</ele>
        <time>2024-11-06T00:23:28.099Z</time>
      </trkpt>
      <trkpt lat="44.29993" lon="3.32559">
        <ele>604.25</ele>
        <time>2024-11-06T00:23:42.891Z</time>
      </trkpt>
      <trkpt lat="44.3" lon="3.32561">
        <ele>604.75</ele>
        <time>2024-11-06T00:23:57.684Z</time>
      </trkpt>
      <trkpt lat="44.30013" lon="3.32565">
        <ele>605.24</ele>
        <time>2024-11-06T00:24:12.479Z</time>
      </trkpt>
      <trkpt lat="44.30023" lon="3.32572">
        <ele>605.81</ele>
        <time>2024-11-06T00:24:27.276Z</time>
      </trkpt>
      <trkpt lat="44.30029" lon="3.3258">
        <ele>606.39</ele>
        <time>2024-11-06T00:24:42.074Z</time>
      </trkpt>
      <trkpt lat="44.30033" lon="3.32588">
        <ele>607.01</ele>
        <time>2024-11-06T00:24:56.874Z</time>
      </trkpt>
      <trkpt lat="44.30047" lon="3.32614">
        <ele>607.76</ele>
        <time>2024-11-06T00:25:11.677Z</time>
      </trkpt>
      <trkpt lat="44.30052" lon="3.32624">
        <ele>608.43</ele>
        <time>2024-11-06T00:25:26.482Z</time>
      </trkpt>
      <trkpt lat="44.30057" lon="3.32634">
        <ele>609.11</ele>
        <time>2024-11-06T00:25:41.288Z</time>
      </trkpt>
      <trkpt lat="44.30058" lon="3.32636">
        <ele>609.74</ele>
        <time>2024-11-06T00:25:56.094Z</time>
      </trkpt>
      <trkpt lat="44.30066" lon="3.32644">
        <ele>610.38</ele>
        <time>2024-11-06T00:26:10.902Z</time>
      </trkpt>
      <trkpt lat="44.30076" lon="3.3265">
        <ele>610.97</ele>
        <time>2024-11-06T00:26:25.712Z</time>
      </trkpt>
      <trkpt lat="44.3009" lon="3.32657">
        <ele>611.56</ele>
        <time>2024-11-06T00:26:40.524Z</time>
      </trkpt>
      <trkpt lat="44.30093" lon="3.32659">
        <ele>612.23</ele>
        <time>2024-11-06T00:26:55.336Z</time>
      </trkpt>
      <trkpt lat="44.30119" lon="3.32683">
        <ele>612.86</ele>
        <time>2024-11-06T00:27:10.154Z</time>
      </trkpt>
      <trkpt lat="44.30121" lon="3.32684">
        <ele>613.58</ele>
        <time>2024-11-06T00:27:24.972Z</time>
      </trkpt>
      <trkpt lat="44.3013" lon="3.32695">
        <ele>614.31</ele>
        <time>2024-11-06T00:27:39.792Z</time>
      </trkpt>
      <trkpt lat="44.3013" lon="3.32699">
        <ele>615.11</ele>
        <time>2024-11-06T00:27:54.612Z</time>
      </trkpt>
      <trkpt lat="44.30129" lon="3.327">
        <ele>615.92</ele>
        <time>2024-11-06T00:28:09.432Z</time>
      </trkpt>
      <trkpt lat="44.30127" lon="3.32701">
        <ele>616.77</ele>
        <time>2024-11-06T00:28:24.253Z</time>
      </trkpt>
      <trkpt lat="44.30125" lon="3.327">
        <ele>617.62</ele>
        <time>2024-11-06T00:28:39.074Z</time>
      </trkpt>
      <trkpt lat="44.30123" lon="3.327">
        <ele>618.5</ele>
        <time>2024-11-06T00:28:53.895Z</time>
      </trkpt>
      <trkpt lat="44.30121" lon="3.32698">
        <ele>619.39</ele>
        <time>2024-11-06T00:29:08.717Z</time>
      </trkpt>
      <trkpt lat="44.30108" lon="3.32686">
        <ele>620.34</ele>
        <time>2024-11-06T00:29:23.541Z</time>
      </trkpt>
      <trkpt lat="44.30101" lon="3.32683">
        <ele>621.31</ele>
        <time>2024-11-06T00:29:38.366Z</time>
      </trkpt>
      <trkpt lat="44.30087" lon="3.32675">
        <ele>622.35</ele>
        <time>2024-11-06T00:29:53.194Z</time>
      </trkpt>
      <trkpt lat="44.30085" lon="3.32674">
        <ele>623.35</ele>
        <time>2024-11-06T00:30:08.022Z</time>
      </trkpt>
      <trkpt lat="44.30076" lon="3.32672">
        <ele>624.42</ele>
        <time>2024-11-06T00:30:22.852Z</time>
      </trkpt>
      <trkpt lat="44.30058" lon="3.32666">
        <ele>625.59</ele>
        <time>2024-11-06T00:30:37.685Z</time>
      </trkpt>
      <trkpt lat="44.30046" lon="3.3266">
        <ele>626.69</ele>
        <time>2024-11-06T00:30:52.520Z</time>
      </trkpt>
      <trkpt lat="44.30036" lon="3.32651">
        <ele>627.72</ele>
        <time>2024-11-06T00:31:07.357Z</time>
      </trkpt>
      <trkpt lat="44.30017" lon="3.32629">
        <ele>628.66</ele>
        <time>2024-11-06T00:31:22.197Z</time>
      </trkpt>
      <trkpt lat="44.3001" lon="3.32621">
        <ele>629.7</ele>
        <time>2024-11-06T00:31:37.039Z</time>
      </trkpt>
      <trkpt lat="44.30006" lon="3.32616">
        <ele>630.78</ele>
        <time>2024-11-06T00:31:51.882Z</time>
      </trkpt>
      <trkpt lat="44.29998" lon="3.3261">
        <ele>631.89</ele>
        <time>2024-11-06T00:32:06.726Z</time>
      </trkpt>
      <trkpt lat="44.29993" lon="3.32609">
        <ele>633.07</ele>
        <time>2024-11-06T00:32:21.571Z</time>
      </trkpt>
      <trkpt lat="44.2999" lon="3.3261">
        <ele>634.25</ele>
        <time>2024-11-06T00:32:36.417Z</time>
      </trkpt>
      <trkpt lat="44.29976" lon="3.32612">
        <ele>635.54</ele>
        <time>2024-11-06T00:32:51.265Z</time>
      </trkpt>
      <trkpt lat="44.2996" lon="3.32619">
        <ele>636.94</ele>
        <time>2024-11-06T00:33:06.116Z</time>
      </trkpt>
      <trkpt lat="44.29951" lon="3.32623">
        <ele>638.22</ele>
        <time>2024-11-06T00:33:20.968Z</time>
      </trkpt>
      <trkpt lat="44.29945" lon="3.32626">
        <ele>639.49</ele>
        <time>2024-11-06T00:33:35.821Z</time>
      </trkpt>
      <trkpt lat="44.29939" lon="3.3263">
        <ele>640.78</ele>
        <time>2024-11-06T00:33:50.675Z</time>
      </trkpt>
      <trkpt lat="44.29922" lon="3.3264">
        <ele>642.11</ele>
        <time>2024-11-06T00:34:05.532Z</time>
      </trkpt>
      <trkpt lat="44.29919" lon="3.32642">
        <ele>643.34</ele>
        <time>2024-11-06T00:34:20.390Z</time>
      </trkpt>
      <trkpt lat="44.29903" lon="3.32656">
        <ele>644.8</ele>
        <time>2024-11-06T00:34:35.251Z</time>
      </trkpt>
      <trkpt lat="44.299" lon="3.32659">
        <ele>646.05</ele>
        <time>2024-11-06T00:34:50.112Z</time>
      </trkpt>
      <trkpt lat="44.29894" lon="3.32661">
        <ele>647.28</ele>
        <time>2024-11-06T00:35:04.974Z</time>
      </trkpt>
      <trkpt lat="44.29884" lon="3.32661">
        <ele>648.46</ele>
        <time>2024-11-06T00:35:19.838Z</time>
      </trkpt>
      <trkpt lat="44.29873" lon="3.32659">
        <ele>649.71</ele>
        <time>2024-11-06T00:35:34.704Z</time>
      </trkpt>
      <trkpt lat="44.29857" lon="3.32655">
        <ele>651</ele>
        <time>2024-11-06T00:35:49.572Z</time>
      </trkpt>
      <trkpt lat="44.2985" lon="3.3265">
        <ele>652.16</ele>
        <time>2024-11-06T00:36:04.441Z</time>
      </trkpt>
      <trkpt lat="44.29844" lon="3.32643">
        <ele>653.28</ele>
        <time>2024-11-06T00:36:19.312Z</time>
      </trkpt>
      <trkpt lat="44.2984" lon="3.32632">
        <ele>654.29</ele>
        <time>2024-11-06T00:36:34.184Z</time>
      </trkpt>
      <trkpt lat="44.29836" lon="3.32622">
        <ele>655.28</ele>
        <time>2024-11-06T00:36:49.057Z</time>
      </trkpt>
      <trkpt lat="44.29832" lon="3.32618">
        <ele>656.36</ele>
        <time>2024-11-06T00:37:03.931Z</time>
      </trkpt>
      <trkpt lat="44.29827" lon="3.32616">
        <ele>657.46</ele>
        <time>2024-11-06T00:37:18.806Z</time>
      </trkpt>
      <trkpt lat="44.29825" lon="3.32615">
        <ele>658.55</ele>
        <time>2024-11-06T00:37:33.681Z</time>
      </trkpt>
      <trkpt lat="44.29814" lon="3.32614">
        <ele>659.73</ele>
        <time>2024-11-06T00:37:48.558Z</time>
      </trkpt>
      <trkpt lat="44.29799" lon="3.32613">
        <ele>660.93</ele>
        <time>2024-11-06T00:38:03.438Z</time>
      </trkpt>
      <trkpt lat="44.29792" lon="3.32608">
        <ele>662.01</ele>
        <time>2024-11-06T00:38:18.319Z</time>
      </trkpt>
      <trkpt lat="44.2979" lon="3.32606">
        <ele>663.04</ele>
        <time>2024-11-06T00:38:33.200Z</time>
      </trkpt>
      <trkpt lat="44.29778" lon="3.32593">
        <ele>664.1</ele>
        <time>2024-11-06T00:38:48.084Z</time>
      </trkpt>
      <trkpt lat="44.29769" lon="3.32553">
        <ele>664.9</ele>
        <time>2024-11-06T00:39:02.972Z</time>
      </trkpt>
      <trkpt lat="44.29758" lon="3.32526">
        <ele>665.97</ele>
        <time>2024-11-06T00:39:17.864Z</time>
      </trkpt>
      <trkpt lat="44.29749" lon="3.32504">
        <ele>666.97</ele>
        <time>2024-11-06T00:39:32.759Z</time>
      </trkpt>
      <trkpt lat="44.29745" lon="3.32494">
        <ele>667.93</ele>
        <time>2024-11-06T00:39:47.655Z</time>
      </trkpt>
      <trkpt lat="44.29736" lon="3.32472">
        <ele>668.9</ele>
        <time>2024-11-06T00:40:02.554Z</time>
      </trkpt>
      <trkpt lat="44.29734" lon="3.32467">
        <ele>669.82</ele>
        <time>2024-11-06T00:40:17.454Z</time>
      </trkpt>
      <trkpt lat="44.29716" lon="3.32447">
        <ele>671.03</ele>
        <time>2024-11-06T00:40:32.357Z</time>
      </trkpt>
      <trkpt lat="44.29712" lon="3.32443">
        <ele>671.98</ele>
        <time>2024-11-06T00:40:47.261Z</time>
      </trkpt>
      <trkpt lat="44.29706" lon="3.32434">
        <ele>672.94</ele>
        <time>2024-11-06T00:41:02.167Z</time>
      </trkpt>
      <trkpt lat="44.29701" lon="3.32426">
        <ele>673.89</ele>
        <time>2024-11-06T00:41:17.074Z</time>
      </trkpt>
      <trkpt lat="44.29702" lon="3.32412">
        <ele>674.62</ele>
        <time>2024-11-06T00:41:31.983Z</time>
      </trkpt>
      <trkpt lat="44.29702" lon="3.32402">
        <ele>675.41</ele>
        <time>2024-11-06T00:41:46.893Z</time>
      </trkpt>
      <trkpt lat="44.29699" lon="3.32394">
        <ele>676.29</ele>
        <time>2024-11-06T00:42:01.804Z</time>
      </trkpt>
      <trkpt lat="44.29697" lon="3.32389">
        <ele>677.15</ele>
        <time>2024-11-06T00:42:16.715Z</time>
      </trkpt>
      <trkpt lat="44.29696" lon="3.32387">
        <ele>677.97</ele>
        <time>2024-11-06T00:42:31.627Z</time>
      </trkpt>
      <trkpt lat="44.29691" lon="3.3238">
        <ele>678.9</ele>
        <time>2024-11-06T00:42:46.540Z</time>
      </trkpt>
      <trkpt lat="44.29689" lon="3.32378">
        <ele>679.72</ele>
        <time>2024-11-06T00:43:01.453Z</time>
      </trkpt>
      <trkpt lat="44.29684" lon="3.32367">
        <ele>680.64</ele>
        <time>2024-11-06T00:43:16.368Z</time>
      </trkpt>
      <trkpt lat="44.29684" lon="3.32358">
        <ele>681.44</ele>
        <time>2024-11-06T00:43:31.284Z</time>
      </trkpt>
      <trkpt lat="44.29684" lon="3.32354">
        <ele>682.22</ele>
        <time>2024-11-06T00:43:46.200Z</time>
      </trkpt>
      <trkpt lat="44.29685" lon="3.32352">
        <ele>682.98</ele>
        <time>2024-11-06T00:44:01.116Z</time>
      </trkpt>
      <trkpt lat="44.2969" lon="3.32342">
        <ele>683.68</ele>
        <time>2024-11-06T00:44:16.034Z</time>
      </trkpt>
      <trkpt lat="44.29696" lon="3.32332">
        <ele>684.37</ele>
        <time>2024-11-06T00:44:30.953Z</time>
      </trkpt>
      <trkpt lat="44.29697" lon="3.32329">
        <ele>685.12</ele>
        <time>2024-11-06T00:44:45.873Z</time>
      </trkpt>
      <trkpt lat="44.29701" lon="3.32309">
        <ele>685.96</ele>
        <time>2024-11-06T00:45:00.795Z</time>
      </trkpt>
      <trkpt lat="44.29712" lon="3.32288">
        <ele>686.65</ele>
        <time>2024-11-06T00:45:15.720Z</time>
      </trkpt>
      <trkpt lat="44.29718" lon="3.32279">
        <ele>687.45</ele>
        <time>2024-11-06T00:45:30.646Z</time>
      </trkpt>
      <trkpt lat="44.29723" lon="3.32269">
        <ele>688.26</ele>
        <time>2024-11-06T00:45:45.574Z</time>
      </trkpt>
      <trkpt lat="44.29729" lon="3.32259">
        <ele>689.07</ele>
        <time>2024-11-06T00:46:00.503Z</time>
      </trkpt>
      <trkpt lat="44.29734" lon="3.32249">
        <ele>689.9</ele>
        <time>2024-11-06T00:46:15.434Z</time>
      </trkpt>
      <trkpt lat="44.29746" lon="3.32227">
        <ele>690.61</ele>
        <time>2024-11-06T00:46:30.368Z</time>
      </trkpt>
      <trkpt lat="44.29747" lon="3.32223">
        <ele>691.5</ele>
        <time>2024-11-06T00:46:45.302Z</time>
      </trkpt>
      <trkpt lat="44.29751" lon="3.32212">
        <ele>692.35</ele>
        <time>2024-11-06T00:47:00.238Z</time>
      </trkpt>
      <trkpt lat="44.29752" lon="3.32209">
        <ele>693.28</ele>
        <time>2024-11-06T00:47:15.174Z</time>
      </trkpt>
      <trkpt lat="44.29748" lon="3.32203">
        <ele>694.32</ele>
        <time>2024-11-06T00:47:30.111Z</time>
      </trkpt>
      <trkpt lat="44.29745" lon="3.32204">
        <ele>695.42</ele>
        <time>2024-11-06T00:47:45.049Z</time>
      </trkpt>
      <trkpt lat="44.29742" lon="3.32208">
        <ele>696.58</ele>
        <time>2024-11-06T00:47:59.987Z</time>
      </trkpt>
      <trkpt lat="44.29735" lon="3.32229">
        <ele>697.85</ele>
        <time>2024-11-06T00:48:14.928Z</time>
      </trkpt>
      <trkpt lat="44.29731" lon="3.32235">
        <ele>699.04</ele>
        <time>2024-11-06T00:48:29.870Z</time>
      </trkpt>
      <trkpt lat="44.29726" lon="3.32241">
        <ele>700.29</ele>
        <time>2024-11-06T00:48:44.813Z</time>
      </trkpt>
      <trkpt lat="44.29708" lon="3.32262">
        <ele>701.66</ele>
        <time>2024-11-06T00:48:59.760Z</time>
      </trkpt>
      <trkpt lat="44.29689" lon="3.32287">
        <ele>703.09</ele>
        <time>2024-11-06T00:49:14.711Z</time>
      </trkpt>
      <trkpt lat="44.29682" lon="3.32295">
        <ele>704.38</ele>
        <time>2024-11-06T00:49:29.663Z</time>
      </trkpt>
      <trkpt lat="44.29661" lon="3.32323">
        <ele>705.82</ele>
        <time>2024-11-06T00:49:44.620Z</time>
      </trkpt>
      <trkpt lat="44.29642" lon="3.32339">
        <ele>707.43</ele>
        <time>2024-11-06T00:49:59.581Z</time>
      </trkpt>
      <trkpt lat="44.29638" lon="3.32347">
        <ele>708.75</ele>
        <time>2024-11-06T00:50:14.543Z</time>
      </trkpt>
      <trkpt lat="44.29635" lon="3.32354">
        <ele>710.06</ele>
        <time>2024-11-06T00:50:29.506Z</time>
      </trkpt>
      <trkpt lat="44.29635" lon="3.32358">
        <ele>711.31</ele>
        <time>2024-11-06T00:50:44.469Z</time>
      </trkpt>
      <trkpt lat="44.29634" lon="3.32366">
        <ele>712.54</ele>
        <time>2024-11-06T00:50:59.433Z</time>
      </trkpt>
      <trkpt lat="44.29635" lon="3.32371">
        <ele>713.76</ele>
        <time>2024-11-06T00:51:14.398Z</time>
      </trkpt>
      <trkpt lat="44.29636" lon="3.32382">
        <ele>714.93</ele>
        <time>2024-11-06T00:51:29.364Z</time>
      </trkpt>
      <trkpt lat="44.2964" lon="3.32394">
        <ele>716.05</ele>
        <time>2024-11-06T00:51:44.331Z</time>
      </trkpt>
      <trkpt lat="44.29644" lon="3.32405">
        <ele>717.19</ele>
        <time>2024-11-06T00:51:59.300Z</time>
      </trkpt>
      <trkpt lat="44.29645" lon="3.32407">
        <ele>718.43</ele>
        <time>2024-11-06T00:52:14.269Z</time>
      </trkpt>
      <trkpt lat="44.29644" lon="3.32418">
        <ele>719.73</ele>
        <time>2024-11-06T00:52:29.239Z</time>
      </trkpt>
      <trkpt lat="44.29635" lon="3.32436">
        <ele>721.28</ele>
        <time>2024-11-06T00:52:44.212Z</time>
      </trkpt>
      <trkpt lat="44.29636" lon="3.32445">
        <ele>722.58</ele>
        <time>2024-11-06T00:52:59.186Z</time>
      </trkpt>
      <trkpt lat="44.29636" lon="3.32451">
        <ele>723.88</ele>
        <time>2024-11-06T00:53:14.161Z</time>
      </trkpt>
      <trkpt lat="44.2964" lon="3.32462">
        <ele>725.13</ele>
        <time>2024-11-06T00:53:29.137Z</time>
      </trkpt>
      <trkpt lat="44.29644" lon="3.32471">
        <ele>726.38</ele>
        <time>2024-11-06T00:53:44.114Z</time>
      </trkpt>
      <trkpt lat="44.29654" lon="3.32487">
        <ele>727.57</ele>
        <time>2024-11-06T00:53:59.094Z</time>
      </trkpt>
      <trkpt lat="44.29668" lon="3.32512">
        <ele>728.69</ele>
        <time>2024-11-06T00:54:14.077Z</time>
      </trkpt>
      <trkpt lat="44.29673" lon="3.3252">
        <ele>729.89</ele>
        <time>2024-11-06T00:54:29.062Z</time>
      </trkpt>
      <trkpt lat="44.29676" lon="3.32533">
        <ele>731.14</ele>
        <time>2024-11-06T00:54:44.048Z</time>
      </trkpt>
      <trkpt lat="44.29677" lon="3.32537">
        <ele>732.39</ele>
        <time>2024-11-06T00:54:59.035Z</time>
      </trkpt>
      <trkpt lat="44.29677" lon="3.32546">
        <ele>733.67</ele>
        <time>2024-11-06T00:55:14.023Z</time>
      </trkpt>
      <trkpt lat="44.29677" lon="3.32557">
        <ele>734.95</ele>
        <time>2024-11-06T00:55:29.012Z</time>
      </trkpt>
      <trkpt lat="44.29675" lon="3.3257">
        <ele>736.27</ele>
        <time>2024-11-06T00:55:44.002Z</time>
      </trkpt>
      <trkpt lat="44.2967" lon="3.32607">
        <ele>737.77</ele>
        <time>2024-11-06T00:55:58.997Z</time>
      </trkpt>
      <trkpt lat="44.29669" lon="3.32617">
        <ele>739.08</ele>
        <time>2024-11-06T00:56:13.993Z</time>
      </trkpt>
      <trkpt lat="44.29669" lon="3.32645">
        <ele>740.44</ele>
        <time>2024-11-06T00:56:28.992Z</time>
      </trkpt>
      <trkpt lat="44.29669" lon="3.32677">
        <ele>741.81</ele>
        <time>2024-11-06T00:56:43.995Z</time>
      </trkpt>
      <trkpt lat="44.29671" lon="3.32688">
        <ele>743.07</ele>
        <time>2024-11-06T00:56:58.999Z</time>
      </trkpt>
      <trkpt lat="44.29673" lon="3.32697">
        <ele>744.35</ele>
        <time>2024-11-06T00:57:14.004Z</time>
      </trkpt>
      <trkpt lat="44.29674" lon="3.327">
        <ele>745.54</ele>
        <time>2024-11-06T00:57:29.010Z</time>
      </trkpt>
      <trkpt lat="44.29682" lon="3.32714">
        <ele>746.75</ele>
        <time>2024-11-06T00:57:44.018Z</time>
      </trkpt>
      <trkpt lat="44.29694" lon="3.32726">
        <ele>747.91</ele>
        <time>2024-11-06T00:57:59.028Z</time>
      </trkpt>
      <trkpt lat="44.29705" lon="3.32737">
        <ele>749.1</ele>
        <time>2024-11-06T00:58:14.040Z</time>
      </trkpt>
      <trkpt lat="44.29711" lon="3.32743">
        <ele>750.26</ele>
        <time>2024-11-06T00:58:29.053Z</time>
      </trkpt>
      <trkpt lat="44.29718" lon="3.32761">
        <ele>751.53</ele>
        <time>2024-11-06T00:58:44.069Z</time>
      </trkpt>
      <trkpt lat="44.29719" lon="3.32763">
        <ele>752.66</ele>
        <time>2024-11-06T00:58:59.085Z</time>
      </trkpt>
      <trkpt lat="44.29725" lon="3.32769">
        <ele>753.76</ele>
        <time>2024-11-06T00:59:14.102Z</time>
      </trkpt>
      <trkpt lat="44.29726" lon="3.3277">
        <ele>754.85</ele>
        <time>2024-11-06T00:59:29.119Z</time>
      </trkpt>
      <trkpt lat="44.29744" lon="3.32778">
        <ele>755.76</ele>
        <time>2024-11-06T00:59:44.139Z</time>
      </trkpt>
      <trkpt lat="44.29749" lon="3.32784">
        <ele>756.85</ele>
        <time>2024-11-06T00:59:59.160Z</time>
      </trkpt>
      <trkpt lat="44.29751" lon="3.32787">
        <ele>757.94</ele>
        <time>2024-11-06T01:00:14.182Z</time>
      </trkpt>
      <trkpt lat="44.29754" lon="3.32794">
        <ele>759.07</ele>
        <time>2024-11-06T01:00:29.205Z</time>
      </trkpt>
      <trkpt lat="44.29758" lon="3.32805">
        <ele>760.22</ele>
        <time>2024-11-06T01:00:44.229Z</time>
      </trkpt>
      <trkpt lat="44.29763" lon="3.32816">
        <ele>761.4</ele>
        <time>2024-11-06T01:00:59.255Z</time>
      </trkpt>
      <trkpt lat="44.29774" lon="3.32826">
        <ele>762.46</ele>
        <time>2024-11-06T01:01:14.283Z</time>
      </trkpt>
      <trkpt lat="44.29777" lon="3.32828">
        <ele>763.55</ele>
        <time>2024-11-06T01:01:29.311Z</time>
      </trkpt>
      <trkpt lat="44.29799" lon="3.32843">
        <ele>764.56</ele>
        <time>2024-11-06T01:01:44.343Z</time>
      </trkpt>
      <trkpt lat="44.29806" lon="3.32848">
        <ele>765.69</ele>
        <time>2024-11-06T01:01:59.377Z</time>
      </trkpt>
      <trkpt lat="44.29825" lon="3.32864">
        <ele>766.97</ele>
        <time>2024-11-06T01:02:14.414Z</time>
      </trkpt>
      <trkpt lat="44.29828" lon="3.32866">
        <ele>768.13</ele>
        <time>2024-11-06T01:02:29.452Z</time>
      </trkpt>
      <trkpt lat="44.29832" lon="3.32871">
        <ele>769.33</ele>
        <time>2024-11-06T01:02:44.490Z</time>
      </trkpt>
      <trkpt lat="44.29835" lon="3.32875">
        <ele>770.53</ele>
        <time>2024-11-06T01:02:59.529Z</time>
      </trkpt>
      <trkpt lat="44.29848" lon="3.32891">
        <ele>771.91</ele>
        <time>2024-11-06T01:03:14.571Z</time>
      </trkpt>
      <trkpt lat="44.29853" lon="3.32894">
        <ele>773.08</ele>
        <time>2024-11-06T01:03:29.614Z</time>
      </trkpt>
      <trkpt lat="44.29861" lon="3.32899">
        <ele>774.3</ele>
        <time>2024-11-06T01:03:44.658Z</time>
      </trkpt>
      <trkpt lat="44.29862" lon="3.329">
        <ele>775.46</ele>
        <time>2024-11-06T01:03:59.702Z</time>
      </trkpt>
      <trkpt lat="44.29869" lon="3.32901">
        <ele>776.62</ele>
        <time>2024-11-06T01:04:14.748Z</time>
      </trkpt>
      <trkpt lat="44.29884" lon="3.32902">
        <ele>777.79</ele>
        <time>2024-11-06T01:04:29.796Z</time>
      </trkpt>
      <trkpt lat="44.299" lon="3.32901">
        <ele>778.82</ele>
        <time>2024-11-06T01:04:44.847Z</time>
      </trkpt>
      <trkpt lat="44.29941" lon="3.32898">
        <ele>779.77</ele>
        <time>2024-11-06T01:04:59.904Z</time>
      </trkpt>
      <trkpt lat="44.29951" lon="3.329">
        <ele>780.86</ele>
        <time>2024-11-06T01:05:14.963Z</time>
      </trkpt>
      <trkpt lat="44.29953" lon="3.32903">
        <ele>782.07</ele>
        <time>2024-11-06T01:05:30.022Z</time>
      </trkpt>
      <trkpt lat="44.29958" lon="3.32908">
        <ele>783.3</ele>
        <time>2024-11-06T01:05:45.082Z</time>
      </trkpt>
      <trkpt lat="44.29959" lon="3.32911">
        <ele>784.54</ele>
        <time>2024-11-06T01:06:00.143Z</time>
      </trkpt>
      <trkpt lat="44.29963" lon="3.32919">
        <ele>785.78</ele>
        <time>2024-11-06T01:06:15.205Z</time>
      </trkpt>
      <trkpt lat="44.29965" lon="3.32931">
        <ele>787.06</ele>
        <time>2024-11-06T01:06:30.268Z</time>
      </trkpt>
      <trkpt lat="44.29965" lon="3.32934">
        <ele>788.31</ele>
        <time>2024-11-06T01:06:45.331Z</time>
      </trkpt>
      <trkpt lat="44.29964" lon="3.32956">
        <ele>789.71</ele>
        <time>2024-11-06T01:07:00.397Z</time>
      </trkpt>
      <trkpt lat="44.29962" lon="3.32965">
        <ele>791.03</ele>
        <time>2024-11-06T01:07:15.464Z</time>
      </trkpt>
      <trkpt lat="44.29955" lon="3.33008">
        <ele>792.5</ele>
        <time>2024-11-06T01:07:30.536Z</time>
      </trkpt>
      <trkpt lat="44.29954" lon="3.3301">
        <ele>793.72</ele>
        <time>2024-11-06T01:07:45.608Z</time>
      </trkpt>
      <trkpt lat="44.29943" lon="3.3305">
        <ele>795.06</ele>
        <time>2024-11-06T01:08:00.685Z</time>
      </trkpt>
      <trkpt lat="44.29943" lon="3.33061">
        <ele>796.25</ele>
        <time>2024-11-06T01:08:15.763Z</time>
      </trkpt>
      <trkpt lat="44.29943" lon="3.33066">
        <ele>797.44</ele>
        <time>2024-11-06T01:08:30.842Z</time>
      </trkpt>
      <trkpt lat="44.29948" lon="3.33104">
        <ele>798.63</ele>
        <time>2024-11-06T01:08:45.926Z</time>
      </trkpt>
      <trkpt lat="44.29949" lon="3.3311">
        <ele>799.78</ele>
        <time>2024-11-06T01:09:01.010Z</time>
      </trkpt>
      <trkpt lat="44.2995" lon="3.33129">
        <ele>800.98</ele>
        <time>2024-11-06T01:09:16.096Z</time>
      </trkpt>
      <trkpt lat="44.29952" lon="3.3316">
        <ele>802.19</ele>
        <time>2024-11-06T01:09:31.186Z</time>
      </trkpt>
      <trkpt lat="44.29953" lon="3.33185">
        <ele>803.34</ele>
        <time>2024-11-06T01:09:46.279Z</time>
      </trkpt>
      <trkpt lat="44.29953" lon="3.3319">
        <ele>804.38</ele>
        <time>2024-11-06T01:10:01.372Z</time>
      </trkpt>
      <trkpt lat="44.29957" lon="3.33222">
        <ele>805.45</ele>
        <time>2024-11-06T01:10:16.469Z</time>
      </trkpt>
      <trkpt lat="44.29962" lon="3.33252">
        <ele>806.46</ele>
        <time>2024-11-06T01:10:31.570Z</time>
      </trkpt>
      <trkpt lat="44.29965" lon="3.33276">
        <ele>807.4</ele>
        <time>2024-11-06T01:10:46.674Z</time>
      </trkpt>
      <trkpt lat="44.29965" lon="3.33277">
        <ele>808.27</ele>
        <time>2024-11-06T01:11:01.778Z</time>
      </trkpt>
      <trkpt lat="44.29963" lon="3.33291">
        <ele>809.14</ele>
        <time>2024-11-06T01:11:16.883Z</time>
      </trkpt>
      <trkpt lat="44.29962" lon="3.33295">
        <ele>809.93</ele>
        <time>2024-11-06T01:11:31.989Z</time>
      </trkpt>
      <trkpt lat="44.29958" lon="3.33306">
        <ele>810.7</ele>
        <time>2024-11-06T01:11:47.096Z</time>
      </trkpt>
      <trkpt lat="44.29952" lon="3.33323">
        <ele>811.44</ele>
        <time>2024-11-06T01:12:02.205Z</time>
      </trkpt>
      <trkpt lat="44.29951" lon="3.33327">
        <ele>812.07</ele>
        <time>2024-11-06T01:12:17.315Z</time>
      </trkpt>
      <trkpt lat="44.29948" lon="3.33334">
        <ele>812.66</ele>
        <time>2024-11-06T01:12:32.426Z</time>
      </trkpt>
      <trkpt lat="44.29946" lon="3.3334">
        <ele>813.2</ele>
        <time>2024-11-06T01:12:47.538Z</time>
      </trkpt>
      <trkpt lat="44.29944" lon="3.33345">
        <ele>813.67</ele>
        <time>2024-11-06T01:13:02.650Z</time>
      </trkpt>
      <trkpt lat="44.29941" lon="3.33351">
        <ele>814.1</ele>
        <time>2024-11-06T01:13:17.763Z</time>
      </trkpt>
      <trkpt lat="44.29937" lon="3.33361">
        <ele>814.48</ele>
        <time>2024-11-06T01:13:32.877Z</time>
      </trkpt>
      <trkpt lat="44.29935" lon="3.33367">
        <ele>814.82</ele>
        <time>2024-11-06T01:13:47.992Z</time>
      </trkpt>
      <trkpt lat="44.29932" lon="3.33372">
        <ele>815.1</ele>
        <time>2024-11-06T01:14:03.108Z</time>
      </trkpt>
      <trkpt lat="44.29926" lon="3.33389">
        <ele>815.34</ele>
        <time>2024-11-06T01:14:18.226Z</time>
      </trkpt>
      <trkpt lat="44.29921" lon="3.33399">
        <ele>815.52</ele>
        <time>2024-11-06T01:14:33.345Z</time>
      </trkpt>
      <trkpt lat="44.29917" lon="3.3341">
        <ele>815.63</ele>
        <time>2024-11-06T01:14:48.466Z</time>
      </trkpt>
      <trkpt lat="44.29912" lon="3.33421">
        <ele>815.71</ele>
        <time>2024-11-06T01:15:03.588Z</time>
      </trkpt>
      <trkpt lat="44.29908" lon="3.33432">
        <ele>815.75</ele>
        <time>2024-11-06T01:15:18.712Z</time>
      </trkpt>
      <trkpt lat="44.29901" lon="3.33448">
        <ele>815.76</ele>
        <time>2024-11-06T01:15:33.838Z</time>
      </trkpt>
      <trkpt lat="44.29892" lon="3.3347">
        <ele>815.7</ele>
        <time>2024-11-06T01:15:48.967Z</time>
      </trkpt>
      <trkpt lat="44.29888" lon="3.33481">
        <ele>815.61</ele>
        <time>2024-11-06T01:16:04.097Z</time>
      </trkpt>
      <trkpt lat="44.29881" lon="3.33497">
        <ele>815.47</ele>
        <time>2024-11-06T01:16:19.229Z</time>
      </trkpt>
      <trkpt lat="44.29874" lon="3.33513">
        <ele>815.33</ele>
        <time>2024-11-06T01:16:34.363Z</time>
      </trkpt>
      <trkpt lat="44.29871" lon="3.33521">
        <ele>815.16</ele>
        <time>2024-11-06T01:16:49.499Z</time>
      </trkpt>
      <trkpt lat="44.29867" lon="3.33529">
        <ele>814.98</ele>
        <time>2024-11-06T01:17:04.636Z</time>
      </trkpt>
      <trkpt lat="44.29849" lon="3.3356">
        <ele>814.73</ele>
        <time>2024-11-06T01:17:19.777Z</time>
      </trkpt>
      <trkpt lat="44.29844" lon="3.33567">
        <ele>814.5</ele>
        <time>2024-11-06T01:17:34.919Z</time>
      </trkpt>
      <trkpt lat="44.29838" lon="3.33577">
        <ele>814.23</ele>
        <time>2024-11-06T01:17:50.063Z</time>
      </trkpt>
      <trkpt lat="44.29832" lon="3.33586">
        <ele>813.97</ele>
        <time>2024-11-06T01:18:05.208Z</time>
      </trkpt>
      <trkpt lat="44.2982" lon="3.33605">
        <ele>813.67</ele>
        <time>2024-11-06T01:18:20.356Z</time>
      </trkpt>
      <trkpt lat="44.29814" lon="3.33614">
        <ele>813.39</ele>
        <time>2024-11-06T01:18:35.506Z</time>
      </trkpt>
      <trkpt lat="44.29808" lon="3.33623">
        <ele>813.09</ele>
        <time>2024-11-06T01:18:50.657Z</time>
      </trkpt>
      <trkpt lat="44.29802" lon="3.33632">
        <ele>812.78</ele>
        <time>2024-11-06T01:19:05.809Z</time>
      </trkpt>
      <trkpt lat="44.29793" lon="3.33646">
        <ele>812.47</ele>
        <time>2024-11-06T01:19:20.964Z</time>
      </trkpt>
      <trkpt lat="44.29787" lon="3.33656">
        <ele>812.17</ele>
        <time>2024-11-06T01:19:36.120Z</time>
      </trkpt>
      <trkpt lat="44.29778" lon="3.3367">
        <ele>811.86</ele>
        <time>2024-11-06T01:19:51.278Z</time>
      </trkpt>
      <trkpt lat="44.29763" lon="3.33693">
        <ele>811.53</ele>
        <time>2024-11-06T01:20:06.440Z</time>
      </trkpt>
      <trkpt lat="44.29748" lon="3.33716">
        <ele>811.24</ele>
        <time>2024-11-06T01:20:21.605Z</time>
      </trkpt>
      <trkpt lat="44.29718" lon="3.33762">
        <ele>810.91</ele>
        <time>2024-11-06T01:20:36.778Z</time>
      </trkpt>
      <trkpt lat="44.29703" lon="3.33786">
        <ele>810.58</ele>
        <time>2024-11-06T01:20:51.954Z</time>
      </trkpt>
      <trkpt lat="44.29676" lon="3.33827">
        <ele>810.3</ele>
        <time>2024-11-06T01:21:07.137Z</time>
      </trkpt>
      <trkpt lat="44.29664" lon="3.33846">
        <ele>810.02</ele>
        <time>2024-11-06T01:21:22.322Z</time>
      </trkpt>
      <trkpt lat="44.29649" lon="3.33869">
        <ele>809.75</ele>
        <time>2024-11-06T01:21:37.511Z</time>
      </trkpt>
      <trkpt lat="44.2964" lon="3.33883">
        <ele>809.48</ele>
        <time>2024-11-06T01:21:52.702Z</time>
      </trkpt>
      <trkpt lat="44.29607" lon="3.33934">
        <ele>809.19</ele>
        <time>2024-11-06T01:22:07.901Z</time>
      </trkpt>
      <trkpt lat="44.29586" lon="3.33967">
        <ele>808.95</ele>
        <time>2024-11-06T01:22:23.105Z</time>
      </trkpt>
      <trkpt lat="44.29574" lon="3.33985">
        <ele>808.73</ele>
        <time>2024-11-06T01:22:38.312Z</time>
      </trkpt>
      <trkpt lat="44.29562" lon="3.34004">
        <ele>808.5</ele>
        <time>2024-11-06T01:22:53.522Z</time>
      </trkpt>
      <trkpt lat="44.2955" lon="3.34022">
        <ele>808.28</ele>
        <time>2024-11-06T01:23:08.735Z</time>
      </trkpt>
      <trkpt lat="44.29544" lon="3.34032">
        <ele>808.06</ele>
        <time>2024-11-06T01:23:23.949Z</time>
      </trkpt>
      <trkpt lat="44.29537" lon="3.34039">
        <ele>807.84</ele>
        <time>2024-11-06T01:23:39.165Z</time>
      </trkpt>
      <trkpt lat="44.2953" lon="3.34046">
        <ele>807.64</ele>
        <time>2024-11-06T01:23:54.382Z</time>
      </trkpt>
      <trkpt lat="44.29527" lon="3.34048">
        <ele>807.45</ele>
        <time>2024-11-06T01:24:09.599Z</time>
      </trkpt>
      <trkpt lat="44.29517" lon="3.34054">
        <ele>807.28</ele>
        <time>2024-11-06T01:24:24.818Z</time>
      </trkpt>
      <trkpt lat="44.29505" lon="3.34062">
        <ele>807.12</ele>
        <time>2024-11-06T01:24:40.039Z</time>
      </trkpt>
      <trkpt lat="44.29485" lon="3.34074">
        <ele>806.97</ele>
        <time>2024-11-06T01:24:55.264Z</time>
      </trkpt>
      <trkpt lat="44.29468" lon="3.34084">
        <ele>806.79</ele>
        <time>2024-11-06T01:25:10.492Z</time>
      </trkpt>
      <trkpt lat="44.29444" lon="3.34099">
        <ele>806.66</ele>
        <time>2024-11-06T01:25:25.724Z</time>
      </trkpt>
      <trkpt lat="44.29419" lon="3.34115">
        <ele>806.52</ele>
        <time>2024-11-06T01:25:40.960Z</time>
      </trkpt>
      <trkpt lat="44.29395" lon="3.3413">
        <ele>806.38</ele>
        <time>2024-11-06T01:25:56.201Z</time>
      </trkpt>
      <trkpt lat="44.29391" lon="3.34132">
        <ele>806.23</ele>
        <time>2024-11-06T01:26:11.442Z</time>
      </trkpt>
      <trkpt lat="44.29391" lon="3.34132">
        <ele>806.09</ele>
        <time>2024-11-06T01:26:26.683Z</time>
      </trkpt>
      <trkpt lat="44.29383" lon="3.34138">
        <ele>805.96</ele>
        <time>2024-11-06T01:26:41.926Z</time>
      </trkpt>
      <trkpt lat="44.2938" lon="3.3414">
        <ele>805.82</ele>
        <time>2024-11-06T01:26:57.169Z</time>
      </trkpt>
      <trkpt lat="44.29379" lon="3.34142">
        <ele>805.69</ele>
        <time>2024-11-06T01:27:12.413Z</time>
      </trkpt>
      <trkpt lat="44.29374" lon="3.34152">
        <ele>805.55</ele>
        <time>2024-11-06T01:27:27.658Z</time>
      </trkpt>
      <trkpt lat="44.29371" lon="3.34157">
        <ele>805.42</ele>
        <time>2024-11-06T01:27:42.904Z</time>
      </trkpt>
      <trkpt lat="44.29369" lon="3.34162">
        <ele>805.28</ele>
        <time>2024-11-06T01:27:58.150Z</time>
      </trkpt>
      <trkpt lat="44.29367" lon="3.34168">
        <ele>805.16</ele>
        <time>2024-11-06T01:28:13.397Z</time>
      </trkpt>
      <trkpt lat="44.29365" lon="3.34174">
        <ele>805.03</ele>
        <time>2024-11-06T01:28:28.645Z</time>
      </trkpt>
      <trkpt lat="44.29357" lon="3.34197">
        <ele>804.89</ele>
        <time>2024-11-06T01:28:43.896Z</time>
      </trkpt>
      <trkpt lat="44.29346" lon="3.34231">
        <ele>804.72</ele>
        <time>2024-11-06T01:28:59.151Z</time>
      </trkpt>
      <trkpt lat="44.29342" lon="3.34242">
        <ele>804.61</ele>
        <time>2024-11-06T01:29:14.407Z</time>
      </trkpt>
      <trkpt lat="44.29333" lon="3.3427">
        <ele>804.48</ele>
        <time>2024-11-06T01:29:29.667Z</time>
      </trkpt>
      <trkpt lat="44.29329" lon="3.34282">
        <ele>804.35</ele>
        <time>2024-11-06T01:29:44.929Z</time>
      </trkpt>
      <trkpt lat="44.29327" lon="3.34287">
        <ele>804.24</ele>
        <time>2024-11-06T01:30:00.191Z</time>
      </trkpt>
      <trkpt lat="44.29325" lon="3.34293">
        <ele>804.13</ele>
        <time>2024-11-06T01:30:15.454Z</time>
      </trkpt>
      <trkpt lat="44.29322" lon="3.34298">
        <ele>804.02</ele>
        <time>2024-11-06T01:30:30.718Z</time>
      </trkpt>
      <trkpt lat="44.2932" lon="3.34303">
        <ele>803.91</ele>
        <time>2024-11-06T01:30:45.982Z</time>
      </trkpt>
      <trkpt lat="44.29315" lon="3.34314">
        <ele>803.8</ele>
        <time>2024-11-06T01:31:01.248Z</time>
      </trkpt>
      <trkpt lat="44.29314" lon="3.34315">
        <ele>803.7</ele>
        <time>2024-11-06T01:31:16.514Z</time>
      </trkpt>
      <trkpt lat="44.29309" lon="3.34323">
        <ele>803.6</ele>
        <time>2024-11-06T01:31:31.781Z</time>
      </trkpt>
      <trkpt lat="44.29303" lon="3.34333">
        <ele>803.51</ele>
        <time>2024-11-06T01:31:47.050Z</time>
      </trkpt>
      <trkpt lat="44.29301" lon="3.34338">
        <ele>803.43</ele>
        <time>2024-11-06T01:32:02.319Z</time>
      </trkpt>
      <trkpt lat="44.29295" lon="3.34348">
        <ele>803.36</ele>
        <time>2024-11-06T01:32:17.590Z</time>
      </trkpt>
      <trkpt lat="44.29286" lon="3.34362">
        <ele>803.29</ele>
        <time>2024-11-06T01:32:32.863Z</time>
      </trkpt>
      <trkpt lat="44.29238" lon="3.34444">
        <ele>803.26</ele>
        <time>2024-11-06T01:32:48.148Z</time>
      </trkpt>
      <trkpt lat="44.29232" lon="3.34454">
        <ele>803.2</ele>
        <time>2024-11-06T01:33:03.435Z</time>
      </trkpt>
      <trkpt lat="44.29215" lon="3.34483">
        <ele>803.14</ele>
        <time>2024-11-06T01:33:18.726Z</time>
      </trkpt>
      <trkpt lat="44.29203" lon="3.34503">
        <ele>803.09</ele>
        <time>2024-11-06T01:33:34.020Z</time>
      </trkpt>
      <trkpt lat="44.29197" lon="3.34511">
        <ele>803.07</ele>
        <time>2024-11-06T01:33:49.315Z</time>
      </trkpt>
      <trkpt lat="44.29182" lon="3.34534">
        <ele>803.05</ele>
        <time>2024-11-06T01:34:04.614Z</time>
      </trkpt>
      <trkpt lat="44.29166" lon="3.34556">
        <ele>803.05</ele>
        <time>2024-11-06T01:34:19.917Z</time>
      </trkpt>
      <trkpt lat="44.2916" lon="3.34565">
        <ele>803.04</ele>
        <time>2024-11-06T01:34:35.221Z</time>
      </trkpt>
      <trkpt lat="44.29155" lon="3.34572">
        <ele>803.04</ele>
        <time>2024-11-06T01:34:50.526Z</time>
      </trkpt>
      <trkpt lat="44.29138" lon="3.34597">
        <ele>803.07</ele>
        <time>2024-11-06T01:35:05.835Z</time>
      </trkpt>
      <trkpt lat="44.29126" lon="3.34615">
        <ele>803.13</ele>
        <time>2024-11-06T01:35:21.147Z</time>
      </trkpt>
      <trkpt lat="44.2911" lon="3.34638">
        <ele>803.22</ele>
        <time>2024-11-06T01:35:36.462Z</time>
      </trkpt>
      <trkpt lat="44.29095" lon="3.34661">
        <ele>803.27</ele>
        <time>2024-11-06T01:35:51.781Z</time>
      </trkpt>
      <trkpt lat="44.29076" lon="3.34688">
        <ele>803.27</ele>
        <time>2024-11-06T01:36:07.104Z</time>
      </trkpt>
      <trkpt lat="44.29067" lon="3.34702">
        <ele>803.31</ele>
        <time>2024-11-06T01:36:22.430Z</time>
      </trkpt>
      <trkpt lat="44.29052" lon="3.34724">
        <ele>803.38</ele>
        <time>2024-11-06T01:36:37.759Z</time>
      </trkpt>
      <trkpt lat="44.29027" lon="3.3476">
        <ele>803.46</ele>
        <time>2024-11-06T01:36:53.094Z</time>
      </trkpt>
      <trkpt lat="44.29021" lon="3.34769">
        <ele>803.56</ele>
        <time>2024-11-06T01:37:08.430Z</time>
      </trkpt>
      <trkpt lat="44.29009" lon="3.34787">
        <ele>803.67</ele>
        <time>2024-11-06T01:37:23.769Z</time>
      </trkpt>
      <trkpt lat="44.29003" lon="3.34797">
        <ele>803.78</ele>
        <time>2024-11-06T01:37:39.110Z</time>
      </trkpt>
      <trkpt lat="44.28991" lon="3.34815">
        <ele>803.91</ele>
        <time>2024-11-06T01:37:54.453Z</time>
      </trkpt>
      <trkpt lat="44.28966" lon="3.34851">
        <ele>804.08</ele>
        <time>2024-11-06T01:38:09.802Z</time>
      </trkpt>
      <trkpt lat="44.28964" lon="3.34854">
        <ele>804.22</ele>
        <time>2024-11-06T01:38:25.152Z</time>
      </trkpt>
      <trkpt lat="44.28958" lon="3.34865">
        <ele>804.37</ele>
        <time>2024-11-06T01:38:40.503Z</time>
      </trkpt>
      <trkpt lat="44.2895" lon="3.3488">
        <ele>804.55</ele>
        <time>2024-11-06T01:38:55.856Z</time>
      </trkpt>
      <trkpt lat="44.28926" lon="3.34922">
        <ele>804.74</ele>
        <time>2024-11-06T01:39:11.216Z</time>
      </trkpt>
      <trkpt lat="44.28924" lon="3.34925">
        <ele>804.93</ele>
        <time>2024-11-06T01:39:26.576Z</time>
      </trkpt>
      <trkpt lat="44.28915" lon="3.34941">
        <ele>805.15</ele>
        <time>2024-11-06T01:39:41.938Z</time>
      </trkpt>
      <trkpt lat="44.28909" lon="3.34951">
        <ele>805.37</ele>
        <time>2024-11-06T01:39:57.302Z</time>
      </trkpt>
      <trkpt lat="44.28903" lon="3.3496">
        <ele>805.6</ele>
        <time>2024-11-06T01:40:12.667Z</time>
      </trkpt>
      <trkpt lat="44.2889" lon="3.34983">
        <ele>805.83</ele>
        <time>2024-11-06T01:40:28.036Z</time>
      </trkpt>
      <trkpt lat="44.2887" lon="3.35016">
        <ele>806.1</ele>
        <time>2024-11-06T01:40:43.410Z</time>
      </trkpt>
      <trkpt lat="44.28865" lon="3.35025">
        <ele>806.34</ele>
        <time>2024-11-06T01:40:58.785Z</time>
      </trkpt>
      <trkpt lat="44.28857" lon="3.35041">
        <ele>806.61</ele>
        <time>2024-11-06T01:41:14.162Z</time>
      </trkpt>
      <trkpt lat="44.28855" lon="3.35044">
        <ele>806.87</ele>
        <time>2024-11-06T01:41:29.540Z</time>
      </trkpt>
      <trkpt lat="44.28851" lon="3.35057">
        <ele>807.14</ele>
        <time>2024-11-06T01:41:44.919Z</time>
      </trkpt>
      <trkpt lat="44.28837" lon="3.35097">
        <ele>807.4</ele>
        <time>2024-11-06T01:42:00.303Z</time>
      </trkpt>
      <trkpt lat="44.2883" lon="3.3512">
        <ele>807.68</ele>
        <time>2024-11-06T01:42:15.690Z</time>
      </trkpt>
      <trkpt lat="44.28824" lon="3.35137">
        <ele>807.96</ele>
        <time>2024-11-06T01:42:31.079Z</time>
      </trkpt>
      <trkpt lat="44.28819" lon="3.35154">
        <ele>808.24</ele>
        <time>2024-11-06T01:42:46.470Z</time>
      </trkpt>
      <trkpt lat="44.28811" lon="3.35177">
        <ele>808.52</ele>
        <time>2024-11-06T01:43:01.864Z</time>
      </trkpt>
      <trkpt lat="44.28808" lon="3.35188">
        <ele>808.83</ele>
        <time>2024-11-06T01:43:17.260Z</time>
      </trkpt>
      <trkpt lat="44.28799" lon="3.35217">
        <ele>809.16</ele>
        <time>2024-11-06T01:43:32.659Z</time>
      </trkpt>
      <trkpt lat="44.28793" lon="3.35234">
        <ele>809.49</ele>
        <time>2024-11-06T01:43:48.061Z</time>
      </trkpt>
      <trkpt lat="44.28789" lon="3.35246">
        <ele>809.82</ele>
        <time>2024-11-06T01:44:03.464Z</time>
      </trkpt>
      <trkpt lat="44.2878" lon="3.35274">
        <ele>810.19</ele>
        <time>2024-11-06T01:44:18.871Z</time>
      </trkpt>
      <trkpt lat="44.28775" lon="3.35292">
        <ele>810.54</ele>
        <time>2024-11-06T01:44:34.280Z</time>
      </trkpt>
      <trkpt lat="44.28758" lon="3.35343">
        <ele>810.81</ele>
        <time>2024-11-06T01:44:49.695Z</time>
      </trkpt>
      <trkpt lat="44.28747" lon="3.35378">
        <ele>811.11</ele>
        <time>2024-11-06T01:45:05.115Z</time>
      </trkpt>
      <trkpt lat="44.28724" lon="3.35452">
        <ele>811.51</ele>
        <time>2024-11-06T01:45:20.544Z</time>
      </trkpt>
      <trkpt lat="44.28716" lon="3.35475">
        <ele>811.87</ele>
        <time>2024-11-06T01:45:35.976Z</time>
      </trkpt>
      <trkpt lat="44.28705" lon="3.3551">
        <ele>812.2</ele>
        <time>2024-11-06T01:45:51.412Z</time>
      </trkpt>
      <trkpt lat="44.28693" lon="3.3555">
        <ele>812.56</ele>
        <time>2024-11-06T01:46:06.853Z</time>
      </trkpt>
      <trkpt lat="44.28682" lon="3.35584">
        <ele>812.91</ele>
        <time>2024-11-06T01:46:22.299Z</time>
      </trkpt>
      <trkpt lat="44.28665" lon="3.35636">
        <ele>813.3</ele>
        <time>2024-11-06T01:46:37.751Z</time>
      </trkpt>
      <trkpt lat="44.2866" lon="3.35652">
        <ele>813.63</ele>
        <time>2024-11-06T01:46:53.205Z</time>
      </trkpt>
      <trkpt lat="44.28651" lon="3.35675">
        <ele>813.94</ele>
        <time>2024-11-06T01:47:08.662Z</time>
      </trkpt>
      <trkpt lat="44.28622" lon="3.35746">
        <ele>814.26</ele>
        <time>2024-11-06T01:47:24.128Z</time>
      </trkpt>
      <trkpt lat="44.28608" lon="3.35778">
        <ele>814.63</ele>
        <time>2024-11-06T01:47:39.599Z</time>
      </trkpt>
      <trkpt lat="44.286" lon="3.358">
        <ele>814.99</ele>
        <time>2024-11-06T01:47:55.073Z</time>
      </trkpt>
      <trkpt lat="44.28593" lon="3.35817">
        <ele>815.33</ele>
        <time>2024-11-06T01:48:10.549Z</time>
      </trkpt>
      <trkpt lat="44.28588" lon="3.35827">
        <ele>815.68</ele>
        <time>2024-11-06T01:48:26.026Z</time>
      </trkpt>
      <trkpt lat="44.28584" lon="3.35838">
        <ele>816.01</ele>
        <time>2024-11-06T01:48:41.505Z</time>
      </trkpt>
      <trkpt lat="44.28559" lon="3.35898">
        <ele>816.41</ele>
        <time>2024-11-06T01:48:56.992Z</time>
      </trkpt>
      <trkpt lat="44.28551" lon="3.35919">
        <ele>816.73</ele>
        <time>2024-11-06T01:49:12.481Z</time>
      </trkpt>
      <trkpt lat="44.28544" lon="3.3593">
        <ele>817.04</ele>
        <time>2024-11-06T01:49:27.972Z</time>
      </trkpt>
      <trkpt lat="44.28531" lon="3.35945">
        <ele>817.36</ele>
        <time>2024-11-06T01:49:43.466Z</time>
      </trkpt>
      <trkpt lat="44.28528" lon="3.35948">
        <ele>817.68</ele>
        <time>2024-11-06T01:49:58.960Z</time>
      </trkpt>
      <trkpt lat="44.28522" lon="3.35953">
        <ele>817.99</ele>
        <time>2024-11-06T01:50:14.455Z</time>
      </trkpt>
      <trkpt lat="44.28489" lon="3.35984">
        <ele>818.3</ele>
        <time>2024-11-06T01:50:29.957Z</time>
      </trkpt>
      <trkpt lat="44.28482" lon="3.3599">
        <ele>818.61</ele>
        <time>2024-11-06T01:50:45.460Z</time>
      </trkpt>
      <trkpt lat="44.28477" lon="3.35999">
        <ele>818.91</ele>
        <time>2024-11-06T01:51:00.964Z</time>
      </trkpt>
      <trkpt lat="44.28477" lon="3.36001">
        <ele>819.23</ele>
        <time>2024-11-06T01:51:16.469Z</time>
      </trkpt>
      <trkpt lat="44.28476" lon="3.36005">
        <ele>819.55</ele>
        <time>2024-11-06T01:51:31.974Z</time>
      </trkpt>
      <trkpt lat="44.28466" lon="3.36008">
        <ele>819.86</ele>
        <time>2024-11-06T01:51:47.481Z</time>
      </trkpt>
      <trkpt lat="44.28459" lon="3.3601">
        <ele>820.2</ele>
        <time>2024-11-06T01:52:02.989Z</time>
      </trkpt>
      <trkpt lat="44.28445" lon="3.36019">
        <ele>820.53</ele>
        <time>2024-11-06T01:52:18.499Z</time>
      </trkpt>
      <trkpt lat="44.28416" lon="3.36036">
        <ele>820.93</ele>
        <time>2024-11-06T01:52:34.014Z</time>
      </trkpt>
      <trkpt lat="44.28408" lon="3.36041">
        <ele>821.26</ele>
        <time>2024-11-06T01:52:49.531Z</time>
      </trkpt>
      <trkpt lat="44.28392" lon="3.36051">
        <ele>821.61</ele>
        <time>2024-11-06T01:53:05.051Z</time>
      </trkpt>
      <trkpt lat="44.28371" lon="3.36064">
        <ele>821.95</ele>
        <time>2024-11-06T01:53:20.574Z</time>
      </trkpt>
      <trkpt lat="44.28351" lon="3.36076">
        <ele>822.31</ele>
        <time>2024-11-06T01:53:36.101Z</time>
      </trkpt>
      <trkpt lat="44.28338" lon="3.36084">
        <ele>822.66</ele>
        <time>2024-11-06T01:53:51.630Z</time>
      </trkpt>
      <trkpt lat="44.28331" lon="3.36089">
        <ele>823.03</ele>
        <time>2024-11-06T01:54:07.160Z</time>
      </trkpt>
      <trkpt lat="44.28302" lon="3.36107">
        <ele>823.47</ele>
        <time>2024-11-06T01:54:22.695Z</time>
      </trkpt>
      <trkpt lat="44.2827" lon="3.36128">
        <ele>823.95</ele>
        <time>2024-11-06T01:54:38.236Z</time>
      </trkpt>
      <trkpt lat="44.28238" lon="3.36149">
        <ele>824.33</ele>
        <time>2024-11-06T01:54:53.783Z</time>
      </trkpt>
      <trkpt lat="44.28229" lon="3.36154">
        <ele>824.73</ele>
        <time>2024-11-06T01:55:09.331Z</time>
      </trkpt>
      <trkpt lat="44.282" lon="3.36169">
        <ele>825.12</ele>
        <time>2024-11-06T01:55:24.884Z</time>
      </trkpt>
      <trkpt lat="44.28159" lon="3.36191">
        <ele>825.62</ele>
        <time>2024-11-06T01:55:40.444Z</time>
      </trkpt>
      <trkpt lat="44.28126" lon="3.36209">
        <ele>826.15</ele>
        <time>2024-11-06T01:55:56.010Z</time>
      </trkpt>
      <trkpt lat="44.28117" lon="3.36213">
        <ele>826.61</ele>
        <time>2024-11-06T01:56:11.577Z</time>
      </trkpt>
      <trkpt lat="44.28101" lon="3.36222">
        <ele>827.08</ele>
        <time>2024-11-06T01:56:27.147Z</time>
      </trkpt>
      <trkpt lat="44.28088" lon="3.36228">
        <ele>827.56</ele>
        <time>2024-11-06T01:56:42.719Z</time>
      </trkpt>
      <trkpt lat="44.28085" lon="3.3623">
        <ele>828.04</ele>
        <time>2024-11-06T01:56:58.292Z</time>
      </trkpt>
      <trkpt lat="44.28075" lon="3.36232">
        <ele>828.52</ele>
        <time>2024-11-06T01:57:13.867Z</time>
      </trkpt>
      <trkpt lat="44.28049" lon="3.36236">
        <ele>829.02</ele>
        <time>2024-11-06T01:57:29.446Z</time>
      </trkpt>
      <trkpt lat="44.28044" lon="3.36237">
        <ele>829.53</ele>
        <time>2024-11-06T01:57:45.026Z</time>
      </trkpt>
      <trkpt lat="44.27991" lon="3.36236">
        <ele>830.08</ele>
        <time>2024-11-06T01:58:00.614Z</time>
      </trkpt>
      <trkpt lat="44.27964" lon="3.36236">
        <ele>830.59</ele>
        <time>2024-11-06T01:58:16.206Z</time>
      </trkpt>
      <trkpt lat="44.27947" lon="3.36235">
        <ele>831.14</ele>
        <time>2024-11-06T01:58:31.801Z</time>
      </trkpt>
      <trkpt lat="44.2794" lon="3.36235">
        <ele>831.69</ele>
        <time>2024-11-06T01:58:47.397Z</time>
      </trkpt>
      <trkpt lat="44.2792" lon="3.36231">
        <ele>832.25</ele>
        <time>2024-11-06T01:59:02.996Z</time>
      </trkpt>
      <trkpt lat="44.27918" lon="3.3623">
        <ele>832.81</ele>
        <time>2024-11-06T01:59:18.596Z</time>
      </trkpt>
      <trkpt lat="44.27902" lon="3.36222">
        <ele>833.4</ele>
        <time>2024-11-06T01:59:34.199Z</time>
      </trkpt>
      <trkpt lat="44.27896" lon="3.36217">
        <ele>834</ele>
        <time>2024-11-06T01:59:49.803Z</time>
      </trkpt>
      <trkpt lat="44.27877" lon="3.36202">
        <ele>834.63</ele>
        <time>2024-11-06T02:00:05.410Z</time>
      </trkpt>
      <trkpt lat="44.27873" lon="3.362">
        <ele>835.24</ele>
        <time>2024-11-06T02:00:21.018Z</time>
      </trkpt>
      <trkpt lat="44.27854" lon="3.36192">
        <ele>835.87</ele>
        <time>2024-11-06T02:00:36.629Z</time>
      </trkpt>
      <trkpt lat="44.27837" lon="3.36189">
        <ele>836.51</ele>
        <time>2024-11-06T02:00:52.243Z</time>
      </trkpt>
      <trkpt lat="44.27835" lon="3.36189">
        <ele>837.15</ele>
        <time>2024-11-06T02:01:07.857Z</time>
      </trkpt>
      <trkpt lat="44.27817" lon="3.3619">
        <ele>837.83</ele>
        <time>2024-11-06T02:01:23.474Z</time>
      </trkpt>
      <trkpt lat="44.27815" lon="3.3619">
        <ele>838.5</ele>
        <time>2024-11-06T02:01:39.091Z</time>
      </trkpt>
      <trkpt lat="44.27804" lon="3.36195">
        <ele>839.2</ele>
        <time>2024-11-06T02:01:54.710Z</time>
      </trkpt>
      <trkpt lat="44.27803" lon="3.36195">
        <ele>839.89</ele>
        <time>2024-11-06T02:02:10.329Z</time>
      </trkpt>
      <trkpt lat="44.27783" lon="3.36205">
        <ele>840.61</ele>
        <time>2024-11-06T02:02:25.952Z</time>
      </trkpt>
      <trkpt lat="44.27775" lon="3.3621">
        <ele>841.32</ele>
        <time>2024-11-06T02:02:41.576Z</time>
      </trkpt>
      <trkpt lat="44.27744" lon="3.36226">
        <ele>842.09</ele>
        <time>2024-11-06T02:02:57.205Z</time>
      </trkpt>
      <trkpt lat="44.27729" lon="3.36233">
        <ele>842.9</ele>
        <time>2024-11-06T02:03:12.837Z</time>
      </trkpt>
      <trkpt lat="44.27716" lon="3.36239">
        <ele>843.68</ele>
        <time>2024-11-06T02:03:28.471Z</time>
      </trkpt>
      <trkpt lat="44.27698" lon="3.36248">
        <ele>844.49</ele>
        <time>2024-11-06T02:03:44.108Z</time>
      </trkpt>
      <trkpt lat="44.2769" lon="3.36251">
        <ele>845.28</ele>
        <time>2024-11-06T02:03:59.746Z</time>
      </trkpt>
      <trkpt lat="44.27674" lon="3.36256">
        <ele>846.1</ele>
        <time>2024-11-06T02:04:15.387Z</time>
      </trkpt>
      <trkpt lat="44.27651" lon="3.36257">
        <ele>846.91</ele>
        <time>2024-11-06T02:04:31.032Z</time>
      </trkpt>
      <trkpt lat="44.27646" lon="3.36256">
        <ele>847.7</ele>
        <time>2024-11-06T02:04:46.678Z</time>
      </trkpt>
      <trkpt lat="44.27584" lon="3.36247">
        <ele>848.56</ele>
        <time>2024-11-06T02:05:02.334Z</time>
      </trkpt>
      <trkpt lat="44.27562" lon="3.36244">
        <ele>849.41</ele>
        <time>2024-11-06T02:05:17.993Z</time>
      </trkpt>
      <trkpt lat="44.2756" lon="3.36244">
        <ele>850.22</ele>
        <time>2024-11-06T02:05:33.652Z</time>
      </trkpt>
      <trkpt lat="44.27544" lon="3.36244">
        <ele>851.06</ele>
        <time>2024-11-06T02:05:49.314Z</time>
      </trkpt>
      <trkpt lat="44.27521" lon="3.36243">
        <ele>851.9</ele>
        <time>2024-11-06T02:06:04.980Z</time>
      </trkpt>
      <trkpt lat="44.27508" lon="3.36243">
        <ele>852.73</ele>
        <time>2024-11-06T02:06:20.648Z</time>
      </trkpt>
      <trkpt lat="44.27481" lon="3.36242">
        <ele>853.58</ele>
        <time>2024-11-06T02:06:36.320Z</time>
      </trkpt>
      <trkpt lat="44.27472" lon="3.36242">
        <ele>854.41</ele>
        <time>2024-11-06T02:06:51.993Z</time>
      </trkpt>
      <trkpt lat="44.27455" lon="3.36237">
        <ele>855.26</ele>
        <time>2024-11-06T02:07:07.669Z</time>
      </trkpt>
      <trkpt lat="44.27444" lon="3.36234">
        <ele>856.1</ele>
        <time>2024-11-06T02:07:23.347Z</time>
      </trkpt>
      <trkpt lat="44.2742" lon="3.36224">
        <ele>856.94</ele>
        <time>2024-11-06T02:07:39.029Z</time>
      </trkpt>
      <trkpt lat="44.27395" lon="3.36211">
        <ele>857.79</ele>
        <time>2024-11-06T02:07:54.715Z</time>
      </trkpt>
      <trkpt lat="44.27379" lon="3.36203">
        <ele>858.62</ele>
        <time>2024-11-06T02:08:10.404Z</time>
      </trkpt>
      <trkpt lat="44.27367" lon="3.36193">
        <ele>859.47</ele>
        <time>2024-11-06T02:08:26.095Z</time>
      </trkpt>
      <trkpt lat="44.27351" lon="3.36181">
        <ele>860.32</ele>
        <time>2024-11-06T02:08:41.789Z</time>
      </trkpt>
      <trkpt lat="44.27311" lon="3.3614">
        <ele>861.23</ele>
        <time>2024-11-06T02:08:57.491Z</time>
      </trkpt>
      <trkpt lat="44.27309" lon="3.36138">
        <ele>862.05</ele>
        <time>2024-11-06T02:09:13.194Z</time>
      </trkpt>
      <trkpt lat="44.27303" lon="3.36128">
        <ele>862.88</ele>
        <time>2024-11-06T02:09:28.898Z</time>
      </trkpt>
      <trkpt lat="44.27294" lon="3.36115">
        <ele>863.7</ele>
        <time>2024-11-06T02:09:44.604Z</time>
      </trkpt>
      <trkpt lat="44.27282" lon="3.36091">
        <ele>864.53</ele>
        <time>2024-11-06T02:10:00.313Z</time>
      </trkpt>
      <trkpt lat="44.27275" lon="3.36077">
        <ele>865.35</ele>
        <time>2024-11-06T02:10:16.024Z</time>
      </trkpt>
      <trkpt lat="44.27265" lon="3.36057">
        <ele>866.18</ele>
        <time>2024-11-06T02:10:31.738Z</time>
      </trkpt>
      <trkpt lat="44.27241" lon="3.36009">
        <ele>867.03</ele>
        <time>2024-11-06T02:10:47.459Z</time>
      </trkpt>
      <trkpt lat="44.2724" lon="3.36006">
        <ele>867.84</ele>
        <time>2024-11-06T02:11:03.180Z</time>
      </trkpt>
      <trkpt lat="44.27235" lon="3.35999">
        <ele>868.67</ele>
        <time>2024-11-06T02:11:18.902Z</time>
      </trkpt>
      <trkpt lat="44.27232" lon="3.35994">
        <ele>869.49</ele>
        <time>2024-11-06T02:11:34.625Z</time>
      </trkpt>
      <trkpt lat="44.27227" lon="3.35986">
        <ele>870.31</ele>
        <time>2024-11-06T02:11:50.349Z</time>
      </trkpt>
      <trkpt lat="44.27218" lon="3.35975">
        <ele>871.14</ele>
        <time>2024-11-06T02:12:06.075Z</time>
      </trkpt>
      <trkpt lat="44.27216" lon="3.35973">
        <ele>871.95</ele>
        <time>2024-11-06T02:12:21.802Z</time>
      </trkpt>
      <trkpt lat="44.27201" lon="3.35959">
        <ele>872.8</ele>
        <time>2024-11-06T02:12:37.532Z</time>
      </trkpt>
      <trkpt lat="44.27182" lon="3.35942">
        <ele>873.66</ele>
        <time>2024-11-06T02:12:53.265Z</time>
      </trkpt>
      <trkpt lat="44.27136" lon="3.359">
        <ele>874.48</ele>
        <time>2024-11-06T02:13:09.007Z</time>
      </trkpt>
      <trkpt lat="44.2713" lon="3.35893">
        <ele>875.29</ele>
        <time>2024-11-06T02:13:24.750Z</time>
      </trkpt>
      <trkpt lat="44.27111" lon="3.35867">
        <ele>876.13</ele>
        <time>2024-11-06T02:13:40.498Z</time>
      </trkpt>
      <trkpt lat="44.27105" lon="3.3586">
        <ele>876.93</ele>
        <time>2024-11-06T02:13:56.247Z</time>
      </trkpt>
      <trkpt lat="44.27092" lon="3.3585">
        <ele>877.74</ele>
        <time>2024-11-06T02:14:11.998Z</time>
      </trkpt>
      <trkpt lat="44.27088" lon="3.35847">
        <ele>878.53</ele>
        <time>2024-11-06T02:14:27.750Z</time>
      </trkpt>
      <trkpt lat="44.27075" lon="3.35842">
        <ele>879.3</ele>
        <time>2024-11-06T02:14:43.504Z</time>
      </trkpt>
      <trkpt lat="44.27068" lon="3.3584">
        <ele>880.09</ele>
        <time>2024-11-06T02:14:59.259Z</time>
      </trkpt>
      <trkpt lat="44.27044" lon="3.35838">
        <ele>880.88</ele>
        <time>2024-11-06T02:15:15.018Z</time>
      </trkpt>
      <trkpt lat="44.27008" lon="3.35835">
        <ele>881.72</ele>
        <time>2024-11-06T02:15:30.783Z</time>
      </trkpt>
      <trkpt lat="44.26963" lon="3.35831">
        <ele>882.61</ele>
        <time>2024-11-06T02:15:46.555Z</time>
      </trkpt>
      <trkpt lat="44.26958" lon="3.35831">
        <ele>883.37</ele>
        <time>2024-11-06T02:16:02.328Z</time>
      </trkpt>
      <trkpt lat="44.26954" lon="3.3583">
        <ele>884.13</ele>
        <time>2024-11-06T02:16:18.101Z</time>
      </trkpt>
      <trkpt lat="44.26945" lon="3.35827">
        <ele>884.89</ele>
        <time>2024-11-06T02:16:33.876Z</time>
      </trkpt>
      <trkpt lat="44.26931" lon="3.3582">
        <ele>885.66</ele>
        <time>2024-11-06T02:16:49.653Z</time>
      </trkpt>
      <trkpt lat="44.26909" lon="3.35804">
        <ele>886.44</ele>
        <time>2024-11-06T02:17:05.434Z</time>
      </trkpt>
      <trkpt lat="44.26903" lon="3.35799">
        <ele>887.14</ele>
        <time>2024-11-06T02:17:21.216Z</time>
      </trkpt>
      <trkpt lat="44.26883" lon="3.35774">
        <ele>887.86</ele>
        <time>2024-11-06T02:17:37.003Z</time>
      </trkpt>
      <trkpt lat="44.26879" lon="3.35767">
        <ele>888.55</ele>
        <time>2024-11-06T02:17:52.791Z</time>
      </trkpt>
      <trkpt lat="44.26852" lon="3.35725">
        <ele>889.25</ele>
        <time>2024-11-06T02:18:08.585Z</time>
      </trkpt>
      <trkpt lat="44.26823" lon="3.35679">
        <ele>889.88</ele>
        <time>2024-11-06T02:18:24.386Z</time>
      </trkpt>
      <trkpt lat="44.26814" lon="3.35665">
        <ele>890.51</ele>
        <time>2024-11-06T02:18:40.189Z</time>
      </trkpt>
      <trkpt lat="44.26808" lon="3.35655">
        <ele>891.15</ele>
        <time>2024-11-06T02:18:55.994Z</time>
      </trkpt>
      <trkpt lat="44.26789" lon="3.35621">
        <ele>891.81</ele>
        <time>2024-11-06T02:19:11.804Z</time>
      </trkpt>
      <trkpt lat="44.26788" lon="3.35618">
        <ele>892.41</ele>
        <time>2024-11-06T02:19:27.614Z</time>
      </trkpt>
      <trkpt lat="44.26784" lon="3.35611">
        <ele>892.99</ele>
        <time>2024-11-06T02:19:43.425Z</time>
      </trkpt>
      <trkpt lat="44.26776" lon="3.35598">
        <ele>893.57</ele>
        <time>2024-11-06T02:19:59.238Z</time>
      </trkpt>
      <trkpt lat="44.26775" lon="3.35597">
        <ele>894.12</ele>
        <time>2024-11-06T02:20:15.051Z</time>
      </trkpt>
      <trkpt lat="44.26768" lon="3.3559">
        <ele>894.67</ele>
        <time>2024-11-06T02:20:30.866Z</time>
      </trkpt>
      <trkpt lat="44.26764" lon="3.35588">
        <ele>895.2</ele>
        <time>2024-11-06T02:20:46.682Z</time>
      </trkpt>
      <trkpt lat="44.2675" lon="3.3558">
        <ele>895.72</ele>
        <time>2024-11-06T02:21:02.500Z</time>
      </trkpt>
      <trkpt lat="44.26739" lon="3.35577">
        <ele>896.25</ele>
        <time>2024-11-06T02:21:18.320Z</time>
      </trkpt>
      <trkpt lat="44.26732" lon="3.35575">
        <ele>896.77</ele>
        <time>2024-11-06T02:21:34.141Z</time>
      </trkpt>
      <trkpt lat="44.26708" lon="3.35577">
        <ele>897.3</ele>
        <time>2024-11-06T02:21:49.966Z</time>
      </trkpt>
      <trkpt lat="44.26695" lon="3.35579">
        <ele>897.83</ele>
        <time>2024-11-06T02:22:05.793Z</time>
      </trkpt>
      <trkpt lat="44.26683" lon="3.3558">
        <ele>898.34</ele>
        <time>2024-11-06T02:22:21.622Z</time>
      </trkpt>
      <trkpt lat="44.26671" lon="3.35579">
        <ele>898.84</ele>
        <time>2024-11-06T02:22:37.453Z</time>
      </trkpt>
      <trkpt lat="44.26664" lon="3.35577">
        <ele>899.32</ele>
        <time>2024-11-06T02:22:53.285Z</time>
      </trkpt>
      <trkpt lat="44.26661" lon="3.35576">
        <ele>899.8</ele>
        <time>2024-11-06T02:23:09.117Z</time>
      </trkpt>
      <trkpt lat="44.26656" lon="3.35574">
        <ele>900.26</ele>
        <time>2024-11-06T02:23:24.950Z</time>
      </trkpt>
      <trkpt lat="44.26643" lon="3.35568">
        <ele>900.72</ele>
        <time>2024-11-06T02:23:40.785Z</time>
      </trkpt>
      <trkpt lat="44.26635" lon="3.35564">
        <ele>901.18</ele>
        <time>2024-11-06T02:23:56.622Z</time>
      </trkpt>
      <trkpt lat="44.26622" lon="3.35558">
        <ele>901.66</ele>
        <time>2024-11-06T02:24:12.461Z</time>
      </trkpt>
      <trkpt lat="44.26609" lon="3.35552">
        <ele>902.13</ele>
        <time>2024-11-06T02:24:28.302Z</time>
      </trkpt>
      <trkpt lat="44.26597" lon="3.35546">
        <ele>902.64</ele>
        <time>2024-11-06T02:24:44.145Z</time>
      </trkpt>
      <trkpt lat="44.26581" lon="3.35539">
        <ele>903.17</ele>
        <time>2024-11-06T02:24:59.991Z</time>
      </trkpt>
      <trkpt lat="44.26579" lon="3.35538">
        <ele>903.66</ele>
        <time>2024-11-06T02:25:15.837Z</time>
      </trkpt>
      <trkpt lat="44.2656" lon="3.35528">
        <ele>904.18</ele>
        <time>2024-11-06T02:25:31.686Z</time>
      </trkpt>
      <trkpt lat="44.2655" lon="3.35522">
        <ele>904.68</ele>
        <time>2024-11-06T02:25:47.537Z</time>
      </trkpt>
      <trkpt lat="44.26531" lon="3.35507">
        <ele>905.17</ele>
        <time>2024-11-06T02:26:03.392Z</time>
      </trkpt>
      <trkpt lat="44.26529" lon="3.35504">
        <ele>905.67</ele>
        <time>2024-11-06T02:26:19.247Z</time>
      </trkpt>
      <trkpt lat="44.26502" lon="3.35471">
        <ele>906.21</ele>
        <time>2024-11-06T02:26:35.108Z</time>
      </trkpt>
      <trkpt lat="44.26488" lon="3.35453">
        <ele>906.76</ele>
        <time>2024-11-06T02:26:50.972Z</time>
      </trkpt>
      <trkpt lat="44.2645" lon="3.35421">
        <ele>907.28</ele>
        <time>2024-11-06T02:27:06.843Z</time>
      </trkpt>
      <trkpt lat="44.26435" lon="3.35408">
        <ele>907.82</ele>
        <time>2024-11-06T02:27:22.717Z</time>
      </trkpt>
      <trkpt lat="44.26417" lon="3.35393">
        <ele>908.41</ele>
        <time>2024-11-06T02:27:38.594Z</time>
      </trkpt>
      <trkpt lat="44.26389" lon="3.35369">
        <ele>909.04</ele>
        <time>2024-11-06T02:27:54.476Z</time>
      </trkpt>
      <trkpt lat="44.26373" lon="3.35356">
        <ele>909.64</ele>
        <time>2024-11-06T02:28:10.361Z</time>
      </trkpt>
      <trkpt lat="44.26367" lon="3.35351">
        <ele>910.22</ele>
        <time>2024-11-06T02:28:26.248Z</time>
      </trkpt>
      <trkpt lat="44.26349" lon="3.35341">
        <ele>910.83</ele>
        <time>2024-11-06T02:28:42.138Z</time>
      </trkpt>
      <trkpt lat="44.26339" lon="3.35336">
        <ele>911.45</ele>
        <time>2024-11-06T02:28:58.029Z</time>
      </trkpt>
      <trkpt lat="44.26336" lon="3.35335">
        <ele>912.06</ele>
        <time>2024-11-06T02:29:13.921Z</time>
      </trkpt>
      <trkpt lat="44.26323" lon="3.35333">
        <ele>912.7</ele>
        <time>2024-11-06T02:29:29.815Z</time>
      </trkpt>
      <trkpt lat="44.2632" lon="3.35332">
        <ele>913.33</ele>
        <time>2024-11-06T02:29:45.709Z</time>
      </trkpt>
      <trkpt lat="44.26309" lon="3.35332">
        <ele>913.98</ele>
        <time>2024-11-06T02:30:01.605Z</time>
      </trkpt>
      <trkpt lat="44.26294" lon="3.35332">
        <ele>914.67</ele>
        <time>2024-11-06T02:30:17.504Z</time>
      </trkpt>
      <trkpt lat="44.26287" lon="3.35334">
        <ele>915.34</ele>
        <time>2024-11-06T02:30:33.404Z</time>
      </trkpt>
      <trkpt lat="44.26274" lon="3.35338">
        <ele>916.05</ele>
        <time>2024-11-06T02:30:49.306Z</time>
      </trkpt>
      <trkpt lat="44.26265" lon="3.3534">
        <ele>916.74</ele>
        <time>2024-11-06T02:31:05.209Z</time>
      </trkpt>
      <trkpt lat="44.26232" lon="3.35349">
        <ele>917.46</ele>
        <time>2024-11-06T02:31:21.118Z</time>
      </trkpt>
      <trkpt lat="44.26225" lon="3.3535">
        <ele>918.2</ele>
        <time>2024-11-06T02:31:37.028Z</time>
      </trkpt>
      <trkpt lat="44.26222" lon="3.3535">
        <ele>918.95</ele>
        <time>2024-11-06T02:31:52.938Z</time>
      </trkpt>
      <trkpt lat="44.26189" lon="3.35348">
        <ele>919.79</ele>
        <time>2024-11-06T02:32:08.853Z</time>
      </trkpt>
      <trkpt lat="44.26171" lon="3.35347">
        <ele>920.59</ele>
        <time>2024-11-06T02:32:24.771Z</time>
      </trkpt>
      <trkpt lat="44.2614" lon="3.35344">
        <ele>921.43</ele>
        <time>2024-11-06T02:32:40.694Z</time>
      </trkpt>
      <trkpt lat="44.26122" lon="3.35343">
        <ele>922.3</ele>
        <time>2024-11-06T02:32:56.620Z</time>
      </trkpt>
      <trkpt lat="44.26113" lon="3.35342">
        <ele>923.16</ele>
        <time>2024-11-06T02:33:12.548Z</time>
      </trkpt>
      <trkpt lat="44.261" lon="3.35342">
        <ele>924.05</ele>
        <time>2024-11-06T02:33:28.478Z</time>
      </trkpt>
      <trkpt lat="44.26064" lon="3.35339">
        <ele>924.99</ele>
        <time>2024-11-06T02:33:44.414Z</time>
      </trkpt>
      <trkpt lat="44.2605" lon="3.35338">
        <ele>925.92</ele>
        <time>2024-11-06T02:34:00.352Z</time>
      </trkpt>
      <trkpt lat="44.26037" lon="3.35339">
        <ele>926.87</ele>
        <time>2024-11-06T02:34:16.292Z</time>
      </trkpt>
      <trkpt lat="44.26031" lon="3.3534">
        <ele>927.81</ele>
        <time>2024-11-06T02:34:32.233Z</time>
      </trkpt>
      <trkpt lat="44.26023" lon="3.35343">
        <ele>928.75</ele>
        <time>2024-11-06T02:34:48.175Z</time>
      </trkpt>
      <trkpt lat="44.26007" lon="3.35352">
        <ele>929.73</ele>
        <time>2024-11-06T02:35:04.120Z</time>
      </trkpt>
      <trkpt lat="44.26006" lon="3.35353">
        <ele>930.7</ele>
        <time>2024-11-06T02:35:20.065Z</time>
      </trkpt>
      <trkpt lat="44.25997" lon="3.35364">
        <ele>931.69</ele>
        <time>2024-11-06T02:35:36.012Z</time>
      </trkpt>
      <trkpt lat="44.25982" lon="3.35379">
        <ele>932.69</ele>
        <time>2024-11-06T02:35:51.962Z</time>
      </trkpt>
      <trkpt lat="44.25975" lon="3.35387">
        <ele>933.7</ele>
        <time>2024-11-06T02:36:07.913Z</time>
      </trkpt>
      <trkpt lat="44.25961" lon="3.35402">
        <ele>934.74</ele>
        <time>2024-11-06T02:36:23.867Z</time>
      </trkpt>
      <trkpt lat="44.25949" lon="3.35416">
        <ele>935.8</ele>
        <time>2024-11-06T02:36:39.824Z</time>
      </trkpt>
      <trkpt lat="44.25943" lon="3.35421">
        <ele>936.87</ele>
        <time>2024-11-06T02:36:55.782Z</time>
      </trkpt>
      <trkpt lat="44.25928" lon="3.35435">
        <ele>937.98</ele>
        <time>2024-11-06T02:37:11.743Z</time>
      </trkpt>
      <trkpt lat="44.25918" lon="3.3544">
        <ele>939.1</ele>
        <time>2024-11-06T02:37:27.706Z</time>
      </trkpt>
      <trkpt lat="44.25916" lon="3.3544">
        <ele>940.22</ele>
        <time>2024-11-06T02:37:43.669Z</time>
      </trkpt>
      <trkpt lat="44.25907" lon="3.35442">
        <ele>941.36</ele>
        <time>2024-11-06T02:37:59.633Z</time>
      </trkpt>
      <trkpt lat="44.25905" lon="3.35442">
        <ele>942.5</ele>
        <time>2024-11-06T02:38:15.598Z</time>
      </trkpt>
      <trkpt lat="44.25898" lon="3.35444">
        <ele>943.66</ele>
        <time>2024-11-06T02:38:31.564Z</time>
      </trkpt>
      <trkpt lat="44.25881" lon="3.35443">
        <ele>944.86</ele>
        <time>2024-11-06T02:38:47.533Z</time>
      </trkpt>
      <trkpt lat="44.25872" lon="3.35443">
        <ele>946.03</ele>
        <time>2024-11-06T02:39:03.503Z</time>
      </trkpt>
      <trkpt lat="44.25827" lon="3.3544">
        <ele>947.31</ele>
        <time>2024-11-06T02:39:19.480Z</time>
      </trkpt>
      <trkpt lat="44.25808" lon="3.35439">
        <ele>948.54</ele>
        <time>2024-11-06T02:39:35.460Z</time>
      </trkpt>
      <trkpt lat="44.25774" lon="3.3544">
        <ele>949.83</ele>
        <time>2024-11-06T02:39:51.446Z</time>
      </trkpt>
      <trkpt lat="44.2575" lon="3.35449">
        <ele>951.06</ele>
        <time>2024-11-06T02:40:07.436Z</time>
      </trkpt>
      <trkpt lat="44.25738" lon="3.35456">
        <ele>952.27</ele>
        <time>2024-11-06T02:40:23.428Z</time>
      </trkpt>
      <trkpt lat="44.25715" lon="3.35472">
        <ele>953.51</ele>
        <time>2024-11-06T02:40:39.424Z</time>
      </trkpt>
      <trkpt lat="44.25691" lon="3.35489">
        <ele>954.73</ele>
        <time>2024-11-06T02:40:55.424Z</time>
      </trkpt>
      <trkpt lat="44.25675" lon="3.35501">
        <ele>955.96</ele>
        <time>2024-11-06T02:41:11.427Z</time>
      </trkpt>
      <trkpt lat="44.25651" lon="3.35517">
        <ele>957.22</ele>
        <time>2024-11-06T02:41:27.434Z</time>
      </trkpt>
      <trkpt lat="44.25603" lon="3.35551">
        <ele>958.54</ele>
        <time>2024-11-06T02:41:43.450Z</time>
      </trkpt>
      <trkpt lat="44.25579" lon="3.35568">
        <ele>959.72</ele>
        <time>2024-11-06T02:41:59.470Z</time>
      </trkpt>
      <trkpt lat="44.25576" lon="3.3557">
        <ele>960.82</ele>
        <time>2024-11-06T02:42:15.491Z</time>
      </trkpt>
      <trkpt lat="44.25551" lon="3.35589">
        <ele>961.92</ele>
        <time>2024-11-06T02:42:31.516Z</time>
      </trkpt>
      <trkpt lat="44.25528" lon="3.35607">
        <ele>962.98</ele>
        <time>2024-11-06T02:42:47.546Z</time>
      </trkpt>
      <trkpt lat="44.25498" lon="3.35629">
        <ele>964.06</ele>
        <time>2024-11-06T02:43:03.581Z</time>
      </trkpt>
      <trkpt lat="44.25492" lon="3.35632">
        <ele>965.08</ele>
        <time>2024-11-06T02:43:19.617Z</time>
      </trkpt>
      <trkpt lat="44.25486" lon="3.35635">
        <ele>966.06</ele>
        <time>2024-11-06T02:43:35.654Z</time>
      </trkpt>
      <trkpt lat="44.2547" lon="3.3564">
        <ele>967.03</ele>
        <time>2024-11-06T02:43:51.694Z</time>
      </trkpt>
      <trkpt lat="44.25467" lon="3.35641">
        <ele>967.95</ele>
        <time>2024-11-06T02:44:07.734Z</time>
      </trkpt>
      <trkpt lat="44.25449" lon="3.35641">
        <ele>968.87</ele>
        <time>2024-11-06T02:44:23.777Z</time>
      </trkpt>
      <trkpt lat="44.25445" lon="3.3564">
        <ele>969.72</ele>
        <time>2024-11-06T02:44:39.821Z</time>
      </trkpt>
      <trkpt lat="44.25439" lon="3.35638">
        <ele>970.55</ele>
        <time>2024-11-06T02:44:55.866Z</time>
      </trkpt>
      <trkpt lat="44.25437" lon="3.35637">
        <ele>971.33</ele>
        <time>2024-11-06T02:45:11.911Z</time>
      </trkpt>
      <trkpt lat="44.25429" lon="3.35632">
        <ele>972.08</ele>
        <time>2024-11-06T02:45:27.957Z</time>
      </trkpt>
      <trkpt lat="44.25426" lon="3.3563">
        <ele>972.79</ele>
        <time>2024-11-06T02:45:44.004Z</time>
      </trkpt>
      <trkpt lat="44.25418" lon="3.35623">
        <ele>973.47</ele>
        <time>2024-11-06T02:46:00.052Z</time>
      </trkpt>
      <trkpt lat="44.2541" lon="3.35617">
        <ele>974.12</ele>
        <time>2024-11-06T02:46:16.102Z</time>
      </trkpt>
      <trkpt lat="44.25409" lon="3.35616">
        <ele>974.72</ele>
        <time>2024-11-06T02:46:32.152Z</time>
      </trkpt>
      <trkpt lat="44.25403" lon="3.3561">
        <ele>975.27</ele>
        <time>2024-11-06T02:46:48.203Z</time>
      </trkpt>
      <trkpt lat="44.25401" lon="3.35607">
        <ele>975.8</ele>
        <time>2024-11-06T02:47:04.255Z</time>
      </trkpt>
      <trkpt lat="44.25398" lon="3.35601">
        <ele>976.29</ele>
        <time>2024-11-06T02:47:20.308Z</time>
      </trkpt>
      <trkpt lat="44.25396" lon="3.35597">
        <ele>976.75</ele>
        <time>2024-11-06T02:47:36.361Z</time>
      </trkpt>
      <trkpt lat="44.25392" lon="3.35584">
        <ele>977.19</ele>
        <time>2024-11-06T02:47:52.416Z</time>
      </trkpt>
      <trkpt lat="44.25386" lon="3.35563">
        <ele>977.59</ele>
        <time>2024-11-06T02:48:08.473Z</time>
      </trkpt>
      <trkpt lat="44.25384" lon="3.35548">
        <ele>977.97</ele>
        <time>2024-11-06T02:48:24.532Z</time>
      </trkpt>
      <trkpt lat="44.25382" lon="3.35536">
        <ele>978.32</ele>
        <time>2024-11-06T02:48:40.592Z</time>
      </trkpt>
      <trkpt lat="44.25382" lon="3.35534">
        <ele>978.64</ele>
        <time>2024-11-06T02:48:56.653Z</time>
      </trkpt>
      <trkpt lat="44.25383" lon="3.35492">
        <ele>978.99</ele>
        <time>2024-11-06T02:49:12.719Z</time>
      </trkpt>
      <trkpt lat="44.25385" lon="3.35461">
        <ele>979.28</ele>
        <time>2024-11-06T02:49:28.788Z</time>
      </trkpt>
      <trkpt lat="44.25385" lon="3.35446">
        <ele>979.52</ele>
        <time>2024-11-06T02:49:44.859Z</time>
      </trkpt>
      <trkpt lat="44.25385" lon="3.35442">
        <ele>979.73</ele>
        <time>2024-11-06T02:50:00.930Z</time>
      </trkpt>
      <trkpt lat="44.25383" lon="3.35417">
        <ele>979.94</ele>
        <time>2024-11-06T02:50:17.004Z</time>
      </trkpt>
      <trkpt lat="44.25383" lon="3.35417">
        <ele>980.1</ele>
        <time>2024-11-06T02:50:33.078Z</time>
      </trkpt>
      <trkpt lat="44.25381" lon="3.35405">
        <ele>980.25</ele>
        <time>2024-11-06T02:50:49.154Z</time>
      </trkpt>
      <trkpt lat="44.2538" lon="3.35402">
        <ele>980.38</ele>
        <time>2024-11-06T02:51:05.230Z</time>
      </trkpt>
      <trkpt lat="44.2537" lon="3.35376">
        <ele>980.5</ele>
        <time>2024-11-06T02:51:21.309Z</time>
      </trkpt>
      <trkpt lat="44.25362" lon="3.35362">
        <ele>980.61</ele>
        <time>2024-11-06T02:51:37.390Z</time>
      </trkpt>
      <trkpt lat="44.25342" lon="3.35336">
        <ele>980.7</ele>
        <time>2024-11-06T02:51:53.476Z</time>
      </trkpt>
      <trkpt lat="44.25319" lon="3.35317">
        <ele>980.73</ele>
        <time>2024-11-06T02:52:09.566Z</time>
      </trkpt>
      <trkpt lat="44.25315" lon="3.35316">
        <ele>980.75</ele>
        <time>2024-11-06T02:52:25.657Z</time>
      </trkpt>
      <trkpt lat="44.25301" lon="3.35311">
        <ele>980.74</ele>
        <time>2024-11-06T02:52:41.750Z</time>
      </trkpt>
      <trkpt lat="44.25288" lon="3.35311">
        <ele>980.73</ele>
        <time>2024-11-06T02:52:57.845Z</time>
      </trkpt>
      <trkpt lat="44.25281" lon="3.35311">
        <ele>980.71</ele>
        <time>2024-11-06T02:53:13.941Z</time>
      </trkpt>
      <trkpt lat="44.2527" lon="3.35313">
        <ele>980.67</ele>
        <time>2024-11-06T02:53:30.039Z</time>
      </trkpt>
      <trkpt lat="44.25244" lon="3.35318">
        <ele>980.63</ele>
        <time>2024-11-06T02:53:46.141Z</time>
      </trkpt>
      <trkpt lat="44.25238" lon="3.35319">
        <ele>980.57</ele>
        <time>2024-11-06T02:54:02.244Z</time>
      </trkpt>
      <trkpt lat="44.25235" lon="3.35319">
        <ele>980.51</ele>
        <time>2024-11-06T02:54:18.348Z</time>
      </trkpt>
      <trkpt lat="44.25225" lon="3.3532">
        <ele>980.43</ele>
        <time>2024-11-06T02:54:34.453Z</time>
      </trkpt>
      <trkpt lat="44.25203" lon="3.35319">
        <ele>980.38</ele>
        <time>2024-11-06T02:54:50.562Z</time>
      </trkpt>
      <trkpt lat="44.25195" lon="3.35318">
        <ele>980.3</ele>
        <time>2024-11-06T02:55:06.672Z</time>
      </trkpt>
      <trkpt lat="44.25186" lon="3.35318">
        <ele>980.22</ele>
        <time>2024-11-06T02:55:22.784Z</time>
      </trkpt>
      <trkpt lat="44.25177" lon="3.35317">
        <ele>980.12</ele>
        <time>2024-11-06T02:55:38.897Z</time>
      </trkpt>
      <trkpt lat="44.2515" lon="3.35315">
        <ele>980.04</ele>
        <time>2024-11-06T02:55:55.014Z</time>
      </trkpt>
      <trkpt lat="44.25147" lon="3.35315">
        <ele>979.93</ele>
        <time>2024-11-06T02:56:11.132Z</time>
      </trkpt>
      <trkpt lat="44.25127" lon="3.35317">
        <ele>979.81</ele>
        <time>2024-11-06T02:56:27.253Z</time>
      </trkpt>
      <trkpt lat="44.251" lon="3.35319">
        <ele>979.64</ele>
        <time>2024-11-06T02:56:43.378Z</time>
      </trkpt>
      <trkpt lat="44.25091" lon="3.35319">
        <ele>979.52</ele>
        <time>2024-11-06T02:56:59.505Z</time>
      </trkpt>
      <trkpt lat="44.25083" lon="3.3532">
        <ele>979.39</ele>
        <time>2024-11-06T02:57:15.633Z</time>
      </trkpt>
      <trkpt lat="44.25056" lon="3.35323">
        <ele>979.29</ele>
        <time>2024-11-06T02:57:31.765Z</time>
      </trkpt>
      <trkpt lat="44.25047" lon="3.35324">
        <ele>979.19</ele>
        <time>2024-11-06T02:57:47.899Z</time>
      </trkpt>
      <trkpt lat="44.25038" lon="3.35325">
        <ele>979.09</ele>
        <time>2024-11-06T02:58:04.034Z</time>
      </trkpt>
      <trkpt lat="44.2502" lon="3.35327">
        <ele>979.01</ele>
        <time>2024-11-06T02:58:20.172Z</time>
      </trkpt>
      <trkpt lat="44.25011" lon="3.35328">
        <ele>978.9</ele>
        <time>2024-11-06T02:58:36.312Z</time>
      </trkpt>
      <trkpt lat="44.24975" lon="3.35331">
        <ele>978.74</ele>
        <time>2024-11-06T02:58:52.457Z</time>
      </trkpt>
      <trkpt lat="44.24966" lon="3.35332">
        <ele>978.62</ele>
        <time>2024-11-06T02:59:08.604Z</time>
      </trkpt>
      <trkpt lat="44.24957" lon="3.35333">
        <ele>978.53</ele>
        <time>2024-11-06T02:59:24.752Z</time>
      </trkpt>
      <trkpt lat="44.24949" lon="3.35334">
        <ele>978.44</ele>
        <time>2024-11-06T02:59:40.902Z</time>
      </trkpt>
      <trkpt lat="44.24939" lon="3.35334">
        <ele>978.36</ele>
        <time>2024-11-06T02:59:57.053Z</time>
      </trkpt>
      <trkpt lat="44.24926" lon="3.35333">
        <ele>978.26</ele>
        <time>2024-11-06T03:00:13.206Z</time>
      </trkpt>
      <trkpt lat="44.24923" lon="3.35333">
        <ele>978.18</ele>
        <time>2024-11-06T03:00:29.360Z</time>
      </trkpt>
      <trkpt lat="44.24916" lon="3.35331">
        <ele>978.11</ele>
        <time>2024-11-06T03:00:45.515Z</time>
      </trkpt>
      <trkpt lat="44.24901" lon="3.35327">
        <ele>978.05</ele>
        <time>2024-11-06T03:01:01.672Z</time>
      </trkpt>
      <trkpt lat="44.24894" lon="3.35324">
        <ele>977.99</ele>
        <time>2024-11-06T03:01:17.830Z</time>
      </trkpt>
      <trkpt lat="44.24886" lon="3.3532">
        <ele>977.94</ele>
        <time>2024-11-06T03:01:33.990Z</time>
      </trkpt>
      <trkpt lat="44.24882" lon="3.35318">
        <ele>977.91</ele>
        <time>2024-11-06T03:01:50.151Z</time>
      </trkpt>
      <trkpt lat="44.24878" lon="3.35316">
        <ele>977.89</ele>
        <time>2024-11-06T03:02:06.312Z</time>
      </trkpt>
      <trkpt lat="44.24873" lon="3.35313">
        <ele>977.87</ele>
        <time>2024-11-06T03:02:22.474Z</time>
      </trkpt>
      <trkpt lat="44.24861" lon="3.35305">
        <ele>977.86</ele>
        <time>2024-11-06T03:02:38.638Z</time>
      </trkpt>
      <trkpt lat="44.24853" lon="3.35299">
        <ele>977.88</ele>
        <time>2024-11-06T03:02:54.804Z</time>
      </trkpt>
      <trkpt lat="44.24849" lon="3.35296">
        <ele>977.9</ele>
        <time>2024-11-06T03:03:10.970Z</time>
      </trkpt>
      <trkpt lat="44.24844" lon="3.35293">
        <ele>977.94</ele>
        <time>2024-11-06T03:03:27.137Z</time>
      </trkpt>
      <trkpt lat="44.24841" lon="3.35291">
        <ele>977.98</ele>
        <time>2024-11-06T03:03:43.305Z</time>
      </trkpt>
      <trkpt lat="44.24832" lon="3.35287">
        <ele>978.04</ele>
        <time>2024-11-06T03:03:59.474Z</time>
      </trkpt>
      <trkpt lat="44.2482" lon="3.35281">
        <ele>978.1</ele>
        <time>2024-11-06T03:04:15.645Z</time>
      </trkpt>
      <trkpt lat="44.24808" lon="3.35275">
        <ele>978.18</ele>
        <time>2024-11-06T03:04:31.818Z</time>
      </trkpt>
      <trkpt lat="44.24807" lon="3.35275">
        <ele>978.26</ele>
        <time>2024-11-06T03:04:47.991Z</time>
      </trkpt>
      <trkpt lat="44.24794" lon="3.35271">
        <ele>978.35</ele>
        <time>2024-11-06T03:05:04.167Z</time>
      </trkpt>
      <trkpt lat="44.24786" lon="3.35268">
        <ele>978.46</ele>
        <time>2024-11-06T03:05:20.344Z</time>
      </trkpt>
      <trkpt lat="44.24785" lon="3.35268">
        <ele>978.57</ele>
        <time>2024-11-06T03:05:36.521Z</time>
      </trkpt>
      <trkpt lat="44.24781" lon="3.35267">
        <ele>978.68</ele>
        <time>2024-11-06T03:05:52.699Z</time>
      </trkpt>
      <trkpt lat="44.24772" lon="3.35265">
        <ele>978.81</ele>
        <time>2024-11-06T03:06:08.878Z</time>
      </trkpt>
      <trkpt lat="44.24759" lon="3.35262">
        <ele>978.95</ele>
        <time>2024-11-06T03:06:25.059Z</time>
      </trkpt>
      <trkpt lat="44.24732" lon="3.35256">
        <ele>979.15</ele>
        <time>2024-11-06T03:06:41.245Z</time>
      </trkpt>
      <trkpt lat="44.24723" lon="3.35253">
        <ele>979.32</ele>
        <time>2024-11-06T03:06:57.432Z</time>
      </trkpt>
      <trkpt lat="44.24704" lon="3.35249">
        <ele>979.52</ele>
        <time>2024-11-06T03:07:13.622Z</time>
      </trkpt>
      <trkpt lat="44.24697" lon="3.35249">
        <ele>979.7</ele>
        <time>2024-11-06T03:07:29.813Z</time>
      </trkpt>
      <trkpt lat="44.24688" lon="3.35248">
        <ele>979.89</ele>
        <time>2024-11-06T03:07:46.006Z</time>
      </trkpt>
      <trkpt lat="44.24679" lon="3.35248">
        <ele>980.06</ele>
        <time>2024-11-06T03:08:02.200Z</time>
      </trkpt>
      <trkpt lat="44.2467" lon="3.35247">
        <ele>980.24</ele>
        <time>2024-11-06T03:08:18.396Z</time>
      </trkpt>
      <trkpt lat="44.2467" lon="3.35247">
        <ele>980.42</ele>
        <time>2024-11-06T03:08:34.592Z</time>
      </trkpt>
      <trkpt lat="44.24661" lon="3.35249">
        <ele>980.6</ele>
        <time>2024-11-06T03:08:50.789Z</time>
      </trkpt>
      <trkpt lat="44.24658" lon="3.3525">
        <ele>980.79</ele>
        <time>2024-11-06T03:09:06.987Z</time>
      </trkpt>
      <trkpt lat="44.24657" lon="3.35251">
        <ele>980.99</ele>
        <time>2024-11-06T03:09:23.185Z</time>
      </trkpt>
      <trkpt lat="44.24648" lon="3.35255">
        <ele>981.19</ele>
        <time>2024-11-06T03:09:39.384Z</time>
      </trkpt>
      <trkpt lat="44.24639" lon="3.3526">
        <ele>981.4</ele>
        <time>2024-11-06T03:09:55.585Z</time>
      </trkpt>
      <trkpt lat="44.24636" lon="3.35263">
        <ele>981.61</ele>
        <time>2024-11-06T03:10:11.786Z</time>
      </trkpt>
      <trkpt lat="44.24625" lon="3.35274">
        <ele>981.84</ele>
        <time>2024-11-06T03:10:27.990Z</time>
      </trkpt>
      <trkpt lat="44.24617" lon="3.35281">
        <ele>982.05</ele>
        <time>2024-11-06T03:10:44.195Z</time>
      </trkpt>
      <trkpt lat="44.24614" lon="3.35284">
        <ele>982.27</ele>
        <time>2024-11-06T03:11:00.401Z</time>
      </trkpt>
      <trkpt lat="44.2461" lon="3.35288">
        <ele>982.5</ele>
        <time>2024-11-06T03:11:16.608Z</time>
      </trkpt>
      <trkpt lat="44.246" lon="3.35301">
        <ele>982.74</ele>
        <time>2024-11-06T03:11:32.817Z</time>
      </trkpt>
      <trkpt lat="44.24597" lon="3.35305">
        <ele>982.96</ele>
        <time>2024-11-06T03:11:49.026Z</time>
      </trkpt>
      <trkpt lat="44.2459" lon="3.35313">
        <ele>983.17</ele>
        <time>2024-11-06T03:12:05.237Z</time>
      </trkpt>
      <trkpt lat="44.24569" lon="3.35337">
        <ele>983.44</ele>
        <time>2024-11-06T03:12:21.452Z</time>
      </trkpt>
      <trkpt lat="44.24559" lon="3.35349">
        <ele>983.68</ele>
        <time>2024-11-06T03:12:37.669Z</time>
      </trkpt>
      <trkpt lat="44.24554" lon="3.35355">
        <ele>983.91</ele>
        <time>2024-11-06T03:12:53.887Z</time>
      </trkpt>
      <trkpt lat="44.24549" lon="3.35362">
        <ele>984.15</ele>
        <time>2024-11-06T03:13:10.106Z</time>
      </trkpt>
      <trkpt lat="44.24537" lon="3.3538">
        <ele>984.36</ele>
        <time>2024-11-06T03:13:26.328Z</time>
      </trkpt>
      <trkpt lat="44.24535" lon="3.35383">
        <ele>984.63</ele>
        <time>2024-11-06T03:13:42.551Z</time>
      </trkpt>
      <trkpt lat="44.24526" lon="3.35406">
        <ele>984.88</ele>
        <time>2024-11-06T03:13:58.777Z</time>
      </trkpt>
      <trkpt lat="44.2452" lon="3.35421">
        <ele>985.18</ele>
        <time>2024-11-06T03:14:15.005Z</time>
      </trkpt>
      <trkpt lat="44.24517" lon="3.3544">
        <ele>985.48</ele>
        <time>2024-11-06T03:14:31.235Z</time>
      </trkpt>
      <trkpt lat="44.24514" lon="3.35451">
        <ele>985.79</ele>
        <time>2024-11-06T03:14:47.466Z</time>
      </trkpt>
      <trkpt lat="44.24512" lon="3.35463">
        <ele>986.12</ele>
        <time>2024-11-06T03:15:03.699Z</time>
      </trkpt>
      <trkpt lat="44.2451" lon="3.35475">
        <ele>986.44</ele>
        <time>2024-11-06T03:15:19.933Z</time>
      </trkpt>
      <trkpt lat="44.24508" lon="3.35486">
        <ele>986.77</ele>
        <time>2024-11-06T03:15:36.169Z</time>
      </trkpt>
      <trkpt lat="44.24504" lon="3.3551">
        <ele>987.12</ele>
        <time>2024-11-06T03:15:52.407Z</time>
      </trkpt>
      <trkpt lat="44.24488" lon="3.35595">
        <ele>987.49</ele>
        <time>2024-11-06T03:16:08.655Z</time>
      </trkpt>
      <trkpt lat="44.24483" lon="3.35621">
        <ele>987.83</ele>
        <time>2024-11-06T03:16:24.907Z</time>
      </trkpt>
      <trkpt lat="44.24479" lon="3.35636">
        <ele>988.18</ele>
        <time>2024-11-06T03:16:41.160Z</time>
      </trkpt>
      <trkpt lat="44.24475" lon="3.35648">
        <ele>988.55</ele>
        <time>2024-11-06T03:16:57.415Z</time>
      </trkpt>
      <trkpt lat="44.24472" lon="3.35659">
        <ele>988.93</ele>
        <time>2024-11-06T03:17:13.671Z</time>
      </trkpt>
      <trkpt lat="44.24469" lon="3.35669">
        <ele>989.29</ele>
        <time>2024-11-06T03:17:29.928Z</time>
      </trkpt>
      <trkpt lat="44.24459" lon="3.35692">
        <ele>989.68</ele>
        <time>2024-11-06T03:17:46.189Z</time>
      </trkpt>
      <trkpt lat="44.24458" lon="3.35695">
        <ele>990.03</ele>
        <time>2024-11-06T03:18:02.450Z</time>
      </trkpt>
      <trkpt lat="44.24452" lon="3.35708">
        <ele>990.38</ele>
        <time>2024-11-06T03:18:18.713Z</time>
      </trkpt>
      <trkpt lat="44.24444" lon="3.35723">
        <ele>990.71</ele>
        <time>2024-11-06T03:18:34.978Z</time>
      </trkpt>
      <trkpt lat="44.24428" lon="3.35753">
        <ele>991.06</ele>
        <time>2024-11-06T03:18:51.247Z</time>
      </trkpt>
      <trkpt lat="44.2442" lon="3.35768">
        <ele>991.39</ele>
        <time>2024-11-06T03:19:07.518Z</time>
      </trkpt>
      <trkpt lat="44.24412" lon="3.35784">
        <ele>991.72</ele>
        <time>2024-11-06T03:19:23.791Z</time>
      </trkpt>
      <trkpt lat="44.24407" lon="3.35794">
        <ele>992.03</ele>
        <time>2024-11-06T03:19:40.066Z</time>
      </trkpt>
      <trkpt lat="44.24401" lon="3.35803">
        <ele>992.32</ele>
        <time>2024-11-06T03:19:56.342Z</time>
      </trkpt>
      <trkpt lat="44.24392" lon="3.35816">
        <ele>992.61</ele>
        <time>2024-11-06T03:20:12.620Z</time>
      </trkpt>
      <trkpt lat="44.2439" lon="3.35819">
        <ele>992.86</ele>
        <time>2024-11-06T03:20:28.899Z</time>
      </trkpt>
      <trkpt lat="44.24385" lon="3.35824">
        <ele>993.07</ele>
        <time>2024-11-06T03:20:45.179Z</time>
      </trkpt>
      <trkpt lat="44.24365" lon="3.3584">
        <ele>993.27</ele>
        <time>2024-11-06T03:21:01.463Z</time>
      </trkpt>
      <trkpt lat="44.2436" lon="3.35844">
        <ele>993.46</ele>
        <time>2024-11-06T03:21:17.748Z</time>
      </trkpt>
      <trkpt lat="44.24342" lon="3.35857">
        <ele>993.63</ele>
        <time>2024-11-06T03:21:34.036Z</time>
      </trkpt>
      <trkpt lat="44.24306" lon="3.35883">
        <ele>993.78</ele>
        <time>2024-11-06T03:21:50.330Z</time>
      </trkpt>
      <trkpt lat="44.24282" lon="3.35901">
        <ele>993.91</ele>
        <time>2024-11-06T03:22:06.629Z</time>
      </trkpt>
      <trkpt lat="44.24266" lon="3.35912">
        <ele>994.04</ele>
        <time>2024-11-06T03:22:22.930Z</time>
      </trkpt>
      <trkpt lat="44.24246" lon="3.35926">
        <ele>994.14</ele>
        <time>2024-11-06T03:22:39.235Z</time>
      </trkpt>
      <trkpt lat="44.2424" lon="3.35931">
        <ele>994.2</ele>
        <time>2024-11-06T03:22:55.541Z</time>
      </trkpt>
      <trkpt lat="44.24239" lon="3.35932">
        <ele>994.24</ele>
        <time>2024-11-06T03:23:11.847Z</time>
      </trkpt>
      <trkpt lat="44.24227" lon="3.35943">
        <ele>994.25</ele>
        <time>2024-11-06T03:23:28.156Z</time>
      </trkpt>
      <trkpt lat="44.2422" lon="3.3595">
        <ele>994.24</ele>
        <time>2024-11-06T03:23:44.466Z</time>
      </trkpt>
      <trkpt lat="44.24216" lon="3.35953">
        <ele>994.21</ele>
        <time>2024-11-06T03:24:00.777Z</time>
      </trkpt>
      <trkpt lat="44.24205" lon="3.35964">
        <ele>994.16</ele>
        <time>2024-11-06T03:24:17.090Z</time>
      </trkpt>
      <trkpt lat="44.24193" lon="3.35974">
        <ele>994.06</ele>
        <time>2024-11-06T03:24:33.405Z</time>
      </trkpt>
      <trkpt lat="44.24182" lon="3.35984">
        <ele>993.94</ele>
        <time>2024-11-06T03:24:49.722Z</time>
      </trkpt>
      <trkpt lat="44.24163" lon="3.36001">
        <ele>993.79</ele>
        <time>2024-11-06T03:25:06.043Z</time>
      </trkpt>
      <trkpt lat="44.24152" lon="3.36012">
        <ele>993.61</ele>
        <time>2024-11-06T03:25:22.366Z</time>
      </trkpt>
      <trkpt lat="44.24133" lon="3.36029">
        <ele>993.4</ele>
        <time>2024-11-06T03:25:38.693Z</time>
      </trkpt>
      <trkpt lat="44.24126" lon="3.36036">
        <ele>993.17</ele>
        <time>2024-11-06T03:25:55.021Z</time>
      </trkpt>
      <trkpt lat="44.24096" lon="3.36064">
        <ele>992.91</ele>
        <time>2024-11-06T03:26:11.355Z</time>
      </trkpt>
      <trkpt lat="44.24081" lon="3.36077">
        <ele>992.64</ele>
        <time>2024-11-06T03:26:27.692Z</time>
      </trkpt>
      <trkpt lat="44.24066" lon="3.36091">
        <ele>992.34</ele>
        <time>2024-11-06T03:26:44.032Z</time>
      </trkpt>
      <trkpt lat="44.24047" lon="3.36108">
        <ele>992</ele>
        <time>2024-11-06T03:27:00.375Z</time>
      </trkpt>
      <trkpt lat="44.24036" lon="3.36119">
        <ele>991.66</ele>
        <time>2024-11-06T03:27:16.720Z</time>
      </trkpt>
      <trkpt lat="44.24021" lon="3.36132">
        <ele>991.28</ele>
        <time>2024-11-06T03:27:33.068Z</time>
      </trkpt>
      <trkpt lat="44.24006" lon="3.36146">
        <ele>990.91</ele>
        <time>2024-11-06T03:27:49.419Z</time>
      </trkpt>
      <trkpt lat="44.23995" lon="3.36157">
        <ele>990.51</ele>
        <time>2024-11-06T03:28:05.772Z</time>
      </trkpt>
      <trkpt lat="44.23983" lon="3.36167">
        <ele>990.11</ele>
        <time>2024-11-06T03:28:22.127Z</time>
      </trkpt>
      <trkpt lat="44.23976" lon="3.36174">
        <ele>989.69</ele>
        <time>2024-11-06T03:28:38.484Z</time>
      </trkpt>
      <trkpt lat="44.23957" lon="3.36191">
        <ele>989.23</ele>
        <time>2024-11-06T03:28:54.844Z</time>
      </trkpt>
      <trkpt lat="44.23938" lon="3.36208">
        <ele>988.74</ele>
        <time>2024-11-06T03:29:11.208Z</time>
      </trkpt>
      <trkpt lat="44.23931" lon="3.36215">
        <ele>988.25</ele>
        <time>2024-11-06T03:29:27.573Z</time>
      </trkpt>
      <trkpt lat="44.23908" lon="3.36236">
        <ele>987.68</ele>
        <time>2024-11-06T03:29:43.943Z</time>
      </trkpt>
      <trkpt lat="44.23874" lon="3.36267">
        <ele>987.12</ele>
        <time>2024-11-06T03:30:00.319Z</time>
      </trkpt>
      <trkpt lat="44.23856" lon="3.36284">
        <ele>986.64</ele>
        <time>2024-11-06T03:30:16.699Z</time>
      </trkpt>
      <trkpt lat="44.23833" lon="3.36305">
        <ele>986.13</ele>
        <time>2024-11-06T03:30:33.083Z</time>
      </trkpt>
      <trkpt lat="44.23799" lon="3.36336">
        <ele>985.49</ele>
        <time>2024-11-06T03:30:49.474Z</time>
      </trkpt>
      <trkpt lat="44.23781" lon="3.36353">
        <ele>984.86</ele>
        <time>2024-11-06T03:31:05.868Z</time>
      </trkpt>
      <trkpt lat="44.23762" lon="3.3637">
        <ele>984.25</ele>
        <time>2024-11-06T03:31:22.266Z</time>
      </trkpt>
      <trkpt lat="44.23754" lon="3.36377">
        <ele>983.69</ele>
        <time>2024-11-06T03:31:38.665Z</time>
      </trkpt>
      <trkpt lat="44.23672" lon="3.36453">
        <ele>983.09</ele>
        <time>2024-11-06T03:31:55.080Z</time>
      </trkpt>
      <trkpt lat="44.23664" lon="3.3646">
        <ele>982.5</ele>
        <time>2024-11-06T03:32:11.497Z</time>
      </trkpt>
      <trkpt lat="44.23653" lon="3.3647">
        <ele>981.9</ele>
        <time>2024-11-06T03:32:27.916Z</time>
      </trkpt>
      <trkpt lat="44.23645" lon="3.36477">
        <ele>981.33</ele>
        <time>2024-11-06T03:32:44.336Z</time>
      </trkpt>
      <trkpt lat="44.23634" lon="3.36488">
        <ele>980.74</ele>
        <time>2024-11-06T03:33:00.758Z</time>
      </trkpt>
      <trkpt lat="44.2363" lon="3.36491">
        <ele>980.18</ele>
        <time>2024-11-06T03:33:17.181Z</time>
      </trkpt>
      <trkpt lat="44.23619" lon="3.36501">
        <ele>979.65</ele>
        <time>2024-11-06T03:33:33.606Z</time>
      </trkpt>
      <trkpt lat="44.23604" lon="3.36515">
        <ele>979.09</ele>
        <time>2024-11-06T03:33:50.034Z</time>
      </trkpt>
      <trkpt lat="44.23597" lon="3.36522">
        <ele>978.54</ele>
        <time>2024-11-06T03:34:06.464Z</time>
      </trkpt>
      <trkpt lat="44.23567" lon="3.3655">
        <ele>978.02</ele>
        <time>2024-11-06T03:34:22.899Z</time>
      </trkpt>
      <trkpt lat="44.23555" lon="3.3656">
        <ele>977.48</ele>
        <time>2024-11-06T03:34:39.336Z</time>
      </trkpt>
      <trkpt lat="44.23548" lon="3.36567">
        <ele>976.94</ele>
        <time>2024-11-06T03:34:55.775Z</time>
      </trkpt>
      <trkpt lat="44.2354" lon="3.36574">
        <ele>976.41</ele>
        <time>2024-11-06T03:35:12.215Z</time>
      </trkpt>
      <trkpt lat="44.23533" lon="3.36581">
        <ele>975.89</ele>
        <time>2024-11-06T03:35:28.657Z</time>
      </trkpt>
      <trkpt lat="44.23525" lon="3.36588">
        <ele>975.37</ele>
        <time>2024-11-06T03:35:45.100Z</time>
      </trkpt>
      <trkpt lat="44.23503" lon="3.36608">
        <ele>974.84</ele>
        <time>2024-11-06T03:36:01.547Z</time>
      </trkpt>
      <trkpt lat="44.2347" lon="3.3663">
        <ele>974.33</ele>
        <time>2024-11-06T03:36:18.000Z</time>
      </trkpt>
      <trkpt lat="44.23465" lon="3.36633">
        <ele>973.84</ele>
        <time>2024-11-06T03:36:34.454Z</time>
      </trkpt>
      <trkpt lat="44.23441" lon="3.36646">
        <ele>973.33</ele>
        <time>2024-11-06T03:36:50.912Z</time>
      </trkpt>
      <trkpt lat="44.23429" lon="3.36653">
        <ele>972.85</ele>
        <time>2024-11-06T03:37:07.372Z</time>
      </trkpt>
      <trkpt lat="44.23419" lon="3.36658">
        <ele>972.36</ele>
        <time>2024-11-06T03:37:23.834Z</time>
      </trkpt>
      <trkpt lat="44.23408" lon="3.36664">
        <ele>971.88</ele>
        <time>2024-11-06T03:37:40.298Z</time>
      </trkpt>
      <trkpt lat="44.23395" lon="3.3667">
        <ele>971.43</ele>
        <time>2024-11-06T03:37:56.764Z</time>
      </trkpt>
      <trkpt lat="44.2337" lon="3.36683">
        <ele>970.96</ele>
        <time>2024-11-06T03:38:13.235Z</time>
      </trkpt>
      <trkpt lat="44.23349" lon="3.36694">
        <ele>970.49</ele>
        <time>2024-11-06T03:38:29.709Z</time>
      </trkpt>
      <trkpt lat="44.23315" lon="3.36712">
        <ele>970.02</ele>
        <time>2024-11-06T03:38:46.189Z</time>
      </trkpt>
      <trkpt lat="44.2329" lon="3.36725">
        <ele>969.56</ele>
        <time>2024-11-06T03:39:02.673Z</time>
      </trkpt>
      <trkpt lat="44.23281" lon="3.36729">
        <ele>969.11</ele>
        <time>2024-11-06T03:39:19.159Z</time>
      </trkpt>
      <trkpt lat="44.23273" lon="3.36733">
        <ele>968.68</ele>
        <time>2024-11-06T03:39:35.646Z</time>
      </trkpt>
      <trkpt lat="44.23256" lon="3.36742">
        <ele>968.24</ele>
        <time>2024-11-06T03:39:52.136Z</time>
      </trkpt>
      <trkpt lat="44.23235" lon="3.36753">
        <ele>967.78</ele>
        <time>2024-11-06T03:40:08.629Z</time>
      </trkpt>
      <trkpt lat="44.23222" lon="3.36759">
        <ele>967.32</ele>
        <time>2024-11-06T03:40:25.125Z</time>
      </trkpt>
      <trkpt lat="44.23217" lon="3.36762">
        <ele>966.88</ele>
        <time>2024-11-06T03:40:41.622Z</time>
      </trkpt>
      <trkpt lat="44.23214" lon="3.36764">
        <ele>966.43</ele>
        <time>2024-11-06T03:40:58.119Z</time>
      </trkpt>
      <trkpt lat="44.23197" lon="3.36773">
        <ele>965.95</ele>
        <time>2024-11-06T03:41:14.619Z</time>
      </trkpt>
      <trkpt lat="44.23176" lon="3.36784">
        <ele>965.49</ele>
        <time>2024-11-06T03:41:31.123Z</time>
      </trkpt>
      <trkpt lat="44.23138" lon="3.36804">
        <ele>965.03</ele>
        <time>2024-11-06T03:41:47.633Z</time>
      </trkpt>
      <trkpt lat="44.2313" lon="3.36808">
        <ele>964.58</ele>
        <time>2024-11-06T03:42:04.144Z</time>
      </trkpt>
      <trkpt lat="44.23113" lon="3.36817">
        <ele>964.12</ele>
        <time>2024-11-06T03:42:20.658Z</time>
      </trkpt>
      <trkpt lat="44.23088" lon="3.3683">
        <ele>963.68</ele>
        <time>2024-11-06T03:42:37.177Z</time>
      </trkpt>
      <trkpt lat="44.23075" lon="3.36837">
        <ele>963.24</ele>
        <time>2024-11-06T03:42:53.698Z</time>
      </trkpt>
      <trkpt lat="44.23063" lon="3.36844">
        <ele>962.79</ele>
        <time>2024-11-06T03:43:10.221Z</time>
      </trkpt>
      <trkpt lat="44.2305" lon="3.3685">
        <ele>962.35</ele>
        <time>2024-11-06T03:43:26.746Z</time>
      </trkpt>
      <trkpt lat="44.23033" lon="3.36859">
        <ele>961.88</ele>
        <time>2024-11-06T03:43:43.274Z</time>
      </trkpt>
      <trkpt lat="44.23013" lon="3.3687">
        <ele>961.42</ele>
        <time>2024-11-06T03:43:59.805Z</time>
      </trkpt>
      <trkpt lat="44.23012" lon="3.3687">
        <ele>960.98</ele>
        <time>2024-11-06T03:44:16.337Z</time>
      </trkpt>
      <trkpt lat="44.23004" lon="3.36876">
        <ele>960.53</ele>
        <time>2024-11-06T03:44:32.870Z</time>
      </trkpt>
      <trkpt lat="44.22964" lon="3.36904">
        <ele>960.07</ele>
        <time>2024-11-06T03:44:49.410Z</time>
      </trkpt>
      <trkpt lat="44.22957" lon="3.36909">
        <ele>959.63</ele>
        <time>2024-11-06T03:45:05.952Z</time>
      </trkpt>
      <trkpt lat="44.22945" lon="3.3692">
        <ele>959.18</ele>
        <time>2024-11-06T03:45:22.496Z</time>
      </trkpt>
      <trkpt lat="44.22934" lon="3.3693">
        <ele>958.7</ele>
        <time>2024-11-06T03:45:39.042Z</time>
      </trkpt>
      <trkpt lat="44.22911" lon="3.36951">
        <ele>958.21</ele>
        <time>2024-11-06T03:45:55.592Z</time>
      </trkpt>
      <trkpt lat="44.22893" lon="3.36968">
        <ele>957.72</ele>
        <time>2024-11-06T03:46:12.146Z</time>
      </trkpt>
      <trkpt lat="44.22874" lon="3.36985">
        <ele>957.27</ele>
        <time>2024-11-06T03:46:28.703Z</time>
      </trkpt>
      <trkpt lat="44.22867" lon="3.36992">
        <ele>956.83</ele>
        <time>2024-11-06T03:46:45.262Z</time>
      </trkpt>
      <trkpt lat="44.22859" lon="3.36999">
        <ele>956.39</ele>
        <time>2024-11-06T03:47:01.822Z</time>
      </trkpt>
      <trkpt lat="44.22852" lon="3.37006">
        <ele>955.96</ele>
        <time>2024-11-06T03:47:18.384Z</time>
      </trkpt>
      <trkpt lat="44.22825" lon="3.3703">
        <ele>955.54</ele>
        <time>2024-11-06T03:47:34.951Z</time>
      </trkpt>
      <trkpt lat="44.22814" lon="3.3704">
        <ele>955.09</ele>
        <time>2024-11-06T03:47:51.520Z</time>
      </trkpt>
      <trkpt lat="44.22796" lon="3.37057">
        <ele>954.63</ele>
        <time>2024-11-06T03:48:08.092Z</time>
      </trkpt>
      <trkpt lat="44.22781" lon="3.37071">
        <ele>954.18</ele>
        <time>2024-11-06T03:48:24.667Z</time>
      </trkpt>
      <trkpt lat="44.22769" lon="3.37081">
        <ele>953.74</ele>
        <time>2024-11-06T03:48:41.244Z</time>
      </trkpt>
      <trkpt lat="44.22741" lon="3.37108">
        <ele>953.31</ele>
        <time>2024-11-06T03:48:57.827Z</time>
      </trkpt>
      <trkpt lat="44.22738" lon="3.3711">
        <ele>952.89</ele>
        <time>2024-11-06T03:49:14.410Z</time>
      </trkpt>
      <trkpt lat="44.227" lon="3.37145">
        <ele>952.46</ele>
        <time>2024-11-06T03:49:31.001Z</time>
      </trkpt>
      <trkpt lat="44.22689" lon="3.37155">
        <ele>952.03</ele>
        <time>2024-11-06T03:49:47.594Z</time>
      </trkpt>
      <trkpt lat="44.22682" lon="3.37162">
        <ele>951.61</ele>
        <time>2024-11-06T03:50:04.188Z</time>
      </trkpt>
      <trkpt lat="44.22656" lon="3.37186">
        <ele>951.17</ele>
        <time>2024-11-06T03:50:20.787Z</time>
      </trkpt>
      <trkpt lat="44.22648" lon="3.37192">
        <ele>950.75</ele>
        <time>2024-11-06T03:50:37.388Z</time>
      </trkpt>
      <trkpt lat="44.2263" lon="3.37209">
        <ele>950.34</ele>
        <time>2024-11-06T03:50:53.992Z</time>
      </trkpt>
      <trkpt lat="44.22615" lon="3.37223">
        <ele>949.93</ele>
        <time>2024-11-06T03:51:10.599Z</time>
      </trkpt>
      <trkpt lat="44.22589" lon="3.37247">
        <ele>949.53</ele>
        <time>2024-11-06T03:51:27.211Z</time>
      </trkpt>
      <trkpt lat="44.22571" lon="3.37264">
        <ele>949.13</ele>
        <time>2024-11-06T03:51:43.827Z</time>
      </trkpt>
      <trkpt lat="44.22563" lon="3.3727">
        <ele>948.76</ele>
        <time>2024-11-06T03:52:00.444Z</time>
      </trkpt>
      <trkpt lat="44.22552" lon="3.3728">
        <ele>948.38</ele>
        <time>2024-11-06T03:52:17.063Z</time>
      </trkpt>
      <trkpt lat="44.22537" lon="3.37294">
        <ele>948.03</ele>
        <time>2024-11-06T03:52:33.685Z</time>
      </trkpt>
      <trkpt lat="44.22526" lon="3.37304">
        <ele>947.72</ele>
        <time>2024-11-06T03:52:50.309Z</time>
      </trkpt>
      <trkpt lat="44.22519" lon="3.37311">
        <ele>947.41</ele>
        <time>2024-11-06T03:53:06.935Z</time>
      </trkpt>
      <trkpt lat="44.22511" lon="3.37318">
        <ele>947.13</ele>
        <time>2024-11-06T03:53:23.562Z</time>
      </trkpt>
      <trkpt lat="44.22504" lon="3.37325">
        <ele>946.84</ele>
        <time>2024-11-06T03:53:40.190Z</time>
      </trkpt>
      <trkpt lat="44.22493" lon="3.37335">
        <ele>946.56</ele>
        <time>2024-11-06T03:53:56.820Z</time>
      </trkpt>
      <trkpt lat="44.22485" lon="3.37342">
        <ele>946.3</ele>
        <time>2024-11-06T03:54:13.452Z</time>
      </trkpt>
      <trkpt lat="44.22478" lon="3.37348">
        <ele>946.06</ele>
        <time>2024-11-06T03:54:30.085Z</time>
      </trkpt>
      <trkpt lat="44.22456" lon="3.37369">
        <ele>945.85</ele>
        <time>2024-11-06T03:54:46.723Z</time>
      </trkpt>
      <trkpt lat="44.22448" lon="3.37376">
        <ele>945.66</ele>
        <time>2024-11-06T03:55:03.362Z</time>
      </trkpt>
      <trkpt lat="44.22437" lon="3.37386">
        <ele>945.49</ele>
        <time>2024-11-06T03:55:20.003Z</time>
      </trkpt>
      <trkpt lat="44.22422" lon="3.374">
        <ele>945.36</ele>
        <time>2024-11-06T03:55:36.647Z</time>
      </trkpt>
      <trkpt lat="44.22415" lon="3.37407">
        <ele>945.21</ele>
        <time>2024-11-06T03:55:53.292Z</time>
      </trkpt>
      <trkpt lat="44.22381" lon="3.37437">
        <ele>945.07</ele>
        <time>2024-11-06T03:56:09.944Z</time>
      </trkpt>
      <trkpt lat="44.22351" lon="3.37465">
        <ele>944.9</ele>
        <time>2024-11-06T03:56:26.602Z</time>
      </trkpt>
      <trkpt lat="44.2234" lon="3.37475">
        <ele>944.79</ele>
        <time>2024-11-06T03:56:43.262Z</time>
      </trkpt>
      <trkpt lat="44.22325" lon="3.37489">
        <ele>944.71</ele>
        <time>2024-11-06T03:56:59.925Z</time>
      </trkpt>
      <trkpt lat="44.22299" lon="3.37513">
        <ele>944.65</ele>
        <time>2024-11-06T03:57:16.593Z</time>
      </trkpt>
      <trkpt lat="44.2228" lon="3.3753">
        <ele>944.64</ele>
        <time>2024-11-06T03:57:33.264Z</time>
      </trkpt>
      <trkpt lat="44.22265" lon="3.37543">
        <ele>944.66</ele>
        <time>2024-11-06T03:57:49.938Z</time>
      </trkpt>
      <trkpt lat="44.22243" lon="3.37564">
        <ele>944.69</ele>
        <time>2024-11-06T03:58:06.616Z</time>
      </trkpt>
      <trkpt lat="44.22221" lon="3.37584">
        <ele>944.69</ele>
        <time>2024-11-06T03:58:23.299Z</time>
      </trkpt>
      <trkpt lat="44.22198" lon="3.37605">
        <ele>944.69</ele>
        <time>2024-11-06T03:58:39.986Z</time>
      </trkpt>
      <trkpt lat="44.22191" lon="3.37612">
        <ele>944.76</ele>
        <time>2024-11-06T03:58:56.674Z</time>
      </trkpt>
      <trkpt lat="44.22186" lon="3.37616">
        <ele>944.88</ele>
        <time>2024-11-06T03:59:13.363Z</time>
      </trkpt>
      <trkpt lat="44.2218" lon="3.37622">
        <ele>945.02</ele>
        <time>2024-11-06T03:59:30.054Z</time>
      </trkpt>
      <trkpt lat="44.22172" lon="3.37629">
        <ele>945.2</ele>
        <time>2024-11-06T03:59:46.746Z</time>
      </trkpt>
      <trkpt lat="44.22161" lon="3.3764">
        <ele>945.42</ele>
        <time>2024-11-06T04:00:03.440Z</time>
      </trkpt>
      <trkpt lat="44.22154" lon="3.37647">
        <ele>945.67</ele>
        <time>2024-11-06T04:00:20.136Z</time>
      </trkpt>
      <trkpt lat="44.22147" lon="3.37654">
        <ele>945.94</ele>
        <time>2024-11-06T04:00:36.833Z</time>
      </trkpt>
      <trkpt lat="44.22143" lon="3.37657">
        <ele>946.23</ele>
        <time>2024-11-06T04:00:53.531Z</time>
      </trkpt>
      <trkpt lat="44.22135" lon="3.37665">
        <ele>946.56</ele>
        <time>2024-11-06T04:01:10.230Z</time>
      </trkpt>
      <trkpt lat="44.22119" lon="3.37685">
        <ele>946.95</ele>
        <time>2024-11-06T04:01:26.933Z</time>
      </trkpt>
      <trkpt lat="44.22109" lon="3.37697">
        <ele>947.34</ele>
        <time>2024-11-06T04:01:43.638Z</time>
      </trkpt>
      <trkpt lat="44.22092" lon="3.37718">
        <ele>947.78</ele>
        <time>2024-11-06T04:02:00.346Z</time>
      </trkpt>
      <trkpt lat="44.22082" lon="3.3773">
        <ele>948.2</ele>
        <time>2024-11-06T04:02:17.057Z</time>
      </trkpt>
      <trkpt lat="44.22072" lon="3.37742">
        <ele>948.64</ele>
        <time>2024-11-06T04:02:33.770Z</time>
      </trkpt>
      <trkpt lat="44.22068" lon="3.37748">
        <ele>949.11</ele>
        <time>2024-11-06T04:02:50.484Z</time>
      </trkpt>
      <trkpt lat="44.22058" lon="3.3776">
        <ele>949.58</ele>
        <time>2024-11-06T04:03:07.200Z</time>
      </trkpt>
      <trkpt lat="44.22041" lon="3.37781">
        <ele>950.08</ele>
        <time>2024-11-06T04:03:23.919Z</time>
      </trkpt>
      <trkpt lat="44.22003" lon="3.37826">
        <ele>950.67</ele>
        <time>2024-11-06T04:03:40.646Z</time>
      </trkpt>
      <trkpt lat="44.21983" lon="3.37851">
        <ele>951.22</ele>
        <time>2024-11-06T04:03:57.378Z</time>
      </trkpt>
      <trkpt lat="44.21956" lon="3.37884">
        <ele>951.79</ele>
        <time>2024-11-06T04:04:14.115Z</time>
      </trkpt>
      <trkpt lat="44.21956" lon="3.37884">
        <ele>952.37</ele>
        <time>2024-11-06T04:04:30.852Z</time>
      </trkpt>
      <trkpt lat="44.21956" lon="3.37884">
        <ele>952.96</ele>
        <time>2024-11-06T04:04:47.589Z</time>
      </trkpt>
      <trkpt lat="44.21956" lon="3.37884">
        <ele>953.56</ele>
        <time>2024-11-06T04:05:04.326Z</time>
      </trkpt>
      <trkpt lat="44.21956" lon="3.37884">
        <ele>954.18</ele>
        <time>2024-11-06T04:05:21.063Z</time>
      </trkpt>
      <trkpt lat="44.21932" lon="3.37913">
        <ele>954.86</ele>
        <time>2024-11-06T04:05:37.805Z</time>
      </trkpt>
      <trkpt lat="44.21909" lon="3.37942">
        <ele>955.6</ele>
        <time>2024-11-06T04:05:54.552Z</time>
      </trkpt>
      <trkpt lat="44.21885" lon="3.37971">
        <ele>956.32</ele>
        <time>2024-11-06T04:06:11.304Z</time>
      </trkpt>
      <trkpt lat="44.21862" lon="3.38">
        <ele>956.99</ele>
        <time>2024-11-06T04:06:28.062Z</time>
      </trkpt>
      <trkpt lat="44.21838" lon="3.38029">
        <ele>957.64</ele>
        <time>2024-11-06T04:06:44.825Z</time>
      </trkpt>
      <trkpt lat="44.21814" lon="3.38058">
        <ele>958.28</ele>
        <time>2024-11-06T04:07:01.593Z</time>
      </trkpt>
      <trkpt lat="44.21791" lon="3.38087">
        <ele>958.96</ele>
        <time>2024-11-06T04:07:18.366Z</time>
      </trkpt>
      <trkpt lat="44.21785" lon="3.38094">
        <ele>959.57</ele>
        <time>2024-11-06T04:07:35.140Z</time>
      </trkpt>
      <trkpt lat="44.21763" lon="3.38125">
        <ele>960.17</ele>
        <time>2024-11-06T04:07:51.919Z</time>
      </trkpt>
      <trkpt lat="44.21755" lon="3.38136">
        <ele>960.77</ele>
        <time>2024-11-06T04:08:08.700Z</time>
      </trkpt>
      <trkpt lat="44.21735" lon="3.3817">
        <ele>961.39</ele>
        <time>2024-11-06T04:08:25.486Z</time>
      </trkpt>
      <trkpt lat="44.21735" lon="3.38171">
        <ele>961.97</ele>
        <time>2024-11-06T04:08:42.272Z</time>
      </trkpt>
      <trkpt lat="44.21717" lon="3.38207">
        <ele>962.57</ele>
        <time>2024-11-06T04:08:59.063Z</time>
      </trkpt>
      <trkpt lat="44.21699" lon="3.38243">
        <ele>963.13</ele>
        <time>2024-11-06T04:09:15.859Z</time>
      </trkpt>
      <trkpt lat="44.21685" lon="3.38271">
        <ele>963.69</ele>
        <time>2024-11-06T04:09:32.659Z</time>
      </trkpt>
      <trkpt lat="44.21668" lon="3.38308">
        <ele>964.2</ele>
        <time>2024-11-06T04:09:49.464Z</time>
      </trkpt>
      <trkpt lat="44.21651" lon="3.38344">
        <ele>964.72</ele>
        <time>2024-11-06T04:10:06.274Z</time>
      </trkpt>
      <trkpt lat="44.21645" lon="3.38356">
        <ele>965.18</ele>
        <time>2024-11-06T04:10:23.086Z</time>
      </trkpt>
      <trkpt lat="44.21627" lon="3.38392">
        <ele>965.63</ele>
        <time>2024-11-06T04:10:39.903Z</time>
      </trkpt>
      <trkpt lat="44.21622" lon="3.38401">
        <ele>966.08</ele>
        <time>2024-11-06T04:10:56.721Z</time>
      </trkpt>
      <trkpt lat="44.21607" lon="3.38422">
        <ele>966.5</ele>
        <time>2024-11-06T04:11:13.542Z</time>
      </trkpt>
      <trkpt lat="44.21586" lon="3.38449">
        <ele>966.87</ele>
        <time>2024-11-06T04:11:30.368Z</time>
      </trkpt>
      <trkpt lat="44.2157" lon="3.38464">
        <ele>967.23</ele>
        <time>2024-11-06T04:11:47.197Z</time>
      </trkpt>
      <trkpt lat="44.21542" lon="3.38484">
        <ele>967.57</ele>
        <time>2024-11-06T04:12:04.031Z</time>
      </trkpt>
      <trkpt lat="44.21514" lon="3.38504">
        <ele>967.9</ele>
        <time>2024-11-06T04:12:20.870Z</time>
      </trkpt>
      <trkpt lat="44.21513" lon="3.38505">
        <ele>968.18</ele>
        <time>2024-11-06T04:12:37.709Z</time>
      </trkpt>
      <trkpt lat="44.21491" lon="3.38516">
        <ele>968.46</ele>
        <time>2024-11-06T04:12:54.552Z</time>
      </trkpt>
      <trkpt lat="44.21462" lon="3.38524">
        <ele>968.67</ele>
        <time>2024-11-06T04:13:11.400Z</time>
      </trkpt>
      <trkpt lat="44.21446" lon="3.38524">
        <ele>968.82</ele>
        <time>2024-11-06T04:13:28.250Z</time>
      </trkpt>
      <trkpt lat="44.2142" lon="3.38519">
        <ele>968.92</ele>
        <time>2024-11-06T04:13:45.104Z</time>
      </trkpt>
      <trkpt lat="44.21389" lon="3.3851">
        <ele>969.05</ele>
        <time>2024-11-06T04:14:01.963Z</time>
      </trkpt>
      <trkpt lat="44.21358" lon="3.385">
        <ele>969.19</ele>
        <time>2024-11-06T04:14:18.828Z</time>
      </trkpt>
      <trkpt lat="44.21328" lon="3.38491">
        <ele>969.31</ele>
        <time>2024-11-06T04:14:35.698Z</time>
      </trkpt>
      <trkpt lat="44.21297" lon="3.38482">
        <ele>969.39</ele>
        <time>2024-11-06T04:14:52.573Z</time>
      </trkpt>
      <trkpt lat="44.21266" lon="3.38472">
        <ele>969.37</ele>
        <time>2024-11-06T04:15:09.453Z</time>
      </trkpt>
      <trkpt lat="44.21265" lon="3.38472">
        <ele>969.33</ele>
        <time>2024-11-06T04:15:26.333Z</time>
      </trkpt>
      <trkpt lat="44.21234" lon="3.38463">
        <ele>969.24</ele>
        <time>2024-11-06T04:15:43.218Z</time>
      </trkpt>
      <trkpt lat="44.21203" lon="3.38454">
        <ele>969.13</ele>
        <time>2024-11-06T04:16:00.108Z</time>
      </trkpt>
      <trkpt lat="44.21173" lon="3.38445">
        <ele>968.99</ele>
        <time>2024-11-06T04:16:17.003Z</time>
      </trkpt>
      <trkpt lat="44.21142" lon="3.38436">
        <ele>968.82</ele>
        <time>2024-11-06T04:16:33.903Z</time>
      </trkpt>
      <trkpt lat="44.21139" lon="3.38435">
        <ele>968.6</ele>
        <time>2024-11-06T04:16:50.803Z</time>
      </trkpt>
      <trkpt lat="44.21108" lon="3.38425">
        <ele>968.38</ele>
        <time>2024-11-06T04:17:07.708Z</time>
      </trkpt>
      <trkpt lat="44.21078" lon="3.38415">
        <ele>968.13</ele>
        <time>2024-11-06T04:17:24.619Z</time>
      </trkpt>
      <trkpt lat="44.21064" lon="3.3841">
        <ele>967.84</ele>
        <time>2024-11-06T04:17:41.532Z</time>
      </trkpt>
      <trkpt lat="44.21054" lon="3.38408">
        <ele>967.5</ele>
        <time>2024-11-06T04:17:58.446Z</time>
      </trkpt>
      <trkpt lat="44.21036" lon="3.38407">
        <ele>967.13</ele>
        <time>2024-11-06T04:18:15.363Z</time>
      </trkpt>
      <trkpt lat="44.21019" lon="3.38412">
        <ele>966.73</ele>
        <time>2024-11-06T04:18:32.283Z</time>
      </trkpt>
      <trkpt lat="44.20991" lon="3.38432">
        <ele>966.28</ele>
        <time>2024-11-06T04:18:49.208Z</time>
      </trkpt>
      <trkpt lat="44.20976" lon="3.38443">
        <ele>965.8</ele>
        <time>2024-11-06T04:19:06.136Z</time>
      </trkpt>
      <trkpt lat="44.20948" lon="3.38463">
        <ele>965.26</ele>
        <time>2024-11-06T04:19:23.069Z</time>
      </trkpt>
      <trkpt lat="44.2092" lon="3.38484">
        <ele>964.72</ele>
        <time>2024-11-06T04:19:40.007Z</time>
      </trkpt>
      <trkpt lat="44.20903" lon="3.38496">
        <ele>964.2</ele>
        <time>2024-11-06T04:19:56.948Z</time>
      </trkpt>
      <trkpt lat="44.20875" lon="3.38515">
        <ele>963.63</ele>
        <time>2024-11-06T04:20:13.894Z</time>
      </trkpt>
      <trkpt lat="44.20846" lon="3.38534">
        <ele>963.01</ele>
        <time>2024-11-06T04:20:30.845Z</time>
      </trkpt>
      <trkpt lat="44.20842" lon="3.38537">
        <ele>962.44</ele>
        <time>2024-11-06T04:20:47.797Z</time>
      </trkpt>
      <trkpt lat="44.20812" lon="3.38551">
        <ele>961.88</ele>
        <time>2024-11-06T04:21:04.754Z</time>
      </trkpt>
      <trkpt lat="44.20809" lon="3.38552">
        <ele>961.31</ele>
        <time>2024-11-06T04:21:21.711Z</time>
      </trkpt>
      <trkpt lat="44.20778" lon="3.38557">
        <ele>960.74</ele>
        <time>2024-11-06T04:21:38.673Z</time>
      </trkpt>
      <trkpt lat="44.20746" lon="3.38561">
        <ele>960.11</ele>
        <time>2024-11-06T04:21:55.640Z</time>
      </trkpt>
      <trkpt lat="44.20735" lon="3.38563">
        <ele>959.5</ele>
        <time>2024-11-06T04:22:12.609Z</time>
      </trkpt>
      <trkpt lat="44.20704" lon="3.38567">
        <ele>958.84</ele>
        <time>2024-11-06T04:22:29.583Z</time>
      </trkpt>
      <trkpt lat="44.20701" lon="3.38567">
        <ele>958.26</ele>
        <time>2024-11-06T04:22:46.558Z</time>
      </trkpt>
      <trkpt lat="44.2067" lon="3.38575">
        <ele>957.66</ele>
        <time>2024-11-06T04:23:03.538Z</time>
      </trkpt>
      <trkpt lat="44.20648" lon="3.3858">
        <ele>957.09</ele>
        <time>2024-11-06T04:23:20.521Z</time>
      </trkpt>
      <trkpt lat="44.20618" lon="3.38591">
        <ele>956.57</ele>
        <time>2024-11-06T04:23:37.509Z</time>
      </trkpt>
      <trkpt lat="44.20613" lon="3.38593">
        <ele>956.05</ele>
        <time>2024-11-06T04:23:54.498Z</time>
      </trkpt>
      <trkpt lat="44.20584" lon="3.3861">
        <ele>955.55</ele>
        <time>2024-11-06T04:24:11.492Z</time>
      </trkpt>
      <trkpt lat="44.20583" lon="3.38611">
        <ele>955.07</ele>
        <time>2024-11-06T04:24:28.486Z</time>
      </trkpt>
      <trkpt lat="44.2056" lon="3.38628">
        <ele>954.57</ele>
        <time>2024-11-06T04:24:45.485Z</time>
      </trkpt>
      <trkpt lat="44.20538" lon="3.38652">
        <ele>954.14</ele>
        <time>2024-11-06T04:25:02.488Z</time>
      </trkpt>
      <trkpt lat="44.2052" lon="3.38684">
        <ele>953.69</ele>
        <time>2024-11-06T04:25:19.496Z</time>
      </trkpt>
      <trkpt lat="44.20507" lon="3.38724">
        <ele>953.27</ele>
        <time>2024-11-06T04:25:36.509Z</time>
      </trkpt>
      <trkpt lat="44.20505" lon="3.38729">
        <ele>952.95</ele>
        <time>2024-11-06T04:25:53.522Z</time>
      </trkpt>
      <trkpt lat="44.205" lon="3.3877">
        <ele>952.63</ele>
        <time>2024-11-06T04:26:10.540Z</time>
      </trkpt>
      <trkpt lat="44.20503" lon="3.38814">
        <ele>952.37</ele>
        <time>2024-11-06T04:26:27.563Z</time>
      </trkpt>
      <trkpt lat="44.20504" lon="3.38822">
        <ele>952.2</ele>
        <time>2024-11-06T04:26:44.587Z</time>
      </trkpt>
      <trkpt lat="44.20512" lon="3.38864">
        <ele>952.13</ele>
        <time>2024-11-06T04:27:01.616Z</time>
      </trkpt>
      <trkpt lat="44.20519" lon="3.389">
        <ele>952.05</ele>
        <time>2024-11-06T04:27:18.650Z</time>
      </trkpt>
      <trkpt lat="44.20527" lon="3.38943">
        <ele>952.02</ele>
        <time>2024-11-06T04:27:35.689Z</time>
      </trkpt>
      <trkpt lat="44.20529" lon="3.38956">
        <ele>952.05</ele>
        <time>2024-11-06T04:27:52.729Z</time>
      </trkpt>
      <trkpt lat="44.20533" lon="3.39">
        <ele>952.11</ele>
        <time>2024-11-06T04:28:09.774Z</time>
      </trkpt>
      <trkpt lat="44.20534" lon="3.39016">
        <ele>952.24</ele>
        <time>2024-11-06T04:28:26.821Z</time>
      </trkpt>
      <trkpt lat="44.20532" lon="3.39038">
        <ele>952.38</ele>
        <time>2024-11-06T04:28:43.871Z</time>
      </trkpt>
      <trkpt lat="44.20526" lon="3.39057">
        <ele>952.55</ele>
        <time>2024-11-06T04:29:00.923Z</time>
      </trkpt>
      <trkpt lat="44.20516" lon="3.39072">
        <ele>952.79</ele>
        <time>2024-11-06T04:29:17.977Z</time>
      </trkpt>
      <trkpt lat="44.20499" lon="3.39084">
        <ele>953.09</ele>
        <time>2024-11-06T04:29:35.034Z</time>
      </trkpt>
      <trkpt lat="44.20476" lon="3.39091">
        <ele>953.41</ele>
        <time>2024-11-06T04:29:52.095Z</time>
      </trkpt>
      <trkpt lat="44.20472" lon="3.39101">
        <ele>953.9</ele>
        <time>2024-11-06T04:30:09.158Z</time>
      </trkpt>
      <trkpt lat="44.20461" lon="3.39107">
        <ele>954.38</ele>
        <time>2024-11-06T04:30:26.222Z</time>
      </trkpt>
      <trkpt lat="44.20445" lon="3.39113">
        <ele>954.89</ele>
        <time>2024-11-06T04:30:43.289Z</time>
      </trkpt>
      <trkpt lat="44.20431" lon="3.39121">
        <ele>955.49</ele>
        <time>2024-11-06T04:31:00.358Z</time>
      </trkpt>
      <trkpt lat="44.20418" lon="3.39131">
        <ele>956.17</ele>
        <time>2024-11-06T04:31:17.430Z</time>
      </trkpt>
      <trkpt lat="44.20418" lon="3.39131">
        <ele>956.82</ele>
        <time>2024-11-06T04:31:34.502Z</time>
      </trkpt>
      <trkpt lat="44.20418" lon="3.39131">
        <ele>957.52</ele>
        <time>2024-11-06T04:31:51.574Z</time>
      </trkpt>
      <trkpt lat="44.20418" lon="3.39131">
        <ele>958.25</ele>
        <time>2024-11-06T04:32:08.646Z</time>
      </trkpt>
      <trkpt lat="44.20399" lon="3.3915">
        <ele>959.09</ele>
        <time>2024-11-06T04:32:25.722Z</time>
      </trkpt>
      <trkpt lat="44.20379" lon="3.39184">
        <ele>960</ele>
        <time>2024-11-06T04:32:42.803Z</time>
      </trkpt>
      <trkpt lat="44.20376" lon="3.39188">
        <ele>960.83</ele>
        <time>2024-11-06T04:32:59.884Z</time>
      </trkpt>
      <trkpt lat="44.20369" lon="3.39205">
        <ele>961.69</ele>
        <time>2024-11-06T04:33:16.968Z</time>
      </trkpt>
      <trkpt lat="44.20362" lon="3.39234">
        <ele>962.57</ele>
        <time>2024-11-06T04:33:34.055Z</time>
      </trkpt>
      <trkpt lat="44.20358" lon="3.39278">
        <ele>963.5</ele>
        <time>2024-11-06T04:33:51.147Z</time>
      </trkpt>
      <trkpt lat="44.20358" lon="3.3928">
        <ele>964.4</ele>
        <time>2024-11-06T04:34:08.239Z</time>
      </trkpt>
      <trkpt lat="44.2036" lon="3.39309">
        <ele>965.32</ele>
        <time>2024-11-06T04:34:25.335Z</time>
      </trkpt>
      <trkpt lat="44.20367" lon="3.39352">
        <ele>966.32</ele>
        <time>2024-11-06T04:34:42.436Z</time>
      </trkpt>
      <trkpt lat="44.20367" lon="3.39355">
        <ele>967.23</ele>
        <time>2024-11-06T04:34:59.537Z</time>
      </trkpt>
      <trkpt lat="44.20379" lon="3.39395">
        <ele>968.22</ele>
        <time>2024-11-06T04:35:16.643Z</time>
      </trkpt>
      <trkpt lat="44.20389" lon="3.39427">
        <ele>969.16</ele>
        <time>2024-11-06T04:35:33.753Z</time>
      </trkpt>
      <trkpt lat="44.20404" lon="3.39465">
        <ele>970.07</ele>
        <time>2024-11-06T04:35:50.868Z</time>
      </trkpt>
      <trkpt lat="44.20415" lon="3.39492">
        <ele>970.99</ele>
        <time>2024-11-06T04:36:07.987Z</time>
      </trkpt>
      <trkpt lat="44.2043" lon="3.3953">
        <ele>971.93</ele>
        <time>2024-11-06T04:36:25.111Z</time>
      </trkpt>
      <trkpt lat="44.20438" lon="3.3955">
        <ele>972.79</ele>
        <time>2024-11-06T04:36:42.237Z</time>
      </trkpt>
      <trkpt lat="44.20447" lon="3.39592">
        <ele>973.65</ele>
        <time>2024-11-06T04:36:59.368Z</time>
      </trkpt>
      <trkpt lat="44.2045" lon="3.39607">
        <ele>974.44</ele>
        <time>2024-11-06T04:37:16.501Z</time>
      </trkpt>
      <trkpt lat="44.20456" lon="3.3965">
        <ele>975.23</ele>
        <time>2024-11-06T04:37:33.639Z</time>
      </trkpt>
      <trkpt lat="44.20458" lon="3.39661">
        <ele>975.91</ele>
        <time>2024-11-06T04:37:50.779Z</time>
      </trkpt>
      <trkpt lat="44.20466" lon="3.39698">
        <ele>976.58</ele>
        <time>2024-11-06T04:38:07.923Z</time>
      </trkpt>
      <trkpt lat="44.20478" lon="3.39714">
        <ele>977.16</ele>
        <time>2024-11-06T04:38:25.070Z</time>
      </trkpt>
      <trkpt lat="44.2049" lon="3.39723">
        <ele>977.69</ele>
        <time>2024-11-06T04:38:42.219Z</time>
      </trkpt>
      <trkpt lat="44.20501" lon="3.39728">
        <ele>978.15</ele>
        <time>2024-11-06T04:38:59.370Z</time>
      </trkpt>
      <trkpt lat="44.20517" lon="3.39731">
        <ele>978.54</ele>
        <time>2024-11-06T04:39:16.523Z</time>
      </trkpt>
      <trkpt lat="44.20548" lon="3.39726">
        <ele>978.82</ele>
        <time>2024-11-06T04:39:33.681Z</time>
      </trkpt>
      <trkpt lat="44.20558" lon="3.39724">
        <ele>979.11</ele>
        <time>2024-11-06T04:39:50.841Z</time>
      </trkpt>
      <trkpt lat="44.20573" lon="3.39725">
        <ele>979.34</ele>
        <time>2024-11-06T04:40:08.003Z</time>
      </trkpt>
      <trkpt lat="44.20588" lon="3.3973">
        <ele>979.53</ele>
        <time>2024-11-06T04:40:25.168Z</time>
      </trkpt>
      <trkpt lat="44.20607" lon="3.39741">
        <ele>979.66</ele>
        <time>2024-11-06T04:40:42.336Z</time>
      </trkpt>
      <trkpt lat="44.20636" lon="3.39759">
        <ele>979.74</ele>
        <time>2024-11-06T04:40:59.509Z</time>
      </trkpt>
      <trkpt lat="44.2064" lon="3.39761">
        <ele>979.8</ele>
        <time>2024-11-06T04:41:16.683Z</time>
      </trkpt>
      <trkpt lat="44.20664" lon="3.39789">
        <ele>979.77</ele>
        <time>2024-11-06T04:41:33.862Z</time>
      </trkpt>
      <trkpt lat="44.20681" lon="3.39813">
        <ele>979.71</ele>
        <time>2024-11-06T04:41:51.045Z</time>
      </trkpt>
      <trkpt lat="44.20699" lon="3.39847">
        <ele>979.6</ele>
        <time>2024-11-06T04:42:08.233Z</time>
      </trkpt>
      <trkpt lat="44.20711" lon="3.39887">
        <ele>979.44</ele>
        <time>2024-11-06T04:42:25.426Z</time>
      </trkpt>
      <trkpt lat="44.20712" lon="3.39889">
        <ele>979.28</ele>
        <time>2024-11-06T04:42:42.619Z</time>
      </trkpt>
      <trkpt lat="44.2072" lon="3.39916">
        <ele>979.03</ele>
        <time>2024-11-06T04:42:59.815Z</time>
      </trkpt>
      <trkpt lat="44.2073" lon="3.39937">
        <ele>978.75</ele>
        <time>2024-11-06T04:43:17.014Z</time>
      </trkpt>
      <trkpt lat="44.20752" lon="3.39969">
        <ele>978.43</ele>
        <time>2024-11-06T04:43:34.218Z</time>
      </trkpt>
      <trkpt lat="44.20761" lon="3.39982">
        <ele>978.11</ele>
        <time>2024-11-06T04:43:51.424Z</time>
      </trkpt>
      <trkpt lat="44.20782" lon="3.40009">
        <ele>977.79</ele>
        <time>2024-11-06T04:44:08.635Z</time>
      </trkpt>
      <trkpt lat="44.20803" lon="3.40042">
        <ele>977.45</ele>
        <time>2024-11-06T04:44:25.851Z</time>
      </trkpt>
      <trkpt lat="44.20807" lon="3.40048">
        <ele>977.05</ele>
        <time>2024-11-06T04:44:43.068Z</time>
      </trkpt>
      <trkpt lat="44.2081" lon="3.40069">
        <ele>976.61</ele>
        <time>2024-11-06T04:45:00.287Z</time>
      </trkpt>
      <trkpt lat="44.20808" lon="3.40093">
        <ele>976.12</ele>
        <time>2024-11-06T04:45:17.509Z</time>
      </trkpt>
      <trkpt lat="44.20798" lon="3.40135">
        <ele>975.59</ele>
        <time>2024-11-06T04:45:34.736Z</time>
      </trkpt>
      <trkpt lat="44.20797" lon="3.40141">
        <ele>975.07</ele>
        <time>2024-11-06T04:45:51.964Z</time>
      </trkpt>
      <trkpt lat="44.20787" lon="3.40183">
        <ele>974.51</ele>
        <time>2024-11-06T04:46:09.197Z</time>
      </trkpt>
      <trkpt lat="44.20781" lon="3.4021">
        <ele>973.93</ele>
        <time>2024-11-06T04:46:26.433Z</time>
      </trkpt>
      <trkpt lat="44.20771" lon="3.40252">
        <ele>973.31</ele>
        <time>2024-11-06T04:46:43.674Z</time>
      </trkpt>
      <trkpt lat="44.20764" lon="3.4028">
        <ele>972.71</ele>
        <time>2024-11-06T04:47:00.919Z</time>
      </trkpt>
      <trkpt lat="44.20759" lon="3.40305">
        <ele>972.08</ele>
        <time>2024-11-06T04:47:18.167Z</time>
      </trkpt>
      <trkpt lat="44.20758" lon="3.40329">
        <ele>971.43</ele>
        <time>2024-11-06T04:47:35.418Z</time>
      </trkpt>
      <trkpt lat="44.20758" lon="3.40347">
        <ele>970.73</ele>
        <time>2024-11-06T04:47:52.671Z</time>
      </trkpt>
      <trkpt lat="44.20763" lon="3.4037">
        <ele>970.02</ele>
        <time>2024-11-06T04:48:09.926Z</time>
      </trkpt>
      <trkpt lat="44.20772" lon="3.40395">
        <ele>969.32</ele>
        <time>2024-11-06T04:48:27.185Z</time>
      </trkpt>
      <trkpt lat="44.20782" lon="3.40412">
        <ele>968.66</ele>
        <time>2024-11-06T04:48:44.446Z</time>
      </trkpt>
      <trkpt lat="44.20802" lon="3.40446">
        <ele>968.02</ele>
        <time>2024-11-06T04:49:01.712Z</time>
      </trkpt>
      <trkpt lat="44.2081" lon="3.4046">
        <ele>967.31</ele>
        <time>2024-11-06T04:49:18.980Z</time>
      </trkpt>
      <trkpt lat="44.20817" lon="3.40479">
        <ele>966.59</ele>
        <time>2024-11-06T04:49:36.251Z</time>
      </trkpt>
      <trkpt lat="44.2082" lon="3.40498">
        <ele>965.83</ele>
        <time>2024-11-06T04:49:53.524Z</time>
      </trkpt>
      <trkpt lat="44.20823" lon="3.4053">
        <ele>965.05</ele>
        <time>2024-11-06T04:50:10.801Z</time>
      </trkpt>
      <trkpt lat="44.20828" lon="3.40573">
        <ele>964.28</ele>
        <time>2024-11-06T04:50:28.083Z</time>
      </trkpt>
      <trkpt lat="44.20829" lon="3.4058">
        <ele>963.53</ele>
        <time>2024-11-06T04:50:45.365Z</time>
      </trkpt>
      <trkpt lat="44.20837" lon="3.40622">
        <ele>962.77</ele>
        <time>2024-11-06T04:51:02.652Z</time>
      </trkpt>
      <trkpt lat="44.20841" lon="3.40641">
        <ele>962</ele>
        <time>2024-11-06T04:51:19.942Z</time>
      </trkpt>
      <trkpt lat="44.20856" lon="3.40679">
        <ele>961.23</ele>
        <time>2024-11-06T04:51:37.237Z</time>
      </trkpt>
      <trkpt lat="44.20867" lon="3.40706">
        <ele>960.49</ele>
        <time>2024-11-06T04:51:54.535Z</time>
      </trkpt>
      <trkpt lat="44.20873" lon="3.40733">
        <ele>959.74</ele>
        <time>2024-11-06T04:52:11.837Z</time>
      </trkpt>
      <trkpt lat="44.20874" lon="3.40765">
        <ele>958.94</ele>
        <time>2024-11-06T04:52:29.142Z</time>
      </trkpt>
      <trkpt lat="44.20876" lon="3.40809">
        <ele>958.16</ele>
        <time>2024-11-06T04:52:46.452Z</time>
      </trkpt>
      <trkpt lat="44.20877" lon="3.40837">
        <ele>957.36</ele>
        <time>2024-11-06T04:53:03.766Z</time>
      </trkpt>
      <trkpt lat="44.20887" lon="3.40878">
        <ele>956.56</ele>
        <time>2024-11-06T04:53:21.085Z</time>
      </trkpt>
      <trkpt lat="44.20889" lon="3.40885">
        <ele>955.76</ele>
        <time>2024-11-06T04:53:38.404Z</time>
      </trkpt>
      <trkpt lat="44.20896" lon="3.40918">
        <ele>954.92</ele>
        <time>2024-11-06T04:53:55.727Z</time>
      </trkpt>
      <trkpt lat="44.20903" lon="3.40933">
        <ele>954.11</ele>
        <time>2024-11-06T04:54:13.052Z</time>
      </trkpt>
      <trkpt lat="44.20917" lon="3.40965">
        <ele>953.31</ele>
        <time>2024-11-06T04:54:30.382Z</time>
      </trkpt>
      <trkpt lat="44.20921" lon="3.40987">
        <ele>952.47</ele>
        <time>2024-11-06T04:54:47.714Z</time>
      </trkpt>
      <trkpt lat="44.20921" lon="3.41031">
        <ele>951.58</ele>
        <time>2024-11-06T04:55:05.051Z</time>
      </trkpt>
      <trkpt lat="44.20921" lon="3.4104">
        <ele>950.75</ele>
        <time>2024-11-06T04:55:22.389Z</time>
      </trkpt>
      <trkpt lat="44.20919" lon="3.41053">
        <ele>949.9</ele>
        <time>2024-11-06T04:55:39.729Z</time>
      </trkpt>
      <trkpt lat="44.20915" lon="3.41075">
        <ele>949.04</ele>
        <time>2024-11-06T04:55:57.072Z</time>
      </trkpt>
      <trkpt lat="44.20914" lon="3.41114">
        <ele>948.22</ele>
        <time>2024-11-06T04:56:14.419Z</time>
      </trkpt>
      <trkpt lat="44.20919" lon="3.41157">
        <ele>947.42</ele>
        <time>2024-11-06T04:56:31.771Z</time>
      </trkpt>
      <trkpt lat="44.20921" lon="3.4117">
        <ele>946.61</ele>
        <time>2024-11-06T04:56:49.125Z</time>
      </trkpt>
      <trkpt lat="44.20929" lon="3.41212">
        <ele>945.75</ele>
        <time>2024-11-06T04:57:06.484Z</time>
      </trkpt>
      <trkpt lat="44.2093" lon="3.41218">
        <ele>944.95</ele>
        <time>2024-11-06T04:57:23.843Z</time>
      </trkpt>
      <trkpt lat="44.20941" lon="3.41259">
        <ele>944.13</ele>
        <time>2024-11-06T04:57:41.207Z</time>
      </trkpt>
      <trkpt lat="44.20952" lon="3.413">
        <ele>943.33</ele>
        <time>2024-11-06T04:57:58.576Z</time>
      </trkpt>
      <trkpt lat="44.20962" lon="3.41342">
        <ele>942.5</ele>
        <time>2024-11-06T04:58:15.950Z</time>
      </trkpt>
      <trkpt lat="44.20972" lon="3.41379">
        <ele>941.7</ele>
        <time>2024-11-06T04:58:33.329Z</time>
      </trkpt>
      <trkpt lat="44.2098" lon="3.41421">
        <ele>940.88</ele>
        <time>2024-11-06T04:58:50.713Z</time>
      </trkpt>
      <trkpt lat="44.2098" lon="3.41422">
        <ele>940.19</ele>
        <time>2024-11-06T04:59:08.097Z</time>
      </trkpt>
      <trkpt lat="44.20977" lon="3.41457">
        <ele>939.42</ele>
        <time>2024-11-06T04:59:25.485Z</time>
      </trkpt>
      <trkpt lat="44.2097" lon="3.415">
        <ele>938.69</ele>
        <time>2024-11-06T04:59:42.878Z</time>
      </trkpt>
      <trkpt lat="44.20969" lon="3.41506">
        <ele>938.07</ele>
        <time>2024-11-06T05:00:00.272Z</time>
      </trkpt>
      <trkpt lat="44.20959" lon="3.41548">
        <ele>937.46</ele>
        <time>2024-11-06T05:00:17.671Z</time>
      </trkpt>
      <trkpt lat="44.2095" lon="3.41587">
        <ele>936.92</ele>
        <time>2024-11-06T05:00:35.075Z</time>
      </trkpt>
      <trkpt lat="44.20939" lon="3.41628">
        <ele>936.4</ele>
        <time>2024-11-06T05:00:52.484Z</time>
      </trkpt>
      <trkpt lat="44.20934" lon="3.41647">
        <ele>935.91</ele>
        <time>2024-11-06T05:01:09.895Z</time>
      </trkpt>
      <trkpt lat="44.20922" lon="3.41678">
        <ele>935.47</ele>
        <time>2024-11-06T05:01:27.310Z</time>
      </trkpt>
      <trkpt lat="44.20903" lon="3.41713">
        <ele>935.02</ele>
        <time>2024-11-06T05:01:44.730Z</time>
      </trkpt>
      <trkpt lat="44.20893" lon="3.41731">
        <ele>934.64</ele>
        <time>2024-11-06T05:02:02.153Z</time>
      </trkpt>
      <trkpt lat="44.20878" lon="3.41759">
        <ele>934.29</ele>
        <time>2024-11-06T05:02:19.580Z</time>
      </trkpt>
      <trkpt lat="44.20866" lon="3.4179">
        <ele>933.98</ele>
        <time>2024-11-06T05:02:37.011Z</time>
      </trkpt>
      <trkpt lat="44.2086" lon="3.41827">
        <ele>933.75</ele>
        <time>2024-11-06T05:02:54.446Z</time>
      </trkpt>
      <trkpt lat="44.20857" lon="3.41852">
        <ele>933.55</ele>
        <time>2024-11-06T05:03:11.884Z</time>
      </trkpt>
      <trkpt lat="44.20851" lon="3.41895">
        <ele>933.4</ele>
        <time>2024-11-06T05:03:29.327Z</time>
      </trkpt>
      <trkpt lat="44.20847" lon="3.41929">
        <ele>933.26</ele>
        <time>2024-11-06T05:03:46.774Z</time>
      </trkpt>
      <trkpt lat="44.2084" lon="3.41972">
        <ele>933.23</ele>
        <time>2024-11-06T05:04:04.226Z</time>
      </trkpt>
      <trkpt lat="44.20833" lon="3.42015">
        <ele>933.2</ele>
        <time>2024-11-06T05:04:21.683Z</time>
      </trkpt>
      <trkpt lat="44.20827" lon="3.42057">
        <ele>933.19</ele>
        <time>2024-11-06T05:04:39.145Z</time>
      </trkpt>
      <trkpt lat="44.20825" lon="3.42067">
        <ele>933.23</ele>
        <time>2024-11-06T05:04:56.608Z</time>
      </trkpt>
      <trkpt lat="44.20815" lon="3.42109">
        <ele>933.35</ele>
        <time>2024-11-06T05:05:14.077Z</time>
      </trkpt>
      <trkpt lat="44.20807" lon="3.42145">
        <ele>933.46</ele>
        <time>2024-11-06T05:05:31.550Z</time>
      </trkpt>
      <trkpt lat="44.20794" lon="3.42185">
        <ele>933.57</ele>
        <time>2024-11-06T05:05:49.028Z</time>
      </trkpt>
      <trkpt lat="44.20788" lon="3.42203">
        <ele>933.7</ele>
        <time>2024-11-06T05:06:06.508Z</time>
      </trkpt>
      <trkpt lat="44.20773" lon="3.4224">
        <ele>933.84</ele>
        <time>2024-11-06T05:06:23.993Z</time>
      </trkpt>
      <trkpt lat="44.20757" lon="3.42277">
        <ele>934.07</ele>
        <time>2024-11-06T05:06:41.483Z</time>
      </trkpt>
      <trkpt lat="44.20747" lon="3.42299">
        <ele>934.29</ele>
        <time>2024-11-06T05:06:58.976Z</time>
      </trkpt>
      <trkpt lat="44.20736" lon="3.42331">
        <ele>934.57</ele>
        <time>2024-11-06T05:07:16.473Z</time>
      </trkpt>
      <trkpt lat="44.20731" lon="3.42374">
        <ele>934.93</ele>
        <time>2024-11-06T05:07:33.975Z</time>
      </trkpt>
      <trkpt lat="44.2073" lon="3.42385">
        <ele>935.24</ele>
        <time>2024-11-06T05:07:51.478Z</time>
      </trkpt>
      <trkpt lat="44.20729" lon="3.42415">
        <ele>935.57</ele>
        <time>2024-11-06T05:08:08.985Z</time>
      </trkpt>
      <trkpt lat="44.20731" lon="3.42437">
        <ele>935.88</ele>
        <time>2024-11-06T05:08:26.494Z</time>
      </trkpt>
      <trkpt lat="44.20736" lon="3.42459">
        <ele>936.21</ele>
        <time>2024-11-06T05:08:44.006Z</time>
      </trkpt>
      <trkpt lat="44.20745" lon="3.42501">
        <ele>936.6</ele>
        <time>2024-11-06T05:09:01.523Z</time>
      </trkpt>
      <trkpt lat="44.20748" lon="3.42514">
        <ele>936.98</ele>
        <time>2024-11-06T05:09:19.042Z</time>
      </trkpt>
      <trkpt lat="44.20757" lon="3.42556">
        <ele>937.37</ele>
        <time>2024-11-06T05:09:36.566Z</time>
      </trkpt>
      <trkpt lat="44.2076" lon="3.4257">
        <ele>937.77</ele>
        <time>2024-11-06T05:09:54.091Z</time>
      </trkpt>
      <trkpt lat="44.2076" lon="3.4259">
        <ele>938.21</ele>
        <time>2024-11-06T05:10:11.619Z</time>
      </trkpt>
      <trkpt lat="44.20757" lon="3.4261">
        <ele>938.65</ele>
        <time>2024-11-06T05:10:29.149Z</time>
      </trkpt>
      <trkpt lat="44.20748" lon="3.42652">
        <ele>939.09</ele>
        <time>2024-11-06T05:10:46.684Z</time>
      </trkpt>
      <trkpt lat="44.20741" lon="3.42686">
        <ele>939.52</ele>
        <time>2024-11-06T05:11:04.223Z</time>
      </trkpt>
      <trkpt lat="44.20731" lon="3.42728">
        <ele>939.95</ele>
        <time>2024-11-06T05:11:21.767Z</time>
      </trkpt>
      <trkpt lat="44.20726" lon="3.42751">
        <ele>940.42</ele>
        <time>2024-11-06T05:11:39.314Z</time>
      </trkpt>
      <trkpt lat="44.20718" lon="3.42779">
        <ele>940.89</ele>
        <time>2024-11-06T05:11:56.865Z</time>
      </trkpt>
      <trkpt lat="44.20701" lon="3.42816">
        <ele>941.4</ele>
        <time>2024-11-06T05:12:14.421Z</time>
      </trkpt>
      <trkpt lat="44.207" lon="3.42817">
        <ele>941.88</ele>
        <time>2024-11-06T05:12:31.977Z</time>
      </trkpt>
      <trkpt lat="44.20686" lon="3.42845">
        <ele>942.39</ele>
        <time>2024-11-06T05:12:49.537Z</time>
      </trkpt>
      <trkpt lat="44.20664" lon="3.42877">
        <ele>942.92</ele>
        <time>2024-11-06T05:13:07.102Z</time>
      </trkpt>
      <trkpt lat="44.20662" lon="3.4288">
        <ele>943.41</ele>
        <time>2024-11-06T05:13:24.667Z</time>
      </trkpt>
      <trkpt lat="44.20649" lon="3.42892">
        <ele>943.93</ele>
        <time>2024-11-06T05:13:42.235Z</time>
      </trkpt>
      <trkpt lat="44.20635" lon="3.429">
        <ele>944.44</ele>
        <time>2024-11-06T05:13:59.805Z</time>
      </trkpt>
      <trkpt lat="44.20604" lon="3.42909">
        <ele>944.97</ele>
        <time>2024-11-06T05:14:17.380Z</time>
      </trkpt>
      <trkpt lat="44.20588" lon="3.42913">
        <ele>945.49</ele>
        <time>2024-11-06T05:14:34.958Z</time>
      </trkpt>
      <trkpt lat="44.20557" lon="3.4292">
        <ele>946.01</ele>
        <time>2024-11-06T05:14:52.541Z</time>
      </trkpt>
      <trkpt lat="44.20543" lon="3.42923">
        <ele>946.53</ele>
        <time>2024-11-06T05:15:10.126Z</time>
      </trkpt>
      <trkpt lat="44.20512" lon="3.4292">
        <ele>947.09</ele>
        <time>2024-11-06T05:15:27.716Z</time>
      </trkpt>
      <trkpt lat="44.20506" lon="3.4292">
        <ele>947.62</ele>
        <time>2024-11-06T05:15:45.307Z</time>
      </trkpt>
      <trkpt lat="44.20475" lon="3.42922">
        <ele>948.19</ele>
        <time>2024-11-06T05:16:02.903Z</time>
      </trkpt>
      <trkpt lat="44.20457" lon="3.42925">
        <ele>948.74</ele>
        <time>2024-11-06T05:16:20.502Z</time>
      </trkpt>
      <trkpt lat="44.20439" lon="3.42929">
        <ele>949.3</ele>
        <time>2024-11-06T05:16:38.104Z</time>
      </trkpt>
      <trkpt lat="44.20417" lon="3.42939">
        <ele>949.85</ele>
        <time>2024-11-06T05:16:55.710Z</time>
      </trkpt>
      <trkpt lat="44.20404" lon="3.42951">
        <ele>950.4</ele>
        <time>2024-11-06T05:17:13.318Z</time>
      </trkpt>
      <trkpt lat="44.20387" lon="3.4297">
        <ele>950.97</ele>
        <time>2024-11-06T05:17:30.930Z</time>
      </trkpt>
      <trkpt lat="44.20375" lon="3.42989">
        <ele>951.54</ele>
        <time>2024-11-06T05:17:48.544Z</time>
      </trkpt>
      <trkpt lat="44.20369" lon="3.43002">
        <ele>952.13</ele>
        <time>2024-11-06T05:18:06.160Z</time>
      </trkpt>
      <trkpt lat="44.20368" lon="3.43015">
        <ele>952.73</ele>
        <time>2024-11-06T05:18:23.778Z</time>
      </trkpt>
      <trkpt lat="44.2037" lon="3.43031">
        <ele>953.34</ele>
        <time>2024-11-06T05:18:41.398Z</time>
      </trkpt>
      <trkpt lat="44.20382" lon="3.43071">
        <ele>953.93</ele>
        <time>2024-11-06T05:18:59.023Z</time>
      </trkpt>
      <trkpt lat="44.20391" lon="3.431">
        <ele>954.58</ele>
        <time>2024-11-06T05:19:16.651Z</time>
      </trkpt>
      <trkpt lat="44.20402" lon="3.43141">
        <ele>955.27</ele>
        <time>2024-11-06T05:19:34.284Z</time>
      </trkpt>
      <trkpt lat="44.20404" lon="3.43147">
        <ele>955.99</ele>
        <time>2024-11-06T05:19:51.918Z</time>
      </trkpt>
      <trkpt lat="44.20409" lon="3.43164">
        <ele>956.74</ele>
        <time>2024-11-06T05:20:09.554Z</time>
      </trkpt>
      <trkpt lat="44.20417" lon="3.4316">
        <ele>957.48</ele>
        <time>2024-11-06T05:20:27.192Z</time>
      </trkpt>
      <trkpt lat="44.20417" lon="3.4316">
        <ele>958.27</ele>
        <time>2024-11-06T05:20:44.830Z</time>
      </trkpt>
      <trkpt lat="44.20417" lon="3.4316">
        <ele>959.08</ele>
        <time>2024-11-06T05:21:02.468Z</time>
      </trkpt>
      <trkpt lat="44.20417" lon="3.4316">
        <ele>959.92</ele>
        <time>2024-11-06T05:21:20.106Z</time>
      </trkpt>
      <trkpt lat="44.20409" lon="3.43164">
        <ele>956.74</ele>
        <time>2024-11-06T05:21:37.745Z</time>
      </trkpt>
      <trkpt lat="44.20421" lon="3.43204">
        <ele>961.79</ele>
        <time>2024-11-06T05:21:55.389Z</time>
      </trkpt>
      <trkpt lat="44.20434" lon="3.43244">
        <ele>962.83</ele>
        <time>2024-11-06T05:22:13.038Z</time>
      </trkpt>
      <trkpt lat="44.20446" lon="3.43285">
        <ele>963.86</ele>
        <time>2024-11-06T05:22:30.692Z</time>
      </trkpt>
      <trkpt lat="44.20448" lon="3.4329">
        <ele>964.84</ele>
        <time>2024-11-06T05:22:48.347Z</time>
      </trkpt>
      <trkpt lat="44.20449" lon="3.4331">
        <ele>965.87</ele>
        <time>2024-11-06T05:23:06.004Z</time>
      </trkpt>
      <trkpt lat="44.20444" lon="3.4333">
        <ele>966.94</ele>
        <time>2024-11-06T05:23:23.664Z</time>
      </trkpt>
      <trkpt lat="44.20436" lon="3.4334">
        <ele>968</ele>
        <time>2024-11-06T05:23:41.325Z</time>
      </trkpt>
      <trkpt lat="44.20412" lon="3.43359">
        <ele>969.13</ele>
        <time>2024-11-06T05:23:58.991Z</time>
      </trkpt>
      <trkpt lat="44.20386" lon="3.43384">
        <ele>970.27</ele>
        <time>2024-11-06T05:24:16.662Z</time>
      </trkpt>
      <trkpt lat="44.20383" lon="3.43387">
        <ele>971.36</ele>
        <time>2024-11-06T05:24:34.333Z</time>
      </trkpt>
      <trkpt lat="44.20368" lon="3.43402">
        <ele>972.5</ele>
        <time>2024-11-06T05:24:52.007Z</time>
      </trkpt>
      <trkpt lat="44.20345" lon="3.43431">
        <ele>973.7</ele>
        <time>2024-11-06T05:25:09.686Z</time>
      </trkpt>
      <trkpt lat="44.20341" lon="3.43436">
        <ele>974.84</ele>
        <time>2024-11-06T05:25:27.366Z</time>
      </trkpt>
      <trkpt lat="44.20318" lon="3.43466">
        <ele>976.08</ele>
        <time>2024-11-06T05:25:45.051Z</time>
      </trkpt>
      <trkpt lat="44.20312" lon="3.43473">
        <ele>977.25</ele>
        <time>2024-11-06T05:26:02.737Z</time>
      </trkpt>
      <trkpt lat="44.20288" lon="3.43501">
        <ele>978.47</ele>
        <time>2024-11-06T05:26:20.428Z</time>
      </trkpt>
      <trkpt lat="44.20279" lon="3.43512">
        <ele>979.64</ele>
        <time>2024-11-06T05:26:38.121Z</time>
      </trkpt>
      <trkpt lat="44.20267" lon="3.43537">
        <ele>980.88</ele>
        <time>2024-11-06T05:26:55.818Z</time>
      </trkpt>
      <trkpt lat="44.20253" lon="3.43555">
        <ele>982.1</ele>
        <time>2024-11-06T05:27:13.518Z</time>
      </trkpt>
      <trkpt lat="44.20247" lon="3.43559">
        <ele>983.29</ele>
        <time>2024-11-06T05:27:31.219Z</time>
      </trkpt>
      <trkpt lat="44.20239" lon="3.43561">
        <ele>984.47</ele>
        <time>2024-11-06T05:27:48.921Z</time>
      </trkpt>
      <trkpt lat="44.2022" lon="3.43562">
        <ele>985.65</ele>
        <time>2024-11-06T05:28:06.626Z</time>
      </trkpt>
      <trkpt lat="44.20189" lon="3.43558">
        <ele>986.86</ele>
        <time>2024-11-06T05:28:24.336Z</time>
      </trkpt>
      <trkpt lat="44.20181" lon="3.43557">
        <ele>988.04</ele>
        <time>2024-11-06T05:28:42.048Z</time>
      </trkpt>
      <trkpt lat="44.20156" lon="3.43543">
        <ele>989.21</ele>
        <time>2024-11-06T05:28:59.764Z</time>
      </trkpt>
      <trkpt lat="44.20145" lon="3.43535">
        <ele>990.39</ele>
        <time>2024-11-06T05:29:17.482Z</time>
      </trkpt>
      <trkpt lat="44.20128" lon="3.4353">
        <ele>991.6</ele>
        <time>2024-11-06T05:29:35.203Z</time>
      </trkpt>
      <trkpt lat="44.20118" lon="3.43529">
        <ele>992.79</ele>
        <time>2024-11-06T05:29:52.925Z</time>
      </trkpt>
      <trkpt lat="44.20112" lon="3.43531">
        <ele>993.97</ele>
        <time>2024-11-06T05:30:10.648Z</time>
      </trkpt>
      <trkpt lat="44.20102" lon="3.43539">
        <ele>995.15</ele>
        <time>2024-11-06T05:30:28.373Z</time>
      </trkpt>
      <trkpt lat="44.20097" lon="3.43549">
        <ele>996.29</ele>
        <time>2024-11-06T05:30:46.099Z</time>
      </trkpt>
      <trkpt lat="44.20094" lon="3.43571">
        <ele>997.44</ele>
        <time>2024-11-06T05:31:03.828Z</time>
      </trkpt>
      <trkpt lat="44.2009" lon="3.4361">
        <ele>998.59</ele>
        <time>2024-11-06T05:31:21.562Z</time>
      </trkpt>
      <trkpt lat="44.20084" lon="3.43645">
        <ele>999.78</ele>
        <time>2024-11-06T05:31:39.300Z</time>
      </trkpt>
      <trkpt lat="44.20076" lon="3.4368">
        <ele>1000.91</ele>
        <time>2024-11-06T05:31:57.042Z</time>
      </trkpt>
      <trkpt lat="44.20071" lon="3.43723">
        <ele>1002.02</ele>
        <time>2024-11-06T05:32:14.789Z</time>
      </trkpt>
      <trkpt lat="44.20068" lon="3.43754">
        <ele>1003.04</ele>
        <time>2024-11-06T05:32:32.540Z</time>
      </trkpt>
      <trkpt lat="44.20067" lon="3.43798">
        <ele>1004.14</ele>
        <time>2024-11-06T05:32:50.296Z</time>
      </trkpt>
      <trkpt lat="44.20066" lon="3.43817">
        <ele>1005.17</ele>
        <time>2024-11-06T05:33:08.054Z</time>
      </trkpt>
      <trkpt lat="44.20069" lon="3.43857">
        <ele>1006.14</ele>
        <time>2024-11-06T05:33:25.816Z</time>
      </trkpt>
      <trkpt lat="44.20073" lon="3.43867">
        <ele>1007.07</ele>
        <time>2024-11-06T05:33:43.580Z</time>
      </trkpt>
      <trkpt lat="44.2008" lon="3.43872">
        <ele>1007.99</ele>
        <time>2024-11-06T05:34:01.345Z</time>
      </trkpt>
      <trkpt lat="44.20086" lon="3.43873">
        <ele>1008.9</ele>
        <time>2024-11-06T05:34:19.111Z</time>
      </trkpt>
      <trkpt lat="44.20103" lon="3.43871">
        <ele>1009.8</ele>
        <time>2024-11-06T05:34:36.880Z</time>
      </trkpt>
      <trkpt lat="44.2012" lon="3.43866">
        <ele>1010.72</ele>
        <time>2024-11-06T05:34:54.651Z</time>
      </trkpt>
      <trkpt lat="44.2013" lon="3.4386">
        <ele>1011.59</ele>
        <time>2024-11-06T05:35:12.424Z</time>
      </trkpt>
      <trkpt lat="44.20146" lon="3.43841">
        <ele>1012.43</ele>
        <time>2024-11-06T05:35:30.201Z</time>
      </trkpt>
      <trkpt lat="44.20156" lon="3.43834">
        <ele>1013.23</ele>
        <time>2024-11-06T05:35:47.979Z</time>
      </trkpt>
      <trkpt lat="44.20168" lon="3.43831">
        <ele>1014.01</ele>
        <time>2024-11-06T05:36:05.759Z</time>
      </trkpt>
      <trkpt lat="44.20185" lon="3.43835">
        <ele>1014.79</ele>
        <time>2024-11-06T05:36:23.542Z</time>
      </trkpt>
      <trkpt lat="44.20213" lon="3.43855">
        <ele>1015.61</ele>
        <time>2024-11-06T05:36:41.330Z</time>
      </trkpt>
      <trkpt lat="44.20233" lon="3.4387">
        <ele>1016.37</ele>
        <time>2024-11-06T05:36:59.122Z</time>
      </trkpt>
      <trkpt lat="44.20261" lon="3.43891">
        <ele>1017.13</ele>
        <time>2024-11-06T05:37:16.919Z</time>
      </trkpt>
      <trkpt lat="44.20288" lon="3.43912">
        <ele>1017.82</ele>
        <time>2024-11-06T05:37:34.721Z</time>
      </trkpt>
      <trkpt lat="44.20293" lon="3.43916">
        <ele>1018.47</ele>
        <time>2024-11-06T05:37:52.524Z</time>
      </trkpt>
      <trkpt lat="44.20315" lon="3.43935">
        <ele>1019.09</ele>
        <time>2024-11-06T05:38:10.331Z</time>
      </trkpt>
      <trkpt lat="44.2034" lon="3.43962">
        <ele>1019.72</ele>
        <time>2024-11-06T05:38:28.143Z</time>
      </trkpt>
      <trkpt lat="44.2034" lon="3.43962">
        <ele>1020.34</ele>
        <time>2024-11-06T05:38:45.955Z</time>
      </trkpt>
      <trkpt lat="44.20365" lon="3.4399">
        <ele>1021</ele>
        <time>2024-11-06T05:39:03.772Z</time>
      </trkpt>
      <trkpt lat="44.20382" lon="3.44009">
        <ele>1021.66</ele>
        <time>2024-11-06T05:39:21.593Z</time>
      </trkpt>
      <trkpt lat="44.20406" lon="3.44037">
        <ele>1022.35</ele>
        <time>2024-11-06T05:39:39.419Z</time>
      </trkpt>
      <trkpt lat="44.20415" lon="3.44048">
        <ele>1022.94</ele>
        <time>2024-11-06T05:39:57.247Z</time>
      </trkpt>
      <trkpt lat="44.20436" lon="3.4408">
        <ele>1023.5</ele>
        <time>2024-11-06T05:40:15.080Z</time>
      </trkpt>
      <trkpt lat="44.20447" lon="3.44096">
        <ele>1024.05</ele>
        <time>2024-11-06T05:40:32.915Z</time>
      </trkpt>
      <trkpt lat="44.20451" lon="3.4411">
        <ele>1024.59</ele>
        <time>2024-11-06T05:40:50.752Z</time>
      </trkpt>
      <trkpt lat="44.20457" lon="3.44143">
        <ele>1025.15</ele>
        <time>2024-11-06T05:41:08.593Z</time>
      </trkpt>
      <trkpt lat="44.20463" lon="3.44186">
        <ele>1025.69</ele>
        <time>2024-11-06T05:41:26.439Z</time>
      </trkpt>
      <trkpt lat="44.2047" lon="3.44229">
        <ele>1026.24</ele>
        <time>2024-11-06T05:41:44.290Z</time>
      </trkpt>
      <trkpt lat="44.20472" lon="3.44243">
        <ele>1026.81</ele>
        <time>2024-11-06T05:42:02.142Z</time>
      </trkpt>
      <trkpt lat="44.20475" lon="3.44287">
        <ele>1027.43</ele>
        <time>2024-11-06T05:42:19.999Z</time>
      </trkpt>
      <trkpt lat="44.20476" lon="3.44299">
        <ele>1028.03</ele>
        <time>2024-11-06T05:42:37.858Z</time>
      </trkpt>
      <trkpt lat="44.20475" lon="3.44328">
        <ele>1028.64</ele>
        <time>2024-11-06T05:42:55.720Z</time>
      </trkpt>
      <trkpt lat="44.2047" lon="3.44371">
        <ele>1029.21</ele>
        <time>2024-11-06T05:43:13.587Z</time>
      </trkpt>
      <trkpt lat="44.20465" lon="3.44414">
        <ele>1029.81</ele>
        <time>2024-11-06T05:43:31.459Z</time>
      </trkpt>
      <trkpt lat="44.20464" lon="3.44419">
        <ele>1030.47</ele>
        <time>2024-11-06T05:43:49.332Z</time>
      </trkpt>
      <trkpt lat="44.20462" lon="3.44438">
        <ele>1031.18</ele>
        <time>2024-11-06T05:44:07.207Z</time>
      </trkpt>
      <trkpt lat="44.20457" lon="3.4446">
        <ele>1031.9</ele>
        <time>2024-11-06T05:44:25.085Z</time>
      </trkpt>
      <trkpt lat="44.2045" lon="3.44473">
        <ele>1032.65</ele>
        <time>2024-11-06T05:44:42.965Z</time>
      </trkpt>
      <trkpt lat="44.20427" lon="3.445">
        <ele>1033.38</ele>
        <time>2024-11-06T05:45:00.849Z</time>
      </trkpt>
      <trkpt lat="44.20416" lon="3.44513">
        <ele>1034.12</ele>
        <time>2024-11-06T05:45:18.736Z</time>
      </trkpt>
      <trkpt lat="44.20404" lon="3.44538">
        <ele>1034.91</ele>
        <time>2024-11-06T05:45:36.626Z</time>
      </trkpt>
      <trkpt lat="44.20396" lon="3.44561">
        <ele>1035.75</ele>
        <time>2024-11-06T05:45:54.519Z</time>
      </trkpt>
      <trkpt lat="44.2039" lon="3.44584">
        <ele>1036.62</ele>
        <time>2024-11-06T05:46:12.415Z</time>
      </trkpt>
      <trkpt lat="44.20386" lon="3.44622">
        <ele>1037.6</ele>
        <time>2024-11-06T05:46:30.315Z</time>
      </trkpt>
      <trkpt lat="44.2039" lon="3.44658">
        <ele>1038.54</ele>
        <time>2024-11-06T05:46:48.220Z</time>
      </trkpt>
      <trkpt lat="44.20397" lon="3.44701">
        <ele>1039.43</ele>
        <time>2024-11-06T05:47:06.130Z</time>
      </trkpt>
      <trkpt lat="44.20398" lon="3.44707">
        <ele>1040.3</ele>
        <time>2024-11-06T05:47:24.040Z</time>
      </trkpt>
      <trkpt lat="44.20401" lon="3.44731">
        <ele>1041.17</ele>
        <time>2024-11-06T05:47:41.953Z</time>
      </trkpt>
      <trkpt lat="44.20402" lon="3.44775">
        <ele>1042.04</ele>
        <time>2024-11-06T05:47:59.871Z</time>
      </trkpt>
      <trkpt lat="44.20403" lon="3.44819">
        <ele>1042.92</ele>
        <time>2024-11-06T05:48:17.794Z</time>
      </trkpt>
      <trkpt lat="44.20404" lon="3.44849">
        <ele>1043.83</ele>
        <time>2024-11-06T05:48:35.721Z</time>
      </trkpt>
      <trkpt lat="44.20407" lon="3.44893">
        <ele>1044.82</ele>
        <time>2024-11-06T05:48:53.653Z</time>
      </trkpt>
      <trkpt lat="44.20408" lon="3.44907">
        <ele>1045.81</ele>
        <time>2024-11-06T05:49:11.586Z</time>
      </trkpt>
      <trkpt lat="44.20413" lon="3.4494">
        <ele>1046.83</ele>
        <time>2024-11-06T05:49:29.523Z</time>
      </trkpt>
      <trkpt lat="44.20426" lon="3.44978">
        <ele>1047.86</ele>
        <time>2024-11-06T05:49:47.465Z</time>
      </trkpt>
      <trkpt lat="44.2044" lon="3.45018">
        <ele>1048.95</ele>
        <time>2024-11-06T05:50:05.412Z</time>
      </trkpt>
      <trkpt lat="44.20453" lon="3.45057">
        <ele>1050.09</ele>
        <time>2024-11-06T05:50:23.364Z</time>
      </trkpt>
      <trkpt lat="44.20457" lon="3.45068">
        <ele>1051.11</ele>
        <time>2024-11-06T05:50:41.318Z</time>
      </trkpt>
      <trkpt lat="44.2047" lon="3.45108">
        <ele>1052.17</ele>
        <time>2024-11-06T05:50:59.277Z</time>
      </trkpt>
      <trkpt lat="44.20479" lon="3.45137">
        <ele>1053.16</ele>
        <time>2024-11-06T05:51:17.239Z</time>
      </trkpt>
      <trkpt lat="44.20487" lon="3.45167">
        <ele>1054.2</ele>
        <time>2024-11-06T05:51:35.205Z</time>
      </trkpt>
      <trkpt lat="44.20487" lon="3.45185">
        <ele>1055.23</ele>
        <time>2024-11-06T05:51:53.173Z</time>
      </trkpt>
      <trkpt lat="44.2048" lon="3.45228">
        <ele>1056.32</ele>
        <time>2024-11-06T05:52:11.146Z</time>
      </trkpt>
      <trkpt lat="44.20479" lon="3.45234">
        <ele>1057.38</ele>
        <time>2024-11-06T05:52:29.120Z</time>
      </trkpt>
      <trkpt lat="44.20473" lon="3.45258">
        <ele>1058.44</ele>
        <time>2024-11-06T05:52:47.097Z</time>
      </trkpt>
      <trkpt lat="44.20457" lon="3.45283">
        <ele>1059.55</ele>
        <time>2024-11-06T05:53:05.078Z</time>
      </trkpt>
      <trkpt lat="44.20438" lon="3.4531">
        <ele>1060.61</ele>
        <time>2024-11-06T05:53:23.063Z</time>
      </trkpt>
      <trkpt lat="44.20419" lon="3.45345">
        <ele>1061.57</ele>
        <time>2024-11-06T05:53:41.053Z</time>
      </trkpt>
      <trkpt lat="44.20415" lon="3.45352">
        <ele>1062.6</ele>
        <time>2024-11-06T05:53:59.044Z</time>
      </trkpt>
      <trkpt lat="44.20405" lon="3.45376">
        <ele>1063.65</ele>
        <time>2024-11-06T05:54:17.038Z</time>
      </trkpt>
      <trkpt lat="44.20388" lon="3.45413">
        <ele>1064.71</ele>
        <time>2024-11-06T05:54:35.037Z</time>
      </trkpt>
      <trkpt lat="44.20383" lon="3.45423">
        <ele>1065.73</ele>
        <time>2024-11-06T05:54:53.038Z</time>
      </trkpt>
      <trkpt lat="44.20367" lon="3.45461">
        <ele>1066.74</ele>
        <time>2024-11-06T05:55:11.044Z</time>
      </trkpt>
      <trkpt lat="44.20363" lon="3.45471">
        <ele>1067.77</ele>
        <time>2024-11-06T05:55:29.051Z</time>
      </trkpt>
      <trkpt lat="44.20351" lon="3.45512">
        <ele>1068.85</ele>
        <time>2024-11-06T05:55:47.063Z</time>
      </trkpt>
      <trkpt lat="44.20347" lon="3.45525">
        <ele>1069.82</ele>
        <time>2024-11-06T05:56:05.077Z</time>
      </trkpt>
      <trkpt lat="44.20345" lon="3.45555">
        <ele>1070.74</ele>
        <time>2024-11-06T05:56:23.094Z</time>
      </trkpt>
      <trkpt lat="44.20348" lon="3.45576">
        <ele>1071.66</ele>
        <time>2024-11-06T05:56:41.114Z</time>
      </trkpt>
      <trkpt lat="44.20356" lon="3.45619">
        <ele>1072.6</ele>
        <time>2024-11-06T05:56:59.139Z</time>
      </trkpt>
      <trkpt lat="44.20363" lon="3.45661">
        <ele>1073.52</ele>
        <time>2024-11-06T05:57:17.169Z</time>
      </trkpt>
      <trkpt lat="44.20371" lon="3.45703">
        <ele>1074.51</ele>
        <time>2024-11-06T05:57:35.204Z</time>
      </trkpt>
      <trkpt lat="44.20376" lon="3.45732">
        <ele>1075.43</ele>
        <time>2024-11-06T05:57:53.242Z</time>
      </trkpt>
      <trkpt lat="44.20385" lon="3.45774">
        <ele>1076.25</ele>
        <time>2024-11-06T05:58:11.285Z</time>
      </trkpt>
      <trkpt lat="44.20388" lon="3.45786">
        <ele>1077.07</ele>
        <time>2024-11-06T05:58:29.330Z</time>
      </trkpt>
      <trkpt lat="44.20401" lon="3.45826">
        <ele>1077.88</ele>
        <time>2024-11-06T05:58:47.380Z</time>
      </trkpt>
      <trkpt lat="44.2041" lon="3.45855">
        <ele>1078.59</ele>
        <time>2024-11-06T05:59:05.433Z</time>
      </trkpt>
      <trkpt lat="44.20425" lon="3.45894">
        <ele>1079.24</ele>
        <time>2024-11-06T05:59:23.492Z</time>
      </trkpt>
      <trkpt lat="44.20437" lon="3.45925">
        <ele>1080.02</ele>
        <time>2024-11-06T05:59:41.555Z</time>
      </trkpt>
      <trkpt lat="44.20437" lon="3.45925">
        <ele>1080.62</ele>
        <time>2024-11-06T05:59:59.618Z</time>
      </trkpt>
      <trkpt lat="44.20437" lon="3.45925">
        <ele>1081.19</ele>
        <time>2024-11-06T06:00:17.681Z</time>
      </trkpt>
      <trkpt lat="44.20437" lon="3.45925">
        <ele>1081.7</ele>
        <time>2024-11-06T06:00:35.744Z</time>
      </trkpt>
      <trkpt lat="44.2045" lon="3.45965">
        <ele>1082.25</ele>
        <time>2024-11-06T06:00:53.812Z</time>
      </trkpt>
      <trkpt lat="44.20459" lon="3.4599">
        <ele>1082.77</ele>
        <time>2024-11-06T06:01:11.883Z</time>
      </trkpt>
      <trkpt lat="44.20472" lon="3.4603">
        <ele>1083.28</ele>
        <time>2024-11-06T06:01:29.959Z</time>
      </trkpt>
      <trkpt lat="44.20479" lon="3.46052">
        <ele>1083.61</ele>
        <time>2024-11-06T06:01:48.038Z</time>
      </trkpt>
      <trkpt lat="44.20487" lon="3.46094">
        <ele>1083.86</ele>
        <time>2024-11-06T06:02:06.122Z</time>
      </trkpt>
      <trkpt lat="44.20492" lon="3.46117">
        <ele>1084.02</ele>
        <time>2024-11-06T06:02:24.208Z</time>
      </trkpt>
      <trkpt lat="44.20498" lon="3.46149">
        <ele>1084.1</ele>
        <time>2024-11-06T06:02:42.298Z</time>
      </trkpt>
      <trkpt lat="44.20506" lon="3.46175">
        <ele>1084.15</ele>
        <time>2024-11-06T06:03:00.392Z</time>
      </trkpt>
      <trkpt lat="44.2052" lon="3.46214">
        <ele>1084.12</ele>
        <time>2024-11-06T06:03:18.491Z</time>
      </trkpt>
      <trkpt lat="44.20529" lon="3.4624">
        <ele>1084.07</ele>
        <time>2024-11-06T06:03:36.593Z</time>
      </trkpt>
      <trkpt lat="44.20539" lon="3.46265">
        <ele>1083.93</ele>
        <time>2024-11-06T06:03:54.698Z</time>
      </trkpt>
      <trkpt lat="44.20555" lon="3.46295">
        <ele>1083.69</ele>
        <time>2024-11-06T06:04:12.807Z</time>
      </trkpt>
      <trkpt lat="44.20576" lon="3.46327">
        <ele>1083.36</ele>
        <time>2024-11-06T06:04:30.922Z</time>
      </trkpt>
      <trkpt lat="44.20598" lon="3.46359">
        <ele>1082.99</ele>
        <time>2024-11-06T06:04:49.042Z</time>
      </trkpt>
      <trkpt lat="44.20619" lon="3.46391">
        <ele>1082.58</ele>
        <time>2024-11-06T06:05:07.167Z</time>
      </trkpt>
      <trkpt lat="44.20629" lon="3.46406">
        <ele>1082.13</ele>
        <time>2024-11-06T06:05:25.294Z</time>
      </trkpt>
      <trkpt lat="44.20646" lon="3.46443">
        <ele>1081.55</ele>
        <time>2024-11-06T06:05:43.426Z</time>
      </trkpt>
      <trkpt lat="44.20661" lon="3.46473">
        <ele>1080.89</ele>
        <time>2024-11-06T06:06:01.562Z</time>
      </trkpt>
      <trkpt lat="44.20675" lon="3.46509">
        <ele>1080.14</ele>
        <time>2024-11-06T06:06:19.703Z</time>
      </trkpt>
      <trkpt lat="44.20684" lon="3.46532">
        <ele>1079.43</ele>
        <time>2024-11-06T06:06:37.847Z</time>
      </trkpt>
      <trkpt lat="44.20689" lon="3.46539">
        <ele>1078.73</ele>
        <time>2024-11-06T06:06:55.992Z</time>
      </trkpt>
      <trkpt lat="44.20703" lon="3.46555">
        <ele>1077.97</ele>
        <time>2024-11-06T06:07:14.140Z</time>
      </trkpt>
      <trkpt lat="44.20716" lon="3.46572">
        <ele>1077.2</ele>
        <time>2024-11-06T06:07:32.291Z</time>
      </trkpt>
      <trkpt lat="44.20729" lon="3.46589">
        <ele>1076.41</ele>
        <time>2024-11-06T06:07:50.445Z</time>
      </trkpt>
      <trkpt lat="44.20747" lon="3.46625">
        <ele>1075.57</ele>
        <time>2024-11-06T06:08:08.604Z</time>
      </trkpt>
      <trkpt lat="44.20751" lon="3.46633">
        <ele>1074.65</ele>
        <time>2024-11-06T06:08:26.764Z</time>
      </trkpt>
      <trkpt lat="44.20769" lon="3.46669">
        <ele>1073.7</ele>
        <time>2024-11-06T06:08:44.929Z</time>
      </trkpt>
      <trkpt lat="44.2077" lon="3.46672">
        <ele>1072.71</ele>
        <time>2024-11-06T06:09:03.094Z</time>
      </trkpt>
      <trkpt lat="44.20786" lon="3.46696">
        <ele>1071.67</ele>
        <time>2024-11-06T06:09:21.263Z</time>
      </trkpt>
      <trkpt lat="44.208" lon="3.46706">
        <ele>1070.64</ele>
        <time>2024-11-06T06:09:39.434Z</time>
      </trkpt>
      <trkpt lat="44.20818" lon="3.46715">
        <ele>1069.56</ele>
        <time>2024-11-06T06:09:57.609Z</time>
      </trkpt>
      <trkpt lat="44.20847" lon="3.46733">
        <ele>1068.45</ele>
        <time>2024-11-06T06:10:15.789Z</time>
      </trkpt>
      <trkpt lat="44.2086" lon="3.46741">
        <ele>1067.32</ele>
        <time>2024-11-06T06:10:33.971Z</time>
      </trkpt>
      <trkpt lat="44.2088" lon="3.46751">
        <ele>1066.16</ele>
        <time>2024-11-06T06:10:52.156Z</time>
      </trkpt>
      <trkpt lat="44.20907" lon="3.46759">
        <ele>1064.92</ele>
        <time>2024-11-06T06:11:10.346Z</time>
      </trkpt>
      <trkpt lat="44.20921" lon="3.46759">
        <ele>1063.77</ele>
        <time>2024-11-06T06:11:28.538Z</time>
      </trkpt>
      <trkpt lat="44.20935" lon="3.46753">
        <ele>1062.64</ele>
        <time>2024-11-06T06:11:46.732Z</time>
      </trkpt>
      <trkpt lat="44.20946" lon="3.46753">
        <ele>1061.47</ele>
        <time>2024-11-06T06:12:04.928Z</time>
      </trkpt>
      <trkpt lat="44.2096" lon="3.4676">
        <ele>1060.25</ele>
        <time>2024-11-06T06:12:23.126Z</time>
      </trkpt>
      <trkpt lat="44.20971" lon="3.4677">
        <ele>1059.03</ele>
        <time>2024-11-06T06:12:41.327Z</time>
      </trkpt>
      <trkpt lat="44.20984" lon="3.46784">
        <ele>1057.79</ele>
        <time>2024-11-06T06:12:59.530Z</time>
      </trkpt>
      <trkpt lat="44.21005" lon="3.46816">
        <ele>1056.49</ele>
        <time>2024-11-06T06:13:17.738Z</time>
      </trkpt>
      <trkpt lat="44.21009" lon="3.46822">
        <ele>1055.34</ele>
        <time>2024-11-06T06:13:35.947Z</time>
      </trkpt>
      <trkpt lat="44.21029" lon="3.46855">
        <ele>1054.18</ele>
        <time>2024-11-06T06:13:54.161Z</time>
      </trkpt>
      <trkpt lat="44.21034" lon="3.46863">
        <ele>1053.08</ele>
        <time>2024-11-06T06:14:12.376Z</time>
      </trkpt>
      <trkpt lat="44.21055" lon="3.46896">
        <ele>1051.98</ele>
        <time>2024-11-06T06:14:30.596Z</time>
      </trkpt>
      <trkpt lat="44.21065" lon="3.46913">
        <ele>1050.89</ele>
        <time>2024-11-06T06:14:48.819Z</time>
      </trkpt>
      <trkpt lat="44.21086" lon="3.46946">
        <ele>1049.85</ele>
        <time>2024-11-06T06:15:07.047Z</time>
      </trkpt>
      <trkpt lat="44.21102" lon="3.46971">
        <ele>1048.87</ele>
        <time>2024-11-06T06:15:25.279Z</time>
      </trkpt>
      <trkpt lat="44.2112" lon="3.47007">
        <ele>1047.85</ele>
        <time>2024-11-06T06:15:43.516Z</time>
      </trkpt>
      <trkpt lat="44.21128" lon="3.47025">
        <ele>1046.89</ele>
        <time>2024-11-06T06:16:01.755Z</time>
      </trkpt>
      <trkpt lat="44.21142" lon="3.4706">
        <ele>1045.96</ele>
        <time>2024-11-06T06:16:19.999Z</time>
      </trkpt>
      <trkpt lat="44.21159" lon="3.47097">
        <ele>1045.08</ele>
        <time>2024-11-06T06:16:38.248Z</time>
      </trkpt>
      <trkpt lat="44.21168" lon="3.47117">
        <ele>1044.27</ele>
        <time>2024-11-06T06:16:56.500Z</time>
      </trkpt>
      <trkpt lat="44.21169" lon="3.47161">
        <ele>1043.54</ele>
        <time>2024-11-06T06:17:14.757Z</time>
      </trkpt>
      <trkpt lat="44.2117" lon="3.4718">
        <ele>1042.85</ele>
        <time>2024-11-06T06:17:33.016Z</time>
      </trkpt>
      <trkpt lat="44.21174" lon="3.47223">
        <ele>1042.22</ele>
        <time>2024-11-06T06:17:51.280Z</time>
      </trkpt>
      <trkpt lat="44.21176" lon="3.47245">
        <ele>1041.61</ele>
        <time>2024-11-06T06:18:09.546Z</time>
      </trkpt>
      <trkpt lat="44.21178" lon="3.47289">
        <ele>1041.02</ele>
        <time>2024-11-06T06:18:27.818Z</time>
      </trkpt>
      <trkpt lat="44.21178" lon="3.47291">
        <ele>1040.46</ele>
        <time>2024-11-06T06:18:46.090Z</time>
      </trkpt>
      <trkpt lat="44.21177" lon="3.47317">
        <ele>1039.93</ele>
        <time>2024-11-06T06:19:04.365Z</time>
      </trkpt>
      <trkpt lat="44.21178" lon="3.47361">
        <ele>1039.43</ele>
        <time>2024-11-06T06:19:22.645Z</time>
      </trkpt>
      <trkpt lat="44.21179" lon="3.47381">
        <ele>1039</ele>
        <time>2024-11-06T06:19:40.927Z</time>
      </trkpt>
      <trkpt lat="44.21177" lon="3.47414">
        <ele>1038.59</ele>
        <time>2024-11-06T06:19:59.213Z</time>
      </trkpt>
      <trkpt lat="44.21165" lon="3.47441">
        <ele>1038.19</ele>
        <time>2024-11-06T06:20:17.503Z</time>
      </trkpt>
      <trkpt lat="44.21153" lon="3.4746">
        <ele>1037.88</ele>
        <time>2024-11-06T06:20:35.796Z</time>
      </trkpt>
      <trkpt lat="44.21132" lon="3.47482">
        <ele>1037.66</ele>
        <time>2024-11-06T06:20:54.093Z</time>
      </trkpt>
      <trkpt lat="44.21106" lon="3.47506">
        <ele>1037.53</ele>
        <time>2024-11-06T06:21:12.395Z</time>
      </trkpt>
      <trkpt lat="44.21083" lon="3.47527">
        <ele>1037.35</ele>
        <time>2024-11-06T06:21:30.701Z</time>
      </trkpt>
      <trkpt lat="44.21056" lon="3.47549">
        <ele>1037.15</ele>
        <time>2024-11-06T06:21:49.012Z</time>
      </trkpt>
      <trkpt lat="44.21036" lon="3.47564">
        <ele>1036.96</ele>
        <time>2024-11-06T06:22:07.327Z</time>
      </trkpt>
      <trkpt lat="44.21022" lon="3.47578">
        <ele>1036.8</ele>
        <time>2024-11-06T06:22:25.645Z</time>
      </trkpt>
      <trkpt lat="44.21009" lon="3.47595">
        <ele>1036.66</ele>
        <time>2024-11-06T06:22:43.965Z</time>
      </trkpt>
      <trkpt lat="44.20991" lon="3.47631">
        <ele>1036.61</ele>
        <time>2024-11-06T06:23:02.290Z</time>
      </trkpt>
      <trkpt lat="44.20989" lon="3.47636">
        <ele>1036.62</ele>
        <time>2024-11-06T06:23:20.616Z</time>
      </trkpt>
      <trkpt lat="44.20972" lon="3.47673">
        <ele>1036.67</ele>
        <time>2024-11-06T06:23:38.947Z</time>
      </trkpt>
      <trkpt lat="44.20968" lon="3.47682">
        <ele>1036.75</ele>
        <time>2024-11-06T06:23:57.279Z</time>
      </trkpt>
      <trkpt lat="44.20953" lon="3.47721">
        <ele>1036.95</ele>
        <time>2024-11-06T06:24:15.616Z</time>
      </trkpt>
      <trkpt lat="44.20938" lon="3.47759">
        <ele>1037.16</ele>
        <time>2024-11-06T06:24:33.958Z</time>
      </trkpt>
      <trkpt lat="44.20923" lon="3.47798">
        <ele>1037.27</ele>
        <time>2024-11-06T06:24:52.305Z</time>
      </trkpt>
      <trkpt lat="44.20918" lon="3.47811">
        <ele>1037.4</ele>
        <time>2024-11-06T06:25:10.654Z</time>
      </trkpt>
      <trkpt lat="44.20911" lon="3.47827">
        <ele>1037.57</ele>
        <time>2024-11-06T06:25:29.005Z</time>
      </trkpt>
      <trkpt lat="44.20908" lon="3.47843">
        <ele>1037.76</ele>
        <time>2024-11-06T06:25:47.358Z</time>
      </trkpt>
      <trkpt lat="44.20909" lon="3.47858">
        <ele>1037.97</ele>
        <time>2024-11-06T06:26:05.713Z</time>
      </trkpt>
      <trkpt lat="44.20918" lon="3.47895">
        <ele>1038.24</ele>
        <time>2024-11-06T06:26:24.072Z</time>
      </trkpt>
      <trkpt lat="44.20928" lon="3.47928">
        <ele>1038.49</ele>
        <time>2024-11-06T06:26:42.436Z</time>
      </trkpt>
      <trkpt lat="44.20937" lon="3.4795">
        <ele>1038.7</ele>
        <time>2024-11-06T06:27:00.803Z</time>
      </trkpt>
      <trkpt lat="44.20948" lon="3.4799">
        <ele>1038.92</ele>
        <time>2024-11-06T06:27:19.174Z</time>
      </trkpt>
      <trkpt lat="44.20951" lon="3.48019">
        <ele>1039.17</ele>
        <time>2024-11-06T06:27:37.549Z</time>
      </trkpt>
      <trkpt lat="44.20951" lon="3.4804">
        <ele>1039.41</ele>
        <time>2024-11-06T06:27:55.926Z</time>
      </trkpt>
      <trkpt lat="44.20947" lon="3.48063">
        <ele>1039.67</ele>
        <time>2024-11-06T06:28:14.306Z</time>
      </trkpt>
      <trkpt lat="44.20946" lon="3.48088">
        <ele>1039.93</ele>
        <time>2024-11-06T06:28:32.689Z</time>
      </trkpt>
      <trkpt lat="44.20949" lon="3.4812">
        <ele>1040.19</ele>
        <time>2024-11-06T06:28:51.076Z</time>
      </trkpt>
      <trkpt lat="44.20948" lon="3.48137">
        <ele>1040.41</ele>
        <time>2024-11-06T06:29:09.465Z</time>
      </trkpt>
      <trkpt lat="44.20943" lon="3.48156">
        <ele>1040.64</ele>
        <time>2024-11-06T06:29:27.856Z</time>
      </trkpt>
      <trkpt lat="44.20933" lon="3.48174">
        <ele>1040.86</ele>
        <time>2024-11-06T06:29:46.249Z</time>
      </trkpt>
      <trkpt lat="44.20908" lon="3.48201">
        <ele>1041.06</ele>
        <time>2024-11-06T06:30:04.648Z</time>
      </trkpt>
      <trkpt lat="44.20897" lon="3.48213">
        <ele>1041.33</ele>
        <time>2024-11-06T06:30:23.049Z</time>
      </trkpt>
      <trkpt lat="44.20883" lon="3.48233">
        <ele>1041.6</ele>
        <time>2024-11-06T06:30:41.453Z</time>
      </trkpt>
      <trkpt lat="44.20877" lon="3.4824">
        <ele>1041.85</ele>
        <time>2024-11-06T06:30:59.858Z</time>
      </trkpt>
      <trkpt lat="44.20864" lon="3.48247">
        <ele>1042.08</ele>
        <time>2024-11-06T06:31:18.265Z</time>
      </trkpt>
      <trkpt lat="44.20855" lon="3.48252">
        <ele>1042.32</ele>
        <time>2024-11-06T06:31:36.674Z</time>
      </trkpt>
      <trkpt lat="44.2085" lon="3.48259">
        <ele>1042.56</ele>
        <time>2024-11-06T06:31:55.084Z</time>
      </trkpt>
      <trkpt lat="44.20846" lon="3.48274">
        <ele>1042.8</ele>
        <time>2024-11-06T06:32:13.496Z</time>
      </trkpt>
      <trkpt lat="44.20853" lon="3.48304">
        <ele>1043.04</ele>
        <time>2024-11-06T06:32:31.912Z</time>
      </trkpt>
      <trkpt lat="44.20855" lon="3.48329">
        <ele>1043.36</ele>
        <time>2024-11-06T06:32:50.331Z</time>
      </trkpt>
      <trkpt lat="44.20854" lon="3.48373">
        <ele>1043.67</ele>
        <time>2024-11-06T06:33:08.755Z</time>
      </trkpt>
      <trkpt lat="44.20854" lon="3.48398">
        <ele>1043.99</ele>
        <time>2024-11-06T06:33:27.181Z</time>
      </trkpt>
      <trkpt lat="44.20856" lon="3.48442">
        <ele>1044.35</ele>
        <time>2024-11-06T06:33:45.613Z</time>
      </trkpt>
      <trkpt lat="44.20858" lon="3.48485">
        <ele>1044.71</ele>
        <time>2024-11-06T06:34:04.050Z</time>
      </trkpt>
      <trkpt lat="44.20859" lon="3.48502">
        <ele>1045.04</ele>
        <time>2024-11-06T06:34:22.488Z</time>
      </trkpt>
      <trkpt lat="44.20855" lon="3.48545">
        <ele>1045.42</ele>
        <time>2024-11-06T06:34:40.932Z</time>
      </trkpt>
      <trkpt lat="44.20854" lon="3.48552">
        <ele>1045.74</ele>
        <time>2024-11-06T06:34:59.376Z</time>
      </trkpt>
      <trkpt lat="44.20842" lon="3.48571">
        <ele>1046.01</ele>
        <time>2024-11-06T06:35:17.823Z</time>
      </trkpt>
      <trkpt lat="44.20829" lon="3.48597">
        <ele>1046.28</ele>
        <time>2024-11-06T06:35:36.274Z</time>
      </trkpt>
      <trkpt lat="44.20825" lon="3.48626">
        <ele>1046.59</ele>
        <time>2024-11-06T06:35:54.728Z</time>
      </trkpt>
      <trkpt lat="44.20828" lon="3.48656">
        <ele>1046.94</ele>
        <time>2024-11-06T06:36:13.186Z</time>
      </trkpt>
      <trkpt lat="44.20822" lon="3.48691">
        <ele>1047.31</ele>
        <time>2024-11-06T06:36:31.648Z</time>
      </trkpt>
      <trkpt lat="44.2081" lon="3.48732">
        <ele>1047.73</ele>
        <time>2024-11-06T06:36:50.115Z</time>
      </trkpt>
      <trkpt lat="44.20799" lon="3.48772">
        <ele>1048.16</ele>
        <time>2024-11-06T06:37:08.587Z</time>
      </trkpt>
      <trkpt lat="44.20787" lon="3.48813">
        <ele>1048.6</ele>
        <time>2024-11-06T06:37:27.064Z</time>
      </trkpt>
      <trkpt lat="44.20783" lon="3.48828">
        <ele>1049.05</ele>
        <time>2024-11-06T06:37:45.543Z</time>
      </trkpt>
      <trkpt lat="44.20773" lon="3.48869">
        <ele>1049.52</ele>
        <time>2024-11-06T06:38:04.027Z</time>
      </trkpt>
      <trkpt lat="44.20762" lon="3.48911">
        <ele>1049.98</ele>
        <time>2024-11-06T06:38:22.516Z</time>
      </trkpt>
      <trkpt lat="44.20759" lon="3.48924">
        <ele>1050.46</ele>
        <time>2024-11-06T06:38:41.007Z</time>
      </trkpt>
      <trkpt lat="44.20747" lon="3.48964">
        <ele>1050.96</ele>
        <time>2024-11-06T06:38:59.503Z</time>
      </trkpt>
      <trkpt lat="44.20745" lon="3.48969">
        <ele>1051.47</ele>
        <time>2024-11-06T06:39:17.999Z</time>
      </trkpt>
      <trkpt lat="44.20737" lon="3.49011">
        <ele>1052.01</ele>
        <time>2024-11-06T06:39:36.500Z</time>
      </trkpt>
      <trkpt lat="44.20736" lon="3.49017">
        <ele>1052.55</ele>
        <time>2024-11-06T06:39:55.002Z</time>
      </trkpt>
      <trkpt lat="44.20731" lon="3.4906">
        <ele>1053.11</ele>
        <time>2024-11-06T06:40:13.509Z</time>
      </trkpt>
      <trkpt lat="44.20728" lon="3.4908">
        <ele>1053.68</ele>
        <time>2024-11-06T06:40:32.018Z</time>
      </trkpt>
      <trkpt lat="44.20725" lon="3.49124">
        <ele>1054.27</ele>
        <time>2024-11-06T06:40:50.532Z</time>
      </trkpt>
      <trkpt lat="44.20724" lon="3.49141">
        <ele>1054.85</ele>
        <time>2024-11-06T06:41:09.048Z</time>
      </trkpt>
      <trkpt lat="44.20725" lon="3.49166">
        <ele>1055.44</ele>
        <time>2024-11-06T06:41:27.567Z</time>
      </trkpt>
      <trkpt lat="44.2073" lon="3.49209">
        <ele>1056.03</ele>
        <time>2024-11-06T06:41:46.091Z</time>
      </trkpt>
      <trkpt lat="44.20731" lon="3.49221">
        <ele>1056.6</ele>
        <time>2024-11-06T06:42:04.617Z</time>
      </trkpt>
      <trkpt lat="44.20739" lon="3.49262">
        <ele>1057.29</ele>
        <time>2024-11-06T06:42:23.147Z</time>
      </trkpt>
      <trkpt lat="44.20747" lon="3.49287">
        <ele>1057.93</ele>
        <time>2024-11-06T06:42:41.681Z</time>
      </trkpt>
      <trkpt lat="44.20754" lon="3.49317">
        <ele>1058.51</ele>
        <time>2024-11-06T06:43:00.218Z</time>
      </trkpt>
      <trkpt lat="44.20757" lon="3.49341">
        <ele>1059.03</ele>
        <time>2024-11-06T06:43:18.758Z</time>
      </trkpt>
      <trkpt lat="44.20759" lon="3.49359">
        <ele>1059.52</ele>
        <time>2024-11-06T06:43:37.300Z</time>
      </trkpt>
      <trkpt lat="44.2076" lon="3.49403">
        <ele>1060</ele>
        <time>2024-11-06T06:43:55.847Z</time>
      </trkpt>
      <trkpt lat="44.2076" lon="3.49424">
        <ele>1060.47</ele>
        <time>2024-11-06T06:44:14.397Z</time>
      </trkpt>
      <trkpt lat="44.20763" lon="3.49468">
        <ele>1060.93</ele>
        <time>2024-11-06T06:44:32.952Z</time>
      </trkpt>
      <trkpt lat="44.20763" lon="3.49476">
        <ele>1061.37</ele>
        <time>2024-11-06T06:44:51.508Z</time>
      </trkpt>
      <trkpt lat="44.20768" lon="3.49519">
        <ele>1061.82</ele>
        <time>2024-11-06T06:45:10.069Z</time>
      </trkpt>
      <trkpt lat="44.20771" lon="3.49549">
        <ele>1062.25</ele>
        <time>2024-11-06T06:45:28.633Z</time>
      </trkpt>
      <trkpt lat="44.20774" lon="3.49593">
        <ele>1062.67</ele>
        <time>2024-11-06T06:45:47.202Z</time>
      </trkpt>
      <trkpt lat="44.20775" lon="3.49615">
        <ele>1063.03</ele>
        <time>2024-11-06T06:46:05.774Z</time>
      </trkpt>
      <trkpt lat="44.20775" lon="3.49658">
        <ele>1063.34</ele>
        <time>2024-11-06T06:46:24.351Z</time>
      </trkpt>
      <trkpt lat="44.2077" lon="3.49701">
        <ele>1063.63</ele>
        <time>2024-11-06T06:46:42.933Z</time>
      </trkpt>
      <trkpt lat="44.20765" lon="3.49738">
        <ele>1063.94</ele>
        <time>2024-11-06T06:47:01.519Z</time>
      </trkpt>
      <trkpt lat="44.20766" lon="3.49782">
        <ele>1064.23</ele>
        <time>2024-11-06T06:47:20.110Z</time>
      </trkpt>
      <trkpt lat="44.20766" lon="3.49782">
        <ele>1064.49</ele>
        <time>2024-11-06T06:47:38.701Z</time>
      </trkpt>
      <trkpt lat="44.20768" lon="3.49807">
        <ele>1064.76</ele>
        <time>2024-11-06T06:47:57.295Z</time>
      </trkpt>
      <trkpt lat="44.20772" lon="3.49851">
        <ele>1065.06</ele>
        <time>2024-11-06T06:48:15.894Z</time>
      </trkpt>
      <trkpt lat="44.20775" lon="3.49894">
        <ele>1065.29</ele>
        <time>2024-11-06T06:48:34.498Z</time>
      </trkpt>
      <trkpt lat="44.20778" lon="3.49931">
        <ele>1065.43</ele>
        <time>2024-11-06T06:48:53.106Z</time>
      </trkpt>
      <trkpt lat="44.20784" lon="3.49974">
        <ele>1065.52</ele>
        <time>2024-11-06T06:49:11.719Z</time>
      </trkpt>
      <trkpt lat="44.2079" lon="3.50017">
        <ele>1065.57</ele>
        <time>2024-11-06T06:49:30.337Z</time>
      </trkpt>
      <trkpt lat="44.20792" lon="3.50032">
        <ele>1065.65</ele>
        <time>2024-11-06T06:49:48.957Z</time>
      </trkpt>
      <trkpt lat="44.20793" lon="3.50076">
        <ele>1065.72</ele>
        <time>2024-11-06T06:50:07.582Z</time>
      </trkpt>
      <trkpt lat="44.20793" lon="3.5012">
        <ele>1065.8</ele>
        <time>2024-11-06T06:50:26.212Z</time>
      </trkpt>
      <trkpt lat="44.20793" lon="3.50125">
        <ele>1065.84</ele>
        <time>2024-11-06T06:50:44.843Z</time>
      </trkpt>
      <trkpt lat="44.20796" lon="3.50169">
        <ele>1065.86</ele>
        <time>2024-11-06T06:51:03.479Z</time>
      </trkpt>
      <trkpt lat="44.20797" lon="3.50178">
        <ele>1065.87</ele>
        <time>2024-11-06T06:51:22.116Z</time>
      </trkpt>
      <trkpt lat="44.20805" lon="3.50221">
        <ele>1065.87</ele>
        <time>2024-11-06T06:51:40.758Z</time>
      </trkpt>
      <trkpt lat="44.20811" lon="3.50256">
        <ele>1065.87</ele>
        <time>2024-11-06T06:51:59.404Z</time>
      </trkpt>
      <trkpt lat="44.20814" lon="3.50271">
        <ele>1065.82</ele>
        <time>2024-11-06T06:52:18.052Z</time>
      </trkpt>
      <trkpt lat="44.20831" lon="3.50264">
        <ele>1065.75</ele>
        <time>2024-11-06T06:52:36.703Z</time>
      </trkpt>
      <trkpt lat="44.20861" lon="3.50251">
        <ele>1065.61</ele>
        <time>2024-11-06T06:52:55.359Z</time>
      </trkpt>
      <trkpt lat="44.20888" lon="3.50239">
        <ele>1065.5</ele>
        <time>2024-11-06T06:53:14.019Z</time>
      </trkpt>
      <trkpt lat="44.20918" lon="3.50226">
        <ele>1065.4</ele>
        <time>2024-11-06T06:53:32.685Z</time>
      </trkpt>
      <trkpt lat="44.20926" lon="3.50223">
        <ele>1065.33</ele>
        <time>2024-11-06T06:53:51.352Z</time>
      </trkpt>
      <trkpt lat="44.20956" lon="3.5021">
        <ele>1065.24</ele>
        <time>2024-11-06T06:54:10.024Z</time>
      </trkpt>
      <trkpt lat="44.20957" lon="3.5021">
        <ele>1065.17</ele>
        <time>2024-11-06T06:54:28.696Z</time>
      </trkpt>
      <trkpt lat="44.2096" lon="3.5021">
        <ele>1065.11</ele>
        <time>2024-11-06T06:54:47.368Z</time>
      </trkpt>
      <trkpt lat="44.20963" lon="3.50214">
        <ele>1065.06</ele>
        <time>2024-11-06T06:55:06.041Z</time>
      </trkpt>
      <trkpt lat="44.20965" lon="3.50223">
        <ele>1065.02</ele>
        <time>2024-11-06T06:55:24.715Z</time>
      </trkpt>
      <trkpt lat="44.2097" lon="3.50266">
        <ele>1065</ele>
        <time>2024-11-06T06:55:43.394Z</time>
      </trkpt>
      <trkpt lat="44.20973" lon="3.50297">
        <ele>1064.96</ele>
        <time>2024-11-06T06:56:02.077Z</time>
      </trkpt>
      <trkpt lat="44.2098" lon="3.50335">
        <ele>1064.93</ele>
        <time>2024-11-06T06:56:20.764Z</time>
      </trkpt>
      <trkpt lat="44.20986" lon="3.50362">
        <ele>1064.93</ele>
        <time>2024-11-06T06:56:39.455Z</time>
      </trkpt>
      <trkpt lat="44.20996" lon="3.50399">
        <ele>1064.96</ele>
        <time>2024-11-06T06:56:58.150Z</time>
      </trkpt>
      <trkpt lat="44.21004" lon="3.5042">
        <ele>1064.98</ele>
        <time>2024-11-06T06:57:16.848Z</time>
      </trkpt>
      <trkpt lat="44.21019" lon="3.50459">
        <ele>1064.97</ele>
        <time>2024-11-06T06:57:35.551Z</time>
      </trkpt>
      <trkpt lat="44.21021" lon="3.50464">
        <ele>1064.98</ele>
        <time>2024-11-06T06:57:54.255Z</time>
      </trkpt>
      <trkpt lat="44.2103" lon="3.50489">
        <ele>1065.01</ele>
        <time>2024-11-06T06:58:12.962Z</time>
      </trkpt>
      <trkpt lat="44.21041" lon="3.5053">
        <ele>1065.07</ele>
        <time>2024-11-06T06:58:31.674Z</time>
      </trkpt>
      <trkpt lat="44.21043" lon="3.50536">
        <ele>1065.13</ele>
        <time>2024-11-06T06:58:50.387Z</time>
      </trkpt>
      <trkpt lat="44.21053" lon="3.50578">
        <ele>1065.21</ele>
        <time>2024-11-06T06:59:09.105Z</time>
      </trkpt>
      <trkpt lat="44.21059" lon="3.50603">
        <ele>1065.35</ele>
        <time>2024-11-06T06:59:27.826Z</time>
      </trkpt>
      <trkpt lat="44.21065" lon="3.50632">
        <ele>1065.5</ele>
        <time>2024-11-06T06:59:46.550Z</time>
      </trkpt>
      <trkpt lat="44.21077" lon="3.50673">
        <ele>1065.62</ele>
        <time>2024-11-06T07:00:05.279Z</time>
      </trkpt>
      <trkpt lat="44.21081" lon="3.50686">
        <ele>1065.75</ele>
        <time>2024-11-06T07:00:24.010Z</time>
      </trkpt>
      <trkpt lat="44.21092" lon="3.50725">
        <ele>1065.85</ele>
        <time>2024-11-06T07:00:42.746Z</time>
      </trkpt>
      <trkpt lat="44.21115" lon="3.50711">
        <ele>1066.07</ele>
        <time>2024-11-06T07:01:01.486Z</time>
      </trkpt>
      <trkpt lat="44.2114" lon="3.50697">
        <ele>1066.33</ele>
        <time>2024-11-06T07:01:20.230Z</time>
      </trkpt>
      <trkpt lat="44.21143" lon="3.50697">
        <ele>1066.53</ele>
        <time>2024-11-06T07:01:38.975Z</time>
      </trkpt>
      <trkpt lat="44.21151" lon="3.50702">
        <ele>1066.75</ele>
        <time>2024-11-06T07:01:57.721Z</time>
      </trkpt>
      <trkpt lat="44.2115" lon="3.50703">
        <ele>1066.98</ele>
        <time>2024-11-06T07:02:16.467Z</time>
      </trkpt>
      <trkpt lat="44.2115" lon="3.50703">
        <ele>1067.24</ele>
        <time>2024-11-06T07:02:35.213Z</time>
      </trkpt>
      <trkpt lat="44.2115" lon="3.50703">
        <ele>1067.51</ele>
        <time>2024-11-06T07:02:53.959Z</time>
      </trkpt>
      <trkpt lat="44.2115" lon="3.50703">
        <ele>1067.79</ele>
        <time>2024-11-06T07:03:12.705Z</time>
      </trkpt>
      <trkpt lat="44.21152" lon="3.50704">
        <ele>1068.1</ele>
        <time>2024-11-06T07:03:31.451Z</time>
      </trkpt>
      <trkpt lat="44.2116" lon="3.50715">
        <ele>1068.43</ele>
        <time>2024-11-06T07:03:50.199Z</time>
      </trkpt>
      <trkpt lat="44.21167" lon="3.50725">
        <ele>1068.78</ele>
        <time>2024-11-06T07:04:08.949Z</time>
      </trkpt>
      <trkpt lat="44.2117" lon="3.50728">
        <ele>1069.15</ele>
        <time>2024-11-06T07:04:27.699Z</time>
      </trkpt>
      <trkpt lat="44.21181" lon="3.50738">
        <ele>1069.54</ele>
        <time>2024-11-06T07:04:46.452Z</time>
      </trkpt>
      <trkpt lat="44.21181" lon="3.50738">
        <ele>1069.93</ele>
        <time>2024-11-06T07:05:05.205Z</time>
      </trkpt>
      <trkpt lat="44.21194" lon="3.50744">
        <ele>1070.37</ele>
        <time>2024-11-06T07:05:23.960Z</time>
      </trkpt>
      <trkpt lat="44.21208" lon="3.50751">
        <ele>1070.81</ele>
        <time>2024-11-06T07:05:42.717Z</time>
      </trkpt>
      <trkpt lat="44.21219" lon="3.50758">
        <ele>1071.23</ele>
        <time>2024-11-06T07:06:01.476Z</time>
      </trkpt>
      <trkpt lat="44.21235" lon="3.50768">
        <ele>1071.66</ele>
        <time>2024-11-06T07:06:20.238Z</time>
      </trkpt>
      <trkpt lat="44.21248" lon="3.50774">
        <ele>1072.15</ele>
        <time>2024-11-06T07:06:39.002Z</time>
      </trkpt>
      <trkpt lat="44.21257" lon="3.50777">
        <ele>1072.64</ele>
        <time>2024-11-06T07:06:57.768Z</time>
      </trkpt>
      <trkpt lat="44.21282" lon="3.50788">
        <ele>1073.2</ele>
        <time>2024-11-06T07:07:16.538Z</time>
      </trkpt>
      <trkpt lat="44.2129" lon="3.50794">
        <ele>1073.65</ele>
        <time>2024-11-06T07:07:35.309Z</time>
      </trkpt>
      <trkpt lat="44.21305" lon="3.5081">
        <ele>1074.1</ele>
        <time>2024-11-06T07:07:54.083Z</time>
      </trkpt>
      <trkpt lat="44.21312" lon="3.50821">
        <ele>1074.52</ele>
        <time>2024-11-06T07:08:12.859Z</time>
      </trkpt>
      <trkpt lat="44.21323" lon="3.50845">
        <ele>1074.94</ele>
        <time>2024-11-06T07:08:31.638Z</time>
      </trkpt>
      <trkpt lat="44.21327" lon="3.50855">
        <ele>1075.38</ele>
        <time>2024-11-06T07:08:50.419Z</time>
      </trkpt>
      <trkpt lat="44.21331" lon="3.50863">
        <ele>1075.84</ele>
        <time>2024-11-06T07:09:09.201Z</time>
      </trkpt>
      <trkpt lat="44.21343" lon="3.50878">
        <ele>1076.31</ele>
        <time>2024-11-06T07:09:27.985Z</time>
      </trkpt>
      <trkpt lat="44.21346" lon="3.50882">
        <ele>1076.78</ele>
        <time>2024-11-06T07:09:46.770Z</time>
      </trkpt>
      <trkpt lat="44.21356" lon="3.5089">
        <ele>1077.27</ele>
        <time>2024-11-06T07:10:05.557Z</time>
      </trkpt>
      <trkpt lat="44.21362" lon="3.50893">
        <ele>1077.75</ele>
        <time>2024-11-06T07:10:24.345Z</time>
      </trkpt>
      <trkpt lat="44.21367" lon="3.50895">
        <ele>1078.23</ele>
        <time>2024-11-06T07:10:43.134Z</time>
      </trkpt>
      <trkpt lat="44.21379" lon="3.50897">
        <ele>1078.72</ele>
        <time>2024-11-06T07:11:01.925Z</time>
      </trkpt>
      <trkpt lat="44.21416" lon="3.50904">
        <ele>1079.26</ele>
        <time>2024-11-06T07:11:20.722Z</time>
      </trkpt>
      <trkpt lat="44.21423" lon="3.5091">
        <ele>1079.71</ele>
        <time>2024-11-06T07:11:39.520Z</time>
      </trkpt>
      <trkpt lat="44.21434" lon="3.50919">
        <ele>1080.17</ele>
        <time>2024-11-06T07:11:58.320Z</time>
      </trkpt>
      <trkpt lat="44.2145" lon="3.50932">
        <ele>1080.6</ele>
        <time>2024-11-06T07:12:17.123Z</time>
      </trkpt>
      <trkpt lat="44.21457" lon="3.50938">
        <ele>1081</ele>
        <time>2024-11-06T07:12:35.927Z</time>
      </trkpt>
      <trkpt lat="44.21478" lon="3.50955">
        <ele>1081.38</ele>
        <time>2024-11-06T07:12:54.735Z</time>
      </trkpt>
      <trkpt lat="44.21483" lon="3.50962">
        <ele>1081.74</ele>
        <time>2024-11-06T07:13:13.544Z</time>
      </trkpt>
      <trkpt lat="44.21485" lon="3.50964">
        <ele>1082.08</ele>
        <time>2024-11-06T07:13:32.354Z</time>
      </trkpt>
      <trkpt lat="44.21489" lon="3.50972">
        <ele>1082.41</ele>
        <time>2024-11-06T07:13:51.165Z</time>
      </trkpt>
      <trkpt lat="44.21501" lon="3.50998">
        <ele>1082.74</ele>
        <time>2024-11-06T07:14:09.979Z</time>
      </trkpt>
      <trkpt lat="44.21502" lon="3.50999">
        <ele>1083.05</ele>
        <time>2024-11-06T07:14:28.793Z</time>
      </trkpt>
      <trkpt lat="44.2151" lon="3.51012">
        <ele>1083.36</ele>
        <time>2024-11-06T07:14:47.609Z</time>
      </trkpt>
      <trkpt lat="44.21515" lon="3.51022">
        <ele>1083.65</ele>
        <time>2024-11-06T07:15:06.427Z</time>
      </trkpt>
      <trkpt lat="44.21521" lon="3.51032">
        <ele>1083.91</ele>
        <time>2024-11-06T07:15:25.246Z</time>
      </trkpt>
      <trkpt lat="44.21526" lon="3.51042">
        <ele>1084.16</ele>
        <time>2024-11-06T07:15:44.067Z</time>
      </trkpt>
      <trkpt lat="44.21532" lon="3.51052">
        <ele>1084.4</ele>
        <time>2024-11-06T07:16:02.889Z</time>
      </trkpt>
      <trkpt lat="44.21537" lon="3.51062">
        <ele>1084.62</ele>
        <time>2024-11-06T07:16:21.713Z</time>
      </trkpt>
      <trkpt lat="44.21548" lon="3.51081">
        <ele>1084.82</ele>
        <time>2024-11-06T07:16:40.539Z</time>
      </trkpt>
      <trkpt lat="44.2155" lon="3.51084">
        <ele>1085.01</ele>
        <time>2024-11-06T07:16:59.366Z</time>
      </trkpt>
      <trkpt lat="44.21554" lon="3.51091">
        <ele>1085.18</ele>
        <time>2024-11-06T07:17:18.194Z</time>
      </trkpt>
      <trkpt lat="44.21559" lon="3.51102">
        <ele>1085.34</ele>
        <time>2024-11-06T07:17:37.023Z</time>
      </trkpt>
      <trkpt lat="44.21574" lon="3.51133">
        <ele>1085.5</ele>
        <time>2024-11-06T07:17:55.857Z</time>
      </trkpt>
      <trkpt lat="44.21581" lon="3.51148">
        <ele>1085.64</ele>
        <time>2024-11-06T07:18:14.693Z</time>
      </trkpt>
      <trkpt lat="44.21589" lon="3.51163">
        <ele>1085.77</ele>
        <time>2024-11-06T07:18:33.531Z</time>
      </trkpt>
      <trkpt lat="44.21594" lon="3.51174">
        <ele>1085.88</ele>
        <time>2024-11-06T07:18:52.370Z</time>
      </trkpt>
      <trkpt lat="44.21599" lon="3.51184">
        <ele>1085.98</ele>
        <time>2024-11-06T07:19:11.211Z</time>
      </trkpt>
      <trkpt lat="44.21617" lon="3.51221">
        <ele>1086.05</ele>
        <time>2024-11-06T07:19:30.057Z</time>
      </trkpt>
      <trkpt lat="44.21623" lon="3.51229">
        <ele>1086.12</ele>
        <time>2024-11-06T07:19:48.904Z</time>
      </trkpt>
      <trkpt lat="44.2163" lon="3.51237">
        <ele>1086.18</ele>
        <time>2024-11-06T07:20:07.753Z</time>
      </trkpt>
      <trkpt lat="44.21646" lon="3.51251">
        <ele>1086.21</ele>
        <time>2024-11-06T07:20:26.605Z</time>
      </trkpt>
      <trkpt lat="44.21649" lon="3.51253">
        <ele>1086.24</ele>
        <time>2024-11-06T07:20:45.457Z</time>
      </trkpt>
      <trkpt lat="44.21669" lon="3.51268">
        <ele>1086.25</ele>
        <time>2024-11-06T07:21:04.313Z</time>
      </trkpt>
      <trkpt lat="44.21676" lon="3.51274">
        <ele>1086.25</ele>
        <time>2024-11-06T07:21:23.170Z</time>
      </trkpt>
      <trkpt lat="44.21684" lon="3.5128">
        <ele>1086.26</ele>
        <time>2024-11-06T07:21:42.029Z</time>
      </trkpt>
      <trkpt lat="44.21696" lon="3.51289">
        <ele>1086.26</ele>
        <time>2024-11-06T07:22:00.890Z</time>
      </trkpt>
      <trkpt lat="44.21743" lon="3.51325">
        <ele>1086.3</ele>
        <time>2024-11-06T07:22:19.759Z</time>
      </trkpt>
      <trkpt lat="44.21755" lon="3.51334">
        <ele>1086.29</ele>
        <time>2024-11-06T07:22:38.631Z</time>
      </trkpt>
      <trkpt lat="44.21763" lon="3.5134">
        <ele>1086.26</ele>
        <time>2024-11-06T07:22:57.504Z</time>
      </trkpt>
      <trkpt lat="44.21768" lon="3.51344">
        <ele>1086.21</ele>
        <time>2024-11-06T07:23:16.378Z</time>
      </trkpt>
      <trkpt lat="44.2177" lon="3.51347">
        <ele>1086.16</ele>
        <time>2024-11-06T07:23:35.252Z</time>
      </trkpt>
      <trkpt lat="44.21777" lon="3.51354">
        <ele>1086.09</ele>
        <time>2024-11-06T07:23:54.128Z</time>
      </trkpt>
      <trkpt lat="44.21781" lon="3.51358">
        <ele>1086.01</ele>
        <time>2024-11-06T07:24:13.005Z</time>
      </trkpt>
      <trkpt lat="44.21784" lon="3.51362">
        <ele>1085.93</ele>
        <time>2024-11-06T07:24:31.882Z</time>
      </trkpt>
      <trkpt lat="44.2182" lon="3.51402">
        <ele>1085.81</ele>
        <time>2024-11-06T07:24:50.767Z</time>
      </trkpt>
      <trkpt lat="44.21827" lon="3.51409">
        <ele>1085.73</ele>
        <time>2024-11-06T07:25:09.653Z</time>
      </trkpt>
      <trkpt lat="44.21838" lon="3.51419">
        <ele>1085.64</ele>
        <time>2024-11-06T07:25:28.541Z</time>
      </trkpt>
      <trkpt lat="44.21838" lon="3.51419">
        <ele>1085.55</ele>
        <time>2024-11-06T07:25:47.429Z</time>
      </trkpt>
      <trkpt lat="44.2185" lon="3.51428">
        <ele>1085.45</ele>
        <time>2024-11-06T07:26:06.319Z</time>
      </trkpt>
      <trkpt lat="44.21856" lon="3.51433">
        <ele>1085.34</ele>
        <time>2024-11-06T07:26:25.210Z</time>
      </trkpt>
      <trkpt lat="44.21858" lon="3.51434">
        <ele>1085.21</ele>
        <time>2024-11-06T07:26:44.102Z</time>
      </trkpt>
      <trkpt lat="44.21865" lon="3.51437">
        <ele>1085.07</ele>
        <time>2024-11-06T07:27:02.995Z</time>
      </trkpt>
      <trkpt lat="44.21871" lon="3.51437">
        <ele>1084.91</ele>
        <time>2024-11-06T07:27:21.889Z</time>
      </trkpt>
      <trkpt lat="44.21889" lon="3.51438">
        <ele>1084.74</ele>
        <time>2024-11-06T07:27:40.786Z</time>
      </trkpt>
      <trkpt lat="44.21898" lon="3.51438">
        <ele>1084.56</ele>
        <time>2024-11-06T07:27:59.684Z</time>
      </trkpt>
      <trkpt lat="44.21914" lon="3.51438">
        <ele>1084.35</ele>
        <time>2024-11-06T07:28:18.585Z</time>
      </trkpt>
      <trkpt lat="44.21925" lon="3.51439">
        <ele>1084.14</ele>
        <time>2024-11-06T07:28:37.488Z</time>
      </trkpt>
      <trkpt lat="44.21934" lon="3.5144">
        <ele>1083.92</ele>
        <time>2024-11-06T07:28:56.392Z</time>
      </trkpt>
      <trkpt lat="44.21941" lon="3.51441">
        <ele>1083.71</ele>
        <time>2024-11-06T07:29:15.297Z</time>
      </trkpt>
      <trkpt lat="44.21952" lon="3.51444">
        <ele>1083.48</ele>
        <time>2024-11-06T07:29:34.204Z</time>
      </trkpt>
      <trkpt lat="44.21983" lon="3.51451">
        <ele>1083.25</ele>
        <time>2024-11-06T07:29:53.116Z</time>
      </trkpt>
      <trkpt lat="44.21996" lon="3.51454">
        <ele>1082.98</ele>
        <time>2024-11-06T07:30:12.030Z</time>
      </trkpt>
      <trkpt lat="44.22023" lon="3.5146">
        <ele>1082.68</ele>
        <time>2024-11-06T07:30:30.948Z</time>
      </trkpt>
      <trkpt lat="44.2204" lon="3.51464">
        <ele>1082.36</ele>
        <time>2024-11-06T07:30:49.869Z</time>
      </trkpt>
      <trkpt lat="44.22057" lon="3.51468">
        <ele>1081.99</ele>
        <time>2024-11-06T07:31:08.793Z</time>
      </trkpt>
      <trkpt lat="44.22058" lon="3.51468">
        <ele>1081.63</ele>
        <time>2024-11-06T07:31:27.717Z</time>
      </trkpt>
      <trkpt lat="44.22067" lon="3.51471">
        <ele>1081.23</ele>
        <time>2024-11-06T07:31:46.643Z</time>
      </trkpt>
      <trkpt lat="44.22072" lon="3.51473">
        <ele>1080.82</ele>
        <time>2024-11-06T07:32:05.569Z</time>
      </trkpt>
      <trkpt lat="44.22075" lon="3.51471">
        <ele>1080.38</ele>
        <time>2024-11-06T07:32:24.496Z</time>
      </trkpt>
      <trkpt lat="44.22083" lon="3.51465">
        <ele>1079.93</ele>
        <time>2024-11-06T07:32:43.424Z</time>
      </trkpt>
      <trkpt lat="44.22091" lon="3.51459">
        <ele>1079.45</ele>
        <time>2024-11-06T07:33:02.354Z</time>
      </trkpt>
      <trkpt lat="44.22099" lon="3.51454">
        <ele>1078.95</ele>
        <time>2024-11-06T07:33:21.285Z</time>
      </trkpt>
      <trkpt lat="44.22103" lon="3.51451">
        <ele>1078.43</ele>
        <time>2024-11-06T07:33:40.217Z</time>
      </trkpt>
      <trkpt lat="44.22104" lon="3.5145">
        <ele>1077.9</ele>
        <time>2024-11-06T07:33:59.149Z</time>
      </trkpt>
      <trkpt lat="44.22112" lon="3.51449">
        <ele>1077.32</ele>
        <time>2024-11-06T07:34:18.082Z</time>
      </trkpt>
      <trkpt lat="44.22119" lon="3.51447">
        <ele>1076.72</ele>
        <time>2024-11-06T07:34:37.017Z</time>
      </trkpt>
      <trkpt lat="44.2212" lon="3.51447">
        <ele>1076.15</ele>
        <time>2024-11-06T07:34:55.952Z</time>
      </trkpt>
      <trkpt lat="44.22125" lon="3.51447">
        <ele>1075.54</ele>
        <time>2024-11-06T07:35:14.888Z</time>
      </trkpt>
      <trkpt lat="44.22134" lon="3.51448">
        <ele>1074.91</ele>
        <time>2024-11-06T07:35:33.825Z</time>
      </trkpt>
      <trkpt lat="44.22138" lon="3.51448">
        <ele>1074.31</ele>
        <time>2024-11-06T07:35:52.763Z</time>
      </trkpt>
      <trkpt lat="44.22156" lon="3.51451">
        <ele>1073.67</ele>
        <time>2024-11-06T07:36:11.704Z</time>
      </trkpt>
      <trkpt lat="44.22165" lon="3.51453">
        <ele>1073.07</ele>
        <time>2024-11-06T07:36:30.646Z</time>
      </trkpt>
      <trkpt lat="44.22174" lon="3.51454">
        <ele>1072.47</ele>
        <time>2024-11-06T07:36:49.589Z</time>
      </trkpt>
      <trkpt lat="44.22207" lon="3.5146">
        <ele>1071.83</ele>
        <time>2024-11-06T07:37:08.538Z</time>
      </trkpt>
      <trkpt lat="44.22209" lon="3.5146">
        <ele>1071.29</ele>
        <time>2024-11-06T07:37:27.487Z</time>
      </trkpt>
      <trkpt lat="44.22218" lon="3.51461">
        <ele>1070.74</ele>
        <time>2024-11-06T07:37:46.438Z</time>
      </trkpt>
      <trkpt lat="44.22246" lon="3.51464">
        <ele>1070.18</ele>
        <time>2024-11-06T07:38:05.393Z</time>
      </trkpt>
      <trkpt lat="44.22249" lon="3.51464">
        <ele>1069.72</ele>
        <time>2024-11-06T07:38:24.348Z</time>
      </trkpt>
      <trkpt lat="44.22258" lon="3.51463">
        <ele>1069.27</ele>
        <time>2024-11-06T07:38:43.305Z</time>
      </trkpt>
      <trkpt lat="44.22267" lon="3.51463">
        <ele>1068.86</ele>
        <time>2024-11-06T07:39:02.263Z</time>
      </trkpt>
      <trkpt lat="44.22271" lon="3.51463">
        <ele>1068.5</ele>
        <time>2024-11-06T07:39:21.222Z</time>
      </trkpt>
      <trkpt lat="44.22276" lon="3.51462">
        <ele>1068.17</ele>
        <time>2024-11-06T07:39:40.182Z</time>
      </trkpt>
      <trkpt lat="44.22285" lon="3.51462">
        <ele>1067.88</ele>
        <time>2024-11-06T07:39:59.143Z</time>
      </trkpt>
      <trkpt lat="44.22289" lon="3.51462">
        <ele>1067.61</ele>
        <time>2024-11-06T07:40:18.105Z</time>
      </trkpt>
      <trkpt lat="44.22293" lon="3.51461">
        <ele>1067.38</ele>
        <time>2024-11-06T07:40:37.068Z</time>
      </trkpt>
      <trkpt lat="44.223" lon="3.51461">
        <ele>1067.18</ele>
        <time>2024-11-06T07:40:56.032Z</time>
      </trkpt>
      <trkpt lat="44.22302" lon="3.5146">
        <ele>1067.01</ele>
        <time>2024-11-06T07:41:14.996Z</time>
      </trkpt>
      <trkpt lat="44.22315" lon="3.51457">
        <ele>1066.87</ele>
        <time>2024-11-06T07:41:33.962Z</time>
      </trkpt>
      <trkpt lat="44.22315" lon="3.51457">
        <ele>1066.78</ele>
        <time>2024-11-06T07:41:52.928Z</time>
      </trkpt>
      <trkpt lat="44.22323" lon="3.51451">
        <ele>1066.73</ele>
        <time>2024-11-06T07:42:11.896Z</time>
      </trkpt>
      <trkpt lat="44.22331" lon="3.51445">
        <ele>1066.73</ele>
        <time>2024-11-06T07:42:30.865Z</time>
      </trkpt>
      <trkpt lat="44.22335" lon="3.51442">
        <ele>1066.77</ele>
        <time>2024-11-06T07:42:49.835Z</time>
      </trkpt>
      <trkpt lat="44.22343" lon="3.51436">
        <ele>1066.87</ele>
        <time>2024-11-06T07:43:08.806Z</time>
      </trkpt>
      <trkpt lat="44.22351" lon="3.51431">
        <ele>1066.98</ele>
        <time>2024-11-06T07:43:27.779Z</time>
      </trkpt>
      <trkpt lat="44.22353" lon="3.51429">
        <ele>1067.15</ele>
        <time>2024-11-06T07:43:46.752Z</time>
      </trkpt>
      <trkpt lat="44.22359" lon="3.51425">
        <ele>1067.36</ele>
        <time>2024-11-06T07:44:05.726Z</time>
      </trkpt>
      <trkpt lat="44.22367" lon="3.5142">
        <ele>1067.63</ele>
        <time>2024-11-06T07:44:24.701Z</time>
      </trkpt>
      <trkpt lat="44.22377" lon="3.51414">
        <ele>1067.93</ele>
        <time>2024-11-06T07:44:43.678Z</time>
      </trkpt>
      <trkpt lat="44.22384" lon="3.51412">
        <ele>1068.22</ele>
        <time>2024-11-06T07:45:02.656Z</time>
      </trkpt>
      <trkpt lat="44.22392" lon="3.51408">
        <ele>1068.53</ele>
        <time>2024-11-06T07:45:21.636Z</time>
      </trkpt>
      <trkpt lat="44.22405" lon="3.51403">
        <ele>1068.86</ele>
        <time>2024-11-06T07:45:40.618Z</time>
      </trkpt>
      <trkpt lat="44.22427" lon="3.51395">
        <ele>1069.19</ele>
        <time>2024-11-06T07:45:59.603Z</time>
      </trkpt>
      <trkpt lat="44.22439" lon="3.5139">
        <ele>1069.49</ele>
        <time>2024-11-06T07:46:18.591Z</time>
      </trkpt>
      <trkpt lat="44.22452" lon="3.51385">
        <ele>1069.76</ele>
        <time>2024-11-06T07:46:37.581Z</time>
      </trkpt>
      <trkpt lat="44.22461" lon="3.51382">
        <ele>1070.03</ele>
        <time>2024-11-06T07:46:56.572Z</time>
      </trkpt>
      <trkpt lat="44.22469" lon="3.51378">
        <ele>1070.28</ele>
        <time>2024-11-06T07:47:15.565Z</time>
      </trkpt>
      <trkpt lat="44.22496" lon="3.51368">
        <ele>1070.56</ele>
        <time>2024-11-06T07:47:34.562Z</time>
      </trkpt>
    </trkseg>
  </trk>
</gpx>